<?xml version="1.0" encoding="UTF-8" standalone="no" ?>
<gpx xmlns="http://www.topografix.com/GPX/1/1" xmlns:xsi="http://www.w3.org/2001/XMLSchema-instance" xsi:schemaLocation="http://www.topografix.com/GPX/1/1 http://www.topografix.com/GPX/1/1/gpx.xsd" version="1.1" creator="VisuGPX - https://www.visugpx.com">
  <metadata>
    <name>Glaris-Engelberg(tout)</name>
  </metadata>
  <trk>
    <name><![CDATA[Glaris-Engelberg(tout)_3]]></name>
    <extensions>
      <line xmlns="http://www.topografix.com/GPX/gpx_style/0/2">
        <color>FF0000</color>
        <width>4</width>
      </line>
    </extensions>
    <trkseg>
      <trkpt lat="46.99623" lon="8.867">
        <ele>1548</ele>
        <time>2021-08-04T07:19:07.793Z</time>
      </trkpt>
      <trkpt lat="46.99622" lon="8.867">
        <ele>1548</ele>
        <time>2021-08-04T07:19:08.794Z</time>
      </trkpt>
      <trkpt lat="46.99622" lon="8.86701">
        <ele>1548</ele>
        <time>2021-08-04T07:19:09.793Z</time>
      </trkpt>
      <trkpt lat="46.99622" lon="8.86701">
        <ele>1548</ele>
        <time>2021-08-04T07:19:10.794Z</time>
      </trkpt>
      <trkpt lat="46.99622" lon="8.86702">
        <ele>1548</ele>
        <time>2021-08-04T07:19:11.794Z</time>
      </trkpt>
      <trkpt lat="46.99621" lon="8.86702">
        <ele>1549</ele>
        <time>2021-08-04T07:19:12.794Z</time>
      </trkpt>
      <trkpt lat="46.9962" lon="8.86701">
        <ele>1549</ele>
        <time>2021-08-04T07:19:13.793Z</time>
      </trkpt>
      <trkpt lat="46.99619" lon="8.86701">
        <ele>1550</ele>
        <time>2021-08-04T07:19:14.794Z</time>
      </trkpt>
      <trkpt lat="46.99618" lon="8.86701">
        <ele>1550</ele>
        <time>2021-08-04T07:19:15.794Z</time>
      </trkpt>
      <trkpt lat="46.99618" lon="8.86701">
        <ele>1551</ele>
        <time>2021-08-04T07:19:16.794Z</time>
      </trkpt>
      <trkpt lat="46.99619" lon="8.86701">
        <ele>1552</ele>
        <time>2021-08-04T07:19:17.794Z</time>
      </trkpt>
      <trkpt lat="46.99619" lon="8.86702">
        <ele>1552</ele>
        <time>2021-08-04T07:19:18.794Z</time>
      </trkpt>
      <trkpt lat="46.9962" lon="8.86703">
        <ele>1552</ele>
        <time>2021-08-04T07:19:19.794Z</time>
      </trkpt>
      <trkpt lat="46.9962" lon="8.86704">
        <ele>1552</ele>
        <time>2021-08-04T07:19:20.794Z</time>
      </trkpt>
      <trkpt lat="46.99621" lon="8.86704">
        <ele>1552</ele>
        <time>2021-08-04T07:19:21.794Z</time>
      </trkpt>
      <trkpt lat="46.99621" lon="8.86705">
        <ele>1552</ele>
        <time>2021-08-04T07:19:22.794Z</time>
      </trkpt>
      <trkpt lat="46.99621" lon="8.86706">
        <ele>1552</ele>
        <time>2021-08-04T07:19:23.794Z</time>
      </trkpt>
      <trkpt lat="46.99622" lon="8.86707">
        <ele>1552</ele>
        <time>2021-08-04T07:19:24.794Z</time>
      </trkpt>
      <trkpt lat="46.99623" lon="8.86708">
        <ele>1552</ele>
        <time>2021-08-04T07:19:25.793Z</time>
      </trkpt>
      <trkpt lat="46.99623" lon="8.86709">
        <ele>1551</ele>
        <time>2021-08-04T07:19:26.794Z</time>
      </trkpt>
      <trkpt lat="46.99624" lon="8.8671">
        <ele>1551</ele>
        <time>2021-08-04T07:19:27.793Z</time>
      </trkpt>
      <trkpt lat="46.99625" lon="8.86711">
        <ele>1551</ele>
        <time>2021-08-04T07:19:28.793Z</time>
      </trkpt>
      <trkpt lat="46.99626" lon="8.86712">
        <ele>1551</ele>
        <time>2021-08-04T07:19:29.794Z</time>
      </trkpt>
      <trkpt lat="46.99627" lon="8.86713">
        <ele>1551</ele>
        <time>2021-08-04T07:19:30.794Z</time>
      </trkpt>
      <trkpt lat="46.99628" lon="8.86715">
        <ele>1550</ele>
        <time>2021-08-04T07:19:31.794Z</time>
      </trkpt>
      <trkpt lat="46.9963" lon="8.86717">
        <ele>1550</ele>
        <time>2021-08-04T07:19:32.794Z</time>
      </trkpt>
      <trkpt lat="46.9963" lon="8.86718">
        <ele>1549</ele>
        <time>2021-08-04T07:19:33.794Z</time>
      </trkpt>
      <trkpt lat="46.99631" lon="8.86719">
        <ele>1549</ele>
        <time>2021-08-04T07:19:34.793Z</time>
      </trkpt>
      <trkpt lat="46.99632" lon="8.8672">
        <ele>1548</ele>
        <time>2021-08-04T07:19:35.794Z</time>
      </trkpt>
      <trkpt lat="46.99633" lon="8.86721">
        <ele>1548</ele>
        <time>2021-08-04T07:19:36.793Z</time>
      </trkpt>
      <trkpt lat="46.99634" lon="8.86722">
        <ele>1547</ele>
        <time>2021-08-04T07:19:37.793Z</time>
      </trkpt>
      <trkpt lat="46.99635" lon="8.86723">
        <ele>1547</ele>
        <time>2021-08-04T07:19:38.794Z</time>
      </trkpt>
      <trkpt lat="46.99636" lon="8.86724">
        <ele>1546</ele>
        <time>2021-08-04T07:19:39.794Z</time>
      </trkpt>
      <trkpt lat="46.99637" lon="8.86725">
        <ele>1546</ele>
        <time>2021-08-04T07:19:40.793Z</time>
      </trkpt>
      <trkpt lat="46.99638" lon="8.86726">
        <ele>1545</ele>
        <time>2021-08-04T07:19:41.794Z</time>
      </trkpt>
      <trkpt lat="46.99638" lon="8.86727">
        <ele>1545</ele>
        <time>2021-08-04T07:19:42.793Z</time>
      </trkpt>
      <trkpt lat="46.99638" lon="8.86727">
        <ele>1545</ele>
        <time>2021-08-04T07:19:43.794Z</time>
      </trkpt>
      <trkpt lat="46.99636" lon="8.86729">
        <ele>1546</ele>
        <time>2021-08-04T07:19:44.793Z</time>
      </trkpt>
      <trkpt lat="46.99635" lon="8.86729">
        <ele>1546</ele>
        <time>2021-08-04T07:19:45.794Z</time>
      </trkpt>
      <trkpt lat="46.99635" lon="8.86729">
        <ele>1547</ele>
        <time>2021-08-04T07:19:46.793Z</time>
      </trkpt>
      <trkpt lat="46.99634" lon="8.86729">
        <ele>1547</ele>
        <time>2021-08-04T07:19:47.794Z</time>
      </trkpt>
      <trkpt lat="46.99634" lon="8.86728">
        <ele>1547</ele>
        <time>2021-08-04T07:19:48.794Z</time>
      </trkpt>
      <trkpt lat="46.99633" lon="8.86729">
        <ele>1547</ele>
        <time>2021-08-04T07:19:49.793Z</time>
      </trkpt>
      <trkpt lat="46.99632" lon="8.86729">
        <ele>1547</ele>
        <time>2021-08-04T07:19:50.793Z</time>
      </trkpt>
      <trkpt lat="46.99631" lon="8.8673">
        <ele>1548</ele>
        <time>2021-08-04T07:19:51.793Z</time>
      </trkpt>
      <trkpt lat="46.9963" lon="8.86732">
        <ele>1548</ele>
        <time>2021-08-04T07:19:52.793Z</time>
      </trkpt>
      <trkpt lat="46.99629" lon="8.86734">
        <ele>1548</ele>
        <time>2021-08-04T07:19:53.794Z</time>
      </trkpt>
      <trkpt lat="46.99628" lon="8.86735">
        <ele>1548</ele>
        <time>2021-08-04T07:19:54.794Z</time>
      </trkpt>
      <trkpt lat="46.99627" lon="8.86736">
        <ele>1548</ele>
        <time>2021-08-04T07:19:55.794Z</time>
      </trkpt>
      <trkpt lat="46.99627" lon="8.86736">
        <ele>1548</ele>
        <time>2021-08-04T07:19:56.793Z</time>
      </trkpt>
      <trkpt lat="46.99625" lon="8.86734">
        <ele>1547</ele>
        <time>2021-08-04T07:19:57.795Z</time>
      </trkpt>
      <trkpt lat="46.99625" lon="8.86734">
        <ele>1547</ele>
        <time>2021-08-04T07:19:58.794Z</time>
      </trkpt>
      <trkpt lat="46.99625" lon="8.86734">
        <ele>1547</ele>
        <time>2021-08-04T07:19:59.795Z</time>
      </trkpt>
      <trkpt lat="46.99625" lon="8.86736">
        <ele>1549</ele>
        <time>2021-08-04T07:20:00.795Z</time>
      </trkpt>
      <trkpt lat="46.99625" lon="8.86737">
        <ele>1548</ele>
        <time>2021-08-04T07:20:01.795Z</time>
      </trkpt>
      <trkpt lat="46.99625" lon="8.86738">
        <ele>1548</ele>
        <time>2021-08-04T07:20:02.795Z</time>
      </trkpt>
      <trkpt lat="46.99625" lon="8.8674">
        <ele>1548</ele>
        <time>2021-08-04T07:20:03.795Z</time>
      </trkpt>
      <trkpt lat="46.99625" lon="8.86742">
        <ele>1548</ele>
        <time>2021-08-04T07:20:04.795Z</time>
      </trkpt>
      <trkpt lat="46.99625" lon="8.86743">
        <ele>1547</ele>
        <time>2021-08-04T07:20:05.795Z</time>
      </trkpt>
      <trkpt lat="46.99625" lon="8.86743">
        <ele>1547</ele>
        <time>2021-08-04T07:20:06.796Z</time>
      </trkpt>
      <trkpt lat="46.99626" lon="8.86745">
        <ele>1547</ele>
        <time>2021-08-04T07:20:07.796Z</time>
      </trkpt>
      <trkpt lat="46.99626" lon="8.86746">
        <ele>1548</ele>
        <time>2021-08-04T07:20:08.795Z</time>
      </trkpt>
      <trkpt lat="46.99626" lon="8.86747">
        <ele>1547</ele>
        <time>2021-08-04T07:20:09.795Z</time>
      </trkpt>
      <trkpt lat="46.99626" lon="8.86749">
        <ele>1548</ele>
        <time>2021-08-04T07:20:10.795Z</time>
      </trkpt>
      <trkpt lat="46.99627" lon="8.86752">
        <ele>1550</ele>
        <time>2021-08-04T07:20:11.796Z</time>
      </trkpt>
      <trkpt lat="46.99627" lon="8.86752">
        <ele>1551</ele>
        <time>2021-08-04T07:20:12.797Z</time>
      </trkpt>
      <trkpt lat="46.99627" lon="8.86751">
        <ele>1551</ele>
        <time>2021-08-04T07:20:13.796Z</time>
      </trkpt>
      <trkpt lat="46.99631" lon="8.86749">
        <ele>1554</ele>
        <time>2021-08-04T07:20:14.797Z</time>
      </trkpt>
      <trkpt lat="46.99632" lon="8.86748">
        <ele>1554</ele>
        <time>2021-08-04T07:20:15.796Z</time>
      </trkpt>
      <trkpt lat="46.99633" lon="8.86747">
        <ele>1554</ele>
        <time>2021-08-04T07:20:16.796Z</time>
      </trkpt>
      <trkpt lat="46.99634" lon="8.86747">
        <ele>1554</ele>
        <time>2021-08-04T07:20:17.796Z</time>
      </trkpt>
      <trkpt lat="46.99634" lon="8.86746">
        <ele>1553</ele>
        <time>2021-08-04T07:20:18.797Z</time>
      </trkpt>
      <trkpt lat="46.99635" lon="8.86744">
        <ele>1553</ele>
        <time>2021-08-04T07:20:19.797Z</time>
      </trkpt>
      <trkpt lat="46.99636" lon="8.86742">
        <ele>1553</ele>
        <time>2021-08-04T07:20:20.796Z</time>
      </trkpt>
      <trkpt lat="46.99636" lon="8.8674">
        <ele>1552</ele>
        <time>2021-08-04T07:20:21.796Z</time>
      </trkpt>
      <trkpt lat="46.99637" lon="8.86737">
        <ele>1552</ele>
        <time>2021-08-04T07:20:22.797Z</time>
      </trkpt>
      <trkpt lat="46.99637" lon="8.86735">
        <ele>1552</ele>
        <time>2021-08-04T07:20:23.796Z</time>
      </trkpt>
      <trkpt lat="46.99637" lon="8.86734">
        <ele>1551</ele>
        <time>2021-08-04T07:20:24.796Z</time>
      </trkpt>
      <trkpt lat="46.99638" lon="8.86732">
        <ele>1551</ele>
        <time>2021-08-04T07:20:25.797Z</time>
      </trkpt>
      <trkpt lat="46.99638" lon="8.8673">
        <ele>1550</ele>
        <time>2021-08-04T07:20:26.797Z</time>
      </trkpt>
      <trkpt lat="46.99638" lon="8.86729">
        <ele>1550</ele>
        <time>2021-08-04T07:20:27.797Z</time>
      </trkpt>
      <trkpt lat="46.99637" lon="8.86726">
        <ele>1550</ele>
        <time>2021-08-04T07:20:28.796Z</time>
      </trkpt>
      <trkpt lat="46.99636" lon="8.86724">
        <ele>1550</ele>
        <time>2021-08-04T07:20:29.797Z</time>
      </trkpt>
      <trkpt lat="46.99635" lon="8.86723">
        <ele>1549</ele>
        <time>2021-08-04T07:20:30.797Z</time>
      </trkpt>
      <trkpt lat="46.99634" lon="8.86721">
        <ele>1549</ele>
        <time>2021-08-04T07:20:31.796Z</time>
      </trkpt>
      <trkpt lat="46.99633" lon="8.8672">
        <ele>1550</ele>
        <time>2021-08-04T07:20:32.797Z</time>
      </trkpt>
      <trkpt lat="46.99633" lon="8.86718">
        <ele>1550</ele>
        <time>2021-08-04T07:20:33.796Z</time>
      </trkpt>
      <trkpt lat="46.99632" lon="8.86717">
        <ele>1550</ele>
        <time>2021-08-04T07:20:34.797Z</time>
      </trkpt>
      <trkpt lat="46.99631" lon="8.86717">
        <ele>1550</ele>
        <time>2021-08-04T07:20:35.796Z</time>
      </trkpt>
      <trkpt lat="46.99631" lon="8.86716">
        <ele>1550</ele>
        <time>2021-08-04T07:20:36.797Z</time>
      </trkpt>
      <trkpt lat="46.99631" lon="8.86715">
        <ele>1550</ele>
        <time>2021-08-04T07:20:37.796Z</time>
      </trkpt>
      <trkpt lat="46.9963" lon="8.86714">
        <ele>1550</ele>
        <time>2021-08-04T07:20:38.797Z</time>
      </trkpt>
      <trkpt lat="46.99629" lon="8.86713">
        <ele>1549</ele>
        <time>2021-08-04T07:20:39.797Z</time>
      </trkpt>
      <trkpt lat="46.99627" lon="8.86712">
        <ele>1549</ele>
        <time>2021-08-04T07:20:40.797Z</time>
      </trkpt>
      <trkpt lat="46.99626" lon="8.86711">
        <ele>1549</ele>
        <time>2021-08-04T07:20:41.797Z</time>
      </trkpt>
      <trkpt lat="46.99626" lon="8.8671">
        <ele>1549</ele>
        <time>2021-08-04T07:20:42.797Z</time>
      </trkpt>
      <trkpt lat="46.99625" lon="8.86709">
        <ele>1549</ele>
        <time>2021-08-04T07:20:43.796Z</time>
      </trkpt>
      <trkpt lat="46.99624" lon="8.86708">
        <ele>1549</ele>
        <time>2021-08-04T07:20:44.797Z</time>
      </trkpt>
      <trkpt lat="46.99622" lon="8.86707">
        <ele>1549</ele>
        <time>2021-08-04T07:20:45.797Z</time>
      </trkpt>
      <trkpt lat="46.99622" lon="8.86706">
        <ele>1549</ele>
        <time>2021-08-04T07:20:46.797Z</time>
      </trkpt>
      <trkpt lat="46.99621" lon="8.86704">
        <ele>1548</ele>
        <time>2021-08-04T07:20:47.796Z</time>
      </trkpt>
      <trkpt lat="46.9962" lon="8.86703">
        <ele>1548</ele>
        <time>2021-08-04T07:20:48.797Z</time>
      </trkpt>
      <trkpt lat="46.99619" lon="8.86702">
        <ele>1548</ele>
        <time>2021-08-04T07:20:49.797Z</time>
      </trkpt>
      <trkpt lat="46.99617" lon="8.86702">
        <ele>1547</ele>
        <time>2021-08-04T07:20:50.796Z</time>
      </trkpt>
      <trkpt lat="46.99616" lon="8.86701">
        <ele>1547</ele>
        <time>2021-08-04T07:20:51.796Z</time>
      </trkpt>
      <trkpt lat="46.99616" lon="8.867">
        <ele>1547</ele>
        <time>2021-08-04T07:20:52.797Z</time>
      </trkpt>
      <trkpt lat="46.99615" lon="8.86699">
        <ele>1547</ele>
        <time>2021-08-04T07:20:53.797Z</time>
      </trkpt>
      <trkpt lat="46.99613" lon="8.86698">
        <ele>1547</ele>
        <time>2021-08-04T07:20:54.796Z</time>
      </trkpt>
      <trkpt lat="46.99613" lon="8.86697">
        <ele>1547</ele>
        <time>2021-08-04T07:20:55.796Z</time>
      </trkpt>
      <trkpt lat="46.99613" lon="8.86697">
        <ele>1546</ele>
        <time>2021-08-04T07:20:56.797Z</time>
      </trkpt>
      <trkpt lat="46.99612" lon="8.86697">
        <ele>1546</ele>
        <time>2021-08-04T07:20:57.797Z</time>
      </trkpt>
      <trkpt lat="46.99612" lon="8.86697">
        <ele>1546</ele>
        <time>2021-08-04T07:20:58.797Z</time>
      </trkpt>
      <trkpt lat="46.99612" lon="8.86696">
        <ele>1545</ele>
        <time>2021-08-04T07:20:59.797Z</time>
      </trkpt>
      <trkpt lat="46.99611" lon="8.86696">
        <ele>1545</ele>
        <time>2021-08-04T07:21:00.797Z</time>
      </trkpt>
      <trkpt lat="46.9961" lon="8.86695">
        <ele>1544</ele>
        <time>2021-08-04T07:21:01.797Z</time>
      </trkpt>
      <trkpt lat="46.9961" lon="8.86694">
        <ele>1544</ele>
        <time>2021-08-04T07:21:02.797Z</time>
      </trkpt>
      <trkpt lat="46.9961" lon="8.86694">
        <ele>1544</ele>
        <time>2021-08-04T07:21:03.796Z</time>
      </trkpt>
      <trkpt lat="46.9961" lon="8.86694">
        <ele>1543</ele>
        <time>2021-08-04T07:21:04.797Z</time>
      </trkpt>
      <trkpt lat="46.9961" lon="8.86694">
        <ele>1543</ele>
        <time>2021-08-04T07:21:05.796Z</time>
      </trkpt>
      <trkpt lat="46.99612" lon="8.86693">
        <ele>1542</ele>
        <time>2021-08-04T07:21:06.798Z</time>
      </trkpt>
      <trkpt lat="46.99612" lon="8.86692">
        <ele>1542</ele>
        <time>2021-08-04T07:21:07.798Z</time>
      </trkpt>
      <trkpt lat="46.99613" lon="8.86691">
        <ele>1542</ele>
        <time>2021-08-04T07:21:08.797Z</time>
      </trkpt>
      <trkpt lat="46.99614" lon="8.86691">
        <ele>1542</ele>
        <time>2021-08-04T07:21:09.797Z</time>
      </trkpt>
      <trkpt lat="46.99615" lon="8.8669">
        <ele>1542</ele>
        <time>2021-08-04T07:21:10.798Z</time>
      </trkpt>
      <trkpt lat="46.99616" lon="8.86688">
        <ele>1542</ele>
        <time>2021-08-04T07:21:11.797Z</time>
      </trkpt>
      <trkpt lat="46.99617" lon="8.86687">
        <ele>1541</ele>
        <time>2021-08-04T07:21:12.798Z</time>
      </trkpt>
      <trkpt lat="46.99618" lon="8.86686">
        <ele>1541</ele>
        <time>2021-08-04T07:21:13.798Z</time>
      </trkpt>
      <trkpt lat="46.99618" lon="8.86685">
        <ele>1542</ele>
        <time>2021-08-04T07:21:14.798Z</time>
      </trkpt>
      <trkpt lat="46.99618" lon="8.86684">
        <ele>1542</ele>
        <time>2021-08-04T07:21:15.798Z</time>
      </trkpt>
      <trkpt lat="46.99618" lon="8.86684">
        <ele>1542</ele>
        <time>2021-08-04T07:21:16.797Z</time>
      </trkpt>
      <trkpt lat="46.99618" lon="8.86683">
        <ele>1542</ele>
        <time>2021-08-04T07:21:17.798Z</time>
      </trkpt>
      <trkpt lat="46.99618" lon="8.86681">
        <ele>1542</ele>
        <time>2021-08-04T07:21:18.799Z</time>
      </trkpt>
      <trkpt lat="46.99618" lon="8.8668">
        <ele>1543</ele>
        <time>2021-08-04T07:21:19.798Z</time>
      </trkpt>
      <trkpt lat="46.99618" lon="8.86679">
        <ele>1543</ele>
        <time>2021-08-04T07:21:20.798Z</time>
      </trkpt>
      <trkpt lat="46.99617" lon="8.86677">
        <ele>1542</ele>
        <time>2021-08-04T07:21:21.799Z</time>
      </trkpt>
      <trkpt lat="46.99616" lon="8.86675">
        <ele>1542</ele>
        <time>2021-08-04T07:21:22.799Z</time>
      </trkpt>
      <trkpt lat="46.99616" lon="8.86673">
        <ele>1542</ele>
        <time>2021-08-04T07:21:23.799Z</time>
      </trkpt>
      <trkpt lat="46.99616" lon="8.86673">
        <ele>1542</ele>
        <time>2021-08-04T07:21:24.798Z</time>
      </trkpt>
      <trkpt lat="46.99616" lon="8.86671">
        <ele>1542</ele>
        <time>2021-08-04T07:21:25.799Z</time>
      </trkpt>
      <trkpt lat="46.99616" lon="8.8667">
        <ele>1543</ele>
        <time>2021-08-04T07:21:26.799Z</time>
      </trkpt>
      <trkpt lat="46.99616" lon="8.86668">
        <ele>1543</ele>
        <time>2021-08-04T07:21:27.798Z</time>
      </trkpt>
      <trkpt lat="46.99616" lon="8.86666">
        <ele>1543</ele>
        <time>2021-08-04T07:21:28.799Z</time>
      </trkpt>
      <trkpt lat="46.99616" lon="8.86664">
        <ele>1543</ele>
        <time>2021-08-04T07:21:29.798Z</time>
      </trkpt>
      <trkpt lat="46.99616" lon="8.86663">
        <ele>1543</ele>
        <time>2021-08-04T07:21:30.799Z</time>
      </trkpt>
      <trkpt lat="46.99617" lon="8.86661">
        <ele>1544</ele>
        <time>2021-08-04T07:21:31.799Z</time>
      </trkpt>
      <trkpt lat="46.99617" lon="8.86658">
        <ele>1544</ele>
        <time>2021-08-04T07:21:32.799Z</time>
      </trkpt>
      <trkpt lat="46.99617" lon="8.86657">
        <ele>1544</ele>
        <time>2021-08-04T07:21:33.799Z</time>
      </trkpt>
      <trkpt lat="46.99617" lon="8.86655">
        <ele>1544</ele>
        <time>2021-08-04T07:21:34.799Z</time>
      </trkpt>
      <trkpt lat="46.99617" lon="8.86653">
        <ele>1545</ele>
        <time>2021-08-04T07:21:35.799Z</time>
      </trkpt>
      <trkpt lat="46.99617" lon="8.86652">
        <ele>1545</ele>
        <time>2021-08-04T07:21:36.799Z</time>
      </trkpt>
      <trkpt lat="46.99617" lon="8.86651">
        <ele>1545</ele>
        <time>2021-08-04T07:21:37.799Z</time>
      </trkpt>
      <trkpt lat="46.99617" lon="8.86649">
        <ele>1545</ele>
        <time>2021-08-04T07:21:38.799Z</time>
      </trkpt>
      <trkpt lat="46.99617" lon="8.86648">
        <ele>1545</ele>
        <time>2021-08-04T07:21:39.798Z</time>
      </trkpt>
      <trkpt lat="46.99617" lon="8.86646">
        <ele>1545</ele>
        <time>2021-08-04T07:21:40.799Z</time>
      </trkpt>
      <trkpt lat="46.99617" lon="8.86645">
        <ele>1546</ele>
        <time>2021-08-04T07:21:41.798Z</time>
      </trkpt>
      <trkpt lat="46.99617" lon="8.86643">
        <ele>1546</ele>
        <time>2021-08-04T07:21:42.799Z</time>
      </trkpt>
      <trkpt lat="46.99617" lon="8.86642">
        <ele>1546</ele>
        <time>2021-08-04T07:21:43.799Z</time>
      </trkpt>
      <trkpt lat="46.99617" lon="8.86641">
        <ele>1546</ele>
        <time>2021-08-04T07:21:44.799Z</time>
      </trkpt>
      <trkpt lat="46.99617" lon="8.86639">
        <ele>1546</ele>
        <time>2021-08-04T07:21:45.798Z</time>
      </trkpt>
      <trkpt lat="46.99617" lon="8.86638">
        <ele>1545</ele>
        <time>2021-08-04T07:21:46.799Z</time>
      </trkpt>
      <trkpt lat="46.99617" lon="8.86636">
        <ele>1545</ele>
        <time>2021-08-04T07:21:47.799Z</time>
      </trkpt>
      <trkpt lat="46.99616" lon="8.86635">
        <ele>1545</ele>
        <time>2021-08-04T07:21:48.799Z</time>
      </trkpt>
      <trkpt lat="46.99616" lon="8.86633">
        <ele>1545</ele>
        <time>2021-08-04T07:21:49.799Z</time>
      </trkpt>
      <trkpt lat="46.99616" lon="8.86632">
        <ele>1545</ele>
        <time>2021-08-04T07:21:50.798Z</time>
      </trkpt>
      <trkpt lat="46.99616" lon="8.8663">
        <ele>1545</ele>
        <time>2021-08-04T07:21:51.799Z</time>
      </trkpt>
      <trkpt lat="46.99616" lon="8.86628">
        <ele>1545</ele>
        <time>2021-08-04T07:21:52.799Z</time>
      </trkpt>
      <trkpt lat="46.99616" lon="8.86627">
        <ele>1545</ele>
        <time>2021-08-04T07:21:53.798Z</time>
      </trkpt>
      <trkpt lat="46.99616" lon="8.86625">
        <ele>1544</ele>
        <time>2021-08-04T07:21:54.799Z</time>
      </trkpt>
      <trkpt lat="46.99617" lon="8.86624">
        <ele>1544</ele>
        <time>2021-08-04T07:21:55.799Z</time>
      </trkpt>
      <trkpt lat="46.99617" lon="8.86622">
        <ele>1544</ele>
        <time>2021-08-04T07:21:56.798Z</time>
      </trkpt>
      <trkpt lat="46.99618" lon="8.86621">
        <ele>1544</ele>
        <time>2021-08-04T07:21:57.798Z</time>
      </trkpt>
      <trkpt lat="46.99618" lon="8.86619">
        <ele>1544</ele>
        <time>2021-08-04T07:21:58.799Z</time>
      </trkpt>
      <trkpt lat="46.99618" lon="8.86617">
        <ele>1544</ele>
        <time>2021-08-04T07:21:59.798Z</time>
      </trkpt>
      <trkpt lat="46.99618" lon="8.86615">
        <ele>1543</ele>
        <time>2021-08-04T07:22:00.798Z</time>
      </trkpt>
      <trkpt lat="46.99617" lon="8.86613">
        <ele>1544</ele>
        <time>2021-08-04T07:22:01.799Z</time>
      </trkpt>
      <trkpt lat="46.99616" lon="8.86612">
        <ele>1544</ele>
        <time>2021-08-04T07:22:02.798Z</time>
      </trkpt>
      <trkpt lat="46.99616" lon="8.8661">
        <ele>1545</ele>
        <time>2021-08-04T07:22:03.799Z</time>
      </trkpt>
      <trkpt lat="46.99616" lon="8.86608">
        <ele>1545</ele>
        <time>2021-08-04T07:22:04.799Z</time>
      </trkpt>
      <trkpt lat="46.99615" lon="8.86606">
        <ele>1545</ele>
        <time>2021-08-04T07:22:05.799Z</time>
      </trkpt>
      <trkpt lat="46.99615" lon="8.86605">
        <ele>1546</ele>
        <time>2021-08-04T07:22:06.799Z</time>
      </trkpt>
      <trkpt lat="46.99615" lon="8.86604">
        <ele>1546</ele>
        <time>2021-08-04T07:22:07.798Z</time>
      </trkpt>
      <trkpt lat="46.99615" lon="8.86602">
        <ele>1546</ele>
        <time>2021-08-04T07:22:08.799Z</time>
      </trkpt>
      <trkpt lat="46.99615" lon="8.866">
        <ele>1546</ele>
        <time>2021-08-04T07:22:09.798Z</time>
      </trkpt>
      <trkpt lat="46.99615" lon="8.86599">
        <ele>1546</ele>
        <time>2021-08-04T07:22:10.798Z</time>
      </trkpt>
      <trkpt lat="46.99615" lon="8.86597">
        <ele>1546</ele>
        <time>2021-08-04T07:22:11.798Z</time>
      </trkpt>
      <trkpt lat="46.99615" lon="8.86595">
        <ele>1546</ele>
        <time>2021-08-04T07:22:12.798Z</time>
      </trkpt>
      <trkpt lat="46.99615" lon="8.86594">
        <ele>1547</ele>
        <time>2021-08-04T07:22:13.799Z</time>
      </trkpt>
      <trkpt lat="46.99615" lon="8.86593">
        <ele>1547</ele>
        <time>2021-08-04T07:22:14.798Z</time>
      </trkpt>
      <trkpt lat="46.99615" lon="8.86591">
        <ele>1547</ele>
        <time>2021-08-04T07:22:15.798Z</time>
      </trkpt>
      <trkpt lat="46.99614" lon="8.8659">
        <ele>1547</ele>
        <time>2021-08-04T07:22:16.799Z</time>
      </trkpt>
      <trkpt lat="46.99612" lon="8.86588">
        <ele>1547</ele>
        <time>2021-08-04T07:22:17.799Z</time>
      </trkpt>
      <trkpt lat="46.99611" lon="8.86586">
        <ele>1547</ele>
        <time>2021-08-04T07:22:18.798Z</time>
      </trkpt>
      <trkpt lat="46.99612" lon="8.86584">
        <ele>1547</ele>
        <time>2021-08-04T07:22:19.798Z</time>
      </trkpt>
      <trkpt lat="46.9961" lon="8.86582">
        <ele>1548</ele>
        <time>2021-08-04T07:22:20.799Z</time>
      </trkpt>
      <trkpt lat="46.99609" lon="8.86581">
        <ele>1548</ele>
        <time>2021-08-04T07:22:21.798Z</time>
      </trkpt>
      <trkpt lat="46.99608" lon="8.8658">
        <ele>1548</ele>
        <time>2021-08-04T07:22:22.798Z</time>
      </trkpt>
      <trkpt lat="46.99607" lon="8.86578">
        <ele>1548</ele>
        <time>2021-08-04T07:22:23.799Z</time>
      </trkpt>
      <trkpt lat="46.99606" lon="8.86577">
        <ele>1548</ele>
        <time>2021-08-04T07:22:24.799Z</time>
      </trkpt>
      <trkpt lat="46.99605" lon="8.86576">
        <ele>1548</ele>
        <time>2021-08-04T07:22:25.798Z</time>
      </trkpt>
      <trkpt lat="46.99603" lon="8.86574">
        <ele>1548</ele>
        <time>2021-08-04T07:22:26.798Z</time>
      </trkpt>
      <trkpt lat="46.99602" lon="8.86573">
        <ele>1548</ele>
        <time>2021-08-04T07:22:27.799Z</time>
      </trkpt>
      <trkpt lat="46.99602" lon="8.86572">
        <ele>1548</ele>
        <time>2021-08-04T07:22:28.798Z</time>
      </trkpt>
      <trkpt lat="46.99601" lon="8.86571">
        <ele>1548</ele>
        <time>2021-08-04T07:22:29.798Z</time>
      </trkpt>
      <trkpt lat="46.996" lon="8.8657">
        <ele>1547</ele>
        <time>2021-08-04T07:22:30.798Z</time>
      </trkpt>
      <trkpt lat="46.996" lon="8.86569">
        <ele>1547</ele>
        <time>2021-08-04T07:22:31.798Z</time>
      </trkpt>
      <trkpt lat="46.99599" lon="8.86568">
        <ele>1547</ele>
        <time>2021-08-04T07:22:32.798Z</time>
      </trkpt>
      <trkpt lat="46.99598" lon="8.86566">
        <ele>1546</ele>
        <time>2021-08-04T07:22:33.799Z</time>
      </trkpt>
      <trkpt lat="46.99598" lon="8.86565">
        <ele>1546</ele>
        <time>2021-08-04T07:22:34.798Z</time>
      </trkpt>
      <trkpt lat="46.99597" lon="8.86565">
        <ele>1546</ele>
        <time>2021-08-04T07:22:35.799Z</time>
      </trkpt>
      <trkpt lat="46.99597" lon="8.86565">
        <ele>1545</ele>
        <time>2021-08-04T07:22:36.798Z</time>
      </trkpt>
      <trkpt lat="46.99597" lon="8.86565">
        <ele>1545</ele>
        <time>2021-08-04T07:22:37.799Z</time>
      </trkpt>
      <trkpt lat="46.99596" lon="8.86565">
        <ele>1544</ele>
        <time>2021-08-04T07:22:38.799Z</time>
      </trkpt>
      <trkpt lat="46.99596" lon="8.86564">
        <ele>1544</ele>
        <time>2021-08-04T07:22:39.798Z</time>
      </trkpt>
      <trkpt lat="46.99596" lon="8.86563">
        <ele>1543</ele>
        <time>2021-08-04T07:22:40.798Z</time>
      </trkpt>
      <trkpt lat="46.99596" lon="8.86562">
        <ele>1542</ele>
        <time>2021-08-04T07:22:41.798Z</time>
      </trkpt>
      <trkpt lat="46.99596" lon="8.8656">
        <ele>1542</ele>
        <time>2021-08-04T07:22:42.798Z</time>
      </trkpt>
      <trkpt lat="46.99595" lon="8.86559">
        <ele>1541</ele>
        <time>2021-08-04T07:22:43.798Z</time>
      </trkpt>
      <trkpt lat="46.99595" lon="8.86558">
        <ele>1541</ele>
        <time>2021-08-04T07:22:44.798Z</time>
      </trkpt>
      <trkpt lat="46.99594" lon="8.86556">
        <ele>1541</ele>
        <time>2021-08-04T07:22:45.798Z</time>
      </trkpt>
      <trkpt lat="46.99593" lon="8.86555">
        <ele>1541</ele>
        <time>2021-08-04T07:22:46.798Z</time>
      </trkpt>
      <trkpt lat="46.99593" lon="8.86554">
        <ele>1540</ele>
        <time>2021-08-04T07:22:47.799Z</time>
      </trkpt>
      <trkpt lat="46.99592" lon="8.86553">
        <ele>1540</ele>
        <time>2021-08-04T07:22:48.799Z</time>
      </trkpt>
      <trkpt lat="46.99591" lon="8.86552">
        <ele>1540</ele>
        <time>2021-08-04T07:22:49.798Z</time>
      </trkpt>
      <trkpt lat="46.99591" lon="8.86552">
        <ele>1539</ele>
        <time>2021-08-04T07:22:50.798Z</time>
      </trkpt>
      <trkpt lat="46.99591" lon="8.86551">
        <ele>1539</ele>
        <time>2021-08-04T07:22:51.798Z</time>
      </trkpt>
      <trkpt lat="46.9959" lon="8.86551">
        <ele>1539</ele>
        <time>2021-08-04T07:22:52.798Z</time>
      </trkpt>
      <trkpt lat="46.9959" lon="8.86551">
        <ele>1539</ele>
        <time>2021-08-04T07:22:53.798Z</time>
      </trkpt>
      <trkpt lat="46.99589" lon="8.86551">
        <ele>1539</ele>
        <time>2021-08-04T07:22:54.798Z</time>
      </trkpt>
      <trkpt lat="46.99589" lon="8.8655">
        <ele>1540</ele>
        <time>2021-08-04T07:22:55.799Z</time>
      </trkpt>
      <trkpt lat="46.99589" lon="8.8655">
        <ele>1540</ele>
        <time>2021-08-04T07:22:56.799Z</time>
      </trkpt>
      <trkpt lat="46.99589" lon="8.8655">
        <ele>1541</ele>
        <time>2021-08-04T07:22:57.799Z</time>
      </trkpt>
      <trkpt lat="46.99589" lon="8.8655">
        <ele>1541</ele>
        <time>2021-08-04T07:22:58.799Z</time>
      </trkpt>
      <trkpt lat="46.99589" lon="8.86549">
        <ele>1541</ele>
        <time>2021-08-04T07:22:59.798Z</time>
      </trkpt>
      <trkpt lat="46.99589" lon="8.8655">
        <ele>1542</ele>
        <time>2021-08-04T07:23:00.798Z</time>
      </trkpt>
      <trkpt lat="46.99589" lon="8.86551">
        <ele>1543</ele>
        <time>2021-08-04T07:23:01.799Z</time>
      </trkpt>
      <trkpt lat="46.9959" lon="8.86551">
        <ele>1544</ele>
        <time>2021-08-04T07:23:02.799Z</time>
      </trkpt>
      <trkpt lat="46.99593" lon="8.86549">
        <ele>1544</ele>
        <time>2021-08-04T07:23:03.800Z</time>
      </trkpt>
      <trkpt lat="46.99593" lon="8.86549">
        <ele>1543</ele>
        <time>2021-08-04T07:23:04.800Z</time>
      </trkpt>
      <trkpt lat="46.99592" lon="8.86549">
        <ele>1542</ele>
        <time>2021-08-04T07:23:05.800Z</time>
      </trkpt>
      <trkpt lat="46.99591" lon="8.8655">
        <ele>1542</ele>
        <time>2021-08-04T07:23:06.800Z</time>
      </trkpt>
      <trkpt lat="46.99591" lon="8.8655">
        <ele>1541</ele>
        <time>2021-08-04T07:23:07.800Z</time>
      </trkpt>
      <trkpt lat="46.99591" lon="8.8655">
        <ele>1541</ele>
        <time>2021-08-04T07:23:08.800Z</time>
      </trkpt>
      <trkpt lat="46.9959" lon="8.8655">
        <ele>1540</ele>
        <time>2021-08-04T07:23:09.800Z</time>
      </trkpt>
      <trkpt lat="46.99589" lon="8.86548">
        <ele>1540</ele>
        <time>2021-08-04T07:23:10.800Z</time>
      </trkpt>
      <trkpt lat="46.99589" lon="8.86547">
        <ele>1540</ele>
        <time>2021-08-04T07:23:11.800Z</time>
      </trkpt>
      <trkpt lat="46.99588" lon="8.86546">
        <ele>1540</ele>
        <time>2021-08-04T07:23:12.800Z</time>
      </trkpt>
      <trkpt lat="46.99587" lon="8.86545">
        <ele>1540</ele>
        <time>2021-08-04T07:23:13.801Z</time>
      </trkpt>
      <trkpt lat="46.99586" lon="8.86544">
        <ele>1540</ele>
        <time>2021-08-04T07:23:14.801Z</time>
      </trkpt>
      <trkpt lat="46.99585" lon="8.86543">
        <ele>1539</ele>
        <time>2021-08-04T07:23:15.801Z</time>
      </trkpt>
      <trkpt lat="46.99585" lon="8.86542">
        <ele>1539</ele>
        <time>2021-08-04T07:23:16.800Z</time>
      </trkpt>
      <trkpt lat="46.99584" lon="8.86541">
        <ele>1539</ele>
        <time>2021-08-04T07:23:17.801Z</time>
      </trkpt>
      <trkpt lat="46.99583" lon="8.8654">
        <ele>1539</ele>
        <time>2021-08-04T07:23:18.801Z</time>
      </trkpt>
      <trkpt lat="46.99582" lon="8.86539">
        <ele>1539</ele>
        <time>2021-08-04T07:23:19.800Z</time>
      </trkpt>
      <trkpt lat="46.99582" lon="8.86537">
        <ele>1539</ele>
        <time>2021-08-04T07:23:20.801Z</time>
      </trkpt>
      <trkpt lat="46.99581" lon="8.86536">
        <ele>1539</ele>
        <time>2021-08-04T07:23:21.801Z</time>
      </trkpt>
      <trkpt lat="46.9958" lon="8.86535">
        <ele>1539</ele>
        <time>2021-08-04T07:23:22.801Z</time>
      </trkpt>
      <trkpt lat="46.99579" lon="8.86533">
        <ele>1539</ele>
        <time>2021-08-04T07:23:23.801Z</time>
      </trkpt>
      <trkpt lat="46.99578" lon="8.86533">
        <ele>1539</ele>
        <time>2021-08-04T07:23:24.801Z</time>
      </trkpt>
      <trkpt lat="46.99578" lon="8.86532">
        <ele>1539</ele>
        <time>2021-08-04T07:23:25.800Z</time>
      </trkpt>
      <trkpt lat="46.99577" lon="8.8653">
        <ele>1539</ele>
        <time>2021-08-04T07:23:26.800Z</time>
      </trkpt>
      <trkpt lat="46.99576" lon="8.86529">
        <ele>1539</ele>
        <time>2021-08-04T07:23:27.801Z</time>
      </trkpt>
      <trkpt lat="46.99575" lon="8.86527">
        <ele>1539</ele>
        <time>2021-08-04T07:23:28.801Z</time>
      </trkpt>
      <trkpt lat="46.99575" lon="8.86526">
        <ele>1539</ele>
        <time>2021-08-04T07:23:29.801Z</time>
      </trkpt>
      <trkpt lat="46.99574" lon="8.86524">
        <ele>1539</ele>
        <time>2021-08-04T07:23:30.801Z</time>
      </trkpt>
      <trkpt lat="46.99573" lon="8.86523">
        <ele>1539</ele>
        <time>2021-08-04T07:23:31.800Z</time>
      </trkpt>
      <trkpt lat="46.99572" lon="8.86521">
        <ele>1539</ele>
        <time>2021-08-04T07:23:32.801Z</time>
      </trkpt>
      <trkpt lat="46.99571" lon="8.86519">
        <ele>1539</ele>
        <time>2021-08-04T07:23:33.801Z</time>
      </trkpt>
      <trkpt lat="46.99571" lon="8.86518">
        <ele>1539</ele>
        <time>2021-08-04T07:23:34.800Z</time>
      </trkpt>
      <trkpt lat="46.9957" lon="8.86516">
        <ele>1539</ele>
        <time>2021-08-04T07:23:35.801Z</time>
      </trkpt>
      <trkpt lat="46.99569" lon="8.86514">
        <ele>1539</ele>
        <time>2021-08-04T07:23:36.801Z</time>
      </trkpt>
      <trkpt lat="46.99569" lon="8.86513">
        <ele>1539</ele>
        <time>2021-08-04T07:23:37.801Z</time>
      </trkpt>
      <trkpt lat="46.99569" lon="8.86511">
        <ele>1539</ele>
        <time>2021-08-04T07:23:38.801Z</time>
      </trkpt>
      <trkpt lat="46.99568" lon="8.8651">
        <ele>1538</ele>
        <time>2021-08-04T07:23:39.801Z</time>
      </trkpt>
      <trkpt lat="46.99567" lon="8.86509">
        <ele>1538</ele>
        <time>2021-08-04T07:23:40.800Z</time>
      </trkpt>
      <trkpt lat="46.99566" lon="8.86508">
        <ele>1538</ele>
        <time>2021-08-04T07:23:41.801Z</time>
      </trkpt>
      <trkpt lat="46.99565" lon="8.86507">
        <ele>1538</ele>
        <time>2021-08-04T07:23:42.801Z</time>
      </trkpt>
      <trkpt lat="46.99564" lon="8.86506">
        <ele>1538</ele>
        <time>2021-08-04T07:23:43.801Z</time>
      </trkpt>
      <trkpt lat="46.99563" lon="8.86504">
        <ele>1538</ele>
        <time>2021-08-04T07:23:44.800Z</time>
      </trkpt>
      <trkpt lat="46.99563" lon="8.86503">
        <ele>1537</ele>
        <time>2021-08-04T07:23:45.800Z</time>
      </trkpt>
      <trkpt lat="46.99562" lon="8.86501">
        <ele>1537</ele>
        <time>2021-08-04T07:23:46.800Z</time>
      </trkpt>
      <trkpt lat="46.99562" lon="8.86499">
        <ele>1537</ele>
        <time>2021-08-04T07:23:47.801Z</time>
      </trkpt>
      <trkpt lat="46.99561" lon="8.86497">
        <ele>1536</ele>
        <time>2021-08-04T07:23:48.801Z</time>
      </trkpt>
      <trkpt lat="46.9956" lon="8.86496">
        <ele>1536</ele>
        <time>2021-08-04T07:23:49.801Z</time>
      </trkpt>
      <trkpt lat="46.99559" lon="8.86495">
        <ele>1536</ele>
        <time>2021-08-04T07:23:50.801Z</time>
      </trkpt>
      <trkpt lat="46.99558" lon="8.86494">
        <ele>1536</ele>
        <time>2021-08-04T07:23:51.800Z</time>
      </trkpt>
      <trkpt lat="46.99558" lon="8.86493">
        <ele>1535</ele>
        <time>2021-08-04T07:23:52.800Z</time>
      </trkpt>
      <trkpt lat="46.99557" lon="8.86492">
        <ele>1535</ele>
        <time>2021-08-04T07:23:53.801Z</time>
      </trkpt>
      <trkpt lat="46.99557" lon="8.86491">
        <ele>1535</ele>
        <time>2021-08-04T07:23:54.801Z</time>
      </trkpt>
      <trkpt lat="46.99556" lon="8.86489">
        <ele>1534</ele>
        <time>2021-08-04T07:23:55.800Z</time>
      </trkpt>
      <trkpt lat="46.99555" lon="8.86488">
        <ele>1534</ele>
        <time>2021-08-04T07:23:56.801Z</time>
      </trkpt>
      <trkpt lat="46.99555" lon="8.86486">
        <ele>1534</ele>
        <time>2021-08-04T07:23:57.801Z</time>
      </trkpt>
      <trkpt lat="46.99555" lon="8.86485">
        <ele>1534</ele>
        <time>2021-08-04T07:23:58.801Z</time>
      </trkpt>
      <trkpt lat="46.99554" lon="8.86483">
        <ele>1534</ele>
        <time>2021-08-04T07:23:59.800Z</time>
      </trkpt>
      <trkpt lat="46.99554" lon="8.86482">
        <ele>1535</ele>
        <time>2021-08-04T07:24:00.800Z</time>
      </trkpt>
      <trkpt lat="46.99554" lon="8.86481">
        <ele>1535</ele>
        <time>2021-08-04T07:24:01.801Z</time>
      </trkpt>
      <trkpt lat="46.99553" lon="8.8648">
        <ele>1536</ele>
        <time>2021-08-04T07:24:02.801Z</time>
      </trkpt>
      <trkpt lat="46.99553" lon="8.86478">
        <ele>1536</ele>
        <time>2021-08-04T07:24:03.801Z</time>
      </trkpt>
      <trkpt lat="46.99553" lon="8.86477">
        <ele>1536</ele>
        <time>2021-08-04T07:24:04.801Z</time>
      </trkpt>
      <trkpt lat="46.99552" lon="8.86475">
        <ele>1536</ele>
        <time>2021-08-04T07:24:05.800Z</time>
      </trkpt>
      <trkpt lat="46.99552" lon="8.86474">
        <ele>1536</ele>
        <time>2021-08-04T07:24:06.800Z</time>
      </trkpt>
      <trkpt lat="46.99551" lon="8.86473">
        <ele>1536</ele>
        <time>2021-08-04T07:24:07.801Z</time>
      </trkpt>
      <trkpt lat="46.99551" lon="8.86471">
        <ele>1536</ele>
        <time>2021-08-04T07:24:08.800Z</time>
      </trkpt>
      <trkpt lat="46.9955" lon="8.8647">
        <ele>1536</ele>
        <time>2021-08-04T07:24:09.801Z</time>
      </trkpt>
      <trkpt lat="46.9955" lon="8.86469">
        <ele>1536</ele>
        <time>2021-08-04T07:24:10.800Z</time>
      </trkpt>
      <trkpt lat="46.9955" lon="8.86467">
        <ele>1536</ele>
        <time>2021-08-04T07:24:11.801Z</time>
      </trkpt>
      <trkpt lat="46.99551" lon="8.86465">
        <ele>1537</ele>
        <time>2021-08-04T07:24:12.801Z</time>
      </trkpt>
      <trkpt lat="46.9955" lon="8.86464">
        <ele>1537</ele>
        <time>2021-08-04T07:24:13.801Z</time>
      </trkpt>
      <trkpt lat="46.99551" lon="8.86463">
        <ele>1537</ele>
        <time>2021-08-04T07:24:14.800Z</time>
      </trkpt>
      <trkpt lat="46.99551" lon="8.86461">
        <ele>1537</ele>
        <time>2021-08-04T07:24:15.800Z</time>
      </trkpt>
      <trkpt lat="46.99551" lon="8.86459">
        <ele>1538</ele>
        <time>2021-08-04T07:24:16.801Z</time>
      </trkpt>
      <trkpt lat="46.99551" lon="8.86458">
        <ele>1538</ele>
        <time>2021-08-04T07:24:17.801Z</time>
      </trkpt>
      <trkpt lat="46.99551" lon="8.86456">
        <ele>1538</ele>
        <time>2021-08-04T07:24:18.800Z</time>
      </trkpt>
      <trkpt lat="46.99551" lon="8.86455">
        <ele>1538</ele>
        <time>2021-08-04T07:24:19.800Z</time>
      </trkpt>
      <trkpt lat="46.99549" lon="8.86454">
        <ele>1538</ele>
        <time>2021-08-04T07:24:20.800Z</time>
      </trkpt>
      <trkpt lat="46.99548" lon="8.86452">
        <ele>1538</ele>
        <time>2021-08-04T07:24:21.801Z</time>
      </trkpt>
      <trkpt lat="46.99547" lon="8.86451">
        <ele>1538</ele>
        <time>2021-08-04T07:24:22.801Z</time>
      </trkpt>
      <trkpt lat="46.99547" lon="8.8645">
        <ele>1539</ele>
        <time>2021-08-04T07:24:23.801Z</time>
      </trkpt>
      <trkpt lat="46.99546" lon="8.86448">
        <ele>1539</ele>
        <time>2021-08-04T07:24:24.801Z</time>
      </trkpt>
      <trkpt lat="46.99545" lon="8.86446">
        <ele>1539</ele>
        <time>2021-08-04T07:24:25.800Z</time>
      </trkpt>
      <trkpt lat="46.99544" lon="8.86445">
        <ele>1538</ele>
        <time>2021-08-04T07:24:26.801Z</time>
      </trkpt>
      <trkpt lat="46.99543" lon="8.86443">
        <ele>1538</ele>
        <time>2021-08-04T07:24:27.801Z</time>
      </trkpt>
      <trkpt lat="46.99541" lon="8.86442">
        <ele>1538</ele>
        <time>2021-08-04T07:24:28.801Z</time>
      </trkpt>
      <trkpt lat="46.99541" lon="8.86441">
        <ele>1538</ele>
        <time>2021-08-04T07:24:29.801Z</time>
      </trkpt>
      <trkpt lat="46.9954" lon="8.86439">
        <ele>1537</ele>
        <time>2021-08-04T07:24:30.800Z</time>
      </trkpt>
      <trkpt lat="46.99538" lon="8.86438">
        <ele>1536</ele>
        <time>2021-08-04T07:24:31.800Z</time>
      </trkpt>
      <trkpt lat="46.99537" lon="8.86436">
        <ele>1536</ele>
        <time>2021-08-04T07:24:32.800Z</time>
      </trkpt>
      <trkpt lat="46.99537" lon="8.86435">
        <ele>1536</ele>
        <time>2021-08-04T07:24:33.801Z</time>
      </trkpt>
      <trkpt lat="46.99536" lon="8.86434">
        <ele>1536</ele>
        <time>2021-08-04T07:24:34.801Z</time>
      </trkpt>
      <trkpt lat="46.99536" lon="8.86433">
        <ele>1536</ele>
        <time>2021-08-04T07:24:35.801Z</time>
      </trkpt>
      <trkpt lat="46.99535" lon="8.86432">
        <ele>1536</ele>
        <time>2021-08-04T07:24:36.801Z</time>
      </trkpt>
      <trkpt lat="46.99534" lon="8.86431">
        <ele>1536</ele>
        <time>2021-08-04T07:24:37.800Z</time>
      </trkpt>
      <trkpt lat="46.99534" lon="8.86429">
        <ele>1536</ele>
        <time>2021-08-04T07:24:38.801Z</time>
      </trkpt>
      <trkpt lat="46.99533" lon="8.86428">
        <ele>1536</ele>
        <time>2021-08-04T07:24:39.801Z</time>
      </trkpt>
      <trkpt lat="46.99532" lon="8.86428">
        <ele>1536</ele>
        <time>2021-08-04T07:24:40.800Z</time>
      </trkpt>
      <trkpt lat="46.99531" lon="8.86427">
        <ele>1536</ele>
        <time>2021-08-04T07:24:41.801Z</time>
      </trkpt>
      <trkpt lat="46.9953" lon="8.86427">
        <ele>1536</ele>
        <time>2021-08-04T07:24:42.801Z</time>
      </trkpt>
      <trkpt lat="46.99529" lon="8.86427">
        <ele>1536</ele>
        <time>2021-08-04T07:24:43.801Z</time>
      </trkpt>
      <trkpt lat="46.99528" lon="8.86427">
        <ele>1536</ele>
        <time>2021-08-04T07:24:44.800Z</time>
      </trkpt>
      <trkpt lat="46.99527" lon="8.86428">
        <ele>1537</ele>
        <time>2021-08-04T07:24:45.801Z</time>
      </trkpt>
      <trkpt lat="46.99526" lon="8.86428">
        <ele>1537</ele>
        <time>2021-08-04T07:24:46.801Z</time>
      </trkpt>
      <trkpt lat="46.99527" lon="8.86428">
        <ele>1537</ele>
        <time>2021-08-04T07:24:47.801Z</time>
      </trkpt>
      <trkpt lat="46.99527" lon="8.86427">
        <ele>1539</ele>
        <time>2021-08-04T07:24:48.800Z</time>
      </trkpt>
      <trkpt lat="46.99527" lon="8.86427">
        <ele>1539</ele>
        <time>2021-08-04T07:24:49.800Z</time>
      </trkpt>
      <trkpt lat="46.99527" lon="8.86427">
        <ele>1539</ele>
        <time>2021-08-04T07:24:50.800Z</time>
      </trkpt>
      <trkpt lat="46.99525" lon="8.86425">
        <ele>1539</ele>
        <time>2021-08-04T07:24:51.801Z</time>
      </trkpt>
      <trkpt lat="46.99524" lon="8.86424">
        <ele>1539</ele>
        <time>2021-08-04T07:24:52.801Z</time>
      </trkpt>
      <trkpt lat="46.99523" lon="8.86423">
        <ele>1538</ele>
        <time>2021-08-04T07:24:53.800Z</time>
      </trkpt>
      <trkpt lat="46.99523" lon="8.86422">
        <ele>1538</ele>
        <time>2021-08-04T07:24:54.800Z</time>
      </trkpt>
      <trkpt lat="46.99522" lon="8.8642">
        <ele>1538</ele>
        <time>2021-08-04T07:24:55.801Z</time>
      </trkpt>
      <trkpt lat="46.99521" lon="8.86419">
        <ele>1537</ele>
        <time>2021-08-04T07:24:56.800Z</time>
      </trkpt>
      <trkpt lat="46.99521" lon="8.86418">
        <ele>1537</ele>
        <time>2021-08-04T07:24:57.801Z</time>
      </trkpt>
      <trkpt lat="46.99521" lon="8.86416">
        <ele>1537</ele>
        <time>2021-08-04T07:24:58.801Z</time>
      </trkpt>
      <trkpt lat="46.99521" lon="8.86415">
        <ele>1537</ele>
        <time>2021-08-04T07:24:59.801Z</time>
      </trkpt>
      <trkpt lat="46.99521" lon="8.86414">
        <ele>1536</ele>
        <time>2021-08-04T07:25:00.801Z</time>
      </trkpt>
      <trkpt lat="46.9952" lon="8.86412">
        <ele>1536</ele>
        <time>2021-08-04T07:25:01.801Z</time>
      </trkpt>
      <trkpt lat="46.9952" lon="8.86411">
        <ele>1536</ele>
        <time>2021-08-04T07:25:02.801Z</time>
      </trkpt>
      <trkpt lat="46.99519" lon="8.86409">
        <ele>1536</ele>
        <time>2021-08-04T07:25:03.800Z</time>
      </trkpt>
      <trkpt lat="46.99518" lon="8.86408">
        <ele>1535</ele>
        <time>2021-08-04T07:25:04.801Z</time>
      </trkpt>
      <trkpt lat="46.99518" lon="8.86406">
        <ele>1535</ele>
        <time>2021-08-04T07:25:05.801Z</time>
      </trkpt>
      <trkpt lat="46.99518" lon="8.86405">
        <ele>1535</ele>
        <time>2021-08-04T07:25:06.800Z</time>
      </trkpt>
      <trkpt lat="46.99517" lon="8.86404">
        <ele>1535</ele>
        <time>2021-08-04T07:25:07.801Z</time>
      </trkpt>
      <trkpt lat="46.99516" lon="8.86402">
        <ele>1535</ele>
        <time>2021-08-04T07:25:08.800Z</time>
      </trkpt>
      <trkpt lat="46.99516" lon="8.86401">
        <ele>1534</ele>
        <time>2021-08-04T07:25:09.801Z</time>
      </trkpt>
      <trkpt lat="46.99515" lon="8.86399">
        <ele>1534</ele>
        <time>2021-08-04T07:25:10.801Z</time>
      </trkpt>
      <trkpt lat="46.99515" lon="8.86398">
        <ele>1534</ele>
        <time>2021-08-04T07:25:11.800Z</time>
      </trkpt>
      <trkpt lat="46.99514" lon="8.86397">
        <ele>1533</ele>
        <time>2021-08-04T07:25:12.800Z</time>
      </trkpt>
      <trkpt lat="46.99514" lon="8.86396">
        <ele>1533</ele>
        <time>2021-08-04T07:25:13.800Z</time>
      </trkpt>
      <trkpt lat="46.99513" lon="8.86394">
        <ele>1533</ele>
        <time>2021-08-04T07:25:14.800Z</time>
      </trkpt>
      <trkpt lat="46.99512" lon="8.86393">
        <ele>1532</ele>
        <time>2021-08-04T07:25:15.800Z</time>
      </trkpt>
      <trkpt lat="46.99511" lon="8.86392">
        <ele>1532</ele>
        <time>2021-08-04T07:25:16.800Z</time>
      </trkpt>
      <trkpt lat="46.99511" lon="8.86391">
        <ele>1532</ele>
        <time>2021-08-04T07:25:17.801Z</time>
      </trkpt>
      <trkpt lat="46.9951" lon="8.86389">
        <ele>1532</ele>
        <time>2021-08-04T07:25:18.801Z</time>
      </trkpt>
      <trkpt lat="46.9951" lon="8.86388">
        <ele>1532</ele>
        <time>2021-08-04T07:25:19.800Z</time>
      </trkpt>
      <trkpt lat="46.99509" lon="8.86386">
        <ele>1532</ele>
        <time>2021-08-04T07:25:20.800Z</time>
      </trkpt>
      <trkpt lat="46.99509" lon="8.86384">
        <ele>1531</ele>
        <time>2021-08-04T07:25:21.801Z</time>
      </trkpt>
      <trkpt lat="46.99508" lon="8.86383">
        <ele>1531</ele>
        <time>2021-08-04T07:25:22.801Z</time>
      </trkpt>
      <trkpt lat="46.99508" lon="8.86381">
        <ele>1531</ele>
        <time>2021-08-04T07:25:23.800Z</time>
      </trkpt>
      <trkpt lat="46.99507" lon="8.86379">
        <ele>1531</ele>
        <time>2021-08-04T07:25:24.801Z</time>
      </trkpt>
      <trkpt lat="46.99507" lon="8.86377">
        <ele>1531</ele>
        <time>2021-08-04T07:25:25.801Z</time>
      </trkpt>
      <trkpt lat="46.99506" lon="8.86376">
        <ele>1531</ele>
        <time>2021-08-04T07:25:26.800Z</time>
      </trkpt>
      <trkpt lat="46.99506" lon="8.86375">
        <ele>1531</ele>
        <time>2021-08-04T07:25:27.801Z</time>
      </trkpt>
      <trkpt lat="46.99506" lon="8.86373">
        <ele>1531</ele>
        <time>2021-08-04T07:25:28.801Z</time>
      </trkpt>
      <trkpt lat="46.99506" lon="8.86372">
        <ele>1530</ele>
        <time>2021-08-04T07:25:29.801Z</time>
      </trkpt>
      <trkpt lat="46.99506" lon="8.8637">
        <ele>1530</ele>
        <time>2021-08-04T07:25:30.800Z</time>
      </trkpt>
      <trkpt lat="46.99506" lon="8.86369">
        <ele>1530</ele>
        <time>2021-08-04T07:25:31.801Z</time>
      </trkpt>
      <trkpt lat="46.99505" lon="8.86368">
        <ele>1530</ele>
        <time>2021-08-04T07:25:32.801Z</time>
      </trkpt>
      <trkpt lat="46.99505" lon="8.86366">
        <ele>1530</ele>
        <time>2021-08-04T07:25:33.800Z</time>
      </trkpt>
      <trkpt lat="46.99505" lon="8.86365">
        <ele>1530</ele>
        <time>2021-08-04T07:25:34.801Z</time>
      </trkpt>
      <trkpt lat="46.99504" lon="8.86364">
        <ele>1530</ele>
        <time>2021-08-04T07:25:35.800Z</time>
      </trkpt>
      <trkpt lat="46.99504" lon="8.86363">
        <ele>1530</ele>
        <time>2021-08-04T07:25:36.801Z</time>
      </trkpt>
      <trkpt lat="46.99503" lon="8.86362">
        <ele>1530</ele>
        <time>2021-08-04T07:25:37.800Z</time>
      </trkpt>
      <trkpt lat="46.99501" lon="8.86361">
        <ele>1530</ele>
        <time>2021-08-04T07:25:38.801Z</time>
      </trkpt>
      <trkpt lat="46.995" lon="8.86361">
        <ele>1530</ele>
        <time>2021-08-04T07:25:39.801Z</time>
      </trkpt>
      <trkpt lat="46.99499" lon="8.8636">
        <ele>1531</ele>
        <time>2021-08-04T07:25:40.801Z</time>
      </trkpt>
      <trkpt lat="46.99498" lon="8.86359">
        <ele>1531</ele>
        <time>2021-08-04T07:25:41.800Z</time>
      </trkpt>
      <trkpt lat="46.99497" lon="8.86358">
        <ele>1531</ele>
        <time>2021-08-04T07:25:42.801Z</time>
      </trkpt>
      <trkpt lat="46.99495" lon="8.86357">
        <ele>1531</ele>
        <time>2021-08-04T07:25:43.801Z</time>
      </trkpt>
      <trkpt lat="46.99493" lon="8.86356">
        <ele>1531</ele>
        <time>2021-08-04T07:25:44.801Z</time>
      </trkpt>
      <trkpt lat="46.99492" lon="8.86355">
        <ele>1531</ele>
        <time>2021-08-04T07:25:45.801Z</time>
      </trkpt>
      <trkpt lat="46.99491" lon="8.86355">
        <ele>1531</ele>
        <time>2021-08-04T07:25:46.801Z</time>
      </trkpt>
      <trkpt lat="46.9949" lon="8.86354">
        <ele>1531</ele>
        <time>2021-08-04T07:25:47.800Z</time>
      </trkpt>
      <trkpt lat="46.99489" lon="8.86354">
        <ele>1531</ele>
        <time>2021-08-04T07:25:48.800Z</time>
      </trkpt>
      <trkpt lat="46.99488" lon="8.86352">
        <ele>1531</ele>
        <time>2021-08-04T07:25:49.801Z</time>
      </trkpt>
      <trkpt lat="46.99486" lon="8.86352">
        <ele>1531</ele>
        <time>2021-08-04T07:25:50.800Z</time>
      </trkpt>
      <trkpt lat="46.99485" lon="8.86351">
        <ele>1531</ele>
        <time>2021-08-04T07:25:51.801Z</time>
      </trkpt>
      <trkpt lat="46.99484" lon="8.86351">
        <ele>1531</ele>
        <time>2021-08-04T07:25:52.801Z</time>
      </trkpt>
      <trkpt lat="46.99483" lon="8.8635">
        <ele>1532</ele>
        <time>2021-08-04T07:25:53.800Z</time>
      </trkpt>
      <trkpt lat="46.99481" lon="8.86349">
        <ele>1532</ele>
        <time>2021-08-04T07:25:54.801Z</time>
      </trkpt>
      <trkpt lat="46.99479" lon="8.86348">
        <ele>1532</ele>
        <time>2021-08-04T07:25:55.801Z</time>
      </trkpt>
      <trkpt lat="46.99477" lon="8.86347">
        <ele>1532</ele>
        <time>2021-08-04T07:25:56.800Z</time>
      </trkpt>
      <trkpt lat="46.99476" lon="8.86347">
        <ele>1532</ele>
        <time>2021-08-04T07:25:57.800Z</time>
      </trkpt>
      <trkpt lat="46.99475" lon="8.86346">
        <ele>1532</ele>
        <time>2021-08-04T07:25:58.801Z</time>
      </trkpt>
      <trkpt lat="46.99474" lon="8.86345">
        <ele>1532</ele>
        <time>2021-08-04T07:25:59.801Z</time>
      </trkpt>
      <trkpt lat="46.99472" lon="8.86344">
        <ele>1532</ele>
        <time>2021-08-04T07:26:00.801Z</time>
      </trkpt>
      <trkpt lat="46.99471" lon="8.86343">
        <ele>1532</ele>
        <time>2021-08-04T07:26:01.801Z</time>
      </trkpt>
      <trkpt lat="46.9947" lon="8.86343">
        <ele>1532</ele>
        <time>2021-08-04T07:26:02.801Z</time>
      </trkpt>
      <trkpt lat="46.99469" lon="8.86342">
        <ele>1532</ele>
        <time>2021-08-04T07:26:03.800Z</time>
      </trkpt>
      <trkpt lat="46.99468" lon="8.86342">
        <ele>1531</ele>
        <time>2021-08-04T07:26:04.801Z</time>
      </trkpt>
      <trkpt lat="46.99466" lon="8.86341">
        <ele>1531</ele>
        <time>2021-08-04T07:26:05.800Z</time>
      </trkpt>
      <trkpt lat="46.99466" lon="8.8634">
        <ele>1530</ele>
        <time>2021-08-04T07:26:06.801Z</time>
      </trkpt>
      <trkpt lat="46.99465" lon="8.86339">
        <ele>1529</ele>
        <time>2021-08-04T07:26:07.800Z</time>
      </trkpt>
      <trkpt lat="46.99464" lon="8.86338">
        <ele>1529</ele>
        <time>2021-08-04T07:26:08.801Z</time>
      </trkpt>
      <trkpt lat="46.99464" lon="8.86337">
        <ele>1529</ele>
        <time>2021-08-04T07:26:09.801Z</time>
      </trkpt>
      <trkpt lat="46.99463" lon="8.86336">
        <ele>1528</ele>
        <time>2021-08-04T07:26:10.800Z</time>
      </trkpt>
      <trkpt lat="46.99462" lon="8.86334">
        <ele>1528</ele>
        <time>2021-08-04T07:26:11.801Z</time>
      </trkpt>
      <trkpt lat="46.99462" lon="8.86332">
        <ele>1527</ele>
        <time>2021-08-04T07:26:12.801Z</time>
      </trkpt>
      <trkpt lat="46.99462" lon="8.8633">
        <ele>1527</ele>
        <time>2021-08-04T07:26:13.800Z</time>
      </trkpt>
      <trkpt lat="46.99462" lon="8.86329">
        <ele>1527</ele>
        <time>2021-08-04T07:26:14.801Z</time>
      </trkpt>
      <trkpt lat="46.99461" lon="8.86328">
        <ele>1526</ele>
        <time>2021-08-04T07:26:15.800Z</time>
      </trkpt>
      <trkpt lat="46.99461" lon="8.86327">
        <ele>1526</ele>
        <time>2021-08-04T07:26:16.800Z</time>
      </trkpt>
      <trkpt lat="46.99461" lon="8.86326">
        <ele>1525</ele>
        <time>2021-08-04T07:26:17.801Z</time>
      </trkpt>
      <trkpt lat="46.9946" lon="8.86325">
        <ele>1525</ele>
        <time>2021-08-04T07:26:18.801Z</time>
      </trkpt>
      <trkpt lat="46.9946" lon="8.86324">
        <ele>1524</ele>
        <time>2021-08-04T07:26:19.801Z</time>
      </trkpt>
      <trkpt lat="46.99459" lon="8.86322">
        <ele>1523</ele>
        <time>2021-08-04T07:26:20.801Z</time>
      </trkpt>
      <trkpt lat="46.99458" lon="8.8632">
        <ele>1523</ele>
        <time>2021-08-04T07:26:21.801Z</time>
      </trkpt>
      <trkpt lat="46.99458" lon="8.86319">
        <ele>1522</ele>
        <time>2021-08-04T07:26:22.801Z</time>
      </trkpt>
      <trkpt lat="46.99457" lon="8.86317">
        <ele>1522</ele>
        <time>2021-08-04T07:26:23.800Z</time>
      </trkpt>
      <trkpt lat="46.99457" lon="8.86315">
        <ele>1522</ele>
        <time>2021-08-04T07:26:24.801Z</time>
      </trkpt>
      <trkpt lat="46.99456" lon="8.86313">
        <ele>1521</ele>
        <time>2021-08-04T07:26:25.801Z</time>
      </trkpt>
      <trkpt lat="46.99456" lon="8.86312">
        <ele>1521</ele>
        <time>2021-08-04T07:26:26.801Z</time>
      </trkpt>
      <trkpt lat="46.99456" lon="8.8631">
        <ele>1521</ele>
        <time>2021-08-04T07:26:27.801Z</time>
      </trkpt>
      <trkpt lat="46.99456" lon="8.86308">
        <ele>1521</ele>
        <time>2021-08-04T07:26:28.801Z</time>
      </trkpt>
      <trkpt lat="46.99456" lon="8.86307">
        <ele>1521</ele>
        <time>2021-08-04T07:26:29.801Z</time>
      </trkpt>
      <trkpt lat="46.99456" lon="8.86305">
        <ele>1521</ele>
        <time>2021-08-04T07:26:30.801Z</time>
      </trkpt>
      <trkpt lat="46.99455" lon="8.86303">
        <ele>1521</ele>
        <time>2021-08-04T07:26:31.801Z</time>
      </trkpt>
      <trkpt lat="46.99455" lon="8.86302">
        <ele>1521</ele>
        <time>2021-08-04T07:26:32.801Z</time>
      </trkpt>
      <trkpt lat="46.99455" lon="8.863">
        <ele>1521</ele>
        <time>2021-08-04T07:26:33.801Z</time>
      </trkpt>
      <trkpt lat="46.99455" lon="8.86298">
        <ele>1520</ele>
        <time>2021-08-04T07:26:34.801Z</time>
      </trkpt>
      <trkpt lat="46.99455" lon="8.86296">
        <ele>1520</ele>
        <time>2021-08-04T07:26:35.800Z</time>
      </trkpt>
      <trkpt lat="46.99455" lon="8.86295">
        <ele>1520</ele>
        <time>2021-08-04T07:26:36.800Z</time>
      </trkpt>
      <trkpt lat="46.99455" lon="8.86293">
        <ele>1520</ele>
        <time>2021-08-04T07:26:37.801Z</time>
      </trkpt>
      <trkpt lat="46.99454" lon="8.86291">
        <ele>1520</ele>
        <time>2021-08-04T07:26:38.800Z</time>
      </trkpt>
      <trkpt lat="46.99454" lon="8.86289">
        <ele>1519</ele>
        <time>2021-08-04T07:26:39.800Z</time>
      </trkpt>
      <trkpt lat="46.99454" lon="8.86288">
        <ele>1519</ele>
        <time>2021-08-04T07:26:40.801Z</time>
      </trkpt>
      <trkpt lat="46.99454" lon="8.86286">
        <ele>1519</ele>
        <time>2021-08-04T07:26:41.801Z</time>
      </trkpt>
      <trkpt lat="46.99453" lon="8.86285">
        <ele>1519</ele>
        <time>2021-08-04T07:26:42.800Z</time>
      </trkpt>
      <trkpt lat="46.99452" lon="8.86284">
        <ele>1519</ele>
        <time>2021-08-04T07:26:43.800Z</time>
      </trkpt>
      <trkpt lat="46.99451" lon="8.86283">
        <ele>1519</ele>
        <time>2021-08-04T07:26:44.801Z</time>
      </trkpt>
      <trkpt lat="46.9945" lon="8.86282">
        <ele>1519</ele>
        <time>2021-08-04T07:26:45.801Z</time>
      </trkpt>
      <trkpt lat="46.99449" lon="8.86282">
        <ele>1519</ele>
        <time>2021-08-04T07:26:46.800Z</time>
      </trkpt>
      <trkpt lat="46.99449" lon="8.86282">
        <ele>1519</ele>
        <time>2021-08-04T07:26:47.801Z</time>
      </trkpt>
      <trkpt lat="46.99448" lon="8.86281">
        <ele>1518</ele>
        <time>2021-08-04T07:26:48.800Z</time>
      </trkpt>
      <trkpt lat="46.99448" lon="8.86281">
        <ele>1518</ele>
        <time>2021-08-04T07:26:49.800Z</time>
      </trkpt>
      <trkpt lat="46.99447" lon="8.8628">
        <ele>1518</ele>
        <time>2021-08-04T07:26:50.800Z</time>
      </trkpt>
      <trkpt lat="46.99447" lon="8.86278">
        <ele>1517</ele>
        <time>2021-08-04T07:26:51.800Z</time>
      </trkpt>
      <trkpt lat="46.99446" lon="8.86277">
        <ele>1517</ele>
        <time>2021-08-04T07:26:52.801Z</time>
      </trkpt>
      <trkpt lat="46.99445" lon="8.86276">
        <ele>1517</ele>
        <time>2021-08-04T07:26:53.801Z</time>
      </trkpt>
      <trkpt lat="46.99444" lon="8.86275">
        <ele>1517</ele>
        <time>2021-08-04T07:26:54.800Z</time>
      </trkpt>
      <trkpt lat="46.99443" lon="8.86275">
        <ele>1517</ele>
        <time>2021-08-04T07:26:55.801Z</time>
      </trkpt>
      <trkpt lat="46.99443" lon="8.86274">
        <ele>1517</ele>
        <time>2021-08-04T07:26:56.801Z</time>
      </trkpt>
      <trkpt lat="46.99442" lon="8.86273">
        <ele>1517</ele>
        <time>2021-08-04T07:26:57.801Z</time>
      </trkpt>
      <trkpt lat="46.99441" lon="8.86272">
        <ele>1517</ele>
        <time>2021-08-04T07:26:58.800Z</time>
      </trkpt>
      <trkpt lat="46.9944" lon="8.86271">
        <ele>1517</ele>
        <time>2021-08-04T07:26:59.801Z</time>
      </trkpt>
      <trkpt lat="46.99439" lon="8.8627">
        <ele>1517</ele>
        <time>2021-08-04T07:27:00.801Z</time>
      </trkpt>
      <trkpt lat="46.99439" lon="8.86269">
        <ele>1517</ele>
        <time>2021-08-04T07:27:01.801Z</time>
      </trkpt>
      <trkpt lat="46.99439" lon="8.86267">
        <ele>1518</ele>
        <time>2021-08-04T07:27:02.801Z</time>
      </trkpt>
      <trkpt lat="46.99439" lon="8.86266">
        <ele>1518</ele>
        <time>2021-08-04T07:27:03.801Z</time>
      </trkpt>
      <trkpt lat="46.99439" lon="8.86264">
        <ele>1518</ele>
        <time>2021-08-04T07:27:04.801Z</time>
      </trkpt>
      <trkpt lat="46.99439" lon="8.86263">
        <ele>1519</ele>
        <time>2021-08-04T07:27:05.800Z</time>
      </trkpt>
      <trkpt lat="46.99439" lon="8.86261">
        <ele>1519</ele>
        <time>2021-08-04T07:27:06.801Z</time>
      </trkpt>
      <trkpt lat="46.99439" lon="8.8626">
        <ele>1519</ele>
        <time>2021-08-04T07:27:07.800Z</time>
      </trkpt>
      <trkpt lat="46.99439" lon="8.86258">
        <ele>1518</ele>
        <time>2021-08-04T07:27:08.800Z</time>
      </trkpt>
      <trkpt lat="46.99439" lon="8.86256">
        <ele>1518</ele>
        <time>2021-08-04T07:27:09.801Z</time>
      </trkpt>
      <trkpt lat="46.99439" lon="8.86254">
        <ele>1517</ele>
        <time>2021-08-04T07:27:10.800Z</time>
      </trkpt>
      <trkpt lat="46.99439" lon="8.86252">
        <ele>1517</ele>
        <time>2021-08-04T07:27:11.800Z</time>
      </trkpt>
      <trkpt lat="46.99439" lon="8.8625">
        <ele>1517</ele>
        <time>2021-08-04T07:27:12.801Z</time>
      </trkpt>
      <trkpt lat="46.99438" lon="8.86249">
        <ele>1516</ele>
        <time>2021-08-04T07:27:13.801Z</time>
      </trkpt>
      <trkpt lat="46.99438" lon="8.86248">
        <ele>1516</ele>
        <time>2021-08-04T07:27:14.801Z</time>
      </trkpt>
      <trkpt lat="46.99437" lon="8.86246">
        <ele>1516</ele>
        <time>2021-08-04T07:27:15.800Z</time>
      </trkpt>
      <trkpt lat="46.99436" lon="8.86245">
        <ele>1516</ele>
        <time>2021-08-04T07:27:16.800Z</time>
      </trkpt>
      <trkpt lat="46.99435" lon="8.86244">
        <ele>1516</ele>
        <time>2021-08-04T07:27:17.801Z</time>
      </trkpt>
      <trkpt lat="46.99434" lon="8.86243">
        <ele>1516</ele>
        <time>2021-08-04T07:27:18.801Z</time>
      </trkpt>
      <trkpt lat="46.99433" lon="8.86242">
        <ele>1516</ele>
        <time>2021-08-04T07:27:19.801Z</time>
      </trkpt>
      <trkpt lat="46.99432" lon="8.86242">
        <ele>1516</ele>
        <time>2021-08-04T07:27:20.800Z</time>
      </trkpt>
      <trkpt lat="46.99431" lon="8.86241">
        <ele>1516</ele>
        <time>2021-08-04T07:27:21.801Z</time>
      </trkpt>
      <trkpt lat="46.9943" lon="8.8624">
        <ele>1516</ele>
        <time>2021-08-04T07:27:22.801Z</time>
      </trkpt>
      <trkpt lat="46.99429" lon="8.86239">
        <ele>1516</ele>
        <time>2021-08-04T07:27:23.801Z</time>
      </trkpt>
      <trkpt lat="46.99428" lon="8.86238">
        <ele>1516</ele>
        <time>2021-08-04T07:27:24.800Z</time>
      </trkpt>
      <trkpt lat="46.99426" lon="8.86237">
        <ele>1516</ele>
        <time>2021-08-04T07:27:25.801Z</time>
      </trkpt>
      <trkpt lat="46.99425" lon="8.86236">
        <ele>1516</ele>
        <time>2021-08-04T07:27:26.801Z</time>
      </trkpt>
      <trkpt lat="46.99425" lon="8.86235">
        <ele>1516</ele>
        <time>2021-08-04T07:27:27.801Z</time>
      </trkpt>
      <trkpt lat="46.99424" lon="8.86234">
        <ele>1517</ele>
        <time>2021-08-04T07:27:28.801Z</time>
      </trkpt>
      <trkpt lat="46.99423" lon="8.86233">
        <ele>1516</ele>
        <time>2021-08-04T07:27:29.801Z</time>
      </trkpt>
      <trkpt lat="46.99422" lon="8.86232">
        <ele>1516</ele>
        <time>2021-08-04T07:27:30.801Z</time>
      </trkpt>
      <trkpt lat="46.99421" lon="8.86231">
        <ele>1516</ele>
        <time>2021-08-04T07:27:31.801Z</time>
      </trkpt>
      <trkpt lat="46.99419" lon="8.86229">
        <ele>1516</ele>
        <time>2021-08-04T07:27:32.800Z</time>
      </trkpt>
      <trkpt lat="46.99417" lon="8.86228">
        <ele>1515</ele>
        <time>2021-08-04T07:27:33.800Z</time>
      </trkpt>
      <trkpt lat="46.99416" lon="8.86226">
        <ele>1515</ele>
        <time>2021-08-04T07:27:34.801Z</time>
      </trkpt>
      <trkpt lat="46.99415" lon="8.86225">
        <ele>1515</ele>
        <time>2021-08-04T07:27:35.801Z</time>
      </trkpt>
      <trkpt lat="46.99414" lon="8.86223">
        <ele>1514</ele>
        <time>2021-08-04T07:27:36.800Z</time>
      </trkpt>
      <trkpt lat="46.99413" lon="8.86222">
        <ele>1514</ele>
        <time>2021-08-04T07:27:37.800Z</time>
      </trkpt>
      <trkpt lat="46.99412" lon="8.8622">
        <ele>1514</ele>
        <time>2021-08-04T07:27:38.801Z</time>
      </trkpt>
      <trkpt lat="46.99411" lon="8.86219">
        <ele>1513</ele>
        <time>2021-08-04T07:27:39.801Z</time>
      </trkpt>
      <trkpt lat="46.9941" lon="8.86217">
        <ele>1513</ele>
        <time>2021-08-04T07:27:40.800Z</time>
      </trkpt>
      <trkpt lat="46.99409" lon="8.86215">
        <ele>1513</ele>
        <time>2021-08-04T07:27:41.801Z</time>
      </trkpt>
      <trkpt lat="46.99409" lon="8.86214">
        <ele>1513</ele>
        <time>2021-08-04T07:27:42.800Z</time>
      </trkpt>
      <trkpt lat="46.99407" lon="8.86212">
        <ele>1513</ele>
        <time>2021-08-04T07:27:43.800Z</time>
      </trkpt>
      <trkpt lat="46.99407" lon="8.8621">
        <ele>1513</ele>
        <time>2021-08-04T07:27:44.801Z</time>
      </trkpt>
      <trkpt lat="46.99406" lon="8.86209">
        <ele>1513</ele>
        <time>2021-08-04T07:27:45.800Z</time>
      </trkpt>
      <trkpt lat="46.99405" lon="8.86208">
        <ele>1513</ele>
        <time>2021-08-04T07:27:46.800Z</time>
      </trkpt>
      <trkpt lat="46.99405" lon="8.86206">
        <ele>1513</ele>
        <time>2021-08-04T07:27:47.801Z</time>
      </trkpt>
      <trkpt lat="46.99404" lon="8.86205">
        <ele>1513</ele>
        <time>2021-08-04T07:27:48.801Z</time>
      </trkpt>
      <trkpt lat="46.99403" lon="8.86203">
        <ele>1513</ele>
        <time>2021-08-04T07:27:49.800Z</time>
      </trkpt>
      <trkpt lat="46.99403" lon="8.86202">
        <ele>1513</ele>
        <time>2021-08-04T07:27:50.801Z</time>
      </trkpt>
      <trkpt lat="46.99402" lon="8.86201">
        <ele>1512</ele>
        <time>2021-08-04T07:27:51.800Z</time>
      </trkpt>
      <trkpt lat="46.99401" lon="8.86199">
        <ele>1512</ele>
        <time>2021-08-04T07:27:52.800Z</time>
      </trkpt>
      <trkpt lat="46.994" lon="8.86198">
        <ele>1512</ele>
        <time>2021-08-04T07:27:53.801Z</time>
      </trkpt>
      <trkpt lat="46.99399" lon="8.86197">
        <ele>1512</ele>
        <time>2021-08-04T07:27:54.801Z</time>
      </trkpt>
      <trkpt lat="46.99398" lon="8.86195">
        <ele>1512</ele>
        <time>2021-08-04T07:27:55.801Z</time>
      </trkpt>
      <trkpt lat="46.99398" lon="8.86193">
        <ele>1512</ele>
        <time>2021-08-04T07:27:56.801Z</time>
      </trkpt>
      <trkpt lat="46.99398" lon="8.86192">
        <ele>1512</ele>
        <time>2021-08-04T07:27:57.801Z</time>
      </trkpt>
      <trkpt lat="46.99397" lon="8.8619">
        <ele>1512</ele>
        <time>2021-08-04T07:27:58.801Z</time>
      </trkpt>
      <trkpt lat="46.99396" lon="8.86189">
        <ele>1513</ele>
        <time>2021-08-04T07:27:59.800Z</time>
      </trkpt>
      <trkpt lat="46.99396" lon="8.86187">
        <ele>1512</ele>
        <time>2021-08-04T07:28:00.800Z</time>
      </trkpt>
      <trkpt lat="46.99395" lon="8.86186">
        <ele>1512</ele>
        <time>2021-08-04T07:28:01.801Z</time>
      </trkpt>
      <trkpt lat="46.99394" lon="8.86184">
        <ele>1512</ele>
        <time>2021-08-04T07:28:02.800Z</time>
      </trkpt>
      <trkpt lat="46.99393" lon="8.86182">
        <ele>1512</ele>
        <time>2021-08-04T07:28:03.801Z</time>
      </trkpt>
      <trkpt lat="46.99392" lon="8.86181">
        <ele>1512</ele>
        <time>2021-08-04T07:28:04.801Z</time>
      </trkpt>
      <trkpt lat="46.99392" lon="8.8618">
        <ele>1512</ele>
        <time>2021-08-04T07:28:05.801Z</time>
      </trkpt>
      <trkpt lat="46.99392" lon="8.86178">
        <ele>1512</ele>
        <time>2021-08-04T07:28:06.801Z</time>
      </trkpt>
      <trkpt lat="46.99391" lon="8.86176">
        <ele>1512</ele>
        <time>2021-08-04T07:28:07.801Z</time>
      </trkpt>
      <trkpt lat="46.9939" lon="8.86174">
        <ele>1511</ele>
        <time>2021-08-04T07:28:08.801Z</time>
      </trkpt>
      <trkpt lat="46.99389" lon="8.86172">
        <ele>1511</ele>
        <time>2021-08-04T07:28:09.801Z</time>
      </trkpt>
      <trkpt lat="46.99388" lon="8.86171">
        <ele>1511</ele>
        <time>2021-08-04T07:28:10.801Z</time>
      </trkpt>
      <trkpt lat="46.99388" lon="8.86169">
        <ele>1511</ele>
        <time>2021-08-04T07:28:11.801Z</time>
      </trkpt>
      <trkpt lat="46.99387" lon="8.86168">
        <ele>1511</ele>
        <time>2021-08-04T07:28:12.800Z</time>
      </trkpt>
      <trkpt lat="46.99387" lon="8.86166">
        <ele>1511</ele>
        <time>2021-08-04T07:28:13.801Z</time>
      </trkpt>
      <trkpt lat="46.99386" lon="8.86165">
        <ele>1511</ele>
        <time>2021-08-04T07:28:14.800Z</time>
      </trkpt>
      <trkpt lat="46.99386" lon="8.86163">
        <ele>1511</ele>
        <time>2021-08-04T07:28:15.800Z</time>
      </trkpt>
      <trkpt lat="46.99385" lon="8.86162">
        <ele>1511</ele>
        <time>2021-08-04T07:28:16.801Z</time>
      </trkpt>
      <trkpt lat="46.99384" lon="8.8616">
        <ele>1511</ele>
        <time>2021-08-04T07:28:17.801Z</time>
      </trkpt>
      <trkpt lat="46.99383" lon="8.86159">
        <ele>1511</ele>
        <time>2021-08-04T07:28:18.801Z</time>
      </trkpt>
      <trkpt lat="46.99383" lon="8.86158">
        <ele>1511</ele>
        <time>2021-08-04T07:28:19.801Z</time>
      </trkpt>
      <trkpt lat="46.99382" lon="8.86157">
        <ele>1511</ele>
        <time>2021-08-04T07:28:20.801Z</time>
      </trkpt>
      <trkpt lat="46.99381" lon="8.86155">
        <ele>1511</ele>
        <time>2021-08-04T07:28:21.801Z</time>
      </trkpt>
      <trkpt lat="46.99381" lon="8.86154">
        <ele>1511</ele>
        <time>2021-08-04T07:28:22.801Z</time>
      </trkpt>
      <trkpt lat="46.9938" lon="8.86152">
        <ele>1511</ele>
        <time>2021-08-04T07:28:23.800Z</time>
      </trkpt>
      <trkpt lat="46.9938" lon="8.86151">
        <ele>1511</ele>
        <time>2021-08-04T07:28:24.800Z</time>
      </trkpt>
      <trkpt lat="46.99379" lon="8.8615">
        <ele>1510</ele>
        <time>2021-08-04T07:28:25.801Z</time>
      </trkpt>
      <trkpt lat="46.99378" lon="8.86149">
        <ele>1510</ele>
        <time>2021-08-04T07:28:26.801Z</time>
      </trkpt>
      <trkpt lat="46.99377" lon="8.86147">
        <ele>1510</ele>
        <time>2021-08-04T07:28:27.800Z</time>
      </trkpt>
      <trkpt lat="46.99376" lon="8.86146">
        <ele>1509</ele>
        <time>2021-08-04T07:28:28.801Z</time>
      </trkpt>
      <trkpt lat="46.99375" lon="8.86145">
        <ele>1509</ele>
        <time>2021-08-04T07:28:29.801Z</time>
      </trkpt>
      <trkpt lat="46.99374" lon="8.86144">
        <ele>1509</ele>
        <time>2021-08-04T07:28:30.800Z</time>
      </trkpt>
      <trkpt lat="46.99372" lon="8.86143">
        <ele>1509</ele>
        <time>2021-08-04T07:28:31.800Z</time>
      </trkpt>
      <trkpt lat="46.99371" lon="8.86142">
        <ele>1509</ele>
        <time>2021-08-04T07:28:32.801Z</time>
      </trkpt>
      <trkpt lat="46.99369" lon="8.86141">
        <ele>1509</ele>
        <time>2021-08-04T07:28:33.801Z</time>
      </trkpt>
      <trkpt lat="46.99367" lon="8.8614">
        <ele>1509</ele>
        <time>2021-08-04T07:28:34.800Z</time>
      </trkpt>
      <trkpt lat="46.99366" lon="8.8614">
        <ele>1509</ele>
        <time>2021-08-04T07:28:35.801Z</time>
      </trkpt>
      <trkpt lat="46.99365" lon="8.86139">
        <ele>1509</ele>
        <time>2021-08-04T07:28:36.801Z</time>
      </trkpt>
      <trkpt lat="46.99364" lon="8.86139">
        <ele>1509</ele>
        <time>2021-08-04T07:28:37.801Z</time>
      </trkpt>
      <trkpt lat="46.99363" lon="8.86139">
        <ele>1508</ele>
        <time>2021-08-04T07:28:38.800Z</time>
      </trkpt>
      <trkpt lat="46.99362" lon="8.86139">
        <ele>1508</ele>
        <time>2021-08-04T07:28:39.800Z</time>
      </trkpt>
      <trkpt lat="46.99361" lon="8.86139">
        <ele>1508</ele>
        <time>2021-08-04T07:28:40.801Z</time>
      </trkpt>
      <trkpt lat="46.99359" lon="8.86138">
        <ele>1508</ele>
        <time>2021-08-04T07:28:41.800Z</time>
      </trkpt>
      <trkpt lat="46.99358" lon="8.86138">
        <ele>1508</ele>
        <time>2021-08-04T07:28:42.801Z</time>
      </trkpt>
      <trkpt lat="46.99357" lon="8.86139">
        <ele>1509</ele>
        <time>2021-08-04T07:28:43.801Z</time>
      </trkpt>
      <trkpt lat="46.99356" lon="8.86139">
        <ele>1508</ele>
        <time>2021-08-04T07:28:44.800Z</time>
      </trkpt>
      <trkpt lat="46.99354" lon="8.86139">
        <ele>1508</ele>
        <time>2021-08-04T07:28:45.800Z</time>
      </trkpt>
      <trkpt lat="46.99353" lon="8.86139">
        <ele>1508</ele>
        <time>2021-08-04T07:28:46.801Z</time>
      </trkpt>
      <trkpt lat="46.99352" lon="8.86139">
        <ele>1508</ele>
        <time>2021-08-04T07:28:47.800Z</time>
      </trkpt>
      <trkpt lat="46.99351" lon="8.86138">
        <ele>1508</ele>
        <time>2021-08-04T07:28:48.800Z</time>
      </trkpt>
      <trkpt lat="46.99349" lon="8.86138">
        <ele>1508</ele>
        <time>2021-08-04T07:28:49.801Z</time>
      </trkpt>
      <trkpt lat="46.99348" lon="8.86137">
        <ele>1507</ele>
        <time>2021-08-04T07:28:50.801Z</time>
      </trkpt>
      <trkpt lat="46.99347" lon="8.86136">
        <ele>1507</ele>
        <time>2021-08-04T07:28:51.800Z</time>
      </trkpt>
      <trkpt lat="46.99345" lon="8.86136">
        <ele>1507</ele>
        <time>2021-08-04T07:28:52.800Z</time>
      </trkpt>
      <trkpt lat="46.99344" lon="8.86135">
        <ele>1507</ele>
        <time>2021-08-04T07:28:53.801Z</time>
      </trkpt>
      <trkpt lat="46.99343" lon="8.86133">
        <ele>1507</ele>
        <time>2021-08-04T07:28:54.800Z</time>
      </trkpt>
      <trkpt lat="46.99341" lon="8.86132">
        <ele>1507</ele>
        <time>2021-08-04T07:28:55.800Z</time>
      </trkpt>
      <trkpt lat="46.9934" lon="8.86131">
        <ele>1508</ele>
        <time>2021-08-04T07:28:56.800Z</time>
      </trkpt>
      <trkpt lat="46.99339" lon="8.8613">
        <ele>1507</ele>
        <time>2021-08-04T07:28:57.800Z</time>
      </trkpt>
      <trkpt lat="46.99338" lon="8.86129">
        <ele>1507</ele>
        <time>2021-08-04T07:28:58.800Z</time>
      </trkpt>
      <trkpt lat="46.99337" lon="8.86127">
        <ele>1507</ele>
        <time>2021-08-04T07:28:59.800Z</time>
      </trkpt>
      <trkpt lat="46.99337" lon="8.86126">
        <ele>1507</ele>
        <time>2021-08-04T07:29:00.801Z</time>
      </trkpt>
      <trkpt lat="46.99336" lon="8.86124">
        <ele>1507</ele>
        <time>2021-08-04T07:29:01.800Z</time>
      </trkpt>
      <trkpt lat="46.99335" lon="8.86123">
        <ele>1507</ele>
        <time>2021-08-04T07:29:02.800Z</time>
      </trkpt>
      <trkpt lat="46.99335" lon="8.86121">
        <ele>1507</ele>
        <time>2021-08-04T07:29:03.800Z</time>
      </trkpt>
      <trkpt lat="46.99334" lon="8.8612">
        <ele>1506</ele>
        <time>2021-08-04T07:29:04.800Z</time>
      </trkpt>
      <trkpt lat="46.99333" lon="8.86118">
        <ele>1506</ele>
        <time>2021-08-04T07:29:05.800Z</time>
      </trkpt>
      <trkpt lat="46.99332" lon="8.86116">
        <ele>1506</ele>
        <time>2021-08-04T07:29:06.800Z</time>
      </trkpt>
      <trkpt lat="46.99332" lon="8.86115">
        <ele>1506</ele>
        <time>2021-08-04T07:29:07.800Z</time>
      </trkpt>
      <trkpt lat="46.99331" lon="8.86114">
        <ele>1506</ele>
        <time>2021-08-04T07:29:08.800Z</time>
      </trkpt>
      <trkpt lat="46.99331" lon="8.86112">
        <ele>1505</ele>
        <time>2021-08-04T07:29:09.800Z</time>
      </trkpt>
      <trkpt lat="46.99331" lon="8.86111">
        <ele>1505</ele>
        <time>2021-08-04T07:29:10.801Z</time>
      </trkpt>
      <trkpt lat="46.99331" lon="8.8611">
        <ele>1505</ele>
        <time>2021-08-04T07:29:11.800Z</time>
      </trkpt>
      <trkpt lat="46.99331" lon="8.86108">
        <ele>1504</ele>
        <time>2021-08-04T07:29:12.800Z</time>
      </trkpt>
      <trkpt lat="46.9933" lon="8.86107">
        <ele>1504</ele>
        <time>2021-08-04T07:29:13.800Z</time>
      </trkpt>
      <trkpt lat="46.9933" lon="8.86106">
        <ele>1503</ele>
        <time>2021-08-04T07:29:14.800Z</time>
      </trkpt>
      <trkpt lat="46.99329" lon="8.86105">
        <ele>1503</ele>
        <time>2021-08-04T07:29:15.801Z</time>
      </trkpt>
      <trkpt lat="46.99329" lon="8.86103">
        <ele>1502</ele>
        <time>2021-08-04T07:29:16.801Z</time>
      </trkpt>
      <trkpt lat="46.99328" lon="8.86102">
        <ele>1502</ele>
        <time>2021-08-04T07:29:17.801Z</time>
      </trkpt>
      <trkpt lat="46.99328" lon="8.86101">
        <ele>1502</ele>
        <time>2021-08-04T07:29:18.800Z</time>
      </trkpt>
      <trkpt lat="46.99327" lon="8.86099">
        <ele>1502</ele>
        <time>2021-08-04T07:29:19.801Z</time>
      </trkpt>
      <trkpt lat="46.99326" lon="8.86098">
        <ele>1502</ele>
        <time>2021-08-04T07:29:20.800Z</time>
      </trkpt>
      <trkpt lat="46.99326" lon="8.86097">
        <ele>1501</ele>
        <time>2021-08-04T07:29:21.800Z</time>
      </trkpt>
      <trkpt lat="46.99325" lon="8.86096">
        <ele>1501</ele>
        <time>2021-08-04T07:29:22.800Z</time>
      </trkpt>
      <trkpt lat="46.99324" lon="8.86094">
        <ele>1501</ele>
        <time>2021-08-04T07:29:23.800Z</time>
      </trkpt>
      <trkpt lat="46.99324" lon="8.86092">
        <ele>1501</ele>
        <time>2021-08-04T07:29:24.801Z</time>
      </trkpt>
      <trkpt lat="46.99323" lon="8.8609">
        <ele>1501</ele>
        <time>2021-08-04T07:29:25.800Z</time>
      </trkpt>
      <trkpt lat="46.99322" lon="8.86089">
        <ele>1501</ele>
        <time>2021-08-04T07:29:26.801Z</time>
      </trkpt>
      <trkpt lat="46.99321" lon="8.86087">
        <ele>1501</ele>
        <time>2021-08-04T07:29:27.801Z</time>
      </trkpt>
      <trkpt lat="46.9932" lon="8.86085">
        <ele>1502</ele>
        <time>2021-08-04T07:29:28.801Z</time>
      </trkpt>
      <trkpt lat="46.99319" lon="8.86084">
        <ele>1502</ele>
        <time>2021-08-04T07:29:29.801Z</time>
      </trkpt>
      <trkpt lat="46.99318" lon="8.86083">
        <ele>1502</ele>
        <time>2021-08-04T07:29:30.801Z</time>
      </trkpt>
      <trkpt lat="46.99317" lon="8.86082">
        <ele>1502</ele>
        <time>2021-08-04T07:29:31.801Z</time>
      </trkpt>
      <trkpt lat="46.99317" lon="8.8608">
        <ele>1502</ele>
        <time>2021-08-04T07:29:32.801Z</time>
      </trkpt>
      <trkpt lat="46.99316" lon="8.86079">
        <ele>1502</ele>
        <time>2021-08-04T07:29:33.801Z</time>
      </trkpt>
      <trkpt lat="46.99315" lon="8.86078">
        <ele>1502</ele>
        <time>2021-08-04T07:29:34.801Z</time>
      </trkpt>
      <trkpt lat="46.99314" lon="8.86077">
        <ele>1502</ele>
        <time>2021-08-04T07:29:35.801Z</time>
      </trkpt>
      <trkpt lat="46.99314" lon="8.86075">
        <ele>1501</ele>
        <time>2021-08-04T07:29:36.801Z</time>
      </trkpt>
      <trkpt lat="46.99313" lon="8.86074">
        <ele>1501</ele>
        <time>2021-08-04T07:29:37.801Z</time>
      </trkpt>
      <trkpt lat="46.99312" lon="8.86072">
        <ele>1500</ele>
        <time>2021-08-04T07:29:38.801Z</time>
      </trkpt>
      <trkpt lat="46.99311" lon="8.86071">
        <ele>1500</ele>
        <time>2021-08-04T07:29:39.801Z</time>
      </trkpt>
      <trkpt lat="46.9931" lon="8.86069">
        <ele>1500</ele>
        <time>2021-08-04T07:29:40.801Z</time>
      </trkpt>
      <trkpt lat="46.99309" lon="8.86068">
        <ele>1499</ele>
        <time>2021-08-04T07:29:41.800Z</time>
      </trkpt>
      <trkpt lat="46.99308" lon="8.86067">
        <ele>1498</ele>
        <time>2021-08-04T07:29:42.800Z</time>
      </trkpt>
      <trkpt lat="46.99307" lon="8.86065">
        <ele>1498</ele>
        <time>2021-08-04T07:29:43.801Z</time>
      </trkpt>
      <trkpt lat="46.99306" lon="8.86064">
        <ele>1498</ele>
        <time>2021-08-04T07:29:44.800Z</time>
      </trkpt>
      <trkpt lat="46.99305" lon="8.86062">
        <ele>1497</ele>
        <time>2021-08-04T07:29:45.801Z</time>
      </trkpt>
      <trkpt lat="46.99305" lon="8.86061">
        <ele>1497</ele>
        <time>2021-08-04T07:29:46.800Z</time>
      </trkpt>
      <trkpt lat="46.99304" lon="8.8606">
        <ele>1497</ele>
        <time>2021-08-04T07:29:47.800Z</time>
      </trkpt>
      <trkpt lat="46.99303" lon="8.86059">
        <ele>1497</ele>
        <time>2021-08-04T07:29:48.800Z</time>
      </trkpt>
      <trkpt lat="46.99303" lon="8.86057">
        <ele>1497</ele>
        <time>2021-08-04T07:29:49.801Z</time>
      </trkpt>
      <trkpt lat="46.99302" lon="8.86056">
        <ele>1496</ele>
        <time>2021-08-04T07:29:50.801Z</time>
      </trkpt>
      <trkpt lat="46.99301" lon="8.86055">
        <ele>1496</ele>
        <time>2021-08-04T07:29:51.800Z</time>
      </trkpt>
      <trkpt lat="46.993" lon="8.86053">
        <ele>1496</ele>
        <time>2021-08-04T07:29:52.800Z</time>
      </trkpt>
      <trkpt lat="46.99299" lon="8.86052">
        <ele>1496</ele>
        <time>2021-08-04T07:29:53.800Z</time>
      </trkpt>
      <trkpt lat="46.99298" lon="8.8605">
        <ele>1495</ele>
        <time>2021-08-04T07:29:54.800Z</time>
      </trkpt>
      <trkpt lat="46.99297" lon="8.86049">
        <ele>1495</ele>
        <time>2021-08-04T07:29:55.801Z</time>
      </trkpt>
      <trkpt lat="46.99296" lon="8.86047">
        <ele>1495</ele>
        <time>2021-08-04T07:29:56.801Z</time>
      </trkpt>
      <trkpt lat="46.99295" lon="8.86045">
        <ele>1495</ele>
        <time>2021-08-04T07:29:57.800Z</time>
      </trkpt>
      <trkpt lat="46.99294" lon="8.86044">
        <ele>1494</ele>
        <time>2021-08-04T07:29:58.801Z</time>
      </trkpt>
      <trkpt lat="46.99293" lon="8.86042">
        <ele>1494</ele>
        <time>2021-08-04T07:29:59.801Z</time>
      </trkpt>
      <trkpt lat="46.99293" lon="8.86041">
        <ele>1494</ele>
        <time>2021-08-04T07:30:00.801Z</time>
      </trkpt>
      <trkpt lat="46.99291" lon="8.86039">
        <ele>1494</ele>
        <time>2021-08-04T07:30:01.801Z</time>
      </trkpt>
      <trkpt lat="46.99291" lon="8.86038">
        <ele>1494</ele>
        <time>2021-08-04T07:30:02.801Z</time>
      </trkpt>
      <trkpt lat="46.9929" lon="8.86036">
        <ele>1494</ele>
        <time>2021-08-04T07:30:03.801Z</time>
      </trkpt>
      <trkpt lat="46.9929" lon="8.86034">
        <ele>1493</ele>
        <time>2021-08-04T07:30:04.801Z</time>
      </trkpt>
      <trkpt lat="46.9929" lon="8.86032">
        <ele>1493</ele>
        <time>2021-08-04T07:30:05.800Z</time>
      </trkpt>
      <trkpt lat="46.99289" lon="8.86031">
        <ele>1493</ele>
        <time>2021-08-04T07:30:06.800Z</time>
      </trkpt>
      <trkpt lat="46.99289" lon="8.86029">
        <ele>1493</ele>
        <time>2021-08-04T07:30:07.801Z</time>
      </trkpt>
      <trkpt lat="46.99289" lon="8.86028">
        <ele>1493</ele>
        <time>2021-08-04T07:30:08.800Z</time>
      </trkpt>
      <trkpt lat="46.99289" lon="8.86026">
        <ele>1493</ele>
        <time>2021-08-04T07:30:09.800Z</time>
      </trkpt>
      <trkpt lat="46.99288" lon="8.86024">
        <ele>1493</ele>
        <time>2021-08-04T07:30:10.801Z</time>
      </trkpt>
      <trkpt lat="46.99287" lon="8.86022">
        <ele>1494</ele>
        <time>2021-08-04T07:30:11.800Z</time>
      </trkpt>
      <trkpt lat="46.99285" lon="8.86021">
        <ele>1494</ele>
        <time>2021-08-04T07:30:12.801Z</time>
      </trkpt>
      <trkpt lat="46.99284" lon="8.86019">
        <ele>1494</ele>
        <time>2021-08-04T07:30:13.801Z</time>
      </trkpt>
      <trkpt lat="46.99283" lon="8.86018">
        <ele>1494</ele>
        <time>2021-08-04T07:30:14.800Z</time>
      </trkpt>
      <trkpt lat="46.99282" lon="8.86017">
        <ele>1494</ele>
        <time>2021-08-04T07:30:15.801Z</time>
      </trkpt>
      <trkpt lat="46.99282" lon="8.86016">
        <ele>1494</ele>
        <time>2021-08-04T07:30:16.801Z</time>
      </trkpt>
      <trkpt lat="46.99281" lon="8.86014">
        <ele>1494</ele>
        <time>2021-08-04T07:30:17.800Z</time>
      </trkpt>
      <trkpt lat="46.9928" lon="8.86012">
        <ele>1494</ele>
        <time>2021-08-04T07:30:18.801Z</time>
      </trkpt>
      <trkpt lat="46.99279" lon="8.86011">
        <ele>1494</ele>
        <time>2021-08-04T07:30:19.800Z</time>
      </trkpt>
      <trkpt lat="46.99278" lon="8.8601">
        <ele>1494</ele>
        <time>2021-08-04T07:30:20.801Z</time>
      </trkpt>
      <trkpt lat="46.99278" lon="8.86009">
        <ele>1494</ele>
        <time>2021-08-04T07:30:21.801Z</time>
      </trkpt>
      <trkpt lat="46.99278" lon="8.86007">
        <ele>1494</ele>
        <time>2021-08-04T07:30:22.800Z</time>
      </trkpt>
      <trkpt lat="46.99277" lon="8.86005">
        <ele>1493</ele>
        <time>2021-08-04T07:30:23.800Z</time>
      </trkpt>
      <trkpt lat="46.99277" lon="8.86004">
        <ele>1493</ele>
        <time>2021-08-04T07:30:24.801Z</time>
      </trkpt>
      <trkpt lat="46.99276" lon="8.86003">
        <ele>1493</ele>
        <time>2021-08-04T07:30:25.800Z</time>
      </trkpt>
      <trkpt lat="46.99276" lon="8.86001">
        <ele>1493</ele>
        <time>2021-08-04T07:30:26.801Z</time>
      </trkpt>
      <trkpt lat="46.99276" lon="8.86">
        <ele>1493</ele>
        <time>2021-08-04T07:30:27.800Z</time>
      </trkpt>
      <trkpt lat="46.99275" lon="8.85998">
        <ele>1493</ele>
        <time>2021-08-04T07:30:28.800Z</time>
      </trkpt>
      <trkpt lat="46.99274" lon="8.85997">
        <ele>1492</ele>
        <time>2021-08-04T07:30:29.801Z</time>
      </trkpt>
      <trkpt lat="46.99273" lon="8.85996">
        <ele>1492</ele>
        <time>2021-08-04T07:30:30.800Z</time>
      </trkpt>
      <trkpt lat="46.99273" lon="8.85994">
        <ele>1491</ele>
        <time>2021-08-04T07:30:31.800Z</time>
      </trkpt>
      <trkpt lat="46.99272" lon="8.85992">
        <ele>1491</ele>
        <time>2021-08-04T07:30:32.800Z</time>
      </trkpt>
      <trkpt lat="46.99272" lon="8.85991">
        <ele>1491</ele>
        <time>2021-08-04T07:30:33.800Z</time>
      </trkpt>
      <trkpt lat="46.99271" lon="8.8599">
        <ele>1490</ele>
        <time>2021-08-04T07:30:34.800Z</time>
      </trkpt>
      <trkpt lat="46.99271" lon="8.85988">
        <ele>1490</ele>
        <time>2021-08-04T07:30:35.800Z</time>
      </trkpt>
      <trkpt lat="46.9927" lon="8.85987">
        <ele>1490</ele>
        <time>2021-08-04T07:30:36.800Z</time>
      </trkpt>
      <trkpt lat="46.9927" lon="8.85985">
        <ele>1490</ele>
        <time>2021-08-04T07:30:37.800Z</time>
      </trkpt>
      <trkpt lat="46.99269" lon="8.85983">
        <ele>1490</ele>
        <time>2021-08-04T07:30:38.800Z</time>
      </trkpt>
      <trkpt lat="46.99268" lon="8.85981">
        <ele>1490</ele>
        <time>2021-08-04T07:30:39.801Z</time>
      </trkpt>
      <trkpt lat="46.99267" lon="8.8598">
        <ele>1489</ele>
        <time>2021-08-04T07:30:40.800Z</time>
      </trkpt>
      <trkpt lat="46.99267" lon="8.85979">
        <ele>1489</ele>
        <time>2021-08-04T07:30:41.800Z</time>
      </trkpt>
      <trkpt lat="46.99266" lon="8.85977">
        <ele>1489</ele>
        <time>2021-08-04T07:30:42.801Z</time>
      </trkpt>
      <trkpt lat="46.99266" lon="8.85976">
        <ele>1489</ele>
        <time>2021-08-04T07:30:43.800Z</time>
      </trkpt>
      <trkpt lat="46.99265" lon="8.85974">
        <ele>1489</ele>
        <time>2021-08-04T07:30:44.800Z</time>
      </trkpt>
      <trkpt lat="46.99265" lon="8.85973">
        <ele>1489</ele>
        <time>2021-08-04T07:30:45.801Z</time>
      </trkpt>
      <trkpt lat="46.99264" lon="8.85972">
        <ele>1489</ele>
        <time>2021-08-04T07:30:46.800Z</time>
      </trkpt>
      <trkpt lat="46.99263" lon="8.85971">
        <ele>1489</ele>
        <time>2021-08-04T07:30:47.800Z</time>
      </trkpt>
      <trkpt lat="46.99263" lon="8.85969">
        <ele>1489</ele>
        <time>2021-08-04T07:30:48.800Z</time>
      </trkpt>
      <trkpt lat="46.99261" lon="8.85968">
        <ele>1489</ele>
        <time>2021-08-04T07:30:49.800Z</time>
      </trkpt>
      <trkpt lat="46.9926" lon="8.85966">
        <ele>1489</ele>
        <time>2021-08-04T07:30:50.800Z</time>
      </trkpt>
      <trkpt lat="46.9926" lon="8.85964">
        <ele>1488</ele>
        <time>2021-08-04T07:30:51.800Z</time>
      </trkpt>
      <trkpt lat="46.99259" lon="8.85963">
        <ele>1488</ele>
        <time>2021-08-04T07:30:52.800Z</time>
      </trkpt>
      <trkpt lat="46.99259" lon="8.85961">
        <ele>1488</ele>
        <time>2021-08-04T07:30:53.801Z</time>
      </trkpt>
      <trkpt lat="46.99258" lon="8.8596">
        <ele>1488</ele>
        <time>2021-08-04T07:30:54.801Z</time>
      </trkpt>
      <trkpt lat="46.99258" lon="8.85958">
        <ele>1487</ele>
        <time>2021-08-04T07:30:55.801Z</time>
      </trkpt>
      <trkpt lat="46.99258" lon="8.85957">
        <ele>1487</ele>
        <time>2021-08-04T07:30:56.800Z</time>
      </trkpt>
      <trkpt lat="46.99257" lon="8.85955">
        <ele>1487</ele>
        <time>2021-08-04T07:30:57.800Z</time>
      </trkpt>
      <trkpt lat="46.99257" lon="8.85954">
        <ele>1486</ele>
        <time>2021-08-04T07:30:58.800Z</time>
      </trkpt>
      <trkpt lat="46.99256" lon="8.85952">
        <ele>1486</ele>
        <time>2021-08-04T07:30:59.800Z</time>
      </trkpt>
      <trkpt lat="46.99256" lon="8.85951">
        <ele>1485</ele>
        <time>2021-08-04T07:31:00.801Z</time>
      </trkpt>
      <trkpt lat="46.99255" lon="8.85949">
        <ele>1484</ele>
        <time>2021-08-04T07:31:01.800Z</time>
      </trkpt>
      <trkpt lat="46.99255" lon="8.85948">
        <ele>1484</ele>
        <time>2021-08-04T07:31:02.800Z</time>
      </trkpt>
      <trkpt lat="46.99254" lon="8.85947">
        <ele>1484</ele>
        <time>2021-08-04T07:31:03.801Z</time>
      </trkpt>
      <trkpt lat="46.99254" lon="8.85945">
        <ele>1484</ele>
        <time>2021-08-04T07:31:04.800Z</time>
      </trkpt>
      <trkpt lat="46.99253" lon="8.85943">
        <ele>1484</ele>
        <time>2021-08-04T07:31:05.800Z</time>
      </trkpt>
      <trkpt lat="46.99253" lon="8.85941">
        <ele>1484</ele>
        <time>2021-08-04T07:31:06.800Z</time>
      </trkpt>
      <trkpt lat="46.99253" lon="8.85939">
        <ele>1484</ele>
        <time>2021-08-04T07:31:07.801Z</time>
      </trkpt>
      <trkpt lat="46.99252" lon="8.85938">
        <ele>1484</ele>
        <time>2021-08-04T07:31:08.800Z</time>
      </trkpt>
      <trkpt lat="46.99251" lon="8.85937">
        <ele>1484</ele>
        <time>2021-08-04T07:31:09.800Z</time>
      </trkpt>
      <trkpt lat="46.9925" lon="8.85935">
        <ele>1483</ele>
        <time>2021-08-04T07:31:10.800Z</time>
      </trkpt>
      <trkpt lat="46.9925" lon="8.85934">
        <ele>1483</ele>
        <time>2021-08-04T07:31:11.801Z</time>
      </trkpt>
      <trkpt lat="46.99249" lon="8.85933">
        <ele>1483</ele>
        <time>2021-08-04T07:31:12.801Z</time>
      </trkpt>
      <trkpt lat="46.99249" lon="8.85932">
        <ele>1483</ele>
        <time>2021-08-04T07:31:13.801Z</time>
      </trkpt>
      <trkpt lat="46.99247" lon="8.85931">
        <ele>1484</ele>
        <time>2021-08-04T07:31:14.801Z</time>
      </trkpt>
      <trkpt lat="46.99246" lon="8.8593">
        <ele>1484</ele>
        <time>2021-08-04T07:31:15.800Z</time>
      </trkpt>
      <trkpt lat="46.99245" lon="8.85929">
        <ele>1484</ele>
        <time>2021-08-04T07:31:16.801Z</time>
      </trkpt>
      <trkpt lat="46.99243" lon="8.85929">
        <ele>1484</ele>
        <time>2021-08-04T07:31:17.800Z</time>
      </trkpt>
      <trkpt lat="46.99242" lon="8.85929">
        <ele>1484</ele>
        <time>2021-08-04T07:31:18.801Z</time>
      </trkpt>
      <trkpt lat="46.99241" lon="8.85928">
        <ele>1484</ele>
        <time>2021-08-04T07:31:19.800Z</time>
      </trkpt>
      <trkpt lat="46.9924" lon="8.85928">
        <ele>1484</ele>
        <time>2021-08-04T07:31:20.801Z</time>
      </trkpt>
      <trkpt lat="46.99238" lon="8.85927">
        <ele>1483</ele>
        <time>2021-08-04T07:31:21.801Z</time>
      </trkpt>
      <trkpt lat="46.99237" lon="8.85926">
        <ele>1483</ele>
        <time>2021-08-04T07:31:22.801Z</time>
      </trkpt>
      <trkpt lat="46.99236" lon="8.85925">
        <ele>1483</ele>
        <time>2021-08-04T07:31:23.801Z</time>
      </trkpt>
      <trkpt lat="46.99235" lon="8.85925">
        <ele>1483</ele>
        <time>2021-08-04T07:31:24.801Z</time>
      </trkpt>
      <trkpt lat="46.99235" lon="8.85924">
        <ele>1482</ele>
        <time>2021-08-04T07:31:25.800Z</time>
      </trkpt>
      <trkpt lat="46.99235" lon="8.85924">
        <ele>1482</ele>
        <time>2021-08-04T07:31:26.801Z</time>
      </trkpt>
      <trkpt lat="46.99234" lon="8.85923">
        <ele>1482</ele>
        <time>2021-08-04T07:31:27.801Z</time>
      </trkpt>
      <trkpt lat="46.99234" lon="8.85923">
        <ele>1482</ele>
        <time>2021-08-04T07:31:28.801Z</time>
      </trkpt>
      <trkpt lat="46.99234" lon="8.85922">
        <ele>1482</ele>
        <time>2021-08-04T07:31:29.801Z</time>
      </trkpt>
      <trkpt lat="46.99234" lon="8.85921">
        <ele>1482</ele>
        <time>2021-08-04T07:31:30.801Z</time>
      </trkpt>
      <trkpt lat="46.99234" lon="8.85921">
        <ele>1482</ele>
        <time>2021-08-04T07:31:31.800Z</time>
      </trkpt>
      <trkpt lat="46.99234" lon="8.8592">
        <ele>1481</ele>
        <time>2021-08-04T07:31:32.801Z</time>
      </trkpt>
      <trkpt lat="46.99233" lon="8.85919">
        <ele>1481</ele>
        <time>2021-08-04T07:31:33.800Z</time>
      </trkpt>
      <trkpt lat="46.99232" lon="8.85918">
        <ele>1480</ele>
        <time>2021-08-04T07:31:34.801Z</time>
      </trkpt>
      <trkpt lat="46.99233" lon="8.85915">
        <ele>1478</ele>
        <time>2021-08-04T07:31:35.802Z</time>
      </trkpt>
      <trkpt lat="46.99233" lon="8.85914">
        <ele>1478</ele>
        <time>2021-08-04T07:31:36.801Z</time>
      </trkpt>
      <trkpt lat="46.99233" lon="8.85913">
        <ele>1478</ele>
        <time>2021-08-04T07:31:37.802Z</time>
      </trkpt>
      <trkpt lat="46.99233" lon="8.85913">
        <ele>1478</ele>
        <time>2021-08-04T07:31:38.802Z</time>
      </trkpt>
      <trkpt lat="46.99233" lon="8.85912">
        <ele>1478</ele>
        <time>2021-08-04T07:31:39.802Z</time>
      </trkpt>
      <trkpt lat="46.99234" lon="8.85911">
        <ele>1478</ele>
        <time>2021-08-04T07:31:40.802Z</time>
      </trkpt>
      <trkpt lat="46.99233" lon="8.85909">
        <ele>1478</ele>
        <time>2021-08-04T07:31:41.802Z</time>
      </trkpt>
      <trkpt lat="46.99233" lon="8.85908">
        <ele>1478</ele>
        <time>2021-08-04T07:31:42.802Z</time>
      </trkpt>
      <trkpt lat="46.99233" lon="8.85907">
        <ele>1478</ele>
        <time>2021-08-04T07:31:43.801Z</time>
      </trkpt>
      <trkpt lat="46.99234" lon="8.85905">
        <ele>1478</ele>
        <time>2021-08-04T07:31:44.802Z</time>
      </trkpt>
      <trkpt lat="46.99234" lon="8.85904">
        <ele>1478</ele>
        <time>2021-08-04T07:31:45.802Z</time>
      </trkpt>
      <trkpt lat="46.99234" lon="8.85903">
        <ele>1478</ele>
        <time>2021-08-04T07:31:46.801Z</time>
      </trkpt>
      <trkpt lat="46.99235" lon="8.85901">
        <ele>1478</ele>
        <time>2021-08-04T07:31:47.801Z</time>
      </trkpt>
      <trkpt lat="46.99235" lon="8.85901">
        <ele>1478</ele>
        <time>2021-08-04T07:31:48.802Z</time>
      </trkpt>
      <trkpt lat="46.99235" lon="8.85901">
        <ele>1478</ele>
        <time>2021-08-04T07:31:49.802Z</time>
      </trkpt>
      <trkpt lat="46.99236" lon="8.85899">
        <ele>1477</ele>
        <time>2021-08-04T07:31:50.803Z</time>
      </trkpt>
      <trkpt lat="46.99236" lon="8.85898">
        <ele>1477</ele>
        <time>2021-08-04T07:31:51.803Z</time>
      </trkpt>
      <trkpt lat="46.99236" lon="8.85896">
        <ele>1477</ele>
        <time>2021-08-04T07:31:52.803Z</time>
      </trkpt>
      <trkpt lat="46.99236" lon="8.85895">
        <ele>1477</ele>
        <time>2021-08-04T07:31:53.803Z</time>
      </trkpt>
      <trkpt lat="46.99236" lon="8.85894">
        <ele>1477</ele>
        <time>2021-08-04T07:31:54.803Z</time>
      </trkpt>
      <trkpt lat="46.99235" lon="8.85894">
        <ele>1477</ele>
        <time>2021-08-04T07:31:55.803Z</time>
      </trkpt>
      <trkpt lat="46.99235" lon="8.85894">
        <ele>1477</ele>
        <time>2021-08-04T07:31:56.803Z</time>
      </trkpt>
      <trkpt lat="46.99234" lon="8.85891">
        <ele>1478</ele>
        <time>2021-08-04T07:31:57.804Z</time>
      </trkpt>
      <trkpt lat="46.99234" lon="8.8589">
        <ele>1478</ele>
        <time>2021-08-04T07:31:58.804Z</time>
      </trkpt>
      <trkpt lat="46.99234" lon="8.85889">
        <ele>1478</ele>
        <time>2021-08-04T07:31:59.804Z</time>
      </trkpt>
      <trkpt lat="46.99233" lon="8.85888">
        <ele>1478</ele>
        <time>2021-08-04T07:32:00.804Z</time>
      </trkpt>
      <trkpt lat="46.99233" lon="8.85887">
        <ele>1478</ele>
        <time>2021-08-04T07:32:01.804Z</time>
      </trkpt>
      <trkpt lat="46.99233" lon="8.85886">
        <ele>1478</ele>
        <time>2021-08-04T07:32:02.804Z</time>
      </trkpt>
      <trkpt lat="46.99233" lon="8.85885">
        <ele>1478</ele>
        <time>2021-08-04T07:32:03.804Z</time>
      </trkpt>
      <trkpt lat="46.99233" lon="8.85884">
        <ele>1478</ele>
        <time>2021-08-04T07:32:04.804Z</time>
      </trkpt>
      <trkpt lat="46.99232" lon="8.85883">
        <ele>1478</ele>
        <time>2021-08-04T07:32:05.804Z</time>
      </trkpt>
      <trkpt lat="46.99231" lon="8.85881">
        <ele>1478</ele>
        <time>2021-08-04T07:32:06.803Z</time>
      </trkpt>
      <trkpt lat="46.99231" lon="8.85881">
        <ele>1478</ele>
        <time>2021-08-04T07:32:07.803Z</time>
      </trkpt>
      <trkpt lat="46.9923" lon="8.8588">
        <ele>1478</ele>
        <time>2021-08-04T07:32:08.803Z</time>
      </trkpt>
      <trkpt lat="46.99229" lon="8.85879">
        <ele>1478</ele>
        <time>2021-08-04T07:32:09.803Z</time>
      </trkpt>
      <trkpt lat="46.99228" lon="8.85878">
        <ele>1478</ele>
        <time>2021-08-04T07:32:10.804Z</time>
      </trkpt>
      <trkpt lat="46.99228" lon="8.85877">
        <ele>1478</ele>
        <time>2021-08-04T07:32:11.803Z</time>
      </trkpt>
      <trkpt lat="46.99227" lon="8.85876">
        <ele>1478</ele>
        <time>2021-08-04T07:32:12.804Z</time>
      </trkpt>
      <trkpt lat="46.99227" lon="8.85875">
        <ele>1478</ele>
        <time>2021-08-04T07:32:13.804Z</time>
      </trkpt>
      <trkpt lat="46.99227" lon="8.85874">
        <ele>1478</ele>
        <time>2021-08-04T07:32:14.804Z</time>
      </trkpt>
      <trkpt lat="46.99226" lon="8.85873">
        <ele>1478</ele>
        <time>2021-08-04T07:32:15.804Z</time>
      </trkpt>
      <trkpt lat="46.99226" lon="8.85871">
        <ele>1479</ele>
        <time>2021-08-04T07:32:16.803Z</time>
      </trkpt>
      <trkpt lat="46.99225" lon="8.8587">
        <ele>1479</ele>
        <time>2021-08-04T07:32:17.803Z</time>
      </trkpt>
      <trkpt lat="46.99224" lon="8.85869">
        <ele>1480</ele>
        <time>2021-08-04T07:32:18.803Z</time>
      </trkpt>
      <trkpt lat="46.99223" lon="8.85868">
        <ele>1480</ele>
        <time>2021-08-04T07:32:19.803Z</time>
      </trkpt>
      <trkpt lat="46.99223" lon="8.85867">
        <ele>1480</ele>
        <time>2021-08-04T07:32:20.803Z</time>
      </trkpt>
      <trkpt lat="46.99222" lon="8.85867">
        <ele>1480</ele>
        <time>2021-08-04T07:32:21.804Z</time>
      </trkpt>
      <trkpt lat="46.99222" lon="8.85866">
        <ele>1481</ele>
        <time>2021-08-04T07:32:22.804Z</time>
      </trkpt>
      <trkpt lat="46.99222" lon="8.85865">
        <ele>1481</ele>
        <time>2021-08-04T07:32:23.804Z</time>
      </trkpt>
      <trkpt lat="46.99221" lon="8.85864">
        <ele>1481</ele>
        <time>2021-08-04T07:32:24.803Z</time>
      </trkpt>
      <trkpt lat="46.9922" lon="8.85863">
        <ele>1482</ele>
        <time>2021-08-04T07:32:25.803Z</time>
      </trkpt>
      <trkpt lat="46.9922" lon="8.85862">
        <ele>1482</ele>
        <time>2021-08-04T07:32:26.803Z</time>
      </trkpt>
      <trkpt lat="46.99219" lon="8.85861">
        <ele>1483</ele>
        <time>2021-08-04T07:32:27.804Z</time>
      </trkpt>
      <trkpt lat="46.99219" lon="8.8586">
        <ele>1483</ele>
        <time>2021-08-04T07:32:28.804Z</time>
      </trkpt>
      <trkpt lat="46.99219" lon="8.85859">
        <ele>1483</ele>
        <time>2021-08-04T07:32:29.804Z</time>
      </trkpt>
      <trkpt lat="46.99218" lon="8.85858">
        <ele>1483</ele>
        <time>2021-08-04T07:32:30.803Z</time>
      </trkpt>
      <trkpt lat="46.99218" lon="8.85857">
        <ele>1483</ele>
        <time>2021-08-04T07:32:31.804Z</time>
      </trkpt>
      <trkpt lat="46.99217" lon="8.85857">
        <ele>1482</ele>
        <time>2021-08-04T07:32:32.804Z</time>
      </trkpt>
      <trkpt lat="46.99217" lon="8.85857">
        <ele>1482</ele>
        <time>2021-08-04T07:32:33.804Z</time>
      </trkpt>
      <trkpt lat="46.99216" lon="8.85855">
        <ele>1480</ele>
        <time>2021-08-04T07:32:34.805Z</time>
      </trkpt>
      <trkpt lat="46.99215" lon="8.85854">
        <ele>1480</ele>
        <time>2021-08-04T07:32:35.804Z</time>
      </trkpt>
      <trkpt lat="46.99215" lon="8.85852">
        <ele>1479</ele>
        <time>2021-08-04T07:32:36.804Z</time>
      </trkpt>
      <trkpt lat="46.99214" lon="8.85852">
        <ele>1479</ele>
        <time>2021-08-04T07:32:37.805Z</time>
      </trkpt>
      <trkpt lat="46.99213" lon="8.8585">
        <ele>1479</ele>
        <time>2021-08-04T07:32:38.805Z</time>
      </trkpt>
      <trkpt lat="46.99212" lon="8.85849">
        <ele>1479</ele>
        <time>2021-08-04T07:32:39.805Z</time>
      </trkpt>
      <trkpt lat="46.99212" lon="8.85847">
        <ele>1479</ele>
        <time>2021-08-04T07:32:40.804Z</time>
      </trkpt>
      <trkpt lat="46.99211" lon="8.85846">
        <ele>1479</ele>
        <time>2021-08-04T07:32:41.805Z</time>
      </trkpt>
      <trkpt lat="46.9921" lon="8.85845">
        <ele>1480</ele>
        <time>2021-08-04T07:32:42.804Z</time>
      </trkpt>
      <trkpt lat="46.99209" lon="8.85843">
        <ele>1480</ele>
        <time>2021-08-04T07:32:43.805Z</time>
      </trkpt>
      <trkpt lat="46.99208" lon="8.85842">
        <ele>1480</ele>
        <time>2021-08-04T07:32:44.804Z</time>
      </trkpt>
      <trkpt lat="46.99208" lon="8.85841">
        <ele>1480</ele>
        <time>2021-08-04T07:32:45.804Z</time>
      </trkpt>
      <trkpt lat="46.99206" lon="8.85839">
        <ele>1481</ele>
        <time>2021-08-04T07:32:46.805Z</time>
      </trkpt>
      <trkpt lat="46.99205" lon="8.85838">
        <ele>1481</ele>
        <time>2021-08-04T07:32:47.804Z</time>
      </trkpt>
      <trkpt lat="46.99203" lon="8.85837">
        <ele>1481</ele>
        <time>2021-08-04T07:32:48.804Z</time>
      </trkpt>
      <trkpt lat="46.99202" lon="8.85836">
        <ele>1481</ele>
        <time>2021-08-04T07:32:49.805Z</time>
      </trkpt>
      <trkpt lat="46.99201" lon="8.85835">
        <ele>1481</ele>
        <time>2021-08-04T07:32:50.805Z</time>
      </trkpt>
      <trkpt lat="46.992" lon="8.85834">
        <ele>1481</ele>
        <time>2021-08-04T07:32:51.805Z</time>
      </trkpt>
      <trkpt lat="46.99199" lon="8.85833">
        <ele>1480</ele>
        <time>2021-08-04T07:32:52.804Z</time>
      </trkpt>
      <trkpt lat="46.99198" lon="8.85832">
        <ele>1480</ele>
        <time>2021-08-04T07:32:53.805Z</time>
      </trkpt>
      <trkpt lat="46.99197" lon="8.85831">
        <ele>1480</ele>
        <time>2021-08-04T07:32:54.805Z</time>
      </trkpt>
      <trkpt lat="46.99196" lon="8.85829">
        <ele>1480</ele>
        <time>2021-08-04T07:32:55.804Z</time>
      </trkpt>
      <trkpt lat="46.99196" lon="8.85828">
        <ele>1480</ele>
        <time>2021-08-04T07:32:56.805Z</time>
      </trkpt>
      <trkpt lat="46.99195" lon="8.85826">
        <ele>1480</ele>
        <time>2021-08-04T07:32:57.805Z</time>
      </trkpt>
      <trkpt lat="46.99194" lon="8.85825">
        <ele>1480</ele>
        <time>2021-08-04T07:32:58.804Z</time>
      </trkpt>
      <trkpt lat="46.99194" lon="8.85823">
        <ele>1481</ele>
        <time>2021-08-04T07:32:59.804Z</time>
      </trkpt>
      <trkpt lat="46.99194" lon="8.85823">
        <ele>1480</ele>
        <time>2021-08-04T07:33:00.805Z</time>
      </trkpt>
      <trkpt lat="46.99194" lon="8.85822">
        <ele>1480</ele>
        <time>2021-08-04T07:33:01.804Z</time>
      </trkpt>
      <trkpt lat="46.99194" lon="8.8582">
        <ele>1480</ele>
        <time>2021-08-04T07:33:02.805Z</time>
      </trkpt>
      <trkpt lat="46.99194" lon="8.85818">
        <ele>1479</ele>
        <time>2021-08-04T07:33:03.804Z</time>
      </trkpt>
      <trkpt lat="46.99193" lon="8.85817">
        <ele>1479</ele>
        <time>2021-08-04T07:33:04.805Z</time>
      </trkpt>
      <trkpt lat="46.99193" lon="8.85815">
        <ele>1480</ele>
        <time>2021-08-04T07:33:05.805Z</time>
      </trkpt>
      <trkpt lat="46.99193" lon="8.85815">
        <ele>1480</ele>
        <time>2021-08-04T07:33:06.805Z</time>
      </trkpt>
      <trkpt lat="46.99193" lon="8.85814">
        <ele>1480</ele>
        <time>2021-08-04T07:33:07.805Z</time>
      </trkpt>
      <trkpt lat="46.99192" lon="8.85812">
        <ele>1480</ele>
        <time>2021-08-04T07:33:08.805Z</time>
      </trkpt>
      <trkpt lat="46.99192" lon="8.85811">
        <ele>1480</ele>
        <time>2021-08-04T07:33:09.804Z</time>
      </trkpt>
      <trkpt lat="46.99192" lon="8.85809">
        <ele>1480</ele>
        <time>2021-08-04T07:33:10.805Z</time>
      </trkpt>
      <trkpt lat="46.99193" lon="8.85808">
        <ele>1480</ele>
        <time>2021-08-04T07:33:11.805Z</time>
      </trkpt>
      <trkpt lat="46.99192" lon="8.85807">
        <ele>1480</ele>
        <time>2021-08-04T07:33:12.804Z</time>
      </trkpt>
      <trkpt lat="46.99192" lon="8.85805">
        <ele>1480</ele>
        <time>2021-08-04T07:33:13.804Z</time>
      </trkpt>
      <trkpt lat="46.99191" lon="8.85803">
        <ele>1481</ele>
        <time>2021-08-04T07:33:14.804Z</time>
      </trkpt>
      <trkpt lat="46.9919" lon="8.85801">
        <ele>1481</ele>
        <time>2021-08-04T07:33:15.805Z</time>
      </trkpt>
      <trkpt lat="46.9919" lon="8.858">
        <ele>1481</ele>
        <time>2021-08-04T07:33:16.804Z</time>
      </trkpt>
      <trkpt lat="46.99189" lon="8.85798">
        <ele>1482</ele>
        <time>2021-08-04T07:33:17.805Z</time>
      </trkpt>
      <trkpt lat="46.99189" lon="8.85797">
        <ele>1482</ele>
        <time>2021-08-04T07:33:18.804Z</time>
      </trkpt>
      <trkpt lat="46.99189" lon="8.85795">
        <ele>1482</ele>
        <time>2021-08-04T07:33:19.805Z</time>
      </trkpt>
      <trkpt lat="46.99189" lon="8.85794">
        <ele>1482</ele>
        <time>2021-08-04T07:33:20.805Z</time>
      </trkpt>
      <trkpt lat="46.99189" lon="8.85792">
        <ele>1482</ele>
        <time>2021-08-04T07:33:21.805Z</time>
      </trkpt>
      <trkpt lat="46.99188" lon="8.8579">
        <ele>1483</ele>
        <time>2021-08-04T07:33:22.804Z</time>
      </trkpt>
      <trkpt lat="46.99188" lon="8.85789">
        <ele>1483</ele>
        <time>2021-08-04T07:33:23.804Z</time>
      </trkpt>
      <trkpt lat="46.99188" lon="8.85788">
        <ele>1483</ele>
        <time>2021-08-04T07:33:24.804Z</time>
      </trkpt>
      <trkpt lat="46.99188" lon="8.85786">
        <ele>1483</ele>
        <time>2021-08-04T07:33:25.805Z</time>
      </trkpt>
      <trkpt lat="46.99188" lon="8.85784">
        <ele>1483</ele>
        <time>2021-08-04T07:33:26.805Z</time>
      </trkpt>
      <trkpt lat="46.99188" lon="8.85783">
        <ele>1483</ele>
        <time>2021-08-04T07:33:27.804Z</time>
      </trkpt>
      <trkpt lat="46.99188" lon="8.85781">
        <ele>1483</ele>
        <time>2021-08-04T07:33:28.804Z</time>
      </trkpt>
      <trkpt lat="46.99187" lon="8.85779">
        <ele>1483</ele>
        <time>2021-08-04T07:33:29.805Z</time>
      </trkpt>
      <trkpt lat="46.99187" lon="8.85778">
        <ele>1483</ele>
        <time>2021-08-04T07:33:30.804Z</time>
      </trkpt>
      <trkpt lat="46.99187" lon="8.85776">
        <ele>1483</ele>
        <time>2021-08-04T07:33:31.805Z</time>
      </trkpt>
      <trkpt lat="46.99188" lon="8.85775">
        <ele>1483</ele>
        <time>2021-08-04T07:33:32.805Z</time>
      </trkpt>
      <trkpt lat="46.99188" lon="8.85773">
        <ele>1483</ele>
        <time>2021-08-04T07:33:33.804Z</time>
      </trkpt>
      <trkpt lat="46.99188" lon="8.85772">
        <ele>1483</ele>
        <time>2021-08-04T07:33:34.805Z</time>
      </trkpt>
      <trkpt lat="46.99188" lon="8.8577">
        <ele>1482</ele>
        <time>2021-08-04T07:33:35.805Z</time>
      </trkpt>
      <trkpt lat="46.99188" lon="8.85768">
        <ele>1482</ele>
        <time>2021-08-04T07:33:36.805Z</time>
      </trkpt>
      <trkpt lat="46.99188" lon="8.85766">
        <ele>1482</ele>
        <time>2021-08-04T07:33:37.805Z</time>
      </trkpt>
      <trkpt lat="46.99189" lon="8.85764">
        <ele>1482</ele>
        <time>2021-08-04T07:33:38.804Z</time>
      </trkpt>
      <trkpt lat="46.99189" lon="8.85762">
        <ele>1482</ele>
        <time>2021-08-04T07:33:39.805Z</time>
      </trkpt>
      <trkpt lat="46.99189" lon="8.85761">
        <ele>1482</ele>
        <time>2021-08-04T07:33:40.805Z</time>
      </trkpt>
      <trkpt lat="46.99189" lon="8.8576">
        <ele>1482</ele>
        <time>2021-08-04T07:33:41.804Z</time>
      </trkpt>
      <trkpt lat="46.99189" lon="8.85758">
        <ele>1482</ele>
        <time>2021-08-04T07:33:42.804Z</time>
      </trkpt>
      <trkpt lat="46.99189" lon="8.85756">
        <ele>1482</ele>
        <time>2021-08-04T07:33:43.805Z</time>
      </trkpt>
      <trkpt lat="46.9919" lon="8.85754">
        <ele>1482</ele>
        <time>2021-08-04T07:33:44.804Z</time>
      </trkpt>
      <trkpt lat="46.9919" lon="8.85753">
        <ele>1482</ele>
        <time>2021-08-04T07:33:45.804Z</time>
      </trkpt>
      <trkpt lat="46.9919" lon="8.85752">
        <ele>1481</ele>
        <time>2021-08-04T07:33:46.805Z</time>
      </trkpt>
      <trkpt lat="46.9919" lon="8.8575">
        <ele>1481</ele>
        <time>2021-08-04T07:33:47.805Z</time>
      </trkpt>
      <trkpt lat="46.9919" lon="8.85748">
        <ele>1481</ele>
        <time>2021-08-04T07:33:48.805Z</time>
      </trkpt>
      <trkpt lat="46.9919" lon="8.85746">
        <ele>1481</ele>
        <time>2021-08-04T07:33:49.805Z</time>
      </trkpt>
      <trkpt lat="46.99189" lon="8.85745">
        <ele>1481</ele>
        <time>2021-08-04T07:33:50.804Z</time>
      </trkpt>
      <trkpt lat="46.99189" lon="8.85744">
        <ele>1481</ele>
        <time>2021-08-04T07:33:51.805Z</time>
      </trkpt>
      <trkpt lat="46.99189" lon="8.85743">
        <ele>1481</ele>
        <time>2021-08-04T07:33:52.805Z</time>
      </trkpt>
      <trkpt lat="46.99188" lon="8.85741">
        <ele>1481</ele>
        <time>2021-08-04T07:33:53.804Z</time>
      </trkpt>
      <trkpt lat="46.99188" lon="8.85739">
        <ele>1481</ele>
        <time>2021-08-04T07:33:54.804Z</time>
      </trkpt>
      <trkpt lat="46.99187" lon="8.85737">
        <ele>1481</ele>
        <time>2021-08-04T07:33:55.805Z</time>
      </trkpt>
      <trkpt lat="46.99187" lon="8.85736">
        <ele>1481</ele>
        <time>2021-08-04T07:33:56.805Z</time>
      </trkpt>
      <trkpt lat="46.99186" lon="8.85735">
        <ele>1481</ele>
        <time>2021-08-04T07:33:57.805Z</time>
      </trkpt>
      <trkpt lat="46.99186" lon="8.85732">
        <ele>1480</ele>
        <time>2021-08-04T07:33:58.805Z</time>
      </trkpt>
      <trkpt lat="46.99184" lon="8.85731">
        <ele>1480</ele>
        <time>2021-08-04T07:33:59.805Z</time>
      </trkpt>
      <trkpt lat="46.99184" lon="8.85728">
        <ele>1480</ele>
        <time>2021-08-04T07:34:00.804Z</time>
      </trkpt>
      <trkpt lat="46.99183" lon="8.85727">
        <ele>1479</ele>
        <time>2021-08-04T07:34:01.804Z</time>
      </trkpt>
      <trkpt lat="46.99182" lon="8.85725">
        <ele>1479</ele>
        <time>2021-08-04T07:34:02.805Z</time>
      </trkpt>
      <trkpt lat="46.99181" lon="8.85723">
        <ele>1478</ele>
        <time>2021-08-04T07:34:03.804Z</time>
      </trkpt>
      <trkpt lat="46.99181" lon="8.85721">
        <ele>1478</ele>
        <time>2021-08-04T07:34:04.805Z</time>
      </trkpt>
      <trkpt lat="46.9918" lon="8.8572">
        <ele>1478</ele>
        <time>2021-08-04T07:34:05.805Z</time>
      </trkpt>
      <trkpt lat="46.9918" lon="8.85718">
        <ele>1478</ele>
        <time>2021-08-04T07:34:06.804Z</time>
      </trkpt>
      <trkpt lat="46.9918" lon="8.85717">
        <ele>1477</ele>
        <time>2021-08-04T07:34:07.804Z</time>
      </trkpt>
      <trkpt lat="46.9918" lon="8.85715">
        <ele>1477</ele>
        <time>2021-08-04T07:34:08.804Z</time>
      </trkpt>
      <trkpt lat="46.9918" lon="8.85714">
        <ele>1477</ele>
        <time>2021-08-04T07:34:09.805Z</time>
      </trkpt>
      <trkpt lat="46.99181" lon="8.85712">
        <ele>1476</ele>
        <time>2021-08-04T07:34:10.805Z</time>
      </trkpt>
      <trkpt lat="46.99181" lon="8.85711">
        <ele>1476</ele>
        <time>2021-08-04T07:34:11.805Z</time>
      </trkpt>
      <trkpt lat="46.99181" lon="8.85709">
        <ele>1477</ele>
        <time>2021-08-04T07:34:12.804Z</time>
      </trkpt>
      <trkpt lat="46.99181" lon="8.85707">
        <ele>1477</ele>
        <time>2021-08-04T07:34:13.805Z</time>
      </trkpt>
      <trkpt lat="46.99181" lon="8.85705">
        <ele>1477</ele>
        <time>2021-08-04T07:34:14.805Z</time>
      </trkpt>
      <trkpt lat="46.99181" lon="8.85703">
        <ele>1478</ele>
        <time>2021-08-04T07:34:15.804Z</time>
      </trkpt>
      <trkpt lat="46.99181" lon="8.85701">
        <ele>1478</ele>
        <time>2021-08-04T07:34:16.805Z</time>
      </trkpt>
      <trkpt lat="46.9918" lon="8.857">
        <ele>1478</ele>
        <time>2021-08-04T07:34:17.805Z</time>
      </trkpt>
      <trkpt lat="46.99181" lon="8.85698">
        <ele>1478</ele>
        <time>2021-08-04T07:34:18.805Z</time>
      </trkpt>
      <trkpt lat="46.9918" lon="8.85696">
        <ele>1478</ele>
        <time>2021-08-04T07:34:19.804Z</time>
      </trkpt>
      <trkpt lat="46.9918" lon="8.85694">
        <ele>1478</ele>
        <time>2021-08-04T07:34:20.804Z</time>
      </trkpt>
      <trkpt lat="46.99181" lon="8.85692">
        <ele>1478</ele>
        <time>2021-08-04T07:34:21.804Z</time>
      </trkpt>
      <trkpt lat="46.9918" lon="8.85691">
        <ele>1478</ele>
        <time>2021-08-04T07:34:22.805Z</time>
      </trkpt>
      <trkpt lat="46.9918" lon="8.85689">
        <ele>1478</ele>
        <time>2021-08-04T07:34:23.804Z</time>
      </trkpt>
      <trkpt lat="46.9918" lon="8.85687">
        <ele>1478</ele>
        <time>2021-08-04T07:34:24.805Z</time>
      </trkpt>
      <trkpt lat="46.9918" lon="8.85685">
        <ele>1478</ele>
        <time>2021-08-04T07:34:25.804Z</time>
      </trkpt>
      <trkpt lat="46.99179" lon="8.85683">
        <ele>1478</ele>
        <time>2021-08-04T07:34:26.805Z</time>
      </trkpt>
      <trkpt lat="46.99179" lon="8.85682">
        <ele>1478</ele>
        <time>2021-08-04T07:34:27.805Z</time>
      </trkpt>
      <trkpt lat="46.99179" lon="8.8568">
        <ele>1477</ele>
        <time>2021-08-04T07:34:28.805Z</time>
      </trkpt>
      <trkpt lat="46.99178" lon="8.85679">
        <ele>1477</ele>
        <time>2021-08-04T07:34:29.805Z</time>
      </trkpt>
      <trkpt lat="46.99177" lon="8.85678">
        <ele>1477</ele>
        <time>2021-08-04T07:34:30.805Z</time>
      </trkpt>
      <trkpt lat="46.99176" lon="8.85676">
        <ele>1477</ele>
        <time>2021-08-04T07:34:31.805Z</time>
      </trkpt>
      <trkpt lat="46.99176" lon="8.85674">
        <ele>1477</ele>
        <time>2021-08-04T07:34:32.804Z</time>
      </trkpt>
      <trkpt lat="46.99175" lon="8.85672">
        <ele>1476</ele>
        <time>2021-08-04T07:34:33.805Z</time>
      </trkpt>
      <trkpt lat="46.99175" lon="8.85671">
        <ele>1476</ele>
        <time>2021-08-04T07:34:34.805Z</time>
      </trkpt>
      <trkpt lat="46.99174" lon="8.8567">
        <ele>1476</ele>
        <time>2021-08-04T07:34:35.805Z</time>
      </trkpt>
      <trkpt lat="46.99174" lon="8.85668">
        <ele>1476</ele>
        <time>2021-08-04T07:34:36.804Z</time>
      </trkpt>
      <trkpt lat="46.99173" lon="8.85667">
        <ele>1476</ele>
        <time>2021-08-04T07:34:37.805Z</time>
      </trkpt>
      <trkpt lat="46.99172" lon="8.85665">
        <ele>1476</ele>
        <time>2021-08-04T07:34:38.804Z</time>
      </trkpt>
      <trkpt lat="46.99172" lon="8.85664">
        <ele>1475</ele>
        <time>2021-08-04T07:34:39.805Z</time>
      </trkpt>
      <trkpt lat="46.99171" lon="8.85663">
        <ele>1475</ele>
        <time>2021-08-04T07:34:40.805Z</time>
      </trkpt>
      <trkpt lat="46.9917" lon="8.8566">
        <ele>1474</ele>
        <time>2021-08-04T07:34:41.805Z</time>
      </trkpt>
      <trkpt lat="46.99169" lon="8.85659">
        <ele>1474</ele>
        <time>2021-08-04T07:34:42.804Z</time>
      </trkpt>
      <trkpt lat="46.99168" lon="8.85657">
        <ele>1474</ele>
        <time>2021-08-04T07:34:43.805Z</time>
      </trkpt>
      <trkpt lat="46.99168" lon="8.85655">
        <ele>1474</ele>
        <time>2021-08-04T07:34:44.804Z</time>
      </trkpt>
      <trkpt lat="46.99167" lon="8.85653">
        <ele>1474</ele>
        <time>2021-08-04T07:34:45.805Z</time>
      </trkpt>
      <trkpt lat="46.99168" lon="8.85652">
        <ele>1474</ele>
        <time>2021-08-04T07:34:46.805Z</time>
      </trkpt>
      <trkpt lat="46.99168" lon="8.8565">
        <ele>1474</ele>
        <time>2021-08-04T07:34:47.805Z</time>
      </trkpt>
      <trkpt lat="46.99168" lon="8.85648">
        <ele>1474</ele>
        <time>2021-08-04T07:34:48.805Z</time>
      </trkpt>
      <trkpt lat="46.99169" lon="8.85646">
        <ele>1474</ele>
        <time>2021-08-04T07:34:49.804Z</time>
      </trkpt>
      <trkpt lat="46.99169" lon="8.85645">
        <ele>1474</ele>
        <time>2021-08-04T07:34:50.805Z</time>
      </trkpt>
      <trkpt lat="46.99169" lon="8.85643">
        <ele>1474</ele>
        <time>2021-08-04T07:34:51.805Z</time>
      </trkpt>
      <trkpt lat="46.99168" lon="8.85641">
        <ele>1474</ele>
        <time>2021-08-04T07:34:52.805Z</time>
      </trkpt>
      <trkpt lat="46.99168" lon="8.85639">
        <ele>1474</ele>
        <time>2021-08-04T07:34:53.804Z</time>
      </trkpt>
      <trkpt lat="46.99167" lon="8.85637">
        <ele>1474</ele>
        <time>2021-08-04T07:34:54.804Z</time>
      </trkpt>
      <trkpt lat="46.99166" lon="8.85635">
        <ele>1475</ele>
        <time>2021-08-04T07:34:55.804Z</time>
      </trkpt>
      <trkpt lat="46.99165" lon="8.85633">
        <ele>1475</ele>
        <time>2021-08-04T07:34:56.804Z</time>
      </trkpt>
      <trkpt lat="46.99165" lon="8.85631">
        <ele>1475</ele>
        <time>2021-08-04T07:34:57.805Z</time>
      </trkpt>
      <trkpt lat="46.99164" lon="8.85629">
        <ele>1475</ele>
        <time>2021-08-04T07:34:58.805Z</time>
      </trkpt>
      <trkpt lat="46.99164" lon="8.85628">
        <ele>1475</ele>
        <time>2021-08-04T07:34:59.805Z</time>
      </trkpt>
      <trkpt lat="46.99164" lon="8.85626">
        <ele>1475</ele>
        <time>2021-08-04T07:35:00.805Z</time>
      </trkpt>
      <trkpt lat="46.99164" lon="8.85624">
        <ele>1475</ele>
        <time>2021-08-04T07:35:01.805Z</time>
      </trkpt>
      <trkpt lat="46.99163" lon="8.85623">
        <ele>1474</ele>
        <time>2021-08-04T07:35:02.804Z</time>
      </trkpt>
      <trkpt lat="46.99163" lon="8.85621">
        <ele>1474</ele>
        <time>2021-08-04T07:35:03.804Z</time>
      </trkpt>
      <trkpt lat="46.99163" lon="8.8562">
        <ele>1474</ele>
        <time>2021-08-04T07:35:04.804Z</time>
      </trkpt>
      <trkpt lat="46.99163" lon="8.85618">
        <ele>1473</ele>
        <time>2021-08-04T07:35:05.804Z</time>
      </trkpt>
      <trkpt lat="46.99163" lon="8.85616">
        <ele>1473</ele>
        <time>2021-08-04T07:35:06.804Z</time>
      </trkpt>
      <trkpt lat="46.99163" lon="8.85614">
        <ele>1473</ele>
        <time>2021-08-04T07:35:07.804Z</time>
      </trkpt>
      <trkpt lat="46.99163" lon="8.85613">
        <ele>1472</ele>
        <time>2021-08-04T07:35:08.804Z</time>
      </trkpt>
      <trkpt lat="46.99164" lon="8.85612">
        <ele>1472</ele>
        <time>2021-08-04T07:35:09.804Z</time>
      </trkpt>
      <trkpt lat="46.99163" lon="8.8561">
        <ele>1471</ele>
        <time>2021-08-04T07:35:10.804Z</time>
      </trkpt>
      <trkpt lat="46.99163" lon="8.85608">
        <ele>1471</ele>
        <time>2021-08-04T07:35:11.804Z</time>
      </trkpt>
      <trkpt lat="46.99162" lon="8.85607">
        <ele>1470</ele>
        <time>2021-08-04T07:35:12.804Z</time>
      </trkpt>
      <trkpt lat="46.99162" lon="8.85605">
        <ele>1470</ele>
        <time>2021-08-04T07:35:13.804Z</time>
      </trkpt>
      <trkpt lat="46.99161" lon="8.85604">
        <ele>1470</ele>
        <time>2021-08-04T07:35:14.804Z</time>
      </trkpt>
      <trkpt lat="46.9916" lon="8.85602">
        <ele>1470</ele>
        <time>2021-08-04T07:35:15.804Z</time>
      </trkpt>
      <trkpt lat="46.99159" lon="8.85601">
        <ele>1470</ele>
        <time>2021-08-04T07:35:16.804Z</time>
      </trkpt>
      <trkpt lat="46.99158" lon="8.85601">
        <ele>1470</ele>
        <time>2021-08-04T07:35:17.804Z</time>
      </trkpt>
      <trkpt lat="46.99158" lon="8.85599">
        <ele>1470</ele>
        <time>2021-08-04T07:35:18.805Z</time>
      </trkpt>
      <trkpt lat="46.99158" lon="8.85598">
        <ele>1470</ele>
        <time>2021-08-04T07:35:19.804Z</time>
      </trkpt>
      <trkpt lat="46.99156" lon="8.85597">
        <ele>1470</ele>
        <time>2021-08-04T07:35:20.805Z</time>
      </trkpt>
      <trkpt lat="46.99156" lon="8.85596">
        <ele>1469</ele>
        <time>2021-08-04T07:35:21.804Z</time>
      </trkpt>
      <trkpt lat="46.99155" lon="8.85594">
        <ele>1469</ele>
        <time>2021-08-04T07:35:22.804Z</time>
      </trkpt>
      <trkpt lat="46.99154" lon="8.85593">
        <ele>1469</ele>
        <time>2021-08-04T07:35:23.804Z</time>
      </trkpt>
      <trkpt lat="46.99154" lon="8.85592">
        <ele>1470</ele>
        <time>2021-08-04T07:35:24.804Z</time>
      </trkpt>
      <trkpt lat="46.99154" lon="8.8559">
        <ele>1470</ele>
        <time>2021-08-04T07:35:25.804Z</time>
      </trkpt>
      <trkpt lat="46.99153" lon="8.85589">
        <ele>1470</ele>
        <time>2021-08-04T07:35:26.804Z</time>
      </trkpt>
      <trkpt lat="46.99152" lon="8.85587">
        <ele>1470</ele>
        <time>2021-08-04T07:35:27.805Z</time>
      </trkpt>
      <trkpt lat="46.99152" lon="8.85586">
        <ele>1470</ele>
        <time>2021-08-04T07:35:28.805Z</time>
      </trkpt>
      <trkpt lat="46.99152" lon="8.85585">
        <ele>1471</ele>
        <time>2021-08-04T07:35:29.805Z</time>
      </trkpt>
      <trkpt lat="46.99151" lon="8.85584">
        <ele>1471</ele>
        <time>2021-08-04T07:35:30.805Z</time>
      </trkpt>
      <trkpt lat="46.99151" lon="8.85582">
        <ele>1472</ele>
        <time>2021-08-04T07:35:31.805Z</time>
      </trkpt>
      <trkpt lat="46.9915" lon="8.85581">
        <ele>1472</ele>
        <time>2021-08-04T07:35:32.804Z</time>
      </trkpt>
      <trkpt lat="46.9915" lon="8.85579">
        <ele>1472</ele>
        <time>2021-08-04T07:35:33.805Z</time>
      </trkpt>
      <trkpt lat="46.99149" lon="8.85578">
        <ele>1472</ele>
        <time>2021-08-04T07:35:34.804Z</time>
      </trkpt>
      <trkpt lat="46.99149" lon="8.85576">
        <ele>1472</ele>
        <time>2021-08-04T07:35:35.804Z</time>
      </trkpt>
      <trkpt lat="46.99148" lon="8.85574">
        <ele>1472</ele>
        <time>2021-08-04T07:35:36.805Z</time>
      </trkpt>
      <trkpt lat="46.99148" lon="8.85572">
        <ele>1472</ele>
        <time>2021-08-04T07:35:37.804Z</time>
      </trkpt>
      <trkpt lat="46.99147" lon="8.85571">
        <ele>1472</ele>
        <time>2021-08-04T07:35:38.804Z</time>
      </trkpt>
      <trkpt lat="46.99147" lon="8.8557">
        <ele>1471</ele>
        <time>2021-08-04T07:35:39.805Z</time>
      </trkpt>
      <trkpt lat="46.99146" lon="8.85568">
        <ele>1472</ele>
        <time>2021-08-04T07:35:40.804Z</time>
      </trkpt>
      <trkpt lat="46.99146" lon="8.85566">
        <ele>1472</ele>
        <time>2021-08-04T07:35:41.805Z</time>
      </trkpt>
      <trkpt lat="46.99145" lon="8.85564">
        <ele>1473</ele>
        <time>2021-08-04T07:35:42.805Z</time>
      </trkpt>
      <trkpt lat="46.99145" lon="8.85562">
        <ele>1473</ele>
        <time>2021-08-04T07:35:43.804Z</time>
      </trkpt>
      <trkpt lat="46.99144" lon="8.8556">
        <ele>1474</ele>
        <time>2021-08-04T07:35:44.804Z</time>
      </trkpt>
      <trkpt lat="46.99144" lon="8.85557">
        <ele>1474</ele>
        <time>2021-08-04T07:35:45.805Z</time>
      </trkpt>
      <trkpt lat="46.99144" lon="8.85555">
        <ele>1474</ele>
        <time>2021-08-04T07:35:46.805Z</time>
      </trkpt>
      <trkpt lat="46.99144" lon="8.85552">
        <ele>1475</ele>
        <time>2021-08-04T07:35:47.805Z</time>
      </trkpt>
      <trkpt lat="46.99143" lon="8.85551">
        <ele>1475</ele>
        <time>2021-08-04T07:35:48.805Z</time>
      </trkpt>
      <trkpt lat="46.99142" lon="8.85549">
        <ele>1475</ele>
        <time>2021-08-04T07:35:49.804Z</time>
      </trkpt>
      <trkpt lat="46.99142" lon="8.85547">
        <ele>1475</ele>
        <time>2021-08-04T07:35:50.805Z</time>
      </trkpt>
      <trkpt lat="46.99141" lon="8.85546">
        <ele>1475</ele>
        <time>2021-08-04T07:35:51.804Z</time>
      </trkpt>
      <trkpt lat="46.99139" lon="8.85544">
        <ele>1475</ele>
        <time>2021-08-04T07:35:52.805Z</time>
      </trkpt>
      <trkpt lat="46.99138" lon="8.85543">
        <ele>1475</ele>
        <time>2021-08-04T07:35:53.805Z</time>
      </trkpt>
      <trkpt lat="46.99138" lon="8.85541">
        <ele>1474</ele>
        <time>2021-08-04T07:35:54.804Z</time>
      </trkpt>
      <trkpt lat="46.99137" lon="8.8554">
        <ele>1474</ele>
        <time>2021-08-04T07:35:55.804Z</time>
      </trkpt>
      <trkpt lat="46.99137" lon="8.85538">
        <ele>1474</ele>
        <time>2021-08-04T07:35:56.805Z</time>
      </trkpt>
      <trkpt lat="46.99136" lon="8.85537">
        <ele>1474</ele>
        <time>2021-08-04T07:35:57.805Z</time>
      </trkpt>
      <trkpt lat="46.99135" lon="8.85535">
        <ele>1474</ele>
        <time>2021-08-04T07:35:58.805Z</time>
      </trkpt>
      <trkpt lat="46.99134" lon="8.85533">
        <ele>1473</ele>
        <time>2021-08-04T07:35:59.805Z</time>
      </trkpt>
      <trkpt lat="46.99133" lon="8.85532">
        <ele>1473</ele>
        <time>2021-08-04T07:36:00.805Z</time>
      </trkpt>
      <trkpt lat="46.99133" lon="8.8553">
        <ele>1473</ele>
        <time>2021-08-04T07:36:01.805Z</time>
      </trkpt>
      <trkpt lat="46.99133" lon="8.85529">
        <ele>1473</ele>
        <time>2021-08-04T07:36:02.805Z</time>
      </trkpt>
      <trkpt lat="46.99132" lon="8.85527">
        <ele>1473</ele>
        <time>2021-08-04T07:36:03.805Z</time>
      </trkpt>
      <trkpt lat="46.99132" lon="8.85526">
        <ele>1473</ele>
        <time>2021-08-04T07:36:04.804Z</time>
      </trkpt>
      <trkpt lat="46.99131" lon="8.85524">
        <ele>1473</ele>
        <time>2021-08-04T07:36:05.805Z</time>
      </trkpt>
      <trkpt lat="46.9913" lon="8.85522">
        <ele>1473</ele>
        <time>2021-08-04T07:36:06.805Z</time>
      </trkpt>
      <trkpt lat="46.9913" lon="8.85521">
        <ele>1473</ele>
        <time>2021-08-04T07:36:07.805Z</time>
      </trkpt>
      <trkpt lat="46.9913" lon="8.8552">
        <ele>1473</ele>
        <time>2021-08-04T07:36:08.805Z</time>
      </trkpt>
      <trkpt lat="46.9913" lon="8.8552">
        <ele>1473</ele>
        <time>2021-08-04T07:36:09.805Z</time>
      </trkpt>
      <trkpt lat="46.9913" lon="8.85519">
        <ele>1473</ele>
        <time>2021-08-04T07:36:10.804Z</time>
      </trkpt>
      <trkpt lat="46.99129" lon="8.85519">
        <ele>1474</ele>
        <time>2021-08-04T07:36:11.805Z</time>
      </trkpt>
      <trkpt lat="46.99129" lon="8.85519">
        <ele>1474</ele>
        <time>2021-08-04T07:36:12.804Z</time>
      </trkpt>
      <trkpt lat="46.99128" lon="8.85518">
        <ele>1473</ele>
        <time>2021-08-04T07:36:13.804Z</time>
      </trkpt>
      <trkpt lat="46.99128" lon="8.85517">
        <ele>1473</ele>
        <time>2021-08-04T07:36:14.805Z</time>
      </trkpt>
      <trkpt lat="46.99128" lon="8.85516">
        <ele>1472</ele>
        <time>2021-08-04T07:36:15.804Z</time>
      </trkpt>
      <trkpt lat="46.99127" lon="8.85514">
        <ele>1471</ele>
        <time>2021-08-04T07:36:16.805Z</time>
      </trkpt>
      <trkpt lat="46.99126" lon="8.85512">
        <ele>1471</ele>
        <time>2021-08-04T07:36:17.805Z</time>
      </trkpt>
      <trkpt lat="46.99125" lon="8.8551">
        <ele>1471</ele>
        <time>2021-08-04T07:36:18.804Z</time>
      </trkpt>
      <trkpt lat="46.99124" lon="8.85509">
        <ele>1471</ele>
        <time>2021-08-04T07:36:19.805Z</time>
      </trkpt>
      <trkpt lat="46.99123" lon="8.85508">
        <ele>1470</ele>
        <time>2021-08-04T07:36:20.804Z</time>
      </trkpt>
      <trkpt lat="46.99122" lon="8.85507">
        <ele>1470</ele>
        <time>2021-08-04T07:36:21.805Z</time>
      </trkpt>
      <trkpt lat="46.99121" lon="8.85506">
        <ele>1470</ele>
        <time>2021-08-04T07:36:22.804Z</time>
      </trkpt>
      <trkpt lat="46.9912" lon="8.85504">
        <ele>1469</ele>
        <time>2021-08-04T07:36:23.805Z</time>
      </trkpt>
      <trkpt lat="46.9912" lon="8.85503">
        <ele>1469</ele>
        <time>2021-08-04T07:36:24.805Z</time>
      </trkpt>
      <trkpt lat="46.99119" lon="8.85501">
        <ele>1469</ele>
        <time>2021-08-04T07:36:25.805Z</time>
      </trkpt>
      <trkpt lat="46.99118" lon="8.85501">
        <ele>1469</ele>
        <time>2021-08-04T07:36:26.805Z</time>
      </trkpt>
      <trkpt lat="46.99118" lon="8.855">
        <ele>1469</ele>
        <time>2021-08-04T07:36:27.804Z</time>
      </trkpt>
      <trkpt lat="46.99117" lon="8.85499">
        <ele>1468</ele>
        <time>2021-08-04T07:36:28.804Z</time>
      </trkpt>
      <trkpt lat="46.99116" lon="8.85497">
        <ele>1468</ele>
        <time>2021-08-04T07:36:29.805Z</time>
      </trkpt>
      <trkpt lat="46.99115" lon="8.85496">
        <ele>1468</ele>
        <time>2021-08-04T07:36:30.804Z</time>
      </trkpt>
      <trkpt lat="46.99115" lon="8.85495">
        <ele>1468</ele>
        <time>2021-08-04T07:36:31.805Z</time>
      </trkpt>
      <trkpt lat="46.99114" lon="8.85494">
        <ele>1468</ele>
        <time>2021-08-04T07:36:32.805Z</time>
      </trkpt>
      <trkpt lat="46.99113" lon="8.85492">
        <ele>1468</ele>
        <time>2021-08-04T07:36:33.805Z</time>
      </trkpt>
      <trkpt lat="46.99112" lon="8.85491">
        <ele>1468</ele>
        <time>2021-08-04T07:36:34.804Z</time>
      </trkpt>
      <trkpt lat="46.99112" lon="8.8549">
        <ele>1467</ele>
        <time>2021-08-04T07:36:35.805Z</time>
      </trkpt>
      <trkpt lat="46.99112" lon="8.85489">
        <ele>1467</ele>
        <time>2021-08-04T07:36:36.805Z</time>
      </trkpt>
      <trkpt lat="46.99112" lon="8.85488">
        <ele>1467</ele>
        <time>2021-08-04T07:36:37.805Z</time>
      </trkpt>
      <trkpt lat="46.99111" lon="8.85486">
        <ele>1467</ele>
        <time>2021-08-04T07:36:38.805Z</time>
      </trkpt>
      <trkpt lat="46.99111" lon="8.85484">
        <ele>1468</ele>
        <time>2021-08-04T07:36:39.804Z</time>
      </trkpt>
      <trkpt lat="46.99111" lon="8.85482">
        <ele>1468</ele>
        <time>2021-08-04T07:36:40.805Z</time>
      </trkpt>
      <trkpt lat="46.9911" lon="8.85481">
        <ele>1468</ele>
        <time>2021-08-04T07:36:41.804Z</time>
      </trkpt>
      <trkpt lat="46.9911" lon="8.85479">
        <ele>1468</ele>
        <time>2021-08-04T07:36:42.804Z</time>
      </trkpt>
      <trkpt lat="46.99109" lon="8.85477">
        <ele>1468</ele>
        <time>2021-08-04T07:36:43.805Z</time>
      </trkpt>
      <trkpt lat="46.99109" lon="8.85475">
        <ele>1468</ele>
        <time>2021-08-04T07:36:44.805Z</time>
      </trkpt>
      <trkpt lat="46.99108" lon="8.85474">
        <ele>1468</ele>
        <time>2021-08-04T07:36:45.805Z</time>
      </trkpt>
      <trkpt lat="46.99108" lon="8.85472">
        <ele>1468</ele>
        <time>2021-08-04T07:36:46.804Z</time>
      </trkpt>
      <trkpt lat="46.99108" lon="8.85471">
        <ele>1468</ele>
        <time>2021-08-04T07:36:47.804Z</time>
      </trkpt>
      <trkpt lat="46.99107" lon="8.85469">
        <ele>1468</ele>
        <time>2021-08-04T07:36:48.805Z</time>
      </trkpt>
      <trkpt lat="46.99106" lon="8.85468">
        <ele>1467</ele>
        <time>2021-08-04T07:36:49.805Z</time>
      </trkpt>
      <trkpt lat="46.99106" lon="8.85466">
        <ele>1467</ele>
        <time>2021-08-04T07:36:50.804Z</time>
      </trkpt>
      <trkpt lat="46.99106" lon="8.85465">
        <ele>1467</ele>
        <time>2021-08-04T07:36:51.805Z</time>
      </trkpt>
      <trkpt lat="46.99105" lon="8.85464">
        <ele>1467</ele>
        <time>2021-08-04T07:36:52.805Z</time>
      </trkpt>
      <trkpt lat="46.99105" lon="8.85462">
        <ele>1466</ele>
        <time>2021-08-04T07:36:53.804Z</time>
      </trkpt>
      <trkpt lat="46.99104" lon="8.85461">
        <ele>1466</ele>
        <time>2021-08-04T07:36:54.804Z</time>
      </trkpt>
      <trkpt lat="46.99103" lon="8.85459">
        <ele>1466</ele>
        <time>2021-08-04T07:36:55.805Z</time>
      </trkpt>
      <trkpt lat="46.99103" lon="8.85458">
        <ele>1466</ele>
        <time>2021-08-04T07:36:56.805Z</time>
      </trkpt>
      <trkpt lat="46.99102" lon="8.85456">
        <ele>1466</ele>
        <time>2021-08-04T07:36:57.805Z</time>
      </trkpt>
      <trkpt lat="46.99101" lon="8.85455">
        <ele>1466</ele>
        <time>2021-08-04T07:36:58.805Z</time>
      </trkpt>
      <trkpt lat="46.991" lon="8.85453">
        <ele>1466</ele>
        <time>2021-08-04T07:36:59.804Z</time>
      </trkpt>
      <trkpt lat="46.99099" lon="8.85452">
        <ele>1466</ele>
        <time>2021-08-04T07:37:00.804Z</time>
      </trkpt>
      <trkpt lat="46.99099" lon="8.8545">
        <ele>1465</ele>
        <time>2021-08-04T07:37:01.805Z</time>
      </trkpt>
      <trkpt lat="46.99098" lon="8.85449">
        <ele>1465</ele>
        <time>2021-08-04T07:37:02.805Z</time>
      </trkpt>
      <trkpt lat="46.99098" lon="8.85447">
        <ele>1466</ele>
        <time>2021-08-04T07:37:03.804Z</time>
      </trkpt>
      <trkpt lat="46.99099" lon="8.85444">
        <ele>1466</ele>
        <time>2021-08-04T07:37:04.805Z</time>
      </trkpt>
      <trkpt lat="46.99099" lon="8.85441">
        <ele>1466</ele>
        <time>2021-08-04T07:37:05.805Z</time>
      </trkpt>
      <trkpt lat="46.99099" lon="8.8544">
        <ele>1466</ele>
        <time>2021-08-04T07:37:06.804Z</time>
      </trkpt>
      <trkpt lat="46.99098" lon="8.85438">
        <ele>1466</ele>
        <time>2021-08-04T07:37:07.804Z</time>
      </trkpt>
      <trkpt lat="46.99098" lon="8.85437">
        <ele>1465</ele>
        <time>2021-08-04T07:37:08.805Z</time>
      </trkpt>
      <trkpt lat="46.99099" lon="8.85436">
        <ele>1465</ele>
        <time>2021-08-04T07:37:09.804Z</time>
      </trkpt>
      <trkpt lat="46.991" lon="8.85435">
        <ele>1464</ele>
        <time>2021-08-04T07:37:10.805Z</time>
      </trkpt>
      <trkpt lat="46.991" lon="8.85433">
        <ele>1463</ele>
        <time>2021-08-04T07:37:11.805Z</time>
      </trkpt>
      <trkpt lat="46.99101" lon="8.85432">
        <ele>1463</ele>
        <time>2021-08-04T07:37:12.805Z</time>
      </trkpt>
      <trkpt lat="46.99101" lon="8.85431">
        <ele>1462</ele>
        <time>2021-08-04T07:37:13.804Z</time>
      </trkpt>
      <trkpt lat="46.99101" lon="8.85429">
        <ele>1462</ele>
        <time>2021-08-04T07:37:14.804Z</time>
      </trkpt>
      <trkpt lat="46.99102" lon="8.85428">
        <ele>1461</ele>
        <time>2021-08-04T07:37:15.805Z</time>
      </trkpt>
      <trkpt lat="46.99102" lon="8.85427">
        <ele>1460</ele>
        <time>2021-08-04T07:37:16.804Z</time>
      </trkpt>
      <trkpt lat="46.99102" lon="8.85426">
        <ele>1459</ele>
        <time>2021-08-04T07:37:17.804Z</time>
      </trkpt>
      <trkpt lat="46.99103" lon="8.85424">
        <ele>1459</ele>
        <time>2021-08-04T07:37:18.804Z</time>
      </trkpt>
      <trkpt lat="46.99103" lon="8.85423">
        <ele>1459</ele>
        <time>2021-08-04T07:37:19.805Z</time>
      </trkpt>
      <trkpt lat="46.99103" lon="8.85422">
        <ele>1459</ele>
        <time>2021-08-04T07:37:20.805Z</time>
      </trkpt>
      <trkpt lat="46.99102" lon="8.8542">
        <ele>1458</ele>
        <time>2021-08-04T07:37:21.805Z</time>
      </trkpt>
      <trkpt lat="46.99101" lon="8.85418">
        <ele>1458</ele>
        <time>2021-08-04T07:37:22.805Z</time>
      </trkpt>
      <trkpt lat="46.99101" lon="8.85417">
        <ele>1458</ele>
        <time>2021-08-04T07:37:23.804Z</time>
      </trkpt>
      <trkpt lat="46.99101" lon="8.85415">
        <ele>1458</ele>
        <time>2021-08-04T07:37:24.805Z</time>
      </trkpt>
      <trkpt lat="46.991" lon="8.85413">
        <ele>1458</ele>
        <time>2021-08-04T07:37:25.805Z</time>
      </trkpt>
      <trkpt lat="46.991" lon="8.85411">
        <ele>1458</ele>
        <time>2021-08-04T07:37:26.805Z</time>
      </trkpt>
      <trkpt lat="46.99098" lon="8.8541">
        <ele>1458</ele>
        <time>2021-08-04T07:37:27.805Z</time>
      </trkpt>
      <trkpt lat="46.99098" lon="8.85408">
        <ele>1458</ele>
        <time>2021-08-04T07:37:28.805Z</time>
      </trkpt>
      <trkpt lat="46.99097" lon="8.85407">
        <ele>1458</ele>
        <time>2021-08-04T07:37:29.805Z</time>
      </trkpt>
      <trkpt lat="46.99096" lon="8.85405">
        <ele>1458</ele>
        <time>2021-08-04T07:37:30.805Z</time>
      </trkpt>
      <trkpt lat="46.99095" lon="8.85403">
        <ele>1458</ele>
        <time>2021-08-04T07:37:31.805Z</time>
      </trkpt>
      <trkpt lat="46.99094" lon="8.85402">
        <ele>1458</ele>
        <time>2021-08-04T07:37:32.804Z</time>
      </trkpt>
      <trkpt lat="46.99093" lon="8.854">
        <ele>1458</ele>
        <time>2021-08-04T07:37:33.805Z</time>
      </trkpt>
      <trkpt lat="46.99092" lon="8.85398">
        <ele>1458</ele>
        <time>2021-08-04T07:37:34.804Z</time>
      </trkpt>
      <trkpt lat="46.99091" lon="8.85397">
        <ele>1458</ele>
        <time>2021-08-04T07:37:35.805Z</time>
      </trkpt>
      <trkpt lat="46.9909" lon="8.85396">
        <ele>1458</ele>
        <time>2021-08-04T07:37:36.804Z</time>
      </trkpt>
      <trkpt lat="46.99089" lon="8.85394">
        <ele>1458</ele>
        <time>2021-08-04T07:37:37.805Z</time>
      </trkpt>
      <trkpt lat="46.99088" lon="8.85393">
        <ele>1459</ele>
        <time>2021-08-04T07:37:38.804Z</time>
      </trkpt>
      <trkpt lat="46.99087" lon="8.85391">
        <ele>1459</ele>
        <time>2021-08-04T07:37:39.805Z</time>
      </trkpt>
      <trkpt lat="46.99086" lon="8.8539">
        <ele>1459</ele>
        <time>2021-08-04T07:37:40.805Z</time>
      </trkpt>
      <trkpt lat="46.99085" lon="8.8539">
        <ele>1460</ele>
        <time>2021-08-04T07:37:41.805Z</time>
      </trkpt>
      <trkpt lat="46.99084" lon="8.85389">
        <ele>1460</ele>
        <time>2021-08-04T07:37:42.805Z</time>
      </trkpt>
      <trkpt lat="46.99082" lon="8.85388">
        <ele>1461</ele>
        <time>2021-08-04T07:37:43.805Z</time>
      </trkpt>
      <trkpt lat="46.99081" lon="8.85387">
        <ele>1461</ele>
        <time>2021-08-04T07:37:44.804Z</time>
      </trkpt>
      <trkpt lat="46.9908" lon="8.85386">
        <ele>1461</ele>
        <time>2021-08-04T07:37:45.805Z</time>
      </trkpt>
      <trkpt lat="46.99079" lon="8.85386">
        <ele>1462</ele>
        <time>2021-08-04T07:37:46.805Z</time>
      </trkpt>
      <trkpt lat="46.99078" lon="8.85385">
        <ele>1462</ele>
        <time>2021-08-04T07:37:47.805Z</time>
      </trkpt>
      <trkpt lat="46.99078" lon="8.85384">
        <ele>1463</ele>
        <time>2021-08-04T07:37:48.805Z</time>
      </trkpt>
      <trkpt lat="46.99078" lon="8.85382">
        <ele>1463</ele>
        <time>2021-08-04T07:37:49.805Z</time>
      </trkpt>
      <trkpt lat="46.99077" lon="8.85381">
        <ele>1463</ele>
        <time>2021-08-04T07:37:50.805Z</time>
      </trkpt>
      <trkpt lat="46.99077" lon="8.8538">
        <ele>1464</ele>
        <time>2021-08-04T07:37:51.805Z</time>
      </trkpt>
      <trkpt lat="46.99077" lon="8.85379">
        <ele>1464</ele>
        <time>2021-08-04T07:37:52.805Z</time>
      </trkpt>
      <trkpt lat="46.99077" lon="8.85378">
        <ele>1464</ele>
        <time>2021-08-04T07:37:53.805Z</time>
      </trkpt>
      <trkpt lat="46.99077" lon="8.85377">
        <ele>1464</ele>
        <time>2021-08-04T07:37:54.805Z</time>
      </trkpt>
      <trkpt lat="46.99077" lon="8.85376">
        <ele>1463</ele>
        <time>2021-08-04T07:37:55.804Z</time>
      </trkpt>
      <trkpt lat="46.99077" lon="8.85376">
        <ele>1463</ele>
        <time>2021-08-04T07:37:56.805Z</time>
      </trkpt>
      <trkpt lat="46.99077" lon="8.85375">
        <ele>1463</ele>
        <time>2021-08-04T07:37:57.805Z</time>
      </trkpt>
      <trkpt lat="46.99076" lon="8.85374">
        <ele>1463</ele>
        <time>2021-08-04T07:37:58.805Z</time>
      </trkpt>
      <trkpt lat="46.99076" lon="8.85374">
        <ele>1463</ele>
        <time>2021-08-04T07:37:59.804Z</time>
      </trkpt>
      <trkpt lat="46.99076" lon="8.85371">
        <ele>1462</ele>
        <time>2021-08-04T07:38:00.806Z</time>
      </trkpt>
      <trkpt lat="46.99076" lon="8.8537">
        <ele>1462</ele>
        <time>2021-08-04T07:38:01.806Z</time>
      </trkpt>
      <trkpt lat="46.99076" lon="8.85369">
        <ele>1461</ele>
        <time>2021-08-04T07:38:02.805Z</time>
      </trkpt>
      <trkpt lat="46.99076" lon="8.85367">
        <ele>1461</ele>
        <time>2021-08-04T07:38:03.805Z</time>
      </trkpt>
      <trkpt lat="46.99076" lon="8.85366">
        <ele>1460</ele>
        <time>2021-08-04T07:38:04.806Z</time>
      </trkpt>
      <trkpt lat="46.99076" lon="8.85365">
        <ele>1459</ele>
        <time>2021-08-04T07:38:05.805Z</time>
      </trkpt>
      <trkpt lat="46.99076" lon="8.85363">
        <ele>1457</ele>
        <time>2021-08-04T07:38:06.806Z</time>
      </trkpt>
      <trkpt lat="46.99076" lon="8.85362">
        <ele>1456</ele>
        <time>2021-08-04T07:38:07.805Z</time>
      </trkpt>
      <trkpt lat="46.99077" lon="8.85362">
        <ele>1455</ele>
        <time>2021-08-04T07:38:08.806Z</time>
      </trkpt>
      <trkpt lat="46.99077" lon="8.85361">
        <ele>1454</ele>
        <time>2021-08-04T07:38:09.805Z</time>
      </trkpt>
      <trkpt lat="46.99077" lon="8.8536">
        <ele>1454</ele>
        <time>2021-08-04T07:38:10.805Z</time>
      </trkpt>
      <trkpt lat="46.99078" lon="8.85359">
        <ele>1454</ele>
        <time>2021-08-04T07:38:11.806Z</time>
      </trkpt>
      <trkpt lat="46.99078" lon="8.85358">
        <ele>1454</ele>
        <time>2021-08-04T07:38:12.806Z</time>
      </trkpt>
      <trkpt lat="46.99078" lon="8.85358">
        <ele>1453</ele>
        <time>2021-08-04T07:38:13.806Z</time>
      </trkpt>
      <trkpt lat="46.99079" lon="8.85357">
        <ele>1453</ele>
        <time>2021-08-04T07:38:14.805Z</time>
      </trkpt>
      <trkpt lat="46.99079" lon="8.85356">
        <ele>1453</ele>
        <time>2021-08-04T07:38:15.806Z</time>
      </trkpt>
      <trkpt lat="46.99079" lon="8.85356">
        <ele>1452</ele>
        <time>2021-08-04T07:38:16.805Z</time>
      </trkpt>
      <trkpt lat="46.99079" lon="8.85355">
        <ele>1451</ele>
        <time>2021-08-04T07:38:17.805Z</time>
      </trkpt>
      <trkpt lat="46.99079" lon="8.85354">
        <ele>1451</ele>
        <time>2021-08-04T07:38:18.805Z</time>
      </trkpt>
      <trkpt lat="46.99079" lon="8.85352">
        <ele>1451</ele>
        <time>2021-08-04T07:38:19.806Z</time>
      </trkpt>
      <trkpt lat="46.99079" lon="8.85351">
        <ele>1450</ele>
        <time>2021-08-04T07:38:20.806Z</time>
      </trkpt>
      <trkpt lat="46.99079" lon="8.8535">
        <ele>1450</ele>
        <time>2021-08-04T07:38:21.806Z</time>
      </trkpt>
      <trkpt lat="46.99079" lon="8.85348">
        <ele>1450</ele>
        <time>2021-08-04T07:38:22.805Z</time>
      </trkpt>
      <trkpt lat="46.99079" lon="8.85347">
        <ele>1450</ele>
        <time>2021-08-04T07:38:23.806Z</time>
      </trkpt>
      <trkpt lat="46.9908" lon="8.85345">
        <ele>1449</ele>
        <time>2021-08-04T07:38:24.805Z</time>
      </trkpt>
      <trkpt lat="46.99079" lon="8.85344">
        <ele>1449</ele>
        <time>2021-08-04T07:38:25.805Z</time>
      </trkpt>
      <trkpt lat="46.99079" lon="8.85342">
        <ele>1449</ele>
        <time>2021-08-04T07:38:26.805Z</time>
      </trkpt>
      <trkpt lat="46.99079" lon="8.85341">
        <ele>1449</ele>
        <time>2021-08-04T07:38:27.806Z</time>
      </trkpt>
      <trkpt lat="46.99078" lon="8.85339">
        <ele>1448</ele>
        <time>2021-08-04T07:38:28.806Z</time>
      </trkpt>
      <trkpt lat="46.99078" lon="8.85338">
        <ele>1448</ele>
        <time>2021-08-04T07:38:29.805Z</time>
      </trkpt>
      <trkpt lat="46.99078" lon="8.85336">
        <ele>1448</ele>
        <time>2021-08-04T07:38:30.806Z</time>
      </trkpt>
      <trkpt lat="46.99078" lon="8.85334">
        <ele>1449</ele>
        <time>2021-08-04T07:38:31.806Z</time>
      </trkpt>
      <trkpt lat="46.99078" lon="8.85332">
        <ele>1449</ele>
        <time>2021-08-04T07:38:32.806Z</time>
      </trkpt>
      <trkpt lat="46.99078" lon="8.8533">
        <ele>1449</ele>
        <time>2021-08-04T07:38:33.806Z</time>
      </trkpt>
      <trkpt lat="46.99078" lon="8.85329">
        <ele>1449</ele>
        <time>2021-08-04T07:38:34.806Z</time>
      </trkpt>
      <trkpt lat="46.99078" lon="8.85327">
        <ele>1449</ele>
        <time>2021-08-04T07:38:35.805Z</time>
      </trkpt>
      <trkpt lat="46.99077" lon="8.85325">
        <ele>1449</ele>
        <time>2021-08-04T07:38:36.805Z</time>
      </trkpt>
      <trkpt lat="46.99078" lon="8.85324">
        <ele>1449</ele>
        <time>2021-08-04T07:38:37.806Z</time>
      </trkpt>
      <trkpt lat="46.99078" lon="8.85322">
        <ele>1449</ele>
        <time>2021-08-04T07:38:38.805Z</time>
      </trkpt>
      <trkpt lat="46.99078" lon="8.85319">
        <ele>1449</ele>
        <time>2021-08-04T07:38:39.805Z</time>
      </trkpt>
      <trkpt lat="46.99078" lon="8.85317">
        <ele>1449</ele>
        <time>2021-08-04T07:38:40.806Z</time>
      </trkpt>
      <trkpt lat="46.99078" lon="8.85316">
        <ele>1449</ele>
        <time>2021-08-04T07:38:41.806Z</time>
      </trkpt>
      <trkpt lat="46.99078" lon="8.85316">
        <ele>1449</ele>
        <time>2021-08-04T07:38:42.806Z</time>
      </trkpt>
      <trkpt lat="46.99077" lon="8.85315">
        <ele>1449</ele>
        <time>2021-08-04T07:38:43.805Z</time>
      </trkpt>
      <trkpt lat="46.99077" lon="8.85315">
        <ele>1448</ele>
        <time>2021-08-04T07:38:44.805Z</time>
      </trkpt>
      <trkpt lat="46.99076" lon="8.85314">
        <ele>1448</ele>
        <time>2021-08-04T07:38:45.805Z</time>
      </trkpt>
      <trkpt lat="46.99076" lon="8.85313">
        <ele>1448</ele>
        <time>2021-08-04T07:38:46.805Z</time>
      </trkpt>
      <trkpt lat="46.99075" lon="8.85312">
        <ele>1447</ele>
        <time>2021-08-04T07:38:47.806Z</time>
      </trkpt>
      <trkpt lat="46.99074" lon="8.8531">
        <ele>1447</ele>
        <time>2021-08-04T07:38:48.806Z</time>
      </trkpt>
      <trkpt lat="46.99073" lon="8.85308">
        <ele>1447</ele>
        <time>2021-08-04T07:38:49.805Z</time>
      </trkpt>
      <trkpt lat="46.99071" lon="8.85307">
        <ele>1447</ele>
        <time>2021-08-04T07:38:50.805Z</time>
      </trkpt>
      <trkpt lat="46.99071" lon="8.85305">
        <ele>1447</ele>
        <time>2021-08-04T07:38:51.806Z</time>
      </trkpt>
      <trkpt lat="46.9907" lon="8.85305">
        <ele>1447</ele>
        <time>2021-08-04T07:38:52.805Z</time>
      </trkpt>
      <trkpt lat="46.99069" lon="8.85303">
        <ele>1447</ele>
        <time>2021-08-04T07:38:53.805Z</time>
      </trkpt>
      <trkpt lat="46.99068" lon="8.85302">
        <ele>1447</ele>
        <time>2021-08-04T07:38:54.805Z</time>
      </trkpt>
      <trkpt lat="46.99068" lon="8.85301">
        <ele>1447</ele>
        <time>2021-08-04T07:38:55.805Z</time>
      </trkpt>
      <trkpt lat="46.99067" lon="8.853">
        <ele>1447</ele>
        <time>2021-08-04T07:38:56.806Z</time>
      </trkpt>
      <trkpt lat="46.99066" lon="8.85299">
        <ele>1447</ele>
        <time>2021-08-04T07:38:57.805Z</time>
      </trkpt>
      <trkpt lat="46.99065" lon="8.85298">
        <ele>1446</ele>
        <time>2021-08-04T07:38:58.806Z</time>
      </trkpt>
      <trkpt lat="46.99065" lon="8.85297">
        <ele>1446</ele>
        <time>2021-08-04T07:38:59.805Z</time>
      </trkpt>
      <trkpt lat="46.99064" lon="8.85296">
        <ele>1446</ele>
        <time>2021-08-04T07:39:00.805Z</time>
      </trkpt>
      <trkpt lat="46.99062" lon="8.85294">
        <ele>1446</ele>
        <time>2021-08-04T07:39:01.806Z</time>
      </trkpt>
      <trkpt lat="46.99062" lon="8.85293">
        <ele>1445</ele>
        <time>2021-08-04T07:39:02.805Z</time>
      </trkpt>
      <trkpt lat="46.99061" lon="8.85291">
        <ele>1445</ele>
        <time>2021-08-04T07:39:03.806Z</time>
      </trkpt>
      <trkpt lat="46.99061" lon="8.8529">
        <ele>1444</ele>
        <time>2021-08-04T07:39:04.805Z</time>
      </trkpt>
      <trkpt lat="46.99061" lon="8.85288">
        <ele>1444</ele>
        <time>2021-08-04T07:39:05.805Z</time>
      </trkpt>
      <trkpt lat="46.9906" lon="8.85286">
        <ele>1443</ele>
        <time>2021-08-04T07:39:06.806Z</time>
      </trkpt>
      <trkpt lat="46.99059" lon="8.85285">
        <ele>1442</ele>
        <time>2021-08-04T07:39:07.806Z</time>
      </trkpt>
      <trkpt lat="46.99059" lon="8.85283">
        <ele>1442</ele>
        <time>2021-08-04T07:39:08.805Z</time>
      </trkpt>
      <trkpt lat="46.99058" lon="8.85282">
        <ele>1441</ele>
        <time>2021-08-04T07:39:09.805Z</time>
      </trkpt>
      <trkpt lat="46.99058" lon="8.8528">
        <ele>1441</ele>
        <time>2021-08-04T07:39:10.805Z</time>
      </trkpt>
      <trkpt lat="46.99057" lon="8.85278">
        <ele>1441</ele>
        <time>2021-08-04T07:39:11.806Z</time>
      </trkpt>
      <trkpt lat="46.99057" lon="8.85277">
        <ele>1440</ele>
        <time>2021-08-04T07:39:12.805Z</time>
      </trkpt>
      <trkpt lat="46.99056" lon="8.85275">
        <ele>1440</ele>
        <time>2021-08-04T07:39:13.805Z</time>
      </trkpt>
      <trkpt lat="46.99056" lon="8.85274">
        <ele>1439</ele>
        <time>2021-08-04T07:39:14.805Z</time>
      </trkpt>
      <trkpt lat="46.99055" lon="8.85272">
        <ele>1439</ele>
        <time>2021-08-04T07:39:15.805Z</time>
      </trkpt>
      <trkpt lat="46.99055" lon="8.8527">
        <ele>1439</ele>
        <time>2021-08-04T07:39:16.805Z</time>
      </trkpt>
      <trkpt lat="46.99055" lon="8.85269">
        <ele>1439</ele>
        <time>2021-08-04T07:39:17.806Z</time>
      </trkpt>
      <trkpt lat="46.99054" lon="8.85267">
        <ele>1439</ele>
        <time>2021-08-04T07:39:18.805Z</time>
      </trkpt>
      <trkpt lat="46.99054" lon="8.85265">
        <ele>1439</ele>
        <time>2021-08-04T07:39:19.806Z</time>
      </trkpt>
      <trkpt lat="46.99053" lon="8.85264">
        <ele>1439</ele>
        <time>2021-08-04T07:39:20.806Z</time>
      </trkpt>
      <trkpt lat="46.99053" lon="8.85262">
        <ele>1440</ele>
        <time>2021-08-04T07:39:21.806Z</time>
      </trkpt>
      <trkpt lat="46.99052" lon="8.8526">
        <ele>1440</ele>
        <time>2021-08-04T07:39:22.806Z</time>
      </trkpt>
      <trkpt lat="46.99052" lon="8.85259">
        <ele>1440</ele>
        <time>2021-08-04T07:39:23.805Z</time>
      </trkpt>
      <trkpt lat="46.99051" lon="8.85258">
        <ele>1441</ele>
        <time>2021-08-04T07:39:24.805Z</time>
      </trkpt>
      <trkpt lat="46.99051" lon="8.85257">
        <ele>1441</ele>
        <time>2021-08-04T07:39:25.805Z</time>
      </trkpt>
      <trkpt lat="46.9905" lon="8.85256">
        <ele>1441</ele>
        <time>2021-08-04T07:39:26.805Z</time>
      </trkpt>
      <trkpt lat="46.9905" lon="8.85255">
        <ele>1442</ele>
        <time>2021-08-04T07:39:27.806Z</time>
      </trkpt>
      <trkpt lat="46.9905" lon="8.85254">
        <ele>1442</ele>
        <time>2021-08-04T07:39:28.806Z</time>
      </trkpt>
      <trkpt lat="46.99049" lon="8.85252">
        <ele>1441</ele>
        <time>2021-08-04T07:39:29.806Z</time>
      </trkpt>
      <trkpt lat="46.9905" lon="8.85251">
        <ele>1441</ele>
        <time>2021-08-04T07:39:30.805Z</time>
      </trkpt>
      <trkpt lat="46.9905" lon="8.85249">
        <ele>1441</ele>
        <time>2021-08-04T07:39:31.805Z</time>
      </trkpt>
      <trkpt lat="46.9905" lon="8.85249">
        <ele>1442</ele>
        <time>2021-08-04T07:39:32.806Z</time>
      </trkpt>
      <trkpt lat="46.9905" lon="8.85248">
        <ele>1442</ele>
        <time>2021-08-04T07:39:33.805Z</time>
      </trkpt>
      <trkpt lat="46.9905" lon="8.85248">
        <ele>1442</ele>
        <time>2021-08-04T07:39:34.806Z</time>
      </trkpt>
      <trkpt lat="46.9905" lon="8.85247">
        <ele>1442</ele>
        <time>2021-08-04T07:39:35.806Z</time>
      </trkpt>
      <trkpt lat="46.9905" lon="8.85245">
        <ele>1442</ele>
        <time>2021-08-04T07:39:36.806Z</time>
      </trkpt>
      <trkpt lat="46.9905" lon="8.85243">
        <ele>1442</ele>
        <time>2021-08-04T07:39:37.806Z</time>
      </trkpt>
      <trkpt lat="46.9905" lon="8.85242">
        <ele>1442</ele>
        <time>2021-08-04T07:39:38.806Z</time>
      </trkpt>
      <trkpt lat="46.99049" lon="8.8524">
        <ele>1442</ele>
        <time>2021-08-04T07:39:39.805Z</time>
      </trkpt>
      <trkpt lat="46.99049" lon="8.85239">
        <ele>1441</ele>
        <time>2021-08-04T07:39:40.806Z</time>
      </trkpt>
      <trkpt lat="46.99049" lon="8.85237">
        <ele>1441</ele>
        <time>2021-08-04T07:39:41.805Z</time>
      </trkpt>
      <trkpt lat="46.99049" lon="8.85235">
        <ele>1441</ele>
        <time>2021-08-04T07:39:42.806Z</time>
      </trkpt>
      <trkpt lat="46.99048" lon="8.85234">
        <ele>1441</ele>
        <time>2021-08-04T07:39:43.805Z</time>
      </trkpt>
      <trkpt lat="46.99048" lon="8.85232">
        <ele>1440</ele>
        <time>2021-08-04T07:39:44.805Z</time>
      </trkpt>
      <trkpt lat="46.99048" lon="8.85231">
        <ele>1440</ele>
        <time>2021-08-04T07:39:45.806Z</time>
      </trkpt>
      <trkpt lat="46.99048" lon="8.85229">
        <ele>1440</ele>
        <time>2021-08-04T07:39:46.806Z</time>
      </trkpt>
      <trkpt lat="46.99048" lon="8.85227">
        <ele>1440</ele>
        <time>2021-08-04T07:39:47.806Z</time>
      </trkpt>
      <trkpt lat="46.99049" lon="8.85225">
        <ele>1440</ele>
        <time>2021-08-04T07:39:48.806Z</time>
      </trkpt>
      <trkpt lat="46.9905" lon="8.85224">
        <ele>1439</ele>
        <time>2021-08-04T07:39:49.805Z</time>
      </trkpt>
      <trkpt lat="46.9905" lon="8.85224">
        <ele>1438</ele>
        <time>2021-08-04T07:39:50.806Z</time>
      </trkpt>
      <trkpt lat="46.99051" lon="8.85222">
        <ele>1437</ele>
        <time>2021-08-04T07:39:51.806Z</time>
      </trkpt>
      <trkpt lat="46.99052" lon="8.85221">
        <ele>1436</ele>
        <time>2021-08-04T07:39:52.806Z</time>
      </trkpt>
      <trkpt lat="46.99053" lon="8.8522">
        <ele>1435</ele>
        <time>2021-08-04T07:39:53.806Z</time>
      </trkpt>
      <trkpt lat="46.99053" lon="8.85219">
        <ele>1434</ele>
        <time>2021-08-04T07:39:54.806Z</time>
      </trkpt>
      <trkpt lat="46.99054" lon="8.85218">
        <ele>1433</ele>
        <time>2021-08-04T07:39:55.806Z</time>
      </trkpt>
      <trkpt lat="46.99055" lon="8.85217">
        <ele>1433</ele>
        <time>2021-08-04T07:39:56.806Z</time>
      </trkpt>
      <trkpt lat="46.99056" lon="8.85216">
        <ele>1433</ele>
        <time>2021-08-04T07:39:57.806Z</time>
      </trkpt>
      <trkpt lat="46.99057" lon="8.85215">
        <ele>1432</ele>
        <time>2021-08-04T07:39:58.806Z</time>
      </trkpt>
      <trkpt lat="46.99058" lon="8.85214">
        <ele>1432</ele>
        <time>2021-08-04T07:39:59.805Z</time>
      </trkpt>
      <trkpt lat="46.99059" lon="8.85214">
        <ele>1432</ele>
        <time>2021-08-04T07:40:00.805Z</time>
      </trkpt>
      <trkpt lat="46.9906" lon="8.85214">
        <ele>1431</ele>
        <time>2021-08-04T07:40:01.805Z</time>
      </trkpt>
      <trkpt lat="46.99062" lon="8.85213">
        <ele>1431</ele>
        <time>2021-08-04T07:40:02.805Z</time>
      </trkpt>
      <trkpt lat="46.99062" lon="8.85212">
        <ele>1430</ele>
        <time>2021-08-04T07:40:03.805Z</time>
      </trkpt>
      <trkpt lat="46.99063" lon="8.85212">
        <ele>1429</ele>
        <time>2021-08-04T07:40:04.805Z</time>
      </trkpt>
      <trkpt lat="46.99064" lon="8.8521">
        <ele>1429</ele>
        <time>2021-08-04T07:40:05.805Z</time>
      </trkpt>
      <trkpt lat="46.99065" lon="8.8521">
        <ele>1428</ele>
        <time>2021-08-04T07:40:06.805Z</time>
      </trkpt>
      <trkpt lat="46.99065" lon="8.85209">
        <ele>1427</ele>
        <time>2021-08-04T07:40:07.805Z</time>
      </trkpt>
      <trkpt lat="46.99066" lon="8.85208">
        <ele>1426</ele>
        <time>2021-08-04T07:40:08.805Z</time>
      </trkpt>
      <trkpt lat="46.99067" lon="8.85207">
        <ele>1425</ele>
        <time>2021-08-04T07:40:09.806Z</time>
      </trkpt>
      <trkpt lat="46.99067" lon="8.85206">
        <ele>1426</ele>
        <time>2021-08-04T07:40:10.806Z</time>
      </trkpt>
      <trkpt lat="46.99068" lon="8.85205">
        <ele>1426</ele>
        <time>2021-08-04T07:40:11.806Z</time>
      </trkpt>
      <trkpt lat="46.99068" lon="8.85204">
        <ele>1426</ele>
        <time>2021-08-04T07:40:12.806Z</time>
      </trkpt>
      <trkpt lat="46.99069" lon="8.85202">
        <ele>1426</ele>
        <time>2021-08-04T07:40:13.806Z</time>
      </trkpt>
      <trkpt lat="46.99069" lon="8.852">
        <ele>1426</ele>
        <time>2021-08-04T07:40:14.805Z</time>
      </trkpt>
      <trkpt lat="46.9907" lon="8.85199">
        <ele>1425</ele>
        <time>2021-08-04T07:40:15.806Z</time>
      </trkpt>
      <trkpt lat="46.99071" lon="8.85197">
        <ele>1425</ele>
        <time>2021-08-04T07:40:16.806Z</time>
      </trkpt>
      <trkpt lat="46.99072" lon="8.85196">
        <ele>1425</ele>
        <time>2021-08-04T07:40:17.806Z</time>
      </trkpt>
      <trkpt lat="46.99072" lon="8.85194">
        <ele>1425</ele>
        <time>2021-08-04T07:40:18.805Z</time>
      </trkpt>
      <trkpt lat="46.99073" lon="8.85193">
        <ele>1425</ele>
        <time>2021-08-04T07:40:19.806Z</time>
      </trkpt>
      <trkpt lat="46.99073" lon="8.85191">
        <ele>1425</ele>
        <time>2021-08-04T07:40:20.806Z</time>
      </trkpt>
      <trkpt lat="46.99074" lon="8.85189">
        <ele>1425</ele>
        <time>2021-08-04T07:40:21.806Z</time>
      </trkpt>
      <trkpt lat="46.99074" lon="8.85188">
        <ele>1425</ele>
        <time>2021-08-04T07:40:22.806Z</time>
      </trkpt>
      <trkpt lat="46.99075" lon="8.85186">
        <ele>1424</ele>
        <time>2021-08-04T07:40:23.806Z</time>
      </trkpt>
      <trkpt lat="46.99075" lon="8.85185">
        <ele>1424</ele>
        <time>2021-08-04T07:40:24.806Z</time>
      </trkpt>
      <trkpt lat="46.99075" lon="8.85184">
        <ele>1424</ele>
        <time>2021-08-04T07:40:25.806Z</time>
      </trkpt>
      <trkpt lat="46.99076" lon="8.85183">
        <ele>1423</ele>
        <time>2021-08-04T07:40:26.806Z</time>
      </trkpt>
      <trkpt lat="46.99076" lon="8.85181">
        <ele>1423</ele>
        <time>2021-08-04T07:40:27.806Z</time>
      </trkpt>
      <trkpt lat="46.99076" lon="8.85179">
        <ele>1422</ele>
        <time>2021-08-04T07:40:28.806Z</time>
      </trkpt>
      <trkpt lat="46.99076" lon="8.85177">
        <ele>1422</ele>
        <time>2021-08-04T07:40:29.806Z</time>
      </trkpt>
      <trkpt lat="46.99076" lon="8.85175">
        <ele>1421</ele>
        <time>2021-08-04T07:40:30.806Z</time>
      </trkpt>
      <trkpt lat="46.99076" lon="8.85174">
        <ele>1420</ele>
        <time>2021-08-04T07:40:31.805Z</time>
      </trkpt>
      <trkpt lat="46.99076" lon="8.85172">
        <ele>1420</ele>
        <time>2021-08-04T07:40:32.806Z</time>
      </trkpt>
      <trkpt lat="46.99077" lon="8.85171">
        <ele>1420</ele>
        <time>2021-08-04T07:40:33.806Z</time>
      </trkpt>
      <trkpt lat="46.99078" lon="8.85169">
        <ele>1419</ele>
        <time>2021-08-04T07:40:34.805Z</time>
      </trkpt>
      <trkpt lat="46.99079" lon="8.85168">
        <ele>1419</ele>
        <time>2021-08-04T07:40:35.805Z</time>
      </trkpt>
      <trkpt lat="46.99078" lon="8.85166">
        <ele>1420</ele>
        <time>2021-08-04T07:40:36.805Z</time>
      </trkpt>
      <trkpt lat="46.99078" lon="8.85164">
        <ele>1420</ele>
        <time>2021-08-04T07:40:37.805Z</time>
      </trkpt>
      <trkpt lat="46.99078" lon="8.85163">
        <ele>1420</ele>
        <time>2021-08-04T07:40:38.805Z</time>
      </trkpt>
      <trkpt lat="46.99077" lon="8.85161">
        <ele>1420</ele>
        <time>2021-08-04T07:40:39.805Z</time>
      </trkpt>
      <trkpt lat="46.99077" lon="8.8516">
        <ele>1420</ele>
        <time>2021-08-04T07:40:40.805Z</time>
      </trkpt>
      <trkpt lat="46.99078" lon="8.85158">
        <ele>1420</ele>
        <time>2021-08-04T07:40:41.806Z</time>
      </trkpt>
      <trkpt lat="46.99078" lon="8.85157">
        <ele>1420</ele>
        <time>2021-08-04T07:40:42.806Z</time>
      </trkpt>
      <trkpt lat="46.99078" lon="8.85156">
        <ele>1421</ele>
        <time>2021-08-04T07:40:43.806Z</time>
      </trkpt>
      <trkpt lat="46.99078" lon="8.85154">
        <ele>1421</ele>
        <time>2021-08-04T07:40:44.805Z</time>
      </trkpt>
      <trkpt lat="46.99077" lon="8.85152">
        <ele>1421</ele>
        <time>2021-08-04T07:40:45.806Z</time>
      </trkpt>
      <trkpt lat="46.99077" lon="8.85151">
        <ele>1420</ele>
        <time>2021-08-04T07:40:46.805Z</time>
      </trkpt>
      <trkpt lat="46.99077" lon="8.85149">
        <ele>1420</ele>
        <time>2021-08-04T07:40:47.806Z</time>
      </trkpt>
      <trkpt lat="46.99078" lon="8.85147">
        <ele>1420</ele>
        <time>2021-08-04T07:40:48.806Z</time>
      </trkpt>
      <trkpt lat="46.99077" lon="8.85146">
        <ele>1420</ele>
        <time>2021-08-04T07:40:49.805Z</time>
      </trkpt>
      <trkpt lat="46.99077" lon="8.85145">
        <ele>1419</ele>
        <time>2021-08-04T07:40:50.806Z</time>
      </trkpt>
      <trkpt lat="46.99077" lon="8.85143">
        <ele>1419</ele>
        <time>2021-08-04T07:40:51.806Z</time>
      </trkpt>
      <trkpt lat="46.99076" lon="8.85142">
        <ele>1419</ele>
        <time>2021-08-04T07:40:52.805Z</time>
      </trkpt>
      <trkpt lat="46.99075" lon="8.85141">
        <ele>1418</ele>
        <time>2021-08-04T07:40:53.806Z</time>
      </trkpt>
      <trkpt lat="46.99075" lon="8.8514">
        <ele>1418</ele>
        <time>2021-08-04T07:40:54.806Z</time>
      </trkpt>
      <trkpt lat="46.99073" lon="8.85138">
        <ele>1418</ele>
        <time>2021-08-04T07:40:55.805Z</time>
      </trkpt>
      <trkpt lat="46.99072" lon="8.85137">
        <ele>1418</ele>
        <time>2021-08-04T07:40:56.806Z</time>
      </trkpt>
      <trkpt lat="46.99071" lon="8.85136">
        <ele>1418</ele>
        <time>2021-08-04T07:40:57.805Z</time>
      </trkpt>
      <trkpt lat="46.9907" lon="8.85135">
        <ele>1418</ele>
        <time>2021-08-04T07:40:58.806Z</time>
      </trkpt>
      <trkpt lat="46.9907" lon="8.85133">
        <ele>1418</ele>
        <time>2021-08-04T07:40:59.805Z</time>
      </trkpt>
      <trkpt lat="46.9907" lon="8.85133">
        <ele>1418</ele>
        <time>2021-08-04T07:41:00.806Z</time>
      </trkpt>
      <trkpt lat="46.99069" lon="8.85132">
        <ele>1418</ele>
        <time>2021-08-04T07:41:01.806Z</time>
      </trkpt>
      <trkpt lat="46.99068" lon="8.85131">
        <ele>1418</ele>
        <time>2021-08-04T07:41:02.806Z</time>
      </trkpt>
      <trkpt lat="46.99067" lon="8.8513">
        <ele>1418</ele>
        <time>2021-08-04T07:41:03.806Z</time>
      </trkpt>
      <trkpt lat="46.99066" lon="8.85128">
        <ele>1418</ele>
        <time>2021-08-04T07:41:04.806Z</time>
      </trkpt>
      <trkpt lat="46.99064" lon="8.85127">
        <ele>1418</ele>
        <time>2021-08-04T07:41:05.806Z</time>
      </trkpt>
      <trkpt lat="46.99062" lon="8.85125">
        <ele>1417</ele>
        <time>2021-08-04T07:41:06.806Z</time>
      </trkpt>
      <trkpt lat="46.99061" lon="8.85124">
        <ele>1417</ele>
        <time>2021-08-04T07:41:07.805Z</time>
      </trkpt>
      <trkpt lat="46.99059" lon="8.85123">
        <ele>1417</ele>
        <time>2021-08-04T07:41:08.806Z</time>
      </trkpt>
      <trkpt lat="46.99058" lon="8.85122">
        <ele>1418</ele>
        <time>2021-08-04T07:41:09.805Z</time>
      </trkpt>
      <trkpt lat="46.99057" lon="8.85121">
        <ele>1418</ele>
        <time>2021-08-04T07:41:10.806Z</time>
      </trkpt>
      <trkpt lat="46.99055" lon="8.8512">
        <ele>1418</ele>
        <time>2021-08-04T07:41:11.806Z</time>
      </trkpt>
      <trkpt lat="46.99053" lon="8.8512">
        <ele>1418</ele>
        <time>2021-08-04T07:41:12.806Z</time>
      </trkpt>
      <trkpt lat="46.99052" lon="8.8512">
        <ele>1418</ele>
        <time>2021-08-04T07:41:13.806Z</time>
      </trkpt>
      <trkpt lat="46.9905" lon="8.8512">
        <ele>1417</ele>
        <time>2021-08-04T07:41:14.806Z</time>
      </trkpt>
      <trkpt lat="46.99049" lon="8.8512">
        <ele>1417</ele>
        <time>2021-08-04T07:41:15.805Z</time>
      </trkpt>
      <trkpt lat="46.99048" lon="8.8512">
        <ele>1416</ele>
        <time>2021-08-04T07:41:16.806Z</time>
      </trkpt>
      <trkpt lat="46.99047" lon="8.85119">
        <ele>1416</ele>
        <time>2021-08-04T07:41:17.806Z</time>
      </trkpt>
      <trkpt lat="46.99046" lon="8.85118">
        <ele>1415</ele>
        <time>2021-08-04T07:41:18.806Z</time>
      </trkpt>
      <trkpt lat="46.99045" lon="8.85117">
        <ele>1415</ele>
        <time>2021-08-04T07:41:19.806Z</time>
      </trkpt>
      <trkpt lat="46.99044" lon="8.85115">
        <ele>1414</ele>
        <time>2021-08-04T07:41:20.805Z</time>
      </trkpt>
      <trkpt lat="46.99043" lon="8.85115">
        <ele>1413</ele>
        <time>2021-08-04T07:41:21.805Z</time>
      </trkpt>
      <trkpt lat="46.99043" lon="8.85114">
        <ele>1413</ele>
        <time>2021-08-04T07:41:22.805Z</time>
      </trkpt>
      <trkpt lat="46.99042" lon="8.85113">
        <ele>1413</ele>
        <time>2021-08-04T07:41:23.805Z</time>
      </trkpt>
      <trkpt lat="46.99041" lon="8.85113">
        <ele>1412</ele>
        <time>2021-08-04T07:41:24.806Z</time>
      </trkpt>
      <trkpt lat="46.9904" lon="8.85113">
        <ele>1412</ele>
        <time>2021-08-04T07:41:25.805Z</time>
      </trkpt>
      <trkpt lat="46.99039" lon="8.85112">
        <ele>1412</ele>
        <time>2021-08-04T07:41:26.806Z</time>
      </trkpt>
      <trkpt lat="46.99038" lon="8.85112">
        <ele>1412</ele>
        <time>2021-08-04T07:41:27.806Z</time>
      </trkpt>
      <trkpt lat="46.99036" lon="8.85111">
        <ele>1412</ele>
        <time>2021-08-04T07:41:28.805Z</time>
      </trkpt>
      <trkpt lat="46.99036" lon="8.85112">
        <ele>1412</ele>
        <time>2021-08-04T07:41:29.806Z</time>
      </trkpt>
      <trkpt lat="46.99036" lon="8.85112">
        <ele>1412</ele>
        <time>2021-08-04T07:41:30.806Z</time>
      </trkpt>
      <trkpt lat="46.99034" lon="8.85111">
        <ele>1412</ele>
        <time>2021-08-04T07:41:31.806Z</time>
      </trkpt>
      <trkpt lat="46.99033" lon="8.8511">
        <ele>1412</ele>
        <time>2021-08-04T07:41:32.806Z</time>
      </trkpt>
      <trkpt lat="46.99032" lon="8.8511">
        <ele>1412</ele>
        <time>2021-08-04T07:41:33.805Z</time>
      </trkpt>
      <trkpt lat="46.99031" lon="8.85109">
        <ele>1412</ele>
        <time>2021-08-04T07:41:34.805Z</time>
      </trkpt>
      <trkpt lat="46.9903" lon="8.85109">
        <ele>1411</ele>
        <time>2021-08-04T07:41:35.805Z</time>
      </trkpt>
      <trkpt lat="46.99029" lon="8.85108">
        <ele>1411</ele>
        <time>2021-08-04T07:41:36.805Z</time>
      </trkpt>
      <trkpt lat="46.99028" lon="8.85107">
        <ele>1410</ele>
        <time>2021-08-04T07:41:37.806Z</time>
      </trkpt>
      <trkpt lat="46.99027" lon="8.85107">
        <ele>1410</ele>
        <time>2021-08-04T07:41:38.806Z</time>
      </trkpt>
      <trkpt lat="46.99026" lon="8.85106">
        <ele>1410</ele>
        <time>2021-08-04T07:41:39.806Z</time>
      </trkpt>
      <trkpt lat="46.99025" lon="8.85106">
        <ele>1409</ele>
        <time>2021-08-04T07:41:40.806Z</time>
      </trkpt>
      <trkpt lat="46.99024" lon="8.85105">
        <ele>1408</ele>
        <time>2021-08-04T07:41:41.806Z</time>
      </trkpt>
      <trkpt lat="46.99023" lon="8.85104">
        <ele>1408</ele>
        <time>2021-08-04T07:41:42.806Z</time>
      </trkpt>
      <trkpt lat="46.99023" lon="8.85104">
        <ele>1408</ele>
        <time>2021-08-04T07:41:43.806Z</time>
      </trkpt>
      <trkpt lat="46.99023" lon="8.85105">
        <ele>1407</ele>
        <time>2021-08-04T07:41:44.805Z</time>
      </trkpt>
      <trkpt lat="46.99022" lon="8.85105">
        <ele>1407</ele>
        <time>2021-08-04T07:41:45.806Z</time>
      </trkpt>
      <trkpt lat="46.9902" lon="8.85105">
        <ele>1406</ele>
        <time>2021-08-04T07:41:46.806Z</time>
      </trkpt>
      <trkpt lat="46.99019" lon="8.85106">
        <ele>1405</ele>
        <time>2021-08-04T07:41:47.806Z</time>
      </trkpt>
      <trkpt lat="46.99018" lon="8.85105">
        <ele>1404</ele>
        <time>2021-08-04T07:41:48.806Z</time>
      </trkpt>
      <trkpt lat="46.99017" lon="8.85105">
        <ele>1404</ele>
        <time>2021-08-04T07:41:49.805Z</time>
      </trkpt>
      <trkpt lat="46.99016" lon="8.85104">
        <ele>1403</ele>
        <time>2021-08-04T07:41:50.806Z</time>
      </trkpt>
      <trkpt lat="46.99015" lon="8.85104">
        <ele>1403</ele>
        <time>2021-08-04T07:41:51.805Z</time>
      </trkpt>
      <trkpt lat="46.99014" lon="8.85103">
        <ele>1402</ele>
        <time>2021-08-04T07:41:52.806Z</time>
      </trkpt>
      <trkpt lat="46.99014" lon="8.85102">
        <ele>1402</ele>
        <time>2021-08-04T07:41:53.806Z</time>
      </trkpt>
      <trkpt lat="46.99013" lon="8.85101">
        <ele>1402</ele>
        <time>2021-08-04T07:41:54.806Z</time>
      </trkpt>
      <trkpt lat="46.99012" lon="8.851">
        <ele>1402</ele>
        <time>2021-08-04T07:41:55.805Z</time>
      </trkpt>
      <trkpt lat="46.99012" lon="8.851">
        <ele>1402</ele>
        <time>2021-08-04T07:41:56.806Z</time>
      </trkpt>
      <trkpt lat="46.99011" lon="8.85099">
        <ele>1402</ele>
        <time>2021-08-04T07:41:57.805Z</time>
      </trkpt>
      <trkpt lat="46.99009" lon="8.85102">
        <ele>1402</ele>
        <time>2021-08-04T07:41:58.806Z</time>
      </trkpt>
      <trkpt lat="46.99008" lon="8.85102">
        <ele>1402</ele>
        <time>2021-08-04T07:41:59.806Z</time>
      </trkpt>
      <trkpt lat="46.99007" lon="8.85101">
        <ele>1403</ele>
        <time>2021-08-04T07:42:00.806Z</time>
      </trkpt>
      <trkpt lat="46.99007" lon="8.851">
        <ele>1403</ele>
        <time>2021-08-04T07:42:01.806Z</time>
      </trkpt>
      <trkpt lat="46.99006" lon="8.851">
        <ele>1402</ele>
        <time>2021-08-04T07:42:02.805Z</time>
      </trkpt>
      <trkpt lat="46.99006" lon="8.851">
        <ele>1402</ele>
        <time>2021-08-04T07:42:03.806Z</time>
      </trkpt>
      <trkpt lat="46.99005" lon="8.85099">
        <ele>1402</ele>
        <time>2021-08-04T07:42:04.805Z</time>
      </trkpt>
      <trkpt lat="46.99003" lon="8.85098">
        <ele>1402</ele>
        <time>2021-08-04T07:42:05.806Z</time>
      </trkpt>
      <trkpt lat="46.99002" lon="8.85098">
        <ele>1402</ele>
        <time>2021-08-04T07:42:06.805Z</time>
      </trkpt>
      <trkpt lat="46.99001" lon="8.85097">
        <ele>1402</ele>
        <time>2021-08-04T07:42:07.806Z</time>
      </trkpt>
      <trkpt lat="46.99" lon="8.85097">
        <ele>1402</ele>
        <time>2021-08-04T07:42:08.806Z</time>
      </trkpt>
      <trkpt lat="46.98999" lon="8.85097">
        <ele>1402</ele>
        <time>2021-08-04T07:42:09.805Z</time>
      </trkpt>
      <trkpt lat="46.98999" lon="8.85097">
        <ele>1402</ele>
        <time>2021-08-04T07:42:10.805Z</time>
      </trkpt>
      <trkpt lat="46.98998" lon="8.85096">
        <ele>1402</ele>
        <time>2021-08-04T07:42:11.805Z</time>
      </trkpt>
      <trkpt lat="46.98997" lon="8.85095">
        <ele>1402</ele>
        <time>2021-08-04T07:42:12.806Z</time>
      </trkpt>
      <trkpt lat="46.98996" lon="8.85095">
        <ele>1401</ele>
        <time>2021-08-04T07:42:13.805Z</time>
      </trkpt>
      <trkpt lat="46.98996" lon="8.85095">
        <ele>1401</ele>
        <time>2021-08-04T07:42:14.805Z</time>
      </trkpt>
      <trkpt lat="46.98997" lon="8.85096">
        <ele>1400</ele>
        <time>2021-08-04T07:42:15.805Z</time>
      </trkpt>
      <trkpt lat="46.98996" lon="8.85096">
        <ele>1399</ele>
        <time>2021-08-04T07:42:16.805Z</time>
      </trkpt>
      <trkpt lat="46.98996" lon="8.85096">
        <ele>1398</ele>
        <time>2021-08-04T07:42:17.805Z</time>
      </trkpt>
      <trkpt lat="46.98996" lon="8.85096">
        <ele>1397</ele>
        <time>2021-08-04T07:42:18.805Z</time>
      </trkpt>
      <trkpt lat="46.98995" lon="8.85095">
        <ele>1397</ele>
        <time>2021-08-04T07:42:19.805Z</time>
      </trkpt>
      <trkpt lat="46.98992" lon="8.85092">
        <ele>1395</ele>
        <time>2021-08-04T07:42:20.807Z</time>
      </trkpt>
      <trkpt lat="46.98992" lon="8.85092">
        <ele>1395</ele>
        <time>2021-08-04T07:42:21.807Z</time>
      </trkpt>
      <trkpt lat="46.98992" lon="8.85092">
        <ele>1395</ele>
        <time>2021-08-04T07:42:22.806Z</time>
      </trkpt>
      <trkpt lat="46.98992" lon="8.85092">
        <ele>1395</ele>
        <time>2021-08-04T07:42:23.807Z</time>
      </trkpt>
      <trkpt lat="46.98994" lon="8.85093">
        <ele>1395</ele>
        <time>2021-08-04T07:42:24.806Z</time>
      </trkpt>
      <trkpt lat="46.98994" lon="8.85092">
        <ele>1394</ele>
        <time>2021-08-04T07:42:25.807Z</time>
      </trkpt>
      <trkpt lat="46.98992" lon="8.85092">
        <ele>1394</ele>
        <time>2021-08-04T07:42:26.807Z</time>
      </trkpt>
      <trkpt lat="46.98991" lon="8.85092">
        <ele>1394</ele>
        <time>2021-08-04T07:42:27.807Z</time>
      </trkpt>
      <trkpt lat="46.9899" lon="8.85091">
        <ele>1393</ele>
        <time>2021-08-04T07:42:28.807Z</time>
      </trkpt>
      <trkpt lat="46.98989" lon="8.85091">
        <ele>1393</ele>
        <time>2021-08-04T07:42:29.807Z</time>
      </trkpt>
      <trkpt lat="46.98988" lon="8.85091">
        <ele>1392</ele>
        <time>2021-08-04T07:42:30.807Z</time>
      </trkpt>
      <trkpt lat="46.98987" lon="8.85091">
        <ele>1392</ele>
        <time>2021-08-04T07:42:31.807Z</time>
      </trkpt>
      <trkpt lat="46.98986" lon="8.85091">
        <ele>1392</ele>
        <time>2021-08-04T07:42:32.807Z</time>
      </trkpt>
      <trkpt lat="46.98985" lon="8.8509">
        <ele>1393</ele>
        <time>2021-08-04T07:42:33.807Z</time>
      </trkpt>
      <trkpt lat="46.98983" lon="8.8509">
        <ele>1393</ele>
        <time>2021-08-04T07:42:34.807Z</time>
      </trkpt>
      <trkpt lat="46.98981" lon="8.8509">
        <ele>1393</ele>
        <time>2021-08-04T07:42:35.806Z</time>
      </trkpt>
      <trkpt lat="46.98981" lon="8.85089">
        <ele>1394</ele>
        <time>2021-08-04T07:42:36.807Z</time>
      </trkpt>
      <trkpt lat="46.9898" lon="8.8509">
        <ele>1394</ele>
        <time>2021-08-04T07:42:37.807Z</time>
      </trkpt>
      <trkpt lat="46.9898" lon="8.8509">
        <ele>1395</ele>
        <time>2021-08-04T07:42:38.807Z</time>
      </trkpt>
      <trkpt lat="46.98981" lon="8.85092">
        <ele>1395</ele>
        <time>2021-08-04T07:42:39.807Z</time>
      </trkpt>
      <trkpt lat="46.9898" lon="8.85093">
        <ele>1395</ele>
        <time>2021-08-04T07:42:40.807Z</time>
      </trkpt>
      <trkpt lat="46.98979" lon="8.85094">
        <ele>1396</ele>
        <time>2021-08-04T07:42:41.807Z</time>
      </trkpt>
      <trkpt lat="46.98979" lon="8.85095">
        <ele>1396</ele>
        <time>2021-08-04T07:42:42.806Z</time>
      </trkpt>
      <trkpt lat="46.98978" lon="8.85096">
        <ele>1396</ele>
        <time>2021-08-04T07:42:43.807Z</time>
      </trkpt>
      <trkpt lat="46.98978" lon="8.85097">
        <ele>1397</ele>
        <time>2021-08-04T07:42:44.807Z</time>
      </trkpt>
      <trkpt lat="46.98977" lon="8.85097">
        <ele>1398</ele>
        <time>2021-08-04T07:42:45.807Z</time>
      </trkpt>
      <trkpt lat="46.98976" lon="8.85098">
        <ele>1398</ele>
        <time>2021-08-04T07:42:46.807Z</time>
      </trkpt>
      <trkpt lat="46.98975" lon="8.85099">
        <ele>1398</ele>
        <time>2021-08-04T07:42:47.806Z</time>
      </trkpt>
      <trkpt lat="46.98975" lon="8.851">
        <ele>1398</ele>
        <time>2021-08-04T07:42:48.806Z</time>
      </trkpt>
      <trkpt lat="46.98975" lon="8.851">
        <ele>1398</ele>
        <time>2021-08-04T07:42:49.807Z</time>
      </trkpt>
      <trkpt lat="46.98974" lon="8.851">
        <ele>1398</ele>
        <time>2021-08-04T07:42:50.806Z</time>
      </trkpt>
      <trkpt lat="46.98974" lon="8.85101">
        <ele>1397</ele>
        <time>2021-08-04T07:42:51.807Z</time>
      </trkpt>
      <trkpt lat="46.98974" lon="8.851">
        <ele>1396</ele>
        <time>2021-08-04T07:42:52.807Z</time>
      </trkpt>
      <trkpt lat="46.98973" lon="8.851">
        <ele>1395</ele>
        <time>2021-08-04T07:42:53.806Z</time>
      </trkpt>
      <trkpt lat="46.98973" lon="8.851">
        <ele>1395</ele>
        <time>2021-08-04T07:42:54.807Z</time>
      </trkpt>
      <trkpt lat="46.98972" lon="8.85099">
        <ele>1394</ele>
        <time>2021-08-04T07:42:55.807Z</time>
      </trkpt>
      <trkpt lat="46.98972" lon="8.85098">
        <ele>1394</ele>
        <time>2021-08-04T07:42:56.807Z</time>
      </trkpt>
      <trkpt lat="46.98972" lon="8.85098">
        <ele>1394</ele>
        <time>2021-08-04T07:42:57.807Z</time>
      </trkpt>
      <trkpt lat="46.98972" lon="8.85097">
        <ele>1395</ele>
        <time>2021-08-04T07:42:58.807Z</time>
      </trkpt>
      <trkpt lat="46.98973" lon="8.85096">
        <ele>1395</ele>
        <time>2021-08-04T07:42:59.807Z</time>
      </trkpt>
      <trkpt lat="46.98973" lon="8.85094">
        <ele>1396</ele>
        <time>2021-08-04T07:43:00.807Z</time>
      </trkpt>
      <trkpt lat="46.98974" lon="8.85093">
        <ele>1397</ele>
        <time>2021-08-04T07:43:01.806Z</time>
      </trkpt>
      <trkpt lat="46.98975" lon="8.85092">
        <ele>1397</ele>
        <time>2021-08-04T07:43:02.806Z</time>
      </trkpt>
      <trkpt lat="46.98977" lon="8.85091">
        <ele>1398</ele>
        <time>2021-08-04T07:43:03.807Z</time>
      </trkpt>
      <trkpt lat="46.98978" lon="8.8509">
        <ele>1398</ele>
        <time>2021-08-04T07:43:04.806Z</time>
      </trkpt>
      <trkpt lat="46.9898" lon="8.8509">
        <ele>1398</ele>
        <time>2021-08-04T07:43:05.807Z</time>
      </trkpt>
      <trkpt lat="46.98981" lon="8.85089">
        <ele>1398</ele>
        <time>2021-08-04T07:43:06.806Z</time>
      </trkpt>
      <trkpt lat="46.98982" lon="8.85088">
        <ele>1399</ele>
        <time>2021-08-04T07:43:07.807Z</time>
      </trkpt>
      <trkpt lat="46.98984" lon="8.85086">
        <ele>1399</ele>
        <time>2021-08-04T07:43:08.806Z</time>
      </trkpt>
      <trkpt lat="46.98985" lon="8.85085">
        <ele>1400</ele>
        <time>2021-08-04T07:43:09.806Z</time>
      </trkpt>
      <trkpt lat="46.98985" lon="8.85084">
        <ele>1400</ele>
        <time>2021-08-04T07:43:10.807Z</time>
      </trkpt>
      <trkpt lat="46.98985" lon="8.85083">
        <ele>1401</ele>
        <time>2021-08-04T07:43:11.807Z</time>
      </trkpt>
      <trkpt lat="46.98985" lon="8.85082">
        <ele>1400</ele>
        <time>2021-08-04T07:43:12.807Z</time>
      </trkpt>
      <trkpt lat="46.98985" lon="8.85081">
        <ele>1400</ele>
        <time>2021-08-04T07:43:13.806Z</time>
      </trkpt>
      <trkpt lat="46.98985" lon="8.8508">
        <ele>1400</ele>
        <time>2021-08-04T07:43:14.806Z</time>
      </trkpt>
      <trkpt lat="46.98985" lon="8.85079">
        <ele>1399</ele>
        <time>2021-08-04T07:43:15.806Z</time>
      </trkpt>
      <trkpt lat="46.98985" lon="8.85078">
        <ele>1399</ele>
        <time>2021-08-04T07:43:16.807Z</time>
      </trkpt>
      <trkpt lat="46.98986" lon="8.85077">
        <ele>1398</ele>
        <time>2021-08-04T07:43:17.807Z</time>
      </trkpt>
      <trkpt lat="46.98986" lon="8.85076">
        <ele>1398</ele>
        <time>2021-08-04T07:43:18.807Z</time>
      </trkpt>
      <trkpt lat="46.98986" lon="8.85076">
        <ele>1399</ele>
        <time>2021-08-04T07:43:19.807Z</time>
      </trkpt>
      <trkpt lat="46.98986" lon="8.85074">
        <ele>1399</ele>
        <time>2021-08-04T07:43:20.806Z</time>
      </trkpt>
      <trkpt lat="46.98986" lon="8.85073">
        <ele>1400</ele>
        <time>2021-08-04T07:43:21.806Z</time>
      </trkpt>
      <trkpt lat="46.98986" lon="8.85072">
        <ele>1400</ele>
        <time>2021-08-04T07:43:22.807Z</time>
      </trkpt>
      <trkpt lat="46.98986" lon="8.8507">
        <ele>1401</ele>
        <time>2021-08-04T07:43:23.807Z</time>
      </trkpt>
      <trkpt lat="46.98987" lon="8.85069">
        <ele>1401</ele>
        <time>2021-08-04T07:43:24.806Z</time>
      </trkpt>
      <trkpt lat="46.98987" lon="8.85068">
        <ele>1401</ele>
        <time>2021-08-04T07:43:25.806Z</time>
      </trkpt>
      <trkpt lat="46.98988" lon="8.85066">
        <ele>1401</ele>
        <time>2021-08-04T07:43:26.806Z</time>
      </trkpt>
      <trkpt lat="46.98988" lon="8.85065">
        <ele>1401</ele>
        <time>2021-08-04T07:43:27.806Z</time>
      </trkpt>
      <trkpt lat="46.98988" lon="8.85064">
        <ele>1401</ele>
        <time>2021-08-04T07:43:28.806Z</time>
      </trkpt>
      <trkpt lat="46.98989" lon="8.85063">
        <ele>1401</ele>
        <time>2021-08-04T07:43:29.806Z</time>
      </trkpt>
      <trkpt lat="46.9899" lon="8.85062">
        <ele>1401</ele>
        <time>2021-08-04T07:43:30.806Z</time>
      </trkpt>
      <trkpt lat="46.9899" lon="8.85061">
        <ele>1401</ele>
        <time>2021-08-04T07:43:31.806Z</time>
      </trkpt>
      <trkpt lat="46.98991" lon="8.8506">
        <ele>1401</ele>
        <time>2021-08-04T07:43:32.807Z</time>
      </trkpt>
      <trkpt lat="46.98992" lon="8.85059">
        <ele>1401</ele>
        <time>2021-08-04T07:43:33.806Z</time>
      </trkpt>
      <trkpt lat="46.98993" lon="8.85058">
        <ele>1401</ele>
        <time>2021-08-04T07:43:34.806Z</time>
      </trkpt>
      <trkpt lat="46.98994" lon="8.85058">
        <ele>1401</ele>
        <time>2021-08-04T07:43:35.807Z</time>
      </trkpt>
      <trkpt lat="46.98995" lon="8.85057">
        <ele>1401</ele>
        <time>2021-08-04T07:43:36.807Z</time>
      </trkpt>
      <trkpt lat="46.98996" lon="8.85056">
        <ele>1401</ele>
        <time>2021-08-04T07:43:37.806Z</time>
      </trkpt>
      <trkpt lat="46.98997" lon="8.85055">
        <ele>1400</ele>
        <time>2021-08-04T07:43:38.806Z</time>
      </trkpt>
      <trkpt lat="46.98998" lon="8.85054">
        <ele>1400</ele>
        <time>2021-08-04T07:43:39.806Z</time>
      </trkpt>
      <trkpt lat="46.98998" lon="8.85052">
        <ele>1399</ele>
        <time>2021-08-04T07:43:40.806Z</time>
      </trkpt>
      <trkpt lat="46.98998" lon="8.85051">
        <ele>1398</ele>
        <time>2021-08-04T07:43:41.806Z</time>
      </trkpt>
      <trkpt lat="46.98998" lon="8.8505">
        <ele>1397</ele>
        <time>2021-08-04T07:43:42.806Z</time>
      </trkpt>
      <trkpt lat="46.98998" lon="8.85049">
        <ele>1396</ele>
        <time>2021-08-04T07:43:43.806Z</time>
      </trkpt>
      <trkpt lat="46.98998" lon="8.85048">
        <ele>1396</ele>
        <time>2021-08-04T07:43:44.806Z</time>
      </trkpt>
      <trkpt lat="46.98997" lon="8.85047">
        <ele>1395</ele>
        <time>2021-08-04T07:43:45.806Z</time>
      </trkpt>
      <trkpt lat="46.98997" lon="8.85045">
        <ele>1394</ele>
        <time>2021-08-04T07:43:46.806Z</time>
      </trkpt>
      <trkpt lat="46.98996" lon="8.85044">
        <ele>1394</ele>
        <time>2021-08-04T07:43:47.806Z</time>
      </trkpt>
      <trkpt lat="46.98996" lon="8.85043">
        <ele>1394</ele>
        <time>2021-08-04T07:43:48.806Z</time>
      </trkpt>
      <trkpt lat="46.98995" lon="8.85042">
        <ele>1393</ele>
        <time>2021-08-04T07:43:49.806Z</time>
      </trkpt>
      <trkpt lat="46.98994" lon="8.85041">
        <ele>1393</ele>
        <time>2021-08-04T07:43:50.806Z</time>
      </trkpt>
      <trkpt lat="46.98993" lon="8.85041">
        <ele>1392</ele>
        <time>2021-08-04T07:43:51.806Z</time>
      </trkpt>
      <trkpt lat="46.98992" lon="8.8504">
        <ele>1392</ele>
        <time>2021-08-04T07:43:52.806Z</time>
      </trkpt>
      <trkpt lat="46.98991" lon="8.85039">
        <ele>1392</ele>
        <time>2021-08-04T07:43:53.807Z</time>
      </trkpt>
      <trkpt lat="46.98989" lon="8.85037">
        <ele>1392</ele>
        <time>2021-08-04T07:43:54.807Z</time>
      </trkpt>
      <trkpt lat="46.98988" lon="8.85037">
        <ele>1391</ele>
        <time>2021-08-04T07:43:55.807Z</time>
      </trkpt>
      <trkpt lat="46.98986" lon="8.85037">
        <ele>1391</ele>
        <time>2021-08-04T07:43:56.807Z</time>
      </trkpt>
      <trkpt lat="46.98985" lon="8.85037">
        <ele>1391</ele>
        <time>2021-08-04T07:43:57.807Z</time>
      </trkpt>
      <trkpt lat="46.98983" lon="8.85037">
        <ele>1391</ele>
        <time>2021-08-04T07:43:58.806Z</time>
      </trkpt>
      <trkpt lat="46.98982" lon="8.85036">
        <ele>1391</ele>
        <time>2021-08-04T07:43:59.807Z</time>
      </trkpt>
      <trkpt lat="46.9898" lon="8.85035">
        <ele>1391</ele>
        <time>2021-08-04T07:44:00.806Z</time>
      </trkpt>
      <trkpt lat="46.98979" lon="8.85035">
        <ele>1390</ele>
        <time>2021-08-04T07:44:01.807Z</time>
      </trkpt>
      <trkpt lat="46.98977" lon="8.85034">
        <ele>1390</ele>
        <time>2021-08-04T07:44:02.807Z</time>
      </trkpt>
      <trkpt lat="46.98976" lon="8.85034">
        <ele>1390</ele>
        <time>2021-08-04T07:44:03.806Z</time>
      </trkpt>
      <trkpt lat="46.98974" lon="8.85033">
        <ele>1389</ele>
        <time>2021-08-04T07:44:04.807Z</time>
      </trkpt>
      <trkpt lat="46.98973" lon="8.85033">
        <ele>1388</ele>
        <time>2021-08-04T07:44:05.807Z</time>
      </trkpt>
      <trkpt lat="46.98973" lon="8.85033">
        <ele>1388</ele>
        <time>2021-08-04T07:44:06.807Z</time>
      </trkpt>
      <trkpt lat="46.98972" lon="8.85033">
        <ele>1388</ele>
        <time>2021-08-04T07:44:07.806Z</time>
      </trkpt>
      <trkpt lat="46.98971" lon="8.85033">
        <ele>1387</ele>
        <time>2021-08-04T07:44:08.807Z</time>
      </trkpt>
      <trkpt lat="46.98971" lon="8.85034">
        <ele>1387</ele>
        <time>2021-08-04T07:44:09.806Z</time>
      </trkpt>
      <trkpt lat="46.9897" lon="8.85035">
        <ele>1386</ele>
        <time>2021-08-04T07:44:10.807Z</time>
      </trkpt>
      <trkpt lat="46.9897" lon="8.85036">
        <ele>1386</ele>
        <time>2021-08-04T07:44:11.806Z</time>
      </trkpt>
      <trkpt lat="46.98968" lon="8.85037">
        <ele>1386</ele>
        <time>2021-08-04T07:44:12.806Z</time>
      </trkpt>
      <trkpt lat="46.98967" lon="8.85036">
        <ele>1385</ele>
        <time>2021-08-04T07:44:13.806Z</time>
      </trkpt>
      <trkpt lat="46.98965" lon="8.85036">
        <ele>1385</ele>
        <time>2021-08-04T07:44:14.807Z</time>
      </trkpt>
      <trkpt lat="46.98963" lon="8.85036">
        <ele>1385</ele>
        <time>2021-08-04T07:44:15.807Z</time>
      </trkpt>
      <trkpt lat="46.98963" lon="8.85036">
        <ele>1384</ele>
        <time>2021-08-04T07:44:16.807Z</time>
      </trkpt>
      <trkpt lat="46.98962" lon="8.85035">
        <ele>1383</ele>
        <time>2021-08-04T07:44:17.806Z</time>
      </trkpt>
      <trkpt lat="46.98961" lon="8.85034">
        <ele>1383</ele>
        <time>2021-08-04T07:44:18.807Z</time>
      </trkpt>
      <trkpt lat="46.98961" lon="8.85034">
        <ele>1382</ele>
        <time>2021-08-04T07:44:19.807Z</time>
      </trkpt>
      <trkpt lat="46.9896" lon="8.85033">
        <ele>1382</ele>
        <time>2021-08-04T07:44:20.806Z</time>
      </trkpt>
      <trkpt lat="46.9896" lon="8.85032">
        <ele>1382</ele>
        <time>2021-08-04T07:44:21.807Z</time>
      </trkpt>
      <trkpt lat="46.9896" lon="8.85031">
        <ele>1381</ele>
        <time>2021-08-04T07:44:22.807Z</time>
      </trkpt>
      <trkpt lat="46.9896" lon="8.8503">
        <ele>1382</ele>
        <time>2021-08-04T07:44:23.807Z</time>
      </trkpt>
      <trkpt lat="46.9896" lon="8.85029">
        <ele>1382</ele>
        <time>2021-08-04T07:44:24.807Z</time>
      </trkpt>
      <trkpt lat="46.9896" lon="8.85028">
        <ele>1382</ele>
        <time>2021-08-04T07:44:25.807Z</time>
      </trkpt>
      <trkpt lat="46.9896" lon="8.85027">
        <ele>1382</ele>
        <time>2021-08-04T07:44:26.807Z</time>
      </trkpt>
      <trkpt lat="46.98961" lon="8.85026">
        <ele>1382</ele>
        <time>2021-08-04T07:44:27.806Z</time>
      </trkpt>
      <trkpt lat="46.98961" lon="8.85025">
        <ele>1382</ele>
        <time>2021-08-04T07:44:28.807Z</time>
      </trkpt>
      <trkpt lat="46.98961" lon="8.85023">
        <ele>1383</ele>
        <time>2021-08-04T07:44:29.807Z</time>
      </trkpt>
      <trkpt lat="46.9896" lon="8.85022">
        <ele>1383</ele>
        <time>2021-08-04T07:44:30.806Z</time>
      </trkpt>
      <trkpt lat="46.9896" lon="8.85022">
        <ele>1383</ele>
        <time>2021-08-04T07:44:31.807Z</time>
      </trkpt>
      <trkpt lat="46.98959" lon="8.85022">
        <ele>1383</ele>
        <time>2021-08-04T07:44:32.807Z</time>
      </trkpt>
      <trkpt lat="46.98959" lon="8.85022">
        <ele>1383</ele>
        <time>2021-08-04T07:44:33.806Z</time>
      </trkpt>
      <trkpt lat="46.9896" lon="8.85022">
        <ele>1383</ele>
        <time>2021-08-04T07:44:34.806Z</time>
      </trkpt>
      <trkpt lat="46.98961" lon="8.85021">
        <ele>1383</ele>
        <time>2021-08-04T07:44:35.807Z</time>
      </trkpt>
      <trkpt lat="46.98961" lon="8.8502">
        <ele>1384</ele>
        <time>2021-08-04T07:44:36.807Z</time>
      </trkpt>
      <trkpt lat="46.98961" lon="8.85019">
        <ele>1384</ele>
        <time>2021-08-04T07:44:37.806Z</time>
      </trkpt>
      <trkpt lat="46.98961" lon="8.85018">
        <ele>1384</ele>
        <time>2021-08-04T07:44:38.806Z</time>
      </trkpt>
      <trkpt lat="46.9896" lon="8.85016">
        <ele>1384</ele>
        <time>2021-08-04T07:44:39.806Z</time>
      </trkpt>
      <trkpt lat="46.9896" lon="8.85014">
        <ele>1384</ele>
        <time>2021-08-04T07:44:40.806Z</time>
      </trkpt>
      <trkpt lat="46.98959" lon="8.85012">
        <ele>1384</ele>
        <time>2021-08-04T07:44:41.806Z</time>
      </trkpt>
      <trkpt lat="46.98958" lon="8.85011">
        <ele>1384</ele>
        <time>2021-08-04T07:44:42.807Z</time>
      </trkpt>
      <trkpt lat="46.98957" lon="8.8501">
        <ele>1384</ele>
        <time>2021-08-04T07:44:43.806Z</time>
      </trkpt>
      <trkpt lat="46.98957" lon="8.85008">
        <ele>1384</ele>
        <time>2021-08-04T07:44:44.807Z</time>
      </trkpt>
      <trkpt lat="46.98956" lon="8.85007">
        <ele>1383</ele>
        <time>2021-08-04T07:44:45.806Z</time>
      </trkpt>
      <trkpt lat="46.98955" lon="8.85006">
        <ele>1382</ele>
        <time>2021-08-04T07:44:46.806Z</time>
      </trkpt>
      <trkpt lat="46.98954" lon="8.85004">
        <ele>1381</ele>
        <time>2021-08-04T07:44:47.806Z</time>
      </trkpt>
      <trkpt lat="46.98953" lon="8.85002">
        <ele>1381</ele>
        <time>2021-08-04T07:44:48.806Z</time>
      </trkpt>
      <trkpt lat="46.98952" lon="8.85001">
        <ele>1380</ele>
        <time>2021-08-04T07:44:49.807Z</time>
      </trkpt>
      <trkpt lat="46.98951" lon="8.84999">
        <ele>1379</ele>
        <time>2021-08-04T07:44:50.806Z</time>
      </trkpt>
      <trkpt lat="46.9895" lon="8.84997">
        <ele>1378</ele>
        <time>2021-08-04T07:44:51.807Z</time>
      </trkpt>
      <trkpt lat="46.9895" lon="8.84996">
        <ele>1377</ele>
        <time>2021-08-04T07:44:52.807Z</time>
      </trkpt>
      <trkpt lat="46.9895" lon="8.84994">
        <ele>1377</ele>
        <time>2021-08-04T07:44:53.807Z</time>
      </trkpt>
      <trkpt lat="46.98949" lon="8.84992">
        <ele>1377</ele>
        <time>2021-08-04T07:44:54.806Z</time>
      </trkpt>
      <trkpt lat="46.98948" lon="8.8499">
        <ele>1377</ele>
        <time>2021-08-04T07:44:55.806Z</time>
      </trkpt>
      <trkpt lat="46.98948" lon="8.84989">
        <ele>1377</ele>
        <time>2021-08-04T07:44:56.806Z</time>
      </trkpt>
      <trkpt lat="46.98948" lon="8.84988">
        <ele>1376</ele>
        <time>2021-08-04T07:44:57.806Z</time>
      </trkpt>
      <trkpt lat="46.98948" lon="8.84986">
        <ele>1376</ele>
        <time>2021-08-04T07:44:58.807Z</time>
      </trkpt>
      <trkpt lat="46.98948" lon="8.84985">
        <ele>1377</ele>
        <time>2021-08-04T07:44:59.806Z</time>
      </trkpt>
      <trkpt lat="46.98949" lon="8.84983">
        <ele>1376</ele>
        <time>2021-08-04T07:45:00.806Z</time>
      </trkpt>
      <trkpt lat="46.9895" lon="8.84982">
        <ele>1376</ele>
        <time>2021-08-04T07:45:01.806Z</time>
      </trkpt>
      <trkpt lat="46.98951" lon="8.84981">
        <ele>1377</ele>
        <time>2021-08-04T07:45:02.807Z</time>
      </trkpt>
      <trkpt lat="46.98953" lon="8.8498">
        <ele>1377</ele>
        <time>2021-08-04T07:45:03.807Z</time>
      </trkpt>
      <trkpt lat="46.98954" lon="8.8498">
        <ele>1377</ele>
        <time>2021-08-04T07:45:04.807Z</time>
      </trkpt>
      <trkpt lat="46.98955" lon="8.84979">
        <ele>1377</ele>
        <time>2021-08-04T07:45:05.807Z</time>
      </trkpt>
      <trkpt lat="46.98955" lon="8.84979">
        <ele>1377</ele>
        <time>2021-08-04T07:45:06.806Z</time>
      </trkpt>
      <trkpt lat="46.98956" lon="8.84978">
        <ele>1377</ele>
        <time>2021-08-04T07:45:07.807Z</time>
      </trkpt>
      <trkpt lat="46.98957" lon="8.84978">
        <ele>1376</ele>
        <time>2021-08-04T07:45:08.807Z</time>
      </trkpt>
      <trkpt lat="46.98957" lon="8.84977">
        <ele>1376</ele>
        <time>2021-08-04T07:45:09.806Z</time>
      </trkpt>
      <trkpt lat="46.98958" lon="8.84976">
        <ele>1375</ele>
        <time>2021-08-04T07:45:10.807Z</time>
      </trkpt>
      <trkpt lat="46.98959" lon="8.84975">
        <ele>1375</ele>
        <time>2021-08-04T07:45:11.807Z</time>
      </trkpt>
      <trkpt lat="46.9896" lon="8.84973">
        <ele>1374</ele>
        <time>2021-08-04T07:45:12.807Z</time>
      </trkpt>
      <trkpt lat="46.9896" lon="8.84972">
        <ele>1374</ele>
        <time>2021-08-04T07:45:13.807Z</time>
      </trkpt>
      <trkpt lat="46.98961" lon="8.8497">
        <ele>1373</ele>
        <time>2021-08-04T07:45:14.806Z</time>
      </trkpt>
      <trkpt lat="46.98961" lon="8.84969">
        <ele>1373</ele>
        <time>2021-08-04T07:45:15.806Z</time>
      </trkpt>
      <trkpt lat="46.98963" lon="8.84968">
        <ele>1373</ele>
        <time>2021-08-04T07:45:16.807Z</time>
      </trkpt>
      <trkpt lat="46.98963" lon="8.84967">
        <ele>1373</ele>
        <time>2021-08-04T07:45:17.807Z</time>
      </trkpt>
      <trkpt lat="46.98964" lon="8.84966">
        <ele>1373</ele>
        <time>2021-08-04T07:45:18.807Z</time>
      </trkpt>
      <trkpt lat="46.98965" lon="8.84965">
        <ele>1373</ele>
        <time>2021-08-04T07:45:19.807Z</time>
      </trkpt>
      <trkpt lat="46.98966" lon="8.84964">
        <ele>1373</ele>
        <time>2021-08-04T07:45:20.807Z</time>
      </trkpt>
      <trkpt lat="46.98967" lon="8.84963">
        <ele>1373</ele>
        <time>2021-08-04T07:45:21.806Z</time>
      </trkpt>
      <trkpt lat="46.98967" lon="8.84962">
        <ele>1373</ele>
        <time>2021-08-04T07:45:22.806Z</time>
      </trkpt>
      <trkpt lat="46.98967" lon="8.84962">
        <ele>1372</ele>
        <time>2021-08-04T07:45:23.806Z</time>
      </trkpt>
      <trkpt lat="46.98968" lon="8.84961">
        <ele>1371</ele>
        <time>2021-08-04T07:45:24.806Z</time>
      </trkpt>
      <trkpt lat="46.98969" lon="8.8496">
        <ele>1371</ele>
        <time>2021-08-04T07:45:25.806Z</time>
      </trkpt>
      <trkpt lat="46.9897" lon="8.84958">
        <ele>1370</ele>
        <time>2021-08-04T07:45:26.806Z</time>
      </trkpt>
      <trkpt lat="46.9897" lon="8.84957">
        <ele>1370</ele>
        <time>2021-08-04T07:45:27.807Z</time>
      </trkpt>
      <trkpt lat="46.9897" lon="8.84955">
        <ele>1370</ele>
        <time>2021-08-04T07:45:28.806Z</time>
      </trkpt>
      <trkpt lat="46.98971" lon="8.84953">
        <ele>1370</ele>
        <time>2021-08-04T07:45:29.807Z</time>
      </trkpt>
      <trkpt lat="46.98972" lon="8.84952">
        <ele>1369</ele>
        <time>2021-08-04T07:45:30.807Z</time>
      </trkpt>
      <trkpt lat="46.98972" lon="8.8495">
        <ele>1369</ele>
        <time>2021-08-04T07:45:31.807Z</time>
      </trkpt>
      <trkpt lat="46.98972" lon="8.84948">
        <ele>1369</ele>
        <time>2021-08-04T07:45:32.807Z</time>
      </trkpt>
      <trkpt lat="46.98972" lon="8.84946">
        <ele>1369</ele>
        <time>2021-08-04T07:45:33.806Z</time>
      </trkpt>
      <trkpt lat="46.98971" lon="8.84944">
        <ele>1369</ele>
        <time>2021-08-04T07:45:34.806Z</time>
      </trkpt>
      <trkpt lat="46.9897" lon="8.84942">
        <ele>1370</ele>
        <time>2021-08-04T07:45:35.806Z</time>
      </trkpt>
      <trkpt lat="46.98969" lon="8.84941">
        <ele>1370</ele>
        <time>2021-08-04T07:45:36.807Z</time>
      </trkpt>
      <trkpt lat="46.98969" lon="8.84939">
        <ele>1371</ele>
        <time>2021-08-04T07:45:37.806Z</time>
      </trkpt>
      <trkpt lat="46.98968" lon="8.84938">
        <ele>1371</ele>
        <time>2021-08-04T07:45:38.807Z</time>
      </trkpt>
      <trkpt lat="46.98967" lon="8.84937">
        <ele>1372</ele>
        <time>2021-08-04T07:45:39.807Z</time>
      </trkpt>
      <trkpt lat="46.98967" lon="8.84937">
        <ele>1372</ele>
        <time>2021-08-04T07:45:40.807Z</time>
      </trkpt>
      <trkpt lat="46.98966" lon="8.84936">
        <ele>1372</ele>
        <time>2021-08-04T07:45:41.806Z</time>
      </trkpt>
      <trkpt lat="46.98965" lon="8.84935">
        <ele>1372</ele>
        <time>2021-08-04T07:45:42.806Z</time>
      </trkpt>
      <trkpt lat="46.98965" lon="8.84935">
        <ele>1372</ele>
        <time>2021-08-04T07:45:43.807Z</time>
      </trkpt>
      <trkpt lat="46.98964" lon="8.84934">
        <ele>1373</ele>
        <time>2021-08-04T07:45:44.807Z</time>
      </trkpt>
      <trkpt lat="46.98964" lon="8.84934">
        <ele>1373</ele>
        <time>2021-08-04T07:45:45.807Z</time>
      </trkpt>
      <trkpt lat="46.98963" lon="8.84935">
        <ele>1373</ele>
        <time>2021-08-04T07:45:46.806Z</time>
      </trkpt>
      <trkpt lat="46.98961" lon="8.84934">
        <ele>1373</ele>
        <time>2021-08-04T07:45:47.807Z</time>
      </trkpt>
      <trkpt lat="46.9896" lon="8.84933">
        <ele>1373</ele>
        <time>2021-08-04T07:45:48.807Z</time>
      </trkpt>
      <trkpt lat="46.98959" lon="8.84932">
        <ele>1373</ele>
        <time>2021-08-04T07:45:49.807Z</time>
      </trkpt>
      <trkpt lat="46.98957" lon="8.8493">
        <ele>1372</ele>
        <time>2021-08-04T07:45:50.807Z</time>
      </trkpt>
      <trkpt lat="46.98955" lon="8.84929">
        <ele>1372</ele>
        <time>2021-08-04T07:45:51.807Z</time>
      </trkpt>
      <trkpt lat="46.98954" lon="8.84929">
        <ele>1371</ele>
        <time>2021-08-04T07:45:52.806Z</time>
      </trkpt>
      <trkpt lat="46.98954" lon="8.84929">
        <ele>1370</ele>
        <time>2021-08-04T07:45:53.807Z</time>
      </trkpt>
      <trkpt lat="46.98953" lon="8.84928">
        <ele>1369</ele>
        <time>2021-08-04T07:45:54.807Z</time>
      </trkpt>
      <trkpt lat="46.98952" lon="8.84927">
        <ele>1368</ele>
        <time>2021-08-04T07:45:55.807Z</time>
      </trkpt>
      <trkpt lat="46.98951" lon="8.84924">
        <ele>1368</ele>
        <time>2021-08-04T07:45:56.807Z</time>
      </trkpt>
      <trkpt lat="46.98951" lon="8.84923">
        <ele>1368</ele>
        <time>2021-08-04T07:45:57.807Z</time>
      </trkpt>
      <trkpt lat="46.9895" lon="8.84921">
        <ele>1367</ele>
        <time>2021-08-04T07:45:58.807Z</time>
      </trkpt>
      <trkpt lat="46.98951" lon="8.8492">
        <ele>1367</ele>
        <time>2021-08-04T07:45:59.807Z</time>
      </trkpt>
      <trkpt lat="46.98951" lon="8.84919">
        <ele>1367</ele>
        <time>2021-08-04T07:46:00.807Z</time>
      </trkpt>
      <trkpt lat="46.98951" lon="8.84918">
        <ele>1367</ele>
        <time>2021-08-04T07:46:01.806Z</time>
      </trkpt>
      <trkpt lat="46.98951" lon="8.84917">
        <ele>1367</ele>
        <time>2021-08-04T07:46:02.807Z</time>
      </trkpt>
      <trkpt lat="46.98952" lon="8.84916">
        <ele>1367</ele>
        <time>2021-08-04T07:46:03.807Z</time>
      </trkpt>
      <trkpt lat="46.98952" lon="8.84915">
        <ele>1367</ele>
        <time>2021-08-04T07:46:04.807Z</time>
      </trkpt>
      <trkpt lat="46.98953" lon="8.84914">
        <ele>1367</ele>
        <time>2021-08-04T07:46:05.806Z</time>
      </trkpt>
      <trkpt lat="46.98953" lon="8.84914">
        <ele>1368</ele>
        <time>2021-08-04T07:46:06.807Z</time>
      </trkpt>
      <trkpt lat="46.98954" lon="8.84913">
        <ele>1368</ele>
        <time>2021-08-04T07:46:07.807Z</time>
      </trkpt>
      <trkpt lat="46.98954" lon="8.84912">
        <ele>1368</ele>
        <time>2021-08-04T07:46:08.806Z</time>
      </trkpt>
      <trkpt lat="46.98954" lon="8.84911">
        <ele>1368</ele>
        <time>2021-08-04T07:46:09.807Z</time>
      </trkpt>
      <trkpt lat="46.98953" lon="8.8491">
        <ele>1368</ele>
        <time>2021-08-04T07:46:10.807Z</time>
      </trkpt>
      <trkpt lat="46.98952" lon="8.84909">
        <ele>1368</ele>
        <time>2021-08-04T07:46:11.806Z</time>
      </trkpt>
      <trkpt lat="46.98951" lon="8.84908">
        <ele>1367</ele>
        <time>2021-08-04T07:46:12.806Z</time>
      </trkpt>
      <trkpt lat="46.98951" lon="8.84908">
        <ele>1367</ele>
        <time>2021-08-04T07:46:13.806Z</time>
      </trkpt>
      <trkpt lat="46.98951" lon="8.84907">
        <ele>1365</ele>
        <time>2021-08-04T07:46:14.806Z</time>
      </trkpt>
      <trkpt lat="46.98951" lon="8.84906">
        <ele>1363</ele>
        <time>2021-08-04T07:46:15.807Z</time>
      </trkpt>
      <trkpt lat="46.98951" lon="8.84904">
        <ele>1362</ele>
        <time>2021-08-04T07:46:16.807Z</time>
      </trkpt>
      <trkpt lat="46.98951" lon="8.84903">
        <ele>1360</ele>
        <time>2021-08-04T07:46:17.807Z</time>
      </trkpt>
      <trkpt lat="46.98951" lon="8.84901">
        <ele>1360</ele>
        <time>2021-08-04T07:46:18.807Z</time>
      </trkpt>
      <trkpt lat="46.98951" lon="8.849">
        <ele>1359</ele>
        <time>2021-08-04T07:46:19.807Z</time>
      </trkpt>
      <trkpt lat="46.98951" lon="8.84898">
        <ele>1358</ele>
        <time>2021-08-04T07:46:20.807Z</time>
      </trkpt>
      <trkpt lat="46.98951" lon="8.84896">
        <ele>1357</ele>
        <time>2021-08-04T07:46:21.807Z</time>
      </trkpt>
      <trkpt lat="46.98951" lon="8.84895">
        <ele>1356</ele>
        <time>2021-08-04T07:46:22.807Z</time>
      </trkpt>
      <trkpt lat="46.98951" lon="8.84894">
        <ele>1356</ele>
        <time>2021-08-04T07:46:23.806Z</time>
      </trkpt>
      <trkpt lat="46.98951" lon="8.84892">
        <ele>1355</ele>
        <time>2021-08-04T07:46:24.806Z</time>
      </trkpt>
      <trkpt lat="46.98952" lon="8.8489">
        <ele>1355</ele>
        <time>2021-08-04T07:46:25.807Z</time>
      </trkpt>
      <trkpt lat="46.98952" lon="8.84889">
        <ele>1354</ele>
        <time>2021-08-04T07:46:26.806Z</time>
      </trkpt>
      <trkpt lat="46.98953" lon="8.84888">
        <ele>1354</ele>
        <time>2021-08-04T07:46:27.806Z</time>
      </trkpt>
      <trkpt lat="46.98953" lon="8.84886">
        <ele>1354</ele>
        <time>2021-08-04T07:46:28.807Z</time>
      </trkpt>
      <trkpt lat="46.98954" lon="8.84884">
        <ele>1354</ele>
        <time>2021-08-04T07:46:29.806Z</time>
      </trkpt>
      <trkpt lat="46.98954" lon="8.84881">
        <ele>1354</ele>
        <time>2021-08-04T07:46:30.806Z</time>
      </trkpt>
      <trkpt lat="46.98955" lon="8.84879">
        <ele>1354</ele>
        <time>2021-08-04T07:46:31.807Z</time>
      </trkpt>
      <trkpt lat="46.98956" lon="8.84877">
        <ele>1354</ele>
        <time>2021-08-04T07:46:32.807Z</time>
      </trkpt>
      <trkpt lat="46.98958" lon="8.84875">
        <ele>1354</ele>
        <time>2021-08-04T07:46:33.807Z</time>
      </trkpt>
      <trkpt lat="46.98959" lon="8.84873">
        <ele>1354</ele>
        <time>2021-08-04T07:46:34.806Z</time>
      </trkpt>
      <trkpt lat="46.98959" lon="8.84871">
        <ele>1354</ele>
        <time>2021-08-04T07:46:35.806Z</time>
      </trkpt>
      <trkpt lat="46.98959" lon="8.8487">
        <ele>1354</ele>
        <time>2021-08-04T07:46:36.807Z</time>
      </trkpt>
      <trkpt lat="46.98957" lon="8.84868">
        <ele>1354</ele>
        <time>2021-08-04T07:46:37.807Z</time>
      </trkpt>
      <trkpt lat="46.98956" lon="8.84867">
        <ele>1354</ele>
        <time>2021-08-04T07:46:38.806Z</time>
      </trkpt>
      <trkpt lat="46.98954" lon="8.84865">
        <ele>1354</ele>
        <time>2021-08-04T07:46:39.807Z</time>
      </trkpt>
      <trkpt lat="46.98954" lon="8.84864">
        <ele>1353</ele>
        <time>2021-08-04T07:46:40.807Z</time>
      </trkpt>
      <trkpt lat="46.98953" lon="8.84863">
        <ele>1353</ele>
        <time>2021-08-04T07:46:41.807Z</time>
      </trkpt>
      <trkpt lat="46.98952" lon="8.84862">
        <ele>1353</ele>
        <time>2021-08-04T07:46:42.807Z</time>
      </trkpt>
      <trkpt lat="46.98952" lon="8.84861">
        <ele>1353</ele>
        <time>2021-08-04T07:46:43.807Z</time>
      </trkpt>
      <trkpt lat="46.98951" lon="8.84859">
        <ele>1352</ele>
        <time>2021-08-04T07:46:44.807Z</time>
      </trkpt>
      <trkpt lat="46.98951" lon="8.84858">
        <ele>1352</ele>
        <time>2021-08-04T07:46:45.807Z</time>
      </trkpt>
      <trkpt lat="46.9895" lon="8.84857">
        <ele>1352</ele>
        <time>2021-08-04T07:46:46.806Z</time>
      </trkpt>
      <trkpt lat="46.98949" lon="8.84856">
        <ele>1352</ele>
        <time>2021-08-04T07:46:47.807Z</time>
      </trkpt>
      <trkpt lat="46.98949" lon="8.84854">
        <ele>1351</ele>
        <time>2021-08-04T07:46:48.807Z</time>
      </trkpt>
      <trkpt lat="46.98948" lon="8.84853">
        <ele>1351</ele>
        <time>2021-08-04T07:46:49.807Z</time>
      </trkpt>
      <trkpt lat="46.98947" lon="8.84852">
        <ele>1351</ele>
        <time>2021-08-04T07:46:50.806Z</time>
      </trkpt>
      <trkpt lat="46.98946" lon="8.8485">
        <ele>1350</ele>
        <time>2021-08-04T07:46:51.806Z</time>
      </trkpt>
      <trkpt lat="46.98945" lon="8.84849">
        <ele>1350</ele>
        <time>2021-08-04T07:46:52.807Z</time>
      </trkpt>
      <trkpt lat="46.98945" lon="8.84848">
        <ele>1349</ele>
        <time>2021-08-04T07:46:53.806Z</time>
      </trkpt>
      <trkpt lat="46.98945" lon="8.84847">
        <ele>1349</ele>
        <time>2021-08-04T07:46:54.806Z</time>
      </trkpt>
      <trkpt lat="46.98945" lon="8.84846">
        <ele>1348</ele>
        <time>2021-08-04T07:46:55.806Z</time>
      </trkpt>
      <trkpt lat="46.98945" lon="8.84844">
        <ele>1348</ele>
        <time>2021-08-04T07:46:56.806Z</time>
      </trkpt>
      <trkpt lat="46.98944" lon="8.84843">
        <ele>1347</ele>
        <time>2021-08-04T07:46:57.806Z</time>
      </trkpt>
      <trkpt lat="46.98944" lon="8.84842">
        <ele>1347</ele>
        <time>2021-08-04T07:46:58.806Z</time>
      </trkpt>
      <trkpt lat="46.98944" lon="8.8484">
        <ele>1347</ele>
        <time>2021-08-04T07:46:59.806Z</time>
      </trkpt>
      <trkpt lat="46.98943" lon="8.84838">
        <ele>1346</ele>
        <time>2021-08-04T07:47:00.806Z</time>
      </trkpt>
      <trkpt lat="46.98943" lon="8.84836">
        <ele>1346</ele>
        <time>2021-08-04T07:47:01.806Z</time>
      </trkpt>
      <trkpt lat="46.98942" lon="8.84835">
        <ele>1346</ele>
        <time>2021-08-04T07:47:02.807Z</time>
      </trkpt>
      <trkpt lat="46.98942" lon="8.84834">
        <ele>1346</ele>
        <time>2021-08-04T07:47:03.807Z</time>
      </trkpt>
      <trkpt lat="46.98942" lon="8.84832">
        <ele>1346</ele>
        <time>2021-08-04T07:47:04.807Z</time>
      </trkpt>
      <trkpt lat="46.98943" lon="8.84831">
        <ele>1346</ele>
        <time>2021-08-04T07:47:05.807Z</time>
      </trkpt>
      <trkpt lat="46.98943" lon="8.84829">
        <ele>1346</ele>
        <time>2021-08-04T07:47:06.806Z</time>
      </trkpt>
      <trkpt lat="46.98942" lon="8.84827">
        <ele>1346</ele>
        <time>2021-08-04T07:47:07.806Z</time>
      </trkpt>
      <trkpt lat="46.98942" lon="8.84825">
        <ele>1346</ele>
        <time>2021-08-04T07:47:08.807Z</time>
      </trkpt>
      <trkpt lat="46.98942" lon="8.84823">
        <ele>1347</ele>
        <time>2021-08-04T07:47:09.807Z</time>
      </trkpt>
      <trkpt lat="46.98942" lon="8.84822">
        <ele>1347</ele>
        <time>2021-08-04T07:47:10.807Z</time>
      </trkpt>
      <trkpt lat="46.98942" lon="8.8482">
        <ele>1347</ele>
        <time>2021-08-04T07:47:11.807Z</time>
      </trkpt>
      <trkpt lat="46.98942" lon="8.84818">
        <ele>1347</ele>
        <time>2021-08-04T07:47:12.807Z</time>
      </trkpt>
      <trkpt lat="46.98941" lon="8.84817">
        <ele>1348</ele>
        <time>2021-08-04T07:47:13.807Z</time>
      </trkpt>
      <trkpt lat="46.98941" lon="8.84815">
        <ele>1348</ele>
        <time>2021-08-04T07:47:14.806Z</time>
      </trkpt>
      <trkpt lat="46.98941" lon="8.84813">
        <ele>1348</ele>
        <time>2021-08-04T07:47:15.806Z</time>
      </trkpt>
      <trkpt lat="46.9894" lon="8.84811">
        <ele>1348</ele>
        <time>2021-08-04T07:47:16.806Z</time>
      </trkpt>
      <trkpt lat="46.9894" lon="8.84809">
        <ele>1348</ele>
        <time>2021-08-04T07:47:17.807Z</time>
      </trkpt>
      <trkpt lat="46.98939" lon="8.84808">
        <ele>1348</ele>
        <time>2021-08-04T07:47:18.807Z</time>
      </trkpt>
      <trkpt lat="46.98939" lon="8.84806">
        <ele>1348</ele>
        <time>2021-08-04T07:47:19.807Z</time>
      </trkpt>
      <trkpt lat="46.98939" lon="8.84804">
        <ele>1347</ele>
        <time>2021-08-04T07:47:20.807Z</time>
      </trkpt>
      <trkpt lat="46.98939" lon="8.84802">
        <ele>1347</ele>
        <time>2021-08-04T07:47:21.807Z</time>
      </trkpt>
      <trkpt lat="46.98939" lon="8.848">
        <ele>1347</ele>
        <time>2021-08-04T07:47:22.806Z</time>
      </trkpt>
      <trkpt lat="46.98938" lon="8.84798">
        <ele>1346</ele>
        <time>2021-08-04T07:47:23.806Z</time>
      </trkpt>
      <trkpt lat="46.98938" lon="8.84797">
        <ele>1346</ele>
        <time>2021-08-04T07:47:24.806Z</time>
      </trkpt>
      <trkpt lat="46.98938" lon="8.84796">
        <ele>1345</ele>
        <time>2021-08-04T07:47:25.807Z</time>
      </trkpt>
      <trkpt lat="46.98937" lon="8.84795">
        <ele>1345</ele>
        <time>2021-08-04T07:47:26.807Z</time>
      </trkpt>
      <trkpt lat="46.98936" lon="8.84793">
        <ele>1345</ele>
        <time>2021-08-04T07:47:27.807Z</time>
      </trkpt>
      <trkpt lat="46.98936" lon="8.84792">
        <ele>1344</ele>
        <time>2021-08-04T07:47:28.807Z</time>
      </trkpt>
      <trkpt lat="46.98936" lon="8.8479">
        <ele>1344</ele>
        <time>2021-08-04T07:47:29.807Z</time>
      </trkpt>
      <trkpt lat="46.98935" lon="8.84789">
        <ele>1343</ele>
        <time>2021-08-04T07:47:30.807Z</time>
      </trkpt>
      <trkpt lat="46.98935" lon="8.84788">
        <ele>1343</ele>
        <time>2021-08-04T07:47:31.807Z</time>
      </trkpt>
      <trkpt lat="46.98934" lon="8.84787">
        <ele>1342</ele>
        <time>2021-08-04T07:47:32.807Z</time>
      </trkpt>
      <trkpt lat="46.98934" lon="8.84786">
        <ele>1341</ele>
        <time>2021-08-04T07:47:33.807Z</time>
      </trkpt>
      <trkpt lat="46.98934" lon="8.84785">
        <ele>1341</ele>
        <time>2021-08-04T07:47:34.806Z</time>
      </trkpt>
      <trkpt lat="46.98935" lon="8.84783">
        <ele>1340</ele>
        <time>2021-08-04T07:47:35.806Z</time>
      </trkpt>
      <trkpt lat="46.98934" lon="8.84782">
        <ele>1339</ele>
        <time>2021-08-04T07:47:36.806Z</time>
      </trkpt>
      <trkpt lat="46.98934" lon="8.8478">
        <ele>1339</ele>
        <time>2021-08-04T07:47:37.806Z</time>
      </trkpt>
      <trkpt lat="46.98935" lon="8.84778">
        <ele>1339</ele>
        <time>2021-08-04T07:47:38.806Z</time>
      </trkpt>
      <trkpt lat="46.98935" lon="8.84775">
        <ele>1338</ele>
        <time>2021-08-04T07:47:39.807Z</time>
      </trkpt>
      <trkpt lat="46.98935" lon="8.84773">
        <ele>1338</ele>
        <time>2021-08-04T07:47:40.807Z</time>
      </trkpt>
      <trkpt lat="46.98935" lon="8.84771">
        <ele>1338</ele>
        <time>2021-08-04T07:47:41.807Z</time>
      </trkpt>
      <trkpt lat="46.98935" lon="8.8477">
        <ele>1338</ele>
        <time>2021-08-04T07:47:42.807Z</time>
      </trkpt>
      <trkpt lat="46.98934" lon="8.84768">
        <ele>1338</ele>
        <time>2021-08-04T07:47:43.807Z</time>
      </trkpt>
      <trkpt lat="46.98934" lon="8.84767">
        <ele>1338</ele>
        <time>2021-08-04T07:47:44.806Z</time>
      </trkpt>
      <trkpt lat="46.98934" lon="8.84765">
        <ele>1338</ele>
        <time>2021-08-04T07:47:45.806Z</time>
      </trkpt>
      <trkpt lat="46.98934" lon="8.84764">
        <ele>1338</ele>
        <time>2021-08-04T07:47:46.807Z</time>
      </trkpt>
      <trkpt lat="46.98934" lon="8.84763">
        <ele>1338</ele>
        <time>2021-08-04T07:47:47.807Z</time>
      </trkpt>
      <trkpt lat="46.98935" lon="8.84762">
        <ele>1338</ele>
        <time>2021-08-04T07:47:48.807Z</time>
      </trkpt>
      <trkpt lat="46.98936" lon="8.84761">
        <ele>1338</ele>
        <time>2021-08-04T07:47:49.807Z</time>
      </trkpt>
      <trkpt lat="46.98936" lon="8.84759">
        <ele>1338</ele>
        <time>2021-08-04T07:47:50.807Z</time>
      </trkpt>
      <trkpt lat="46.98936" lon="8.84758">
        <ele>1339</ele>
        <time>2021-08-04T07:47:51.807Z</time>
      </trkpt>
      <trkpt lat="46.98935" lon="8.84757">
        <ele>1339</ele>
        <time>2021-08-04T07:47:52.806Z</time>
      </trkpt>
      <trkpt lat="46.98934" lon="8.84756">
        <ele>1339</ele>
        <time>2021-08-04T07:47:53.806Z</time>
      </trkpt>
      <trkpt lat="46.98934" lon="8.84756">
        <ele>1339</ele>
        <time>2021-08-04T07:47:54.806Z</time>
      </trkpt>
      <trkpt lat="46.98934" lon="8.84755">
        <ele>1339</ele>
        <time>2021-08-04T07:47:55.806Z</time>
      </trkpt>
      <trkpt lat="46.98934" lon="8.84755">
        <ele>1340</ele>
        <time>2021-08-04T07:47:56.807Z</time>
      </trkpt>
      <trkpt lat="46.98933" lon="8.84759">
        <ele>1333</ele>
        <time>2021-08-04T07:47:57.807Z</time>
      </trkpt>
      <trkpt lat="46.98933" lon="8.84758">
        <ele>1333</ele>
        <time>2021-08-04T07:47:58.808Z</time>
      </trkpt>
      <trkpt lat="46.98933" lon="8.84757">
        <ele>1333</ele>
        <time>2021-08-04T07:47:59.808Z</time>
      </trkpt>
      <trkpt lat="46.98933" lon="8.84756">
        <ele>1333</ele>
        <time>2021-08-04T07:48:00.808Z</time>
      </trkpt>
      <trkpt lat="46.98933" lon="8.84755">
        <ele>1333</ele>
        <time>2021-08-04T07:48:01.807Z</time>
      </trkpt>
      <trkpt lat="46.98934" lon="8.84755">
        <ele>1332</ele>
        <time>2021-08-04T07:48:02.807Z</time>
      </trkpt>
      <trkpt lat="46.98934" lon="8.84754">
        <ele>1332</ele>
        <time>2021-08-04T07:48:03.807Z</time>
      </trkpt>
      <trkpt lat="46.98934" lon="8.84753">
        <ele>1332</ele>
        <time>2021-08-04T07:48:04.808Z</time>
      </trkpt>
      <trkpt lat="46.98934" lon="8.84752">
        <ele>1331</ele>
        <time>2021-08-04T07:48:05.808Z</time>
      </trkpt>
      <trkpt lat="46.98933" lon="8.84751">
        <ele>1330</ele>
        <time>2021-08-04T07:48:06.808Z</time>
      </trkpt>
      <trkpt lat="46.98933" lon="8.8475">
        <ele>1330</ele>
        <time>2021-08-04T07:48:07.807Z</time>
      </trkpt>
      <trkpt lat="46.98933" lon="8.84749">
        <ele>1329</ele>
        <time>2021-08-04T07:48:08.807Z</time>
      </trkpt>
      <trkpt lat="46.98932" lon="8.84748">
        <ele>1329</ele>
        <time>2021-08-04T07:48:09.808Z</time>
      </trkpt>
      <trkpt lat="46.98932" lon="8.84747">
        <ele>1329</ele>
        <time>2021-08-04T07:48:10.807Z</time>
      </trkpt>
      <trkpt lat="46.98932" lon="8.84746">
        <ele>1329</ele>
        <time>2021-08-04T07:48:11.808Z</time>
      </trkpt>
      <trkpt lat="46.98932" lon="8.84745">
        <ele>1329</ele>
        <time>2021-08-04T07:48:12.807Z</time>
      </trkpt>
      <trkpt lat="46.98932" lon="8.84744">
        <ele>1328</ele>
        <time>2021-08-04T07:48:13.807Z</time>
      </trkpt>
      <trkpt lat="46.98932" lon="8.84742">
        <ele>1328</ele>
        <time>2021-08-04T07:48:14.807Z</time>
      </trkpt>
      <trkpt lat="46.98932" lon="8.84741">
        <ele>1328</ele>
        <time>2021-08-04T07:48:15.807Z</time>
      </trkpt>
      <trkpt lat="46.98931" lon="8.84739">
        <ele>1328</ele>
        <time>2021-08-04T07:48:16.807Z</time>
      </trkpt>
      <trkpt lat="46.98926" lon="8.84736">
        <ele>1333</ele>
        <time>2021-08-04T07:48:17.808Z</time>
      </trkpt>
      <trkpt lat="46.98926" lon="8.84736">
        <ele>1334</ele>
        <time>2021-08-04T07:48:18.807Z</time>
      </trkpt>
      <trkpt lat="46.98925" lon="8.84735">
        <ele>1332</ele>
        <time>2021-08-04T07:48:19.808Z</time>
      </trkpt>
      <trkpt lat="46.98925" lon="8.84734">
        <ele>1332</ele>
        <time>2021-08-04T07:48:20.807Z</time>
      </trkpt>
      <trkpt lat="46.98925" lon="8.84733">
        <ele>1332</ele>
        <time>2021-08-04T07:48:21.807Z</time>
      </trkpt>
      <trkpt lat="46.98924" lon="8.84732">
        <ele>1331</ele>
        <time>2021-08-04T07:48:22.808Z</time>
      </trkpt>
      <trkpt lat="46.98923" lon="8.84732">
        <ele>1331</ele>
        <time>2021-08-04T07:48:23.808Z</time>
      </trkpt>
      <trkpt lat="46.98923" lon="8.84732">
        <ele>1330</ele>
        <time>2021-08-04T07:48:24.807Z</time>
      </trkpt>
      <trkpt lat="46.98923" lon="8.84732">
        <ele>1328</ele>
        <time>2021-08-04T07:48:25.807Z</time>
      </trkpt>
      <trkpt lat="46.98923" lon="8.84731">
        <ele>1328</ele>
        <time>2021-08-04T07:48:26.808Z</time>
      </trkpt>
      <trkpt lat="46.98922" lon="8.8473">
        <ele>1328</ele>
        <time>2021-08-04T07:48:27.808Z</time>
      </trkpt>
      <trkpt lat="46.98922" lon="8.84729">
        <ele>1328</ele>
        <time>2021-08-04T07:48:28.808Z</time>
      </trkpt>
      <trkpt lat="46.98922" lon="8.84728">
        <ele>1327</ele>
        <time>2021-08-04T07:48:29.807Z</time>
      </trkpt>
      <trkpt lat="46.98921" lon="8.84727">
        <ele>1327</ele>
        <time>2021-08-04T07:48:30.807Z</time>
      </trkpt>
      <trkpt lat="46.9892" lon="8.84726">
        <ele>1327</ele>
        <time>2021-08-04T07:48:31.808Z</time>
      </trkpt>
      <trkpt lat="46.98919" lon="8.84726">
        <ele>1327</ele>
        <time>2021-08-04T07:48:32.808Z</time>
      </trkpt>
      <trkpt lat="46.98919" lon="8.84726">
        <ele>1327</ele>
        <time>2021-08-04T07:48:33.808Z</time>
      </trkpt>
      <trkpt lat="46.98921" lon="8.84726">
        <ele>1329</ele>
        <time>2021-08-04T07:48:34.808Z</time>
      </trkpt>
      <trkpt lat="46.9892" lon="8.84725">
        <ele>1328</ele>
        <time>2021-08-04T07:48:35.808Z</time>
      </trkpt>
      <trkpt lat="46.9892" lon="8.84725">
        <ele>1328</ele>
        <time>2021-08-04T07:48:36.808Z</time>
      </trkpt>
      <trkpt lat="46.98919" lon="8.84724">
        <ele>1327</ele>
        <time>2021-08-04T07:48:37.807Z</time>
      </trkpt>
      <trkpt lat="46.98919" lon="8.84723">
        <ele>1327</ele>
        <time>2021-08-04T07:48:38.808Z</time>
      </trkpt>
      <trkpt lat="46.98919" lon="8.84723">
        <ele>1327</ele>
        <time>2021-08-04T07:48:39.807Z</time>
      </trkpt>
      <trkpt lat="46.98918" lon="8.84723">
        <ele>1327</ele>
        <time>2021-08-04T07:48:40.808Z</time>
      </trkpt>
      <trkpt lat="46.98918" lon="8.84722">
        <ele>1327</ele>
        <time>2021-08-04T07:48:41.808Z</time>
      </trkpt>
      <trkpt lat="46.98918" lon="8.84721">
        <ele>1327</ele>
        <time>2021-08-04T07:48:42.807Z</time>
      </trkpt>
      <trkpt lat="46.98918" lon="8.8472">
        <ele>1327</ele>
        <time>2021-08-04T07:48:43.807Z</time>
      </trkpt>
      <trkpt lat="46.98918" lon="8.8472">
        <ele>1327</ele>
        <time>2021-08-04T07:48:44.808Z</time>
      </trkpt>
      <trkpt lat="46.98918" lon="8.84719">
        <ele>1327</ele>
        <time>2021-08-04T07:48:45.808Z</time>
      </trkpt>
      <trkpt lat="46.98918" lon="8.84719">
        <ele>1326</ele>
        <time>2021-08-04T07:48:46.807Z</time>
      </trkpt>
      <trkpt lat="46.98918" lon="8.84718">
        <ele>1326</ele>
        <time>2021-08-04T07:48:47.807Z</time>
      </trkpt>
      <trkpt lat="46.98915" lon="8.84715">
        <ele>1327</ele>
        <time>2021-08-04T07:48:48.807Z</time>
      </trkpt>
      <trkpt lat="46.98915" lon="8.84714">
        <ele>1327</ele>
        <time>2021-08-04T07:48:49.808Z</time>
      </trkpt>
      <trkpt lat="46.98916" lon="8.84715">
        <ele>1327</ele>
        <time>2021-08-04T07:48:50.808Z</time>
      </trkpt>
      <trkpt lat="46.98916" lon="8.84715">
        <ele>1326</ele>
        <time>2021-08-04T07:48:51.807Z</time>
      </trkpt>
      <trkpt lat="46.98919" lon="8.84715">
        <ele>1325</ele>
        <time>2021-08-04T07:48:52.809Z</time>
      </trkpt>
      <trkpt lat="46.98919" lon="8.84716">
        <ele>1327</ele>
        <time>2021-08-04T07:48:53.809Z</time>
      </trkpt>
      <trkpt lat="46.98919" lon="8.84716">
        <ele>1328</ele>
        <time>2021-08-04T07:48:54.809Z</time>
      </trkpt>
      <trkpt lat="46.98919" lon="8.84715">
        <ele>1329</ele>
        <time>2021-08-04T07:48:55.809Z</time>
      </trkpt>
      <trkpt lat="46.98919" lon="8.84715">
        <ele>1329</ele>
        <time>2021-08-04T07:48:56.808Z</time>
      </trkpt>
      <trkpt lat="46.98918" lon="8.84715">
        <ele>1330</ele>
        <time>2021-08-04T07:48:57.808Z</time>
      </trkpt>
      <trkpt lat="46.98918" lon="8.84714">
        <ele>1330</ele>
        <time>2021-08-04T07:48:58.809Z</time>
      </trkpt>
      <trkpt lat="46.98917" lon="8.84713">
        <ele>1330</ele>
        <time>2021-08-04T07:48:59.809Z</time>
      </trkpt>
      <trkpt lat="46.98916" lon="8.84712">
        <ele>1330</ele>
        <time>2021-08-04T07:49:00.809Z</time>
      </trkpt>
      <trkpt lat="46.98916" lon="8.84712">
        <ele>1329</ele>
        <time>2021-08-04T07:49:01.809Z</time>
      </trkpt>
      <trkpt lat="46.98916" lon="8.84712">
        <ele>1329</ele>
        <time>2021-08-04T07:49:02.809Z</time>
      </trkpt>
      <trkpt lat="46.98916" lon="8.84714">
        <ele>1328</ele>
        <time>2021-08-04T07:49:03.810Z</time>
      </trkpt>
      <trkpt lat="46.98915" lon="8.84711">
        <ele>1326</ele>
        <time>2021-08-04T07:49:04.810Z</time>
      </trkpt>
      <trkpt lat="46.98915" lon="8.8471">
        <ele>1326</ele>
        <time>2021-08-04T07:49:05.809Z</time>
      </trkpt>
      <trkpt lat="46.98915" lon="8.84709">
        <ele>1326</ele>
        <time>2021-08-04T07:49:06.810Z</time>
      </trkpt>
      <trkpt lat="46.98915" lon="8.84708">
        <ele>1325</ele>
        <time>2021-08-04T07:49:07.810Z</time>
      </trkpt>
      <trkpt lat="46.98915" lon="8.84707">
        <ele>1325</ele>
        <time>2021-08-04T07:49:08.810Z</time>
      </trkpt>
      <trkpt lat="46.98915" lon="8.84706">
        <ele>1326</ele>
        <time>2021-08-04T07:49:09.810Z</time>
      </trkpt>
      <trkpt lat="46.98914" lon="8.84705">
        <ele>1326</ele>
        <time>2021-08-04T07:49:10.810Z</time>
      </trkpt>
      <trkpt lat="46.98914" lon="8.84705">
        <ele>1326</ele>
        <time>2021-08-04T07:49:11.810Z</time>
      </trkpt>
      <trkpt lat="46.98913" lon="8.84703">
        <ele>1326</ele>
        <time>2021-08-04T07:49:12.810Z</time>
      </trkpt>
      <trkpt lat="46.98912" lon="8.84703">
        <ele>1325</ele>
        <time>2021-08-04T07:49:13.810Z</time>
      </trkpt>
      <trkpt lat="46.98911" lon="8.84702">
        <ele>1325</ele>
        <time>2021-08-04T07:49:14.809Z</time>
      </trkpt>
      <trkpt lat="46.98911" lon="8.84702">
        <ele>1326</ele>
        <time>2021-08-04T07:49:15.810Z</time>
      </trkpt>
      <trkpt lat="46.98911" lon="8.84701">
        <ele>1325</ele>
        <time>2021-08-04T07:49:16.809Z</time>
      </trkpt>
      <trkpt lat="46.98911" lon="8.847">
        <ele>1325</ele>
        <time>2021-08-04T07:49:17.810Z</time>
      </trkpt>
      <trkpt lat="46.98911" lon="8.847">
        <ele>1325</ele>
        <time>2021-08-04T07:49:18.810Z</time>
      </trkpt>
      <trkpt lat="46.98911" lon="8.84699">
        <ele>1324</ele>
        <time>2021-08-04T07:49:19.810Z</time>
      </trkpt>
      <trkpt lat="46.98911" lon="8.84698">
        <ele>1323</ele>
        <time>2021-08-04T07:49:20.810Z</time>
      </trkpt>
      <trkpt lat="46.98911" lon="8.84697">
        <ele>1323</ele>
        <time>2021-08-04T07:49:21.810Z</time>
      </trkpt>
      <trkpt lat="46.98911" lon="8.84696">
        <ele>1323</ele>
        <time>2021-08-04T07:49:22.809Z</time>
      </trkpt>
      <trkpt lat="46.9891" lon="8.84694">
        <ele>1323</ele>
        <time>2021-08-04T07:49:23.810Z</time>
      </trkpt>
      <trkpt lat="46.9891" lon="8.84693">
        <ele>1323</ele>
        <time>2021-08-04T07:49:24.809Z</time>
      </trkpt>
      <trkpt lat="46.98909" lon="8.84692">
        <ele>1324</ele>
        <time>2021-08-04T07:49:25.809Z</time>
      </trkpt>
      <trkpt lat="46.98909" lon="8.84691">
        <ele>1324</ele>
        <time>2021-08-04T07:49:26.809Z</time>
      </trkpt>
      <trkpt lat="46.98908" lon="8.8469">
        <ele>1324</ele>
        <time>2021-08-04T07:49:27.809Z</time>
      </trkpt>
      <trkpt lat="46.98908" lon="8.8469">
        <ele>1323</ele>
        <time>2021-08-04T07:49:28.810Z</time>
      </trkpt>
      <trkpt lat="46.98908" lon="8.84689">
        <ele>1323</ele>
        <time>2021-08-04T07:49:29.809Z</time>
      </trkpt>
      <trkpt lat="46.98908" lon="8.84688">
        <ele>1322</ele>
        <time>2021-08-04T07:49:30.809Z</time>
      </trkpt>
      <trkpt lat="46.98909" lon="8.84688">
        <ele>1322</ele>
        <time>2021-08-04T07:49:31.810Z</time>
      </trkpt>
      <trkpt lat="46.98909" lon="8.84686">
        <ele>1322</ele>
        <time>2021-08-04T07:49:32.810Z</time>
      </trkpt>
      <trkpt lat="46.98909" lon="8.84685">
        <ele>1321</ele>
        <time>2021-08-04T07:49:33.810Z</time>
      </trkpt>
      <trkpt lat="46.98908" lon="8.84684">
        <ele>1321</ele>
        <time>2021-08-04T07:49:34.810Z</time>
      </trkpt>
      <trkpt lat="46.98908" lon="8.84682">
        <ele>1321</ele>
        <time>2021-08-04T07:49:35.810Z</time>
      </trkpt>
      <trkpt lat="46.98908" lon="8.8468">
        <ele>1321</ele>
        <time>2021-08-04T07:49:36.810Z</time>
      </trkpt>
      <trkpt lat="46.98908" lon="8.84679">
        <ele>1322</ele>
        <time>2021-08-04T07:49:37.810Z</time>
      </trkpt>
      <trkpt lat="46.98908" lon="8.84678">
        <ele>1322</ele>
        <time>2021-08-04T07:49:38.809Z</time>
      </trkpt>
      <trkpt lat="46.98908" lon="8.84677">
        <ele>1321</ele>
        <time>2021-08-04T07:49:39.809Z</time>
      </trkpt>
      <trkpt lat="46.98907" lon="8.84675">
        <ele>1321</ele>
        <time>2021-08-04T07:49:40.810Z</time>
      </trkpt>
      <trkpt lat="46.98906" lon="8.84673">
        <ele>1321</ele>
        <time>2021-08-04T07:49:41.810Z</time>
      </trkpt>
      <trkpt lat="46.98906" lon="8.84672">
        <ele>1321</ele>
        <time>2021-08-04T07:49:42.809Z</time>
      </trkpt>
      <trkpt lat="46.98906" lon="8.8467">
        <ele>1321</ele>
        <time>2021-08-04T07:49:43.810Z</time>
      </trkpt>
      <trkpt lat="46.98906" lon="8.84668">
        <ele>1322</ele>
        <time>2021-08-04T07:49:44.810Z</time>
      </trkpt>
      <trkpt lat="46.98906" lon="8.84666">
        <ele>1322</ele>
        <time>2021-08-04T07:49:45.809Z</time>
      </trkpt>
      <trkpt lat="46.98906" lon="8.84664">
        <ele>1322</ele>
        <time>2021-08-04T07:49:46.809Z</time>
      </trkpt>
      <trkpt lat="46.98905" lon="8.84663">
        <ele>1323</ele>
        <time>2021-08-04T07:49:47.810Z</time>
      </trkpt>
      <trkpt lat="46.98905" lon="8.84661">
        <ele>1324</ele>
        <time>2021-08-04T07:49:48.809Z</time>
      </trkpt>
      <trkpt lat="46.98904" lon="8.8466">
        <ele>1324</ele>
        <time>2021-08-04T07:49:49.810Z</time>
      </trkpt>
      <trkpt lat="46.98904" lon="8.84659">
        <ele>1324</ele>
        <time>2021-08-04T07:49:50.809Z</time>
      </trkpt>
      <trkpt lat="46.98903" lon="8.84658">
        <ele>1325</ele>
        <time>2021-08-04T07:49:51.809Z</time>
      </trkpt>
      <trkpt lat="46.98902" lon="8.84656">
        <ele>1325</ele>
        <time>2021-08-04T07:49:52.810Z</time>
      </trkpt>
      <trkpt lat="46.98902" lon="8.84655">
        <ele>1326</ele>
        <time>2021-08-04T07:49:53.810Z</time>
      </trkpt>
      <trkpt lat="46.98902" lon="8.84654">
        <ele>1326</ele>
        <time>2021-08-04T07:49:54.810Z</time>
      </trkpt>
      <trkpt lat="46.98903" lon="8.84652">
        <ele>1327</ele>
        <time>2021-08-04T07:49:55.810Z</time>
      </trkpt>
      <trkpt lat="46.98903" lon="8.84651">
        <ele>1327</ele>
        <time>2021-08-04T07:49:56.809Z</time>
      </trkpt>
      <trkpt lat="46.98904" lon="8.84649">
        <ele>1327</ele>
        <time>2021-08-04T07:49:57.809Z</time>
      </trkpt>
      <trkpt lat="46.98905" lon="8.84647">
        <ele>1327</ele>
        <time>2021-08-04T07:49:58.809Z</time>
      </trkpt>
      <trkpt lat="46.98905" lon="8.84646">
        <ele>1327</ele>
        <time>2021-08-04T07:49:59.810Z</time>
      </trkpt>
      <trkpt lat="46.98906" lon="8.84644">
        <ele>1327</ele>
        <time>2021-08-04T07:50:00.810Z</time>
      </trkpt>
      <trkpt lat="46.98906" lon="8.84642">
        <ele>1327</ele>
        <time>2021-08-04T07:50:01.809Z</time>
      </trkpt>
      <trkpt lat="46.98906" lon="8.8464">
        <ele>1326</ele>
        <time>2021-08-04T07:50:02.809Z</time>
      </trkpt>
      <trkpt lat="46.98907" lon="8.84639">
        <ele>1326</ele>
        <time>2021-08-04T07:50:03.810Z</time>
      </trkpt>
      <trkpt lat="46.98908" lon="8.84637">
        <ele>1326</ele>
        <time>2021-08-04T07:50:04.810Z</time>
      </trkpt>
      <trkpt lat="46.98908" lon="8.84636">
        <ele>1325</ele>
        <time>2021-08-04T07:50:05.809Z</time>
      </trkpt>
      <trkpt lat="46.98908" lon="8.84634">
        <ele>1325</ele>
        <time>2021-08-04T07:50:06.810Z</time>
      </trkpt>
      <trkpt lat="46.98907" lon="8.84633">
        <ele>1324</ele>
        <time>2021-08-04T07:50:07.809Z</time>
      </trkpt>
      <trkpt lat="46.98906" lon="8.84632">
        <ele>1323</ele>
        <time>2021-08-04T07:50:08.810Z</time>
      </trkpt>
      <trkpt lat="46.98906" lon="8.8463">
        <ele>1323</ele>
        <time>2021-08-04T07:50:09.810Z</time>
      </trkpt>
      <trkpt lat="46.98905" lon="8.84629">
        <ele>1322</ele>
        <time>2021-08-04T07:50:10.809Z</time>
      </trkpt>
      <trkpt lat="46.98904" lon="8.84627">
        <ele>1321</ele>
        <time>2021-08-04T07:50:11.809Z</time>
      </trkpt>
      <trkpt lat="46.98904" lon="8.84626">
        <ele>1321</ele>
        <time>2021-08-04T07:50:12.810Z</time>
      </trkpt>
      <trkpt lat="46.98904" lon="8.84626">
        <ele>1320</ele>
        <time>2021-08-04T07:50:13.810Z</time>
      </trkpt>
      <trkpt lat="46.98904" lon="8.84625">
        <ele>1320</ele>
        <time>2021-08-04T07:50:14.810Z</time>
      </trkpt>
      <trkpt lat="46.98904" lon="8.84624">
        <ele>1320</ele>
        <time>2021-08-04T07:50:15.809Z</time>
      </trkpt>
      <trkpt lat="46.98903" lon="8.84623">
        <ele>1320</ele>
        <time>2021-08-04T07:50:16.810Z</time>
      </trkpt>
      <trkpt lat="46.98902" lon="8.84621">
        <ele>1321</ele>
        <time>2021-08-04T07:50:17.809Z</time>
      </trkpt>
      <trkpt lat="46.98901" lon="8.8462">
        <ele>1321</ele>
        <time>2021-08-04T07:50:18.809Z</time>
      </trkpt>
      <trkpt lat="46.989" lon="8.84618">
        <ele>1321</ele>
        <time>2021-08-04T07:50:19.809Z</time>
      </trkpt>
      <trkpt lat="46.98899" lon="8.84616">
        <ele>1320</ele>
        <time>2021-08-04T07:50:20.810Z</time>
      </trkpt>
      <trkpt lat="46.98898" lon="8.84615">
        <ele>1320</ele>
        <time>2021-08-04T07:50:21.809Z</time>
      </trkpt>
      <trkpt lat="46.98898" lon="8.84614">
        <ele>1320</ele>
        <time>2021-08-04T07:50:22.809Z</time>
      </trkpt>
      <trkpt lat="46.98897" lon="8.84612">
        <ele>1320</ele>
        <time>2021-08-04T07:50:23.809Z</time>
      </trkpt>
      <trkpt lat="46.98896" lon="8.84611">
        <ele>1320</ele>
        <time>2021-08-04T07:50:24.809Z</time>
      </trkpt>
      <trkpt lat="46.98895" lon="8.84611">
        <ele>1319</ele>
        <time>2021-08-04T07:50:25.809Z</time>
      </trkpt>
      <trkpt lat="46.98894" lon="8.8461">
        <ele>1319</ele>
        <time>2021-08-04T07:50:26.809Z</time>
      </trkpt>
      <trkpt lat="46.98893" lon="8.84609">
        <ele>1319</ele>
        <time>2021-08-04T07:50:27.809Z</time>
      </trkpt>
      <trkpt lat="46.98892" lon="8.84607">
        <ele>1318</ele>
        <time>2021-08-04T07:50:28.809Z</time>
      </trkpt>
      <trkpt lat="46.98892" lon="8.84605">
        <ele>1318</ele>
        <time>2021-08-04T07:50:29.809Z</time>
      </trkpt>
      <trkpt lat="46.98891" lon="8.84604">
        <ele>1318</ele>
        <time>2021-08-04T07:50:30.809Z</time>
      </trkpt>
      <trkpt lat="46.9889" lon="8.84603">
        <ele>1317</ele>
        <time>2021-08-04T07:50:31.809Z</time>
      </trkpt>
      <trkpt lat="46.98889" lon="8.84601">
        <ele>1317</ele>
        <time>2021-08-04T07:50:32.809Z</time>
      </trkpt>
      <trkpt lat="46.98888" lon="8.846">
        <ele>1317</ele>
        <time>2021-08-04T07:50:33.809Z</time>
      </trkpt>
      <trkpt lat="46.98887" lon="8.84599">
        <ele>1316</ele>
        <time>2021-08-04T07:50:34.810Z</time>
      </trkpt>
      <trkpt lat="46.98887" lon="8.84597">
        <ele>1316</ele>
        <time>2021-08-04T07:50:35.810Z</time>
      </trkpt>
      <trkpt lat="46.98886" lon="8.84596">
        <ele>1316</ele>
        <time>2021-08-04T07:50:36.809Z</time>
      </trkpt>
      <trkpt lat="46.98885" lon="8.84594">
        <ele>1316</ele>
        <time>2021-08-04T07:50:37.810Z</time>
      </trkpt>
      <trkpt lat="46.98885" lon="8.84593">
        <ele>1316</ele>
        <time>2021-08-04T07:50:38.809Z</time>
      </trkpt>
      <trkpt lat="46.98884" lon="8.84591">
        <ele>1315</ele>
        <time>2021-08-04T07:50:39.810Z</time>
      </trkpt>
      <trkpt lat="46.98884" lon="8.84589">
        <ele>1315</ele>
        <time>2021-08-04T07:50:40.810Z</time>
      </trkpt>
      <trkpt lat="46.98884" lon="8.84588">
        <ele>1314</ele>
        <time>2021-08-04T07:50:41.810Z</time>
      </trkpt>
      <trkpt lat="46.98884" lon="8.84587">
        <ele>1314</ele>
        <time>2021-08-04T07:50:42.810Z</time>
      </trkpt>
      <trkpt lat="46.98883" lon="8.84586">
        <ele>1314</ele>
        <time>2021-08-04T07:50:43.810Z</time>
      </trkpt>
      <trkpt lat="46.98882" lon="8.84585">
        <ele>1314</ele>
        <time>2021-08-04T07:50:44.809Z</time>
      </trkpt>
      <trkpt lat="46.98881" lon="8.84584">
        <ele>1314</ele>
        <time>2021-08-04T07:50:45.810Z</time>
      </trkpt>
      <trkpt lat="46.9888" lon="8.84583">
        <ele>1314</ele>
        <time>2021-08-04T07:50:46.810Z</time>
      </trkpt>
      <trkpt lat="46.98879" lon="8.84582">
        <ele>1314</ele>
        <time>2021-08-04T07:50:47.810Z</time>
      </trkpt>
      <trkpt lat="46.98878" lon="8.84581">
        <ele>1314</ele>
        <time>2021-08-04T07:50:48.810Z</time>
      </trkpt>
      <trkpt lat="46.98878" lon="8.8458">
        <ele>1314</ele>
        <time>2021-08-04T07:50:49.810Z</time>
      </trkpt>
      <trkpt lat="46.98877" lon="8.84579">
        <ele>1313</ele>
        <time>2021-08-04T07:50:50.810Z</time>
      </trkpt>
      <trkpt lat="46.98876" lon="8.84578">
        <ele>1313</ele>
        <time>2021-08-04T07:50:51.810Z</time>
      </trkpt>
      <trkpt lat="46.98875" lon="8.84577">
        <ele>1313</ele>
        <time>2021-08-04T07:50:52.809Z</time>
      </trkpt>
      <trkpt lat="46.98874" lon="8.84575">
        <ele>1313</ele>
        <time>2021-08-04T07:50:53.810Z</time>
      </trkpt>
      <trkpt lat="46.98872" lon="8.84573">
        <ele>1313</ele>
        <time>2021-08-04T07:50:54.810Z</time>
      </trkpt>
      <trkpt lat="46.98871" lon="8.8457">
        <ele>1313</ele>
        <time>2021-08-04T07:50:55.810Z</time>
      </trkpt>
      <trkpt lat="46.9887" lon="8.84568">
        <ele>1313</ele>
        <time>2021-08-04T07:50:56.809Z</time>
      </trkpt>
      <trkpt lat="46.9887" lon="8.84567">
        <ele>1314</ele>
        <time>2021-08-04T07:50:57.810Z</time>
      </trkpt>
      <trkpt lat="46.9887" lon="8.84565">
        <ele>1314</ele>
        <time>2021-08-04T07:50:58.810Z</time>
      </trkpt>
      <trkpt lat="46.9887" lon="8.84563">
        <ele>1314</ele>
        <time>2021-08-04T07:50:59.810Z</time>
      </trkpt>
      <trkpt lat="46.98871" lon="8.84562">
        <ele>1314</ele>
        <time>2021-08-04T07:51:00.810Z</time>
      </trkpt>
      <trkpt lat="46.98871" lon="8.8456">
        <ele>1314</ele>
        <time>2021-08-04T07:51:01.809Z</time>
      </trkpt>
      <trkpt lat="46.98871" lon="8.84558">
        <ele>1314</ele>
        <time>2021-08-04T07:51:02.810Z</time>
      </trkpt>
      <trkpt lat="46.98871" lon="8.84557">
        <ele>1313</ele>
        <time>2021-08-04T07:51:03.809Z</time>
      </trkpt>
      <trkpt lat="46.9887" lon="8.84555">
        <ele>1313</ele>
        <time>2021-08-04T07:51:04.810Z</time>
      </trkpt>
      <trkpt lat="46.9887" lon="8.84553">
        <ele>1312</ele>
        <time>2021-08-04T07:51:05.810Z</time>
      </trkpt>
      <trkpt lat="46.9887" lon="8.84551">
        <ele>1312</ele>
        <time>2021-08-04T07:51:06.810Z</time>
      </trkpt>
      <trkpt lat="46.9887" lon="8.84549">
        <ele>1312</ele>
        <time>2021-08-04T07:51:07.810Z</time>
      </trkpt>
      <trkpt lat="46.98869" lon="8.84548">
        <ele>1312</ele>
        <time>2021-08-04T07:51:08.810Z</time>
      </trkpt>
      <trkpt lat="46.98868" lon="8.84546">
        <ele>1312</ele>
        <time>2021-08-04T07:51:09.809Z</time>
      </trkpt>
      <trkpt lat="46.98868" lon="8.84544">
        <ele>1312</ele>
        <time>2021-08-04T07:51:10.810Z</time>
      </trkpt>
      <trkpt lat="46.98868" lon="8.84542">
        <ele>1312</ele>
        <time>2021-08-04T07:51:11.810Z</time>
      </trkpt>
      <trkpt lat="46.98867" lon="8.84541">
        <ele>1312</ele>
        <time>2021-08-04T07:51:12.810Z</time>
      </trkpt>
      <trkpt lat="46.98867" lon="8.84539">
        <ele>1312</ele>
        <time>2021-08-04T07:51:13.810Z</time>
      </trkpt>
      <trkpt lat="46.98867" lon="8.84538">
        <ele>1311</ele>
        <time>2021-08-04T07:51:14.810Z</time>
      </trkpt>
      <trkpt lat="46.98866" lon="8.84536">
        <ele>1311</ele>
        <time>2021-08-04T07:51:15.810Z</time>
      </trkpt>
      <trkpt lat="46.98866" lon="8.84535">
        <ele>1311</ele>
        <time>2021-08-04T07:51:16.810Z</time>
      </trkpt>
      <trkpt lat="46.98866" lon="8.84533">
        <ele>1310</ele>
        <time>2021-08-04T07:51:17.810Z</time>
      </trkpt>
      <trkpt lat="46.98866" lon="8.84532">
        <ele>1310</ele>
        <time>2021-08-04T07:51:18.810Z</time>
      </trkpt>
      <trkpt lat="46.98865" lon="8.8453">
        <ele>1310</ele>
        <time>2021-08-04T07:51:19.809Z</time>
      </trkpt>
      <trkpt lat="46.98865" lon="8.84528">
        <ele>1309</ele>
        <time>2021-08-04T07:51:20.810Z</time>
      </trkpt>
      <trkpt lat="46.98864" lon="8.84526">
        <ele>1309</ele>
        <time>2021-08-04T07:51:21.810Z</time>
      </trkpt>
      <trkpt lat="46.98864" lon="8.84525">
        <ele>1308</ele>
        <time>2021-08-04T07:51:22.809Z</time>
      </trkpt>
      <trkpt lat="46.98865" lon="8.84523">
        <ele>1308</ele>
        <time>2021-08-04T07:51:23.809Z</time>
      </trkpt>
      <trkpt lat="46.98865" lon="8.84521">
        <ele>1308</ele>
        <time>2021-08-04T07:51:24.810Z</time>
      </trkpt>
      <trkpt lat="46.98865" lon="8.8452">
        <ele>1307</ele>
        <time>2021-08-04T07:51:25.810Z</time>
      </trkpt>
      <trkpt lat="46.98865" lon="8.84518">
        <ele>1307</ele>
        <time>2021-08-04T07:51:26.809Z</time>
      </trkpt>
      <trkpt lat="46.98865" lon="8.84516">
        <ele>1307</ele>
        <time>2021-08-04T07:51:27.810Z</time>
      </trkpt>
      <trkpt lat="46.98864" lon="8.84515">
        <ele>1306</ele>
        <time>2021-08-04T07:51:28.809Z</time>
      </trkpt>
      <trkpt lat="46.98863" lon="8.84513">
        <ele>1306</ele>
        <time>2021-08-04T07:51:29.809Z</time>
      </trkpt>
      <trkpt lat="46.98862" lon="8.84512">
        <ele>1305</ele>
        <time>2021-08-04T07:51:30.810Z</time>
      </trkpt>
      <trkpt lat="46.98862" lon="8.8451">
        <ele>1305</ele>
        <time>2021-08-04T07:51:31.809Z</time>
      </trkpt>
      <trkpt lat="46.98862" lon="8.84508">
        <ele>1304</ele>
        <time>2021-08-04T07:51:32.809Z</time>
      </trkpt>
      <trkpt lat="46.98862" lon="8.84506">
        <ele>1304</ele>
        <time>2021-08-04T07:51:33.810Z</time>
      </trkpt>
      <trkpt lat="46.98863" lon="8.84504">
        <ele>1304</ele>
        <time>2021-08-04T07:51:34.810Z</time>
      </trkpt>
      <trkpt lat="46.98863" lon="8.84503">
        <ele>1304</ele>
        <time>2021-08-04T07:51:35.810Z</time>
      </trkpt>
      <trkpt lat="46.98862" lon="8.84502">
        <ele>1304</ele>
        <time>2021-08-04T07:51:36.810Z</time>
      </trkpt>
      <trkpt lat="46.98862" lon="8.845">
        <ele>1304</ele>
        <time>2021-08-04T07:51:37.810Z</time>
      </trkpt>
      <trkpt lat="46.98862" lon="8.84498">
        <ele>1304</ele>
        <time>2021-08-04T07:51:38.810Z</time>
      </trkpt>
      <trkpt lat="46.98862" lon="8.84496">
        <ele>1304</ele>
        <time>2021-08-04T07:51:39.810Z</time>
      </trkpt>
      <trkpt lat="46.98862" lon="8.84494">
        <ele>1304</ele>
        <time>2021-08-04T07:51:40.810Z</time>
      </trkpt>
      <trkpt lat="46.98861" lon="8.84492">
        <ele>1304</ele>
        <time>2021-08-04T07:51:41.810Z</time>
      </trkpt>
      <trkpt lat="46.98861" lon="8.84491">
        <ele>1304</ele>
        <time>2021-08-04T07:51:42.809Z</time>
      </trkpt>
      <trkpt lat="46.98861" lon="8.84489">
        <ele>1304</ele>
        <time>2021-08-04T07:51:43.810Z</time>
      </trkpt>
      <trkpt lat="46.9886" lon="8.84487">
        <ele>1305</ele>
        <time>2021-08-04T07:51:44.810Z</time>
      </trkpt>
      <trkpt lat="46.9886" lon="8.84485">
        <ele>1305</ele>
        <time>2021-08-04T07:51:45.810Z</time>
      </trkpt>
      <trkpt lat="46.9886" lon="8.84484">
        <ele>1304</ele>
        <time>2021-08-04T07:51:46.810Z</time>
      </trkpt>
      <trkpt lat="46.9886" lon="8.84482">
        <ele>1304</ele>
        <time>2021-08-04T07:51:47.810Z</time>
      </trkpt>
      <trkpt lat="46.98859" lon="8.8448">
        <ele>1304</ele>
        <time>2021-08-04T07:51:48.810Z</time>
      </trkpt>
      <trkpt lat="46.98859" lon="8.84479">
        <ele>1304</ele>
        <time>2021-08-04T07:51:49.810Z</time>
      </trkpt>
      <trkpt lat="46.98859" lon="8.84478">
        <ele>1305</ele>
        <time>2021-08-04T07:51:50.809Z</time>
      </trkpt>
      <trkpt lat="46.98859" lon="8.84476">
        <ele>1305</ele>
        <time>2021-08-04T07:51:51.810Z</time>
      </trkpt>
      <trkpt lat="46.98859" lon="8.84475">
        <ele>1306</ele>
        <time>2021-08-04T07:51:52.810Z</time>
      </trkpt>
      <trkpt lat="46.98859" lon="8.84474">
        <ele>1306</ele>
        <time>2021-08-04T07:51:53.810Z</time>
      </trkpt>
      <trkpt lat="46.98858" lon="8.84472">
        <ele>1307</ele>
        <time>2021-08-04T07:51:54.810Z</time>
      </trkpt>
      <trkpt lat="46.98858" lon="8.8447">
        <ele>1307</ele>
        <time>2021-08-04T07:51:55.810Z</time>
      </trkpt>
      <trkpt lat="46.98857" lon="8.84468">
        <ele>1307</ele>
        <time>2021-08-04T07:51:56.810Z</time>
      </trkpt>
      <trkpt lat="46.98857" lon="8.84467">
        <ele>1308</ele>
        <time>2021-08-04T07:51:57.809Z</time>
      </trkpt>
      <trkpt lat="46.98856" lon="8.84465">
        <ele>1308</ele>
        <time>2021-08-04T07:51:58.810Z</time>
      </trkpt>
      <trkpt lat="46.98856" lon="8.84463">
        <ele>1307</ele>
        <time>2021-08-04T07:51:59.810Z</time>
      </trkpt>
      <trkpt lat="46.98855" lon="8.84462">
        <ele>1307</ele>
        <time>2021-08-04T07:52:00.809Z</time>
      </trkpt>
      <trkpt lat="46.98855" lon="8.8446">
        <ele>1308</ele>
        <time>2021-08-04T07:52:01.809Z</time>
      </trkpt>
      <trkpt lat="46.98854" lon="8.84458">
        <ele>1308</ele>
        <time>2021-08-04T07:52:02.810Z</time>
      </trkpt>
      <trkpt lat="46.98854" lon="8.84456">
        <ele>1308</ele>
        <time>2021-08-04T07:52:03.809Z</time>
      </trkpt>
      <trkpt lat="46.98853" lon="8.84455">
        <ele>1308</ele>
        <time>2021-08-04T07:52:04.810Z</time>
      </trkpt>
      <trkpt lat="46.98853" lon="8.84453">
        <ele>1307</ele>
        <time>2021-08-04T07:52:05.809Z</time>
      </trkpt>
      <trkpt lat="46.98854" lon="8.84453">
        <ele>1307</ele>
        <time>2021-08-04T07:52:06.809Z</time>
      </trkpt>
      <trkpt lat="46.98854" lon="8.84452">
        <ele>1307</ele>
        <time>2021-08-04T07:52:07.810Z</time>
      </trkpt>
      <trkpt lat="46.98854" lon="8.84452">
        <ele>1307</ele>
        <time>2021-08-04T07:52:08.810Z</time>
      </trkpt>
      <trkpt lat="46.98852" lon="8.8445">
        <ele>1307</ele>
        <time>2021-08-04T07:52:09.810Z</time>
      </trkpt>
      <trkpt lat="46.98852" lon="8.8445">
        <ele>1307</ele>
        <time>2021-08-04T07:52:10.810Z</time>
      </trkpt>
      <trkpt lat="46.98851" lon="8.8445">
        <ele>1307</ele>
        <time>2021-08-04T07:52:11.810Z</time>
      </trkpt>
      <trkpt lat="46.98851" lon="8.8445">
        <ele>1307</ele>
        <time>2021-08-04T07:52:12.810Z</time>
      </trkpt>
      <trkpt lat="46.9885" lon="8.84449">
        <ele>1297</ele>
        <time>2021-08-04T07:52:13.811Z</time>
      </trkpt>
      <trkpt lat="46.9885" lon="8.8445">
        <ele>1296</ele>
        <time>2021-08-04T07:52:14.811Z</time>
      </trkpt>
      <trkpt lat="46.9885" lon="8.8445">
        <ele>1296</ele>
        <time>2021-08-04T07:52:15.811Z</time>
      </trkpt>
      <trkpt lat="46.9885" lon="8.8445">
        <ele>1296</ele>
        <time>2021-08-04T07:52:16.810Z</time>
      </trkpt>
      <trkpt lat="46.98851" lon="8.84451">
        <ele>1296</ele>
        <time>2021-08-04T07:52:17.810Z</time>
      </trkpt>
      <trkpt lat="46.98851" lon="8.84453">
        <ele>1296</ele>
        <time>2021-08-04T07:52:18.811Z</time>
      </trkpt>
      <trkpt lat="46.98852" lon="8.84454">
        <ele>1296</ele>
        <time>2021-08-04T07:52:19.811Z</time>
      </trkpt>
      <trkpt lat="46.98852" lon="8.84454">
        <ele>1297</ele>
        <time>2021-08-04T07:52:20.811Z</time>
      </trkpt>
      <trkpt lat="46.98852" lon="8.84454">
        <ele>1297</ele>
        <time>2021-08-04T07:52:21.810Z</time>
      </trkpt>
      <trkpt lat="46.98852" lon="8.84452">
        <ele>1292</ele>
        <time>2021-08-04T07:52:22.812Z</time>
      </trkpt>
      <trkpt lat="46.98851" lon="8.84451">
        <ele>1292</ele>
        <time>2021-08-04T07:52:23.812Z</time>
      </trkpt>
      <trkpt lat="46.98851" lon="8.8445">
        <ele>1292</ele>
        <time>2021-08-04T07:52:24.812Z</time>
      </trkpt>
      <trkpt lat="46.98854" lon="8.84446">
        <ele>1282</ele>
        <time>2021-08-04T07:52:25.814Z</time>
      </trkpt>
      <trkpt lat="46.98853" lon="8.84445">
        <ele>1282</ele>
        <time>2021-08-04T07:52:26.813Z</time>
      </trkpt>
      <trkpt lat="46.98851" lon="8.84443">
        <ele>1288</ele>
        <time>2021-08-04T07:52:27.815Z</time>
      </trkpt>
      <trkpt lat="46.98851" lon="8.84443">
        <ele>1289</ele>
        <time>2021-08-04T07:52:28.814Z</time>
      </trkpt>
      <trkpt lat="46.98851" lon="8.84443">
        <ele>1290</ele>
        <time>2021-08-04T07:52:29.814Z</time>
      </trkpt>
      <trkpt lat="46.98852" lon="8.84444">
        <ele>1295</ele>
        <time>2021-08-04T07:52:30.815Z</time>
      </trkpt>
      <trkpt lat="46.98852" lon="8.84443">
        <ele>1296</ele>
        <time>2021-08-04T07:52:31.814Z</time>
      </trkpt>
      <trkpt lat="46.98852" lon="8.84442">
        <ele>1297</ele>
        <time>2021-08-04T07:52:32.814Z</time>
      </trkpt>
      <trkpt lat="46.98851" lon="8.8444">
        <ele>1297</ele>
        <time>2021-08-04T07:52:33.815Z</time>
      </trkpt>
      <trkpt lat="46.98851" lon="8.84439">
        <ele>1297</ele>
        <time>2021-08-04T07:52:34.814Z</time>
      </trkpt>
      <trkpt lat="46.9885" lon="8.84437">
        <ele>1298</ele>
        <time>2021-08-04T07:52:35.814Z</time>
      </trkpt>
      <trkpt lat="46.9885" lon="8.84436">
        <ele>1299</ele>
        <time>2021-08-04T07:52:36.815Z</time>
      </trkpt>
      <trkpt lat="46.98849" lon="8.84434">
        <ele>1299</ele>
        <time>2021-08-04T07:52:37.815Z</time>
      </trkpt>
      <trkpt lat="46.98849" lon="8.84433">
        <ele>1300</ele>
        <time>2021-08-04T07:52:38.815Z</time>
      </trkpt>
      <trkpt lat="46.98849" lon="8.84432">
        <ele>1300</ele>
        <time>2021-08-04T07:52:39.814Z</time>
      </trkpt>
      <trkpt lat="46.98848" lon="8.84431">
        <ele>1301</ele>
        <time>2021-08-04T07:52:40.815Z</time>
      </trkpt>
      <trkpt lat="46.98848" lon="8.8443">
        <ele>1302</ele>
        <time>2021-08-04T07:52:41.815Z</time>
      </trkpt>
      <trkpt lat="46.98847" lon="8.84428">
        <ele>1302</ele>
        <time>2021-08-04T07:52:42.814Z</time>
      </trkpt>
      <trkpt lat="46.98848" lon="8.84427">
        <ele>1302</ele>
        <time>2021-08-04T07:52:43.815Z</time>
      </trkpt>
      <trkpt lat="46.98848" lon="8.84426">
        <ele>1303</ele>
        <time>2021-08-04T07:52:44.815Z</time>
      </trkpt>
      <trkpt lat="46.98848" lon="8.84424">
        <ele>1303</ele>
        <time>2021-08-04T07:52:45.815Z</time>
      </trkpt>
      <trkpt lat="46.98847" lon="8.84423">
        <ele>1303</ele>
        <time>2021-08-04T07:52:46.815Z</time>
      </trkpt>
      <trkpt lat="46.98847" lon="8.84421">
        <ele>1304</ele>
        <time>2021-08-04T07:52:47.814Z</time>
      </trkpt>
      <trkpt lat="46.98846" lon="8.8442">
        <ele>1304</ele>
        <time>2021-08-04T07:52:48.814Z</time>
      </trkpt>
      <trkpt lat="46.98846" lon="8.84419">
        <ele>1304</ele>
        <time>2021-08-04T07:52:49.815Z</time>
      </trkpt>
      <trkpt lat="46.98847" lon="8.84417">
        <ele>1304</ele>
        <time>2021-08-04T07:52:50.815Z</time>
      </trkpt>
      <trkpt lat="46.98847" lon="8.84416">
        <ele>1304</ele>
        <time>2021-08-04T07:52:51.814Z</time>
      </trkpt>
      <trkpt lat="46.98847" lon="8.84414">
        <ele>1304</ele>
        <time>2021-08-04T07:52:52.815Z</time>
      </trkpt>
      <trkpt lat="46.98847" lon="8.84413">
        <ele>1304</ele>
        <time>2021-08-04T07:52:53.814Z</time>
      </trkpt>
      <trkpt lat="46.98846" lon="8.84411">
        <ele>1305</ele>
        <time>2021-08-04T07:52:54.814Z</time>
      </trkpt>
      <trkpt lat="46.98845" lon="8.8441">
        <ele>1305</ele>
        <time>2021-08-04T07:52:55.814Z</time>
      </trkpt>
      <trkpt lat="46.98845" lon="8.84408">
        <ele>1305</ele>
        <time>2021-08-04T07:52:56.814Z</time>
      </trkpt>
      <trkpt lat="46.98844" lon="8.84407">
        <ele>1305</ele>
        <time>2021-08-04T07:52:57.814Z</time>
      </trkpt>
      <trkpt lat="46.98844" lon="8.84405">
        <ele>1305</ele>
        <time>2021-08-04T07:52:58.815Z</time>
      </trkpt>
      <trkpt lat="46.98843" lon="8.84404">
        <ele>1306</ele>
        <time>2021-08-04T07:52:59.815Z</time>
      </trkpt>
      <trkpt lat="46.98843" lon="8.84402">
        <ele>1306</ele>
        <time>2021-08-04T07:53:00.815Z</time>
      </trkpt>
      <trkpt lat="46.98842" lon="8.84401">
        <ele>1306</ele>
        <time>2021-08-04T07:53:01.815Z</time>
      </trkpt>
      <trkpt lat="46.98842" lon="8.84399">
        <ele>1306</ele>
        <time>2021-08-04T07:53:02.814Z</time>
      </trkpt>
      <trkpt lat="46.98842" lon="8.84398">
        <ele>1306</ele>
        <time>2021-08-04T07:53:03.815Z</time>
      </trkpt>
      <trkpt lat="46.98841" lon="8.84396">
        <ele>1305</ele>
        <time>2021-08-04T07:53:04.814Z</time>
      </trkpt>
      <trkpt lat="46.98841" lon="8.84395">
        <ele>1305</ele>
        <time>2021-08-04T07:53:05.815Z</time>
      </trkpt>
      <trkpt lat="46.9884" lon="8.84393">
        <ele>1305</ele>
        <time>2021-08-04T07:53:06.815Z</time>
      </trkpt>
      <trkpt lat="46.9884" lon="8.84392">
        <ele>1305</ele>
        <time>2021-08-04T07:53:07.814Z</time>
      </trkpt>
      <trkpt lat="46.9884" lon="8.84391">
        <ele>1305</ele>
        <time>2021-08-04T07:53:08.815Z</time>
      </trkpt>
      <trkpt lat="46.9884" lon="8.84389">
        <ele>1305</ele>
        <time>2021-08-04T07:53:09.815Z</time>
      </trkpt>
      <trkpt lat="46.98839" lon="8.84388">
        <ele>1305</ele>
        <time>2021-08-04T07:53:10.815Z</time>
      </trkpt>
      <trkpt lat="46.9884" lon="8.84388">
        <ele>1305</ele>
        <time>2021-08-04T07:53:11.815Z</time>
      </trkpt>
      <trkpt lat="46.9884" lon="8.84387">
        <ele>1304</ele>
        <time>2021-08-04T07:53:12.815Z</time>
      </trkpt>
      <trkpt lat="46.9884" lon="8.84386">
        <ele>1304</ele>
        <time>2021-08-04T07:53:13.815Z</time>
      </trkpt>
      <trkpt lat="46.9884" lon="8.84385">
        <ele>1304</ele>
        <time>2021-08-04T07:53:14.815Z</time>
      </trkpt>
      <trkpt lat="46.98839" lon="8.84385">
        <ele>1304</ele>
        <time>2021-08-04T07:53:15.815Z</time>
      </trkpt>
      <trkpt lat="46.98839" lon="8.84384">
        <ele>1304</ele>
        <time>2021-08-04T07:53:16.814Z</time>
      </trkpt>
      <trkpt lat="46.98838" lon="8.84384">
        <ele>1304</ele>
        <time>2021-08-04T07:53:17.814Z</time>
      </trkpt>
      <trkpt lat="46.98838" lon="8.84384">
        <ele>1304</ele>
        <time>2021-08-04T07:53:18.814Z</time>
      </trkpt>
      <trkpt lat="46.98838" lon="8.84386">
        <ele>1302</ele>
        <time>2021-08-04T07:53:19.816Z</time>
      </trkpt>
      <trkpt lat="46.98839" lon="8.84386">
        <ele>1292</ele>
        <time>2021-08-04T07:53:20.815Z</time>
      </trkpt>
      <trkpt lat="46.98839" lon="8.84385">
        <ele>1291</ele>
        <time>2021-08-04T07:53:21.816Z</time>
      </trkpt>
      <trkpt lat="46.98838" lon="8.84384">
        <ele>1291</ele>
        <time>2021-08-04T07:53:22.817Z</time>
      </trkpt>
      <trkpt lat="46.98838" lon="8.84385">
        <ele>1292</ele>
        <time>2021-08-04T07:53:23.816Z</time>
      </trkpt>
      <trkpt lat="46.98838" lon="8.84382">
        <ele>1297</ele>
        <time>2021-08-04T07:53:24.817Z</time>
      </trkpt>
      <trkpt lat="46.98837" lon="8.84381">
        <ele>1297</ele>
        <time>2021-08-04T07:53:25.817Z</time>
      </trkpt>
      <trkpt lat="46.98837" lon="8.8438">
        <ele>1297</ele>
        <time>2021-08-04T07:53:26.817Z</time>
      </trkpt>
      <trkpt lat="46.98837" lon="8.8438">
        <ele>1297</ele>
        <time>2021-08-04T07:53:27.816Z</time>
      </trkpt>
      <trkpt lat="46.98838" lon="8.8438">
        <ele>1297</ele>
        <time>2021-08-04T07:53:28.817Z</time>
      </trkpt>
      <trkpt lat="46.98838" lon="8.8438">
        <ele>1298</ele>
        <time>2021-08-04T07:53:29.816Z</time>
      </trkpt>
      <trkpt lat="46.98838" lon="8.8438">
        <ele>1298</ele>
        <time>2021-08-04T07:53:30.817Z</time>
      </trkpt>
      <trkpt lat="46.98837" lon="8.84378">
        <ele>1299</ele>
        <time>2021-08-04T07:53:31.817Z</time>
      </trkpt>
      <trkpt lat="46.98837" lon="8.84376">
        <ele>1299</ele>
        <time>2021-08-04T07:53:32.817Z</time>
      </trkpt>
      <trkpt lat="46.98836" lon="8.84375">
        <ele>1300</ele>
        <time>2021-08-04T07:53:33.817Z</time>
      </trkpt>
      <trkpt lat="46.98835" lon="8.84374">
        <ele>1300</ele>
        <time>2021-08-04T07:53:34.817Z</time>
      </trkpt>
      <trkpt lat="46.98835" lon="8.84373">
        <ele>1301</ele>
        <time>2021-08-04T07:53:35.817Z</time>
      </trkpt>
      <trkpt lat="46.98834" lon="8.84372">
        <ele>1301</ele>
        <time>2021-08-04T07:53:36.816Z</time>
      </trkpt>
      <trkpt lat="46.98833" lon="8.84371">
        <ele>1301</ele>
        <time>2021-08-04T07:53:37.817Z</time>
      </trkpt>
      <trkpt lat="46.98833" lon="8.8437">
        <ele>1301</ele>
        <time>2021-08-04T07:53:38.817Z</time>
      </trkpt>
      <trkpt lat="46.98833" lon="8.84368">
        <ele>1302</ele>
        <time>2021-08-04T07:53:39.816Z</time>
      </trkpt>
      <trkpt lat="46.98833" lon="8.84367">
        <ele>1302</ele>
        <time>2021-08-04T07:53:40.816Z</time>
      </trkpt>
      <trkpt lat="46.98833" lon="8.84366">
        <ele>1302</ele>
        <time>2021-08-04T07:53:41.817Z</time>
      </trkpt>
      <trkpt lat="46.98833" lon="8.84365">
        <ele>1302</ele>
        <time>2021-08-04T07:53:42.817Z</time>
      </trkpt>
      <trkpt lat="46.98833" lon="8.84364">
        <ele>1302</ele>
        <time>2021-08-04T07:53:43.817Z</time>
      </trkpt>
      <trkpt lat="46.98833" lon="8.84363">
        <ele>1303</ele>
        <time>2021-08-04T07:53:44.816Z</time>
      </trkpt>
      <trkpt lat="46.98833" lon="8.84361">
        <ele>1303</ele>
        <time>2021-08-04T07:53:45.816Z</time>
      </trkpt>
      <trkpt lat="46.98832" lon="8.84359">
        <ele>1303</ele>
        <time>2021-08-04T07:53:46.816Z</time>
      </trkpt>
      <trkpt lat="46.98832" lon="8.84358">
        <ele>1303</ele>
        <time>2021-08-04T07:53:47.816Z</time>
      </trkpt>
      <trkpt lat="46.98832" lon="8.84356">
        <ele>1302</ele>
        <time>2021-08-04T07:53:48.816Z</time>
      </trkpt>
      <trkpt lat="46.98832" lon="8.84355">
        <ele>1302</ele>
        <time>2021-08-04T07:53:49.817Z</time>
      </trkpt>
      <trkpt lat="46.98832" lon="8.84354">
        <ele>1301</ele>
        <time>2021-08-04T07:53:50.816Z</time>
      </trkpt>
      <trkpt lat="46.98831" lon="8.84352">
        <ele>1301</ele>
        <time>2021-08-04T07:53:51.817Z</time>
      </trkpt>
      <trkpt lat="46.98831" lon="8.84351">
        <ele>1301</ele>
        <time>2021-08-04T07:53:52.816Z</time>
      </trkpt>
      <trkpt lat="46.98831" lon="8.8435">
        <ele>1300</ele>
        <time>2021-08-04T07:53:53.817Z</time>
      </trkpt>
      <trkpt lat="46.98832" lon="8.84348">
        <ele>1300</ele>
        <time>2021-08-04T07:53:54.817Z</time>
      </trkpt>
      <trkpt lat="46.98832" lon="8.84347">
        <ele>1300</ele>
        <time>2021-08-04T07:53:55.816Z</time>
      </trkpt>
      <trkpt lat="46.98832" lon="8.84346">
        <ele>1300</ele>
        <time>2021-08-04T07:53:56.817Z</time>
      </trkpt>
      <trkpt lat="46.98832" lon="8.84344">
        <ele>1300</ele>
        <time>2021-08-04T07:53:57.817Z</time>
      </trkpt>
      <trkpt lat="46.98831" lon="8.84343">
        <ele>1300</ele>
        <time>2021-08-04T07:53:58.817Z</time>
      </trkpt>
      <trkpt lat="46.98831" lon="8.84341">
        <ele>1300</ele>
        <time>2021-08-04T07:53:59.817Z</time>
      </trkpt>
      <trkpt lat="46.9883" lon="8.84339">
        <ele>1300</ele>
        <time>2021-08-04T07:54:00.817Z</time>
      </trkpt>
      <trkpt lat="46.9883" lon="8.84337">
        <ele>1300</ele>
        <time>2021-08-04T07:54:01.816Z</time>
      </trkpt>
      <trkpt lat="46.9883" lon="8.84335">
        <ele>1300</ele>
        <time>2021-08-04T07:54:02.817Z</time>
      </trkpt>
      <trkpt lat="46.9883" lon="8.84333">
        <ele>1299</ele>
        <time>2021-08-04T07:54:03.816Z</time>
      </trkpt>
      <trkpt lat="46.9883" lon="8.84332">
        <ele>1299</ele>
        <time>2021-08-04T07:54:04.817Z</time>
      </trkpt>
      <trkpt lat="46.9883" lon="8.8433">
        <ele>1299</ele>
        <time>2021-08-04T07:54:05.817Z</time>
      </trkpt>
      <trkpt lat="46.9883" lon="8.84329">
        <ele>1299</ele>
        <time>2021-08-04T07:54:06.816Z</time>
      </trkpt>
      <trkpt lat="46.9883" lon="8.84328">
        <ele>1299</ele>
        <time>2021-08-04T07:54:07.816Z</time>
      </trkpt>
      <trkpt lat="46.9883" lon="8.84326">
        <ele>1299</ele>
        <time>2021-08-04T07:54:08.817Z</time>
      </trkpt>
      <trkpt lat="46.9883" lon="8.84325">
        <ele>1298</ele>
        <time>2021-08-04T07:54:09.817Z</time>
      </trkpt>
      <trkpt lat="46.9883" lon="8.84323">
        <ele>1298</ele>
        <time>2021-08-04T07:54:10.817Z</time>
      </trkpt>
      <trkpt lat="46.9883" lon="8.84321">
        <ele>1298</ele>
        <time>2021-08-04T07:54:11.817Z</time>
      </trkpt>
      <trkpt lat="46.9883" lon="8.84319">
        <ele>1298</ele>
        <time>2021-08-04T07:54:12.817Z</time>
      </trkpt>
      <trkpt lat="46.9883" lon="8.84317">
        <ele>1298</ele>
        <time>2021-08-04T07:54:13.816Z</time>
      </trkpt>
      <trkpt lat="46.98829" lon="8.84315">
        <ele>1298</ele>
        <time>2021-08-04T07:54:14.817Z</time>
      </trkpt>
      <trkpt lat="46.98829" lon="8.84314">
        <ele>1298</ele>
        <time>2021-08-04T07:54:15.816Z</time>
      </trkpt>
      <trkpt lat="46.98829" lon="8.84312">
        <ele>1298</ele>
        <time>2021-08-04T07:54:16.817Z</time>
      </trkpt>
      <trkpt lat="46.98829" lon="8.84311">
        <ele>1298</ele>
        <time>2021-08-04T07:54:17.816Z</time>
      </trkpt>
      <trkpt lat="46.98829" lon="8.84309">
        <ele>1297</ele>
        <time>2021-08-04T07:54:18.817Z</time>
      </trkpt>
      <trkpt lat="46.98828" lon="8.84307">
        <ele>1297</ele>
        <time>2021-08-04T07:54:19.817Z</time>
      </trkpt>
      <trkpt lat="46.98827" lon="8.84305">
        <ele>1297</ele>
        <time>2021-08-04T07:54:20.817Z</time>
      </trkpt>
      <trkpt lat="46.98827" lon="8.84303">
        <ele>1297</ele>
        <time>2021-08-04T07:54:21.816Z</time>
      </trkpt>
      <trkpt lat="46.98827" lon="8.84302">
        <ele>1296</ele>
        <time>2021-08-04T07:54:22.816Z</time>
      </trkpt>
      <trkpt lat="46.98828" lon="8.84301">
        <ele>1296</ele>
        <time>2021-08-04T07:54:23.817Z</time>
      </trkpt>
      <trkpt lat="46.98827" lon="8.84299">
        <ele>1296</ele>
        <time>2021-08-04T07:54:24.816Z</time>
      </trkpt>
      <trkpt lat="46.98827" lon="8.84298">
        <ele>1296</ele>
        <time>2021-08-04T07:54:25.816Z</time>
      </trkpt>
      <trkpt lat="46.98826" lon="8.84296">
        <ele>1296</ele>
        <time>2021-08-04T07:54:26.817Z</time>
      </trkpt>
      <trkpt lat="46.98826" lon="8.84294">
        <ele>1296</ele>
        <time>2021-08-04T07:54:27.817Z</time>
      </trkpt>
      <trkpt lat="46.98826" lon="8.84292">
        <ele>1297</ele>
        <time>2021-08-04T07:54:28.816Z</time>
      </trkpt>
      <trkpt lat="46.98825" lon="8.8429">
        <ele>1297</ele>
        <time>2021-08-04T07:54:29.817Z</time>
      </trkpt>
      <trkpt lat="46.98824" lon="8.84288">
        <ele>1297</ele>
        <time>2021-08-04T07:54:30.817Z</time>
      </trkpt>
      <trkpt lat="46.98824" lon="8.84286">
        <ele>1297</ele>
        <time>2021-08-04T07:54:31.816Z</time>
      </trkpt>
      <trkpt lat="46.98823" lon="8.84284">
        <ele>1298</ele>
        <time>2021-08-04T07:54:32.816Z</time>
      </trkpt>
      <trkpt lat="46.98823" lon="8.84282">
        <ele>1298</ele>
        <time>2021-08-04T07:54:33.817Z</time>
      </trkpt>
      <trkpt lat="46.98823" lon="8.84281">
        <ele>1298</ele>
        <time>2021-08-04T07:54:34.817Z</time>
      </trkpt>
      <trkpt lat="46.98823" lon="8.84279">
        <ele>1298</ele>
        <time>2021-08-04T07:54:35.817Z</time>
      </trkpt>
      <trkpt lat="46.98824" lon="8.84278">
        <ele>1298</ele>
        <time>2021-08-04T07:54:36.816Z</time>
      </trkpt>
      <trkpt lat="46.98824" lon="8.84276">
        <ele>1298</ele>
        <time>2021-08-04T07:54:37.816Z</time>
      </trkpt>
      <trkpt lat="46.98824" lon="8.84274">
        <ele>1299</ele>
        <time>2021-08-04T07:54:38.816Z</time>
      </trkpt>
      <trkpt lat="46.98824" lon="8.84273">
        <ele>1299</ele>
        <time>2021-08-04T07:54:39.817Z</time>
      </trkpt>
      <trkpt lat="46.98824" lon="8.84271">
        <ele>1299</ele>
        <time>2021-08-04T07:54:40.817Z</time>
      </trkpt>
      <trkpt lat="46.98824" lon="8.8427">
        <ele>1300</ele>
        <time>2021-08-04T07:54:41.817Z</time>
      </trkpt>
      <trkpt lat="46.98824" lon="8.84268">
        <ele>1300</ele>
        <time>2021-08-04T07:54:42.816Z</time>
      </trkpt>
      <trkpt lat="46.98824" lon="8.84267">
        <ele>1301</ele>
        <time>2021-08-04T07:54:43.816Z</time>
      </trkpt>
      <trkpt lat="46.98824" lon="8.84266">
        <ele>1301</ele>
        <time>2021-08-04T07:54:44.817Z</time>
      </trkpt>
      <trkpt lat="46.98824" lon="8.84265">
        <ele>1302</ele>
        <time>2021-08-04T07:54:45.817Z</time>
      </trkpt>
      <trkpt lat="46.98824" lon="8.84264">
        <ele>1302</ele>
        <time>2021-08-04T07:54:46.817Z</time>
      </trkpt>
      <trkpt lat="46.98824" lon="8.84263">
        <ele>1302</ele>
        <time>2021-08-04T07:54:47.816Z</time>
      </trkpt>
      <trkpt lat="46.98824" lon="8.84261">
        <ele>1302</ele>
        <time>2021-08-04T07:54:48.816Z</time>
      </trkpt>
      <trkpt lat="46.98824" lon="8.8426">
        <ele>1303</ele>
        <time>2021-08-04T07:54:49.816Z</time>
      </trkpt>
      <trkpt lat="46.98824" lon="8.84258">
        <ele>1303</ele>
        <time>2021-08-04T07:54:50.817Z</time>
      </trkpt>
      <trkpt lat="46.98824" lon="8.84256">
        <ele>1303</ele>
        <time>2021-08-04T07:54:51.817Z</time>
      </trkpt>
      <trkpt lat="46.98824" lon="8.84255">
        <ele>1302</ele>
        <time>2021-08-04T07:54:52.816Z</time>
      </trkpt>
      <trkpt lat="46.98824" lon="8.84254">
        <ele>1302</ele>
        <time>2021-08-04T07:54:53.817Z</time>
      </trkpt>
      <trkpt lat="46.98823" lon="8.84252">
        <ele>1302</ele>
        <time>2021-08-04T07:54:54.817Z</time>
      </trkpt>
      <trkpt lat="46.98823" lon="8.8425">
        <ele>1302</ele>
        <time>2021-08-04T07:54:55.817Z</time>
      </trkpt>
      <trkpt lat="46.98823" lon="8.84248">
        <ele>1302</ele>
        <time>2021-08-04T07:54:56.817Z</time>
      </trkpt>
      <trkpt lat="46.98822" lon="8.84246">
        <ele>1301</ele>
        <time>2021-08-04T07:54:57.817Z</time>
      </trkpt>
      <trkpt lat="46.98821" lon="8.84244">
        <ele>1301</ele>
        <time>2021-08-04T07:54:58.816Z</time>
      </trkpt>
      <trkpt lat="46.98821" lon="8.84242">
        <ele>1301</ele>
        <time>2021-08-04T07:54:59.817Z</time>
      </trkpt>
      <trkpt lat="46.98821" lon="8.8424">
        <ele>1301</ele>
        <time>2021-08-04T07:55:00.816Z</time>
      </trkpt>
      <trkpt lat="46.98821" lon="8.84238">
        <ele>1300</ele>
        <time>2021-08-04T07:55:01.816Z</time>
      </trkpt>
      <trkpt lat="46.9882" lon="8.84237">
        <ele>1300</ele>
        <time>2021-08-04T07:55:02.816Z</time>
      </trkpt>
      <trkpt lat="46.98819" lon="8.84235">
        <ele>1299</ele>
        <time>2021-08-04T07:55:03.816Z</time>
      </trkpt>
      <trkpt lat="46.98819" lon="8.84233">
        <ele>1298</ele>
        <time>2021-08-04T07:55:04.817Z</time>
      </trkpt>
      <trkpt lat="46.98819" lon="8.84232">
        <ele>1298</ele>
        <time>2021-08-04T07:55:05.816Z</time>
      </trkpt>
      <trkpt lat="46.98819" lon="8.8423">
        <ele>1298</ele>
        <time>2021-08-04T07:55:06.816Z</time>
      </trkpt>
      <trkpt lat="46.98819" lon="8.84228">
        <ele>1297</ele>
        <time>2021-08-04T07:55:07.816Z</time>
      </trkpt>
      <trkpt lat="46.9882" lon="8.84226">
        <ele>1297</ele>
        <time>2021-08-04T07:55:08.816Z</time>
      </trkpt>
      <trkpt lat="46.9882" lon="8.84225">
        <ele>1296</ele>
        <time>2021-08-04T07:55:09.817Z</time>
      </trkpt>
      <trkpt lat="46.9882" lon="8.84224">
        <ele>1296</ele>
        <time>2021-08-04T07:55:10.817Z</time>
      </trkpt>
      <trkpt lat="46.9882" lon="8.84223">
        <ele>1295</ele>
        <time>2021-08-04T07:55:11.816Z</time>
      </trkpt>
      <trkpt lat="46.9882" lon="8.84221">
        <ele>1294</ele>
        <time>2021-08-04T07:55:12.817Z</time>
      </trkpt>
      <trkpt lat="46.98819" lon="8.84219">
        <ele>1294</ele>
        <time>2021-08-04T07:55:13.817Z</time>
      </trkpt>
      <trkpt lat="46.98819" lon="8.84217">
        <ele>1293</ele>
        <time>2021-08-04T07:55:14.816Z</time>
      </trkpt>
      <trkpt lat="46.98819" lon="8.84216">
        <ele>1293</ele>
        <time>2021-08-04T07:55:15.816Z</time>
      </trkpt>
      <trkpt lat="46.98819" lon="8.84214">
        <ele>1293</ele>
        <time>2021-08-04T07:55:16.816Z</time>
      </trkpt>
      <trkpt lat="46.98819" lon="8.84212">
        <ele>1293</ele>
        <time>2021-08-04T07:55:17.816Z</time>
      </trkpt>
      <trkpt lat="46.98818" lon="8.8421">
        <ele>1294</ele>
        <time>2021-08-04T07:55:18.817Z</time>
      </trkpt>
      <trkpt lat="46.98817" lon="8.8421">
        <ele>1294</ele>
        <time>2021-08-04T07:55:19.817Z</time>
      </trkpt>
      <trkpt lat="46.98817" lon="8.8421">
        <ele>1294</ele>
        <time>2021-08-04T07:55:20.816Z</time>
      </trkpt>
      <trkpt lat="46.98817" lon="8.84212">
        <ele>1294</ele>
        <time>2021-08-04T07:55:21.816Z</time>
      </trkpt>
      <trkpt lat="46.98819" lon="8.84211">
        <ele>1296</ele>
        <time>2021-08-04T07:55:22.817Z</time>
      </trkpt>
      <trkpt lat="46.98818" lon="8.8421">
        <ele>1297</ele>
        <time>2021-08-04T07:55:23.818Z</time>
      </trkpt>
      <trkpt lat="46.98818" lon="8.84209">
        <ele>1297</ele>
        <time>2021-08-04T07:55:24.817Z</time>
      </trkpt>
      <trkpt lat="46.98818" lon="8.84208">
        <ele>1297</ele>
        <time>2021-08-04T07:55:25.818Z</time>
      </trkpt>
      <trkpt lat="46.98818" lon="8.84206">
        <ele>1297</ele>
        <time>2021-08-04T07:55:26.818Z</time>
      </trkpt>
      <trkpt lat="46.98818" lon="8.84204">
        <ele>1297</ele>
        <time>2021-08-04T07:55:27.818Z</time>
      </trkpt>
      <trkpt lat="46.98818" lon="8.84202">
        <ele>1297</ele>
        <time>2021-08-04T07:55:28.818Z</time>
      </trkpt>
      <trkpt lat="46.98818" lon="8.84201">
        <ele>1297</ele>
        <time>2021-08-04T07:55:29.817Z</time>
      </trkpt>
      <trkpt lat="46.98818" lon="8.84199">
        <ele>1298</ele>
        <time>2021-08-04T07:55:30.817Z</time>
      </trkpt>
      <trkpt lat="46.98818" lon="8.84197">
        <ele>1297</ele>
        <time>2021-08-04T07:55:31.818Z</time>
      </trkpt>
      <trkpt lat="46.98818" lon="8.84195">
        <ele>1297</ele>
        <time>2021-08-04T07:55:32.818Z</time>
      </trkpt>
      <trkpt lat="46.98817" lon="8.84194">
        <ele>1297</ele>
        <time>2021-08-04T07:55:33.818Z</time>
      </trkpt>
      <trkpt lat="46.98817" lon="8.84192">
        <ele>1297</ele>
        <time>2021-08-04T07:55:34.817Z</time>
      </trkpt>
      <trkpt lat="46.98817" lon="8.8419">
        <ele>1297</ele>
        <time>2021-08-04T07:55:35.818Z</time>
      </trkpt>
      <trkpt lat="46.98816" lon="8.84189">
        <ele>1297</ele>
        <time>2021-08-04T07:55:36.818Z</time>
      </trkpt>
      <trkpt lat="46.98816" lon="8.84188">
        <ele>1297</ele>
        <time>2021-08-04T07:55:37.818Z</time>
      </trkpt>
      <trkpt lat="46.98816" lon="8.84186">
        <ele>1297</ele>
        <time>2021-08-04T07:55:38.818Z</time>
      </trkpt>
      <trkpt lat="46.98816" lon="8.84185">
        <ele>1297</ele>
        <time>2021-08-04T07:55:39.818Z</time>
      </trkpt>
      <trkpt lat="46.98815" lon="8.84183">
        <ele>1296</ele>
        <time>2021-08-04T07:55:40.817Z</time>
      </trkpt>
      <trkpt lat="46.98815" lon="8.84183">
        <ele>1296</ele>
        <time>2021-08-04T07:55:41.818Z</time>
      </trkpt>
      <trkpt lat="46.98815" lon="8.84183">
        <ele>1296</ele>
        <time>2021-08-04T07:55:42.817Z</time>
      </trkpt>
      <trkpt lat="46.98814" lon="8.84182">
        <ele>1296</ele>
        <time>2021-08-04T07:55:43.818Z</time>
      </trkpt>
      <trkpt lat="46.98812" lon="8.8418">
        <ele>1291</ele>
        <time>2021-08-04T07:55:44.817Z</time>
      </trkpt>
      <trkpt lat="46.98812" lon="8.84179">
        <ele>1290</ele>
        <time>2021-08-04T07:55:45.817Z</time>
      </trkpt>
      <trkpt lat="46.98811" lon="8.84178">
        <ele>1290</ele>
        <time>2021-08-04T07:55:46.817Z</time>
      </trkpt>
      <trkpt lat="46.98811" lon="8.84177">
        <ele>1290</ele>
        <time>2021-08-04T07:55:47.818Z</time>
      </trkpt>
      <trkpt lat="46.98811" lon="8.84175">
        <ele>1290</ele>
        <time>2021-08-04T07:55:48.818Z</time>
      </trkpt>
      <trkpt lat="46.98811" lon="8.84174">
        <ele>1290</ele>
        <time>2021-08-04T07:55:49.818Z</time>
      </trkpt>
      <trkpt lat="46.98811" lon="8.84172">
        <ele>1290</ele>
        <time>2021-08-04T07:55:50.818Z</time>
      </trkpt>
      <trkpt lat="46.98811" lon="8.8417">
        <ele>1291</ele>
        <time>2021-08-04T07:55:51.818Z</time>
      </trkpt>
      <trkpt lat="46.98811" lon="8.84169">
        <ele>1291</ele>
        <time>2021-08-04T07:55:52.818Z</time>
      </trkpt>
      <trkpt lat="46.98811" lon="8.84167">
        <ele>1291</ele>
        <time>2021-08-04T07:55:53.817Z</time>
      </trkpt>
      <trkpt lat="46.98811" lon="8.84166">
        <ele>1291</ele>
        <time>2021-08-04T07:55:54.817Z</time>
      </trkpt>
      <trkpt lat="46.98811" lon="8.84164">
        <ele>1291</ele>
        <time>2021-08-04T07:55:55.818Z</time>
      </trkpt>
      <trkpt lat="46.98811" lon="8.84162">
        <ele>1291</ele>
        <time>2021-08-04T07:55:56.818Z</time>
      </trkpt>
      <trkpt lat="46.98811" lon="8.84161">
        <ele>1292</ele>
        <time>2021-08-04T07:55:57.818Z</time>
      </trkpt>
      <trkpt lat="46.98811" lon="8.8416">
        <ele>1292</ele>
        <time>2021-08-04T07:55:58.817Z</time>
      </trkpt>
      <trkpt lat="46.98811" lon="8.84158">
        <ele>1292</ele>
        <time>2021-08-04T07:55:59.817Z</time>
      </trkpt>
      <trkpt lat="46.98812" lon="8.84157">
        <ele>1292</ele>
        <time>2021-08-04T07:56:00.817Z</time>
      </trkpt>
      <trkpt lat="46.98811" lon="8.84155">
        <ele>1292</ele>
        <time>2021-08-04T07:56:01.818Z</time>
      </trkpt>
      <trkpt lat="46.98811" lon="8.84154">
        <ele>1293</ele>
        <time>2021-08-04T07:56:02.818Z</time>
      </trkpt>
      <trkpt lat="46.98811" lon="8.84152">
        <ele>1293</ele>
        <time>2021-08-04T07:56:03.818Z</time>
      </trkpt>
      <trkpt lat="46.98811" lon="8.8415">
        <ele>1293</ele>
        <time>2021-08-04T07:56:04.818Z</time>
      </trkpt>
      <trkpt lat="46.98812" lon="8.84149">
        <ele>1293</ele>
        <time>2021-08-04T07:56:05.818Z</time>
      </trkpt>
      <trkpt lat="46.98812" lon="8.84147">
        <ele>1293</ele>
        <time>2021-08-04T07:56:06.818Z</time>
      </trkpt>
      <trkpt lat="46.98812" lon="8.84145">
        <ele>1293</ele>
        <time>2021-08-04T07:56:07.817Z</time>
      </trkpt>
      <trkpt lat="46.98812" lon="8.84144">
        <ele>1292</ele>
        <time>2021-08-04T07:56:08.818Z</time>
      </trkpt>
      <trkpt lat="46.98812" lon="8.84142">
        <ele>1292</ele>
        <time>2021-08-04T07:56:09.817Z</time>
      </trkpt>
      <trkpt lat="46.98812" lon="8.84141">
        <ele>1291</ele>
        <time>2021-08-04T07:56:10.818Z</time>
      </trkpt>
      <trkpt lat="46.98812" lon="8.84139">
        <ele>1291</ele>
        <time>2021-08-04T07:56:11.818Z</time>
      </trkpt>
      <trkpt lat="46.98812" lon="8.84138">
        <ele>1290</ele>
        <time>2021-08-04T07:56:12.818Z</time>
      </trkpt>
      <trkpt lat="46.98811" lon="8.84136">
        <ele>1290</ele>
        <time>2021-08-04T07:56:13.818Z</time>
      </trkpt>
      <trkpt lat="46.98811" lon="8.84134">
        <ele>1290</ele>
        <time>2021-08-04T07:56:14.818Z</time>
      </trkpt>
      <trkpt lat="46.98811" lon="8.84132">
        <ele>1290</ele>
        <time>2021-08-04T07:56:15.817Z</time>
      </trkpt>
      <trkpt lat="46.98812" lon="8.84131">
        <ele>1290</ele>
        <time>2021-08-04T07:56:16.818Z</time>
      </trkpt>
      <trkpt lat="46.98813" lon="8.8413">
        <ele>1291</ele>
        <time>2021-08-04T07:56:17.817Z</time>
      </trkpt>
      <trkpt lat="46.98813" lon="8.84129">
        <ele>1291</ele>
        <time>2021-08-04T07:56:18.817Z</time>
      </trkpt>
      <trkpt lat="46.98813" lon="8.84128">
        <ele>1291</ele>
        <time>2021-08-04T07:56:19.818Z</time>
      </trkpt>
      <trkpt lat="46.98813" lon="8.84128">
        <ele>1291</ele>
        <time>2021-08-04T07:56:20.817Z</time>
      </trkpt>
      <trkpt lat="46.98812" lon="8.84128">
        <ele>1291</ele>
        <time>2021-08-04T07:56:21.817Z</time>
      </trkpt>
      <trkpt lat="46.98813" lon="8.84126">
        <ele>1291</ele>
        <time>2021-08-04T07:56:22.818Z</time>
      </trkpt>
      <trkpt lat="46.98813" lon="8.84125">
        <ele>1290</ele>
        <time>2021-08-04T07:56:23.818Z</time>
      </trkpt>
      <trkpt lat="46.98813" lon="8.84123">
        <ele>1290</ele>
        <time>2021-08-04T07:56:24.817Z</time>
      </trkpt>
      <trkpt lat="46.98812" lon="8.84121">
        <ele>1290</ele>
        <time>2021-08-04T07:56:25.818Z</time>
      </trkpt>
      <trkpt lat="46.98812" lon="8.8412">
        <ele>1290</ele>
        <time>2021-08-04T07:56:26.818Z</time>
      </trkpt>
      <trkpt lat="46.98812" lon="8.84119">
        <ele>1290</ele>
        <time>2021-08-04T07:56:27.818Z</time>
      </trkpt>
      <trkpt lat="46.98812" lon="8.84118">
        <ele>1290</ele>
        <time>2021-08-04T07:56:28.818Z</time>
      </trkpt>
      <trkpt lat="46.98811" lon="8.84116">
        <ele>1289</ele>
        <time>2021-08-04T07:56:29.817Z</time>
      </trkpt>
      <trkpt lat="46.9881" lon="8.84114">
        <ele>1289</ele>
        <time>2021-08-04T07:56:30.817Z</time>
      </trkpt>
      <trkpt lat="46.98809" lon="8.84112">
        <ele>1289</ele>
        <time>2021-08-04T07:56:31.817Z</time>
      </trkpt>
      <trkpt lat="46.98809" lon="8.8411">
        <ele>1289</ele>
        <time>2021-08-04T07:56:32.818Z</time>
      </trkpt>
      <trkpt lat="46.98809" lon="8.84109">
        <ele>1289</ele>
        <time>2021-08-04T07:56:33.818Z</time>
      </trkpt>
      <trkpt lat="46.98809" lon="8.84107">
        <ele>1290</ele>
        <time>2021-08-04T07:56:34.818Z</time>
      </trkpt>
      <trkpt lat="46.98809" lon="8.84105">
        <ele>1290</ele>
        <time>2021-08-04T07:56:35.818Z</time>
      </trkpt>
      <trkpt lat="46.98809" lon="8.84104">
        <ele>1290</ele>
        <time>2021-08-04T07:56:36.818Z</time>
      </trkpt>
      <trkpt lat="46.98809" lon="8.84102">
        <ele>1290</ele>
        <time>2021-08-04T07:56:37.818Z</time>
      </trkpt>
      <trkpt lat="46.98809" lon="8.84101">
        <ele>1290</ele>
        <time>2021-08-04T07:56:38.817Z</time>
      </trkpt>
      <trkpt lat="46.98809" lon="8.84099">
        <ele>1290</ele>
        <time>2021-08-04T07:56:39.817Z</time>
      </trkpt>
      <trkpt lat="46.98809" lon="8.84098">
        <ele>1290</ele>
        <time>2021-08-04T07:56:40.818Z</time>
      </trkpt>
      <trkpt lat="46.98809" lon="8.84096">
        <ele>1290</ele>
        <time>2021-08-04T07:56:41.817Z</time>
      </trkpt>
      <trkpt lat="46.98809" lon="8.84095">
        <ele>1290</ele>
        <time>2021-08-04T07:56:42.817Z</time>
      </trkpt>
      <trkpt lat="46.98808" lon="8.84093">
        <ele>1290</ele>
        <time>2021-08-04T07:56:43.817Z</time>
      </trkpt>
      <trkpt lat="46.98808" lon="8.84091">
        <ele>1291</ele>
        <time>2021-08-04T07:56:44.817Z</time>
      </trkpt>
      <trkpt lat="46.98808" lon="8.84089">
        <ele>1291</ele>
        <time>2021-08-04T07:56:45.818Z</time>
      </trkpt>
      <trkpt lat="46.98808" lon="8.84087">
        <ele>1291</ele>
        <time>2021-08-04T07:56:46.818Z</time>
      </trkpt>
      <trkpt lat="46.98808" lon="8.84086">
        <ele>1292</ele>
        <time>2021-08-04T07:56:47.817Z</time>
      </trkpt>
      <trkpt lat="46.98808" lon="8.84084">
        <ele>1292</ele>
        <time>2021-08-04T07:56:48.817Z</time>
      </trkpt>
      <trkpt lat="46.98808" lon="8.84082">
        <ele>1292</ele>
        <time>2021-08-04T07:56:49.818Z</time>
      </trkpt>
      <trkpt lat="46.98809" lon="8.8408">
        <ele>1293</ele>
        <time>2021-08-04T07:56:50.818Z</time>
      </trkpt>
      <trkpt lat="46.98809" lon="8.84078">
        <ele>1293</ele>
        <time>2021-08-04T07:56:51.817Z</time>
      </trkpt>
      <trkpt lat="46.98809" lon="8.84076">
        <ele>1293</ele>
        <time>2021-08-04T07:56:52.818Z</time>
      </trkpt>
      <trkpt lat="46.98809" lon="8.84074">
        <ele>1292</ele>
        <time>2021-08-04T07:56:53.818Z</time>
      </trkpt>
      <trkpt lat="46.98809" lon="8.84072">
        <ele>1292</ele>
        <time>2021-08-04T07:56:54.817Z</time>
      </trkpt>
      <trkpt lat="46.98809" lon="8.84071">
        <ele>1291</ele>
        <time>2021-08-04T07:56:55.818Z</time>
      </trkpt>
      <trkpt lat="46.98808" lon="8.84069">
        <ele>1291</ele>
        <time>2021-08-04T07:56:56.818Z</time>
      </trkpt>
      <trkpt lat="46.98808" lon="8.84067">
        <ele>1290</ele>
        <time>2021-08-04T07:56:57.818Z</time>
      </trkpt>
      <trkpt lat="46.98808" lon="8.84064">
        <ele>1290</ele>
        <time>2021-08-04T07:56:58.818Z</time>
      </trkpt>
      <trkpt lat="46.98808" lon="8.84062">
        <ele>1289</ele>
        <time>2021-08-04T07:56:59.817Z</time>
      </trkpt>
      <trkpt lat="46.98808" lon="8.84061">
        <ele>1289</ele>
        <time>2021-08-04T07:57:00.817Z</time>
      </trkpt>
      <trkpt lat="46.98808" lon="8.84059">
        <ele>1289</ele>
        <time>2021-08-04T07:57:01.818Z</time>
      </trkpt>
      <trkpt lat="46.98808" lon="8.84057">
        <ele>1289</ele>
        <time>2021-08-04T07:57:02.818Z</time>
      </trkpt>
      <trkpt lat="46.98808" lon="8.84056">
        <ele>1290</ele>
        <time>2021-08-04T07:57:03.817Z</time>
      </trkpt>
      <trkpt lat="46.98808" lon="8.84054">
        <ele>1291</ele>
        <time>2021-08-04T07:57:04.817Z</time>
      </trkpt>
      <trkpt lat="46.98808" lon="8.84053">
        <ele>1291</ele>
        <time>2021-08-04T07:57:05.818Z</time>
      </trkpt>
      <trkpt lat="46.98808" lon="8.84051">
        <ele>1291</ele>
        <time>2021-08-04T07:57:06.817Z</time>
      </trkpt>
      <trkpt lat="46.98808" lon="8.8405">
        <ele>1291</ele>
        <time>2021-08-04T07:57:07.818Z</time>
      </trkpt>
      <trkpt lat="46.98808" lon="8.84048">
        <ele>1290</ele>
        <time>2021-08-04T07:57:08.818Z</time>
      </trkpt>
      <trkpt lat="46.98808" lon="8.84046">
        <ele>1290</ele>
        <time>2021-08-04T07:57:09.818Z</time>
      </trkpt>
      <trkpt lat="46.98808" lon="8.84045">
        <ele>1290</ele>
        <time>2021-08-04T07:57:10.818Z</time>
      </trkpt>
      <trkpt lat="46.98809" lon="8.84043">
        <ele>1290</ele>
        <time>2021-08-04T07:57:11.818Z</time>
      </trkpt>
      <trkpt lat="46.98809" lon="8.84042">
        <ele>1289</ele>
        <time>2021-08-04T07:57:12.817Z</time>
      </trkpt>
      <trkpt lat="46.98809" lon="8.8404">
        <ele>1288</ele>
        <time>2021-08-04T07:57:13.818Z</time>
      </trkpt>
      <trkpt lat="46.98809" lon="8.84039">
        <ele>1288</ele>
        <time>2021-08-04T07:57:14.817Z</time>
      </trkpt>
      <trkpt lat="46.98809" lon="8.84037">
        <ele>1287</ele>
        <time>2021-08-04T07:57:15.817Z</time>
      </trkpt>
      <trkpt lat="46.98809" lon="8.84036">
        <ele>1287</ele>
        <time>2021-08-04T07:57:16.818Z</time>
      </trkpt>
      <trkpt lat="46.98809" lon="8.84034">
        <ele>1286</ele>
        <time>2021-08-04T07:57:17.818Z</time>
      </trkpt>
      <trkpt lat="46.98809" lon="8.84032">
        <ele>1286</ele>
        <time>2021-08-04T07:57:18.818Z</time>
      </trkpt>
      <trkpt lat="46.98809" lon="8.84031">
        <ele>1285</ele>
        <time>2021-08-04T07:57:19.818Z</time>
      </trkpt>
      <trkpt lat="46.98809" lon="8.84029">
        <ele>1285</ele>
        <time>2021-08-04T07:57:20.817Z</time>
      </trkpt>
      <trkpt lat="46.9881" lon="8.84027">
        <ele>1285</ele>
        <time>2021-08-04T07:57:21.818Z</time>
      </trkpt>
      <trkpt lat="46.9881" lon="8.84025">
        <ele>1285</ele>
        <time>2021-08-04T07:57:22.817Z</time>
      </trkpt>
      <trkpt lat="46.98811" lon="8.84024">
        <ele>1285</ele>
        <time>2021-08-04T07:57:23.817Z</time>
      </trkpt>
      <trkpt lat="46.98811" lon="8.84021">
        <ele>1284</ele>
        <time>2021-08-04T07:57:24.817Z</time>
      </trkpt>
      <trkpt lat="46.98811" lon="8.84019">
        <ele>1284</ele>
        <time>2021-08-04T07:57:25.818Z</time>
      </trkpt>
      <trkpt lat="46.98812" lon="8.84018">
        <ele>1284</ele>
        <time>2021-08-04T07:57:26.818Z</time>
      </trkpt>
      <trkpt lat="46.98812" lon="8.84016">
        <ele>1283</ele>
        <time>2021-08-04T07:57:27.818Z</time>
      </trkpt>
      <trkpt lat="46.98812" lon="8.84015">
        <ele>1283</ele>
        <time>2021-08-04T07:57:28.818Z</time>
      </trkpt>
      <trkpt lat="46.98812" lon="8.84013">
        <ele>1282</ele>
        <time>2021-08-04T07:57:29.817Z</time>
      </trkpt>
      <trkpt lat="46.98813" lon="8.84011">
        <ele>1282</ele>
        <time>2021-08-04T07:57:30.818Z</time>
      </trkpt>
      <trkpt lat="46.98813" lon="8.8401">
        <ele>1281</ele>
        <time>2021-08-04T07:57:31.818Z</time>
      </trkpt>
      <trkpt lat="46.98812" lon="8.84008">
        <ele>1280</ele>
        <time>2021-08-04T07:57:32.818Z</time>
      </trkpt>
      <trkpt lat="46.98812" lon="8.84007">
        <ele>1280</ele>
        <time>2021-08-04T07:57:33.817Z</time>
      </trkpt>
      <trkpt lat="46.98812" lon="8.84005">
        <ele>1280</ele>
        <time>2021-08-04T07:57:34.818Z</time>
      </trkpt>
      <trkpt lat="46.98811" lon="8.84003">
        <ele>1280</ele>
        <time>2021-08-04T07:57:35.818Z</time>
      </trkpt>
      <trkpt lat="46.98811" lon="8.84001">
        <ele>1280</ele>
        <time>2021-08-04T07:57:36.817Z</time>
      </trkpt>
      <trkpt lat="46.9881" lon="8.83999">
        <ele>1280</ele>
        <time>2021-08-04T07:57:37.817Z</time>
      </trkpt>
      <trkpt lat="46.9881" lon="8.83996">
        <ele>1280</ele>
        <time>2021-08-04T07:57:38.817Z</time>
      </trkpt>
      <trkpt lat="46.9881" lon="8.83994">
        <ele>1280</ele>
        <time>2021-08-04T07:57:39.817Z</time>
      </trkpt>
      <trkpt lat="46.98809" lon="8.83992">
        <ele>1280</ele>
        <time>2021-08-04T07:57:40.817Z</time>
      </trkpt>
      <trkpt lat="46.98809" lon="8.8399">
        <ele>1281</ele>
        <time>2021-08-04T07:57:41.817Z</time>
      </trkpt>
      <trkpt lat="46.98809" lon="8.83988">
        <ele>1281</ele>
        <time>2021-08-04T07:57:42.818Z</time>
      </trkpt>
      <trkpt lat="46.98808" lon="8.83986">
        <ele>1281</ele>
        <time>2021-08-04T07:57:43.818Z</time>
      </trkpt>
      <trkpt lat="46.98808" lon="8.83985">
        <ele>1280</ele>
        <time>2021-08-04T07:57:44.818Z</time>
      </trkpt>
      <trkpt lat="46.98808" lon="8.83984">
        <ele>1280</ele>
        <time>2021-08-04T07:57:45.818Z</time>
      </trkpt>
      <trkpt lat="46.98808" lon="8.83983">
        <ele>1279</ele>
        <time>2021-08-04T07:57:46.817Z</time>
      </trkpt>
      <trkpt lat="46.98808" lon="8.83981">
        <ele>1279</ele>
        <time>2021-08-04T07:57:47.818Z</time>
      </trkpt>
      <trkpt lat="46.98808" lon="8.8398">
        <ele>1279</ele>
        <time>2021-08-04T07:57:48.817Z</time>
      </trkpt>
      <trkpt lat="46.98809" lon="8.83978">
        <ele>1278</ele>
        <time>2021-08-04T07:57:49.817Z</time>
      </trkpt>
      <trkpt lat="46.98809" lon="8.83976">
        <ele>1278</ele>
        <time>2021-08-04T07:57:50.817Z</time>
      </trkpt>
      <trkpt lat="46.98809" lon="8.83974">
        <ele>1278</ele>
        <time>2021-08-04T07:57:51.817Z</time>
      </trkpt>
      <trkpt lat="46.9881" lon="8.83972">
        <ele>1277</ele>
        <time>2021-08-04T07:57:52.817Z</time>
      </trkpt>
      <trkpt lat="46.9881" lon="8.8397">
        <ele>1277</ele>
        <time>2021-08-04T07:57:53.817Z</time>
      </trkpt>
      <trkpt lat="46.9881" lon="8.83969">
        <ele>1277</ele>
        <time>2021-08-04T07:57:54.817Z</time>
      </trkpt>
      <trkpt lat="46.98809" lon="8.83967">
        <ele>1277</ele>
        <time>2021-08-04T07:57:55.817Z</time>
      </trkpt>
      <trkpt lat="46.9881" lon="8.83966">
        <ele>1277</ele>
        <time>2021-08-04T07:57:56.818Z</time>
      </trkpt>
      <trkpt lat="46.9881" lon="8.83964">
        <ele>1278</ele>
        <time>2021-08-04T07:57:57.818Z</time>
      </trkpt>
      <trkpt lat="46.9881" lon="8.83962">
        <ele>1278</ele>
        <time>2021-08-04T07:57:58.818Z</time>
      </trkpt>
      <trkpt lat="46.9881" lon="8.8396">
        <ele>1278</ele>
        <time>2021-08-04T07:57:59.818Z</time>
      </trkpt>
      <trkpt lat="46.9881" lon="8.83959">
        <ele>1278</ele>
        <time>2021-08-04T07:58:00.818Z</time>
      </trkpt>
      <trkpt lat="46.9881" lon="8.83957">
        <ele>1278</ele>
        <time>2021-08-04T07:58:01.817Z</time>
      </trkpt>
      <trkpt lat="46.9881" lon="8.83956">
        <ele>1278</ele>
        <time>2021-08-04T07:58:02.817Z</time>
      </trkpt>
      <trkpt lat="46.98811" lon="8.83954">
        <ele>1278</ele>
        <time>2021-08-04T07:58:03.818Z</time>
      </trkpt>
      <trkpt lat="46.98811" lon="8.83952">
        <ele>1279</ele>
        <time>2021-08-04T07:58:04.818Z</time>
      </trkpt>
      <trkpt lat="46.98812" lon="8.8395">
        <ele>1279</ele>
        <time>2021-08-04T07:58:05.818Z</time>
      </trkpt>
      <trkpt lat="46.98813" lon="8.83948">
        <ele>1280</ele>
        <time>2021-08-04T07:58:06.818Z</time>
      </trkpt>
      <trkpt lat="46.98813" lon="8.83946">
        <ele>1280</ele>
        <time>2021-08-04T07:58:07.818Z</time>
      </trkpt>
      <trkpt lat="46.98813" lon="8.83945">
        <ele>1281</ele>
        <time>2021-08-04T07:58:08.818Z</time>
      </trkpt>
      <trkpt lat="46.98813" lon="8.83943">
        <ele>1281</ele>
        <time>2021-08-04T07:58:09.817Z</time>
      </trkpt>
      <trkpt lat="46.98814" lon="8.83942">
        <ele>1282</ele>
        <time>2021-08-04T07:58:10.818Z</time>
      </trkpt>
      <trkpt lat="46.98814" lon="8.8394">
        <ele>1283</ele>
        <time>2021-08-04T07:58:11.818Z</time>
      </trkpt>
      <trkpt lat="46.98814" lon="8.83939">
        <ele>1283</ele>
        <time>2021-08-04T07:58:12.818Z</time>
      </trkpt>
      <trkpt lat="46.98814" lon="8.83937">
        <ele>1284</ele>
        <time>2021-08-04T07:58:13.818Z</time>
      </trkpt>
      <trkpt lat="46.98814" lon="8.83935">
        <ele>1285</ele>
        <time>2021-08-04T07:58:14.818Z</time>
      </trkpt>
      <trkpt lat="46.98814" lon="8.83934">
        <ele>1285</ele>
        <time>2021-08-04T07:58:15.817Z</time>
      </trkpt>
      <trkpt lat="46.98814" lon="8.83932">
        <ele>1285</ele>
        <time>2021-08-04T07:58:16.817Z</time>
      </trkpt>
      <trkpt lat="46.98815" lon="8.8393">
        <ele>1285</ele>
        <time>2021-08-04T07:58:17.818Z</time>
      </trkpt>
      <trkpt lat="46.98815" lon="8.83929">
        <ele>1285</ele>
        <time>2021-08-04T07:58:18.817Z</time>
      </trkpt>
      <trkpt lat="46.98815" lon="8.83927">
        <ele>1285</ele>
        <time>2021-08-04T07:58:19.817Z</time>
      </trkpt>
      <trkpt lat="46.98815" lon="8.83925">
        <ele>1285</ele>
        <time>2021-08-04T07:58:20.817Z</time>
      </trkpt>
      <trkpt lat="46.98815" lon="8.83923">
        <ele>1286</ele>
        <time>2021-08-04T07:58:21.817Z</time>
      </trkpt>
      <trkpt lat="46.98815" lon="8.83921">
        <ele>1286</ele>
        <time>2021-08-04T07:58:22.818Z</time>
      </trkpt>
      <trkpt lat="46.98814" lon="8.8392">
        <ele>1286</ele>
        <time>2021-08-04T07:58:23.817Z</time>
      </trkpt>
      <trkpt lat="46.98814" lon="8.83918">
        <ele>1286</ele>
        <time>2021-08-04T07:58:24.818Z</time>
      </trkpt>
      <trkpt lat="46.98815" lon="8.83916">
        <ele>1286</ele>
        <time>2021-08-04T07:58:25.818Z</time>
      </trkpt>
      <trkpt lat="46.98815" lon="8.83915">
        <ele>1286</ele>
        <time>2021-08-04T07:58:26.818Z</time>
      </trkpt>
      <trkpt lat="46.98815" lon="8.83913">
        <ele>1286</ele>
        <time>2021-08-04T07:58:27.818Z</time>
      </trkpt>
      <trkpt lat="46.98815" lon="8.83911">
        <ele>1286</ele>
        <time>2021-08-04T07:58:28.818Z</time>
      </trkpt>
      <trkpt lat="46.98815" lon="8.83909">
        <ele>1286</ele>
        <time>2021-08-04T07:58:29.818Z</time>
      </trkpt>
      <trkpt lat="46.98815" lon="8.83908">
        <ele>1286</ele>
        <time>2021-08-04T07:58:30.817Z</time>
      </trkpt>
      <trkpt lat="46.98815" lon="8.83905">
        <ele>1285</ele>
        <time>2021-08-04T07:58:31.817Z</time>
      </trkpt>
      <trkpt lat="46.98816" lon="8.83903">
        <ele>1285</ele>
        <time>2021-08-04T07:58:32.818Z</time>
      </trkpt>
      <trkpt lat="46.98817" lon="8.83902">
        <ele>1284</ele>
        <time>2021-08-04T07:58:33.818Z</time>
      </trkpt>
      <trkpt lat="46.98817" lon="8.839">
        <ele>1284</ele>
        <time>2021-08-04T07:58:34.818Z</time>
      </trkpt>
      <trkpt lat="46.98817" lon="8.83899">
        <ele>1283</ele>
        <time>2021-08-04T07:58:35.817Z</time>
      </trkpt>
      <trkpt lat="46.98818" lon="8.83898">
        <ele>1283</ele>
        <time>2021-08-04T07:58:36.817Z</time>
      </trkpt>
      <trkpt lat="46.98818" lon="8.83896">
        <ele>1282</ele>
        <time>2021-08-04T07:58:37.818Z</time>
      </trkpt>
      <trkpt lat="46.98818" lon="8.83894">
        <ele>1282</ele>
        <time>2021-08-04T07:58:38.817Z</time>
      </trkpt>
      <trkpt lat="46.98819" lon="8.83893">
        <ele>1282</ele>
        <time>2021-08-04T07:58:39.818Z</time>
      </trkpt>
      <trkpt lat="46.98819" lon="8.83891">
        <ele>1282</ele>
        <time>2021-08-04T07:58:40.818Z</time>
      </trkpt>
      <trkpt lat="46.9882" lon="8.83889">
        <ele>1282</ele>
        <time>2021-08-04T07:58:41.818Z</time>
      </trkpt>
      <trkpt lat="46.9882" lon="8.83887">
        <ele>1282</ele>
        <time>2021-08-04T07:58:42.818Z</time>
      </trkpt>
      <trkpt lat="46.9882" lon="8.83885">
        <ele>1282</ele>
        <time>2021-08-04T07:58:43.818Z</time>
      </trkpt>
      <trkpt lat="46.98821" lon="8.83883">
        <ele>1282</ele>
        <time>2021-08-04T07:58:44.818Z</time>
      </trkpt>
      <trkpt lat="46.98821" lon="8.83881">
        <ele>1281</ele>
        <time>2021-08-04T07:58:45.818Z</time>
      </trkpt>
      <trkpt lat="46.98821" lon="8.83879">
        <ele>1281</ele>
        <time>2021-08-04T07:58:46.817Z</time>
      </trkpt>
      <trkpt lat="46.98821" lon="8.83878">
        <ele>1280</ele>
        <time>2021-08-04T07:58:47.818Z</time>
      </trkpt>
      <trkpt lat="46.98821" lon="8.83876">
        <ele>1280</ele>
        <time>2021-08-04T07:58:48.817Z</time>
      </trkpt>
      <trkpt lat="46.98821" lon="8.83875">
        <ele>1280</ele>
        <time>2021-08-04T07:58:49.817Z</time>
      </trkpt>
      <trkpt lat="46.98822" lon="8.83873">
        <ele>1279</ele>
        <time>2021-08-04T07:58:50.817Z</time>
      </trkpt>
      <trkpt lat="46.98822" lon="8.83872">
        <ele>1280</ele>
        <time>2021-08-04T07:58:51.818Z</time>
      </trkpt>
      <trkpt lat="46.98822" lon="8.83871">
        <ele>1280</ele>
        <time>2021-08-04T07:58:52.817Z</time>
      </trkpt>
      <trkpt lat="46.98822" lon="8.83869">
        <ele>1280</ele>
        <time>2021-08-04T07:58:53.818Z</time>
      </trkpt>
      <trkpt lat="46.98822" lon="8.83867">
        <ele>1279</ele>
        <time>2021-08-04T07:58:54.818Z</time>
      </trkpt>
      <trkpt lat="46.98822" lon="8.83865">
        <ele>1279</ele>
        <time>2021-08-04T07:58:55.817Z</time>
      </trkpt>
      <trkpt lat="46.98822" lon="8.83863">
        <ele>1279</ele>
        <time>2021-08-04T07:58:56.818Z</time>
      </trkpt>
      <trkpt lat="46.98823" lon="8.83862">
        <ele>1279</ele>
        <time>2021-08-04T07:58:57.818Z</time>
      </trkpt>
      <trkpt lat="46.98823" lon="8.8386">
        <ele>1279</ele>
        <time>2021-08-04T07:58:58.818Z</time>
      </trkpt>
      <trkpt lat="46.98823" lon="8.83858">
        <ele>1279</ele>
        <time>2021-08-04T07:58:59.817Z</time>
      </trkpt>
      <trkpt lat="46.98824" lon="8.83857">
        <ele>1280</ele>
        <time>2021-08-04T07:59:00.817Z</time>
      </trkpt>
      <trkpt lat="46.98824" lon="8.83855">
        <ele>1280</ele>
        <time>2021-08-04T07:59:01.818Z</time>
      </trkpt>
      <trkpt lat="46.98824" lon="8.83853">
        <ele>1280</ele>
        <time>2021-08-04T07:59:02.817Z</time>
      </trkpt>
      <trkpt lat="46.98825" lon="8.83851">
        <ele>1280</ele>
        <time>2021-08-04T07:59:03.818Z</time>
      </trkpt>
      <trkpt lat="46.98826" lon="8.83849">
        <ele>1280</ele>
        <time>2021-08-04T07:59:04.817Z</time>
      </trkpt>
      <trkpt lat="46.98826" lon="8.83847">
        <ele>1281</ele>
        <time>2021-08-04T07:59:05.818Z</time>
      </trkpt>
      <trkpt lat="46.98827" lon="8.83845">
        <ele>1281</ele>
        <time>2021-08-04T07:59:06.817Z</time>
      </trkpt>
      <trkpt lat="46.98828" lon="8.83843">
        <ele>1281</ele>
        <time>2021-08-04T07:59:07.817Z</time>
      </trkpt>
      <trkpt lat="46.98828" lon="8.83841">
        <ele>1281</ele>
        <time>2021-08-04T07:59:08.818Z</time>
      </trkpt>
      <trkpt lat="46.98829" lon="8.8384">
        <ele>1281</ele>
        <time>2021-08-04T07:59:09.817Z</time>
      </trkpt>
      <trkpt lat="46.98829" lon="8.83839">
        <ele>1281</ele>
        <time>2021-08-04T07:59:10.818Z</time>
      </trkpt>
      <trkpt lat="46.9883" lon="8.83838">
        <ele>1281</ele>
        <time>2021-08-04T07:59:11.818Z</time>
      </trkpt>
      <trkpt lat="46.98831" lon="8.83837">
        <ele>1281</ele>
        <time>2021-08-04T07:59:12.818Z</time>
      </trkpt>
      <trkpt lat="46.98831" lon="8.83835">
        <ele>1282</ele>
        <time>2021-08-04T07:59:13.818Z</time>
      </trkpt>
      <trkpt lat="46.98831" lon="8.83833">
        <ele>1282</ele>
        <time>2021-08-04T07:59:14.817Z</time>
      </trkpt>
      <trkpt lat="46.98832" lon="8.83832">
        <ele>1282</ele>
        <time>2021-08-04T07:59:15.818Z</time>
      </trkpt>
      <trkpt lat="46.98833" lon="8.8383">
        <ele>1282</ele>
        <time>2021-08-04T07:59:16.818Z</time>
      </trkpt>
      <trkpt lat="46.98834" lon="8.83829">
        <ele>1282</ele>
        <time>2021-08-04T07:59:17.818Z</time>
      </trkpt>
      <trkpt lat="46.98834" lon="8.83827">
        <ele>1282</ele>
        <time>2021-08-04T07:59:18.818Z</time>
      </trkpt>
      <trkpt lat="46.98834" lon="8.83825">
        <ele>1282</ele>
        <time>2021-08-04T07:59:19.817Z</time>
      </trkpt>
      <trkpt lat="46.98834" lon="8.83824">
        <ele>1282</ele>
        <time>2021-08-04T07:59:20.817Z</time>
      </trkpt>
      <trkpt lat="46.98834" lon="8.83822">
        <ele>1282</ele>
        <time>2021-08-04T07:59:21.817Z</time>
      </trkpt>
      <trkpt lat="46.98834" lon="8.83821">
        <ele>1282</ele>
        <time>2021-08-04T07:59:22.817Z</time>
      </trkpt>
      <trkpt lat="46.98835" lon="8.83819">
        <ele>1282</ele>
        <time>2021-08-04T07:59:23.818Z</time>
      </trkpt>
      <trkpt lat="46.98835" lon="8.83818">
        <ele>1281</ele>
        <time>2021-08-04T07:59:24.818Z</time>
      </trkpt>
      <trkpt lat="46.98835" lon="8.83817">
        <ele>1280</ele>
        <time>2021-08-04T07:59:25.817Z</time>
      </trkpt>
      <trkpt lat="46.98835" lon="8.83815">
        <ele>1280</ele>
        <time>2021-08-04T07:59:26.817Z</time>
      </trkpt>
      <trkpt lat="46.98835" lon="8.83813">
        <ele>1279</ele>
        <time>2021-08-04T07:59:27.818Z</time>
      </trkpt>
      <trkpt lat="46.98835" lon="8.83812">
        <ele>1279</ele>
        <time>2021-08-04T07:59:28.818Z</time>
      </trkpt>
      <trkpt lat="46.98835" lon="8.8381">
        <ele>1278</ele>
        <time>2021-08-04T07:59:29.818Z</time>
      </trkpt>
      <trkpt lat="46.98836" lon="8.83808">
        <ele>1278</ele>
        <time>2021-08-04T07:59:30.817Z</time>
      </trkpt>
      <trkpt lat="46.98836" lon="8.83807">
        <ele>1278</ele>
        <time>2021-08-04T07:59:31.818Z</time>
      </trkpt>
      <trkpt lat="46.98837" lon="8.83806">
        <ele>1278</ele>
        <time>2021-08-04T07:59:32.818Z</time>
      </trkpt>
      <trkpt lat="46.98837" lon="8.83804">
        <ele>1277</ele>
        <time>2021-08-04T07:59:33.817Z</time>
      </trkpt>
      <trkpt lat="46.98837" lon="8.83803">
        <ele>1277</ele>
        <time>2021-08-04T07:59:34.818Z</time>
      </trkpt>
      <trkpt lat="46.98837" lon="8.83801">
        <ele>1277</ele>
        <time>2021-08-04T07:59:35.818Z</time>
      </trkpt>
      <trkpt lat="46.98837" lon="8.83798">
        <ele>1277</ele>
        <time>2021-08-04T07:59:36.818Z</time>
      </trkpt>
      <trkpt lat="46.98837" lon="8.83796">
        <ele>1277</ele>
        <time>2021-08-04T07:59:37.818Z</time>
      </trkpt>
      <trkpt lat="46.98837" lon="8.83794">
        <ele>1277</ele>
        <time>2021-08-04T07:59:38.817Z</time>
      </trkpt>
      <trkpt lat="46.98837" lon="8.83793">
        <ele>1276</ele>
        <time>2021-08-04T07:59:39.817Z</time>
      </trkpt>
      <trkpt lat="46.98837" lon="8.83791">
        <ele>1276</ele>
        <time>2021-08-04T07:59:40.818Z</time>
      </trkpt>
      <trkpt lat="46.98837" lon="8.8379">
        <ele>1276</ele>
        <time>2021-08-04T07:59:41.817Z</time>
      </trkpt>
      <trkpt lat="46.98837" lon="8.83788">
        <ele>1276</ele>
        <time>2021-08-04T07:59:42.818Z</time>
      </trkpt>
      <trkpt lat="46.98837" lon="8.83786">
        <ele>1276</ele>
        <time>2021-08-04T07:59:43.818Z</time>
      </trkpt>
      <trkpt lat="46.98837" lon="8.83785">
        <ele>1276</ele>
        <time>2021-08-04T07:59:44.817Z</time>
      </trkpt>
      <trkpt lat="46.98837" lon="8.83783">
        <ele>1276</ele>
        <time>2021-08-04T07:59:45.818Z</time>
      </trkpt>
      <trkpt lat="46.98837" lon="8.83781">
        <ele>1276</ele>
        <time>2021-08-04T07:59:46.818Z</time>
      </trkpt>
      <trkpt lat="46.98838" lon="8.83779">
        <ele>1276</ele>
        <time>2021-08-04T07:59:47.818Z</time>
      </trkpt>
      <trkpt lat="46.98838" lon="8.83778">
        <ele>1276</ele>
        <time>2021-08-04T07:59:48.817Z</time>
      </trkpt>
      <trkpt lat="46.98838" lon="8.83776">
        <ele>1276</ele>
        <time>2021-08-04T07:59:49.817Z</time>
      </trkpt>
      <trkpt lat="46.98838" lon="8.83775">
        <ele>1276</ele>
        <time>2021-08-04T07:59:50.817Z</time>
      </trkpt>
      <trkpt lat="46.98838" lon="8.83774">
        <ele>1276</ele>
        <time>2021-08-04T07:59:51.818Z</time>
      </trkpt>
      <trkpt lat="46.98838" lon="8.83773">
        <ele>1276</ele>
        <time>2021-08-04T07:59:52.818Z</time>
      </trkpt>
      <trkpt lat="46.98838" lon="8.83772">
        <ele>1276</ele>
        <time>2021-08-04T07:59:53.818Z</time>
      </trkpt>
      <trkpt lat="46.98838" lon="8.83772">
        <ele>1276</ele>
        <time>2021-08-04T07:59:54.817Z</time>
      </trkpt>
      <trkpt lat="46.98837" lon="8.83772">
        <ele>1272</ele>
        <time>2021-08-04T07:59:55.820Z</time>
      </trkpt>
      <trkpt lat="46.98836" lon="8.83772">
        <ele>1271</ele>
        <time>2021-08-04T07:59:56.820Z</time>
      </trkpt>
      <trkpt lat="46.98837" lon="8.83771">
        <ele>1270</ele>
        <time>2021-08-04T07:59:57.819Z</time>
      </trkpt>
      <trkpt lat="46.98837" lon="8.83771">
        <ele>1269</ele>
        <time>2021-08-04T07:59:58.819Z</time>
      </trkpt>
      <trkpt lat="46.98837" lon="8.83771">
        <ele>1269</ele>
        <time>2021-08-04T07:59:59.820Z</time>
      </trkpt>
      <trkpt lat="46.98837" lon="8.83771">
        <ele>1268</ele>
        <time>2021-08-04T08:00:00.819Z</time>
      </trkpt>
      <trkpt lat="46.98836" lon="8.8377">
        <ele>1268</ele>
        <time>2021-08-04T08:00:01.820Z</time>
      </trkpt>
      <trkpt lat="46.98836" lon="8.83769">
        <ele>1268</ele>
        <time>2021-08-04T08:00:02.819Z</time>
      </trkpt>
      <trkpt lat="46.98836" lon="8.83768">
        <ele>1268</ele>
        <time>2021-08-04T08:00:03.819Z</time>
      </trkpt>
      <trkpt lat="46.98836" lon="8.83766">
        <ele>1268</ele>
        <time>2021-08-04T08:00:04.820Z</time>
      </trkpt>
      <trkpt lat="46.98836" lon="8.83765">
        <ele>1268</ele>
        <time>2021-08-04T08:00:05.819Z</time>
      </trkpt>
      <trkpt lat="46.98836" lon="8.83763">
        <ele>1269</ele>
        <time>2021-08-04T08:00:06.819Z</time>
      </trkpt>
      <trkpt lat="46.98837" lon="8.83761">
        <ele>1269</ele>
        <time>2021-08-04T08:00:07.820Z</time>
      </trkpt>
      <trkpt lat="46.98837" lon="8.8376">
        <ele>1269</ele>
        <time>2021-08-04T08:00:08.820Z</time>
      </trkpt>
      <trkpt lat="46.98837" lon="8.83758">
        <ele>1269</ele>
        <time>2021-08-04T08:00:09.820Z</time>
      </trkpt>
      <trkpt lat="46.98837" lon="8.83757">
        <ele>1269</ele>
        <time>2021-08-04T08:00:10.820Z</time>
      </trkpt>
      <trkpt lat="46.98838" lon="8.83755">
        <ele>1269</ele>
        <time>2021-08-04T08:00:11.819Z</time>
      </trkpt>
      <trkpt lat="46.98838" lon="8.83754">
        <ele>1269</ele>
        <time>2021-08-04T08:00:12.819Z</time>
      </trkpt>
      <trkpt lat="46.98839" lon="8.83752">
        <ele>1269</ele>
        <time>2021-08-04T08:00:13.819Z</time>
      </trkpt>
      <trkpt lat="46.98839" lon="8.8375">
        <ele>1269</ele>
        <time>2021-08-04T08:00:14.819Z</time>
      </trkpt>
      <trkpt lat="46.9884" lon="8.83749">
        <ele>1270</ele>
        <time>2021-08-04T08:00:15.819Z</time>
      </trkpt>
      <trkpt lat="46.9884" lon="8.83747">
        <ele>1270</ele>
        <time>2021-08-04T08:00:16.819Z</time>
      </trkpt>
      <trkpt lat="46.9884" lon="8.83745">
        <ele>1271</ele>
        <time>2021-08-04T08:00:17.820Z</time>
      </trkpt>
      <trkpt lat="46.98841" lon="8.83744">
        <ele>1271</ele>
        <time>2021-08-04T08:00:18.819Z</time>
      </trkpt>
      <trkpt lat="46.98841" lon="8.83742">
        <ele>1272</ele>
        <time>2021-08-04T08:00:19.819Z</time>
      </trkpt>
      <trkpt lat="46.98842" lon="8.83741">
        <ele>1272</ele>
        <time>2021-08-04T08:00:20.819Z</time>
      </trkpt>
      <trkpt lat="46.98843" lon="8.8374">
        <ele>1273</ele>
        <time>2021-08-04T08:00:21.819Z</time>
      </trkpt>
      <trkpt lat="46.98843" lon="8.83738">
        <ele>1273</ele>
        <time>2021-08-04T08:00:22.819Z</time>
      </trkpt>
      <trkpt lat="46.98844" lon="8.83737">
        <ele>1273</ele>
        <time>2021-08-04T08:00:23.819Z</time>
      </trkpt>
      <trkpt lat="46.98844" lon="8.83735">
        <ele>1273</ele>
        <time>2021-08-04T08:00:24.819Z</time>
      </trkpt>
      <trkpt lat="46.98845" lon="8.83733">
        <ele>1274</ele>
        <time>2021-08-04T08:00:25.819Z</time>
      </trkpt>
      <trkpt lat="46.98846" lon="8.83731">
        <ele>1274</ele>
        <time>2021-08-04T08:00:26.819Z</time>
      </trkpt>
      <trkpt lat="46.98846" lon="8.8373">
        <ele>1274</ele>
        <time>2021-08-04T08:00:27.820Z</time>
      </trkpt>
      <trkpt lat="46.98846" lon="8.83728">
        <ele>1274</ele>
        <time>2021-08-04T08:00:28.819Z</time>
      </trkpt>
      <trkpt lat="46.98847" lon="8.83726">
        <ele>1274</ele>
        <time>2021-08-04T08:00:29.820Z</time>
      </trkpt>
      <trkpt lat="46.98848" lon="8.83724">
        <ele>1275</ele>
        <time>2021-08-04T08:00:30.819Z</time>
      </trkpt>
      <trkpt lat="46.98849" lon="8.83722">
        <ele>1275</ele>
        <time>2021-08-04T08:00:31.819Z</time>
      </trkpt>
      <trkpt lat="46.98851" lon="8.8372">
        <ele>1275</ele>
        <time>2021-08-04T08:00:32.819Z</time>
      </trkpt>
      <trkpt lat="46.98854" lon="8.83718">
        <ele>1276</ele>
        <time>2021-08-04T08:00:33.820Z</time>
      </trkpt>
      <trkpt lat="46.98854" lon="8.83717">
        <ele>1276</ele>
        <time>2021-08-04T08:00:34.820Z</time>
      </trkpt>
      <trkpt lat="46.98855" lon="8.83715">
        <ele>1277</ele>
        <time>2021-08-04T08:00:35.819Z</time>
      </trkpt>
      <trkpt lat="46.98855" lon="8.83714">
        <ele>1277</ele>
        <time>2021-08-04T08:00:36.820Z</time>
      </trkpt>
      <trkpt lat="46.98856" lon="8.83712">
        <ele>1278</ele>
        <time>2021-08-04T08:00:37.820Z</time>
      </trkpt>
      <trkpt lat="46.98857" lon="8.83711">
        <ele>1279</ele>
        <time>2021-08-04T08:00:38.820Z</time>
      </trkpt>
      <trkpt lat="46.98858" lon="8.83709">
        <ele>1279</ele>
        <time>2021-08-04T08:00:39.820Z</time>
      </trkpt>
      <trkpt lat="46.98859" lon="8.83707">
        <ele>1280</ele>
        <time>2021-08-04T08:00:40.820Z</time>
      </trkpt>
      <trkpt lat="46.98859" lon="8.83706">
        <ele>1280</ele>
        <time>2021-08-04T08:00:41.820Z</time>
      </trkpt>
      <trkpt lat="46.9886" lon="8.83705">
        <ele>1280</ele>
        <time>2021-08-04T08:00:42.820Z</time>
      </trkpt>
      <trkpt lat="46.9886" lon="8.83703">
        <ele>1281</ele>
        <time>2021-08-04T08:00:43.820Z</time>
      </trkpt>
      <trkpt lat="46.98861" lon="8.83702">
        <ele>1282</ele>
        <time>2021-08-04T08:00:44.820Z</time>
      </trkpt>
      <trkpt lat="46.98861" lon="8.83701">
        <ele>1282</ele>
        <time>2021-08-04T08:00:45.820Z</time>
      </trkpt>
      <trkpt lat="46.98862" lon="8.837">
        <ele>1282</ele>
        <time>2021-08-04T08:00:46.820Z</time>
      </trkpt>
      <trkpt lat="46.98862" lon="8.83699">
        <ele>1283</ele>
        <time>2021-08-04T08:00:47.820Z</time>
      </trkpt>
      <trkpt lat="46.98863" lon="8.83698">
        <ele>1283</ele>
        <time>2021-08-04T08:00:48.820Z</time>
      </trkpt>
      <trkpt lat="46.98864" lon="8.83697">
        <ele>1284</ele>
        <time>2021-08-04T08:00:49.819Z</time>
      </trkpt>
      <trkpt lat="46.98865" lon="8.83696">
        <ele>1284</ele>
        <time>2021-08-04T08:00:50.820Z</time>
      </trkpt>
      <trkpt lat="46.98866" lon="8.83694">
        <ele>1284</ele>
        <time>2021-08-04T08:00:51.820Z</time>
      </trkpt>
      <trkpt lat="46.98867" lon="8.83693">
        <ele>1283</ele>
        <time>2021-08-04T08:00:52.820Z</time>
      </trkpt>
      <trkpt lat="46.98868" lon="8.83693">
        <ele>1283</ele>
        <time>2021-08-04T08:00:53.820Z</time>
      </trkpt>
      <trkpt lat="46.98869" lon="8.83693">
        <ele>1282</ele>
        <time>2021-08-04T08:00:54.820Z</time>
      </trkpt>
      <trkpt lat="46.98869" lon="8.83692">
        <ele>1282</ele>
        <time>2021-08-04T08:00:55.820Z</time>
      </trkpt>
      <trkpt lat="46.98869" lon="8.83691">
        <ele>1282</ele>
        <time>2021-08-04T08:00:56.820Z</time>
      </trkpt>
      <trkpt lat="46.9887" lon="8.8369">
        <ele>1282</ele>
        <time>2021-08-04T08:00:57.819Z</time>
      </trkpt>
      <trkpt lat="46.98871" lon="8.83689">
        <ele>1281</ele>
        <time>2021-08-04T08:00:58.820Z</time>
      </trkpt>
      <trkpt lat="46.98872" lon="8.83689">
        <ele>1281</ele>
        <time>2021-08-04T08:00:59.820Z</time>
      </trkpt>
      <trkpt lat="46.98873" lon="8.83688">
        <ele>1280</ele>
        <time>2021-08-04T08:01:00.819Z</time>
      </trkpt>
      <trkpt lat="46.98874" lon="8.83687">
        <ele>1279</ele>
        <time>2021-08-04T08:01:01.820Z</time>
      </trkpt>
      <trkpt lat="46.98875" lon="8.83687">
        <ele>1278</ele>
        <time>2021-08-04T08:01:02.819Z</time>
      </trkpt>
      <trkpt lat="46.98876" lon="8.83686">
        <ele>1277</ele>
        <time>2021-08-04T08:01:03.819Z</time>
      </trkpt>
      <trkpt lat="46.98877" lon="8.83686">
        <ele>1275</ele>
        <time>2021-08-04T08:01:04.819Z</time>
      </trkpt>
      <trkpt lat="46.98879" lon="8.83685">
        <ele>1274</ele>
        <time>2021-08-04T08:01:05.819Z</time>
      </trkpt>
      <trkpt lat="46.9888" lon="8.83685">
        <ele>1273</ele>
        <time>2021-08-04T08:01:06.820Z</time>
      </trkpt>
      <trkpt lat="46.98881" lon="8.83684">
        <ele>1272</ele>
        <time>2021-08-04T08:01:07.820Z</time>
      </trkpt>
      <trkpt lat="46.98882" lon="8.83684">
        <ele>1271</ele>
        <time>2021-08-04T08:01:08.819Z</time>
      </trkpt>
      <trkpt lat="46.98883" lon="8.83683">
        <ele>1270</ele>
        <time>2021-08-04T08:01:09.820Z</time>
      </trkpt>
      <trkpt lat="46.98884" lon="8.83683">
        <ele>1269</ele>
        <time>2021-08-04T08:01:10.820Z</time>
      </trkpt>
      <trkpt lat="46.98886" lon="8.83683">
        <ele>1269</ele>
        <time>2021-08-04T08:01:11.820Z</time>
      </trkpt>
      <trkpt lat="46.98887" lon="8.83683">
        <ele>1268</ele>
        <time>2021-08-04T08:01:12.820Z</time>
      </trkpt>
      <trkpt lat="46.98889" lon="8.83684">
        <ele>1267</ele>
        <time>2021-08-04T08:01:13.820Z</time>
      </trkpt>
      <trkpt lat="46.9889" lon="8.83684">
        <ele>1267</ele>
        <time>2021-08-04T08:01:14.819Z</time>
      </trkpt>
      <trkpt lat="46.98891" lon="8.83685">
        <ele>1266</ele>
        <time>2021-08-04T08:01:15.820Z</time>
      </trkpt>
      <trkpt lat="46.98893" lon="8.83687">
        <ele>1266</ele>
        <time>2021-08-04T08:01:16.820Z</time>
      </trkpt>
      <trkpt lat="46.98895" lon="8.83689">
        <ele>1265</ele>
        <time>2021-08-04T08:01:17.820Z</time>
      </trkpt>
      <trkpt lat="46.98897" lon="8.83689">
        <ele>1264</ele>
        <time>2021-08-04T08:01:18.820Z</time>
      </trkpt>
      <trkpt lat="46.98898" lon="8.83689">
        <ele>1264</ele>
        <time>2021-08-04T08:01:19.820Z</time>
      </trkpt>
      <trkpt lat="46.989" lon="8.8369">
        <ele>1263</ele>
        <time>2021-08-04T08:01:20.820Z</time>
      </trkpt>
      <trkpt lat="46.98901" lon="8.83691">
        <ele>1263</ele>
        <time>2021-08-04T08:01:21.820Z</time>
      </trkpt>
      <trkpt lat="46.98902" lon="8.83692">
        <ele>1262</ele>
        <time>2021-08-04T08:01:22.820Z</time>
      </trkpt>
      <trkpt lat="46.98903" lon="8.83693">
        <ele>1262</ele>
        <time>2021-08-04T08:01:23.819Z</time>
      </trkpt>
      <trkpt lat="46.98904" lon="8.83695">
        <ele>1261</ele>
        <time>2021-08-04T08:01:24.819Z</time>
      </trkpt>
      <trkpt lat="46.98905" lon="8.83695">
        <ele>1261</ele>
        <time>2021-08-04T08:01:25.819Z</time>
      </trkpt>
      <trkpt lat="46.98906" lon="8.83696">
        <ele>1260</ele>
        <time>2021-08-04T08:01:26.820Z</time>
      </trkpt>
      <trkpt lat="46.98907" lon="8.83697">
        <ele>1260</ele>
        <time>2021-08-04T08:01:27.820Z</time>
      </trkpt>
      <trkpt lat="46.98908" lon="8.83699">
        <ele>1260</ele>
        <time>2021-08-04T08:01:28.819Z</time>
      </trkpt>
      <trkpt lat="46.98909" lon="8.837">
        <ele>1260</ele>
        <time>2021-08-04T08:01:29.820Z</time>
      </trkpt>
      <trkpt lat="46.9891" lon="8.83701">
        <ele>1260</ele>
        <time>2021-08-04T08:01:30.820Z</time>
      </trkpt>
      <trkpt lat="46.98912" lon="8.83701">
        <ele>1259</ele>
        <time>2021-08-04T08:01:31.820Z</time>
      </trkpt>
      <trkpt lat="46.98913" lon="8.83702">
        <ele>1259</ele>
        <time>2021-08-04T08:01:32.820Z</time>
      </trkpt>
      <trkpt lat="46.98914" lon="8.83703">
        <ele>1259</ele>
        <time>2021-08-04T08:01:33.820Z</time>
      </trkpt>
      <trkpt lat="46.98915" lon="8.83705">
        <ele>1259</ele>
        <time>2021-08-04T08:01:34.819Z</time>
      </trkpt>
      <trkpt lat="46.98916" lon="8.83706">
        <ele>1259</ele>
        <time>2021-08-04T08:01:35.819Z</time>
      </trkpt>
      <trkpt lat="46.98918" lon="8.83708">
        <ele>1259</ele>
        <time>2021-08-04T08:01:36.820Z</time>
      </trkpt>
      <trkpt lat="46.98919" lon="8.8371">
        <ele>1259</ele>
        <time>2021-08-04T08:01:37.820Z</time>
      </trkpt>
      <trkpt lat="46.9892" lon="8.8371">
        <ele>1259</ele>
        <time>2021-08-04T08:01:38.819Z</time>
      </trkpt>
      <trkpt lat="46.98921" lon="8.83711">
        <ele>1259</ele>
        <time>2021-08-04T08:01:39.820Z</time>
      </trkpt>
      <trkpt lat="46.98922" lon="8.83712">
        <ele>1259</ele>
        <time>2021-08-04T08:01:40.820Z</time>
      </trkpt>
      <trkpt lat="46.98923" lon="8.83713">
        <ele>1260</ele>
        <time>2021-08-04T08:01:41.820Z</time>
      </trkpt>
      <trkpt lat="46.98924" lon="8.83714">
        <ele>1260</ele>
        <time>2021-08-04T08:01:42.820Z</time>
      </trkpt>
      <trkpt lat="46.98924" lon="8.83715">
        <ele>1261</ele>
        <time>2021-08-04T08:01:43.820Z</time>
      </trkpt>
      <trkpt lat="46.98925" lon="8.83716">
        <ele>1261</ele>
        <time>2021-08-04T08:01:44.820Z</time>
      </trkpt>
      <trkpt lat="46.98926" lon="8.83717">
        <ele>1261</ele>
        <time>2021-08-04T08:01:45.819Z</time>
      </trkpt>
      <trkpt lat="46.98927" lon="8.83718">
        <ele>1261</ele>
        <time>2021-08-04T08:01:46.820Z</time>
      </trkpt>
      <trkpt lat="46.98928" lon="8.83719">
        <ele>1261</ele>
        <time>2021-08-04T08:01:47.820Z</time>
      </trkpt>
      <trkpt lat="46.98929" lon="8.8372">
        <ele>1261</ele>
        <time>2021-08-04T08:01:48.820Z</time>
      </trkpt>
      <trkpt lat="46.9893" lon="8.83721">
        <ele>1261</ele>
        <time>2021-08-04T08:01:49.820Z</time>
      </trkpt>
      <trkpt lat="46.98931" lon="8.83722">
        <ele>1261</ele>
        <time>2021-08-04T08:01:50.820Z</time>
      </trkpt>
      <trkpt lat="46.98932" lon="8.83723">
        <ele>1261</ele>
        <time>2021-08-04T08:01:51.820Z</time>
      </trkpt>
      <trkpt lat="46.98933" lon="8.83724">
        <ele>1261</ele>
        <time>2021-08-04T08:01:52.820Z</time>
      </trkpt>
      <trkpt lat="46.98935" lon="8.83725">
        <ele>1261</ele>
        <time>2021-08-04T08:01:53.820Z</time>
      </trkpt>
      <trkpt lat="46.98936" lon="8.83726">
        <ele>1261</ele>
        <time>2021-08-04T08:01:54.819Z</time>
      </trkpt>
      <trkpt lat="46.98937" lon="8.83726">
        <ele>1261</ele>
        <time>2021-08-04T08:01:55.820Z</time>
      </trkpt>
      <trkpt lat="46.98938" lon="8.83727">
        <ele>1261</ele>
        <time>2021-08-04T08:01:56.819Z</time>
      </trkpt>
      <trkpt lat="46.98939" lon="8.83727">
        <ele>1261</ele>
        <time>2021-08-04T08:01:57.819Z</time>
      </trkpt>
      <trkpt lat="46.9894" lon="8.83727">
        <ele>1261</ele>
        <time>2021-08-04T08:01:58.820Z</time>
      </trkpt>
      <trkpt lat="46.98942" lon="8.83726">
        <ele>1261</ele>
        <time>2021-08-04T08:01:59.819Z</time>
      </trkpt>
      <trkpt lat="46.98943" lon="8.83725">
        <ele>1260</ele>
        <time>2021-08-04T08:02:00.820Z</time>
      </trkpt>
      <trkpt lat="46.98944" lon="8.83723">
        <ele>1260</ele>
        <time>2021-08-04T08:02:01.820Z</time>
      </trkpt>
      <trkpt lat="46.98946" lon="8.83721">
        <ele>1259</ele>
        <time>2021-08-04T08:02:02.820Z</time>
      </trkpt>
      <trkpt lat="46.98947" lon="8.83719">
        <ele>1259</ele>
        <time>2021-08-04T08:02:03.819Z</time>
      </trkpt>
      <trkpt lat="46.98948" lon="8.83717">
        <ele>1259</ele>
        <time>2021-08-04T08:02:04.819Z</time>
      </trkpt>
      <trkpt lat="46.98949" lon="8.83714">
        <ele>1259</ele>
        <time>2021-08-04T08:02:05.820Z</time>
      </trkpt>
      <trkpt lat="46.9895" lon="8.83712">
        <ele>1259</ele>
        <time>2021-08-04T08:02:06.820Z</time>
      </trkpt>
      <trkpt lat="46.9895" lon="8.83709">
        <ele>1260</ele>
        <time>2021-08-04T08:02:07.820Z</time>
      </trkpt>
      <trkpt lat="46.98951" lon="8.83707">
        <ele>1261</ele>
        <time>2021-08-04T08:02:08.820Z</time>
      </trkpt>
      <trkpt lat="46.98951" lon="8.83705">
        <ele>1261</ele>
        <time>2021-08-04T08:02:09.820Z</time>
      </trkpt>
      <trkpt lat="46.98951" lon="8.83702">
        <ele>1262</ele>
        <time>2021-08-04T08:02:10.819Z</time>
      </trkpt>
      <trkpt lat="46.98951" lon="8.83699">
        <ele>1263</ele>
        <time>2021-08-04T08:02:11.820Z</time>
      </trkpt>
      <trkpt lat="46.98952" lon="8.83697">
        <ele>1264</ele>
        <time>2021-08-04T08:02:12.820Z</time>
      </trkpt>
      <trkpt lat="46.98952" lon="8.83694">
        <ele>1265</ele>
        <time>2021-08-04T08:02:13.820Z</time>
      </trkpt>
      <trkpt lat="46.98952" lon="8.83692">
        <ele>1266</ele>
        <time>2021-08-04T08:02:14.820Z</time>
      </trkpt>
      <trkpt lat="46.98952" lon="8.8369">
        <ele>1267</ele>
        <time>2021-08-04T08:02:15.820Z</time>
      </trkpt>
      <trkpt lat="46.98952" lon="8.83688">
        <ele>1268</ele>
        <time>2021-08-04T08:02:16.820Z</time>
      </trkpt>
      <trkpt lat="46.98953" lon="8.83685">
        <ele>1269</ele>
        <time>2021-08-04T08:02:17.820Z</time>
      </trkpt>
      <trkpt lat="46.98953" lon="8.83682">
        <ele>1270</ele>
        <time>2021-08-04T08:02:18.820Z</time>
      </trkpt>
      <trkpt lat="46.98954" lon="8.83679">
        <ele>1271</ele>
        <time>2021-08-04T08:02:19.820Z</time>
      </trkpt>
      <trkpt lat="46.98955" lon="8.83677">
        <ele>1271</ele>
        <time>2021-08-04T08:02:20.819Z</time>
      </trkpt>
      <trkpt lat="46.98955" lon="8.83675">
        <ele>1272</ele>
        <time>2021-08-04T08:02:21.820Z</time>
      </trkpt>
      <trkpt lat="46.98955" lon="8.83673">
        <ele>1272</ele>
        <time>2021-08-04T08:02:22.820Z</time>
      </trkpt>
      <trkpt lat="46.98955" lon="8.83672">
        <ele>1273</ele>
        <time>2021-08-04T08:02:23.819Z</time>
      </trkpt>
      <trkpt lat="46.98955" lon="8.8367">
        <ele>1273</ele>
        <time>2021-08-04T08:02:24.819Z</time>
      </trkpt>
      <trkpt lat="46.98956" lon="8.83668">
        <ele>1273</ele>
        <time>2021-08-04T08:02:25.819Z</time>
      </trkpt>
      <trkpt lat="46.98956" lon="8.83666">
        <ele>1273</ele>
        <time>2021-08-04T08:02:26.819Z</time>
      </trkpt>
      <trkpt lat="46.98956" lon="8.83665">
        <ele>1274</ele>
        <time>2021-08-04T08:02:27.820Z</time>
      </trkpt>
      <trkpt lat="46.98956" lon="8.83663">
        <ele>1274</ele>
        <time>2021-08-04T08:02:28.820Z</time>
      </trkpt>
      <trkpt lat="46.98955" lon="8.83661">
        <ele>1274</ele>
        <time>2021-08-04T08:02:29.820Z</time>
      </trkpt>
      <trkpt lat="46.98955" lon="8.8366">
        <ele>1273</ele>
        <time>2021-08-04T08:02:30.820Z</time>
      </trkpt>
      <trkpt lat="46.98954" lon="8.83658">
        <ele>1273</ele>
        <time>2021-08-04T08:02:31.820Z</time>
      </trkpt>
      <trkpt lat="46.98954" lon="8.83656">
        <ele>1274</ele>
        <time>2021-08-04T08:02:32.820Z</time>
      </trkpt>
      <trkpt lat="46.98953" lon="8.83654">
        <ele>1274</ele>
        <time>2021-08-04T08:02:33.820Z</time>
      </trkpt>
      <trkpt lat="46.98953" lon="8.83652">
        <ele>1275</ele>
        <time>2021-08-04T08:02:34.820Z</time>
      </trkpt>
      <trkpt lat="46.98953" lon="8.8365">
        <ele>1276</ele>
        <time>2021-08-04T08:02:35.819Z</time>
      </trkpt>
      <trkpt lat="46.98952" lon="8.83648">
        <ele>1276</ele>
        <time>2021-08-04T08:02:36.820Z</time>
      </trkpt>
      <trkpt lat="46.98951" lon="8.83645">
        <ele>1277</ele>
        <time>2021-08-04T08:02:37.820Z</time>
      </trkpt>
      <trkpt lat="46.9895" lon="8.83643">
        <ele>1277</ele>
        <time>2021-08-04T08:02:38.820Z</time>
      </trkpt>
      <trkpt lat="46.9895" lon="8.83641">
        <ele>1277</ele>
        <time>2021-08-04T08:02:39.820Z</time>
      </trkpt>
      <trkpt lat="46.9895" lon="8.83639">
        <ele>1277</ele>
        <time>2021-08-04T08:02:40.820Z</time>
      </trkpt>
      <trkpt lat="46.98949" lon="8.83638">
        <ele>1277</ele>
        <time>2021-08-04T08:02:41.819Z</time>
      </trkpt>
      <trkpt lat="46.98948" lon="8.83636">
        <ele>1277</ele>
        <time>2021-08-04T08:02:42.820Z</time>
      </trkpt>
      <trkpt lat="46.98948" lon="8.83635">
        <ele>1277</ele>
        <time>2021-08-04T08:02:43.819Z</time>
      </trkpt>
      <trkpt lat="46.98947" lon="8.83634">
        <ele>1277</ele>
        <time>2021-08-04T08:02:44.820Z</time>
      </trkpt>
      <trkpt lat="46.98946" lon="8.83632">
        <ele>1277</ele>
        <time>2021-08-04T08:02:45.820Z</time>
      </trkpt>
      <trkpt lat="46.98945" lon="8.83631">
        <ele>1277</ele>
        <time>2021-08-04T08:02:46.820Z</time>
      </trkpt>
      <trkpt lat="46.98945" lon="8.8363">
        <ele>1277</ele>
        <time>2021-08-04T08:02:47.820Z</time>
      </trkpt>
      <trkpt lat="46.98943" lon="8.83627">
        <ele>1276</ele>
        <time>2021-08-04T08:02:48.819Z</time>
      </trkpt>
      <trkpt lat="46.98941" lon="8.83624">
        <ele>1276</ele>
        <time>2021-08-04T08:02:49.819Z</time>
      </trkpt>
      <trkpt lat="46.98939" lon="8.83622">
        <ele>1275</ele>
        <time>2021-08-04T08:02:50.819Z</time>
      </trkpt>
      <trkpt lat="46.98937" lon="8.8362">
        <ele>1274</ele>
        <time>2021-08-04T08:02:51.820Z</time>
      </trkpt>
      <trkpt lat="46.98936" lon="8.83618">
        <ele>1274</ele>
        <time>2021-08-04T08:02:52.820Z</time>
      </trkpt>
      <trkpt lat="46.98934" lon="8.83617">
        <ele>1273</ele>
        <time>2021-08-04T08:02:53.820Z</time>
      </trkpt>
      <trkpt lat="46.98932" lon="8.83615">
        <ele>1271</ele>
        <time>2021-08-04T08:02:54.820Z</time>
      </trkpt>
      <trkpt lat="46.98931" lon="8.83614">
        <ele>1270</ele>
        <time>2021-08-04T08:02:55.819Z</time>
      </trkpt>
      <trkpt lat="46.98929" lon="8.83613">
        <ele>1269</ele>
        <time>2021-08-04T08:02:56.820Z</time>
      </trkpt>
      <trkpt lat="46.98928" lon="8.83612">
        <ele>1268</ele>
        <time>2021-08-04T08:02:57.819Z</time>
      </trkpt>
      <trkpt lat="46.98928" lon="8.83611">
        <ele>1267</ele>
        <time>2021-08-04T08:02:58.819Z</time>
      </trkpt>
      <trkpt lat="46.98927" lon="8.8361">
        <ele>1266</ele>
        <time>2021-08-04T08:02:59.820Z</time>
      </trkpt>
      <trkpt lat="46.98926" lon="8.83608">
        <ele>1265</ele>
        <time>2021-08-04T08:03:00.819Z</time>
      </trkpt>
      <trkpt lat="46.98925" lon="8.83606">
        <ele>1264</ele>
        <time>2021-08-04T08:03:01.820Z</time>
      </trkpt>
      <trkpt lat="46.98925" lon="8.83604">
        <ele>1264</ele>
        <time>2021-08-04T08:03:02.820Z</time>
      </trkpt>
      <trkpt lat="46.98924" lon="8.83602">
        <ele>1264</ele>
        <time>2021-08-04T08:03:03.819Z</time>
      </trkpt>
      <trkpt lat="46.98923" lon="8.836">
        <ele>1264</ele>
        <time>2021-08-04T08:03:04.820Z</time>
      </trkpt>
      <trkpt lat="46.98922" lon="8.83598">
        <ele>1264</ele>
        <time>2021-08-04T08:03:05.820Z</time>
      </trkpt>
      <trkpt lat="46.98921" lon="8.83596">
        <ele>1264</ele>
        <time>2021-08-04T08:03:06.820Z</time>
      </trkpt>
      <trkpt lat="46.9892" lon="8.83595">
        <ele>1264</ele>
        <time>2021-08-04T08:03:07.819Z</time>
      </trkpt>
      <trkpt lat="46.98919" lon="8.83593">
        <ele>1264</ele>
        <time>2021-08-04T08:03:08.820Z</time>
      </trkpt>
      <trkpt lat="46.98919" lon="8.83592">
        <ele>1265</ele>
        <time>2021-08-04T08:03:09.820Z</time>
      </trkpt>
      <trkpt lat="46.98918" lon="8.8359">
        <ele>1265</ele>
        <time>2021-08-04T08:03:10.820Z</time>
      </trkpt>
      <trkpt lat="46.98917" lon="8.83588">
        <ele>1265</ele>
        <time>2021-08-04T08:03:11.820Z</time>
      </trkpt>
      <trkpt lat="46.98917" lon="8.83587">
        <ele>1265</ele>
        <time>2021-08-04T08:03:12.819Z</time>
      </trkpt>
      <trkpt lat="46.98916" lon="8.83586">
        <ele>1266</ele>
        <time>2021-08-04T08:03:13.820Z</time>
      </trkpt>
      <trkpt lat="46.98915" lon="8.83585">
        <ele>1266</ele>
        <time>2021-08-04T08:03:14.820Z</time>
      </trkpt>
      <trkpt lat="46.98914" lon="8.83583">
        <ele>1266</ele>
        <time>2021-08-04T08:03:15.820Z</time>
      </trkpt>
      <trkpt lat="46.98914" lon="8.83582">
        <ele>1266</ele>
        <time>2021-08-04T08:03:16.820Z</time>
      </trkpt>
      <trkpt lat="46.98914" lon="8.83579">
        <ele>1265</ele>
        <time>2021-08-04T08:03:17.820Z</time>
      </trkpt>
      <trkpt lat="46.98913" lon="8.83577">
        <ele>1265</ele>
        <time>2021-08-04T08:03:18.820Z</time>
      </trkpt>
      <trkpt lat="46.98913" lon="8.83575">
        <ele>1265</ele>
        <time>2021-08-04T08:03:19.820Z</time>
      </trkpt>
      <trkpt lat="46.98913" lon="8.83573">
        <ele>1265</ele>
        <time>2021-08-04T08:03:20.820Z</time>
      </trkpt>
      <trkpt lat="46.98913" lon="8.83572">
        <ele>1265</ele>
        <time>2021-08-04T08:03:21.819Z</time>
      </trkpt>
      <trkpt lat="46.98912" lon="8.8357">
        <ele>1266</ele>
        <time>2021-08-04T08:03:22.819Z</time>
      </trkpt>
      <trkpt lat="46.98912" lon="8.83567">
        <ele>1266</ele>
        <time>2021-08-04T08:03:23.820Z</time>
      </trkpt>
      <trkpt lat="46.98913" lon="8.83565">
        <ele>1266</ele>
        <time>2021-08-04T08:03:24.820Z</time>
      </trkpt>
      <trkpt lat="46.98913" lon="8.83564">
        <ele>1267</ele>
        <time>2021-08-04T08:03:25.819Z</time>
      </trkpt>
      <trkpt lat="46.98913" lon="8.83562">
        <ele>1267</ele>
        <time>2021-08-04T08:03:26.820Z</time>
      </trkpt>
      <trkpt lat="46.98914" lon="8.8356">
        <ele>1268</ele>
        <time>2021-08-04T08:03:27.820Z</time>
      </trkpt>
      <trkpt lat="46.98914" lon="8.83558">
        <ele>1269</ele>
        <time>2021-08-04T08:03:28.820Z</time>
      </trkpt>
      <trkpt lat="46.98915" lon="8.83557">
        <ele>1269</ele>
        <time>2021-08-04T08:03:29.820Z</time>
      </trkpt>
      <trkpt lat="46.98915" lon="8.83555">
        <ele>1270</ele>
        <time>2021-08-04T08:03:30.819Z</time>
      </trkpt>
      <trkpt lat="46.98916" lon="8.83553">
        <ele>1270</ele>
        <time>2021-08-04T08:03:31.819Z</time>
      </trkpt>
      <trkpt lat="46.98917" lon="8.83551">
        <ele>1271</ele>
        <time>2021-08-04T08:03:32.820Z</time>
      </trkpt>
      <trkpt lat="46.98916" lon="8.8355">
        <ele>1271</ele>
        <time>2021-08-04T08:03:33.820Z</time>
      </trkpt>
      <trkpt lat="46.98916" lon="8.83548">
        <ele>1272</ele>
        <time>2021-08-04T08:03:34.820Z</time>
      </trkpt>
      <trkpt lat="46.98916" lon="8.83547">
        <ele>1272</ele>
        <time>2021-08-04T08:03:35.820Z</time>
      </trkpt>
      <trkpt lat="46.98916" lon="8.83546">
        <ele>1272</ele>
        <time>2021-08-04T08:03:36.820Z</time>
      </trkpt>
      <trkpt lat="46.98915" lon="8.83544">
        <ele>1273</ele>
        <time>2021-08-04T08:03:37.819Z</time>
      </trkpt>
      <trkpt lat="46.98915" lon="8.83543">
        <ele>1273</ele>
        <time>2021-08-04T08:03:38.820Z</time>
      </trkpt>
      <trkpt lat="46.98916" lon="8.83541">
        <ele>1273</ele>
        <time>2021-08-04T08:03:39.820Z</time>
      </trkpt>
      <trkpt lat="46.98916" lon="8.83539">
        <ele>1273</ele>
        <time>2021-08-04T08:03:40.819Z</time>
      </trkpt>
      <trkpt lat="46.98916" lon="8.83537">
        <ele>1273</ele>
        <time>2021-08-04T08:03:41.820Z</time>
      </trkpt>
      <trkpt lat="46.98915" lon="8.83535">
        <ele>1273</ele>
        <time>2021-08-04T08:03:42.820Z</time>
      </trkpt>
      <trkpt lat="46.98916" lon="8.83532">
        <ele>1273</ele>
        <time>2021-08-04T08:03:43.819Z</time>
      </trkpt>
      <trkpt lat="46.98917" lon="8.83531">
        <ele>1273</ele>
        <time>2021-08-04T08:03:44.820Z</time>
      </trkpt>
      <trkpt lat="46.98918" lon="8.83529">
        <ele>1273</ele>
        <time>2021-08-04T08:03:45.819Z</time>
      </trkpt>
      <trkpt lat="46.98917" lon="8.83526">
        <ele>1273</ele>
        <time>2021-08-04T08:03:46.819Z</time>
      </trkpt>
      <trkpt lat="46.98917" lon="8.83525">
        <ele>1272</ele>
        <time>2021-08-04T08:03:47.820Z</time>
      </trkpt>
      <trkpt lat="46.98916" lon="8.83523">
        <ele>1272</ele>
        <time>2021-08-04T08:03:48.820Z</time>
      </trkpt>
      <trkpt lat="46.98916" lon="8.83521">
        <ele>1272</ele>
        <time>2021-08-04T08:03:49.820Z</time>
      </trkpt>
      <trkpt lat="46.98916" lon="8.8352">
        <ele>1271</ele>
        <time>2021-08-04T08:03:50.819Z</time>
      </trkpt>
      <trkpt lat="46.98917" lon="8.83518">
        <ele>1271</ele>
        <time>2021-08-04T08:03:51.820Z</time>
      </trkpt>
      <trkpt lat="46.98915" lon="8.83517">
        <ele>1270</ele>
        <time>2021-08-04T08:03:52.820Z</time>
      </trkpt>
      <trkpt lat="46.98915" lon="8.83515">
        <ele>1270</ele>
        <time>2021-08-04T08:03:53.820Z</time>
      </trkpt>
      <trkpt lat="46.98913" lon="8.83514">
        <ele>1270</ele>
        <time>2021-08-04T08:03:54.819Z</time>
      </trkpt>
      <trkpt lat="46.98913" lon="8.83513">
        <ele>1269</ele>
        <time>2021-08-04T08:03:55.819Z</time>
      </trkpt>
      <trkpt lat="46.98913" lon="8.83511">
        <ele>1269</ele>
        <time>2021-08-04T08:03:56.819Z</time>
      </trkpt>
      <trkpt lat="46.98912" lon="8.8351">
        <ele>1269</ele>
        <time>2021-08-04T08:03:57.819Z</time>
      </trkpt>
      <trkpt lat="46.98912" lon="8.83509">
        <ele>1269</ele>
        <time>2021-08-04T08:03:58.819Z</time>
      </trkpt>
      <trkpt lat="46.98911" lon="8.83507">
        <ele>1269</ele>
        <time>2021-08-04T08:03:59.819Z</time>
      </trkpt>
      <trkpt lat="46.98911" lon="8.83505">
        <ele>1269</ele>
        <time>2021-08-04T08:04:00.819Z</time>
      </trkpt>
      <trkpt lat="46.98911" lon="8.83504">
        <ele>1269</ele>
        <time>2021-08-04T08:04:01.820Z</time>
      </trkpt>
      <trkpt lat="46.98912" lon="8.83502">
        <ele>1269</ele>
        <time>2021-08-04T08:04:02.820Z</time>
      </trkpt>
      <trkpt lat="46.98912" lon="8.835">
        <ele>1269</ele>
        <time>2021-08-04T08:04:03.820Z</time>
      </trkpt>
      <trkpt lat="46.98912" lon="8.83498">
        <ele>1269</ele>
        <time>2021-08-04T08:04:04.820Z</time>
      </trkpt>
      <trkpt lat="46.98912" lon="8.83496">
        <ele>1269</ele>
        <time>2021-08-04T08:04:05.820Z</time>
      </trkpt>
      <trkpt lat="46.98911" lon="8.83494">
        <ele>1270</ele>
        <time>2021-08-04T08:04:06.820Z</time>
      </trkpt>
      <trkpt lat="46.98911" lon="8.83492">
        <ele>1270</ele>
        <time>2021-08-04T08:04:07.820Z</time>
      </trkpt>
      <trkpt lat="46.98912" lon="8.8349">
        <ele>1271</ele>
        <time>2021-08-04T08:04:08.820Z</time>
      </trkpt>
      <trkpt lat="46.98912" lon="8.83488">
        <ele>1271</ele>
        <time>2021-08-04T08:04:09.820Z</time>
      </trkpt>
      <trkpt lat="46.98912" lon="8.83486">
        <ele>1272</ele>
        <time>2021-08-04T08:04:10.820Z</time>
      </trkpt>
      <trkpt lat="46.98913" lon="8.83485">
        <ele>1272</ele>
        <time>2021-08-04T08:04:11.820Z</time>
      </trkpt>
      <trkpt lat="46.98913" lon="8.83483">
        <ele>1273</ele>
        <time>2021-08-04T08:04:12.820Z</time>
      </trkpt>
      <trkpt lat="46.98913" lon="8.83481">
        <ele>1274</ele>
        <time>2021-08-04T08:04:13.820Z</time>
      </trkpt>
      <trkpt lat="46.98913" lon="8.83479">
        <ele>1275</ele>
        <time>2021-08-04T08:04:14.819Z</time>
      </trkpt>
      <trkpt lat="46.98913" lon="8.83476">
        <ele>1275</ele>
        <time>2021-08-04T08:04:15.819Z</time>
      </trkpt>
      <trkpt lat="46.98913" lon="8.83474">
        <ele>1276</ele>
        <time>2021-08-04T08:04:16.820Z</time>
      </trkpt>
      <trkpt lat="46.98914" lon="8.83472">
        <ele>1277</ele>
        <time>2021-08-04T08:04:17.820Z</time>
      </trkpt>
      <trkpt lat="46.98914" lon="8.83469">
        <ele>1277</ele>
        <time>2021-08-04T08:04:18.820Z</time>
      </trkpt>
      <trkpt lat="46.98914" lon="8.83467">
        <ele>1278</ele>
        <time>2021-08-04T08:04:19.819Z</time>
      </trkpt>
      <trkpt lat="46.98915" lon="8.83465">
        <ele>1279</ele>
        <time>2021-08-04T08:04:20.820Z</time>
      </trkpt>
      <trkpt lat="46.98915" lon="8.83462">
        <ele>1279</ele>
        <time>2021-08-04T08:04:21.820Z</time>
      </trkpt>
      <trkpt lat="46.98915" lon="8.83461">
        <ele>1280</ele>
        <time>2021-08-04T08:04:22.819Z</time>
      </trkpt>
      <trkpt lat="46.98916" lon="8.83459">
        <ele>1280</ele>
        <time>2021-08-04T08:04:23.820Z</time>
      </trkpt>
      <trkpt lat="46.98917" lon="8.83458">
        <ele>1281</ele>
        <time>2021-08-04T08:04:24.820Z</time>
      </trkpt>
      <trkpt lat="46.98918" lon="8.83456">
        <ele>1281</ele>
        <time>2021-08-04T08:04:25.820Z</time>
      </trkpt>
      <trkpt lat="46.98918" lon="8.83454">
        <ele>1282</ele>
        <time>2021-08-04T08:04:26.820Z</time>
      </trkpt>
      <trkpt lat="46.98919" lon="8.83453">
        <ele>1282</ele>
        <time>2021-08-04T08:04:27.819Z</time>
      </trkpt>
      <trkpt lat="46.98919" lon="8.83451">
        <ele>1283</ele>
        <time>2021-08-04T08:04:28.820Z</time>
      </trkpt>
      <trkpt lat="46.98919" lon="8.8345">
        <ele>1283</ele>
        <time>2021-08-04T08:04:29.819Z</time>
      </trkpt>
      <trkpt lat="46.98919" lon="8.83449">
        <ele>1283</ele>
        <time>2021-08-04T08:04:30.819Z</time>
      </trkpt>
      <trkpt lat="46.9892" lon="8.83448">
        <ele>1284</ele>
        <time>2021-08-04T08:04:31.820Z</time>
      </trkpt>
      <trkpt lat="46.9892" lon="8.83447">
        <ele>1284</ele>
        <time>2021-08-04T08:04:32.820Z</time>
      </trkpt>
      <trkpt lat="46.9892" lon="8.83446">
        <ele>1284</ele>
        <time>2021-08-04T08:04:33.820Z</time>
      </trkpt>
      <trkpt lat="46.98921" lon="8.83445">
        <ele>1284</ele>
        <time>2021-08-04T08:04:34.820Z</time>
      </trkpt>
      <trkpt lat="46.98921" lon="8.83444">
        <ele>1284</ele>
        <time>2021-08-04T08:04:35.819Z</time>
      </trkpt>
      <trkpt lat="46.98922" lon="8.83442">
        <ele>1284</ele>
        <time>2021-08-04T08:04:36.819Z</time>
      </trkpt>
      <trkpt lat="46.98923" lon="8.83441">
        <ele>1284</ele>
        <time>2021-08-04T08:04:37.820Z</time>
      </trkpt>
      <trkpt lat="46.98924" lon="8.83439">
        <ele>1284</ele>
        <time>2021-08-04T08:04:38.819Z</time>
      </trkpt>
      <trkpt lat="46.98925" lon="8.83438">
        <ele>1284</ele>
        <time>2021-08-04T08:04:39.820Z</time>
      </trkpt>
      <trkpt lat="46.98926" lon="8.83436">
        <ele>1283</ele>
        <time>2021-08-04T08:04:40.819Z</time>
      </trkpt>
      <trkpt lat="46.98927" lon="8.83434">
        <ele>1283</ele>
        <time>2021-08-04T08:04:41.820Z</time>
      </trkpt>
      <trkpt lat="46.98929" lon="8.83433">
        <ele>1283</ele>
        <time>2021-08-04T08:04:42.820Z</time>
      </trkpt>
      <trkpt lat="46.9893" lon="8.83431">
        <ele>1282</ele>
        <time>2021-08-04T08:04:43.820Z</time>
      </trkpt>
      <trkpt lat="46.98931" lon="8.83429">
        <ele>1282</ele>
        <time>2021-08-04T08:04:44.819Z</time>
      </trkpt>
      <trkpt lat="46.98932" lon="8.83427">
        <ele>1282</ele>
        <time>2021-08-04T08:04:45.820Z</time>
      </trkpt>
      <trkpt lat="46.98932" lon="8.83426">
        <ele>1282</ele>
        <time>2021-08-04T08:04:46.820Z</time>
      </trkpt>
      <trkpt lat="46.98933" lon="8.83425">
        <ele>1282</ele>
        <time>2021-08-04T08:04:47.820Z</time>
      </trkpt>
      <trkpt lat="46.98933" lon="8.83423">
        <ele>1282</ele>
        <time>2021-08-04T08:04:48.819Z</time>
      </trkpt>
      <trkpt lat="46.98934" lon="8.83422">
        <ele>1283</ele>
        <time>2021-08-04T08:04:49.820Z</time>
      </trkpt>
      <trkpt lat="46.98935" lon="8.83421">
        <ele>1283</ele>
        <time>2021-08-04T08:04:50.820Z</time>
      </trkpt>
      <trkpt lat="46.98936" lon="8.8342">
        <ele>1284</ele>
        <time>2021-08-04T08:04:51.820Z</time>
      </trkpt>
      <trkpt lat="46.98936" lon="8.83419">
        <ele>1284</ele>
        <time>2021-08-04T08:04:52.820Z</time>
      </trkpt>
      <trkpt lat="46.98936" lon="8.83418">
        <ele>1284</ele>
        <time>2021-08-04T08:04:53.820Z</time>
      </trkpt>
      <trkpt lat="46.98937" lon="8.83418">
        <ele>1284</ele>
        <time>2021-08-04T08:04:54.820Z</time>
      </trkpt>
      <trkpt lat="46.98938" lon="8.83417">
        <ele>1284</ele>
        <time>2021-08-04T08:04:55.819Z</time>
      </trkpt>
      <trkpt lat="46.98938" lon="8.83417">
        <ele>1283</ele>
        <time>2021-08-04T08:04:56.819Z</time>
      </trkpt>
      <trkpt lat="46.98938" lon="8.83416">
        <ele>1283</ele>
        <time>2021-08-04T08:04:57.820Z</time>
      </trkpt>
      <trkpt lat="46.98938" lon="8.83415">
        <ele>1282</ele>
        <time>2021-08-04T08:04:58.820Z</time>
      </trkpt>
      <trkpt lat="46.98938" lon="8.83414">
        <ele>1281</ele>
        <time>2021-08-04T08:04:59.820Z</time>
      </trkpt>
      <trkpt lat="46.98938" lon="8.83413">
        <ele>1280</ele>
        <time>2021-08-04T08:05:00.819Z</time>
      </trkpt>
      <trkpt lat="46.98939" lon="8.83412">
        <ele>1279</ele>
        <time>2021-08-04T08:05:01.819Z</time>
      </trkpt>
      <trkpt lat="46.98939" lon="8.8341">
        <ele>1278</ele>
        <time>2021-08-04T08:05:02.820Z</time>
      </trkpt>
      <trkpt lat="46.98939" lon="8.83409">
        <ele>1278</ele>
        <time>2021-08-04T08:05:03.820Z</time>
      </trkpt>
      <trkpt lat="46.98939" lon="8.83408">
        <ele>1277</ele>
        <time>2021-08-04T08:05:04.819Z</time>
      </trkpt>
      <trkpt lat="46.9894" lon="8.83406">
        <ele>1276</ele>
        <time>2021-08-04T08:05:05.819Z</time>
      </trkpt>
      <trkpt lat="46.98941" lon="8.83405">
        <ele>1275</ele>
        <time>2021-08-04T08:05:06.819Z</time>
      </trkpt>
      <trkpt lat="46.98941" lon="8.83403">
        <ele>1274</ele>
        <time>2021-08-04T08:05:07.819Z</time>
      </trkpt>
      <trkpt lat="46.98941" lon="8.83401">
        <ele>1274</ele>
        <time>2021-08-04T08:05:08.819Z</time>
      </trkpt>
      <trkpt lat="46.98941" lon="8.834">
        <ele>1273</ele>
        <time>2021-08-04T08:05:09.819Z</time>
      </trkpt>
      <trkpt lat="46.98942" lon="8.83398">
        <ele>1272</ele>
        <time>2021-08-04T08:05:10.819Z</time>
      </trkpt>
      <trkpt lat="46.98942" lon="8.83397">
        <ele>1271</ele>
        <time>2021-08-04T08:05:11.819Z</time>
      </trkpt>
      <trkpt lat="46.98942" lon="8.83395">
        <ele>1271</ele>
        <time>2021-08-04T08:05:12.819Z</time>
      </trkpt>
      <trkpt lat="46.98942" lon="8.83394">
        <ele>1270</ele>
        <time>2021-08-04T08:05:13.819Z</time>
      </trkpt>
      <trkpt lat="46.98943" lon="8.83393">
        <ele>1270</ele>
        <time>2021-08-04T08:05:14.819Z</time>
      </trkpt>
      <trkpt lat="46.98943" lon="8.83392">
        <ele>1270</ele>
        <time>2021-08-04T08:05:15.819Z</time>
      </trkpt>
      <trkpt lat="46.98944" lon="8.83391">
        <ele>1269</ele>
        <time>2021-08-04T08:05:16.820Z</time>
      </trkpt>
      <trkpt lat="46.98944" lon="8.8339">
        <ele>1269</ele>
        <time>2021-08-04T08:05:17.820Z</time>
      </trkpt>
      <trkpt lat="46.98945" lon="8.83388">
        <ele>1269</ele>
        <time>2021-08-04T08:05:18.820Z</time>
      </trkpt>
      <trkpt lat="46.98946" lon="8.83387">
        <ele>1268</ele>
        <time>2021-08-04T08:05:19.820Z</time>
      </trkpt>
      <trkpt lat="46.98946" lon="8.83385">
        <ele>1268</ele>
        <time>2021-08-04T08:05:20.819Z</time>
      </trkpt>
      <trkpt lat="46.98947" lon="8.83383">
        <ele>1268</ele>
        <time>2021-08-04T08:05:21.820Z</time>
      </trkpt>
      <trkpt lat="46.98947" lon="8.83382">
        <ele>1267</ele>
        <time>2021-08-04T08:05:22.819Z</time>
      </trkpt>
      <trkpt lat="46.98948" lon="8.83381">
        <ele>1266</ele>
        <time>2021-08-04T08:05:23.819Z</time>
      </trkpt>
      <trkpt lat="46.98948" lon="8.83379">
        <ele>1266</ele>
        <time>2021-08-04T08:05:24.820Z</time>
      </trkpt>
      <trkpt lat="46.98948" lon="8.83377">
        <ele>1265</ele>
        <time>2021-08-04T08:05:25.820Z</time>
      </trkpt>
      <trkpt lat="46.98949" lon="8.83375">
        <ele>1264</ele>
        <time>2021-08-04T08:05:26.819Z</time>
      </trkpt>
      <trkpt lat="46.98948" lon="8.83374">
        <ele>1264</ele>
        <time>2021-08-04T08:05:27.819Z</time>
      </trkpt>
      <trkpt lat="46.98948" lon="8.83372">
        <ele>1263</ele>
        <time>2021-08-04T08:05:28.820Z</time>
      </trkpt>
      <trkpt lat="46.98949" lon="8.83371">
        <ele>1263</ele>
        <time>2021-08-04T08:05:29.820Z</time>
      </trkpt>
      <trkpt lat="46.98949" lon="8.8337">
        <ele>1262</ele>
        <time>2021-08-04T08:05:30.820Z</time>
      </trkpt>
      <trkpt lat="46.9895" lon="8.83368">
        <ele>1262</ele>
        <time>2021-08-04T08:05:31.820Z</time>
      </trkpt>
      <trkpt lat="46.98951" lon="8.83366">
        <ele>1261</ele>
        <time>2021-08-04T08:05:32.819Z</time>
      </trkpt>
      <trkpt lat="46.98951" lon="8.83364">
        <ele>1260</ele>
        <time>2021-08-04T08:05:33.820Z</time>
      </trkpt>
      <trkpt lat="46.98952" lon="8.83363">
        <ele>1259</ele>
        <time>2021-08-04T08:05:34.820Z</time>
      </trkpt>
      <trkpt lat="46.98952" lon="8.83361">
        <ele>1258</ele>
        <time>2021-08-04T08:05:35.820Z</time>
      </trkpt>
      <trkpt lat="46.98953" lon="8.83359">
        <ele>1258</ele>
        <time>2021-08-04T08:05:36.820Z</time>
      </trkpt>
      <trkpt lat="46.98954" lon="8.83358">
        <ele>1257</ele>
        <time>2021-08-04T08:05:37.820Z</time>
      </trkpt>
      <trkpt lat="46.98955" lon="8.83357">
        <ele>1257</ele>
        <time>2021-08-04T08:05:38.820Z</time>
      </trkpt>
      <trkpt lat="46.98955" lon="8.83355">
        <ele>1257</ele>
        <time>2021-08-04T08:05:39.820Z</time>
      </trkpt>
      <trkpt lat="46.98956" lon="8.83353">
        <ele>1257</ele>
        <time>2021-08-04T08:05:40.820Z</time>
      </trkpt>
      <trkpt lat="46.98957" lon="8.83351">
        <ele>1257</ele>
        <time>2021-08-04T08:05:41.820Z</time>
      </trkpt>
      <trkpt lat="46.98957" lon="8.83349">
        <ele>1258</ele>
        <time>2021-08-04T08:05:42.820Z</time>
      </trkpt>
      <trkpt lat="46.98957" lon="8.83347">
        <ele>1258</ele>
        <time>2021-08-04T08:05:43.820Z</time>
      </trkpt>
      <trkpt lat="46.98957" lon="8.83344">
        <ele>1258</ele>
        <time>2021-08-04T08:05:44.819Z</time>
      </trkpt>
      <trkpt lat="46.98957" lon="8.83341">
        <ele>1259</ele>
        <time>2021-08-04T08:05:45.820Z</time>
      </trkpt>
      <trkpt lat="46.98957" lon="8.83339">
        <ele>1259</ele>
        <time>2021-08-04T08:05:46.820Z</time>
      </trkpt>
      <trkpt lat="46.98957" lon="8.83338">
        <ele>1259</ele>
        <time>2021-08-04T08:05:47.819Z</time>
      </trkpt>
      <trkpt lat="46.98956" lon="8.83336">
        <ele>1260</ele>
        <time>2021-08-04T08:05:48.820Z</time>
      </trkpt>
      <trkpt lat="46.98956" lon="8.83334">
        <ele>1260</ele>
        <time>2021-08-04T08:05:49.819Z</time>
      </trkpt>
      <trkpt lat="46.98956" lon="8.83332">
        <ele>1260</ele>
        <time>2021-08-04T08:05:50.820Z</time>
      </trkpt>
      <trkpt lat="46.98955" lon="8.8333">
        <ele>1260</ele>
        <time>2021-08-04T08:05:51.820Z</time>
      </trkpt>
      <trkpt lat="46.98954" lon="8.83329">
        <ele>1260</ele>
        <time>2021-08-04T08:05:52.820Z</time>
      </trkpt>
      <trkpt lat="46.98953" lon="8.83327">
        <ele>1260</ele>
        <time>2021-08-04T08:05:53.819Z</time>
      </trkpt>
      <trkpt lat="46.98952" lon="8.83326">
        <ele>1260</ele>
        <time>2021-08-04T08:05:54.820Z</time>
      </trkpt>
      <trkpt lat="46.98951" lon="8.83325">
        <ele>1260</ele>
        <time>2021-08-04T08:05:55.820Z</time>
      </trkpt>
      <trkpt lat="46.9895" lon="8.83323">
        <ele>1260</ele>
        <time>2021-08-04T08:05:56.820Z</time>
      </trkpt>
      <trkpt lat="46.98949" lon="8.83322">
        <ele>1260</ele>
        <time>2021-08-04T08:05:57.819Z</time>
      </trkpt>
      <trkpt lat="46.98948" lon="8.8332">
        <ele>1261</ele>
        <time>2021-08-04T08:05:58.820Z</time>
      </trkpt>
      <trkpt lat="46.98947" lon="8.83317">
        <ele>1261</ele>
        <time>2021-08-04T08:05:59.820Z</time>
      </trkpt>
      <trkpt lat="46.98946" lon="8.83315">
        <ele>1260</ele>
        <time>2021-08-04T08:06:00.820Z</time>
      </trkpt>
      <trkpt lat="46.98946" lon="8.83314">
        <ele>1260</ele>
        <time>2021-08-04T08:06:01.820Z</time>
      </trkpt>
      <trkpt lat="46.98945" lon="8.83313">
        <ele>1260</ele>
        <time>2021-08-04T08:06:02.819Z</time>
      </trkpt>
      <trkpt lat="46.98944" lon="8.83312">
        <ele>1260</ele>
        <time>2021-08-04T08:06:03.819Z</time>
      </trkpt>
      <trkpt lat="46.98943" lon="8.8331">
        <ele>1259</ele>
        <time>2021-08-04T08:06:04.820Z</time>
      </trkpt>
      <trkpt lat="46.98942" lon="8.83308">
        <ele>1259</ele>
        <time>2021-08-04T08:06:05.820Z</time>
      </trkpt>
      <trkpt lat="46.98941" lon="8.83305">
        <ele>1259</ele>
        <time>2021-08-04T08:06:06.819Z</time>
      </trkpt>
      <trkpt lat="46.98941" lon="8.83303">
        <ele>1259</ele>
        <time>2021-08-04T08:06:07.819Z</time>
      </trkpt>
      <trkpt lat="46.9894" lon="8.83301">
        <ele>1259</ele>
        <time>2021-08-04T08:06:08.820Z</time>
      </trkpt>
      <trkpt lat="46.9894" lon="8.83299">
        <ele>1259</ele>
        <time>2021-08-04T08:06:09.820Z</time>
      </trkpt>
      <trkpt lat="46.98939" lon="8.83297">
        <ele>1259</ele>
        <time>2021-08-04T08:06:10.820Z</time>
      </trkpt>
      <trkpt lat="46.98939" lon="8.83294">
        <ele>1258</ele>
        <time>2021-08-04T08:06:11.819Z</time>
      </trkpt>
      <trkpt lat="46.98938" lon="8.83293">
        <ele>1258</ele>
        <time>2021-08-04T08:06:12.820Z</time>
      </trkpt>
      <trkpt lat="46.98938" lon="8.83292">
        <ele>1258</ele>
        <time>2021-08-04T08:06:13.820Z</time>
      </trkpt>
      <trkpt lat="46.98937" lon="8.8329">
        <ele>1257</ele>
        <time>2021-08-04T08:06:14.820Z</time>
      </trkpt>
      <trkpt lat="46.98935" lon="8.83288">
        <ele>1257</ele>
        <time>2021-08-04T08:06:15.819Z</time>
      </trkpt>
      <trkpt lat="46.98934" lon="8.83286">
        <ele>1257</ele>
        <time>2021-08-04T08:06:16.819Z</time>
      </trkpt>
      <trkpt lat="46.98933" lon="8.83285">
        <ele>1256</ele>
        <time>2021-08-04T08:06:17.820Z</time>
      </trkpt>
      <trkpt lat="46.98932" lon="8.83283">
        <ele>1256</ele>
        <time>2021-08-04T08:06:18.820Z</time>
      </trkpt>
      <trkpt lat="46.9893" lon="8.8328">
        <ele>1256</ele>
        <time>2021-08-04T08:06:19.820Z</time>
      </trkpt>
      <trkpt lat="46.98929" lon="8.83278">
        <ele>1256</ele>
        <time>2021-08-04T08:06:20.819Z</time>
      </trkpt>
      <trkpt lat="46.98928" lon="8.83277">
        <ele>1255</ele>
        <time>2021-08-04T08:06:21.819Z</time>
      </trkpt>
      <trkpt lat="46.98927" lon="8.83276">
        <ele>1255</ele>
        <time>2021-08-04T08:06:22.819Z</time>
      </trkpt>
      <trkpt lat="46.98926" lon="8.83275">
        <ele>1255</ele>
        <time>2021-08-04T08:06:23.819Z</time>
      </trkpt>
      <trkpt lat="46.98926" lon="8.83273">
        <ele>1254</ele>
        <time>2021-08-04T08:06:24.819Z</time>
      </trkpt>
      <trkpt lat="46.98926" lon="8.83272">
        <ele>1254</ele>
        <time>2021-08-04T08:06:25.820Z</time>
      </trkpt>
      <trkpt lat="46.98926" lon="8.83271">
        <ele>1254</ele>
        <time>2021-08-04T08:06:26.820Z</time>
      </trkpt>
      <trkpt lat="46.98927" lon="8.8327">
        <ele>1254</ele>
        <time>2021-08-04T08:06:27.819Z</time>
      </trkpt>
      <trkpt lat="46.98927" lon="8.83269">
        <ele>1254</ele>
        <time>2021-08-04T08:06:28.820Z</time>
      </trkpt>
      <trkpt lat="46.98927" lon="8.83268">
        <ele>1254</ele>
        <time>2021-08-04T08:06:29.820Z</time>
      </trkpt>
      <trkpt lat="46.98927" lon="8.83267">
        <ele>1254</ele>
        <time>2021-08-04T08:06:30.820Z</time>
      </trkpt>
      <trkpt lat="46.98928" lon="8.83266">
        <ele>1254</ele>
        <time>2021-08-04T08:06:31.820Z</time>
      </trkpt>
      <trkpt lat="46.98927" lon="8.83265">
        <ele>1255</ele>
        <time>2021-08-04T08:06:32.820Z</time>
      </trkpt>
      <trkpt lat="46.98927" lon="8.83263">
        <ele>1255</ele>
        <time>2021-08-04T08:06:33.820Z</time>
      </trkpt>
      <trkpt lat="46.98925" lon="8.83261">
        <ele>1256</ele>
        <time>2021-08-04T08:06:34.820Z</time>
      </trkpt>
      <trkpt lat="46.98925" lon="8.8326">
        <ele>1256</ele>
        <time>2021-08-04T08:06:35.819Z</time>
      </trkpt>
      <trkpt lat="46.98925" lon="8.83258">
        <ele>1257</ele>
        <time>2021-08-04T08:06:36.819Z</time>
      </trkpt>
      <trkpt lat="46.98924" lon="8.83257">
        <ele>1258</ele>
        <time>2021-08-04T08:06:37.820Z</time>
      </trkpt>
      <trkpt lat="46.98924" lon="8.83255">
        <ele>1259</ele>
        <time>2021-08-04T08:06:38.819Z</time>
      </trkpt>
      <trkpt lat="46.98924" lon="8.83254">
        <ele>1260</ele>
        <time>2021-08-04T08:06:39.819Z</time>
      </trkpt>
      <trkpt lat="46.98925" lon="8.83252">
        <ele>1262</ele>
        <time>2021-08-04T08:06:40.819Z</time>
      </trkpt>
      <trkpt lat="46.98925" lon="8.8325">
        <ele>1263</ele>
        <time>2021-08-04T08:06:41.819Z</time>
      </trkpt>
      <trkpt lat="46.98926" lon="8.83248">
        <ele>1264</ele>
        <time>2021-08-04T08:06:42.819Z</time>
      </trkpt>
      <trkpt lat="46.98927" lon="8.83246">
        <ele>1266</ele>
        <time>2021-08-04T08:06:43.819Z</time>
      </trkpt>
      <trkpt lat="46.98928" lon="8.83245">
        <ele>1267</ele>
        <time>2021-08-04T08:06:44.820Z</time>
      </trkpt>
      <trkpt lat="46.98929" lon="8.83243">
        <ele>1268</ele>
        <time>2021-08-04T08:06:45.820Z</time>
      </trkpt>
      <trkpt lat="46.98929" lon="8.83241">
        <ele>1268</ele>
        <time>2021-08-04T08:06:46.820Z</time>
      </trkpt>
      <trkpt lat="46.98929" lon="8.83239">
        <ele>1269</ele>
        <time>2021-08-04T08:06:47.820Z</time>
      </trkpt>
      <trkpt lat="46.9893" lon="8.83237">
        <ele>1269</ele>
        <time>2021-08-04T08:06:48.820Z</time>
      </trkpt>
      <trkpt lat="46.9893" lon="8.83235">
        <ele>1270</ele>
        <time>2021-08-04T08:06:49.820Z</time>
      </trkpt>
      <trkpt lat="46.9893" lon="8.83233">
        <ele>1270</ele>
        <time>2021-08-04T08:06:50.819Z</time>
      </trkpt>
      <trkpt lat="46.98931" lon="8.83231">
        <ele>1270</ele>
        <time>2021-08-04T08:06:51.820Z</time>
      </trkpt>
      <trkpt lat="46.98931" lon="8.8323">
        <ele>1270</ele>
        <time>2021-08-04T08:06:52.820Z</time>
      </trkpt>
      <trkpt lat="46.98931" lon="8.83228">
        <ele>1270</ele>
        <time>2021-08-04T08:06:53.820Z</time>
      </trkpt>
      <trkpt lat="46.98931" lon="8.83227">
        <ele>1269</ele>
        <time>2021-08-04T08:06:54.820Z</time>
      </trkpt>
      <trkpt lat="46.98931" lon="8.83225">
        <ele>1269</ele>
        <time>2021-08-04T08:06:55.820Z</time>
      </trkpt>
      <trkpt lat="46.98931" lon="8.83224">
        <ele>1269</ele>
        <time>2021-08-04T08:06:56.820Z</time>
      </trkpt>
      <trkpt lat="46.98932" lon="8.83223">
        <ele>1269</ele>
        <time>2021-08-04T08:06:57.820Z</time>
      </trkpt>
      <trkpt lat="46.98933" lon="8.83221">
        <ele>1268</ele>
        <time>2021-08-04T08:06:58.820Z</time>
      </trkpt>
      <trkpt lat="46.98934" lon="8.83219">
        <ele>1268</ele>
        <time>2021-08-04T08:06:59.820Z</time>
      </trkpt>
      <trkpt lat="46.98935" lon="8.83218">
        <ele>1267</ele>
        <time>2021-08-04T08:07:00.820Z</time>
      </trkpt>
      <trkpt lat="46.98935" lon="8.83217">
        <ele>1266</ele>
        <time>2021-08-04T08:07:01.820Z</time>
      </trkpt>
      <trkpt lat="46.98936" lon="8.83215">
        <ele>1266</ele>
        <time>2021-08-04T08:07:02.820Z</time>
      </trkpt>
      <trkpt lat="46.98937" lon="8.83214">
        <ele>1265</ele>
        <time>2021-08-04T08:07:03.820Z</time>
      </trkpt>
      <trkpt lat="46.98938" lon="8.83212">
        <ele>1264</ele>
        <time>2021-08-04T08:07:04.820Z</time>
      </trkpt>
      <trkpt lat="46.98939" lon="8.83211">
        <ele>1263</ele>
        <time>2021-08-04T08:07:05.820Z</time>
      </trkpt>
      <trkpt lat="46.9894" lon="8.8321">
        <ele>1262</ele>
        <time>2021-08-04T08:07:06.819Z</time>
      </trkpt>
      <trkpt lat="46.98942" lon="8.83208">
        <ele>1261</ele>
        <time>2021-08-04T08:07:07.820Z</time>
      </trkpt>
      <trkpt lat="46.98943" lon="8.83207">
        <ele>1261</ele>
        <time>2021-08-04T08:07:08.820Z</time>
      </trkpt>
      <trkpt lat="46.98943" lon="8.83206">
        <ele>1260</ele>
        <time>2021-08-04T08:07:09.820Z</time>
      </trkpt>
      <trkpt lat="46.98944" lon="8.83205">
        <ele>1260</ele>
        <time>2021-08-04T08:07:10.820Z</time>
      </trkpt>
      <trkpt lat="46.98945" lon="8.83203">
        <ele>1259</ele>
        <time>2021-08-04T08:07:11.820Z</time>
      </trkpt>
      <trkpt lat="46.98945" lon="8.83202">
        <ele>1259</ele>
        <time>2021-08-04T08:07:12.820Z</time>
      </trkpt>
      <trkpt lat="46.98946" lon="8.83201">
        <ele>1258</ele>
        <time>2021-08-04T08:07:13.819Z</time>
      </trkpt>
      <trkpt lat="46.98947" lon="8.832">
        <ele>1257</ele>
        <time>2021-08-04T08:07:14.820Z</time>
      </trkpt>
      <trkpt lat="46.98948" lon="8.83198">
        <ele>1257</ele>
        <time>2021-08-04T08:07:15.820Z</time>
      </trkpt>
      <trkpt lat="46.98949" lon="8.83197">
        <ele>1256</ele>
        <time>2021-08-04T08:07:16.820Z</time>
      </trkpt>
      <trkpt lat="46.98951" lon="8.83196">
        <ele>1255</ele>
        <time>2021-08-04T08:07:17.819Z</time>
      </trkpt>
      <trkpt lat="46.98952" lon="8.83195">
        <ele>1255</ele>
        <time>2021-08-04T08:07:18.820Z</time>
      </trkpt>
      <trkpt lat="46.98953" lon="8.83193">
        <ele>1255</ele>
        <time>2021-08-04T08:07:19.820Z</time>
      </trkpt>
      <trkpt lat="46.98953" lon="8.83192">
        <ele>1254</ele>
        <time>2021-08-04T08:07:20.819Z</time>
      </trkpt>
      <trkpt lat="46.98954" lon="8.83191">
        <ele>1254</ele>
        <time>2021-08-04T08:07:21.819Z</time>
      </trkpt>
      <trkpt lat="46.98954" lon="8.8319">
        <ele>1253</ele>
        <time>2021-08-04T08:07:22.820Z</time>
      </trkpt>
      <trkpt lat="46.98954" lon="8.83188">
        <ele>1253</ele>
        <time>2021-08-04T08:07:23.820Z</time>
      </trkpt>
      <trkpt lat="46.98955" lon="8.83187">
        <ele>1253</ele>
        <time>2021-08-04T08:07:24.820Z</time>
      </trkpt>
      <trkpt lat="46.98956" lon="8.83185">
        <ele>1252</ele>
        <time>2021-08-04T08:07:25.820Z</time>
      </trkpt>
      <trkpt lat="46.98957" lon="8.83183">
        <ele>1252</ele>
        <time>2021-08-04T08:07:26.820Z</time>
      </trkpt>
      <trkpt lat="46.98958" lon="8.83182">
        <ele>1251</ele>
        <time>2021-08-04T08:07:27.819Z</time>
      </trkpt>
      <trkpt lat="46.98958" lon="8.8318">
        <ele>1250</ele>
        <time>2021-08-04T08:07:28.820Z</time>
      </trkpt>
      <trkpt lat="46.98959" lon="8.83179">
        <ele>1250</ele>
        <time>2021-08-04T08:07:29.820Z</time>
      </trkpt>
      <trkpt lat="46.98959" lon="8.83177">
        <ele>1249</ele>
        <time>2021-08-04T08:07:30.820Z</time>
      </trkpt>
      <trkpt lat="46.9896" lon="8.83175">
        <ele>1249</ele>
        <time>2021-08-04T08:07:31.820Z</time>
      </trkpt>
      <trkpt lat="46.9896" lon="8.83173">
        <ele>1248</ele>
        <time>2021-08-04T08:07:32.820Z</time>
      </trkpt>
      <trkpt lat="46.9896" lon="8.83171">
        <ele>1248</ele>
        <time>2021-08-04T08:07:33.820Z</time>
      </trkpt>
      <trkpt lat="46.98959" lon="8.83169">
        <ele>1247</ele>
        <time>2021-08-04T08:07:34.820Z</time>
      </trkpt>
      <trkpt lat="46.98959" lon="8.83168">
        <ele>1246</ele>
        <time>2021-08-04T08:07:35.819Z</time>
      </trkpt>
      <trkpt lat="46.98959" lon="8.83166">
        <ele>1245</ele>
        <time>2021-08-04T08:07:36.820Z</time>
      </trkpt>
      <trkpt lat="46.9896" lon="8.83164">
        <ele>1244</ele>
        <time>2021-08-04T08:07:37.820Z</time>
      </trkpt>
      <trkpt lat="46.98959" lon="8.83162">
        <ele>1243</ele>
        <time>2021-08-04T08:07:38.819Z</time>
      </trkpt>
      <trkpt lat="46.98959" lon="8.83161">
        <ele>1243</ele>
        <time>2021-08-04T08:07:39.819Z</time>
      </trkpt>
      <trkpt lat="46.98958" lon="8.83159">
        <ele>1242</ele>
        <time>2021-08-04T08:07:40.819Z</time>
      </trkpt>
      <trkpt lat="46.98958" lon="8.83157">
        <ele>1242</ele>
        <time>2021-08-04T08:07:41.820Z</time>
      </trkpt>
      <trkpt lat="46.98958" lon="8.83155">
        <ele>1242</ele>
        <time>2021-08-04T08:07:42.820Z</time>
      </trkpt>
      <trkpt lat="46.98958" lon="8.83153">
        <ele>1241</ele>
        <time>2021-08-04T08:07:43.820Z</time>
      </trkpt>
      <trkpt lat="46.98958" lon="8.83151">
        <ele>1241</ele>
        <time>2021-08-04T08:07:44.820Z</time>
      </trkpt>
      <trkpt lat="46.98958" lon="8.8315">
        <ele>1241</ele>
        <time>2021-08-04T08:07:45.819Z</time>
      </trkpt>
      <trkpt lat="46.98959" lon="8.83147">
        <ele>1240</ele>
        <time>2021-08-04T08:07:46.819Z</time>
      </trkpt>
      <trkpt lat="46.98959" lon="8.83145">
        <ele>1240</ele>
        <time>2021-08-04T08:07:47.820Z</time>
      </trkpt>
      <trkpt lat="46.98959" lon="8.83142">
        <ele>1241</ele>
        <time>2021-08-04T08:07:48.820Z</time>
      </trkpt>
      <trkpt lat="46.9896" lon="8.8314">
        <ele>1241</ele>
        <time>2021-08-04T08:07:49.820Z</time>
      </trkpt>
      <trkpt lat="46.9896" lon="8.83138">
        <ele>1241</ele>
        <time>2021-08-04T08:07:50.820Z</time>
      </trkpt>
      <trkpt lat="46.9896" lon="8.83136">
        <ele>1241</ele>
        <time>2021-08-04T08:07:51.819Z</time>
      </trkpt>
      <trkpt lat="46.9896" lon="8.83135">
        <ele>1242</ele>
        <time>2021-08-04T08:07:52.819Z</time>
      </trkpt>
      <trkpt lat="46.9896" lon="8.83133">
        <ele>1242</ele>
        <time>2021-08-04T08:07:53.820Z</time>
      </trkpt>
      <trkpt lat="46.9896" lon="8.83131">
        <ele>1242</ele>
        <time>2021-08-04T08:07:54.820Z</time>
      </trkpt>
      <trkpt lat="46.9896" lon="8.83129">
        <ele>1242</ele>
        <time>2021-08-04T08:07:55.820Z</time>
      </trkpt>
      <trkpt lat="46.98959" lon="8.83127">
        <ele>1242</ele>
        <time>2021-08-04T08:07:56.820Z</time>
      </trkpt>
      <trkpt lat="46.98959" lon="8.83125">
        <ele>1241</ele>
        <time>2021-08-04T08:07:57.820Z</time>
      </trkpt>
      <trkpt lat="46.9896" lon="8.83123">
        <ele>1241</ele>
        <time>2021-08-04T08:07:58.820Z</time>
      </trkpt>
      <trkpt lat="46.9896" lon="8.83122">
        <ele>1241</ele>
        <time>2021-08-04T08:07:59.820Z</time>
      </trkpt>
      <trkpt lat="46.9896" lon="8.8312">
        <ele>1241</ele>
        <time>2021-08-04T08:08:00.820Z</time>
      </trkpt>
      <trkpt lat="46.98959" lon="8.83117">
        <ele>1241</ele>
        <time>2021-08-04T08:08:01.819Z</time>
      </trkpt>
      <trkpt lat="46.98959" lon="8.83115">
        <ele>1241</ele>
        <time>2021-08-04T08:08:02.820Z</time>
      </trkpt>
      <trkpt lat="46.9896" lon="8.83113">
        <ele>1241</ele>
        <time>2021-08-04T08:08:03.819Z</time>
      </trkpt>
      <trkpt lat="46.98959" lon="8.83111">
        <ele>1241</ele>
        <time>2021-08-04T08:08:04.820Z</time>
      </trkpt>
      <trkpt lat="46.98959" lon="8.83109">
        <ele>1241</ele>
        <time>2021-08-04T08:08:05.819Z</time>
      </trkpt>
      <trkpt lat="46.98958" lon="8.83108">
        <ele>1241</ele>
        <time>2021-08-04T08:08:06.820Z</time>
      </trkpt>
      <trkpt lat="46.98958" lon="8.83107">
        <ele>1242</ele>
        <time>2021-08-04T08:08:07.820Z</time>
      </trkpt>
      <trkpt lat="46.98956" lon="8.83105">
        <ele>1241</ele>
        <time>2021-08-04T08:08:08.820Z</time>
      </trkpt>
      <trkpt lat="46.98955" lon="8.83103">
        <ele>1241</ele>
        <time>2021-08-04T08:08:09.819Z</time>
      </trkpt>
      <trkpt lat="46.98955" lon="8.83102">
        <ele>1241</ele>
        <time>2021-08-04T08:08:10.820Z</time>
      </trkpt>
      <trkpt lat="46.98954" lon="8.831">
        <ele>1241</ele>
        <time>2021-08-04T08:08:11.820Z</time>
      </trkpt>
      <trkpt lat="46.98953" lon="8.83099">
        <ele>1241</ele>
        <time>2021-08-04T08:08:12.820Z</time>
      </trkpt>
      <trkpt lat="46.98951" lon="8.83097">
        <ele>1241</ele>
        <time>2021-08-04T08:08:13.820Z</time>
      </trkpt>
      <trkpt lat="46.98951" lon="8.83095">
        <ele>1241</ele>
        <time>2021-08-04T08:08:14.819Z</time>
      </trkpt>
      <trkpt lat="46.9895" lon="8.83094">
        <ele>1242</ele>
        <time>2021-08-04T08:08:15.819Z</time>
      </trkpt>
      <trkpt lat="46.98949" lon="8.83093">
        <ele>1242</ele>
        <time>2021-08-04T08:08:16.819Z</time>
      </trkpt>
      <trkpt lat="46.98949" lon="8.83091">
        <ele>1242</ele>
        <time>2021-08-04T08:08:17.819Z</time>
      </trkpt>
      <trkpt lat="46.98948" lon="8.83089">
        <ele>1242</ele>
        <time>2021-08-04T08:08:18.819Z</time>
      </trkpt>
      <trkpt lat="46.98948" lon="8.83087">
        <ele>1242</ele>
        <time>2021-08-04T08:08:19.820Z</time>
      </trkpt>
      <trkpt lat="46.98948" lon="8.83085">
        <ele>1241</ele>
        <time>2021-08-04T08:08:20.820Z</time>
      </trkpt>
      <trkpt lat="46.98948" lon="8.83084">
        <ele>1241</ele>
        <time>2021-08-04T08:08:21.820Z</time>
      </trkpt>
      <trkpt lat="46.98947" lon="8.83083">
        <ele>1240</ele>
        <time>2021-08-04T08:08:22.820Z</time>
      </trkpt>
      <trkpt lat="46.98947" lon="8.83081">
        <ele>1240</ele>
        <time>2021-08-04T08:08:23.819Z</time>
      </trkpt>
      <trkpt lat="46.98947" lon="8.83078">
        <ele>1240</ele>
        <time>2021-08-04T08:08:24.820Z</time>
      </trkpt>
      <trkpt lat="46.98947" lon="8.83077">
        <ele>1240</ele>
        <time>2021-08-04T08:08:25.819Z</time>
      </trkpt>
      <trkpt lat="46.98946" lon="8.83075">
        <ele>1240</ele>
        <time>2021-08-04T08:08:26.819Z</time>
      </trkpt>
      <trkpt lat="46.98943" lon="8.83073">
        <ele>1239</ele>
        <time>2021-08-04T08:08:27.819Z</time>
      </trkpt>
      <trkpt lat="46.98942" lon="8.83071">
        <ele>1239</ele>
        <time>2021-08-04T08:08:28.820Z</time>
      </trkpt>
      <trkpt lat="46.98941" lon="8.83069">
        <ele>1239</ele>
        <time>2021-08-04T08:08:29.820Z</time>
      </trkpt>
      <trkpt lat="46.98941" lon="8.83069">
        <ele>1238</ele>
        <time>2021-08-04T08:08:30.820Z</time>
      </trkpt>
      <trkpt lat="46.9894" lon="8.83068">
        <ele>1238</ele>
        <time>2021-08-04T08:08:31.820Z</time>
      </trkpt>
      <trkpt lat="46.98939" lon="8.83067">
        <ele>1238</ele>
        <time>2021-08-04T08:08:32.820Z</time>
      </trkpt>
      <trkpt lat="46.98938" lon="8.83065">
        <ele>1237</ele>
        <time>2021-08-04T08:08:33.819Z</time>
      </trkpt>
      <trkpt lat="46.98937" lon="8.83064">
        <ele>1237</ele>
        <time>2021-08-04T08:08:34.820Z</time>
      </trkpt>
      <trkpt lat="46.98936" lon="8.83064">
        <ele>1237</ele>
        <time>2021-08-04T08:08:35.820Z</time>
      </trkpt>
      <trkpt lat="46.98934" lon="8.83063">
        <ele>1237</ele>
        <time>2021-08-04T08:08:36.819Z</time>
      </trkpt>
      <trkpt lat="46.98933" lon="8.83061">
        <ele>1237</ele>
        <time>2021-08-04T08:08:37.820Z</time>
      </trkpt>
      <trkpt lat="46.98931" lon="8.83059">
        <ele>1237</ele>
        <time>2021-08-04T08:08:38.819Z</time>
      </trkpt>
      <trkpt lat="46.9893" lon="8.83058">
        <ele>1238</ele>
        <time>2021-08-04T08:08:39.820Z</time>
      </trkpt>
      <trkpt lat="46.98928" lon="8.83057">
        <ele>1238</ele>
        <time>2021-08-04T08:08:40.819Z</time>
      </trkpt>
      <trkpt lat="46.98927" lon="8.83055">
        <ele>1239</ele>
        <time>2021-08-04T08:08:41.819Z</time>
      </trkpt>
      <trkpt lat="46.98925" lon="8.83054">
        <ele>1239</ele>
        <time>2021-08-04T08:08:42.820Z</time>
      </trkpt>
      <trkpt lat="46.98924" lon="8.83053">
        <ele>1240</ele>
        <time>2021-08-04T08:08:43.820Z</time>
      </trkpt>
      <trkpt lat="46.98922" lon="8.83051">
        <ele>1241</ele>
        <time>2021-08-04T08:08:44.819Z</time>
      </trkpt>
      <trkpt lat="46.98921" lon="8.8305">
        <ele>1241</ele>
        <time>2021-08-04T08:08:45.820Z</time>
      </trkpt>
      <trkpt lat="46.9892" lon="8.8305">
        <ele>1241</ele>
        <time>2021-08-04T08:08:46.820Z</time>
      </trkpt>
      <trkpt lat="46.98918" lon="8.83049">
        <ele>1241</ele>
        <time>2021-08-04T08:08:47.820Z</time>
      </trkpt>
      <trkpt lat="46.98917" lon="8.83048">
        <ele>1241</ele>
        <time>2021-08-04T08:08:48.820Z</time>
      </trkpt>
      <trkpt lat="46.98915" lon="8.83047">
        <ele>1241</ele>
        <time>2021-08-04T08:08:49.819Z</time>
      </trkpt>
      <trkpt lat="46.98914" lon="8.83046">
        <ele>1242</ele>
        <time>2021-08-04T08:08:50.820Z</time>
      </trkpt>
      <trkpt lat="46.98912" lon="8.83044">
        <ele>1242</ele>
        <time>2021-08-04T08:08:51.820Z</time>
      </trkpt>
      <trkpt lat="46.98911" lon="8.83043">
        <ele>1242</ele>
        <time>2021-08-04T08:08:52.820Z</time>
      </trkpt>
      <trkpt lat="46.9891" lon="8.83042">
        <ele>1242</ele>
        <time>2021-08-04T08:08:53.820Z</time>
      </trkpt>
      <trkpt lat="46.98908" lon="8.8304">
        <ele>1243</ele>
        <time>2021-08-04T08:08:54.819Z</time>
      </trkpt>
      <trkpt lat="46.98905" lon="8.83037">
        <ele>1243</ele>
        <time>2021-08-04T08:08:55.819Z</time>
      </trkpt>
      <trkpt lat="46.98903" lon="8.83035">
        <ele>1244</ele>
        <time>2021-08-04T08:08:56.820Z</time>
      </trkpt>
      <trkpt lat="46.98901" lon="8.83033">
        <ele>1244</ele>
        <time>2021-08-04T08:08:57.819Z</time>
      </trkpt>
      <trkpt lat="46.989" lon="8.83032">
        <ele>1245</ele>
        <time>2021-08-04T08:08:58.819Z</time>
      </trkpt>
      <trkpt lat="46.989" lon="8.83031">
        <ele>1246</ele>
        <time>2021-08-04T08:08:59.819Z</time>
      </trkpt>
      <trkpt lat="46.98899" lon="8.8303">
        <ele>1246</ele>
        <time>2021-08-04T08:09:00.819Z</time>
      </trkpt>
      <trkpt lat="46.98898" lon="8.8303">
        <ele>1246</ele>
        <time>2021-08-04T08:09:01.820Z</time>
      </trkpt>
      <trkpt lat="46.98898" lon="8.83031">
        <ele>1246</ele>
        <time>2021-08-04T08:09:02.819Z</time>
      </trkpt>
      <trkpt lat="46.98898" lon="8.83031">
        <ele>1246</ele>
        <time>2021-08-04T08:09:03.820Z</time>
      </trkpt>
      <trkpt lat="46.98898" lon="8.83031">
        <ele>1246</ele>
        <time>2021-08-04T08:09:04.819Z</time>
      </trkpt>
      <trkpt lat="46.98897" lon="8.83031">
        <ele>1246</ele>
        <time>2021-08-04T08:09:05.819Z</time>
      </trkpt>
      <trkpt lat="46.98897" lon="8.83031">
        <ele>1246</ele>
        <time>2021-08-04T08:09:06.820Z</time>
      </trkpt>
      <trkpt lat="46.98897" lon="8.83031">
        <ele>1246</ele>
        <time>2021-08-04T08:09:07.819Z</time>
      </trkpt>
      <trkpt lat="46.98898" lon="8.83031">
        <ele>1246</ele>
        <time>2021-08-04T08:09:08.822Z</time>
      </trkpt>
      <trkpt lat="46.98899" lon="8.83031">
        <ele>1245</ele>
        <time>2021-08-04T08:09:09.821Z</time>
      </trkpt>
      <trkpt lat="46.989" lon="8.83032">
        <ele>1244</ele>
        <time>2021-08-04T08:09:10.822Z</time>
      </trkpt>
      <trkpt lat="46.989" lon="8.83033">
        <ele>1244</ele>
        <time>2021-08-04T08:09:11.822Z</time>
      </trkpt>
      <trkpt lat="46.989" lon="8.83034">
        <ele>1244</ele>
        <time>2021-08-04T08:09:12.821Z</time>
      </trkpt>
      <trkpt lat="46.989" lon="8.83034">
        <ele>1244</ele>
        <time>2021-08-04T08:09:13.822Z</time>
      </trkpt>
      <trkpt lat="46.989" lon="8.83035">
        <ele>1244</ele>
        <time>2021-08-04T08:09:14.822Z</time>
      </trkpt>
      <trkpt lat="46.98899" lon="8.83036">
        <ele>1243</ele>
        <time>2021-08-04T08:09:15.822Z</time>
      </trkpt>
      <trkpt lat="46.98899" lon="8.83036">
        <ele>1243</ele>
        <time>2021-08-04T08:09:16.821Z</time>
      </trkpt>
      <trkpt lat="46.98899" lon="8.83037">
        <ele>1243</ele>
        <time>2021-08-04T08:09:17.821Z</time>
      </trkpt>
      <trkpt lat="46.98899" lon="8.83037">
        <ele>1243</ele>
        <time>2021-08-04T08:09:18.821Z</time>
      </trkpt>
      <trkpt lat="46.98899" lon="8.83037">
        <ele>1242</ele>
        <time>2021-08-04T08:09:19.822Z</time>
      </trkpt>
      <trkpt lat="46.98899" lon="8.83038">
        <ele>1242</ele>
        <time>2021-08-04T08:09:20.821Z</time>
      </trkpt>
      <trkpt lat="46.98901" lon="8.83038">
        <ele>1242</ele>
        <time>2021-08-04T08:09:21.821Z</time>
      </trkpt>
      <trkpt lat="46.98902" lon="8.83037">
        <ele>1242</ele>
        <time>2021-08-04T08:09:22.822Z</time>
      </trkpt>
      <trkpt lat="46.98903" lon="8.83035">
        <ele>1241</ele>
        <time>2021-08-04T08:09:23.821Z</time>
      </trkpt>
      <trkpt lat="46.98903" lon="8.83033">
        <ele>1241</ele>
        <time>2021-08-04T08:09:24.822Z</time>
      </trkpt>
      <trkpt lat="46.98902" lon="8.83031">
        <ele>1242</ele>
        <time>2021-08-04T08:09:25.821Z</time>
      </trkpt>
      <trkpt lat="46.98902" lon="8.8303">
        <ele>1242</ele>
        <time>2021-08-04T08:09:26.822Z</time>
      </trkpt>
      <trkpt lat="46.98902" lon="8.83029">
        <ele>1242</ele>
        <time>2021-08-04T08:09:27.821Z</time>
      </trkpt>
      <trkpt lat="46.98901" lon="8.83027">
        <ele>1242</ele>
        <time>2021-08-04T08:09:28.821Z</time>
      </trkpt>
      <trkpt lat="46.989" lon="8.83026">
        <ele>1242</ele>
        <time>2021-08-04T08:09:29.822Z</time>
      </trkpt>
      <trkpt lat="46.989" lon="8.83026">
        <ele>1243</ele>
        <time>2021-08-04T08:09:30.822Z</time>
      </trkpt>
      <trkpt lat="46.98899" lon="8.83025">
        <ele>1243</ele>
        <time>2021-08-04T08:09:31.821Z</time>
      </trkpt>
      <trkpt lat="46.98898" lon="8.83024">
        <ele>1243</ele>
        <time>2021-08-04T08:09:32.821Z</time>
      </trkpt>
      <trkpt lat="46.98898" lon="8.83022">
        <ele>1242</ele>
        <time>2021-08-04T08:09:33.821Z</time>
      </trkpt>
      <trkpt lat="46.98897" lon="8.83022">
        <ele>1242</ele>
        <time>2021-08-04T08:09:34.821Z</time>
      </trkpt>
      <trkpt lat="46.98897" lon="8.83021">
        <ele>1242</ele>
        <time>2021-08-04T08:09:35.822Z</time>
      </trkpt>
      <trkpt lat="46.98898" lon="8.83022">
        <ele>1242</ele>
        <time>2021-08-04T08:09:36.821Z</time>
      </trkpt>
      <trkpt lat="46.98898" lon="8.83022">
        <ele>1241</ele>
        <time>2021-08-04T08:09:37.821Z</time>
      </trkpt>
      <trkpt lat="46.98899" lon="8.83023">
        <ele>1241</ele>
        <time>2021-08-04T08:09:38.821Z</time>
      </trkpt>
      <trkpt lat="46.989" lon="8.83023">
        <ele>1241</ele>
        <time>2021-08-04T08:09:39.821Z</time>
      </trkpt>
      <trkpt lat="46.98902" lon="8.83021">
        <ele>1242</ele>
        <time>2021-08-04T08:09:40.821Z</time>
      </trkpt>
      <trkpt lat="46.98901" lon="8.83019">
        <ele>1242</ele>
        <time>2021-08-04T08:09:41.821Z</time>
      </trkpt>
      <trkpt lat="46.989" lon="8.83017">
        <ele>1242</ele>
        <time>2021-08-04T08:09:42.822Z</time>
      </trkpt>
      <trkpt lat="46.989" lon="8.83015">
        <ele>1242</ele>
        <time>2021-08-04T08:09:43.822Z</time>
      </trkpt>
      <trkpt lat="46.98899" lon="8.83013">
        <ele>1242</ele>
        <time>2021-08-04T08:09:44.822Z</time>
      </trkpt>
      <trkpt lat="46.98898" lon="8.83012">
        <ele>1242</ele>
        <time>2021-08-04T08:09:45.822Z</time>
      </trkpt>
      <trkpt lat="46.98898" lon="8.83011">
        <ele>1242</ele>
        <time>2021-08-04T08:09:46.822Z</time>
      </trkpt>
      <trkpt lat="46.98897" lon="8.83009">
        <ele>1242</ele>
        <time>2021-08-04T08:09:47.822Z</time>
      </trkpt>
      <trkpt lat="46.98896" lon="8.83008">
        <ele>1243</ele>
        <time>2021-08-04T08:09:48.822Z</time>
      </trkpt>
      <trkpt lat="46.98896" lon="8.83007">
        <ele>1243</ele>
        <time>2021-08-04T08:09:49.821Z</time>
      </trkpt>
      <trkpt lat="46.98896" lon="8.83005">
        <ele>1243</ele>
        <time>2021-08-04T08:09:50.821Z</time>
      </trkpt>
      <trkpt lat="46.98895" lon="8.83004">
        <ele>1243</ele>
        <time>2021-08-04T08:09:51.821Z</time>
      </trkpt>
      <trkpt lat="46.98895" lon="8.83003">
        <ele>1243</ele>
        <time>2021-08-04T08:09:52.822Z</time>
      </trkpt>
      <trkpt lat="46.98895" lon="8.83001">
        <ele>1243</ele>
        <time>2021-08-04T08:09:53.821Z</time>
      </trkpt>
      <trkpt lat="46.98894" lon="8.82999">
        <ele>1243</ele>
        <time>2021-08-04T08:09:54.821Z</time>
      </trkpt>
      <trkpt lat="46.98894" lon="8.82996">
        <ele>1243</ele>
        <time>2021-08-04T08:09:55.822Z</time>
      </trkpt>
      <trkpt lat="46.98893" lon="8.82993">
        <ele>1242</ele>
        <time>2021-08-04T08:09:56.821Z</time>
      </trkpt>
      <trkpt lat="46.98894" lon="8.82991">
        <ele>1242</ele>
        <time>2021-08-04T08:09:57.821Z</time>
      </trkpt>
      <trkpt lat="46.98895" lon="8.82989">
        <ele>1242</ele>
        <time>2021-08-04T08:09:58.822Z</time>
      </trkpt>
      <trkpt lat="46.98895" lon="8.82987">
        <ele>1242</ele>
        <time>2021-08-04T08:09:59.821Z</time>
      </trkpt>
      <trkpt lat="46.98894" lon="8.82985">
        <ele>1242</ele>
        <time>2021-08-04T08:10:00.821Z</time>
      </trkpt>
      <trkpt lat="46.98893" lon="8.82983">
        <ele>1242</ele>
        <time>2021-08-04T08:10:01.821Z</time>
      </trkpt>
      <trkpt lat="46.98893" lon="8.82981">
        <ele>1242</ele>
        <time>2021-08-04T08:10:02.821Z</time>
      </trkpt>
      <trkpt lat="46.98893" lon="8.82978">
        <ele>1242</ele>
        <time>2021-08-04T08:10:03.821Z</time>
      </trkpt>
      <trkpt lat="46.98893" lon="8.82976">
        <ele>1242</ele>
        <time>2021-08-04T08:10:04.821Z</time>
      </trkpt>
      <trkpt lat="46.98892" lon="8.82975">
        <ele>1242</ele>
        <time>2021-08-04T08:10:05.821Z</time>
      </trkpt>
      <trkpt lat="46.98893" lon="8.82974">
        <ele>1242</ele>
        <time>2021-08-04T08:10:06.821Z</time>
      </trkpt>
      <trkpt lat="46.98892" lon="8.82972">
        <ele>1241</ele>
        <time>2021-08-04T08:10:07.821Z</time>
      </trkpt>
      <trkpt lat="46.98892" lon="8.82971">
        <ele>1241</ele>
        <time>2021-08-04T08:10:08.821Z</time>
      </trkpt>
      <trkpt lat="46.98892" lon="8.82969">
        <ele>1240</ele>
        <time>2021-08-04T08:10:09.821Z</time>
      </trkpt>
      <trkpt lat="46.98892" lon="8.82967">
        <ele>1240</ele>
        <time>2021-08-04T08:10:10.821Z</time>
      </trkpt>
      <trkpt lat="46.98891" lon="8.82964">
        <ele>1240</ele>
        <time>2021-08-04T08:10:11.821Z</time>
      </trkpt>
      <trkpt lat="46.98891" lon="8.82962">
        <ele>1240</ele>
        <time>2021-08-04T08:10:12.821Z</time>
      </trkpt>
      <trkpt lat="46.98889" lon="8.8296">
        <ele>1239</ele>
        <time>2021-08-04T08:10:13.822Z</time>
      </trkpt>
      <trkpt lat="46.98888" lon="8.82958">
        <ele>1239</ele>
        <time>2021-08-04T08:10:14.821Z</time>
      </trkpt>
      <trkpt lat="46.98887" lon="8.82956">
        <ele>1238</ele>
        <time>2021-08-04T08:10:15.822Z</time>
      </trkpt>
      <trkpt lat="46.98885" lon="8.82954">
        <ele>1238</ele>
        <time>2021-08-04T08:10:16.822Z</time>
      </trkpt>
      <trkpt lat="46.98884" lon="8.82954">
        <ele>1238</ele>
        <time>2021-08-04T08:10:17.822Z</time>
      </trkpt>
      <trkpt lat="46.98882" lon="8.82952">
        <ele>1237</ele>
        <time>2021-08-04T08:10:18.821Z</time>
      </trkpt>
      <trkpt lat="46.98881" lon="8.8295">
        <ele>1237</ele>
        <time>2021-08-04T08:10:19.821Z</time>
      </trkpt>
      <trkpt lat="46.9888" lon="8.82949">
        <ele>1236</ele>
        <time>2021-08-04T08:10:20.821Z</time>
      </trkpt>
      <trkpt lat="46.98879" lon="8.82947">
        <ele>1236</ele>
        <time>2021-08-04T08:10:21.822Z</time>
      </trkpt>
      <trkpt lat="46.98878" lon="8.82946">
        <ele>1236</ele>
        <time>2021-08-04T08:10:22.822Z</time>
      </trkpt>
      <trkpt lat="46.98877" lon="8.82944">
        <ele>1235</ele>
        <time>2021-08-04T08:10:23.822Z</time>
      </trkpt>
      <trkpt lat="46.98876" lon="8.82942">
        <ele>1234</ele>
        <time>2021-08-04T08:10:24.822Z</time>
      </trkpt>
      <trkpt lat="46.98875" lon="8.8294">
        <ele>1234</ele>
        <time>2021-08-04T08:10:25.821Z</time>
      </trkpt>
      <trkpt lat="46.98873" lon="8.82939">
        <ele>1234</ele>
        <time>2021-08-04T08:10:26.822Z</time>
      </trkpt>
      <trkpt lat="46.98873" lon="8.82938">
        <ele>1234</ele>
        <time>2021-08-04T08:10:27.822Z</time>
      </trkpt>
      <trkpt lat="46.98872" lon="8.82936">
        <ele>1234</ele>
        <time>2021-08-04T08:10:28.821Z</time>
      </trkpt>
      <trkpt lat="46.98871" lon="8.82935">
        <ele>1233</ele>
        <time>2021-08-04T08:10:29.822Z</time>
      </trkpt>
      <trkpt lat="46.9887" lon="8.82933">
        <ele>1233</ele>
        <time>2021-08-04T08:10:30.822Z</time>
      </trkpt>
      <trkpt lat="46.98869" lon="8.82932">
        <ele>1233</ele>
        <time>2021-08-04T08:10:31.822Z</time>
      </trkpt>
      <trkpt lat="46.98868" lon="8.82931">
        <ele>1233</ele>
        <time>2021-08-04T08:10:32.821Z</time>
      </trkpt>
      <trkpt lat="46.98868" lon="8.82929">
        <ele>1233</ele>
        <time>2021-08-04T08:10:33.822Z</time>
      </trkpt>
      <trkpt lat="46.98867" lon="8.82928">
        <ele>1232</ele>
        <time>2021-08-04T08:10:34.822Z</time>
      </trkpt>
      <trkpt lat="46.98867" lon="8.82927">
        <ele>1232</ele>
        <time>2021-08-04T08:10:35.822Z</time>
      </trkpt>
      <trkpt lat="46.98867" lon="8.82925">
        <ele>1232</ele>
        <time>2021-08-04T08:10:36.822Z</time>
      </trkpt>
      <trkpt lat="46.98867" lon="8.82924">
        <ele>1232</ele>
        <time>2021-08-04T08:10:37.822Z</time>
      </trkpt>
      <trkpt lat="46.98867" lon="8.82923">
        <ele>1232</ele>
        <time>2021-08-04T08:10:38.822Z</time>
      </trkpt>
      <trkpt lat="46.98867" lon="8.82922">
        <ele>1232</ele>
        <time>2021-08-04T08:10:39.821Z</time>
      </trkpt>
      <trkpt lat="46.98866" lon="8.82921">
        <ele>1232</ele>
        <time>2021-08-04T08:10:40.822Z</time>
      </trkpt>
      <trkpt lat="46.98865" lon="8.82919">
        <ele>1232</ele>
        <time>2021-08-04T08:10:41.822Z</time>
      </trkpt>
      <trkpt lat="46.98864" lon="8.82917">
        <ele>1232</ele>
        <time>2021-08-04T08:10:42.821Z</time>
      </trkpt>
      <trkpt lat="46.98864" lon="8.82916">
        <ele>1232</ele>
        <time>2021-08-04T08:10:43.822Z</time>
      </trkpt>
      <trkpt lat="46.98863" lon="8.82914">
        <ele>1232</ele>
        <time>2021-08-04T08:10:44.822Z</time>
      </trkpt>
      <trkpt lat="46.98863" lon="8.82912">
        <ele>1232</ele>
        <time>2021-08-04T08:10:45.822Z</time>
      </trkpt>
      <trkpt lat="46.98862" lon="8.8291">
        <ele>1232</ele>
        <time>2021-08-04T08:10:46.821Z</time>
      </trkpt>
      <trkpt lat="46.98862" lon="8.82909">
        <ele>1231</ele>
        <time>2021-08-04T08:10:47.822Z</time>
      </trkpt>
      <trkpt lat="46.98861" lon="8.82907">
        <ele>1231</ele>
        <time>2021-08-04T08:10:48.821Z</time>
      </trkpt>
      <trkpt lat="46.98861" lon="8.82905">
        <ele>1231</ele>
        <time>2021-08-04T08:10:49.821Z</time>
      </trkpt>
      <trkpt lat="46.9886" lon="8.82903">
        <ele>1230</ele>
        <time>2021-08-04T08:10:50.822Z</time>
      </trkpt>
      <trkpt lat="46.98859" lon="8.82901">
        <ele>1230</ele>
        <time>2021-08-04T08:10:51.822Z</time>
      </trkpt>
      <trkpt lat="46.98858" lon="8.829">
        <ele>1229</ele>
        <time>2021-08-04T08:10:52.822Z</time>
      </trkpt>
      <trkpt lat="46.98858" lon="8.82898">
        <ele>1229</ele>
        <time>2021-08-04T08:10:53.822Z</time>
      </trkpt>
      <trkpt lat="46.98857" lon="8.82896">
        <ele>1229</ele>
        <time>2021-08-04T08:10:54.822Z</time>
      </trkpt>
      <trkpt lat="46.98857" lon="8.82895">
        <ele>1229</ele>
        <time>2021-08-04T08:10:55.821Z</time>
      </trkpt>
      <trkpt lat="46.98856" lon="8.82893">
        <ele>1229</ele>
        <time>2021-08-04T08:10:56.822Z</time>
      </trkpt>
      <trkpt lat="46.98855" lon="8.82892">
        <ele>1230</ele>
        <time>2021-08-04T08:10:57.822Z</time>
      </trkpt>
      <trkpt lat="46.98854" lon="8.8289">
        <ele>1230</ele>
        <time>2021-08-04T08:10:58.822Z</time>
      </trkpt>
      <trkpt lat="46.98854" lon="8.82888">
        <ele>1230</ele>
        <time>2021-08-04T08:10:59.821Z</time>
      </trkpt>
      <trkpt lat="46.98854" lon="8.82886">
        <ele>1230</ele>
        <time>2021-08-04T08:11:00.821Z</time>
      </trkpt>
      <trkpt lat="46.98853" lon="8.82883">
        <ele>1230</ele>
        <time>2021-08-04T08:11:01.821Z</time>
      </trkpt>
      <trkpt lat="46.98853" lon="8.82881">
        <ele>1230</ele>
        <time>2021-08-04T08:11:02.821Z</time>
      </trkpt>
      <trkpt lat="46.98852" lon="8.82879">
        <ele>1230</ele>
        <time>2021-08-04T08:11:03.822Z</time>
      </trkpt>
      <trkpt lat="46.98852" lon="8.82877">
        <ele>1230</ele>
        <time>2021-08-04T08:11:04.822Z</time>
      </trkpt>
      <trkpt lat="46.98852" lon="8.82876">
        <ele>1230</ele>
        <time>2021-08-04T08:11:05.822Z</time>
      </trkpt>
      <trkpt lat="46.98851" lon="8.82874">
        <ele>1230</ele>
        <time>2021-08-04T08:11:06.822Z</time>
      </trkpt>
      <trkpt lat="46.98851" lon="8.82873">
        <ele>1230</ele>
        <time>2021-08-04T08:11:07.822Z</time>
      </trkpt>
      <trkpt lat="46.98851" lon="8.82871">
        <ele>1229</ele>
        <time>2021-08-04T08:11:08.822Z</time>
      </trkpt>
      <trkpt lat="46.9885" lon="8.82869">
        <ele>1229</ele>
        <time>2021-08-04T08:11:09.821Z</time>
      </trkpt>
      <trkpt lat="46.9885" lon="8.82868">
        <ele>1228</ele>
        <time>2021-08-04T08:11:10.822Z</time>
      </trkpt>
      <trkpt lat="46.9885" lon="8.82866">
        <ele>1228</ele>
        <time>2021-08-04T08:11:11.822Z</time>
      </trkpt>
      <trkpt lat="46.98849" lon="8.82865">
        <ele>1228</ele>
        <time>2021-08-04T08:11:12.821Z</time>
      </trkpt>
      <trkpt lat="46.98849" lon="8.82863">
        <ele>1227</ele>
        <time>2021-08-04T08:11:13.822Z</time>
      </trkpt>
      <trkpt lat="46.98848" lon="8.82862">
        <ele>1227</ele>
        <time>2021-08-04T08:11:14.822Z</time>
      </trkpt>
      <trkpt lat="46.98848" lon="8.8286">
        <ele>1227</ele>
        <time>2021-08-04T08:11:15.821Z</time>
      </trkpt>
      <trkpt lat="46.98848" lon="8.82858">
        <ele>1227</ele>
        <time>2021-08-04T08:11:16.822Z</time>
      </trkpt>
      <trkpt lat="46.98848" lon="8.82857">
        <ele>1227</ele>
        <time>2021-08-04T08:11:17.822Z</time>
      </trkpt>
      <trkpt lat="46.98849" lon="8.82856">
        <ele>1227</ele>
        <time>2021-08-04T08:11:18.821Z</time>
      </trkpt>
      <trkpt lat="46.98848" lon="8.82854">
        <ele>1227</ele>
        <time>2021-08-04T08:11:19.822Z</time>
      </trkpt>
      <trkpt lat="46.98848" lon="8.82853">
        <ele>1228</ele>
        <time>2021-08-04T08:11:20.822Z</time>
      </trkpt>
      <trkpt lat="46.98848" lon="8.82851">
        <ele>1228</ele>
        <time>2021-08-04T08:11:21.821Z</time>
      </trkpt>
      <trkpt lat="46.98849" lon="8.8285">
        <ele>1228</ele>
        <time>2021-08-04T08:11:22.821Z</time>
      </trkpt>
      <trkpt lat="46.98849" lon="8.82847">
        <ele>1228</ele>
        <time>2021-08-04T08:11:23.822Z</time>
      </trkpt>
      <trkpt lat="46.98849" lon="8.82845">
        <ele>1228</ele>
        <time>2021-08-04T08:11:24.822Z</time>
      </trkpt>
      <trkpt lat="46.98849" lon="8.82843">
        <ele>1228</ele>
        <time>2021-08-04T08:11:25.822Z</time>
      </trkpt>
      <trkpt lat="46.98849" lon="8.82841">
        <ele>1228</ele>
        <time>2021-08-04T08:11:26.821Z</time>
      </trkpt>
      <trkpt lat="46.98849" lon="8.82838">
        <ele>1228</ele>
        <time>2021-08-04T08:11:27.822Z</time>
      </trkpt>
      <trkpt lat="46.9885" lon="8.82836">
        <ele>1229</ele>
        <time>2021-08-04T08:11:28.822Z</time>
      </trkpt>
      <trkpt lat="46.98851" lon="8.82834">
        <ele>1229</ele>
        <time>2021-08-04T08:11:29.822Z</time>
      </trkpt>
      <trkpt lat="46.98851" lon="8.82832">
        <ele>1230</ele>
        <time>2021-08-04T08:11:30.821Z</time>
      </trkpt>
      <trkpt lat="46.98851" lon="8.82831">
        <ele>1230</ele>
        <time>2021-08-04T08:11:31.821Z</time>
      </trkpt>
      <trkpt lat="46.98852" lon="8.82829">
        <ele>1230</ele>
        <time>2021-08-04T08:11:32.822Z</time>
      </trkpt>
      <trkpt lat="46.98852" lon="8.82828">
        <ele>1230</ele>
        <time>2021-08-04T08:11:33.822Z</time>
      </trkpt>
      <trkpt lat="46.98852" lon="8.82826">
        <ele>1230</ele>
        <time>2021-08-04T08:11:34.821Z</time>
      </trkpt>
      <trkpt lat="46.98852" lon="8.82825">
        <ele>1230</ele>
        <time>2021-08-04T08:11:35.822Z</time>
      </trkpt>
      <trkpt lat="46.98853" lon="8.82823">
        <ele>1230</ele>
        <time>2021-08-04T08:11:36.822Z</time>
      </trkpt>
      <trkpt lat="46.98854" lon="8.82822">
        <ele>1229</ele>
        <time>2021-08-04T08:11:37.822Z</time>
      </trkpt>
      <trkpt lat="46.98855" lon="8.8282">
        <ele>1229</ele>
        <time>2021-08-04T08:11:38.822Z</time>
      </trkpt>
      <trkpt lat="46.98855" lon="8.82818">
        <ele>1229</ele>
        <time>2021-08-04T08:11:39.822Z</time>
      </trkpt>
      <trkpt lat="46.98856" lon="8.82817">
        <ele>1229</ele>
        <time>2021-08-04T08:11:40.822Z</time>
      </trkpt>
      <trkpt lat="46.98856" lon="8.82815">
        <ele>1228</ele>
        <time>2021-08-04T08:11:41.821Z</time>
      </trkpt>
      <trkpt lat="46.98856" lon="8.82813">
        <ele>1228</ele>
        <time>2021-08-04T08:11:42.822Z</time>
      </trkpt>
      <trkpt lat="46.98856" lon="8.82811">
        <ele>1227</ele>
        <time>2021-08-04T08:11:43.821Z</time>
      </trkpt>
      <trkpt lat="46.98856" lon="8.8281">
        <ele>1227</ele>
        <time>2021-08-04T08:11:44.822Z</time>
      </trkpt>
      <trkpt lat="46.98856" lon="8.82808">
        <ele>1227</ele>
        <time>2021-08-04T08:11:45.822Z</time>
      </trkpt>
      <trkpt lat="46.98857" lon="8.82808">
        <ele>1227</ele>
        <time>2021-08-04T08:11:46.822Z</time>
      </trkpt>
      <trkpt lat="46.98858" lon="8.82808">
        <ele>1226</ele>
        <time>2021-08-04T08:11:47.822Z</time>
      </trkpt>
      <trkpt lat="46.98858" lon="8.82807">
        <ele>1226</ele>
        <time>2021-08-04T08:11:48.822Z</time>
      </trkpt>
      <trkpt lat="46.98859" lon="8.82805">
        <ele>1226</ele>
        <time>2021-08-04T08:11:49.822Z</time>
      </trkpt>
      <trkpt lat="46.9886" lon="8.82804">
        <ele>1226</ele>
        <time>2021-08-04T08:11:50.822Z</time>
      </trkpt>
      <trkpt lat="46.9886" lon="8.82803">
        <ele>1225</ele>
        <time>2021-08-04T08:11:51.821Z</time>
      </trkpt>
      <trkpt lat="46.9886" lon="8.82801">
        <ele>1225</ele>
        <time>2021-08-04T08:11:52.822Z</time>
      </trkpt>
      <trkpt lat="46.98861" lon="8.82799">
        <ele>1225</ele>
        <time>2021-08-04T08:11:53.822Z</time>
      </trkpt>
      <trkpt lat="46.98861" lon="8.82798">
        <ele>1225</ele>
        <time>2021-08-04T08:11:54.822Z</time>
      </trkpt>
      <trkpt lat="46.98861" lon="8.82796">
        <ele>1225</ele>
        <time>2021-08-04T08:11:55.822Z</time>
      </trkpt>
      <trkpt lat="46.98861" lon="8.82794">
        <ele>1225</ele>
        <time>2021-08-04T08:11:56.821Z</time>
      </trkpt>
      <trkpt lat="46.98862" lon="8.82793">
        <ele>1224</ele>
        <time>2021-08-04T08:11:57.822Z</time>
      </trkpt>
      <trkpt lat="46.98863" lon="8.82792">
        <ele>1225</ele>
        <time>2021-08-04T08:11:58.822Z</time>
      </trkpt>
      <trkpt lat="46.98864" lon="8.8279">
        <ele>1225</ele>
        <time>2021-08-04T08:11:59.821Z</time>
      </trkpt>
      <trkpt lat="46.98864" lon="8.82789">
        <ele>1225</ele>
        <time>2021-08-04T08:12:00.822Z</time>
      </trkpt>
      <trkpt lat="46.98864" lon="8.82787">
        <ele>1225</ele>
        <time>2021-08-04T08:12:01.821Z</time>
      </trkpt>
      <trkpt lat="46.98864" lon="8.82786">
        <ele>1224</ele>
        <time>2021-08-04T08:12:02.822Z</time>
      </trkpt>
      <trkpt lat="46.98864" lon="8.82784">
        <ele>1224</ele>
        <time>2021-08-04T08:12:03.822Z</time>
      </trkpt>
      <trkpt lat="46.98865" lon="8.82782">
        <ele>1224</ele>
        <time>2021-08-04T08:12:04.822Z</time>
      </trkpt>
      <trkpt lat="46.98865" lon="8.82781">
        <ele>1224</ele>
        <time>2021-08-04T08:12:05.821Z</time>
      </trkpt>
      <trkpt lat="46.98865" lon="8.82779">
        <ele>1224</ele>
        <time>2021-08-04T08:12:06.822Z</time>
      </trkpt>
      <trkpt lat="46.98865" lon="8.82777">
        <ele>1224</ele>
        <time>2021-08-04T08:12:07.822Z</time>
      </trkpt>
      <trkpt lat="46.98865" lon="8.82775">
        <ele>1224</ele>
        <time>2021-08-04T08:12:08.821Z</time>
      </trkpt>
      <trkpt lat="46.98865" lon="8.82774">
        <ele>1225</ele>
        <time>2021-08-04T08:12:09.822Z</time>
      </trkpt>
      <trkpt lat="46.98866" lon="8.82772">
        <ele>1225</ele>
        <time>2021-08-04T08:12:10.822Z</time>
      </trkpt>
      <trkpt lat="46.98867" lon="8.8277">
        <ele>1225</ele>
        <time>2021-08-04T08:12:11.822Z</time>
      </trkpt>
      <trkpt lat="46.98868" lon="8.82768">
        <ele>1224</ele>
        <time>2021-08-04T08:12:12.821Z</time>
      </trkpt>
      <trkpt lat="46.98868" lon="8.82766">
        <ele>1224</ele>
        <time>2021-08-04T08:12:13.822Z</time>
      </trkpt>
      <trkpt lat="46.98869" lon="8.82764">
        <ele>1224</ele>
        <time>2021-08-04T08:12:14.822Z</time>
      </trkpt>
      <trkpt lat="46.98869" lon="8.82761">
        <ele>1224</ele>
        <time>2021-08-04T08:12:15.822Z</time>
      </trkpt>
      <trkpt lat="46.9887" lon="8.82759">
        <ele>1223</ele>
        <time>2021-08-04T08:12:16.821Z</time>
      </trkpt>
      <trkpt lat="46.98871" lon="8.82757">
        <ele>1223</ele>
        <time>2021-08-04T08:12:17.821Z</time>
      </trkpt>
      <trkpt lat="46.98872" lon="8.82755">
        <ele>1223</ele>
        <time>2021-08-04T08:12:18.822Z</time>
      </trkpt>
      <trkpt lat="46.98873" lon="8.82752">
        <ele>1223</ele>
        <time>2021-08-04T08:12:19.822Z</time>
      </trkpt>
      <trkpt lat="46.98873" lon="8.82749">
        <ele>1223</ele>
        <time>2021-08-04T08:12:20.822Z</time>
      </trkpt>
      <trkpt lat="46.98873" lon="8.82748">
        <ele>1223</ele>
        <time>2021-08-04T08:12:21.822Z</time>
      </trkpt>
      <trkpt lat="46.98873" lon="8.82746">
        <ele>1223</ele>
        <time>2021-08-04T08:12:22.822Z</time>
      </trkpt>
      <trkpt lat="46.98872" lon="8.82744">
        <ele>1222</ele>
        <time>2021-08-04T08:12:23.822Z</time>
      </trkpt>
      <trkpt lat="46.98872" lon="8.82742">
        <ele>1222</ele>
        <time>2021-08-04T08:12:24.821Z</time>
      </trkpt>
      <trkpt lat="46.98871" lon="8.82741">
        <ele>1222</ele>
        <time>2021-08-04T08:12:25.822Z</time>
      </trkpt>
      <trkpt lat="46.9887" lon="8.82739">
        <ele>1221</ele>
        <time>2021-08-04T08:12:26.822Z</time>
      </trkpt>
      <trkpt lat="46.98871" lon="8.82738">
        <ele>1221</ele>
        <time>2021-08-04T08:12:27.821Z</time>
      </trkpt>
      <trkpt lat="46.9887" lon="8.82737">
        <ele>1221</ele>
        <time>2021-08-04T08:12:28.822Z</time>
      </trkpt>
      <trkpt lat="46.9887" lon="8.82736">
        <ele>1220</ele>
        <time>2021-08-04T08:12:29.822Z</time>
      </trkpt>
      <trkpt lat="46.9887" lon="8.82735">
        <ele>1220</ele>
        <time>2021-08-04T08:12:30.822Z</time>
      </trkpt>
      <trkpt lat="46.9887" lon="8.82734">
        <ele>1219</ele>
        <time>2021-08-04T08:12:31.822Z</time>
      </trkpt>
      <trkpt lat="46.9887" lon="8.82732">
        <ele>1218</ele>
        <time>2021-08-04T08:12:32.821Z</time>
      </trkpt>
      <trkpt lat="46.98871" lon="8.82731">
        <ele>1218</ele>
        <time>2021-08-04T08:12:33.821Z</time>
      </trkpt>
      <trkpt lat="46.98871" lon="8.82731">
        <ele>1217</ele>
        <time>2021-08-04T08:12:34.822Z</time>
      </trkpt>
      <trkpt lat="46.98871" lon="8.8273">
        <ele>1217</ele>
        <time>2021-08-04T08:12:35.822Z</time>
      </trkpt>
      <trkpt lat="46.98871" lon="8.82729">
        <ele>1217</ele>
        <time>2021-08-04T08:12:36.822Z</time>
      </trkpt>
      <trkpt lat="46.98871" lon="8.82727">
        <ele>1217</ele>
        <time>2021-08-04T08:12:37.822Z</time>
      </trkpt>
      <trkpt lat="46.98872" lon="8.82726">
        <ele>1216</ele>
        <time>2021-08-04T08:12:38.822Z</time>
      </trkpt>
      <trkpt lat="46.98872" lon="8.82725">
        <ele>1216</ele>
        <time>2021-08-04T08:12:39.821Z</time>
      </trkpt>
      <trkpt lat="46.98872" lon="8.82724">
        <ele>1216</ele>
        <time>2021-08-04T08:12:40.822Z</time>
      </trkpt>
      <trkpt lat="46.98871" lon="8.82723">
        <ele>1216</ele>
        <time>2021-08-04T08:12:41.822Z</time>
      </trkpt>
      <trkpt lat="46.98871" lon="8.82723">
        <ele>1216</ele>
        <time>2021-08-04T08:12:42.821Z</time>
      </trkpt>
      <trkpt lat="46.98871" lon="8.82722">
        <ele>1216</ele>
        <time>2021-08-04T08:12:43.822Z</time>
      </trkpt>
      <trkpt lat="46.98871" lon="8.82721">
        <ele>1216</ele>
        <time>2021-08-04T08:12:44.822Z</time>
      </trkpt>
      <trkpt lat="46.98871" lon="8.8272">
        <ele>1216</ele>
        <time>2021-08-04T08:12:45.822Z</time>
      </trkpt>
      <trkpt lat="46.98871" lon="8.82719">
        <ele>1216</ele>
        <time>2021-08-04T08:12:46.822Z</time>
      </trkpt>
      <trkpt lat="46.98871" lon="8.82718">
        <ele>1216</ele>
        <time>2021-08-04T08:12:47.821Z</time>
      </trkpt>
      <trkpt lat="46.9887" lon="8.82717">
        <ele>1216</ele>
        <time>2021-08-04T08:12:48.822Z</time>
      </trkpt>
      <trkpt lat="46.9887" lon="8.82716">
        <ele>1216</ele>
        <time>2021-08-04T08:12:49.822Z</time>
      </trkpt>
      <trkpt lat="46.9887" lon="8.82714">
        <ele>1215</ele>
        <time>2021-08-04T08:12:50.822Z</time>
      </trkpt>
      <trkpt lat="46.98871" lon="8.82713">
        <ele>1215</ele>
        <time>2021-08-04T08:12:51.821Z</time>
      </trkpt>
      <trkpt lat="46.98871" lon="8.82711">
        <ele>1214</ele>
        <time>2021-08-04T08:12:52.822Z</time>
      </trkpt>
      <trkpt lat="46.98871" lon="8.8271">
        <ele>1214</ele>
        <time>2021-08-04T08:12:53.821Z</time>
      </trkpt>
      <trkpt lat="46.98871" lon="8.82708">
        <ele>1214</ele>
        <time>2021-08-04T08:12:54.822Z</time>
      </trkpt>
      <trkpt lat="46.9887" lon="8.82706">
        <ele>1213</ele>
        <time>2021-08-04T08:12:55.822Z</time>
      </trkpt>
      <trkpt lat="46.98869" lon="8.82704">
        <ele>1213</ele>
        <time>2021-08-04T08:12:56.822Z</time>
      </trkpt>
      <trkpt lat="46.98869" lon="8.82701">
        <ele>1213</ele>
        <time>2021-08-04T08:12:57.821Z</time>
      </trkpt>
      <trkpt lat="46.98868" lon="8.82698">
        <ele>1213</ele>
        <time>2021-08-04T08:12:58.822Z</time>
      </trkpt>
      <trkpt lat="46.98869" lon="8.82696">
        <ele>1213</ele>
        <time>2021-08-04T08:12:59.821Z</time>
      </trkpt>
      <trkpt lat="46.98869" lon="8.82694">
        <ele>1213</ele>
        <time>2021-08-04T08:13:00.822Z</time>
      </trkpt>
      <trkpt lat="46.98869" lon="8.82692">
        <ele>1213</ele>
        <time>2021-08-04T08:13:01.822Z</time>
      </trkpt>
      <trkpt lat="46.98869" lon="8.82689">
        <ele>1213</ele>
        <time>2021-08-04T08:13:02.822Z</time>
      </trkpt>
      <trkpt lat="46.98868" lon="8.82687">
        <ele>1212</ele>
        <time>2021-08-04T08:13:03.821Z</time>
      </trkpt>
      <trkpt lat="46.98867" lon="8.82685">
        <ele>1212</ele>
        <time>2021-08-04T08:13:04.822Z</time>
      </trkpt>
      <trkpt lat="46.98866" lon="8.82683">
        <ele>1212</ele>
        <time>2021-08-04T08:13:05.822Z</time>
      </trkpt>
      <trkpt lat="46.98865" lon="8.82681">
        <ele>1211</ele>
        <time>2021-08-04T08:13:06.822Z</time>
      </trkpt>
      <trkpt lat="46.98864" lon="8.8268">
        <ele>1211</ele>
        <time>2021-08-04T08:13:07.822Z</time>
      </trkpt>
      <trkpt lat="46.98864" lon="8.82679">
        <ele>1211</ele>
        <time>2021-08-04T08:13:08.822Z</time>
      </trkpt>
      <trkpt lat="46.98864" lon="8.82679">
        <ele>1211</ele>
        <time>2021-08-04T08:13:09.822Z</time>
      </trkpt>
      <trkpt lat="46.98864" lon="8.82678">
        <ele>1210</ele>
        <time>2021-08-04T08:13:10.821Z</time>
      </trkpt>
      <trkpt lat="46.98863" lon="8.82677">
        <ele>1210</ele>
        <time>2021-08-04T08:13:11.822Z</time>
      </trkpt>
      <trkpt lat="46.98863" lon="8.82674">
        <ele>1209</ele>
        <time>2021-08-04T08:13:12.822Z</time>
      </trkpt>
      <trkpt lat="46.98863" lon="8.82673">
        <ele>1209</ele>
        <time>2021-08-04T08:13:13.822Z</time>
      </trkpt>
      <trkpt lat="46.98863" lon="8.82672">
        <ele>1208</ele>
        <time>2021-08-04T08:13:14.821Z</time>
      </trkpt>
      <trkpt lat="46.98864" lon="8.82671">
        <ele>1208</ele>
        <time>2021-08-04T08:13:15.821Z</time>
      </trkpt>
      <trkpt lat="46.98864" lon="8.82669">
        <ele>1208</ele>
        <time>2021-08-04T08:13:16.822Z</time>
      </trkpt>
      <trkpt lat="46.98865" lon="8.82667">
        <ele>1207</ele>
        <time>2021-08-04T08:13:17.822Z</time>
      </trkpt>
      <trkpt lat="46.98864" lon="8.82665">
        <ele>1207</ele>
        <time>2021-08-04T08:13:18.822Z</time>
      </trkpt>
      <trkpt lat="46.98864" lon="8.82662">
        <ele>1207</ele>
        <time>2021-08-04T08:13:19.822Z</time>
      </trkpt>
      <trkpt lat="46.98863" lon="8.82659">
        <ele>1207</ele>
        <time>2021-08-04T08:13:20.822Z</time>
      </trkpt>
      <trkpt lat="46.98863" lon="8.82658">
        <ele>1206</ele>
        <time>2021-08-04T08:13:21.821Z</time>
      </trkpt>
      <trkpt lat="46.98863" lon="8.82657">
        <ele>1206</ele>
        <time>2021-08-04T08:13:22.821Z</time>
      </trkpt>
      <trkpt lat="46.98863" lon="8.82656">
        <ele>1206</ele>
        <time>2021-08-04T08:13:23.822Z</time>
      </trkpt>
      <trkpt lat="46.98863" lon="8.82654">
        <ele>1206</ele>
        <time>2021-08-04T08:13:24.822Z</time>
      </trkpt>
      <trkpt lat="46.98862" lon="8.82653">
        <ele>1206</ele>
        <time>2021-08-04T08:13:25.821Z</time>
      </trkpt>
      <trkpt lat="46.98862" lon="8.82652">
        <ele>1207</ele>
        <time>2021-08-04T08:13:26.822Z</time>
      </trkpt>
      <trkpt lat="46.98862" lon="8.82651">
        <ele>1207</ele>
        <time>2021-08-04T08:13:27.822Z</time>
      </trkpt>
      <trkpt lat="46.98862" lon="8.82649">
        <ele>1207</ele>
        <time>2021-08-04T08:13:28.822Z</time>
      </trkpt>
      <trkpt lat="46.98862" lon="8.82648">
        <ele>1207</ele>
        <time>2021-08-04T08:13:29.822Z</time>
      </trkpt>
      <trkpt lat="46.98861" lon="8.82647">
        <ele>1208</ele>
        <time>2021-08-04T08:13:30.821Z</time>
      </trkpt>
      <trkpt lat="46.98861" lon="8.82646">
        <ele>1208</ele>
        <time>2021-08-04T08:13:31.822Z</time>
      </trkpt>
      <trkpt lat="46.9886" lon="8.82645">
        <ele>1208</ele>
        <time>2021-08-04T08:13:32.822Z</time>
      </trkpt>
      <trkpt lat="46.9886" lon="8.82644">
        <ele>1209</ele>
        <time>2021-08-04T08:13:33.822Z</time>
      </trkpt>
      <trkpt lat="46.98859" lon="8.82644">
        <ele>1209</ele>
        <time>2021-08-04T08:13:34.821Z</time>
      </trkpt>
      <trkpt lat="46.98859" lon="8.82642">
        <ele>1209</ele>
        <time>2021-08-04T08:13:35.823Z</time>
      </trkpt>
      <trkpt lat="46.98858" lon="8.8264">
        <ele>1209</ele>
        <time>2021-08-04T08:13:36.823Z</time>
      </trkpt>
      <trkpt lat="46.98857" lon="8.82638">
        <ele>1208</ele>
        <time>2021-08-04T08:13:37.822Z</time>
      </trkpt>
      <trkpt lat="46.98857" lon="8.82637">
        <ele>1208</ele>
        <time>2021-08-04T08:13:38.822Z</time>
      </trkpt>
      <trkpt lat="46.98857" lon="8.82635">
        <ele>1208</ele>
        <time>2021-08-04T08:13:39.823Z</time>
      </trkpt>
      <trkpt lat="46.98856" lon="8.82632">
        <ele>1207</ele>
        <time>2021-08-04T08:13:40.822Z</time>
      </trkpt>
      <trkpt lat="46.98855" lon="8.8263">
        <ele>1207</ele>
        <time>2021-08-04T08:13:41.823Z</time>
      </trkpt>
      <trkpt lat="46.98853" lon="8.82627">
        <ele>1206</ele>
        <time>2021-08-04T08:13:42.823Z</time>
      </trkpt>
      <trkpt lat="46.98852" lon="8.82625">
        <ele>1206</ele>
        <time>2021-08-04T08:13:43.823Z</time>
      </trkpt>
      <trkpt lat="46.98852" lon="8.82623">
        <ele>1205</ele>
        <time>2021-08-04T08:13:44.822Z</time>
      </trkpt>
      <trkpt lat="46.98851" lon="8.82621">
        <ele>1205</ele>
        <time>2021-08-04T08:13:45.822Z</time>
      </trkpt>
      <trkpt lat="46.9885" lon="8.82619">
        <ele>1204</ele>
        <time>2021-08-04T08:13:46.823Z</time>
      </trkpt>
      <trkpt lat="46.98849" lon="8.82618">
        <ele>1204</ele>
        <time>2021-08-04T08:13:47.823Z</time>
      </trkpt>
      <trkpt lat="46.98848" lon="8.82616">
        <ele>1203</ele>
        <time>2021-08-04T08:13:48.823Z</time>
      </trkpt>
      <trkpt lat="46.98847" lon="8.82614">
        <ele>1203</ele>
        <time>2021-08-04T08:13:49.823Z</time>
      </trkpt>
      <trkpt lat="46.98846" lon="8.82612">
        <ele>1203</ele>
        <time>2021-08-04T08:13:50.823Z</time>
      </trkpt>
      <trkpt lat="46.98846" lon="8.82611">
        <ele>1203</ele>
        <time>2021-08-04T08:13:51.823Z</time>
      </trkpt>
      <trkpt lat="46.98846" lon="8.82611">
        <ele>1203</ele>
        <time>2021-08-04T08:13:52.822Z</time>
      </trkpt>
      <trkpt lat="46.98847" lon="8.82611">
        <ele>1203</ele>
        <time>2021-08-04T08:13:53.822Z</time>
      </trkpt>
      <trkpt lat="46.98849" lon="8.82612">
        <ele>1203</ele>
        <time>2021-08-04T08:13:54.823Z</time>
      </trkpt>
      <trkpt lat="46.98849" lon="8.82613">
        <ele>1203</ele>
        <time>2021-08-04T08:13:55.823Z</time>
      </trkpt>
      <trkpt lat="46.98849" lon="8.82613">
        <ele>1203</ele>
        <time>2021-08-04T08:13:56.824Z</time>
      </trkpt>
      <trkpt lat="46.98849" lon="8.82612">
        <ele>1203</ele>
        <time>2021-08-04T08:13:57.823Z</time>
      </trkpt>
      <trkpt lat="46.98854" lon="8.8261">
        <ele>1208</ele>
        <time>2021-08-04T08:13:58.823Z</time>
      </trkpt>
      <trkpt lat="46.98854" lon="8.8261">
        <ele>1208</ele>
        <time>2021-08-04T08:13:59.824Z</time>
      </trkpt>
      <trkpt lat="46.98855" lon="8.82609">
        <ele>1209</ele>
        <time>2021-08-04T08:14:00.824Z</time>
      </trkpt>
      <trkpt lat="46.98855" lon="8.82607">
        <ele>1209</ele>
        <time>2021-08-04T08:14:01.823Z</time>
      </trkpt>
      <trkpt lat="46.98862" lon="8.82606">
        <ele>1213</ele>
        <time>2021-08-04T08:14:02.824Z</time>
      </trkpt>
      <trkpt lat="46.98863" lon="8.82606">
        <ele>1213</ele>
        <time>2021-08-04T08:14:03.824Z</time>
      </trkpt>
      <trkpt lat="46.98864" lon="8.82606">
        <ele>1212</ele>
        <time>2021-08-04T08:14:04.823Z</time>
      </trkpt>
      <trkpt lat="46.98863" lon="8.82605">
        <ele>1212</ele>
        <time>2021-08-04T08:14:05.823Z</time>
      </trkpt>
      <trkpt lat="46.98862" lon="8.82604">
        <ele>1212</ele>
        <time>2021-08-04T08:14:06.824Z</time>
      </trkpt>
      <trkpt lat="46.98862" lon="8.82603">
        <ele>1212</ele>
        <time>2021-08-04T08:14:07.824Z</time>
      </trkpt>
      <trkpt lat="46.98861" lon="8.82603">
        <ele>1212</ele>
        <time>2021-08-04T08:14:08.824Z</time>
      </trkpt>
      <trkpt lat="46.9886" lon="8.82602">
        <ele>1212</ele>
        <time>2021-08-04T08:14:09.823Z</time>
      </trkpt>
      <trkpt lat="46.9886" lon="8.82601">
        <ele>1212</ele>
        <time>2021-08-04T08:14:10.823Z</time>
      </trkpt>
      <trkpt lat="46.98859" lon="8.826">
        <ele>1212</ele>
        <time>2021-08-04T08:14:11.823Z</time>
      </trkpt>
      <trkpt lat="46.98859" lon="8.82598">
        <ele>1212</ele>
        <time>2021-08-04T08:14:12.824Z</time>
      </trkpt>
      <trkpt lat="46.98859" lon="8.82597">
        <ele>1211</ele>
        <time>2021-08-04T08:14:13.823Z</time>
      </trkpt>
      <trkpt lat="46.98859" lon="8.82596">
        <ele>1211</ele>
        <time>2021-08-04T08:14:14.824Z</time>
      </trkpt>
      <trkpt lat="46.98859" lon="8.82595">
        <ele>1211</ele>
        <time>2021-08-04T08:14:15.824Z</time>
      </trkpt>
      <trkpt lat="46.98859" lon="8.82594">
        <ele>1211</ele>
        <time>2021-08-04T08:14:16.824Z</time>
      </trkpt>
      <trkpt lat="46.98858" lon="8.82593">
        <ele>1211</ele>
        <time>2021-08-04T08:14:17.823Z</time>
      </trkpt>
      <trkpt lat="46.98858" lon="8.82592">
        <ele>1210</ele>
        <time>2021-08-04T08:14:18.823Z</time>
      </trkpt>
      <trkpt lat="46.98857" lon="8.8259">
        <ele>1210</ele>
        <time>2021-08-04T08:14:19.824Z</time>
      </trkpt>
      <trkpt lat="46.98856" lon="8.82587">
        <ele>1210</ele>
        <time>2021-08-04T08:14:20.824Z</time>
      </trkpt>
      <trkpt lat="46.98856" lon="8.82585">
        <ele>1210</ele>
        <time>2021-08-04T08:14:21.823Z</time>
      </trkpt>
      <trkpt lat="46.98856" lon="8.82584">
        <ele>1210</ele>
        <time>2021-08-04T08:14:22.824Z</time>
      </trkpt>
      <trkpt lat="46.98856" lon="8.82583">
        <ele>1210</ele>
        <time>2021-08-04T08:14:23.823Z</time>
      </trkpt>
      <trkpt lat="46.98856" lon="8.82583">
        <ele>1209</ele>
        <time>2021-08-04T08:14:24.824Z</time>
      </trkpt>
      <trkpt lat="46.98856" lon="8.82582">
        <ele>1209</ele>
        <time>2021-08-04T08:14:25.824Z</time>
      </trkpt>
      <trkpt lat="46.98855" lon="8.82581">
        <ele>1209</ele>
        <time>2021-08-04T08:14:26.823Z</time>
      </trkpt>
      <trkpt lat="46.98855" lon="8.8258">
        <ele>1208</ele>
        <time>2021-08-04T08:14:27.824Z</time>
      </trkpt>
      <trkpt lat="46.98855" lon="8.82579">
        <ele>1208</ele>
        <time>2021-08-04T08:14:28.824Z</time>
      </trkpt>
      <trkpt lat="46.98856" lon="8.82579">
        <ele>1207</ele>
        <time>2021-08-04T08:14:29.824Z</time>
      </trkpt>
      <trkpt lat="46.98856" lon="8.82579">
        <ele>1207</ele>
        <time>2021-08-04T08:14:30.824Z</time>
      </trkpt>
      <trkpt lat="46.98856" lon="8.82578">
        <ele>1206</ele>
        <time>2021-08-04T08:14:31.824Z</time>
      </trkpt>
      <trkpt lat="46.98855" lon="8.82578">
        <ele>1206</ele>
        <time>2021-08-04T08:14:32.823Z</time>
      </trkpt>
      <trkpt lat="46.98854" lon="8.82577">
        <ele>1206</ele>
        <time>2021-08-04T08:14:33.823Z</time>
      </trkpt>
      <trkpt lat="46.98852" lon="8.82575">
        <ele>1209</ele>
        <time>2021-08-04T08:14:34.823Z</time>
      </trkpt>
      <trkpt lat="46.98851" lon="8.82575">
        <ele>1210</ele>
        <time>2021-08-04T08:14:35.824Z</time>
      </trkpt>
      <trkpt lat="46.9885" lon="8.82574">
        <ele>1211</ele>
        <time>2021-08-04T08:14:36.824Z</time>
      </trkpt>
      <trkpt lat="46.98849" lon="8.82575">
        <ele>1212</ele>
        <time>2021-08-04T08:14:37.824Z</time>
      </trkpt>
      <trkpt lat="46.9885" lon="8.82575">
        <ele>1213</ele>
        <time>2021-08-04T08:14:38.824Z</time>
      </trkpt>
      <trkpt lat="46.9885" lon="8.82575">
        <ele>1214</ele>
        <time>2021-08-04T08:14:39.823Z</time>
      </trkpt>
      <trkpt lat="46.9885" lon="8.82575">
        <ele>1214</ele>
        <time>2021-08-04T08:14:40.824Z</time>
      </trkpt>
      <trkpt lat="46.98849" lon="8.82578">
        <ele>1214</ele>
        <time>2021-08-04T08:14:41.825Z</time>
      </trkpt>
      <trkpt lat="46.98848" lon="8.8258">
        <ele>1215</ele>
        <time>2021-08-04T08:14:42.825Z</time>
      </trkpt>
      <trkpt lat="46.98848" lon="8.82582">
        <ele>1215</ele>
        <time>2021-08-04T08:14:43.824Z</time>
      </trkpt>
      <trkpt lat="46.98848" lon="8.82583">
        <ele>1215</ele>
        <time>2021-08-04T08:14:44.824Z</time>
      </trkpt>
      <trkpt lat="46.98848" lon="8.82585">
        <ele>1215</ele>
        <time>2021-08-04T08:14:45.825Z</time>
      </trkpt>
      <trkpt lat="46.98848" lon="8.82585">
        <ele>1215</ele>
        <time>2021-08-04T08:14:46.824Z</time>
      </trkpt>
      <trkpt lat="46.98848" lon="8.82585">
        <ele>1215</ele>
        <time>2021-08-04T08:14:47.824Z</time>
      </trkpt>
      <trkpt lat="46.98849" lon="8.82586">
        <ele>1215</ele>
        <time>2021-08-04T08:14:48.824Z</time>
      </trkpt>
      <trkpt lat="46.98848" lon="8.82586">
        <ele>1214</ele>
        <time>2021-08-04T08:14:49.824Z</time>
      </trkpt>
      <trkpt lat="46.98847" lon="8.82586">
        <ele>1214</ele>
        <time>2021-08-04T08:14:50.825Z</time>
      </trkpt>
      <trkpt lat="46.98847" lon="8.82587">
        <ele>1214</ele>
        <time>2021-08-04T08:14:51.824Z</time>
      </trkpt>
      <trkpt lat="46.98847" lon="8.82587">
        <ele>1213</ele>
        <time>2021-08-04T08:14:52.824Z</time>
      </trkpt>
      <trkpt lat="46.98847" lon="8.82588">
        <ele>1213</ele>
        <time>2021-08-04T08:14:53.825Z</time>
      </trkpt>
      <trkpt lat="46.98847" lon="8.82588">
        <ele>1213</ele>
        <time>2021-08-04T08:14:54.824Z</time>
      </trkpt>
      <trkpt lat="46.98848" lon="8.82588">
        <ele>1212</ele>
        <time>2021-08-04T08:14:55.824Z</time>
      </trkpt>
      <trkpt lat="46.98848" lon="8.82589">
        <ele>1212</ele>
        <time>2021-08-04T08:14:56.824Z</time>
      </trkpt>
      <trkpt lat="46.98849" lon="8.8259">
        <ele>1212</ele>
        <time>2021-08-04T08:14:57.825Z</time>
      </trkpt>
      <trkpt lat="46.98849" lon="8.82589">
        <ele>1213</ele>
        <time>2021-08-04T08:14:58.824Z</time>
      </trkpt>
      <trkpt lat="46.98848" lon="8.82588">
        <ele>1214</ele>
        <time>2021-08-04T08:14:59.824Z</time>
      </trkpt>
      <trkpt lat="46.98848" lon="8.82588">
        <ele>1214</ele>
        <time>2021-08-04T08:15:00.824Z</time>
      </trkpt>
      <trkpt lat="46.98847" lon="8.82588">
        <ele>1215</ele>
        <time>2021-08-04T08:15:01.824Z</time>
      </trkpt>
      <trkpt lat="46.98846" lon="8.82588">
        <ele>1221</ele>
        <time>2021-08-04T08:15:02.826Z</time>
      </trkpt>
      <trkpt lat="46.98846" lon="8.82588">
        <ele>1222</ele>
        <time>2021-08-04T08:15:03.825Z</time>
      </trkpt>
      <trkpt lat="46.98845" lon="8.82587">
        <ele>1222</ele>
        <time>2021-08-04T08:15:04.825Z</time>
      </trkpt>
      <trkpt lat="46.98845" lon="8.82587">
        <ele>1223</ele>
        <time>2021-08-04T08:15:05.826Z</time>
      </trkpt>
      <trkpt lat="46.98844" lon="8.82588">
        <ele>1224</ele>
        <time>2021-08-04T08:15:06.826Z</time>
      </trkpt>
      <trkpt lat="46.98844" lon="8.8259">
        <ele>1224</ele>
        <time>2021-08-04T08:15:07.827Z</time>
      </trkpt>
      <trkpt lat="46.98844" lon="8.8259">
        <ele>1224</ele>
        <time>2021-08-04T08:15:08.827Z</time>
      </trkpt>
      <trkpt lat="46.98844" lon="8.82587">
        <ele>1229</ele>
        <time>2021-08-04T08:15:09.826Z</time>
      </trkpt>
      <trkpt lat="46.98845" lon="8.82587">
        <ele>1229</ele>
        <time>2021-08-04T08:15:10.826Z</time>
      </trkpt>
      <trkpt lat="46.98846" lon="8.82587">
        <ele>1229</ele>
        <time>2021-08-04T08:15:11.826Z</time>
      </trkpt>
      <trkpt lat="46.98846" lon="8.82587">
        <ele>1228</ele>
        <time>2021-08-04T08:15:12.827Z</time>
      </trkpt>
      <trkpt lat="46.98847" lon="8.82588">
        <ele>1228</ele>
        <time>2021-08-04T08:15:13.827Z</time>
      </trkpt>
      <trkpt lat="46.98848" lon="8.82588">
        <ele>1228</ele>
        <time>2021-08-04T08:15:14.827Z</time>
      </trkpt>
      <trkpt lat="46.98849" lon="8.82589">
        <ele>1227</ele>
        <time>2021-08-04T08:15:15.827Z</time>
      </trkpt>
      <trkpt lat="46.9885" lon="8.82589">
        <ele>1227</ele>
        <time>2021-08-04T08:15:16.827Z</time>
      </trkpt>
      <trkpt lat="46.9885" lon="8.8259">
        <ele>1227</ele>
        <time>2021-08-04T08:15:17.827Z</time>
      </trkpt>
      <trkpt lat="46.98851" lon="8.8259">
        <ele>1226</ele>
        <time>2021-08-04T08:15:18.826Z</time>
      </trkpt>
      <trkpt lat="46.98851" lon="8.8259">
        <ele>1226</ele>
        <time>2021-08-04T08:15:19.827Z</time>
      </trkpt>
      <trkpt lat="46.98851" lon="8.8259">
        <ele>1226</ele>
        <time>2021-08-04T08:15:20.827Z</time>
      </trkpt>
      <trkpt lat="46.98851" lon="8.82592">
        <ele>1226</ele>
        <time>2021-08-04T08:15:21.827Z</time>
      </trkpt>
      <trkpt lat="46.98852" lon="8.82592">
        <ele>1226</ele>
        <time>2021-08-04T08:15:22.827Z</time>
      </trkpt>
      <trkpt lat="46.98852" lon="8.82592">
        <ele>1225</ele>
        <time>2021-08-04T08:15:23.827Z</time>
      </trkpt>
      <trkpt lat="46.98853" lon="8.82591">
        <ele>1224</ele>
        <time>2021-08-04T08:15:24.827Z</time>
      </trkpt>
      <trkpt lat="46.98854" lon="8.82591">
        <ele>1223</ele>
        <time>2021-08-04T08:15:25.827Z</time>
      </trkpt>
      <trkpt lat="46.98855" lon="8.8259">
        <ele>1223</ele>
        <time>2021-08-04T08:15:26.826Z</time>
      </trkpt>
      <trkpt lat="46.98855" lon="8.8259">
        <ele>1222</ele>
        <time>2021-08-04T08:15:27.827Z</time>
      </trkpt>
      <trkpt lat="46.98856" lon="8.8259">
        <ele>1221</ele>
        <time>2021-08-04T08:15:28.826Z</time>
      </trkpt>
      <trkpt lat="46.98857" lon="8.82589">
        <ele>1220</ele>
        <time>2021-08-04T08:15:29.827Z</time>
      </trkpt>
      <trkpt lat="46.98857" lon="8.82589">
        <ele>1219</ele>
        <time>2021-08-04T08:15:30.826Z</time>
      </trkpt>
      <trkpt lat="46.98858" lon="8.82589">
        <ele>1219</ele>
        <time>2021-08-04T08:15:31.826Z</time>
      </trkpt>
      <trkpt lat="46.98859" lon="8.82589">
        <ele>1218</ele>
        <time>2021-08-04T08:15:32.827Z</time>
      </trkpt>
      <trkpt lat="46.9886" lon="8.82588">
        <ele>1217</ele>
        <time>2021-08-04T08:15:33.827Z</time>
      </trkpt>
      <trkpt lat="46.98861" lon="8.82588">
        <ele>1217</ele>
        <time>2021-08-04T08:15:34.827Z</time>
      </trkpt>
      <trkpt lat="46.98861" lon="8.82588">
        <ele>1216</ele>
        <time>2021-08-04T08:15:35.827Z</time>
      </trkpt>
      <trkpt lat="46.98863" lon="8.82588">
        <ele>1216</ele>
        <time>2021-08-04T08:15:36.826Z</time>
      </trkpt>
      <trkpt lat="46.98863" lon="8.82588">
        <ele>1216</ele>
        <time>2021-08-04T08:15:37.826Z</time>
      </trkpt>
      <trkpt lat="46.98865" lon="8.82588">
        <ele>1215</ele>
        <time>2021-08-04T08:15:38.827Z</time>
      </trkpt>
      <trkpt lat="46.98866" lon="8.82589">
        <ele>1215</ele>
        <time>2021-08-04T08:15:39.827Z</time>
      </trkpt>
      <trkpt lat="46.98867" lon="8.82589">
        <ele>1215</ele>
        <time>2021-08-04T08:15:40.826Z</time>
      </trkpt>
      <trkpt lat="46.98868" lon="8.8259">
        <ele>1215</ele>
        <time>2021-08-04T08:15:41.826Z</time>
      </trkpt>
      <trkpt lat="46.98869" lon="8.82591">
        <ele>1215</ele>
        <time>2021-08-04T08:15:42.826Z</time>
      </trkpt>
      <trkpt lat="46.9887" lon="8.82593">
        <ele>1214</ele>
        <time>2021-08-04T08:15:43.827Z</time>
      </trkpt>
      <trkpt lat="46.98871" lon="8.82595">
        <ele>1214</ele>
        <time>2021-08-04T08:15:44.827Z</time>
      </trkpt>
      <trkpt lat="46.98872" lon="8.82596">
        <ele>1214</ele>
        <time>2021-08-04T08:15:45.827Z</time>
      </trkpt>
      <trkpt lat="46.98873" lon="8.82596">
        <ele>1213</ele>
        <time>2021-08-04T08:15:46.827Z</time>
      </trkpt>
      <trkpt lat="46.98875" lon="8.82598">
        <ele>1213</ele>
        <time>2021-08-04T08:15:47.827Z</time>
      </trkpt>
      <trkpt lat="46.98876" lon="8.82599">
        <ele>1213</ele>
        <time>2021-08-04T08:15:48.827Z</time>
      </trkpt>
      <trkpt lat="46.98877" lon="8.82601">
        <ele>1212</ele>
        <time>2021-08-04T08:15:49.827Z</time>
      </trkpt>
      <trkpt lat="46.98878" lon="8.82601">
        <ele>1212</ele>
        <time>2021-08-04T08:15:50.827Z</time>
      </trkpt>
      <trkpt lat="46.98879" lon="8.82602">
        <ele>1212</ele>
        <time>2021-08-04T08:15:51.827Z</time>
      </trkpt>
      <trkpt lat="46.9888" lon="8.82603">
        <ele>1212</ele>
        <time>2021-08-04T08:15:52.826Z</time>
      </trkpt>
      <trkpt lat="46.98879" lon="8.82604">
        <ele>1212</ele>
        <time>2021-08-04T08:15:53.827Z</time>
      </trkpt>
      <trkpt lat="46.98879" lon="8.82605">
        <ele>1212</ele>
        <time>2021-08-04T08:15:54.827Z</time>
      </trkpt>
      <trkpt lat="46.98878" lon="8.82605">
        <ele>1212</ele>
        <time>2021-08-04T08:15:55.826Z</time>
      </trkpt>
      <trkpt lat="46.98878" lon="8.82606">
        <ele>1212</ele>
        <time>2021-08-04T08:15:56.827Z</time>
      </trkpt>
      <trkpt lat="46.98878" lon="8.82606">
        <ele>1211</ele>
        <time>2021-08-04T08:15:57.827Z</time>
      </trkpt>
      <trkpt lat="46.98878" lon="8.82607">
        <ele>1211</ele>
        <time>2021-08-04T08:15:58.827Z</time>
      </trkpt>
      <trkpt lat="46.98879" lon="8.82608">
        <ele>1211</ele>
        <time>2021-08-04T08:15:59.826Z</time>
      </trkpt>
      <trkpt lat="46.98879" lon="8.82609">
        <ele>1211</ele>
        <time>2021-08-04T08:16:00.827Z</time>
      </trkpt>
      <trkpt lat="46.98879" lon="8.8261">
        <ele>1210</ele>
        <time>2021-08-04T08:16:01.826Z</time>
      </trkpt>
      <trkpt lat="46.98879" lon="8.8261">
        <ele>1210</ele>
        <time>2021-08-04T08:16:02.827Z</time>
      </trkpt>
      <trkpt lat="46.98879" lon="8.8261">
        <ele>1210</ele>
        <time>2021-08-04T08:16:03.827Z</time>
      </trkpt>
      <trkpt lat="46.9888" lon="8.8261">
        <ele>1210</ele>
        <time>2021-08-04T08:16:04.829Z</time>
      </trkpt>
      <trkpt lat="46.9888" lon="8.8261">
        <ele>1211</ele>
        <time>2021-08-04T08:16:05.828Z</time>
      </trkpt>
      <trkpt lat="46.9888" lon="8.8261">
        <ele>1211</ele>
        <time>2021-08-04T08:16:06.829Z</time>
      </trkpt>
      <trkpt lat="46.98881" lon="8.8261">
        <ele>1212</ele>
        <time>2021-08-04T08:16:07.828Z</time>
      </trkpt>
      <trkpt lat="46.98882" lon="8.82609">
        <ele>1212</ele>
        <time>2021-08-04T08:16:08.828Z</time>
      </trkpt>
      <trkpt lat="46.98883" lon="8.82608">
        <ele>1212</ele>
        <time>2021-08-04T08:16:09.828Z</time>
      </trkpt>
      <trkpt lat="46.98884" lon="8.82607">
        <ele>1212</ele>
        <time>2021-08-04T08:16:10.828Z</time>
      </trkpt>
      <trkpt lat="46.98884" lon="8.82605">
        <ele>1212</ele>
        <time>2021-08-04T08:16:11.828Z</time>
      </trkpt>
      <trkpt lat="46.98885" lon="8.82604">
        <ele>1211</ele>
        <time>2021-08-04T08:16:12.828Z</time>
      </trkpt>
      <trkpt lat="46.98885" lon="8.82602">
        <ele>1210</ele>
        <time>2021-08-04T08:16:13.828Z</time>
      </trkpt>
      <trkpt lat="46.98885" lon="8.826">
        <ele>1209</ele>
        <time>2021-08-04T08:16:14.828Z</time>
      </trkpt>
      <trkpt lat="46.98885" lon="8.82599">
        <ele>1208</ele>
        <time>2021-08-04T08:16:15.828Z</time>
      </trkpt>
      <trkpt lat="46.98884" lon="8.82597">
        <ele>1207</ele>
        <time>2021-08-04T08:16:16.828Z</time>
      </trkpt>
      <trkpt lat="46.98884" lon="8.82597">
        <ele>1206</ele>
        <time>2021-08-04T08:16:17.828Z</time>
      </trkpt>
      <trkpt lat="46.98884" lon="8.82596">
        <ele>1205</ele>
        <time>2021-08-04T08:16:18.829Z</time>
      </trkpt>
      <trkpt lat="46.98884" lon="8.82595">
        <ele>1205</ele>
        <time>2021-08-04T08:16:19.828Z</time>
      </trkpt>
      <trkpt lat="46.98884" lon="8.82594">
        <ele>1204</ele>
        <time>2021-08-04T08:16:20.829Z</time>
      </trkpt>
      <trkpt lat="46.98885" lon="8.82593">
        <ele>1203</ele>
        <time>2021-08-04T08:16:21.828Z</time>
      </trkpt>
      <trkpt lat="46.98884" lon="8.82593">
        <ele>1203</ele>
        <time>2021-08-04T08:16:22.828Z</time>
      </trkpt>
      <trkpt lat="46.98884" lon="8.82592">
        <ele>1202</ele>
        <time>2021-08-04T08:16:23.828Z</time>
      </trkpt>
      <trkpt lat="46.98884" lon="8.8259">
        <ele>1201</ele>
        <time>2021-08-04T08:16:24.828Z</time>
      </trkpt>
      <trkpt lat="46.98884" lon="8.8259">
        <ele>1201</ele>
        <time>2021-08-04T08:16:25.829Z</time>
      </trkpt>
      <trkpt lat="46.98884" lon="8.82589">
        <ele>1201</ele>
        <time>2021-08-04T08:16:26.828Z</time>
      </trkpt>
      <trkpt lat="46.98884" lon="8.82588">
        <ele>1200</ele>
        <time>2021-08-04T08:16:27.828Z</time>
      </trkpt>
      <trkpt lat="46.98884" lon="8.82587">
        <ele>1200</ele>
        <time>2021-08-04T08:16:28.828Z</time>
      </trkpt>
      <trkpt lat="46.98884" lon="8.82587">
        <ele>1200</ele>
        <time>2021-08-04T08:16:29.828Z</time>
      </trkpt>
      <trkpt lat="46.98884" lon="8.82586">
        <ele>1200</ele>
        <time>2021-08-04T08:16:30.828Z</time>
      </trkpt>
      <trkpt lat="46.98884" lon="8.82585">
        <ele>1199</ele>
        <time>2021-08-04T08:16:31.828Z</time>
      </trkpt>
      <trkpt lat="46.98884" lon="8.82588">
        <ele>1198</ele>
        <time>2021-08-04T08:16:32.830Z</time>
      </trkpt>
      <trkpt lat="46.98883" lon="8.8259">
        <ele>1198</ele>
        <time>2021-08-04T08:16:33.829Z</time>
      </trkpt>
      <trkpt lat="46.98883" lon="8.82592">
        <ele>1198</ele>
        <time>2021-08-04T08:16:34.829Z</time>
      </trkpt>
      <trkpt lat="46.98883" lon="8.82594">
        <ele>1197</ele>
        <time>2021-08-04T08:16:35.829Z</time>
      </trkpt>
      <trkpt lat="46.98883" lon="8.82596">
        <ele>1197</ele>
        <time>2021-08-04T08:16:36.829Z</time>
      </trkpt>
      <trkpt lat="46.98883" lon="8.82597">
        <ele>1198</ele>
        <time>2021-08-04T08:16:37.829Z</time>
      </trkpt>
      <trkpt lat="46.98883" lon="8.82598">
        <ele>1198</ele>
        <time>2021-08-04T08:16:38.829Z</time>
      </trkpt>
      <trkpt lat="46.98884" lon="8.826">
        <ele>1199</ele>
        <time>2021-08-04T08:16:39.830Z</time>
      </trkpt>
      <trkpt lat="46.98884" lon="8.82601">
        <ele>1199</ele>
        <time>2021-08-04T08:16:40.829Z</time>
      </trkpt>
      <trkpt lat="46.98884" lon="8.82602">
        <ele>1199</ele>
        <time>2021-08-04T08:16:41.829Z</time>
      </trkpt>
      <trkpt lat="46.98884" lon="8.82602">
        <ele>1200</ele>
        <time>2021-08-04T08:16:42.829Z</time>
      </trkpt>
      <trkpt lat="46.98884" lon="8.82603">
        <ele>1201</ele>
        <time>2021-08-04T08:16:43.830Z</time>
      </trkpt>
      <trkpt lat="46.98884" lon="8.82603">
        <ele>1201</ele>
        <time>2021-08-04T08:16:44.830Z</time>
      </trkpt>
      <trkpt lat="46.98885" lon="8.82603">
        <ele>1202</ele>
        <time>2021-08-04T08:16:45.830Z</time>
      </trkpt>
      <trkpt lat="46.98885" lon="8.82604">
        <ele>1203</ele>
        <time>2021-08-04T08:16:46.830Z</time>
      </trkpt>
      <trkpt lat="46.98885" lon="8.82604">
        <ele>1205</ele>
        <time>2021-08-04T08:16:47.830Z</time>
      </trkpt>
      <trkpt lat="46.98885" lon="8.82605">
        <ele>1206</ele>
        <time>2021-08-04T08:16:48.830Z</time>
      </trkpt>
      <trkpt lat="46.98885" lon="8.82605">
        <ele>1207</ele>
        <time>2021-08-04T08:16:49.830Z</time>
      </trkpt>
      <trkpt lat="46.98885" lon="8.82605">
        <ele>1208</ele>
        <time>2021-08-04T08:16:50.830Z</time>
      </trkpt>
      <trkpt lat="46.98885" lon="8.82607">
        <ele>1212</ele>
        <time>2021-08-04T08:16:51.831Z</time>
      </trkpt>
      <trkpt lat="46.98885" lon="8.82608">
        <ele>1213</ele>
        <time>2021-08-04T08:16:52.831Z</time>
      </trkpt>
      <trkpt lat="46.98886" lon="8.82608">
        <ele>1215</ele>
        <time>2021-08-04T08:16:53.830Z</time>
      </trkpt>
      <trkpt lat="46.98886" lon="8.82608">
        <ele>1216</ele>
        <time>2021-08-04T08:16:54.831Z</time>
      </trkpt>
      <trkpt lat="46.98886" lon="8.82609">
        <ele>1217</ele>
        <time>2021-08-04T08:16:55.831Z</time>
      </trkpt>
      <trkpt lat="46.98886" lon="8.8261">
        <ele>1218</ele>
        <time>2021-08-04T08:16:56.831Z</time>
      </trkpt>
      <trkpt lat="46.98887" lon="8.82611">
        <ele>1219</ele>
        <time>2021-08-04T08:16:57.831Z</time>
      </trkpt>
      <trkpt lat="46.98887" lon="8.82612">
        <ele>1220</ele>
        <time>2021-08-04T08:16:58.831Z</time>
      </trkpt>
      <trkpt lat="46.98887" lon="8.82613">
        <ele>1221</ele>
        <time>2021-08-04T08:16:59.831Z</time>
      </trkpt>
      <trkpt lat="46.98887" lon="8.82614">
        <ele>1222</ele>
        <time>2021-08-04T08:17:00.831Z</time>
      </trkpt>
      <trkpt lat="46.98887" lon="8.82614">
        <ele>1223</ele>
        <time>2021-08-04T08:17:01.831Z</time>
      </trkpt>
      <trkpt lat="46.98887" lon="8.82615">
        <ele>1225</ele>
        <time>2021-08-04T08:17:02.831Z</time>
      </trkpt>
      <trkpt lat="46.98887" lon="8.82615">
        <ele>1226</ele>
        <time>2021-08-04T08:17:03.830Z</time>
      </trkpt>
      <trkpt lat="46.98887" lon="8.82616">
        <ele>1227</ele>
        <time>2021-08-04T08:17:04.831Z</time>
      </trkpt>
      <trkpt lat="46.98886" lon="8.82617">
        <ele>1228</ele>
        <time>2021-08-04T08:17:05.830Z</time>
      </trkpt>
      <trkpt lat="46.98887" lon="8.82618">
        <ele>1229</ele>
        <time>2021-08-04T08:17:06.831Z</time>
      </trkpt>
      <trkpt lat="46.98887" lon="8.82619">
        <ele>1230</ele>
        <time>2021-08-04T08:17:07.831Z</time>
      </trkpt>
      <trkpt lat="46.98888" lon="8.82619">
        <ele>1231</ele>
        <time>2021-08-04T08:17:08.831Z</time>
      </trkpt>
      <trkpt lat="46.98889" lon="8.82618">
        <ele>1232</ele>
        <time>2021-08-04T08:17:09.831Z</time>
      </trkpt>
      <trkpt lat="46.98891" lon="8.82617">
        <ele>1233</ele>
        <time>2021-08-04T08:17:10.830Z</time>
      </trkpt>
      <trkpt lat="46.98892" lon="8.82616">
        <ele>1233</ele>
        <time>2021-08-04T08:17:11.831Z</time>
      </trkpt>
      <trkpt lat="46.98893" lon="8.82615">
        <ele>1233</ele>
        <time>2021-08-04T08:17:12.831Z</time>
      </trkpt>
      <trkpt lat="46.98894" lon="8.82614">
        <ele>1233</ele>
        <time>2021-08-04T08:17:13.830Z</time>
      </trkpt>
      <trkpt lat="46.98895" lon="8.82613">
        <ele>1233</ele>
        <time>2021-08-04T08:17:14.831Z</time>
      </trkpt>
      <trkpt lat="46.98895" lon="8.82613">
        <ele>1233</ele>
        <time>2021-08-04T08:17:15.831Z</time>
      </trkpt>
      <trkpt lat="46.98896" lon="8.82612">
        <ele>1233</ele>
        <time>2021-08-04T08:17:16.830Z</time>
      </trkpt>
      <trkpt lat="46.98896" lon="8.82611">
        <ele>1233</ele>
        <time>2021-08-04T08:17:17.831Z</time>
      </trkpt>
      <trkpt lat="46.98897" lon="8.8261">
        <ele>1232</ele>
        <time>2021-08-04T08:17:18.831Z</time>
      </trkpt>
      <trkpt lat="46.98897" lon="8.82609">
        <ele>1232</ele>
        <time>2021-08-04T08:17:19.831Z</time>
      </trkpt>
      <trkpt lat="46.98897" lon="8.82607">
        <ele>1232</ele>
        <time>2021-08-04T08:17:20.831Z</time>
      </trkpt>
      <trkpt lat="46.98897" lon="8.82606">
        <ele>1231</ele>
        <time>2021-08-04T08:17:21.831Z</time>
      </trkpt>
      <trkpt lat="46.98897" lon="8.82605">
        <ele>1231</ele>
        <time>2021-08-04T08:17:22.830Z</time>
      </trkpt>
      <trkpt lat="46.98898" lon="8.82603">
        <ele>1231</ele>
        <time>2021-08-04T08:17:23.831Z</time>
      </trkpt>
      <trkpt lat="46.98899" lon="8.82602">
        <ele>1231</ele>
        <time>2021-08-04T08:17:24.830Z</time>
      </trkpt>
      <trkpt lat="46.98899" lon="8.82602">
        <ele>1230</ele>
        <time>2021-08-04T08:17:25.831Z</time>
      </trkpt>
      <trkpt lat="46.98899" lon="8.82602">
        <ele>1230</ele>
        <time>2021-08-04T08:17:26.831Z</time>
      </trkpt>
      <trkpt lat="46.98901" lon="8.82601">
        <ele>1230</ele>
        <time>2021-08-04T08:17:27.830Z</time>
      </trkpt>
      <trkpt lat="46.98902" lon="8.826">
        <ele>1230</ele>
        <time>2021-08-04T08:17:28.830Z</time>
      </trkpt>
      <trkpt lat="46.98903" lon="8.826">
        <ele>1229</ele>
        <time>2021-08-04T08:17:29.831Z</time>
      </trkpt>
      <trkpt lat="46.98904" lon="8.82599">
        <ele>1229</ele>
        <time>2021-08-04T08:17:30.830Z</time>
      </trkpt>
      <trkpt lat="46.98905" lon="8.82599">
        <ele>1229</ele>
        <time>2021-08-04T08:17:31.830Z</time>
      </trkpt>
      <trkpt lat="46.98906" lon="8.82599">
        <ele>1228</ele>
        <time>2021-08-04T08:17:32.831Z</time>
      </trkpt>
      <trkpt lat="46.98907" lon="8.82599">
        <ele>1228</ele>
        <time>2021-08-04T08:17:33.830Z</time>
      </trkpt>
      <trkpt lat="46.98908" lon="8.82598">
        <ele>1227</ele>
        <time>2021-08-04T08:17:34.830Z</time>
      </trkpt>
      <trkpt lat="46.98909" lon="8.82598">
        <ele>1227</ele>
        <time>2021-08-04T08:17:35.830Z</time>
      </trkpt>
      <trkpt lat="46.9891" lon="8.82598">
        <ele>1226</ele>
        <time>2021-08-04T08:17:36.831Z</time>
      </trkpt>
      <trkpt lat="46.9891" lon="8.82596">
        <ele>1226</ele>
        <time>2021-08-04T08:17:37.831Z</time>
      </trkpt>
      <trkpt lat="46.9891" lon="8.82594">
        <ele>1226</ele>
        <time>2021-08-04T08:17:38.831Z</time>
      </trkpt>
      <trkpt lat="46.9891" lon="8.82593">
        <ele>1225</ele>
        <time>2021-08-04T08:17:39.831Z</time>
      </trkpt>
      <trkpt lat="46.9891" lon="8.82593">
        <ele>1225</ele>
        <time>2021-08-04T08:17:40.831Z</time>
      </trkpt>
      <trkpt lat="46.98909" lon="8.82591">
        <ele>1225</ele>
        <time>2021-08-04T08:17:41.831Z</time>
      </trkpt>
      <trkpt lat="46.98909" lon="8.82589">
        <ele>1224</ele>
        <time>2021-08-04T08:17:42.831Z</time>
      </trkpt>
      <trkpt lat="46.98908" lon="8.82588">
        <ele>1224</ele>
        <time>2021-08-04T08:17:43.831Z</time>
      </trkpt>
      <trkpt lat="46.98907" lon="8.82586">
        <ele>1223</ele>
        <time>2021-08-04T08:17:44.830Z</time>
      </trkpt>
      <trkpt lat="46.98906" lon="8.82585">
        <ele>1223</ele>
        <time>2021-08-04T08:17:45.831Z</time>
      </trkpt>
      <trkpt lat="46.98906" lon="8.82584">
        <ele>1222</ele>
        <time>2021-08-04T08:17:46.831Z</time>
      </trkpt>
      <trkpt lat="46.98906" lon="8.82583">
        <ele>1222</ele>
        <time>2021-08-04T08:17:47.831Z</time>
      </trkpt>
      <trkpt lat="46.98906" lon="8.82582">
        <ele>1221</ele>
        <time>2021-08-04T08:17:48.830Z</time>
      </trkpt>
      <trkpt lat="46.98907" lon="8.82582">
        <ele>1221</ele>
        <time>2021-08-04T08:17:49.831Z</time>
      </trkpt>
      <trkpt lat="46.98908" lon="8.82581">
        <ele>1220</ele>
        <time>2021-08-04T08:17:50.830Z</time>
      </trkpt>
      <trkpt lat="46.98909" lon="8.82582">
        <ele>1220</ele>
        <time>2021-08-04T08:17:51.831Z</time>
      </trkpt>
      <trkpt lat="46.9891" lon="8.82582">
        <ele>1220</ele>
        <time>2021-08-04T08:17:52.830Z</time>
      </trkpt>
      <trkpt lat="46.98911" lon="8.82581">
        <ele>1220</ele>
        <time>2021-08-04T08:17:53.831Z</time>
      </trkpt>
      <trkpt lat="46.98911" lon="8.8258">
        <ele>1220</ele>
        <time>2021-08-04T08:17:54.830Z</time>
      </trkpt>
      <trkpt lat="46.98911" lon="8.82579">
        <ele>1220</ele>
        <time>2021-08-04T08:17:55.830Z</time>
      </trkpt>
      <trkpt lat="46.98911" lon="8.82579">
        <ele>1219</ele>
        <time>2021-08-04T08:17:56.831Z</time>
      </trkpt>
      <trkpt lat="46.98911" lon="8.82578">
        <ele>1219</ele>
        <time>2021-08-04T08:17:57.830Z</time>
      </trkpt>
      <trkpt lat="46.98911" lon="8.82577">
        <ele>1219</ele>
        <time>2021-08-04T08:17:58.831Z</time>
      </trkpt>
      <trkpt lat="46.9891" lon="8.82577">
        <ele>1219</ele>
        <time>2021-08-04T08:17:59.831Z</time>
      </trkpt>
      <trkpt lat="46.9891" lon="8.82578">
        <ele>1219</ele>
        <time>2021-08-04T08:18:00.831Z</time>
      </trkpt>
      <trkpt lat="46.9891" lon="8.8258">
        <ele>1218</ele>
        <time>2021-08-04T08:18:01.831Z</time>
      </trkpt>
      <trkpt lat="46.9891" lon="8.82582">
        <ele>1218</ele>
        <time>2021-08-04T08:18:02.831Z</time>
      </trkpt>
      <trkpt lat="46.9891" lon="8.82583">
        <ele>1218</ele>
        <time>2021-08-04T08:18:03.830Z</time>
      </trkpt>
      <trkpt lat="46.98911" lon="8.82585">
        <ele>1218</ele>
        <time>2021-08-04T08:18:04.831Z</time>
      </trkpt>
      <trkpt lat="46.98911" lon="8.82586">
        <ele>1218</ele>
        <time>2021-08-04T08:18:05.830Z</time>
      </trkpt>
      <trkpt lat="46.98912" lon="8.82588">
        <ele>1218</ele>
        <time>2021-08-04T08:18:06.831Z</time>
      </trkpt>
      <trkpt lat="46.98913" lon="8.82591">
        <ele>1218</ele>
        <time>2021-08-04T08:18:07.831Z</time>
      </trkpt>
      <trkpt lat="46.98913" lon="8.82593">
        <ele>1218</ele>
        <time>2021-08-04T08:18:08.831Z</time>
      </trkpt>
      <trkpt lat="46.98913" lon="8.82595">
        <ele>1218</ele>
        <time>2021-08-04T08:18:09.831Z</time>
      </trkpt>
      <trkpt lat="46.98913" lon="8.82597">
        <ele>1219</ele>
        <time>2021-08-04T08:18:10.830Z</time>
      </trkpt>
      <trkpt lat="46.98914" lon="8.82596">
        <ele>1219</ele>
        <time>2021-08-04T08:18:11.831Z</time>
      </trkpt>
      <trkpt lat="46.98914" lon="8.82597">
        <ele>1219</ele>
        <time>2021-08-04T08:18:12.830Z</time>
      </trkpt>
      <trkpt lat="46.98914" lon="8.82597">
        <ele>1219</ele>
        <time>2021-08-04T08:18:13.831Z</time>
      </trkpt>
      <trkpt lat="46.98915" lon="8.82597">
        <ele>1219</ele>
        <time>2021-08-04T08:18:14.830Z</time>
      </trkpt>
      <trkpt lat="46.98915" lon="8.82596">
        <ele>1220</ele>
        <time>2021-08-04T08:18:15.831Z</time>
      </trkpt>
      <trkpt lat="46.98915" lon="8.82596">
        <ele>1221</ele>
        <time>2021-08-04T08:18:16.831Z</time>
      </trkpt>
      <trkpt lat="46.98916" lon="8.82595">
        <ele>1221</ele>
        <time>2021-08-04T08:18:17.831Z</time>
      </trkpt>
      <trkpt lat="46.98916" lon="8.82594">
        <ele>1222</ele>
        <time>2021-08-04T08:18:18.830Z</time>
      </trkpt>
      <trkpt lat="46.98917" lon="8.82593">
        <ele>1222</ele>
        <time>2021-08-04T08:18:19.831Z</time>
      </trkpt>
      <trkpt lat="46.98918" lon="8.82592">
        <ele>1223</ele>
        <time>2021-08-04T08:18:20.830Z</time>
      </trkpt>
      <trkpt lat="46.98919" lon="8.82591">
        <ele>1223</ele>
        <time>2021-08-04T08:18:21.830Z</time>
      </trkpt>
      <trkpt lat="46.98919" lon="8.8259">
        <ele>1223</ele>
        <time>2021-08-04T08:18:22.831Z</time>
      </trkpt>
      <trkpt lat="46.98921" lon="8.82591">
        <ele>1224</ele>
        <time>2021-08-04T08:18:23.831Z</time>
      </trkpt>
      <trkpt lat="46.98922" lon="8.8259">
        <ele>1224</ele>
        <time>2021-08-04T08:18:24.830Z</time>
      </trkpt>
      <trkpt lat="46.98923" lon="8.82589">
        <ele>1224</ele>
        <time>2021-08-04T08:18:25.831Z</time>
      </trkpt>
      <trkpt lat="46.98923" lon="8.82588">
        <ele>1225</ele>
        <time>2021-08-04T08:18:26.830Z</time>
      </trkpt>
      <trkpt lat="46.98924" lon="8.82588">
        <ele>1225</ele>
        <time>2021-08-04T08:18:27.831Z</time>
      </trkpt>
      <trkpt lat="46.98924" lon="8.82588">
        <ele>1226</ele>
        <time>2021-08-04T08:18:28.831Z</time>
      </trkpt>
      <trkpt lat="46.98923" lon="8.82587">
        <ele>1226</ele>
        <time>2021-08-04T08:18:29.830Z</time>
      </trkpt>
      <trkpt lat="46.98922" lon="8.82587">
        <ele>1227</ele>
        <time>2021-08-04T08:18:30.831Z</time>
      </trkpt>
      <trkpt lat="46.98921" lon="8.82586">
        <ele>1227</ele>
        <time>2021-08-04T08:18:31.830Z</time>
      </trkpt>
      <trkpt lat="46.98921" lon="8.82586">
        <ele>1227</ele>
        <time>2021-08-04T08:18:32.830Z</time>
      </trkpt>
      <trkpt lat="46.98921" lon="8.82585">
        <ele>1227</ele>
        <time>2021-08-04T08:18:33.830Z</time>
      </trkpt>
      <trkpt lat="46.98921" lon="8.82584">
        <ele>1227</ele>
        <time>2021-08-04T08:18:34.831Z</time>
      </trkpt>
      <trkpt lat="46.98922" lon="8.82583">
        <ele>1228</ele>
        <time>2021-08-04T08:18:35.831Z</time>
      </trkpt>
      <trkpt lat="46.98922" lon="8.82581">
        <ele>1228</ele>
        <time>2021-08-04T08:18:36.830Z</time>
      </trkpt>
      <trkpt lat="46.98923" lon="8.8258">
        <ele>1228</ele>
        <time>2021-08-04T08:18:37.830Z</time>
      </trkpt>
      <trkpt lat="46.98923" lon="8.82579">
        <ele>1228</ele>
        <time>2021-08-04T08:18:38.830Z</time>
      </trkpt>
      <trkpt lat="46.98923" lon="8.82579">
        <ele>1229</ele>
        <time>2021-08-04T08:18:39.830Z</time>
      </trkpt>
      <trkpt lat="46.98924" lon="8.82579">
        <ele>1229</ele>
        <time>2021-08-04T08:18:40.831Z</time>
      </trkpt>
      <trkpt lat="46.98925" lon="8.82579">
        <ele>1229</ele>
        <time>2021-08-04T08:18:41.831Z</time>
      </trkpt>
      <trkpt lat="46.98926" lon="8.82581">
        <ele>1229</ele>
        <time>2021-08-04T08:18:42.831Z</time>
      </trkpt>
      <trkpt lat="46.98926" lon="8.82582">
        <ele>1229</ele>
        <time>2021-08-04T08:18:43.830Z</time>
      </trkpt>
      <trkpt lat="46.98927" lon="8.82582">
        <ele>1230</ele>
        <time>2021-08-04T08:18:44.830Z</time>
      </trkpt>
      <trkpt lat="46.98927" lon="8.82581">
        <ele>1230</ele>
        <time>2021-08-04T08:18:45.830Z</time>
      </trkpt>
      <trkpt lat="46.98928" lon="8.82579">
        <ele>1230</ele>
        <time>2021-08-04T08:18:46.831Z</time>
      </trkpt>
      <trkpt lat="46.98928" lon="8.82578">
        <ele>1230</ele>
        <time>2021-08-04T08:18:47.831Z</time>
      </trkpt>
      <trkpt lat="46.98928" lon="8.82581">
        <ele>1230</ele>
        <time>2021-08-04T08:18:48.830Z</time>
      </trkpt>
      <trkpt lat="46.98927" lon="8.82583">
        <ele>1230</ele>
        <time>2021-08-04T08:18:49.830Z</time>
      </trkpt>
      <trkpt lat="46.98926" lon="8.82584">
        <ele>1230</ele>
        <time>2021-08-04T08:18:50.831Z</time>
      </trkpt>
      <trkpt lat="46.98926" lon="8.82586">
        <ele>1230</ele>
        <time>2021-08-04T08:18:51.831Z</time>
      </trkpt>
      <trkpt lat="46.98925" lon="8.82586">
        <ele>1230</ele>
        <time>2021-08-04T08:18:52.831Z</time>
      </trkpt>
      <trkpt lat="46.98924" lon="8.82586">
        <ele>1230</ele>
        <time>2021-08-04T08:18:53.830Z</time>
      </trkpt>
      <trkpt lat="46.98924" lon="8.82586">
        <ele>1230</ele>
        <time>2021-08-04T08:18:54.830Z</time>
      </trkpt>
      <trkpt lat="46.98923" lon="8.82585">
        <ele>1229</ele>
        <time>2021-08-04T08:18:55.832Z</time>
      </trkpt>
      <trkpt lat="46.98923" lon="8.82585">
        <ele>1229</ele>
        <time>2021-08-04T08:18:56.832Z</time>
      </trkpt>
      <trkpt lat="46.98923" lon="8.82582">
        <ele>1228</ele>
        <time>2021-08-04T08:18:57.831Z</time>
      </trkpt>
      <trkpt lat="46.98923" lon="8.82581">
        <ele>1228</ele>
        <time>2021-08-04T08:18:58.832Z</time>
      </trkpt>
      <trkpt lat="46.98923" lon="8.82581">
        <ele>1228</ele>
        <time>2021-08-04T08:18:59.832Z</time>
      </trkpt>
      <trkpt lat="46.98924" lon="8.82582">
        <ele>1227</ele>
        <time>2021-08-04T08:19:00.831Z</time>
      </trkpt>
      <trkpt lat="46.98924" lon="8.82583">
        <ele>1227</ele>
        <time>2021-08-04T08:19:01.832Z</time>
      </trkpt>
      <trkpt lat="46.98924" lon="8.82585">
        <ele>1227</ele>
        <time>2021-08-04T08:19:02.831Z</time>
      </trkpt>
      <trkpt lat="46.98924" lon="8.82585">
        <ele>1227</ele>
        <time>2021-08-04T08:19:03.832Z</time>
      </trkpt>
      <trkpt lat="46.98924" lon="8.82587">
        <ele>1227</ele>
        <time>2021-08-04T08:19:04.832Z</time>
      </trkpt>
      <trkpt lat="46.98923" lon="8.82589">
        <ele>1227</ele>
        <time>2021-08-04T08:19:05.832Z</time>
      </trkpt>
      <trkpt lat="46.98923" lon="8.82589">
        <ele>1227</ele>
        <time>2021-08-04T08:19:06.832Z</time>
      </trkpt>
      <trkpt lat="46.98924" lon="8.82587">
        <ele>1228</ele>
        <time>2021-08-04T08:19:07.832Z</time>
      </trkpt>
      <trkpt lat="46.98925" lon="8.82584">
        <ele>1228</ele>
        <time>2021-08-04T08:19:08.831Z</time>
      </trkpt>
      <trkpt lat="46.98926" lon="8.82583">
        <ele>1228</ele>
        <time>2021-08-04T08:19:09.832Z</time>
      </trkpt>
      <trkpt lat="46.98927" lon="8.82582">
        <ele>1228</ele>
        <time>2021-08-04T08:19:10.832Z</time>
      </trkpt>
      <trkpt lat="46.98928" lon="8.82581">
        <ele>1229</ele>
        <time>2021-08-04T08:19:11.832Z</time>
      </trkpt>
      <trkpt lat="46.98929" lon="8.8258">
        <ele>1229</ele>
        <time>2021-08-04T08:19:12.832Z</time>
      </trkpt>
      <trkpt lat="46.9893" lon="8.82579">
        <ele>1230</ele>
        <time>2021-08-04T08:19:13.831Z</time>
      </trkpt>
      <trkpt lat="46.98931" lon="8.82577">
        <ele>1230</ele>
        <time>2021-08-04T08:19:14.832Z</time>
      </trkpt>
      <trkpt lat="46.98932" lon="8.82575">
        <ele>1230</ele>
        <time>2021-08-04T08:19:15.832Z</time>
      </trkpt>
      <trkpt lat="46.98933" lon="8.82573">
        <ele>1230</ele>
        <time>2021-08-04T08:19:16.831Z</time>
      </trkpt>
      <trkpt lat="46.98934" lon="8.82571">
        <ele>1231</ele>
        <time>2021-08-04T08:19:17.832Z</time>
      </trkpt>
      <trkpt lat="46.98935" lon="8.82571">
        <ele>1231</ele>
        <time>2021-08-04T08:19:18.832Z</time>
      </trkpt>
      <trkpt lat="46.98935" lon="8.8257">
        <ele>1231</ele>
        <time>2021-08-04T08:19:19.831Z</time>
      </trkpt>
      <trkpt lat="46.98936" lon="8.82568">
        <ele>1230</ele>
        <time>2021-08-04T08:19:20.832Z</time>
      </trkpt>
      <trkpt lat="46.98937" lon="8.82567">
        <ele>1230</ele>
        <time>2021-08-04T08:19:21.832Z</time>
      </trkpt>
      <trkpt lat="46.98937" lon="8.82565">
        <ele>1230</ele>
        <time>2021-08-04T08:19:22.832Z</time>
      </trkpt>
      <trkpt lat="46.98937" lon="8.82563">
        <ele>1230</ele>
        <time>2021-08-04T08:19:23.832Z</time>
      </trkpt>
      <trkpt lat="46.98937" lon="8.82561">
        <ele>1229</ele>
        <time>2021-08-04T08:19:24.831Z</time>
      </trkpt>
      <trkpt lat="46.98938" lon="8.8256">
        <ele>1229</ele>
        <time>2021-08-04T08:19:25.831Z</time>
      </trkpt>
      <trkpt lat="46.98938" lon="8.82558">
        <ele>1229</ele>
        <time>2021-08-04T08:19:26.831Z</time>
      </trkpt>
      <trkpt lat="46.98938" lon="8.82556">
        <ele>1228</ele>
        <time>2021-08-04T08:19:27.832Z</time>
      </trkpt>
      <trkpt lat="46.98939" lon="8.82555">
        <ele>1228</ele>
        <time>2021-08-04T08:19:28.831Z</time>
      </trkpt>
      <trkpt lat="46.98939" lon="8.82553">
        <ele>1227</ele>
        <time>2021-08-04T08:19:29.831Z</time>
      </trkpt>
      <trkpt lat="46.98939" lon="8.82551">
        <ele>1227</ele>
        <time>2021-08-04T08:19:30.832Z</time>
      </trkpt>
      <trkpt lat="46.98939" lon="8.8255">
        <ele>1227</ele>
        <time>2021-08-04T08:19:31.832Z</time>
      </trkpt>
      <trkpt lat="46.98939" lon="8.82548">
        <ele>1227</ele>
        <time>2021-08-04T08:19:32.832Z</time>
      </trkpt>
      <trkpt lat="46.98939" lon="8.82546">
        <ele>1227</ele>
        <time>2021-08-04T08:19:33.832Z</time>
      </trkpt>
      <trkpt lat="46.98939" lon="8.82545">
        <ele>1226</ele>
        <time>2021-08-04T08:19:34.832Z</time>
      </trkpt>
      <trkpt lat="46.98939" lon="8.82543">
        <ele>1227</ele>
        <time>2021-08-04T08:19:35.832Z</time>
      </trkpt>
      <trkpt lat="46.9894" lon="8.8254">
        <ele>1227</ele>
        <time>2021-08-04T08:19:36.832Z</time>
      </trkpt>
      <trkpt lat="46.9894" lon="8.82539">
        <ele>1227</ele>
        <time>2021-08-04T08:19:37.832Z</time>
      </trkpt>
      <trkpt lat="46.98941" lon="8.82537">
        <ele>1227</ele>
        <time>2021-08-04T08:19:38.831Z</time>
      </trkpt>
      <trkpt lat="46.98942" lon="8.82535">
        <ele>1227</ele>
        <time>2021-08-04T08:19:39.832Z</time>
      </trkpt>
      <trkpt lat="46.98943" lon="8.82534">
        <ele>1227</ele>
        <time>2021-08-04T08:19:40.832Z</time>
      </trkpt>
      <trkpt lat="46.98944" lon="8.82533">
        <ele>1226</ele>
        <time>2021-08-04T08:19:41.832Z</time>
      </trkpt>
      <trkpt lat="46.98945" lon="8.82533">
        <ele>1226</ele>
        <time>2021-08-04T08:19:42.832Z</time>
      </trkpt>
      <trkpt lat="46.98947" lon="8.82532">
        <ele>1226</ele>
        <time>2021-08-04T08:19:43.832Z</time>
      </trkpt>
      <trkpt lat="46.98948" lon="8.82531">
        <ele>1225</ele>
        <time>2021-08-04T08:19:44.832Z</time>
      </trkpt>
      <trkpt lat="46.98949" lon="8.8253">
        <ele>1225</ele>
        <time>2021-08-04T08:19:45.831Z</time>
      </trkpt>
      <trkpt lat="46.9895" lon="8.82529">
        <ele>1225</ele>
        <time>2021-08-04T08:19:46.831Z</time>
      </trkpt>
      <trkpt lat="46.98951" lon="8.82527">
        <ele>1224</ele>
        <time>2021-08-04T08:19:47.832Z</time>
      </trkpt>
      <trkpt lat="46.98951" lon="8.82525">
        <ele>1224</ele>
        <time>2021-08-04T08:19:48.832Z</time>
      </trkpt>
      <trkpt lat="46.98951" lon="8.82523">
        <ele>1223</ele>
        <time>2021-08-04T08:19:49.831Z</time>
      </trkpt>
      <trkpt lat="46.98951" lon="8.82521">
        <ele>1223</ele>
        <time>2021-08-04T08:19:50.831Z</time>
      </trkpt>
      <trkpt lat="46.98951" lon="8.82519">
        <ele>1223</ele>
        <time>2021-08-04T08:19:51.832Z</time>
      </trkpt>
      <trkpt lat="46.98951" lon="8.82517">
        <ele>1222</ele>
        <time>2021-08-04T08:19:52.831Z</time>
      </trkpt>
      <trkpt lat="46.98951" lon="8.82516">
        <ele>1222</ele>
        <time>2021-08-04T08:19:53.832Z</time>
      </trkpt>
      <trkpt lat="46.98951" lon="8.82514">
        <ele>1222</ele>
        <time>2021-08-04T08:19:54.832Z</time>
      </trkpt>
      <trkpt lat="46.98952" lon="8.82512">
        <ele>1222</ele>
        <time>2021-08-04T08:19:55.831Z</time>
      </trkpt>
      <trkpt lat="46.98951" lon="8.8251">
        <ele>1222</ele>
        <time>2021-08-04T08:19:56.832Z</time>
      </trkpt>
      <trkpt lat="46.98952" lon="8.82509">
        <ele>1222</ele>
        <time>2021-08-04T08:19:57.831Z</time>
      </trkpt>
      <trkpt lat="46.98951" lon="8.82507">
        <ele>1222</ele>
        <time>2021-08-04T08:19:58.832Z</time>
      </trkpt>
      <trkpt lat="46.98951" lon="8.82506">
        <ele>1222</ele>
        <time>2021-08-04T08:19:59.832Z</time>
      </trkpt>
      <trkpt lat="46.9895" lon="8.82504">
        <ele>1222</ele>
        <time>2021-08-04T08:20:00.832Z</time>
      </trkpt>
      <trkpt lat="46.9895" lon="8.82503">
        <ele>1222</ele>
        <time>2021-08-04T08:20:01.832Z</time>
      </trkpt>
      <trkpt lat="46.9895" lon="8.82502">
        <ele>1222</ele>
        <time>2021-08-04T08:20:02.832Z</time>
      </trkpt>
      <trkpt lat="46.98949" lon="8.825">
        <ele>1222</ele>
        <time>2021-08-04T08:20:03.831Z</time>
      </trkpt>
      <trkpt lat="46.98949" lon="8.82499">
        <ele>1222</ele>
        <time>2021-08-04T08:20:04.832Z</time>
      </trkpt>
      <trkpt lat="46.9895" lon="8.82497">
        <ele>1221</ele>
        <time>2021-08-04T08:20:05.831Z</time>
      </trkpt>
      <trkpt lat="46.9895" lon="8.82496">
        <ele>1221</ele>
        <time>2021-08-04T08:20:06.832Z</time>
      </trkpt>
      <trkpt lat="46.9895" lon="8.82495">
        <ele>1221</ele>
        <time>2021-08-04T08:20:07.832Z</time>
      </trkpt>
      <trkpt lat="46.98951" lon="8.82494">
        <ele>1220</ele>
        <time>2021-08-04T08:20:08.831Z</time>
      </trkpt>
      <trkpt lat="46.98951" lon="8.82492">
        <ele>1220</ele>
        <time>2021-08-04T08:20:09.832Z</time>
      </trkpt>
      <trkpt lat="46.98952" lon="8.82491">
        <ele>1219</ele>
        <time>2021-08-04T08:20:10.832Z</time>
      </trkpt>
      <trkpt lat="46.98952" lon="8.8249">
        <ele>1219</ele>
        <time>2021-08-04T08:20:11.831Z</time>
      </trkpt>
      <trkpt lat="46.98952" lon="8.82488">
        <ele>1219</ele>
        <time>2021-08-04T08:20:12.832Z</time>
      </trkpt>
      <trkpt lat="46.98953" lon="8.82487">
        <ele>1219</ele>
        <time>2021-08-04T08:20:13.831Z</time>
      </trkpt>
      <trkpt lat="46.98953" lon="8.82485">
        <ele>1219</ele>
        <time>2021-08-04T08:20:14.831Z</time>
      </trkpt>
      <trkpt lat="46.98954" lon="8.82483">
        <ele>1219</ele>
        <time>2021-08-04T08:20:15.831Z</time>
      </trkpt>
      <trkpt lat="46.98954" lon="8.82481">
        <ele>1219</ele>
        <time>2021-08-04T08:20:16.832Z</time>
      </trkpt>
      <trkpt lat="46.98954" lon="8.82479">
        <ele>1219</ele>
        <time>2021-08-04T08:20:17.831Z</time>
      </trkpt>
      <trkpt lat="46.98954" lon="8.82478">
        <ele>1219</ele>
        <time>2021-08-04T08:20:18.832Z</time>
      </trkpt>
      <trkpt lat="46.98955" lon="8.82476">
        <ele>1219</ele>
        <time>2021-08-04T08:20:19.832Z</time>
      </trkpt>
      <trkpt lat="46.98955" lon="8.82475">
        <ele>1219</ele>
        <time>2021-08-04T08:20:20.831Z</time>
      </trkpt>
      <trkpt lat="46.98956" lon="8.82474">
        <ele>1219</ele>
        <time>2021-08-04T08:20:21.831Z</time>
      </trkpt>
      <trkpt lat="46.98956" lon="8.82473">
        <ele>1219</ele>
        <time>2021-08-04T08:20:22.831Z</time>
      </trkpt>
      <trkpt lat="46.98957" lon="8.82472">
        <ele>1219</ele>
        <time>2021-08-04T08:20:23.831Z</time>
      </trkpt>
      <trkpt lat="46.98958" lon="8.82472">
        <ele>1218</ele>
        <time>2021-08-04T08:20:24.831Z</time>
      </trkpt>
      <trkpt lat="46.98959" lon="8.82471">
        <ele>1218</ele>
        <time>2021-08-04T08:20:25.831Z</time>
      </trkpt>
      <trkpt lat="46.9896" lon="8.8247">
        <ele>1218</ele>
        <time>2021-08-04T08:20:26.831Z</time>
      </trkpt>
      <trkpt lat="46.98961" lon="8.82469">
        <ele>1218</ele>
        <time>2021-08-04T08:20:27.832Z</time>
      </trkpt>
      <trkpt lat="46.98961" lon="8.82468">
        <ele>1218</ele>
        <time>2021-08-04T08:20:28.831Z</time>
      </trkpt>
      <trkpt lat="46.98962" lon="8.82466">
        <ele>1218</ele>
        <time>2021-08-04T08:20:29.831Z</time>
      </trkpt>
      <trkpt lat="46.98963" lon="8.82465">
        <ele>1218</ele>
        <time>2021-08-04T08:20:30.832Z</time>
      </trkpt>
      <trkpt lat="46.98964" lon="8.82464">
        <ele>1218</ele>
        <time>2021-08-04T08:20:31.832Z</time>
      </trkpt>
      <trkpt lat="46.98965" lon="8.82462">
        <ele>1218</ele>
        <time>2021-08-04T08:20:32.832Z</time>
      </trkpt>
      <trkpt lat="46.98966" lon="8.82461">
        <ele>1217</ele>
        <time>2021-08-04T08:20:33.832Z</time>
      </trkpt>
      <trkpt lat="46.98967" lon="8.82459">
        <ele>1217</ele>
        <time>2021-08-04T08:20:34.831Z</time>
      </trkpt>
      <trkpt lat="46.98968" lon="8.82458">
        <ele>1217</ele>
        <time>2021-08-04T08:20:35.832Z</time>
      </trkpt>
      <trkpt lat="46.98969" lon="8.82457">
        <ele>1217</ele>
        <time>2021-08-04T08:20:36.831Z</time>
      </trkpt>
      <trkpt lat="46.9897" lon="8.82455">
        <ele>1217</ele>
        <time>2021-08-04T08:20:37.832Z</time>
      </trkpt>
      <trkpt lat="46.98971" lon="8.82454">
        <ele>1217</ele>
        <time>2021-08-04T08:20:38.832Z</time>
      </trkpt>
      <trkpt lat="46.98971" lon="8.82453">
        <ele>1217</ele>
        <time>2021-08-04T08:20:39.831Z</time>
      </trkpt>
      <trkpt lat="46.98972" lon="8.82452">
        <ele>1218</ele>
        <time>2021-08-04T08:20:40.832Z</time>
      </trkpt>
      <trkpt lat="46.98973" lon="8.82451">
        <ele>1218</ele>
        <time>2021-08-04T08:20:41.831Z</time>
      </trkpt>
      <trkpt lat="46.98973" lon="8.8245">
        <ele>1219</ele>
        <time>2021-08-04T08:20:42.832Z</time>
      </trkpt>
      <trkpt lat="46.98974" lon="8.82448">
        <ele>1219</ele>
        <time>2021-08-04T08:20:43.832Z</time>
      </trkpt>
      <trkpt lat="46.98974" lon="8.82447">
        <ele>1220</ele>
        <time>2021-08-04T08:20:44.832Z</time>
      </trkpt>
      <trkpt lat="46.98974" lon="8.82446">
        <ele>1221</ele>
        <time>2021-08-04T08:20:45.832Z</time>
      </trkpt>
      <trkpt lat="46.98975" lon="8.82445">
        <ele>1221</ele>
        <time>2021-08-04T08:20:46.832Z</time>
      </trkpt>
      <trkpt lat="46.98976" lon="8.82444">
        <ele>1222</ele>
        <time>2021-08-04T08:20:47.832Z</time>
      </trkpt>
      <trkpt lat="46.98977" lon="8.82443">
        <ele>1222</ele>
        <time>2021-08-04T08:20:48.831Z</time>
      </trkpt>
      <trkpt lat="46.98978" lon="8.82442">
        <ele>1222</ele>
        <time>2021-08-04T08:20:49.832Z</time>
      </trkpt>
      <trkpt lat="46.98979" lon="8.82441">
        <ele>1222</ele>
        <time>2021-08-04T08:20:50.832Z</time>
      </trkpt>
      <trkpt lat="46.98979" lon="8.8244">
        <ele>1222</ele>
        <time>2021-08-04T08:20:51.832Z</time>
      </trkpt>
      <trkpt lat="46.9898" lon="8.82439">
        <ele>1222</ele>
        <time>2021-08-04T08:20:52.832Z</time>
      </trkpt>
      <trkpt lat="46.98981" lon="8.82438">
        <ele>1222</ele>
        <time>2021-08-04T08:20:53.832Z</time>
      </trkpt>
      <trkpt lat="46.98982" lon="8.82437">
        <ele>1222</ele>
        <time>2021-08-04T08:20:54.832Z</time>
      </trkpt>
      <trkpt lat="46.98982" lon="8.82437">
        <ele>1223</ele>
        <time>2021-08-04T08:20:55.831Z</time>
      </trkpt>
      <trkpt lat="46.98983" lon="8.82436">
        <ele>1223</ele>
        <time>2021-08-04T08:20:56.832Z</time>
      </trkpt>
      <trkpt lat="46.98983" lon="8.82435">
        <ele>1223</ele>
        <time>2021-08-04T08:20:57.832Z</time>
      </trkpt>
      <trkpt lat="46.98984" lon="8.82435">
        <ele>1223</ele>
        <time>2021-08-04T08:20:58.832Z</time>
      </trkpt>
      <trkpt lat="46.98985" lon="8.82435">
        <ele>1223</ele>
        <time>2021-08-04T08:20:59.831Z</time>
      </trkpt>
      <trkpt lat="46.98986" lon="8.82434">
        <ele>1223</ele>
        <time>2021-08-04T08:21:00.831Z</time>
      </trkpt>
      <trkpt lat="46.98986" lon="8.82433">
        <ele>1223</ele>
        <time>2021-08-04T08:21:01.831Z</time>
      </trkpt>
      <trkpt lat="46.98987" lon="8.82432">
        <ele>1223</ele>
        <time>2021-08-04T08:21:02.831Z</time>
      </trkpt>
      <trkpt lat="46.98987" lon="8.82431">
        <ele>1222</ele>
        <time>2021-08-04T08:21:03.831Z</time>
      </trkpt>
      <trkpt lat="46.98988" lon="8.8243">
        <ele>1222</ele>
        <time>2021-08-04T08:21:04.831Z</time>
      </trkpt>
      <trkpt lat="46.98988" lon="8.82429">
        <ele>1222</ele>
        <time>2021-08-04T08:21:05.832Z</time>
      </trkpt>
      <trkpt lat="46.98988" lon="8.82428">
        <ele>1222</ele>
        <time>2021-08-04T08:21:06.832Z</time>
      </trkpt>
      <trkpt lat="46.98988" lon="8.82427">
        <ele>1222</ele>
        <time>2021-08-04T08:21:07.832Z</time>
      </trkpt>
      <trkpt lat="46.98988" lon="8.82426">
        <ele>1222</ele>
        <time>2021-08-04T08:21:08.832Z</time>
      </trkpt>
      <trkpt lat="46.98988" lon="8.82425">
        <ele>1223</ele>
        <time>2021-08-04T08:21:09.832Z</time>
      </trkpt>
      <trkpt lat="46.98988" lon="8.82424">
        <ele>1222</ele>
        <time>2021-08-04T08:21:10.832Z</time>
      </trkpt>
      <trkpt lat="46.98988" lon="8.82423">
        <ele>1222</ele>
        <time>2021-08-04T08:21:11.831Z</time>
      </trkpt>
      <trkpt lat="46.98989" lon="8.82423">
        <ele>1222</ele>
        <time>2021-08-04T08:21:12.832Z</time>
      </trkpt>
      <trkpt lat="46.9899" lon="8.82422">
        <ele>1221</ele>
        <time>2021-08-04T08:21:13.831Z</time>
      </trkpt>
      <trkpt lat="46.9899" lon="8.82422">
        <ele>1221</ele>
        <time>2021-08-04T08:21:14.831Z</time>
      </trkpt>
      <trkpt lat="46.98991" lon="8.82422">
        <ele>1220</ele>
        <time>2021-08-04T08:21:15.832Z</time>
      </trkpt>
      <trkpt lat="46.98992" lon="8.82422">
        <ele>1219</ele>
        <time>2021-08-04T08:21:16.831Z</time>
      </trkpt>
      <trkpt lat="46.98993" lon="8.82423">
        <ele>1219</ele>
        <time>2021-08-04T08:21:17.832Z</time>
      </trkpt>
      <trkpt lat="46.98994" lon="8.82423">
        <ele>1218</ele>
        <time>2021-08-04T08:21:18.831Z</time>
      </trkpt>
      <trkpt lat="46.98995" lon="8.82423">
        <ele>1217</ele>
        <time>2021-08-04T08:21:19.832Z</time>
      </trkpt>
      <trkpt lat="46.98997" lon="8.82423">
        <ele>1217</ele>
        <time>2021-08-04T08:21:20.832Z</time>
      </trkpt>
      <trkpt lat="46.98998" lon="8.82423">
        <ele>1217</ele>
        <time>2021-08-04T08:21:21.831Z</time>
      </trkpt>
      <trkpt lat="46.98999" lon="8.82423">
        <ele>1217</ele>
        <time>2021-08-04T08:21:22.832Z</time>
      </trkpt>
      <trkpt lat="46.99" lon="8.82423">
        <ele>1217</ele>
        <time>2021-08-04T08:21:23.832Z</time>
      </trkpt>
      <trkpt lat="46.99001" lon="8.82424">
        <ele>1217</ele>
        <time>2021-08-04T08:21:24.831Z</time>
      </trkpt>
      <trkpt lat="46.99002" lon="8.82424">
        <ele>1217</ele>
        <time>2021-08-04T08:21:25.832Z</time>
      </trkpt>
      <trkpt lat="46.99003" lon="8.82424">
        <ele>1217</ele>
        <time>2021-08-04T08:21:26.832Z</time>
      </trkpt>
      <trkpt lat="46.99004" lon="8.82424">
        <ele>1217</ele>
        <time>2021-08-04T08:21:27.831Z</time>
      </trkpt>
      <trkpt lat="46.99005" lon="8.82425">
        <ele>1217</ele>
        <time>2021-08-04T08:21:28.832Z</time>
      </trkpt>
      <trkpt lat="46.99006" lon="8.82425">
        <ele>1217</ele>
        <time>2021-08-04T08:21:29.831Z</time>
      </trkpt>
      <trkpt lat="46.99007" lon="8.82424">
        <ele>1217</ele>
        <time>2021-08-04T08:21:30.831Z</time>
      </trkpt>
      <trkpt lat="46.99008" lon="8.82425">
        <ele>1217</ele>
        <time>2021-08-04T08:21:31.832Z</time>
      </trkpt>
      <trkpt lat="46.99009" lon="8.82425">
        <ele>1216</ele>
        <time>2021-08-04T08:21:32.831Z</time>
      </trkpt>
      <trkpt lat="46.99009" lon="8.82425">
        <ele>1215</ele>
        <time>2021-08-04T08:21:33.831Z</time>
      </trkpt>
      <trkpt lat="46.9901" lon="8.82426">
        <ele>1214</ele>
        <time>2021-08-04T08:21:34.832Z</time>
      </trkpt>
      <trkpt lat="46.9901" lon="8.82426">
        <ele>1214</ele>
        <time>2021-08-04T08:21:35.831Z</time>
      </trkpt>
      <trkpt lat="46.9901" lon="8.82426">
        <ele>1214</ele>
        <time>2021-08-04T08:21:36.832Z</time>
      </trkpt>
      <trkpt lat="46.9901" lon="8.82426">
        <ele>1216</ele>
        <time>2021-08-04T08:21:37.833Z</time>
      </trkpt>
      <trkpt lat="46.99011" lon="8.82426">
        <ele>1217</ele>
        <time>2021-08-04T08:21:38.832Z</time>
      </trkpt>
      <trkpt lat="46.99011" lon="8.82425">
        <ele>1217</ele>
        <time>2021-08-04T08:21:39.832Z</time>
      </trkpt>
      <trkpt lat="46.99011" lon="8.82425">
        <ele>1218</ele>
        <time>2021-08-04T08:21:40.832Z</time>
      </trkpt>
      <trkpt lat="46.99009" lon="8.82422">
        <ele>1223</ele>
        <time>2021-08-04T08:21:41.834Z</time>
      </trkpt>
      <trkpt lat="46.9901" lon="8.82424">
        <ele>1223</ele>
        <time>2021-08-04T08:21:42.833Z</time>
      </trkpt>
      <trkpt lat="46.9901" lon="8.82425">
        <ele>1223</ele>
        <time>2021-08-04T08:21:43.834Z</time>
      </trkpt>
      <trkpt lat="46.9901" lon="8.82425">
        <ele>1223</ele>
        <time>2021-08-04T08:21:44.834Z</time>
      </trkpt>
      <trkpt lat="46.9901" lon="8.82423">
        <ele>1224</ele>
        <time>2021-08-04T08:21:45.834Z</time>
      </trkpt>
      <trkpt lat="46.99009" lon="8.82423">
        <ele>1225</ele>
        <time>2021-08-04T08:21:46.834Z</time>
      </trkpt>
      <trkpt lat="46.99009" lon="8.82422">
        <ele>1226</ele>
        <time>2021-08-04T08:21:47.833Z</time>
      </trkpt>
      <trkpt lat="46.99009" lon="8.82423">
        <ele>1227</ele>
        <time>2021-08-04T08:21:48.834Z</time>
      </trkpt>
      <trkpt lat="46.99008" lon="8.82421">
        <ele>1230</ele>
        <time>2021-08-04T08:21:49.835Z</time>
      </trkpt>
      <trkpt lat="46.99007" lon="8.82419">
        <ele>1231</ele>
        <time>2021-08-04T08:21:50.835Z</time>
      </trkpt>
      <trkpt lat="46.99007" lon="8.82418">
        <ele>1231</ele>
        <time>2021-08-04T08:21:51.834Z</time>
      </trkpt>
      <trkpt lat="46.99006" lon="8.82418">
        <ele>1231</ele>
        <time>2021-08-04T08:21:52.835Z</time>
      </trkpt>
      <trkpt lat="46.99006" lon="8.82418">
        <ele>1232</ele>
        <time>2021-08-04T08:21:53.835Z</time>
      </trkpt>
      <trkpt lat="46.99006" lon="8.82418">
        <ele>1232</ele>
        <time>2021-08-04T08:21:54.835Z</time>
      </trkpt>
      <trkpt lat="46.99006" lon="8.82418">
        <ele>1232</ele>
        <time>2021-08-04T08:21:55.834Z</time>
      </trkpt>
      <trkpt lat="46.99007" lon="8.82418">
        <ele>1231</ele>
        <time>2021-08-04T08:21:56.834Z</time>
      </trkpt>
      <trkpt lat="46.99007" lon="8.8242">
        <ele>1231</ele>
        <time>2021-08-04T08:21:57.835Z</time>
      </trkpt>
      <trkpt lat="46.99007" lon="8.82421">
        <ele>1230</ele>
        <time>2021-08-04T08:21:58.834Z</time>
      </trkpt>
      <trkpt lat="46.99007" lon="8.82422">
        <ele>1229</ele>
        <time>2021-08-04T08:21:59.834Z</time>
      </trkpt>
      <trkpt lat="46.99007" lon="8.82423">
        <ele>1226</ele>
        <time>2021-08-04T08:22:00.834Z</time>
      </trkpt>
      <trkpt lat="46.99008" lon="8.82422">
        <ele>1226</ele>
        <time>2021-08-04T08:22:01.835Z</time>
      </trkpt>
      <trkpt lat="46.99009" lon="8.82421">
        <ele>1226</ele>
        <time>2021-08-04T08:22:02.834Z</time>
      </trkpt>
      <trkpt lat="46.99009" lon="8.82421">
        <ele>1226</ele>
        <time>2021-08-04T08:22:03.834Z</time>
      </trkpt>
      <trkpt lat="46.9901" lon="8.8242">
        <ele>1226</ele>
        <time>2021-08-04T08:22:04.835Z</time>
      </trkpt>
      <trkpt lat="46.9901" lon="8.82419">
        <ele>1226</ele>
        <time>2021-08-04T08:22:05.834Z</time>
      </trkpt>
      <trkpt lat="46.99011" lon="8.82417">
        <ele>1226</ele>
        <time>2021-08-04T08:22:06.834Z</time>
      </trkpt>
      <trkpt lat="46.99012" lon="8.82417">
        <ele>1226</ele>
        <time>2021-08-04T08:22:07.834Z</time>
      </trkpt>
      <trkpt lat="46.99013" lon="8.82416">
        <ele>1225</ele>
        <time>2021-08-04T08:22:08.835Z</time>
      </trkpt>
      <trkpt lat="46.99014" lon="8.82415">
        <ele>1225</ele>
        <time>2021-08-04T08:22:09.835Z</time>
      </trkpt>
      <trkpt lat="46.99015" lon="8.82414">
        <ele>1225</ele>
        <time>2021-08-04T08:22:10.835Z</time>
      </trkpt>
      <trkpt lat="46.99015" lon="8.82413">
        <ele>1224</ele>
        <time>2021-08-04T08:22:11.835Z</time>
      </trkpt>
      <trkpt lat="46.99016" lon="8.82411">
        <ele>1224</ele>
        <time>2021-08-04T08:22:12.835Z</time>
      </trkpt>
      <trkpt lat="46.99017" lon="8.8241">
        <ele>1224</ele>
        <time>2021-08-04T08:22:13.835Z</time>
      </trkpt>
      <trkpt lat="46.99018" lon="8.82408">
        <ele>1224</ele>
        <time>2021-08-04T08:22:14.834Z</time>
      </trkpt>
      <trkpt lat="46.99018" lon="8.82407">
        <ele>1224</ele>
        <time>2021-08-04T08:22:15.835Z</time>
      </trkpt>
      <trkpt lat="46.99018" lon="8.82405">
        <ele>1224</ele>
        <time>2021-08-04T08:22:16.835Z</time>
      </trkpt>
      <trkpt lat="46.99018" lon="8.82404">
        <ele>1223</ele>
        <time>2021-08-04T08:22:17.834Z</time>
      </trkpt>
      <trkpt lat="46.99019" lon="8.82403">
        <ele>1223</ele>
        <time>2021-08-04T08:22:18.834Z</time>
      </trkpt>
      <trkpt lat="46.99019" lon="8.82401">
        <ele>1223</ele>
        <time>2021-08-04T08:22:19.834Z</time>
      </trkpt>
      <trkpt lat="46.99019" lon="8.82398">
        <ele>1223</ele>
        <time>2021-08-04T08:22:20.834Z</time>
      </trkpt>
      <trkpt lat="46.9902" lon="8.82397">
        <ele>1223</ele>
        <time>2021-08-04T08:22:21.834Z</time>
      </trkpt>
      <trkpt lat="46.9902" lon="8.82395">
        <ele>1224</ele>
        <time>2021-08-04T08:22:22.835Z</time>
      </trkpt>
      <trkpt lat="46.9902" lon="8.82394">
        <ele>1225</ele>
        <time>2021-08-04T08:22:23.834Z</time>
      </trkpt>
      <trkpt lat="46.99021" lon="8.82392">
        <ele>1225</ele>
        <time>2021-08-04T08:22:24.834Z</time>
      </trkpt>
      <trkpt lat="46.99022" lon="8.8239">
        <ele>1225</ele>
        <time>2021-08-04T08:22:25.835Z</time>
      </trkpt>
      <trkpt lat="46.99023" lon="8.82389">
        <ele>1225</ele>
        <time>2021-08-04T08:22:26.835Z</time>
      </trkpt>
      <trkpt lat="46.99023" lon="8.82387">
        <ele>1225</ele>
        <time>2021-08-04T08:22:27.835Z</time>
      </trkpt>
      <trkpt lat="46.99024" lon="8.82386">
        <ele>1225</ele>
        <time>2021-08-04T08:22:28.835Z</time>
      </trkpt>
      <trkpt lat="46.99024" lon="8.82384">
        <ele>1225</ele>
        <time>2021-08-04T08:22:29.834Z</time>
      </trkpt>
      <trkpt lat="46.99024" lon="8.82383">
        <ele>1225</ele>
        <time>2021-08-04T08:22:30.834Z</time>
      </trkpt>
      <trkpt lat="46.99025" lon="8.82383">
        <ele>1224</ele>
        <time>2021-08-04T08:22:31.834Z</time>
      </trkpt>
      <trkpt lat="46.99024" lon="8.82383">
        <ele>1224</ele>
        <time>2021-08-04T08:22:32.835Z</time>
      </trkpt>
      <trkpt lat="46.99024" lon="8.82383">
        <ele>1223</ele>
        <time>2021-08-04T08:22:33.834Z</time>
      </trkpt>
      <trkpt lat="46.99024" lon="8.82383">
        <ele>1223</ele>
        <time>2021-08-04T08:22:34.834Z</time>
      </trkpt>
      <trkpt lat="46.99025" lon="8.82383">
        <ele>1222</ele>
        <time>2021-08-04T08:22:35.834Z</time>
      </trkpt>
      <trkpt lat="46.99025" lon="8.82383">
        <ele>1222</ele>
        <time>2021-08-04T08:22:36.834Z</time>
      </trkpt>
      <trkpt lat="46.99024" lon="8.82382">
        <ele>1221</ele>
        <time>2021-08-04T08:22:37.835Z</time>
      </trkpt>
      <trkpt lat="46.99024" lon="8.8238">
        <ele>1221</ele>
        <time>2021-08-04T08:22:38.836Z</time>
      </trkpt>
      <trkpt lat="46.99024" lon="8.8238">
        <ele>1220</ele>
        <time>2021-08-04T08:22:39.836Z</time>
      </trkpt>
      <trkpt lat="46.99025" lon="8.82379">
        <ele>1220</ele>
        <time>2021-08-04T08:22:40.835Z</time>
      </trkpt>
      <trkpt lat="46.99026" lon="8.82379">
        <ele>1220</ele>
        <time>2021-08-04T08:22:41.835Z</time>
      </trkpt>
      <trkpt lat="46.99027" lon="8.82378">
        <ele>1220</ele>
        <time>2021-08-04T08:22:42.835Z</time>
      </trkpt>
      <trkpt lat="46.99028" lon="8.82377">
        <ele>1220</ele>
        <time>2021-08-04T08:22:43.835Z</time>
      </trkpt>
      <trkpt lat="46.99029" lon="8.82376">
        <ele>1220</ele>
        <time>2021-08-04T08:22:44.835Z</time>
      </trkpt>
      <trkpt lat="46.99029" lon="8.82376">
        <ele>1220</ele>
        <time>2021-08-04T08:22:45.835Z</time>
      </trkpt>
      <trkpt lat="46.9903" lon="8.82374">
        <ele>1219</ele>
        <time>2021-08-04T08:22:46.836Z</time>
      </trkpt>
      <trkpt lat="46.99031" lon="8.82373">
        <ele>1218</ele>
        <time>2021-08-04T08:22:47.836Z</time>
      </trkpt>
      <trkpt lat="46.99031" lon="8.82372">
        <ele>1218</ele>
        <time>2021-08-04T08:22:48.836Z</time>
      </trkpt>
      <trkpt lat="46.99032" lon="8.82371">
        <ele>1218</ele>
        <time>2021-08-04T08:22:49.836Z</time>
      </trkpt>
      <trkpt lat="46.99033" lon="8.8237">
        <ele>1218</ele>
        <time>2021-08-04T08:22:50.836Z</time>
      </trkpt>
      <trkpt lat="46.99034" lon="8.82369">
        <ele>1218</ele>
        <time>2021-08-04T08:22:51.835Z</time>
      </trkpt>
      <trkpt lat="46.99035" lon="8.82368">
        <ele>1218</ele>
        <time>2021-08-04T08:22:52.835Z</time>
      </trkpt>
      <trkpt lat="46.99037" lon="8.82367">
        <ele>1218</ele>
        <time>2021-08-04T08:22:53.836Z</time>
      </trkpt>
      <trkpt lat="46.99038" lon="8.82367">
        <ele>1218</ele>
        <time>2021-08-04T08:22:54.835Z</time>
      </trkpt>
      <trkpt lat="46.99039" lon="8.82366">
        <ele>1217</ele>
        <time>2021-08-04T08:22:55.836Z</time>
      </trkpt>
      <trkpt lat="46.9904" lon="8.82365">
        <ele>1217</ele>
        <time>2021-08-04T08:22:56.835Z</time>
      </trkpt>
      <trkpt lat="46.99041" lon="8.82364">
        <ele>1217</ele>
        <time>2021-08-04T08:22:57.836Z</time>
      </trkpt>
      <trkpt lat="46.99042" lon="8.82363">
        <ele>1217</ele>
        <time>2021-08-04T08:22:58.835Z</time>
      </trkpt>
      <trkpt lat="46.99043" lon="8.82362">
        <ele>1217</ele>
        <time>2021-08-04T08:22:59.836Z</time>
      </trkpt>
      <trkpt lat="46.99044" lon="8.82361">
        <ele>1216</ele>
        <time>2021-08-04T08:23:00.836Z</time>
      </trkpt>
      <trkpt lat="46.99044" lon="8.8236">
        <ele>1216</ele>
        <time>2021-08-04T08:23:01.835Z</time>
      </trkpt>
      <trkpt lat="46.99045" lon="8.82359">
        <ele>1216</ele>
        <time>2021-08-04T08:23:02.835Z</time>
      </trkpt>
      <trkpt lat="46.99047" lon="8.82357">
        <ele>1216</ele>
        <time>2021-08-04T08:23:03.835Z</time>
      </trkpt>
      <trkpt lat="46.99047" lon="8.82356">
        <ele>1216</ele>
        <time>2021-08-04T08:23:04.835Z</time>
      </trkpt>
      <trkpt lat="46.99048" lon="8.82355">
        <ele>1215</ele>
        <time>2021-08-04T08:23:05.835Z</time>
      </trkpt>
      <trkpt lat="46.99049" lon="8.82354">
        <ele>1215</ele>
        <time>2021-08-04T08:23:06.836Z</time>
      </trkpt>
      <trkpt lat="46.9905" lon="8.82353">
        <ele>1215</ele>
        <time>2021-08-04T08:23:07.835Z</time>
      </trkpt>
      <trkpt lat="46.99051" lon="8.82352">
        <ele>1215</ele>
        <time>2021-08-04T08:23:08.836Z</time>
      </trkpt>
      <trkpt lat="46.99052" lon="8.82351">
        <ele>1215</ele>
        <time>2021-08-04T08:23:09.835Z</time>
      </trkpt>
      <trkpt lat="46.99053" lon="8.8235">
        <ele>1214</ele>
        <time>2021-08-04T08:23:10.835Z</time>
      </trkpt>
      <trkpt lat="46.99053" lon="8.82349">
        <ele>1214</ele>
        <time>2021-08-04T08:23:11.835Z</time>
      </trkpt>
      <trkpt lat="46.99054" lon="8.82348">
        <ele>1213</ele>
        <time>2021-08-04T08:23:12.835Z</time>
      </trkpt>
      <trkpt lat="46.99055" lon="8.82347">
        <ele>1213</ele>
        <time>2021-08-04T08:23:13.835Z</time>
      </trkpt>
      <trkpt lat="46.99056" lon="8.82345">
        <ele>1213</ele>
        <time>2021-08-04T08:23:14.836Z</time>
      </trkpt>
      <trkpt lat="46.99056" lon="8.82344">
        <ele>1213</ele>
        <time>2021-08-04T08:23:15.836Z</time>
      </trkpt>
      <trkpt lat="46.99057" lon="8.82343">
        <ele>1213</ele>
        <time>2021-08-04T08:23:16.835Z</time>
      </trkpt>
      <trkpt lat="46.99057" lon="8.82342">
        <ele>1213</ele>
        <time>2021-08-04T08:23:17.835Z</time>
      </trkpt>
      <trkpt lat="46.99058" lon="8.82339">
        <ele>1214</ele>
        <time>2021-08-04T08:23:18.835Z</time>
      </trkpt>
      <trkpt lat="46.99058" lon="8.82338">
        <ele>1215</ele>
        <time>2021-08-04T08:23:19.835Z</time>
      </trkpt>
      <trkpt lat="46.99059" lon="8.82336">
        <ele>1215</ele>
        <time>2021-08-04T08:23:20.835Z</time>
      </trkpt>
      <trkpt lat="46.99059" lon="8.82335">
        <ele>1216</ele>
        <time>2021-08-04T08:23:21.835Z</time>
      </trkpt>
      <trkpt lat="46.99059" lon="8.82334">
        <ele>1216</ele>
        <time>2021-08-04T08:23:22.836Z</time>
      </trkpt>
      <trkpt lat="46.9906" lon="8.82332">
        <ele>1216</ele>
        <time>2021-08-04T08:23:23.835Z</time>
      </trkpt>
      <trkpt lat="46.99061" lon="8.82331">
        <ele>1216</ele>
        <time>2021-08-04T08:23:24.835Z</time>
      </trkpt>
      <trkpt lat="46.99061" lon="8.8233">
        <ele>1217</ele>
        <time>2021-08-04T08:23:25.835Z</time>
      </trkpt>
      <trkpt lat="46.99062" lon="8.82328">
        <ele>1217</ele>
        <time>2021-08-04T08:23:26.835Z</time>
      </trkpt>
      <trkpt lat="46.99062" lon="8.82327">
        <ele>1217</ele>
        <time>2021-08-04T08:23:27.835Z</time>
      </trkpt>
      <trkpt lat="46.99063" lon="8.82326">
        <ele>1216</ele>
        <time>2021-08-04T08:23:28.836Z</time>
      </trkpt>
      <trkpt lat="46.99064" lon="8.82325">
        <ele>1215</ele>
        <time>2021-08-04T08:23:29.835Z</time>
      </trkpt>
      <trkpt lat="46.99064" lon="8.82324">
        <ele>1215</ele>
        <time>2021-08-04T08:23:30.835Z</time>
      </trkpt>
      <trkpt lat="46.99065" lon="8.82323">
        <ele>1214</ele>
        <time>2021-08-04T08:23:31.835Z</time>
      </trkpt>
      <trkpt lat="46.99066" lon="8.82322">
        <ele>1213</ele>
        <time>2021-08-04T08:23:32.835Z</time>
      </trkpt>
      <trkpt lat="46.99067" lon="8.8232">
        <ele>1213</ele>
        <time>2021-08-04T08:23:33.836Z</time>
      </trkpt>
      <trkpt lat="46.99068" lon="8.82319">
        <ele>1213</ele>
        <time>2021-08-04T08:23:34.836Z</time>
      </trkpt>
      <trkpt lat="46.99069" lon="8.82317">
        <ele>1213</ele>
        <time>2021-08-04T08:23:35.836Z</time>
      </trkpt>
      <trkpt lat="46.99069" lon="8.82316">
        <ele>1213</ele>
        <time>2021-08-04T08:23:36.836Z</time>
      </trkpt>
      <trkpt lat="46.9907" lon="8.82315">
        <ele>1213</ele>
        <time>2021-08-04T08:23:37.836Z</time>
      </trkpt>
      <trkpt lat="46.9907" lon="8.82314">
        <ele>1213</ele>
        <time>2021-08-04T08:23:38.835Z</time>
      </trkpt>
      <trkpt lat="46.99071" lon="8.82312">
        <ele>1213</ele>
        <time>2021-08-04T08:23:39.836Z</time>
      </trkpt>
      <trkpt lat="46.99071" lon="8.82311">
        <ele>1213</ele>
        <time>2021-08-04T08:23:40.835Z</time>
      </trkpt>
      <trkpt lat="46.99072" lon="8.82309">
        <ele>1213</ele>
        <time>2021-08-04T08:23:41.836Z</time>
      </trkpt>
      <trkpt lat="46.99073" lon="8.82308">
        <ele>1213</ele>
        <time>2021-08-04T08:23:42.835Z</time>
      </trkpt>
      <trkpt lat="46.99073" lon="8.82306">
        <ele>1214</ele>
        <time>2021-08-04T08:23:43.836Z</time>
      </trkpt>
      <trkpt lat="46.99074" lon="8.82305">
        <ele>1214</ele>
        <time>2021-08-04T08:23:44.836Z</time>
      </trkpt>
      <trkpt lat="46.99074" lon="8.82304">
        <ele>1215</ele>
        <time>2021-08-04T08:23:45.836Z</time>
      </trkpt>
      <trkpt lat="46.99074" lon="8.82303">
        <ele>1215</ele>
        <time>2021-08-04T08:23:46.835Z</time>
      </trkpt>
      <trkpt lat="46.99075" lon="8.82301">
        <ele>1216</ele>
        <time>2021-08-04T08:23:47.835Z</time>
      </trkpt>
      <trkpt lat="46.99076" lon="8.823">
        <ele>1216</ele>
        <time>2021-08-04T08:23:48.835Z</time>
      </trkpt>
      <trkpt lat="46.99076" lon="8.82299">
        <ele>1217</ele>
        <time>2021-08-04T08:23:49.836Z</time>
      </trkpt>
      <trkpt lat="46.99076" lon="8.82298">
        <ele>1217</ele>
        <time>2021-08-04T08:23:50.836Z</time>
      </trkpt>
      <trkpt lat="46.99076" lon="8.82296">
        <ele>1218</ele>
        <time>2021-08-04T08:23:51.835Z</time>
      </trkpt>
      <trkpt lat="46.99075" lon="8.82294">
        <ele>1218</ele>
        <time>2021-08-04T08:23:52.836Z</time>
      </trkpt>
      <trkpt lat="46.99075" lon="8.82293">
        <ele>1218</ele>
        <time>2021-08-04T08:23:53.836Z</time>
      </trkpt>
      <trkpt lat="46.99075" lon="8.82291">
        <ele>1217</ele>
        <time>2021-08-04T08:23:54.835Z</time>
      </trkpt>
      <trkpt lat="46.99075" lon="8.8229">
        <ele>1217</ele>
        <time>2021-08-04T08:23:55.835Z</time>
      </trkpt>
      <trkpt lat="46.99075" lon="8.82288">
        <ele>1217</ele>
        <time>2021-08-04T08:23:56.835Z</time>
      </trkpt>
      <trkpt lat="46.99074" lon="8.82286">
        <ele>1217</ele>
        <time>2021-08-04T08:23:57.836Z</time>
      </trkpt>
      <trkpt lat="46.99073" lon="8.82284">
        <ele>1216</ele>
        <time>2021-08-04T08:23:58.836Z</time>
      </trkpt>
      <trkpt lat="46.99073" lon="8.82283">
        <ele>1216</ele>
        <time>2021-08-04T08:23:59.835Z</time>
      </trkpt>
      <trkpt lat="46.99073" lon="8.82282">
        <ele>1217</ele>
        <time>2021-08-04T08:24:00.835Z</time>
      </trkpt>
      <trkpt lat="46.99073" lon="8.82281">
        <ele>1217</ele>
        <time>2021-08-04T08:24:01.836Z</time>
      </trkpt>
      <trkpt lat="46.99073" lon="8.8228">
        <ele>1217</ele>
        <time>2021-08-04T08:24:02.835Z</time>
      </trkpt>
      <trkpt lat="46.99073" lon="8.82278">
        <ele>1217</ele>
        <time>2021-08-04T08:24:03.836Z</time>
      </trkpt>
      <trkpt lat="46.99073" lon="8.82277">
        <ele>1217</ele>
        <time>2021-08-04T08:24:04.836Z</time>
      </trkpt>
      <trkpt lat="46.99072" lon="8.82276">
        <ele>1218</ele>
        <time>2021-08-04T08:24:05.836Z</time>
      </trkpt>
      <trkpt lat="46.99072" lon="8.82274">
        <ele>1218</ele>
        <time>2021-08-04T08:24:06.836Z</time>
      </trkpt>
      <trkpt lat="46.99072" lon="8.82273">
        <ele>1218</ele>
        <time>2021-08-04T08:24:07.836Z</time>
      </trkpt>
      <trkpt lat="46.99072" lon="8.82271">
        <ele>1218</ele>
        <time>2021-08-04T08:24:08.836Z</time>
      </trkpt>
      <trkpt lat="46.99072" lon="8.8227">
        <ele>1218</ele>
        <time>2021-08-04T08:24:09.836Z</time>
      </trkpt>
      <trkpt lat="46.99071" lon="8.82269">
        <ele>1218</ele>
        <time>2021-08-04T08:24:10.835Z</time>
      </trkpt>
      <trkpt lat="46.99071" lon="8.82268">
        <ele>1218</ele>
        <time>2021-08-04T08:24:11.836Z</time>
      </trkpt>
      <trkpt lat="46.9907" lon="8.82266">
        <ele>1218</ele>
        <time>2021-08-04T08:24:12.836Z</time>
      </trkpt>
      <trkpt lat="46.9907" lon="8.82265">
        <ele>1218</ele>
        <time>2021-08-04T08:24:13.836Z</time>
      </trkpt>
      <trkpt lat="46.9907" lon="8.82264">
        <ele>1219</ele>
        <time>2021-08-04T08:24:14.835Z</time>
      </trkpt>
      <trkpt lat="46.9907" lon="8.82263">
        <ele>1219</ele>
        <time>2021-08-04T08:24:15.836Z</time>
      </trkpt>
      <trkpt lat="46.99071" lon="8.82261">
        <ele>1219</ele>
        <time>2021-08-04T08:24:16.835Z</time>
      </trkpt>
      <trkpt lat="46.99071" lon="8.8226">
        <ele>1219</ele>
        <time>2021-08-04T08:24:17.835Z</time>
      </trkpt>
      <trkpt lat="46.99071" lon="8.82258">
        <ele>1219</ele>
        <time>2021-08-04T08:24:18.835Z</time>
      </trkpt>
      <trkpt lat="46.99071" lon="8.82256">
        <ele>1220</ele>
        <time>2021-08-04T08:24:19.836Z</time>
      </trkpt>
      <trkpt lat="46.99071" lon="8.82255">
        <ele>1220</ele>
        <time>2021-08-04T08:24:20.836Z</time>
      </trkpt>
      <trkpt lat="46.99071" lon="8.82253">
        <ele>1220</ele>
        <time>2021-08-04T08:24:21.836Z</time>
      </trkpt>
      <trkpt lat="46.99072" lon="8.82251">
        <ele>1220</ele>
        <time>2021-08-04T08:24:22.836Z</time>
      </trkpt>
      <trkpt lat="46.99072" lon="8.82249">
        <ele>1220</ele>
        <time>2021-08-04T08:24:23.835Z</time>
      </trkpt>
      <trkpt lat="46.99072" lon="8.82248">
        <ele>1220</ele>
        <time>2021-08-04T08:24:24.836Z</time>
      </trkpt>
      <trkpt lat="46.99072" lon="8.82248">
        <ele>1220</ele>
        <time>2021-08-04T08:24:25.835Z</time>
      </trkpt>
      <trkpt lat="46.99072" lon="8.82247">
        <ele>1221</ele>
        <time>2021-08-04T08:24:26.836Z</time>
      </trkpt>
      <trkpt lat="46.99073" lon="8.82246">
        <ele>1221</ele>
        <time>2021-08-04T08:24:27.836Z</time>
      </trkpt>
      <trkpt lat="46.99073" lon="8.82245">
        <ele>1221</ele>
        <time>2021-08-04T08:24:28.835Z</time>
      </trkpt>
      <trkpt lat="46.99073" lon="8.82243">
        <ele>1221</ele>
        <time>2021-08-04T08:24:29.835Z</time>
      </trkpt>
      <trkpt lat="46.99073" lon="8.82242">
        <ele>1221</ele>
        <time>2021-08-04T08:24:30.835Z</time>
      </trkpt>
      <trkpt lat="46.99073" lon="8.8224">
        <ele>1220</ele>
        <time>2021-08-04T08:24:31.835Z</time>
      </trkpt>
      <trkpt lat="46.99073" lon="8.82238">
        <ele>1220</ele>
        <time>2021-08-04T08:24:32.835Z</time>
      </trkpt>
      <trkpt lat="46.99073" lon="8.82236">
        <ele>1220</ele>
        <time>2021-08-04T08:24:33.836Z</time>
      </trkpt>
      <trkpt lat="46.99073" lon="8.82235">
        <ele>1220</ele>
        <time>2021-08-04T08:24:34.836Z</time>
      </trkpt>
      <trkpt lat="46.99073" lon="8.82233">
        <ele>1220</ele>
        <time>2021-08-04T08:24:35.836Z</time>
      </trkpt>
      <trkpt lat="46.99073" lon="8.82232">
        <ele>1219</ele>
        <time>2021-08-04T08:24:36.835Z</time>
      </trkpt>
      <trkpt lat="46.99073" lon="8.82231">
        <ele>1220</ele>
        <time>2021-08-04T08:24:37.836Z</time>
      </trkpt>
      <trkpt lat="46.99073" lon="8.8223">
        <ele>1220</ele>
        <time>2021-08-04T08:24:38.835Z</time>
      </trkpt>
      <trkpt lat="46.99073" lon="8.82229">
        <ele>1220</ele>
        <time>2021-08-04T08:24:39.836Z</time>
      </trkpt>
      <trkpt lat="46.99073" lon="8.82229">
        <ele>1219</ele>
        <time>2021-08-04T08:24:40.835Z</time>
      </trkpt>
      <trkpt lat="46.99073" lon="8.82228">
        <ele>1219</ele>
        <time>2021-08-04T08:24:41.835Z</time>
      </trkpt>
      <trkpt lat="46.99073" lon="8.82228">
        <ele>1218</ele>
        <time>2021-08-04T08:24:42.835Z</time>
      </trkpt>
      <trkpt lat="46.99073" lon="8.82227">
        <ele>1218</ele>
        <time>2021-08-04T08:24:43.836Z</time>
      </trkpt>
      <trkpt lat="46.99073" lon="8.82226">
        <ele>1218</ele>
        <time>2021-08-04T08:24:44.836Z</time>
      </trkpt>
      <trkpt lat="46.99073" lon="8.82225">
        <ele>1217</ele>
        <time>2021-08-04T08:24:45.835Z</time>
      </trkpt>
      <trkpt lat="46.99074" lon="8.82224">
        <ele>1218</ele>
        <time>2021-08-04T08:24:46.836Z</time>
      </trkpt>
      <trkpt lat="46.99073" lon="8.82224">
        <ele>1218</ele>
        <time>2021-08-04T08:24:47.836Z</time>
      </trkpt>
      <trkpt lat="46.99073" lon="8.82223">
        <ele>1218</ele>
        <time>2021-08-04T08:24:48.836Z</time>
      </trkpt>
      <trkpt lat="46.99073" lon="8.82223">
        <ele>1217</ele>
        <time>2021-08-04T08:24:49.835Z</time>
      </trkpt>
      <trkpt lat="46.99073" lon="8.82222">
        <ele>1217</ele>
        <time>2021-08-04T08:24:50.836Z</time>
      </trkpt>
      <trkpt lat="46.99073" lon="8.82222">
        <ele>1217</ele>
        <time>2021-08-04T08:24:51.836Z</time>
      </trkpt>
      <trkpt lat="46.99072" lon="8.82222">
        <ele>1217</ele>
        <time>2021-08-04T08:24:52.835Z</time>
      </trkpt>
      <trkpt lat="46.99075" lon="8.82223">
        <ele>1216</ele>
        <time>2021-08-04T08:24:53.837Z</time>
      </trkpt>
      <trkpt lat="46.99075" lon="8.82222">
        <ele>1216</ele>
        <time>2021-08-04T08:24:54.837Z</time>
      </trkpt>
      <trkpt lat="46.99075" lon="8.82221">
        <ele>1216</ele>
        <time>2021-08-04T08:24:55.837Z</time>
      </trkpt>
      <trkpt lat="46.99075" lon="8.8222">
        <ele>1216</ele>
        <time>2021-08-04T08:24:56.837Z</time>
      </trkpt>
      <trkpt lat="46.99075" lon="8.82218">
        <ele>1216</ele>
        <time>2021-08-04T08:24:57.837Z</time>
      </trkpt>
      <trkpt lat="46.99075" lon="8.82216">
        <ele>1216</ele>
        <time>2021-08-04T08:24:58.837Z</time>
      </trkpt>
      <trkpt lat="46.99074" lon="8.82215">
        <ele>1216</ele>
        <time>2021-08-04T08:24:59.836Z</time>
      </trkpt>
      <trkpt lat="46.99074" lon="8.82214">
        <ele>1216</ele>
        <time>2021-08-04T08:25:00.837Z</time>
      </trkpt>
      <trkpt lat="46.99074" lon="8.82212">
        <ele>1216</ele>
        <time>2021-08-04T08:25:01.837Z</time>
      </trkpt>
      <trkpt lat="46.99074" lon="8.82211">
        <ele>1216</ele>
        <time>2021-08-04T08:25:02.837Z</time>
      </trkpt>
      <trkpt lat="46.99074" lon="8.82209">
        <ele>1216</ele>
        <time>2021-08-04T08:25:03.836Z</time>
      </trkpt>
      <trkpt lat="46.99074" lon="8.82208">
        <ele>1216</ele>
        <time>2021-08-04T08:25:04.837Z</time>
      </trkpt>
      <trkpt lat="46.99075" lon="8.82206">
        <ele>1216</ele>
        <time>2021-08-04T08:25:05.837Z</time>
      </trkpt>
      <trkpt lat="46.99075" lon="8.82205">
        <ele>1216</ele>
        <time>2021-08-04T08:25:06.837Z</time>
      </trkpt>
      <trkpt lat="46.99076" lon="8.82204">
        <ele>1216</ele>
        <time>2021-08-04T08:25:07.836Z</time>
      </trkpt>
      <trkpt lat="46.99076" lon="8.82202">
        <ele>1216</ele>
        <time>2021-08-04T08:25:08.836Z</time>
      </trkpt>
      <trkpt lat="46.99076" lon="8.822">
        <ele>1217</ele>
        <time>2021-08-04T08:25:09.837Z</time>
      </trkpt>
      <trkpt lat="46.99076" lon="8.82199">
        <ele>1217</ele>
        <time>2021-08-04T08:25:10.836Z</time>
      </trkpt>
      <trkpt lat="46.99076" lon="8.82197">
        <ele>1217</ele>
        <time>2021-08-04T08:25:11.836Z</time>
      </trkpt>
      <trkpt lat="46.99075" lon="8.82196">
        <ele>1217</ele>
        <time>2021-08-04T08:25:12.837Z</time>
      </trkpt>
      <trkpt lat="46.99075" lon="8.82194">
        <ele>1218</ele>
        <time>2021-08-04T08:25:13.836Z</time>
      </trkpt>
      <trkpt lat="46.99075" lon="8.82192">
        <ele>1218</ele>
        <time>2021-08-04T08:25:14.836Z</time>
      </trkpt>
      <trkpt lat="46.99075" lon="8.82191">
        <ele>1218</ele>
        <time>2021-08-04T08:25:15.836Z</time>
      </trkpt>
      <trkpt lat="46.99075" lon="8.82189">
        <ele>1218</ele>
        <time>2021-08-04T08:25:16.836Z</time>
      </trkpt>
      <trkpt lat="46.99075" lon="8.82188">
        <ele>1219</ele>
        <time>2021-08-04T08:25:17.836Z</time>
      </trkpt>
      <trkpt lat="46.99075" lon="8.82185">
        <ele>1219</ele>
        <time>2021-08-04T08:25:18.836Z</time>
      </trkpt>
      <trkpt lat="46.99076" lon="8.82184">
        <ele>1220</ele>
        <time>2021-08-04T08:25:19.837Z</time>
      </trkpt>
      <trkpt lat="46.99076" lon="8.82183">
        <ele>1220</ele>
        <time>2021-08-04T08:25:20.836Z</time>
      </trkpt>
      <trkpt lat="46.99076" lon="8.82181">
        <ele>1221</ele>
        <time>2021-08-04T08:25:21.836Z</time>
      </trkpt>
      <trkpt lat="46.99076" lon="8.82179">
        <ele>1221</ele>
        <time>2021-08-04T08:25:22.837Z</time>
      </trkpt>
      <trkpt lat="46.99077" lon="8.82178">
        <ele>1220</ele>
        <time>2021-08-04T08:25:23.837Z</time>
      </trkpt>
      <trkpt lat="46.99077" lon="8.82176">
        <ele>1220</ele>
        <time>2021-08-04T08:25:24.836Z</time>
      </trkpt>
      <trkpt lat="46.99078" lon="8.82175">
        <ele>1220</ele>
        <time>2021-08-04T08:25:25.836Z</time>
      </trkpt>
      <trkpt lat="46.99078" lon="8.82173">
        <ele>1220</ele>
        <time>2021-08-04T08:25:26.837Z</time>
      </trkpt>
      <trkpt lat="46.99078" lon="8.82172">
        <ele>1219</ele>
        <time>2021-08-04T08:25:27.836Z</time>
      </trkpt>
      <trkpt lat="46.99079" lon="8.82171">
        <ele>1219</ele>
        <time>2021-08-04T08:25:28.836Z</time>
      </trkpt>
      <trkpt lat="46.99079" lon="8.8217">
        <ele>1219</ele>
        <time>2021-08-04T08:25:29.837Z</time>
      </trkpt>
      <trkpt lat="46.99079" lon="8.82169">
        <ele>1219</ele>
        <time>2021-08-04T08:25:30.837Z</time>
      </trkpt>
      <trkpt lat="46.99079" lon="8.82168">
        <ele>1219</ele>
        <time>2021-08-04T08:25:31.836Z</time>
      </trkpt>
      <trkpt lat="46.9908" lon="8.82166">
        <ele>1219</ele>
        <time>2021-08-04T08:25:32.836Z</time>
      </trkpt>
      <trkpt lat="46.9908" lon="8.82165">
        <ele>1219</ele>
        <time>2021-08-04T08:25:33.836Z</time>
      </trkpt>
      <trkpt lat="46.9908" lon="8.82163">
        <ele>1219</ele>
        <time>2021-08-04T08:25:34.837Z</time>
      </trkpt>
      <trkpt lat="46.9908" lon="8.82162">
        <ele>1219</ele>
        <time>2021-08-04T08:25:35.837Z</time>
      </trkpt>
      <trkpt lat="46.9908" lon="8.8216">
        <ele>1219</ele>
        <time>2021-08-04T08:25:36.837Z</time>
      </trkpt>
      <trkpt lat="46.9908" lon="8.82158">
        <ele>1219</ele>
        <time>2021-08-04T08:25:37.836Z</time>
      </trkpt>
      <trkpt lat="46.99079" lon="8.82156">
        <ele>1219</ele>
        <time>2021-08-04T08:25:38.837Z</time>
      </trkpt>
      <trkpt lat="46.99078" lon="8.82155">
        <ele>1218</ele>
        <time>2021-08-04T08:25:39.836Z</time>
      </trkpt>
      <trkpt lat="46.99078" lon="8.82154">
        <ele>1218</ele>
        <time>2021-08-04T08:25:40.837Z</time>
      </trkpt>
      <trkpt lat="46.99077" lon="8.82152">
        <ele>1217</ele>
        <time>2021-08-04T08:25:41.837Z</time>
      </trkpt>
      <trkpt lat="46.99076" lon="8.82151">
        <ele>1217</ele>
        <time>2021-08-04T08:25:42.837Z</time>
      </trkpt>
      <trkpt lat="46.99076" lon="8.8215">
        <ele>1216</ele>
        <time>2021-08-04T08:25:43.836Z</time>
      </trkpt>
      <trkpt lat="46.99075" lon="8.82148">
        <ele>1216</ele>
        <time>2021-08-04T08:25:44.837Z</time>
      </trkpt>
      <trkpt lat="46.99075" lon="8.82147">
        <ele>1216</ele>
        <time>2021-08-04T08:25:45.837Z</time>
      </trkpt>
      <trkpt lat="46.99074" lon="8.82145">
        <ele>1216</ele>
        <time>2021-08-04T08:25:46.836Z</time>
      </trkpt>
      <trkpt lat="46.99074" lon="8.82144">
        <ele>1216</ele>
        <time>2021-08-04T08:25:47.837Z</time>
      </trkpt>
      <trkpt lat="46.99074" lon="8.82143">
        <ele>1216</ele>
        <time>2021-08-04T08:25:48.836Z</time>
      </trkpt>
      <trkpt lat="46.99073" lon="8.82141">
        <ele>1216</ele>
        <time>2021-08-04T08:25:49.836Z</time>
      </trkpt>
      <trkpt lat="46.99074" lon="8.82139">
        <ele>1215</ele>
        <time>2021-08-04T08:25:50.837Z</time>
      </trkpt>
      <trkpt lat="46.99074" lon="8.82137">
        <ele>1215</ele>
        <time>2021-08-04T08:25:51.836Z</time>
      </trkpt>
      <trkpt lat="46.99075" lon="8.82135">
        <ele>1215</ele>
        <time>2021-08-04T08:25:52.836Z</time>
      </trkpt>
      <trkpt lat="46.99075" lon="8.82134">
        <ele>1215</ele>
        <time>2021-08-04T08:25:53.836Z</time>
      </trkpt>
      <trkpt lat="46.99076" lon="8.82132">
        <ele>1216</ele>
        <time>2021-08-04T08:25:54.836Z</time>
      </trkpt>
      <trkpt lat="46.99076" lon="8.82131">
        <ele>1215</ele>
        <time>2021-08-04T08:25:55.836Z</time>
      </trkpt>
      <trkpt lat="46.99077" lon="8.82129">
        <ele>1215</ele>
        <time>2021-08-04T08:25:56.836Z</time>
      </trkpt>
      <trkpt lat="46.99077" lon="8.82127">
        <ele>1215</ele>
        <time>2021-08-04T08:25:57.836Z</time>
      </trkpt>
      <trkpt lat="46.99077" lon="8.82125">
        <ele>1216</ele>
        <time>2021-08-04T08:25:58.837Z</time>
      </trkpt>
      <trkpt lat="46.99078" lon="8.82124">
        <ele>1216</ele>
        <time>2021-08-04T08:25:59.837Z</time>
      </trkpt>
      <trkpt lat="46.99078" lon="8.82122">
        <ele>1217</ele>
        <time>2021-08-04T08:26:00.836Z</time>
      </trkpt>
      <trkpt lat="46.99078" lon="8.8212">
        <ele>1218</ele>
        <time>2021-08-04T08:26:01.836Z</time>
      </trkpt>
      <trkpt lat="46.99077" lon="8.82119">
        <ele>1218</ele>
        <time>2021-08-04T08:26:02.836Z</time>
      </trkpt>
      <trkpt lat="46.99077" lon="8.82117">
        <ele>1218</ele>
        <time>2021-08-04T08:26:03.836Z</time>
      </trkpt>
      <trkpt lat="46.99076" lon="8.82116">
        <ele>1219</ele>
        <time>2021-08-04T08:26:04.836Z</time>
      </trkpt>
      <trkpt lat="46.99076" lon="8.82115">
        <ele>1220</ele>
        <time>2021-08-04T08:26:05.837Z</time>
      </trkpt>
      <trkpt lat="46.99075" lon="8.82113">
        <ele>1220</ele>
        <time>2021-08-04T08:26:06.836Z</time>
      </trkpt>
      <trkpt lat="46.99075" lon="8.82112">
        <ele>1220</ele>
        <time>2021-08-04T08:26:07.836Z</time>
      </trkpt>
      <trkpt lat="46.99076" lon="8.82111">
        <ele>1221</ele>
        <time>2021-08-04T08:26:08.837Z</time>
      </trkpt>
      <trkpt lat="46.99076" lon="8.8211">
        <ele>1221</ele>
        <time>2021-08-04T08:26:09.836Z</time>
      </trkpt>
      <trkpt lat="46.99077" lon="8.82108">
        <ele>1221</ele>
        <time>2021-08-04T08:26:10.836Z</time>
      </trkpt>
      <trkpt lat="46.99078" lon="8.82107">
        <ele>1221</ele>
        <time>2021-08-04T08:26:11.836Z</time>
      </trkpt>
      <trkpt lat="46.99078" lon="8.82106">
        <ele>1221</ele>
        <time>2021-08-04T08:26:12.836Z</time>
      </trkpt>
      <trkpt lat="46.99078" lon="8.82105">
        <ele>1221</ele>
        <time>2021-08-04T08:26:13.836Z</time>
      </trkpt>
      <trkpt lat="46.99078" lon="8.82103">
        <ele>1221</ele>
        <time>2021-08-04T08:26:14.836Z</time>
      </trkpt>
      <trkpt lat="46.99077" lon="8.82102">
        <ele>1221</ele>
        <time>2021-08-04T08:26:15.836Z</time>
      </trkpt>
      <trkpt lat="46.99077" lon="8.821">
        <ele>1221</ele>
        <time>2021-08-04T08:26:16.836Z</time>
      </trkpt>
      <trkpt lat="46.99076" lon="8.82099">
        <ele>1220</ele>
        <time>2021-08-04T08:26:17.836Z</time>
      </trkpt>
      <trkpt lat="46.99076" lon="8.82099">
        <ele>1220</ele>
        <time>2021-08-04T08:26:18.836Z</time>
      </trkpt>
      <trkpt lat="46.99075" lon="8.82098">
        <ele>1220</ele>
        <time>2021-08-04T08:26:19.836Z</time>
      </trkpt>
      <trkpt lat="46.99074" lon="8.82097">
        <ele>1220</ele>
        <time>2021-08-04T08:26:20.836Z</time>
      </trkpt>
      <trkpt lat="46.99074" lon="8.82096">
        <ele>1220</ele>
        <time>2021-08-04T08:26:21.836Z</time>
      </trkpt>
      <trkpt lat="46.99073" lon="8.82096">
        <ele>1219</ele>
        <time>2021-08-04T08:26:22.836Z</time>
      </trkpt>
      <trkpt lat="46.99072" lon="8.82095">
        <ele>1219</ele>
        <time>2021-08-04T08:26:23.836Z</time>
      </trkpt>
      <trkpt lat="46.99071" lon="8.82093">
        <ele>1219</ele>
        <time>2021-08-04T08:26:24.837Z</time>
      </trkpt>
      <trkpt lat="46.9907" lon="8.82092">
        <ele>1219</ele>
        <time>2021-08-04T08:26:25.837Z</time>
      </trkpt>
      <trkpt lat="46.9907" lon="8.82091">
        <ele>1219</ele>
        <time>2021-08-04T08:26:26.836Z</time>
      </trkpt>
      <trkpt lat="46.99069" lon="8.8209">
        <ele>1219</ele>
        <time>2021-08-04T08:26:27.836Z</time>
      </trkpt>
      <trkpt lat="46.99069" lon="8.82088">
        <ele>1218</ele>
        <time>2021-08-04T08:26:28.836Z</time>
      </trkpt>
      <trkpt lat="46.99069" lon="8.82087">
        <ele>1218</ele>
        <time>2021-08-04T08:26:29.837Z</time>
      </trkpt>
      <trkpt lat="46.99069" lon="8.82086">
        <ele>1218</ele>
        <time>2021-08-04T08:26:30.837Z</time>
      </trkpt>
      <trkpt lat="46.9907" lon="8.82084">
        <ele>1219</ele>
        <time>2021-08-04T08:26:31.836Z</time>
      </trkpt>
      <trkpt lat="46.9907" lon="8.82083">
        <ele>1219</ele>
        <time>2021-08-04T08:26:32.836Z</time>
      </trkpt>
      <trkpt lat="46.99071" lon="8.82082">
        <ele>1219</ele>
        <time>2021-08-04T08:26:33.836Z</time>
      </trkpt>
      <trkpt lat="46.99071" lon="8.8208">
        <ele>1219</ele>
        <time>2021-08-04T08:26:34.836Z</time>
      </trkpt>
      <trkpt lat="46.99072" lon="8.82079">
        <ele>1219</ele>
        <time>2021-08-04T08:26:35.837Z</time>
      </trkpt>
      <trkpt lat="46.99072" lon="8.82078">
        <ele>1219</ele>
        <time>2021-08-04T08:26:36.836Z</time>
      </trkpt>
      <trkpt lat="46.99073" lon="8.82077">
        <ele>1219</ele>
        <time>2021-08-04T08:26:37.836Z</time>
      </trkpt>
      <trkpt lat="46.99073" lon="8.82075">
        <ele>1219</ele>
        <time>2021-08-04T08:26:38.836Z</time>
      </trkpt>
      <trkpt lat="46.99074" lon="8.82074">
        <ele>1219</ele>
        <time>2021-08-04T08:26:39.837Z</time>
      </trkpt>
      <trkpt lat="46.99074" lon="8.82072">
        <ele>1219</ele>
        <time>2021-08-04T08:26:40.836Z</time>
      </trkpt>
      <trkpt lat="46.99074" lon="8.82072">
        <ele>1219</ele>
        <time>2021-08-04T08:26:41.836Z</time>
      </trkpt>
      <trkpt lat="46.99075" lon="8.82071">
        <ele>1219</ele>
        <time>2021-08-04T08:26:42.836Z</time>
      </trkpt>
      <trkpt lat="46.99075" lon="8.8207">
        <ele>1220</ele>
        <time>2021-08-04T08:26:43.836Z</time>
      </trkpt>
      <trkpt lat="46.99075" lon="8.82068">
        <ele>1220</ele>
        <time>2021-08-04T08:26:44.836Z</time>
      </trkpt>
      <trkpt lat="46.99075" lon="8.82067">
        <ele>1221</ele>
        <time>2021-08-04T08:26:45.836Z</time>
      </trkpt>
      <trkpt lat="46.99075" lon="8.82066">
        <ele>1221</ele>
        <time>2021-08-04T08:26:46.836Z</time>
      </trkpt>
      <trkpt lat="46.99075" lon="8.82065">
        <ele>1222</ele>
        <time>2021-08-04T08:26:47.836Z</time>
      </trkpt>
      <trkpt lat="46.99075" lon="8.82063">
        <ele>1222</ele>
        <time>2021-08-04T08:26:48.836Z</time>
      </trkpt>
      <trkpt lat="46.99075" lon="8.82062">
        <ele>1222</ele>
        <time>2021-08-04T08:26:49.836Z</time>
      </trkpt>
      <trkpt lat="46.99075" lon="8.8206">
        <ele>1223</ele>
        <time>2021-08-04T08:26:50.836Z</time>
      </trkpt>
      <trkpt lat="46.99075" lon="8.82058">
        <ele>1223</ele>
        <time>2021-08-04T08:26:51.836Z</time>
      </trkpt>
      <trkpt lat="46.99075" lon="8.82057">
        <ele>1223</ele>
        <time>2021-08-04T08:26:52.837Z</time>
      </trkpt>
      <trkpt lat="46.99075" lon="8.82056">
        <ele>1223</ele>
        <time>2021-08-04T08:26:53.837Z</time>
      </trkpt>
      <trkpt lat="46.99076" lon="8.82056">
        <ele>1223</ele>
        <time>2021-08-04T08:26:54.837Z</time>
      </trkpt>
      <trkpt lat="46.99076" lon="8.82055">
        <ele>1222</ele>
        <time>2021-08-04T08:26:55.836Z</time>
      </trkpt>
      <trkpt lat="46.99077" lon="8.82054">
        <ele>1222</ele>
        <time>2021-08-04T08:26:56.837Z</time>
      </trkpt>
      <trkpt lat="46.99077" lon="8.82054">
        <ele>1222</ele>
        <time>2021-08-04T08:26:57.837Z</time>
      </trkpt>
      <trkpt lat="46.99078" lon="8.82052">
        <ele>1222</ele>
        <time>2021-08-04T08:26:58.837Z</time>
      </trkpt>
      <trkpt lat="46.9908" lon="8.82051">
        <ele>1222</ele>
        <time>2021-08-04T08:26:59.836Z</time>
      </trkpt>
      <trkpt lat="46.99081" lon="8.8205">
        <ele>1222</ele>
        <time>2021-08-04T08:27:00.837Z</time>
      </trkpt>
      <trkpt lat="46.99081" lon="8.82049">
        <ele>1222</ele>
        <time>2021-08-04T08:27:01.836Z</time>
      </trkpt>
      <trkpt lat="46.99082" lon="8.82048">
        <ele>1222</ele>
        <time>2021-08-04T08:27:02.836Z</time>
      </trkpt>
      <trkpt lat="46.99083" lon="8.82047">
        <ele>1222</ele>
        <time>2021-08-04T08:27:03.837Z</time>
      </trkpt>
      <trkpt lat="46.99084" lon="8.82046">
        <ele>1222</ele>
        <time>2021-08-04T08:27:04.836Z</time>
      </trkpt>
      <trkpt lat="46.99085" lon="8.82045">
        <ele>1222</ele>
        <time>2021-08-04T08:27:05.836Z</time>
      </trkpt>
      <trkpt lat="46.99085" lon="8.82043">
        <ele>1222</ele>
        <time>2021-08-04T08:27:06.837Z</time>
      </trkpt>
      <trkpt lat="46.99086" lon="8.82042">
        <ele>1221</ele>
        <time>2021-08-04T08:27:07.837Z</time>
      </trkpt>
      <trkpt lat="46.99087" lon="8.8204">
        <ele>1221</ele>
        <time>2021-08-04T08:27:08.837Z</time>
      </trkpt>
      <trkpt lat="46.99087" lon="8.82039">
        <ele>1221</ele>
        <time>2021-08-04T08:27:09.836Z</time>
      </trkpt>
      <trkpt lat="46.99088" lon="8.82038">
        <ele>1221</ele>
        <time>2021-08-04T08:27:10.837Z</time>
      </trkpt>
      <trkpt lat="46.99088" lon="8.82037">
        <ele>1221</ele>
        <time>2021-08-04T08:27:11.836Z</time>
      </trkpt>
      <trkpt lat="46.99089" lon="8.82035">
        <ele>1221</ele>
        <time>2021-08-04T08:27:12.836Z</time>
      </trkpt>
      <trkpt lat="46.99089" lon="8.82034">
        <ele>1221</ele>
        <time>2021-08-04T08:27:13.837Z</time>
      </trkpt>
      <trkpt lat="46.9909" lon="8.82032">
        <ele>1221</ele>
        <time>2021-08-04T08:27:14.836Z</time>
      </trkpt>
      <trkpt lat="46.9909" lon="8.8203">
        <ele>1221</ele>
        <time>2021-08-04T08:27:15.836Z</time>
      </trkpt>
      <trkpt lat="46.99091" lon="8.82029">
        <ele>1222</ele>
        <time>2021-08-04T08:27:16.837Z</time>
      </trkpt>
      <trkpt lat="46.99092" lon="8.82028">
        <ele>1222</ele>
        <time>2021-08-04T08:27:17.837Z</time>
      </trkpt>
      <trkpt lat="46.99092" lon="8.82026">
        <ele>1223</ele>
        <time>2021-08-04T08:27:18.836Z</time>
      </trkpt>
      <trkpt lat="46.99093" lon="8.82024">
        <ele>1223</ele>
        <time>2021-08-04T08:27:19.836Z</time>
      </trkpt>
      <trkpt lat="46.99093" lon="8.82023">
        <ele>1224</ele>
        <time>2021-08-04T08:27:20.837Z</time>
      </trkpt>
      <trkpt lat="46.99094" lon="8.82021">
        <ele>1224</ele>
        <time>2021-08-04T08:27:21.837Z</time>
      </trkpt>
      <trkpt lat="46.99095" lon="8.8202">
        <ele>1224</ele>
        <time>2021-08-04T08:27:22.837Z</time>
      </trkpt>
      <trkpt lat="46.99095" lon="8.82018">
        <ele>1225</ele>
        <time>2021-08-04T08:27:23.837Z</time>
      </trkpt>
      <trkpt lat="46.99095" lon="8.82017">
        <ele>1225</ele>
        <time>2021-08-04T08:27:24.837Z</time>
      </trkpt>
      <trkpt lat="46.99096" lon="8.82015">
        <ele>1225</ele>
        <time>2021-08-04T08:27:25.836Z</time>
      </trkpt>
      <trkpt lat="46.99097" lon="8.82014">
        <ele>1224</ele>
        <time>2021-08-04T08:27:26.837Z</time>
      </trkpt>
      <trkpt lat="46.99098" lon="8.82012">
        <ele>1224</ele>
        <time>2021-08-04T08:27:27.837Z</time>
      </trkpt>
      <trkpt lat="46.99098" lon="8.82012">
        <ele>1224</ele>
        <time>2021-08-04T08:27:28.836Z</time>
      </trkpt>
      <trkpt lat="46.99099" lon="8.82011">
        <ele>1224</ele>
        <time>2021-08-04T08:27:29.837Z</time>
      </trkpt>
      <trkpt lat="46.99099" lon="8.8201">
        <ele>1223</ele>
        <time>2021-08-04T08:27:30.836Z</time>
      </trkpt>
      <trkpt lat="46.99098" lon="8.82008">
        <ele>1223</ele>
        <time>2021-08-04T08:27:31.837Z</time>
      </trkpt>
      <trkpt lat="46.99098" lon="8.82007">
        <ele>1223</ele>
        <time>2021-08-04T08:27:32.837Z</time>
      </trkpt>
      <trkpt lat="46.99099" lon="8.82006">
        <ele>1223</ele>
        <time>2021-08-04T08:27:33.836Z</time>
      </trkpt>
      <trkpt lat="46.991" lon="8.82005">
        <ele>1223</ele>
        <time>2021-08-04T08:27:34.837Z</time>
      </trkpt>
      <trkpt lat="46.991" lon="8.82004">
        <ele>1223</ele>
        <time>2021-08-04T08:27:35.837Z</time>
      </trkpt>
      <trkpt lat="46.991" lon="8.82001">
        <ele>1223</ele>
        <time>2021-08-04T08:27:36.837Z</time>
      </trkpt>
      <trkpt lat="46.991" lon="8.81999">
        <ele>1222</ele>
        <time>2021-08-04T08:27:37.836Z</time>
      </trkpt>
      <trkpt lat="46.99099" lon="8.81996">
        <ele>1222</ele>
        <time>2021-08-04T08:27:38.837Z</time>
      </trkpt>
      <trkpt lat="46.99099" lon="8.81994">
        <ele>1222</ele>
        <time>2021-08-04T08:27:39.837Z</time>
      </trkpt>
      <trkpt lat="46.99098" lon="8.81992">
        <ele>1221</ele>
        <time>2021-08-04T08:27:40.837Z</time>
      </trkpt>
      <trkpt lat="46.99098" lon="8.8199">
        <ele>1221</ele>
        <time>2021-08-04T08:27:41.837Z</time>
      </trkpt>
      <trkpt lat="46.99098" lon="8.81989">
        <ele>1221</ele>
        <time>2021-08-04T08:27:42.836Z</time>
      </trkpt>
      <trkpt lat="46.99098" lon="8.81987">
        <ele>1221</ele>
        <time>2021-08-04T08:27:43.837Z</time>
      </trkpt>
      <trkpt lat="46.99097" lon="8.81986">
        <ele>1221</ele>
        <time>2021-08-04T08:27:44.837Z</time>
      </trkpt>
      <trkpt lat="46.99097" lon="8.81984">
        <ele>1221</ele>
        <time>2021-08-04T08:27:45.837Z</time>
      </trkpt>
      <trkpt lat="46.99096" lon="8.81982">
        <ele>1221</ele>
        <time>2021-08-04T08:27:46.837Z</time>
      </trkpt>
      <trkpt lat="46.99096" lon="8.81981">
        <ele>1221</ele>
        <time>2021-08-04T08:27:47.837Z</time>
      </trkpt>
      <trkpt lat="46.99096" lon="8.81979">
        <ele>1221</ele>
        <time>2021-08-04T08:27:48.837Z</time>
      </trkpt>
      <trkpt lat="46.99096" lon="8.81977">
        <ele>1221</ele>
        <time>2021-08-04T08:27:49.837Z</time>
      </trkpt>
      <trkpt lat="46.99095" lon="8.81976">
        <ele>1220</ele>
        <time>2021-08-04T08:27:50.836Z</time>
      </trkpt>
      <trkpt lat="46.99094" lon="8.81974">
        <ele>1220</ele>
        <time>2021-08-04T08:27:51.836Z</time>
      </trkpt>
      <trkpt lat="46.99094" lon="8.81972">
        <ele>1220</ele>
        <time>2021-08-04T08:27:52.837Z</time>
      </trkpt>
      <trkpt lat="46.99093" lon="8.8197">
        <ele>1220</ele>
        <time>2021-08-04T08:27:53.837Z</time>
      </trkpt>
      <trkpt lat="46.99093" lon="8.81969">
        <ele>1220</ele>
        <time>2021-08-04T08:27:54.836Z</time>
      </trkpt>
      <trkpt lat="46.99092" lon="8.81969">
        <ele>1221</ele>
        <time>2021-08-04T08:27:55.837Z</time>
      </trkpt>
      <trkpt lat="46.99092" lon="8.81968">
        <ele>1221</ele>
        <time>2021-08-04T08:27:56.836Z</time>
      </trkpt>
      <trkpt lat="46.99091" lon="8.81967">
        <ele>1221</ele>
        <time>2021-08-04T08:27:57.837Z</time>
      </trkpt>
      <trkpt lat="46.99091" lon="8.81966">
        <ele>1221</ele>
        <time>2021-08-04T08:27:58.836Z</time>
      </trkpt>
      <trkpt lat="46.99092" lon="8.81965">
        <ele>1221</ele>
        <time>2021-08-04T08:27:59.837Z</time>
      </trkpt>
      <trkpt lat="46.99092" lon="8.81964">
        <ele>1221</ele>
        <time>2021-08-04T08:28:00.837Z</time>
      </trkpt>
      <trkpt lat="46.99091" lon="8.81962">
        <ele>1221</ele>
        <time>2021-08-04T08:28:01.837Z</time>
      </trkpt>
      <trkpt lat="46.99091" lon="8.8196">
        <ele>1221</ele>
        <time>2021-08-04T08:28:02.836Z</time>
      </trkpt>
      <trkpt lat="46.99091" lon="8.81958">
        <ele>1220</ele>
        <time>2021-08-04T08:28:03.836Z</time>
      </trkpt>
      <trkpt lat="46.99091" lon="8.81956">
        <ele>1220</ele>
        <time>2021-08-04T08:28:04.836Z</time>
      </trkpt>
      <trkpt lat="46.99091" lon="8.81954">
        <ele>1220</ele>
        <time>2021-08-04T08:28:05.836Z</time>
      </trkpt>
      <trkpt lat="46.99091" lon="8.81952">
        <ele>1219</ele>
        <time>2021-08-04T08:28:06.837Z</time>
      </trkpt>
      <trkpt lat="46.99091" lon="8.8195">
        <ele>1219</ele>
        <time>2021-08-04T08:28:07.837Z</time>
      </trkpt>
      <trkpt lat="46.99092" lon="8.81949">
        <ele>1219</ele>
        <time>2021-08-04T08:28:08.837Z</time>
      </trkpt>
      <trkpt lat="46.99092" lon="8.81948">
        <ele>1218</ele>
        <time>2021-08-04T08:28:09.836Z</time>
      </trkpt>
      <trkpt lat="46.99092" lon="8.81948">
        <ele>1218</ele>
        <time>2021-08-04T08:28:10.837Z</time>
      </trkpt>
      <trkpt lat="46.99092" lon="8.81949">
        <ele>1218</ele>
        <time>2021-08-04T08:28:11.836Z</time>
      </trkpt>
      <trkpt lat="46.99093" lon="8.8195">
        <ele>1218</ele>
        <time>2021-08-04T08:28:12.837Z</time>
      </trkpt>
      <trkpt lat="46.99093" lon="8.81949">
        <ele>1217</ele>
        <time>2021-08-04T08:28:13.837Z</time>
      </trkpt>
      <trkpt lat="46.99094" lon="8.81948">
        <ele>1217</ele>
        <time>2021-08-04T08:28:14.837Z</time>
      </trkpt>
      <trkpt lat="46.99095" lon="8.81947">
        <ele>1217</ele>
        <time>2021-08-04T08:28:15.836Z</time>
      </trkpt>
      <trkpt lat="46.99095" lon="8.81945">
        <ele>1217</ele>
        <time>2021-08-04T08:28:16.837Z</time>
      </trkpt>
      <trkpt lat="46.99095" lon="8.81944">
        <ele>1217</ele>
        <time>2021-08-04T08:28:17.837Z</time>
      </trkpt>
      <trkpt lat="46.99096" lon="8.81944">
        <ele>1217</ele>
        <time>2021-08-04T08:28:18.836Z</time>
      </trkpt>
      <trkpt lat="46.99096" lon="8.81943">
        <ele>1217</ele>
        <time>2021-08-04T08:28:19.837Z</time>
      </trkpt>
      <trkpt lat="46.99096" lon="8.81942">
        <ele>1217</ele>
        <time>2021-08-04T08:28:20.837Z</time>
      </trkpt>
      <trkpt lat="46.99096" lon="8.81941">
        <ele>1217</ele>
        <time>2021-08-04T08:28:21.837Z</time>
      </trkpt>
      <trkpt lat="46.99096" lon="8.8194">
        <ele>1217</ele>
        <time>2021-08-04T08:28:22.836Z</time>
      </trkpt>
      <trkpt lat="46.99097" lon="8.81938">
        <ele>1217</ele>
        <time>2021-08-04T08:28:23.837Z</time>
      </trkpt>
      <trkpt lat="46.99097" lon="8.81937">
        <ele>1217</ele>
        <time>2021-08-04T08:28:24.837Z</time>
      </trkpt>
      <trkpt lat="46.99098" lon="8.81936">
        <ele>1218</ele>
        <time>2021-08-04T08:28:25.837Z</time>
      </trkpt>
      <trkpt lat="46.99098" lon="8.81935">
        <ele>1218</ele>
        <time>2021-08-04T08:28:26.837Z</time>
      </trkpt>
      <trkpt lat="46.99098" lon="8.81934">
        <ele>1218</ele>
        <time>2021-08-04T08:28:27.836Z</time>
      </trkpt>
      <trkpt lat="46.99099" lon="8.81934">
        <ele>1218</ele>
        <time>2021-08-04T08:28:28.837Z</time>
      </trkpt>
      <trkpt lat="46.991" lon="8.81933">
        <ele>1219</ele>
        <time>2021-08-04T08:28:29.837Z</time>
      </trkpt>
      <trkpt lat="46.991" lon="8.81932">
        <ele>1219</ele>
        <time>2021-08-04T08:28:30.837Z</time>
      </trkpt>
      <trkpt lat="46.99101" lon="8.81931">
        <ele>1219</ele>
        <time>2021-08-04T08:28:31.837Z</time>
      </trkpt>
      <trkpt lat="46.99101" lon="8.8193">
        <ele>1219</ele>
        <time>2021-08-04T08:28:32.836Z</time>
      </trkpt>
      <trkpt lat="46.99102" lon="8.8193">
        <ele>1219</ele>
        <time>2021-08-04T08:28:33.836Z</time>
      </trkpt>
      <trkpt lat="46.99103" lon="8.81929">
        <ele>1220</ele>
        <time>2021-08-04T08:28:34.836Z</time>
      </trkpt>
      <trkpt lat="46.99104" lon="8.81928">
        <ele>1220</ele>
        <time>2021-08-04T08:28:35.836Z</time>
      </trkpt>
      <trkpt lat="46.99105" lon="8.81926">
        <ele>1220</ele>
        <time>2021-08-04T08:28:36.836Z</time>
      </trkpt>
      <trkpt lat="46.99105" lon="8.81925">
        <ele>1221</ele>
        <time>2021-08-04T08:28:37.837Z</time>
      </trkpt>
      <trkpt lat="46.99104" lon="8.81924">
        <ele>1221</ele>
        <time>2021-08-04T08:28:38.837Z</time>
      </trkpt>
      <trkpt lat="46.99103" lon="8.81922">
        <ele>1221</ele>
        <time>2021-08-04T08:28:39.837Z</time>
      </trkpt>
      <trkpt lat="46.99101" lon="8.81921">
        <ele>1221</ele>
        <time>2021-08-04T08:28:40.837Z</time>
      </trkpt>
      <trkpt lat="46.991" lon="8.8192">
        <ele>1221</ele>
        <time>2021-08-04T08:28:41.836Z</time>
      </trkpt>
      <trkpt lat="46.99099" lon="8.8192">
        <ele>1221</ele>
        <time>2021-08-04T08:28:42.837Z</time>
      </trkpt>
      <trkpt lat="46.99098" lon="8.81921">
        <ele>1221</ele>
        <time>2021-08-04T08:28:43.837Z</time>
      </trkpt>
      <trkpt lat="46.99098" lon="8.8192">
        <ele>1221</ele>
        <time>2021-08-04T08:28:44.837Z</time>
      </trkpt>
      <trkpt lat="46.99097" lon="8.8192">
        <ele>1221</ele>
        <time>2021-08-04T08:28:45.836Z</time>
      </trkpt>
      <trkpt lat="46.99096" lon="8.8192">
        <ele>1221</ele>
        <time>2021-08-04T08:28:46.837Z</time>
      </trkpt>
      <trkpt lat="46.99096" lon="8.81919">
        <ele>1221</ele>
        <time>2021-08-04T08:28:47.837Z</time>
      </trkpt>
      <trkpt lat="46.99095" lon="8.81919">
        <ele>1220</ele>
        <time>2021-08-04T08:28:48.837Z</time>
      </trkpt>
      <trkpt lat="46.99094" lon="8.8192">
        <ele>1220</ele>
        <time>2021-08-04T08:28:49.837Z</time>
      </trkpt>
      <trkpt lat="46.99094" lon="8.8192">
        <ele>1220</ele>
        <time>2021-08-04T08:28:50.837Z</time>
      </trkpt>
      <trkpt lat="46.99094" lon="8.81921">
        <ele>1220</ele>
        <time>2021-08-04T08:28:51.837Z</time>
      </trkpt>
      <trkpt lat="46.99094" lon="8.81922">
        <ele>1220</ele>
        <time>2021-08-04T08:28:52.836Z</time>
      </trkpt>
      <trkpt lat="46.99094" lon="8.81921">
        <ele>1220</ele>
        <time>2021-08-04T08:28:53.837Z</time>
      </trkpt>
      <trkpt lat="46.99094" lon="8.8192">
        <ele>1220</ele>
        <time>2021-08-04T08:28:54.836Z</time>
      </trkpt>
      <trkpt lat="46.99093" lon="8.81919">
        <ele>1220</ele>
        <time>2021-08-04T08:28:55.837Z</time>
      </trkpt>
      <trkpt lat="46.99093" lon="8.81918">
        <ele>1219</ele>
        <time>2021-08-04T08:28:56.837Z</time>
      </trkpt>
      <trkpt lat="46.99093" lon="8.81918">
        <ele>1219</ele>
        <time>2021-08-04T08:28:57.837Z</time>
      </trkpt>
      <trkpt lat="46.99096" lon="8.81918">
        <ele>1221</ele>
        <time>2021-08-04T08:28:58.836Z</time>
      </trkpt>
      <trkpt lat="46.99096" lon="8.81917">
        <ele>1222</ele>
        <time>2021-08-04T08:28:59.836Z</time>
      </trkpt>
      <trkpt lat="46.99095" lon="8.81917">
        <ele>1222</ele>
        <time>2021-08-04T08:29:00.837Z</time>
      </trkpt>
      <trkpt lat="46.99094" lon="8.81916">
        <ele>1222</ele>
        <time>2021-08-04T08:29:01.836Z</time>
      </trkpt>
      <trkpt lat="46.99094" lon="8.81914">
        <ele>1222</ele>
        <time>2021-08-04T08:29:02.837Z</time>
      </trkpt>
      <trkpt lat="46.99094" lon="8.81913">
        <ele>1222</ele>
        <time>2021-08-04T08:29:03.837Z</time>
      </trkpt>
      <trkpt lat="46.99094" lon="8.81912">
        <ele>1222</ele>
        <time>2021-08-04T08:29:04.836Z</time>
      </trkpt>
      <trkpt lat="46.99094" lon="8.81911">
        <ele>1222</ele>
        <time>2021-08-04T08:29:05.836Z</time>
      </trkpt>
      <trkpt lat="46.99094" lon="8.8191">
        <ele>1222</ele>
        <time>2021-08-04T08:29:06.837Z</time>
      </trkpt>
      <trkpt lat="46.99094" lon="8.8191">
        <ele>1222</ele>
        <time>2021-08-04T08:29:07.837Z</time>
      </trkpt>
      <trkpt lat="46.99094" lon="8.81908">
        <ele>1222</ele>
        <time>2021-08-04T08:29:08.836Z</time>
      </trkpt>
      <trkpt lat="46.99094" lon="8.81907">
        <ele>1222</ele>
        <time>2021-08-04T08:29:09.836Z</time>
      </trkpt>
      <trkpt lat="46.99094" lon="8.81906">
        <ele>1222</ele>
        <time>2021-08-04T08:29:10.836Z</time>
      </trkpt>
      <trkpt lat="46.99094" lon="8.81905">
        <ele>1222</ele>
        <time>2021-08-04T08:29:11.836Z</time>
      </trkpt>
      <trkpt lat="46.99095" lon="8.81904">
        <ele>1222</ele>
        <time>2021-08-04T08:29:12.836Z</time>
      </trkpt>
      <trkpt lat="46.99096" lon="8.81902">
        <ele>1221</ele>
        <time>2021-08-04T08:29:13.836Z</time>
      </trkpt>
      <trkpt lat="46.99096" lon="8.81901">
        <ele>1221</ele>
        <time>2021-08-04T08:29:14.836Z</time>
      </trkpt>
      <trkpt lat="46.99095" lon="8.819">
        <ele>1221</ele>
        <time>2021-08-04T08:29:15.837Z</time>
      </trkpt>
      <trkpt lat="46.99095" lon="8.81898">
        <ele>1221</ele>
        <time>2021-08-04T08:29:16.836Z</time>
      </trkpt>
      <trkpt lat="46.99095" lon="8.81897">
        <ele>1220</ele>
        <time>2021-08-04T08:29:17.836Z</time>
      </trkpt>
      <trkpt lat="46.99095" lon="8.81896">
        <ele>1220</ele>
        <time>2021-08-04T08:29:18.837Z</time>
      </trkpt>
      <trkpt lat="46.99096" lon="8.81896">
        <ele>1219</ele>
        <time>2021-08-04T08:29:19.836Z</time>
      </trkpt>
      <trkpt lat="46.99097" lon="8.81896">
        <ele>1218</ele>
        <time>2021-08-04T08:29:20.837Z</time>
      </trkpt>
      <trkpt lat="46.99098" lon="8.81895">
        <ele>1217</ele>
        <time>2021-08-04T08:29:21.836Z</time>
      </trkpt>
      <trkpt lat="46.99099" lon="8.81894">
        <ele>1216</ele>
        <time>2021-08-04T08:29:22.836Z</time>
      </trkpt>
      <trkpt lat="46.99099" lon="8.81893">
        <ele>1216</ele>
        <time>2021-08-04T08:29:23.836Z</time>
      </trkpt>
      <trkpt lat="46.99099" lon="8.81893">
        <ele>1215</ele>
        <time>2021-08-04T08:29:24.836Z</time>
      </trkpt>
      <trkpt lat="46.99099" lon="8.81891">
        <ele>1214</ele>
        <time>2021-08-04T08:29:25.836Z</time>
      </trkpt>
      <trkpt lat="46.99099" lon="8.8189">
        <ele>1214</ele>
        <time>2021-08-04T08:29:26.837Z</time>
      </trkpt>
      <trkpt lat="46.991" lon="8.81888">
        <ele>1213</ele>
        <time>2021-08-04T08:29:27.836Z</time>
      </trkpt>
      <trkpt lat="46.991" lon="8.81886">
        <ele>1212</ele>
        <time>2021-08-04T08:29:28.836Z</time>
      </trkpt>
      <trkpt lat="46.991" lon="8.81884">
        <ele>1211</ele>
        <time>2021-08-04T08:29:29.836Z</time>
      </trkpt>
      <trkpt lat="46.99101" lon="8.81884">
        <ele>1211</ele>
        <time>2021-08-04T08:29:30.836Z</time>
      </trkpt>
      <trkpt lat="46.99102" lon="8.81884">
        <ele>1210</ele>
        <time>2021-08-04T08:29:31.836Z</time>
      </trkpt>
      <trkpt lat="46.99103" lon="8.81885">
        <ele>1210</ele>
        <time>2021-08-04T08:29:32.836Z</time>
      </trkpt>
      <trkpt lat="46.99105" lon="8.81886">
        <ele>1209</ele>
        <time>2021-08-04T08:29:33.836Z</time>
      </trkpt>
      <trkpt lat="46.99106" lon="8.81886">
        <ele>1209</ele>
        <time>2021-08-04T08:29:34.836Z</time>
      </trkpt>
      <trkpt lat="46.99108" lon="8.81885">
        <ele>1208</ele>
        <time>2021-08-04T08:29:35.837Z</time>
      </trkpt>
      <trkpt lat="46.99109" lon="8.81884">
        <ele>1208</ele>
        <time>2021-08-04T08:29:36.837Z</time>
      </trkpt>
      <trkpt lat="46.99109" lon="8.81883">
        <ele>1208</ele>
        <time>2021-08-04T08:29:37.836Z</time>
      </trkpt>
      <trkpt lat="46.9911" lon="8.81882">
        <ele>1207</ele>
        <time>2021-08-04T08:29:38.836Z</time>
      </trkpt>
      <trkpt lat="46.9911" lon="8.8188">
        <ele>1207</ele>
        <time>2021-08-04T08:29:39.836Z</time>
      </trkpt>
      <trkpt lat="46.9911" lon="8.81878">
        <ele>1206</ele>
        <time>2021-08-04T08:29:40.837Z</time>
      </trkpt>
      <trkpt lat="46.9911" lon="8.81876">
        <ele>1206</ele>
        <time>2021-08-04T08:29:41.837Z</time>
      </trkpt>
      <trkpt lat="46.99111" lon="8.81874">
        <ele>1206</ele>
        <time>2021-08-04T08:29:42.836Z</time>
      </trkpt>
      <trkpt lat="46.99111" lon="8.81872">
        <ele>1205</ele>
        <time>2021-08-04T08:29:43.836Z</time>
      </trkpt>
      <trkpt lat="46.99112" lon="8.81871">
        <ele>1205</ele>
        <time>2021-08-04T08:29:44.836Z</time>
      </trkpt>
      <trkpt lat="46.99113" lon="8.81871">
        <ele>1205</ele>
        <time>2021-08-04T08:29:45.836Z</time>
      </trkpt>
      <trkpt lat="46.99113" lon="8.8187">
        <ele>1205</ele>
        <time>2021-08-04T08:29:46.836Z</time>
      </trkpt>
      <trkpt lat="46.99114" lon="8.81869">
        <ele>1205</ele>
        <time>2021-08-04T08:29:47.836Z</time>
      </trkpt>
      <trkpt lat="46.99115" lon="8.81868">
        <ele>1205</ele>
        <time>2021-08-04T08:29:48.836Z</time>
      </trkpt>
      <trkpt lat="46.99115" lon="8.81867">
        <ele>1205</ele>
        <time>2021-08-04T08:29:49.836Z</time>
      </trkpt>
      <trkpt lat="46.99116" lon="8.81866">
        <ele>1205</ele>
        <time>2021-08-04T08:29:50.836Z</time>
      </trkpt>
      <trkpt lat="46.99116" lon="8.81865">
        <ele>1205</ele>
        <time>2021-08-04T08:29:51.836Z</time>
      </trkpt>
      <trkpt lat="46.99116" lon="8.81865">
        <ele>1205</ele>
        <time>2021-08-04T08:29:52.836Z</time>
      </trkpt>
      <trkpt lat="46.99117" lon="8.81865">
        <ele>1205</ele>
        <time>2021-08-04T08:29:53.836Z</time>
      </trkpt>
      <trkpt lat="46.99118" lon="8.81864">
        <ele>1206</ele>
        <time>2021-08-04T08:29:54.837Z</time>
      </trkpt>
      <trkpt lat="46.99118" lon="8.81862">
        <ele>1206</ele>
        <time>2021-08-04T08:29:55.837Z</time>
      </trkpt>
      <trkpt lat="46.99118" lon="8.8186">
        <ele>1205</ele>
        <time>2021-08-04T08:29:56.836Z</time>
      </trkpt>
      <trkpt lat="46.99118" lon="8.81858">
        <ele>1205</ele>
        <time>2021-08-04T08:29:57.837Z</time>
      </trkpt>
      <trkpt lat="46.99119" lon="8.81857">
        <ele>1205</ele>
        <time>2021-08-04T08:29:58.836Z</time>
      </trkpt>
      <trkpt lat="46.99119" lon="8.81856">
        <ele>1205</ele>
        <time>2021-08-04T08:29:59.836Z</time>
      </trkpt>
      <trkpt lat="46.99119" lon="8.81856">
        <ele>1205</ele>
        <time>2021-08-04T08:30:00.836Z</time>
      </trkpt>
      <trkpt lat="46.99119" lon="8.81855">
        <ele>1205</ele>
        <time>2021-08-04T08:30:01.836Z</time>
      </trkpt>
      <trkpt lat="46.99119" lon="8.81854">
        <ele>1205</ele>
        <time>2021-08-04T08:30:02.837Z</time>
      </trkpt>
      <trkpt lat="46.9912" lon="8.81853">
        <ele>1204</ele>
        <time>2021-08-04T08:30:03.836Z</time>
      </trkpt>
      <trkpt lat="46.9912" lon="8.81853">
        <ele>1204</ele>
        <time>2021-08-04T08:30:04.837Z</time>
      </trkpt>
      <trkpt lat="46.9912" lon="8.81853">
        <ele>1204</ele>
        <time>2021-08-04T08:30:05.837Z</time>
      </trkpt>
      <trkpt lat="46.99121" lon="8.81852">
        <ele>1204</ele>
        <time>2021-08-04T08:30:06.837Z</time>
      </trkpt>
      <trkpt lat="46.99121" lon="8.81851">
        <ele>1204</ele>
        <time>2021-08-04T08:30:07.837Z</time>
      </trkpt>
      <trkpt lat="46.99122" lon="8.81851">
        <ele>1203</ele>
        <time>2021-08-04T08:30:08.836Z</time>
      </trkpt>
      <trkpt lat="46.99122" lon="8.81851">
        <ele>1203</ele>
        <time>2021-08-04T08:30:09.837Z</time>
      </trkpt>
      <trkpt lat="46.99123" lon="8.81851">
        <ele>1203</ele>
        <time>2021-08-04T08:30:10.837Z</time>
      </trkpt>
      <trkpt lat="46.99122" lon="8.81848">
        <ele>1203</ele>
        <time>2021-08-04T08:30:11.836Z</time>
      </trkpt>
      <trkpt lat="46.99122" lon="8.81845">
        <ele>1204</ele>
        <time>2021-08-04T08:30:12.837Z</time>
      </trkpt>
      <trkpt lat="46.99123" lon="8.81843">
        <ele>1204</ele>
        <time>2021-08-04T08:30:13.837Z</time>
      </trkpt>
      <trkpt lat="46.99123" lon="8.81841">
        <ele>1204</ele>
        <time>2021-08-04T08:30:14.836Z</time>
      </trkpt>
      <trkpt lat="46.99124" lon="8.8184">
        <ele>1205</ele>
        <time>2021-08-04T08:30:15.837Z</time>
      </trkpt>
      <trkpt lat="46.99125" lon="8.81838">
        <ele>1205</ele>
        <time>2021-08-04T08:30:16.837Z</time>
      </trkpt>
      <trkpt lat="46.99126" lon="8.81837">
        <ele>1205</ele>
        <time>2021-08-04T08:30:17.837Z</time>
      </trkpt>
      <trkpt lat="46.99128" lon="8.81836">
        <ele>1205</ele>
        <time>2021-08-04T08:30:18.836Z</time>
      </trkpt>
      <trkpt lat="46.99129" lon="8.81835">
        <ele>1204</ele>
        <time>2021-08-04T08:30:19.837Z</time>
      </trkpt>
      <trkpt lat="46.9913" lon="8.81834">
        <ele>1204</ele>
        <time>2021-08-04T08:30:20.837Z</time>
      </trkpt>
      <trkpt lat="46.99131" lon="8.81833">
        <ele>1204</ele>
        <time>2021-08-04T08:30:21.837Z</time>
      </trkpt>
      <trkpt lat="46.99132" lon="8.81832">
        <ele>1203</ele>
        <time>2021-08-04T08:30:22.836Z</time>
      </trkpt>
      <trkpt lat="46.99132" lon="8.81831">
        <ele>1203</ele>
        <time>2021-08-04T08:30:23.837Z</time>
      </trkpt>
      <trkpt lat="46.99133" lon="8.81829">
        <ele>1202</ele>
        <time>2021-08-04T08:30:24.837Z</time>
      </trkpt>
      <trkpt lat="46.99133" lon="8.81828">
        <ele>1202</ele>
        <time>2021-08-04T08:30:25.837Z</time>
      </trkpt>
      <trkpt lat="46.99134" lon="8.81827">
        <ele>1202</ele>
        <time>2021-08-04T08:30:26.836Z</time>
      </trkpt>
      <trkpt lat="46.99134" lon="8.81826">
        <ele>1201</ele>
        <time>2021-08-04T08:30:27.837Z</time>
      </trkpt>
      <trkpt lat="46.99134" lon="8.81824">
        <ele>1201</ele>
        <time>2021-08-04T08:30:28.837Z</time>
      </trkpt>
      <trkpt lat="46.99135" lon="8.81823">
        <ele>1201</ele>
        <time>2021-08-04T08:30:29.836Z</time>
      </trkpt>
      <trkpt lat="46.99136" lon="8.81821">
        <ele>1201</ele>
        <time>2021-08-04T08:30:30.837Z</time>
      </trkpt>
      <trkpt lat="46.99136" lon="8.81819">
        <ele>1201</ele>
        <time>2021-08-04T08:30:31.836Z</time>
      </trkpt>
      <trkpt lat="46.99137" lon="8.81818">
        <ele>1201</ele>
        <time>2021-08-04T08:30:32.836Z</time>
      </trkpt>
      <trkpt lat="46.99137" lon="8.81817">
        <ele>1201</ele>
        <time>2021-08-04T08:30:33.836Z</time>
      </trkpt>
      <trkpt lat="46.99137" lon="8.81815">
        <ele>1200</ele>
        <time>2021-08-04T08:30:34.836Z</time>
      </trkpt>
      <trkpt lat="46.99138" lon="8.81814">
        <ele>1200</ele>
        <time>2021-08-04T08:30:35.836Z</time>
      </trkpt>
      <trkpt lat="46.99138" lon="8.81813">
        <ele>1199</ele>
        <time>2021-08-04T08:30:36.836Z</time>
      </trkpt>
      <trkpt lat="46.99139" lon="8.81812">
        <ele>1199</ele>
        <time>2021-08-04T08:30:37.837Z</time>
      </trkpt>
      <trkpt lat="46.9914" lon="8.8181">
        <ele>1198</ele>
        <time>2021-08-04T08:30:38.836Z</time>
      </trkpt>
      <trkpt lat="46.9914" lon="8.81807">
        <ele>1198</ele>
        <time>2021-08-04T08:30:39.836Z</time>
      </trkpt>
      <trkpt lat="46.9914" lon="8.81804">
        <ele>1197</ele>
        <time>2021-08-04T08:30:40.836Z</time>
      </trkpt>
      <trkpt lat="46.9914" lon="8.81803">
        <ele>1197</ele>
        <time>2021-08-04T08:30:41.836Z</time>
      </trkpt>
      <trkpt lat="46.9914" lon="8.81801">
        <ele>1197</ele>
        <time>2021-08-04T08:30:42.836Z</time>
      </trkpt>
      <trkpt lat="46.9914" lon="8.818">
        <ele>1197</ele>
        <time>2021-08-04T08:30:43.836Z</time>
      </trkpt>
      <trkpt lat="46.99141" lon="8.81799">
        <ele>1197</ele>
        <time>2021-08-04T08:30:44.836Z</time>
      </trkpt>
      <trkpt lat="46.99141" lon="8.81798">
        <ele>1197</ele>
        <time>2021-08-04T08:30:45.837Z</time>
      </trkpt>
      <trkpt lat="46.99141" lon="8.81797">
        <ele>1197</ele>
        <time>2021-08-04T08:30:46.837Z</time>
      </trkpt>
      <trkpt lat="46.99141" lon="8.81796">
        <ele>1197</ele>
        <time>2021-08-04T08:30:47.836Z</time>
      </trkpt>
      <trkpt lat="46.99141" lon="8.81794">
        <ele>1197</ele>
        <time>2021-08-04T08:30:48.836Z</time>
      </trkpt>
      <trkpt lat="46.9914" lon="8.81791">
        <ele>1197</ele>
        <time>2021-08-04T08:30:49.836Z</time>
      </trkpt>
      <trkpt lat="46.99141" lon="8.81789">
        <ele>1197</ele>
        <time>2021-08-04T08:30:50.836Z</time>
      </trkpt>
      <trkpt lat="46.99141" lon="8.81787">
        <ele>1198</ele>
        <time>2021-08-04T08:30:51.836Z</time>
      </trkpt>
      <trkpt lat="46.99141" lon="8.81786">
        <ele>1198</ele>
        <time>2021-08-04T08:30:52.836Z</time>
      </trkpt>
      <trkpt lat="46.99141" lon="8.81785">
        <ele>1198</ele>
        <time>2021-08-04T08:30:53.837Z</time>
      </trkpt>
      <trkpt lat="46.99142" lon="8.81783">
        <ele>1199</ele>
        <time>2021-08-04T08:30:54.836Z</time>
      </trkpt>
      <trkpt lat="46.99142" lon="8.8178">
        <ele>1199</ele>
        <time>2021-08-04T08:30:55.836Z</time>
      </trkpt>
      <trkpt lat="46.99142" lon="8.81779">
        <ele>1200</ele>
        <time>2021-08-04T08:30:56.836Z</time>
      </trkpt>
      <trkpt lat="46.99143" lon="8.81777">
        <ele>1200</ele>
        <time>2021-08-04T08:30:57.836Z</time>
      </trkpt>
      <trkpt lat="46.99143" lon="8.81775">
        <ele>1200</ele>
        <time>2021-08-04T08:30:58.837Z</time>
      </trkpt>
      <trkpt lat="46.99144" lon="8.81773">
        <ele>1200</ele>
        <time>2021-08-04T08:30:59.836Z</time>
      </trkpt>
      <trkpt lat="46.99145" lon="8.81771">
        <ele>1200</ele>
        <time>2021-08-04T08:31:00.836Z</time>
      </trkpt>
      <trkpt lat="46.99146" lon="8.8177">
        <ele>1200</ele>
        <time>2021-08-04T08:31:01.837Z</time>
      </trkpt>
      <trkpt lat="46.99146" lon="8.81768">
        <ele>1200</ele>
        <time>2021-08-04T08:31:02.836Z</time>
      </trkpt>
      <trkpt lat="46.99146" lon="8.81767">
        <ele>1200</ele>
        <time>2021-08-04T08:31:03.837Z</time>
      </trkpt>
      <trkpt lat="46.99146" lon="8.81765">
        <ele>1200</ele>
        <time>2021-08-04T08:31:04.837Z</time>
      </trkpt>
      <trkpt lat="46.99146" lon="8.81764">
        <ele>1200</ele>
        <time>2021-08-04T08:31:05.837Z</time>
      </trkpt>
      <trkpt lat="46.99145" lon="8.81762">
        <ele>1201</ele>
        <time>2021-08-04T08:31:06.836Z</time>
      </trkpt>
      <trkpt lat="46.99144" lon="8.81761">
        <ele>1201</ele>
        <time>2021-08-04T08:31:07.837Z</time>
      </trkpt>
      <trkpt lat="46.99144" lon="8.81759">
        <ele>1200</ele>
        <time>2021-08-04T08:31:08.837Z</time>
      </trkpt>
      <trkpt lat="46.99144" lon="8.81756">
        <ele>1200</ele>
        <time>2021-08-04T08:31:09.837Z</time>
      </trkpt>
      <trkpt lat="46.99143" lon="8.81755">
        <ele>1199</ele>
        <time>2021-08-04T08:31:10.837Z</time>
      </trkpt>
      <trkpt lat="46.99143" lon="8.81754">
        <ele>1199</ele>
        <time>2021-08-04T08:31:11.837Z</time>
      </trkpt>
      <trkpt lat="46.99144" lon="8.81753">
        <ele>1198</ele>
        <time>2021-08-04T08:31:12.837Z</time>
      </trkpt>
      <trkpt lat="46.99145" lon="8.81752">
        <ele>1197</ele>
        <time>2021-08-04T08:31:13.837Z</time>
      </trkpt>
      <trkpt lat="46.99145" lon="8.81751">
        <ele>1197</ele>
        <time>2021-08-04T08:31:14.837Z</time>
      </trkpt>
      <trkpt lat="46.99144" lon="8.81749">
        <ele>1196</ele>
        <time>2021-08-04T08:31:15.837Z</time>
      </trkpt>
      <trkpt lat="46.99144" lon="8.81748">
        <ele>1195</ele>
        <time>2021-08-04T08:31:16.837Z</time>
      </trkpt>
      <trkpt lat="46.99144" lon="8.81747">
        <ele>1195</ele>
        <time>2021-08-04T08:31:17.837Z</time>
      </trkpt>
      <trkpt lat="46.99143" lon="8.81746">
        <ele>1195</ele>
        <time>2021-08-04T08:31:18.836Z</time>
      </trkpt>
      <trkpt lat="46.99143" lon="8.81744">
        <ele>1194</ele>
        <time>2021-08-04T08:31:19.837Z</time>
      </trkpt>
      <trkpt lat="46.99142" lon="8.81742">
        <ele>1193</ele>
        <time>2021-08-04T08:31:20.837Z</time>
      </trkpt>
      <trkpt lat="46.99142" lon="8.81742">
        <ele>1193</ele>
        <time>2021-08-04T08:31:21.837Z</time>
      </trkpt>
      <trkpt lat="46.99142" lon="8.8174">
        <ele>1192</ele>
        <time>2021-08-04T08:31:22.837Z</time>
      </trkpt>
      <trkpt lat="46.99142" lon="8.81739">
        <ele>1192</ele>
        <time>2021-08-04T08:31:23.836Z</time>
      </trkpt>
      <trkpt lat="46.99142" lon="8.81738">
        <ele>1191</ele>
        <time>2021-08-04T08:31:24.837Z</time>
      </trkpt>
      <trkpt lat="46.99142" lon="8.81737">
        <ele>1190</ele>
        <time>2021-08-04T08:31:25.836Z</time>
      </trkpt>
      <trkpt lat="46.99142" lon="8.81736">
        <ele>1190</ele>
        <time>2021-08-04T08:31:26.836Z</time>
      </trkpt>
      <trkpt lat="46.99142" lon="8.81735">
        <ele>1189</ele>
        <time>2021-08-04T08:31:27.837Z</time>
      </trkpt>
      <trkpt lat="46.99142" lon="8.81734">
        <ele>1189</ele>
        <time>2021-08-04T08:31:28.837Z</time>
      </trkpt>
      <trkpt lat="46.99142" lon="8.81734">
        <ele>1189</ele>
        <time>2021-08-04T08:31:29.836Z</time>
      </trkpt>
      <trkpt lat="46.99141" lon="8.81732">
        <ele>1188</ele>
        <time>2021-08-04T08:31:30.837Z</time>
      </trkpt>
      <trkpt lat="46.9914" lon="8.8173">
        <ele>1188</ele>
        <time>2021-08-04T08:31:31.836Z</time>
      </trkpt>
      <trkpt lat="46.99139" lon="8.81728">
        <ele>1188</ele>
        <time>2021-08-04T08:31:32.837Z</time>
      </trkpt>
      <trkpt lat="46.99138" lon="8.81727">
        <ele>1187</ele>
        <time>2021-08-04T08:31:33.836Z</time>
      </trkpt>
      <trkpt lat="46.99138" lon="8.81727">
        <ele>1187</ele>
        <time>2021-08-04T08:31:34.837Z</time>
      </trkpt>
      <trkpt lat="46.99137" lon="8.81727">
        <ele>1186</ele>
        <time>2021-08-04T08:31:35.837Z</time>
      </trkpt>
      <trkpt lat="46.99136" lon="8.81727">
        <ele>1186</ele>
        <time>2021-08-04T08:31:36.837Z</time>
      </trkpt>
      <trkpt lat="46.99135" lon="8.81728">
        <ele>1186</ele>
        <time>2021-08-04T08:31:37.837Z</time>
      </trkpt>
      <trkpt lat="46.99134" lon="8.81728">
        <ele>1185</ele>
        <time>2021-08-04T08:31:38.837Z</time>
      </trkpt>
      <trkpt lat="46.99133" lon="8.81728">
        <ele>1185</ele>
        <time>2021-08-04T08:31:39.837Z</time>
      </trkpt>
      <trkpt lat="46.99133" lon="8.81727">
        <ele>1185</ele>
        <time>2021-08-04T08:31:40.836Z</time>
      </trkpt>
      <trkpt lat="46.99132" lon="8.81727">
        <ele>1185</ele>
        <time>2021-08-04T08:31:41.837Z</time>
      </trkpt>
      <trkpt lat="46.99132" lon="8.81726">
        <ele>1184</ele>
        <time>2021-08-04T08:31:42.836Z</time>
      </trkpt>
      <trkpt lat="46.99132" lon="8.81725">
        <ele>1184</ele>
        <time>2021-08-04T08:31:43.836Z</time>
      </trkpt>
      <trkpt lat="46.99132" lon="8.81724">
        <ele>1184</ele>
        <time>2021-08-04T08:31:44.837Z</time>
      </trkpt>
      <trkpt lat="46.99132" lon="8.81723">
        <ele>1184</ele>
        <time>2021-08-04T08:31:45.836Z</time>
      </trkpt>
      <trkpt lat="46.99133" lon="8.81722">
        <ele>1184</ele>
        <time>2021-08-04T08:31:46.837Z</time>
      </trkpt>
      <trkpt lat="46.99133" lon="8.81722">
        <ele>1184</ele>
        <time>2021-08-04T08:31:47.837Z</time>
      </trkpt>
      <trkpt lat="46.99134" lon="8.81721">
        <ele>1184</ele>
        <time>2021-08-04T08:31:48.837Z</time>
      </trkpt>
      <trkpt lat="46.99135" lon="8.81721">
        <ele>1184</ele>
        <time>2021-08-04T08:31:49.837Z</time>
      </trkpt>
      <trkpt lat="46.99135" lon="8.8172">
        <ele>1184</ele>
        <time>2021-08-04T08:31:50.836Z</time>
      </trkpt>
      <trkpt lat="46.99135" lon="8.81719">
        <ele>1185</ele>
        <time>2021-08-04T08:31:51.837Z</time>
      </trkpt>
      <trkpt lat="46.99136" lon="8.81719">
        <ele>1185</ele>
        <time>2021-08-04T08:31:52.836Z</time>
      </trkpt>
      <trkpt lat="46.99137" lon="8.81719">
        <ele>1184</ele>
        <time>2021-08-04T08:31:53.837Z</time>
      </trkpt>
      <trkpt lat="46.99139" lon="8.8172">
        <ele>1184</ele>
        <time>2021-08-04T08:31:54.837Z</time>
      </trkpt>
      <trkpt lat="46.9914" lon="8.81719">
        <ele>1184</ele>
        <time>2021-08-04T08:31:55.836Z</time>
      </trkpt>
      <trkpt lat="46.99141" lon="8.81718">
        <ele>1184</ele>
        <time>2021-08-04T08:31:56.836Z</time>
      </trkpt>
      <trkpt lat="46.99143" lon="8.81718">
        <ele>1184</ele>
        <time>2021-08-04T08:31:57.836Z</time>
      </trkpt>
      <trkpt lat="46.99145" lon="8.81719">
        <ele>1184</ele>
        <time>2021-08-04T08:31:58.836Z</time>
      </trkpt>
      <trkpt lat="46.99146" lon="8.81719">
        <ele>1184</ele>
        <time>2021-08-04T08:31:59.836Z</time>
      </trkpt>
      <trkpt lat="46.99147" lon="8.81718">
        <ele>1184</ele>
        <time>2021-08-04T08:32:00.836Z</time>
      </trkpt>
      <trkpt lat="46.99148" lon="8.81718">
        <ele>1184</ele>
        <time>2021-08-04T08:32:01.836Z</time>
      </trkpt>
      <trkpt lat="46.99148" lon="8.81718">
        <ele>1184</ele>
        <time>2021-08-04T08:32:02.837Z</time>
      </trkpt>
      <trkpt lat="46.99149" lon="8.81717">
        <ele>1184</ele>
        <time>2021-08-04T08:32:03.837Z</time>
      </trkpt>
      <trkpt lat="46.9915" lon="8.81716">
        <ele>1184</ele>
        <time>2021-08-04T08:32:04.836Z</time>
      </trkpt>
      <trkpt lat="46.99151" lon="8.81716">
        <ele>1184</ele>
        <time>2021-08-04T08:32:05.836Z</time>
      </trkpt>
      <trkpt lat="46.99152" lon="8.81715">
        <ele>1184</ele>
        <time>2021-08-04T08:32:06.837Z</time>
      </trkpt>
      <trkpt lat="46.99153" lon="8.81715">
        <ele>1184</ele>
        <time>2021-08-04T08:32:07.837Z</time>
      </trkpt>
      <trkpt lat="46.99154" lon="8.81715">
        <ele>1184</ele>
        <time>2021-08-04T08:32:08.836Z</time>
      </trkpt>
      <trkpt lat="46.99154" lon="8.81714">
        <ele>1184</ele>
        <time>2021-08-04T08:32:09.837Z</time>
      </trkpt>
      <trkpt lat="46.99154" lon="8.81714">
        <ele>1184</ele>
        <time>2021-08-04T08:32:10.836Z</time>
      </trkpt>
      <trkpt lat="46.99155" lon="8.81714">
        <ele>1184</ele>
        <time>2021-08-04T08:32:11.837Z</time>
      </trkpt>
      <trkpt lat="46.99155" lon="8.81714">
        <ele>1184</ele>
        <time>2021-08-04T08:32:12.837Z</time>
      </trkpt>
      <trkpt lat="46.99155" lon="8.81715">
        <ele>1184</ele>
        <time>2021-08-04T08:32:13.836Z</time>
      </trkpt>
      <trkpt lat="46.99156" lon="8.81714">
        <ele>1184</ele>
        <time>2021-08-04T08:32:14.836Z</time>
      </trkpt>
      <trkpt lat="46.99157" lon="8.81713">
        <ele>1185</ele>
        <time>2021-08-04T08:32:15.836Z</time>
      </trkpt>
      <trkpt lat="46.99158" lon="8.81712">
        <ele>1185</ele>
        <time>2021-08-04T08:32:16.837Z</time>
      </trkpt>
      <trkpt lat="46.99159" lon="8.8171">
        <ele>1185</ele>
        <time>2021-08-04T08:32:17.836Z</time>
      </trkpt>
      <trkpt lat="46.99161" lon="8.81709">
        <ele>1185</ele>
        <time>2021-08-04T08:32:18.836Z</time>
      </trkpt>
      <trkpt lat="46.99162" lon="8.81708">
        <ele>1185</ele>
        <time>2021-08-04T08:32:19.836Z</time>
      </trkpt>
      <trkpt lat="46.99163" lon="8.81708">
        <ele>1186</ele>
        <time>2021-08-04T08:32:20.836Z</time>
      </trkpt>
      <trkpt lat="46.99164" lon="8.81709">
        <ele>1186</ele>
        <time>2021-08-04T08:32:21.836Z</time>
      </trkpt>
      <trkpt lat="46.99163" lon="8.81709">
        <ele>1186</ele>
        <time>2021-08-04T08:32:22.836Z</time>
      </trkpt>
      <trkpt lat="46.99162" lon="8.81709">
        <ele>1186</ele>
        <time>2021-08-04T08:32:23.837Z</time>
      </trkpt>
      <trkpt lat="46.99162" lon="8.81709">
        <ele>1187</ele>
        <time>2021-08-04T08:32:24.837Z</time>
      </trkpt>
      <trkpt lat="46.99163" lon="8.81709">
        <ele>1187</ele>
        <time>2021-08-04T08:32:25.836Z</time>
      </trkpt>
      <trkpt lat="46.99164" lon="8.8171">
        <ele>1187</ele>
        <time>2021-08-04T08:32:26.836Z</time>
      </trkpt>
      <trkpt lat="46.99166" lon="8.8171">
        <ele>1188</ele>
        <time>2021-08-04T08:32:27.836Z</time>
      </trkpt>
      <trkpt lat="46.99167" lon="8.8171">
        <ele>1188</ele>
        <time>2021-08-04T08:32:28.837Z</time>
      </trkpt>
      <trkpt lat="46.99168" lon="8.8171">
        <ele>1188</ele>
        <time>2021-08-04T08:32:29.837Z</time>
      </trkpt>
      <trkpt lat="46.99169" lon="8.8171">
        <ele>1187</ele>
        <time>2021-08-04T08:32:30.836Z</time>
      </trkpt>
      <trkpt lat="46.99169" lon="8.8171">
        <ele>1187</ele>
        <time>2021-08-04T08:32:31.836Z</time>
      </trkpt>
      <trkpt lat="46.9917" lon="8.81711">
        <ele>1186</ele>
        <time>2021-08-04T08:32:32.836Z</time>
      </trkpt>
      <trkpt lat="46.99171" lon="8.81711">
        <ele>1185</ele>
        <time>2021-08-04T08:32:33.836Z</time>
      </trkpt>
      <trkpt lat="46.99172" lon="8.81711">
        <ele>1184</ele>
        <time>2021-08-04T08:32:34.837Z</time>
      </trkpt>
      <trkpt lat="46.99172" lon="8.81711">
        <ele>1183</ele>
        <time>2021-08-04T08:32:35.836Z</time>
      </trkpt>
      <trkpt lat="46.99173" lon="8.81711">
        <ele>1183</ele>
        <time>2021-08-04T08:32:36.837Z</time>
      </trkpt>
      <trkpt lat="46.99175" lon="8.81713">
        <ele>1181</ele>
        <time>2021-08-04T08:32:37.838Z</time>
      </trkpt>
      <trkpt lat="46.99176" lon="8.81714">
        <ele>1181</ele>
        <time>2021-08-04T08:32:38.837Z</time>
      </trkpt>
      <trkpt lat="46.99177" lon="8.81714">
        <ele>1181</ele>
        <time>2021-08-04T08:32:39.837Z</time>
      </trkpt>
      <trkpt lat="46.99179" lon="8.81715">
        <ele>1181</ele>
        <time>2021-08-04T08:32:40.837Z</time>
      </trkpt>
      <trkpt lat="46.9918" lon="8.81716">
        <ele>1181</ele>
        <time>2021-08-04T08:32:41.837Z</time>
      </trkpt>
      <trkpt lat="46.99181" lon="8.81717">
        <ele>1181</ele>
        <time>2021-08-04T08:32:42.837Z</time>
      </trkpt>
      <trkpt lat="46.99183" lon="8.81718">
        <ele>1180</ele>
        <time>2021-08-04T08:32:43.838Z</time>
      </trkpt>
      <trkpt lat="46.99184" lon="8.81719">
        <ele>1180</ele>
        <time>2021-08-04T08:32:44.837Z</time>
      </trkpt>
      <trkpt lat="46.99185" lon="8.8172">
        <ele>1180</ele>
        <time>2021-08-04T08:32:45.837Z</time>
      </trkpt>
      <trkpt lat="46.99185" lon="8.81722">
        <ele>1180</ele>
        <time>2021-08-04T08:32:46.837Z</time>
      </trkpt>
      <trkpt lat="46.99187" lon="8.81723">
        <ele>1180</ele>
        <time>2021-08-04T08:32:47.837Z</time>
      </trkpt>
      <trkpt lat="46.99189" lon="8.81724">
        <ele>1179</ele>
        <time>2021-08-04T08:32:48.837Z</time>
      </trkpt>
      <trkpt lat="46.9919" lon="8.81725">
        <ele>1179</ele>
        <time>2021-08-04T08:32:49.837Z</time>
      </trkpt>
      <trkpt lat="46.99191" lon="8.81726">
        <ele>1178</ele>
        <time>2021-08-04T08:32:50.837Z</time>
      </trkpt>
      <trkpt lat="46.99192" lon="8.81726">
        <ele>1178</ele>
        <time>2021-08-04T08:32:51.837Z</time>
      </trkpt>
      <trkpt lat="46.99194" lon="8.81726">
        <ele>1178</ele>
        <time>2021-08-04T08:32:52.837Z</time>
      </trkpt>
      <trkpt lat="46.99195" lon="8.81726">
        <ele>1178</ele>
        <time>2021-08-04T08:32:53.837Z</time>
      </trkpt>
      <trkpt lat="46.99196" lon="8.81726">
        <ele>1179</ele>
        <time>2021-08-04T08:32:54.837Z</time>
      </trkpt>
      <trkpt lat="46.99195" lon="8.81725">
        <ele>1179</ele>
        <time>2021-08-04T08:32:55.837Z</time>
      </trkpt>
      <trkpt lat="46.99196" lon="8.81725">
        <ele>1179</ele>
        <time>2021-08-04T08:32:56.838Z</time>
      </trkpt>
      <trkpt lat="46.99196" lon="8.81724">
        <ele>1178</ele>
        <time>2021-08-04T08:32:57.837Z</time>
      </trkpt>
      <trkpt lat="46.99196" lon="8.81724">
        <ele>1178</ele>
        <time>2021-08-04T08:32:58.837Z</time>
      </trkpt>
      <trkpt lat="46.99199" lon="8.81724">
        <ele>1178</ele>
        <time>2021-08-04T08:32:59.838Z</time>
      </trkpt>
      <trkpt lat="46.992" lon="8.81723">
        <ele>1177</ele>
        <time>2021-08-04T08:33:00.837Z</time>
      </trkpt>
      <trkpt lat="46.992" lon="8.81721">
        <ele>1177</ele>
        <time>2021-08-04T08:33:01.838Z</time>
      </trkpt>
      <trkpt lat="46.99201" lon="8.81719">
        <ele>1176</ele>
        <time>2021-08-04T08:33:02.837Z</time>
      </trkpt>
      <trkpt lat="46.99202" lon="8.81718">
        <ele>1176</ele>
        <time>2021-08-04T08:33:03.837Z</time>
      </trkpt>
      <trkpt lat="46.99203" lon="8.81716">
        <ele>1175</ele>
        <time>2021-08-04T08:33:04.837Z</time>
      </trkpt>
      <trkpt lat="46.99204" lon="8.81715">
        <ele>1175</ele>
        <time>2021-08-04T08:33:05.837Z</time>
      </trkpt>
      <trkpt lat="46.99205" lon="8.81713">
        <ele>1174</ele>
        <time>2021-08-04T08:33:06.837Z</time>
      </trkpt>
      <trkpt lat="46.99206" lon="8.81712">
        <ele>1174</ele>
        <time>2021-08-04T08:33:07.838Z</time>
      </trkpt>
      <trkpt lat="46.99207" lon="8.8171">
        <ele>1173</ele>
        <time>2021-08-04T08:33:08.837Z</time>
      </trkpt>
      <trkpt lat="46.99208" lon="8.81709">
        <ele>1173</ele>
        <time>2021-08-04T08:33:09.838Z</time>
      </trkpt>
      <trkpt lat="46.99208" lon="8.81707">
        <ele>1172</ele>
        <time>2021-08-04T08:33:10.837Z</time>
      </trkpt>
      <trkpt lat="46.99208" lon="8.81706">
        <ele>1172</ele>
        <time>2021-08-04T08:33:11.837Z</time>
      </trkpt>
      <trkpt lat="46.99208" lon="8.81705">
        <ele>1171</ele>
        <time>2021-08-04T08:33:12.837Z</time>
      </trkpt>
      <trkpt lat="46.99209" lon="8.81704">
        <ele>1171</ele>
        <time>2021-08-04T08:33:13.837Z</time>
      </trkpt>
      <trkpt lat="46.99209" lon="8.81702">
        <ele>1171</ele>
        <time>2021-08-04T08:33:14.838Z</time>
      </trkpt>
      <trkpt lat="46.99209" lon="8.817">
        <ele>1171</ele>
        <time>2021-08-04T08:33:15.837Z</time>
      </trkpt>
      <trkpt lat="46.99209" lon="8.81699">
        <ele>1171</ele>
        <time>2021-08-04T08:33:16.837Z</time>
      </trkpt>
      <trkpt lat="46.99209" lon="8.81698">
        <ele>1171</ele>
        <time>2021-08-04T08:33:17.837Z</time>
      </trkpt>
      <trkpt lat="46.9921" lon="8.81698">
        <ele>1171</ele>
        <time>2021-08-04T08:33:18.837Z</time>
      </trkpt>
      <trkpt lat="46.9921" lon="8.81697">
        <ele>1171</ele>
        <time>2021-08-04T08:33:19.837Z</time>
      </trkpt>
      <trkpt lat="46.9921" lon="8.81697">
        <ele>1171</ele>
        <time>2021-08-04T08:33:20.837Z</time>
      </trkpt>
      <trkpt lat="46.99211" lon="8.81695">
        <ele>1171</ele>
        <time>2021-08-04T08:33:21.837Z</time>
      </trkpt>
      <trkpt lat="46.99212" lon="8.81694">
        <ele>1171</ele>
        <time>2021-08-04T08:33:22.837Z</time>
      </trkpt>
      <trkpt lat="46.99212" lon="8.81693">
        <ele>1170</ele>
        <time>2021-08-04T08:33:23.837Z</time>
      </trkpt>
      <trkpt lat="46.99213" lon="8.81691">
        <ele>1170</ele>
        <time>2021-08-04T08:33:24.837Z</time>
      </trkpt>
      <trkpt lat="46.99214" lon="8.8169">
        <ele>1170</ele>
        <time>2021-08-04T08:33:25.837Z</time>
      </trkpt>
      <trkpt lat="46.99214" lon="8.81689">
        <ele>1169</ele>
        <time>2021-08-04T08:33:26.837Z</time>
      </trkpt>
      <trkpt lat="46.99214" lon="8.81687">
        <ele>1169</ele>
        <time>2021-08-04T08:33:27.837Z</time>
      </trkpt>
      <trkpt lat="46.99214" lon="8.81685">
        <ele>1169</ele>
        <time>2021-08-04T08:33:28.838Z</time>
      </trkpt>
      <trkpt lat="46.99213" lon="8.81683">
        <ele>1169</ele>
        <time>2021-08-04T08:33:29.838Z</time>
      </trkpt>
      <trkpt lat="46.99212" lon="8.81681">
        <ele>1169</ele>
        <time>2021-08-04T08:33:30.837Z</time>
      </trkpt>
      <trkpt lat="46.99212" lon="8.8168">
        <ele>1169</ele>
        <time>2021-08-04T08:33:31.837Z</time>
      </trkpt>
      <trkpt lat="46.99212" lon="8.81679">
        <ele>1169</ele>
        <time>2021-08-04T08:33:32.838Z</time>
      </trkpt>
      <trkpt lat="46.99213" lon="8.81678">
        <ele>1169</ele>
        <time>2021-08-04T08:33:33.837Z</time>
      </trkpt>
      <trkpt lat="46.99212" lon="8.81677">
        <ele>1169</ele>
        <time>2021-08-04T08:33:34.837Z</time>
      </trkpt>
      <trkpt lat="46.99212" lon="8.81675">
        <ele>1169</ele>
        <time>2021-08-04T08:33:35.837Z</time>
      </trkpt>
      <trkpt lat="46.99211" lon="8.81674">
        <ele>1169</ele>
        <time>2021-08-04T08:33:36.838Z</time>
      </trkpt>
      <trkpt lat="46.99211" lon="8.81672">
        <ele>1168</ele>
        <time>2021-08-04T08:33:37.837Z</time>
      </trkpt>
      <trkpt lat="46.99211" lon="8.81671">
        <ele>1168</ele>
        <time>2021-08-04T08:33:38.837Z</time>
      </trkpt>
      <trkpt lat="46.99211" lon="8.81669">
        <ele>1168</ele>
        <time>2021-08-04T08:33:39.837Z</time>
      </trkpt>
      <trkpt lat="46.9921" lon="8.81668">
        <ele>1168</ele>
        <time>2021-08-04T08:33:40.837Z</time>
      </trkpt>
      <trkpt lat="46.9921" lon="8.81667">
        <ele>1168</ele>
        <time>2021-08-04T08:33:41.838Z</time>
      </trkpt>
      <trkpt lat="46.9921" lon="8.81665">
        <ele>1168</ele>
        <time>2021-08-04T08:33:42.837Z</time>
      </trkpt>
      <trkpt lat="46.99211" lon="8.81665">
        <ele>1167</ele>
        <time>2021-08-04T08:33:43.837Z</time>
      </trkpt>
      <trkpt lat="46.99211" lon="8.81664">
        <ele>1167</ele>
        <time>2021-08-04T08:33:44.837Z</time>
      </trkpt>
      <trkpt lat="46.99211" lon="8.81664">
        <ele>1167</ele>
        <time>2021-08-04T08:33:45.837Z</time>
      </trkpt>
      <trkpt lat="46.99211" lon="8.81663">
        <ele>1167</ele>
        <time>2021-08-04T08:33:46.837Z</time>
      </trkpt>
      <trkpt lat="46.99211" lon="8.81663">
        <ele>1167</ele>
        <time>2021-08-04T08:33:47.837Z</time>
      </trkpt>
      <trkpt lat="46.99211" lon="8.81663">
        <ele>1167</ele>
        <time>2021-08-04T08:33:48.837Z</time>
      </trkpt>
      <trkpt lat="46.99212" lon="8.81663">
        <ele>1168</ele>
        <time>2021-08-04T08:33:49.838Z</time>
      </trkpt>
      <trkpt lat="46.99209" lon="8.81664">
        <ele>1166</ele>
        <time>2021-08-04T08:33:50.839Z</time>
      </trkpt>
      <trkpt lat="46.99209" lon="8.81664">
        <ele>1165</ele>
        <time>2021-08-04T08:33:51.838Z</time>
      </trkpt>
      <trkpt lat="46.99208" lon="8.81664">
        <ele>1165</ele>
        <time>2021-08-04T08:33:52.838Z</time>
      </trkpt>
      <trkpt lat="46.99208" lon="8.81665">
        <ele>1164</ele>
        <time>2021-08-04T08:33:53.838Z</time>
      </trkpt>
      <trkpt lat="46.99207" lon="8.81666">
        <ele>1163</ele>
        <time>2021-08-04T08:33:54.839Z</time>
      </trkpt>
      <trkpt lat="46.99207" lon="8.81666">
        <ele>1162</ele>
        <time>2021-08-04T08:33:55.838Z</time>
      </trkpt>
      <trkpt lat="46.99206" lon="8.81666">
        <ele>1161</ele>
        <time>2021-08-04T08:33:56.838Z</time>
      </trkpt>
      <trkpt lat="46.99205" lon="8.81666">
        <ele>1161</ele>
        <time>2021-08-04T08:33:57.838Z</time>
      </trkpt>
      <trkpt lat="46.99204" lon="8.81666">
        <ele>1160</ele>
        <time>2021-08-04T08:33:58.838Z</time>
      </trkpt>
      <trkpt lat="46.99203" lon="8.81665">
        <ele>1160</ele>
        <time>2021-08-04T08:33:59.838Z</time>
      </trkpt>
      <trkpt lat="46.99203" lon="8.81664">
        <ele>1160</ele>
        <time>2021-08-04T08:34:00.839Z</time>
      </trkpt>
      <trkpt lat="46.99202" lon="8.81664">
        <ele>1160</ele>
        <time>2021-08-04T08:34:01.838Z</time>
      </trkpt>
      <trkpt lat="46.99202" lon="8.81663">
        <ele>1160</ele>
        <time>2021-08-04T08:34:02.838Z</time>
      </trkpt>
      <trkpt lat="46.99201" lon="8.81661">
        <ele>1160</ele>
        <time>2021-08-04T08:34:03.838Z</time>
      </trkpt>
      <trkpt lat="46.99201" lon="8.8166">
        <ele>1159</ele>
        <time>2021-08-04T08:34:04.838Z</time>
      </trkpt>
      <trkpt lat="46.992" lon="8.81659">
        <ele>1159</ele>
        <time>2021-08-04T08:34:05.838Z</time>
      </trkpt>
      <trkpt lat="46.992" lon="8.81658">
        <ele>1159</ele>
        <time>2021-08-04T08:34:06.838Z</time>
      </trkpt>
      <trkpt lat="46.99199" lon="8.81658">
        <ele>1159</ele>
        <time>2021-08-04T08:34:07.838Z</time>
      </trkpt>
      <trkpt lat="46.99199" lon="8.81658">
        <ele>1159</ele>
        <time>2021-08-04T08:34:08.839Z</time>
      </trkpt>
      <trkpt lat="46.99199" lon="8.81658">
        <ele>1158</ele>
        <time>2021-08-04T08:34:09.838Z</time>
      </trkpt>
      <trkpt lat="46.99198" lon="8.81658">
        <ele>1158</ele>
        <time>2021-08-04T08:34:10.839Z</time>
      </trkpt>
      <trkpt lat="46.99198" lon="8.81658">
        <ele>1158</ele>
        <time>2021-08-04T08:34:11.838Z</time>
      </trkpt>
      <trkpt lat="46.99198" lon="8.81657">
        <ele>1158</ele>
        <time>2021-08-04T08:34:12.838Z</time>
      </trkpt>
      <trkpt lat="46.99198" lon="8.81657">
        <ele>1158</ele>
        <time>2021-08-04T08:34:13.838Z</time>
      </trkpt>
      <trkpt lat="46.99198" lon="8.81656">
        <ele>1158</ele>
        <time>2021-08-04T08:34:14.839Z</time>
      </trkpt>
      <trkpt lat="46.99198" lon="8.81655">
        <ele>1158</ele>
        <time>2021-08-04T08:34:15.838Z</time>
      </trkpt>
      <trkpt lat="46.99198" lon="8.81653">
        <ele>1158</ele>
        <time>2021-08-04T08:34:16.838Z</time>
      </trkpt>
      <trkpt lat="46.99199" lon="8.81652">
        <ele>1159</ele>
        <time>2021-08-04T08:34:17.839Z</time>
      </trkpt>
      <trkpt lat="46.99199" lon="8.8165">
        <ele>1159</ele>
        <time>2021-08-04T08:34:18.838Z</time>
      </trkpt>
      <trkpt lat="46.99199" lon="8.81648">
        <ele>1159</ele>
        <time>2021-08-04T08:34:19.838Z</time>
      </trkpt>
      <trkpt lat="46.992" lon="8.81647">
        <ele>1160</ele>
        <time>2021-08-04T08:34:20.838Z</time>
      </trkpt>
      <trkpt lat="46.99199" lon="8.81646">
        <ele>1160</ele>
        <time>2021-08-04T08:34:21.838Z</time>
      </trkpt>
      <trkpt lat="46.99199" lon="8.81644">
        <ele>1161</ele>
        <time>2021-08-04T08:34:22.838Z</time>
      </trkpt>
      <trkpt lat="46.99197" lon="8.81643">
        <ele>1161</ele>
        <time>2021-08-04T08:34:23.838Z</time>
      </trkpt>
      <trkpt lat="46.99196" lon="8.81641">
        <ele>1161</ele>
        <time>2021-08-04T08:34:24.838Z</time>
      </trkpt>
      <trkpt lat="46.99195" lon="8.81641">
        <ele>1162</ele>
        <time>2021-08-04T08:34:25.838Z</time>
      </trkpt>
      <trkpt lat="46.99195" lon="8.8164">
        <ele>1162</ele>
        <time>2021-08-04T08:34:26.838Z</time>
      </trkpt>
      <trkpt lat="46.99194" lon="8.81639">
        <ele>1162</ele>
        <time>2021-08-04T08:34:27.838Z</time>
      </trkpt>
      <trkpt lat="46.99193" lon="8.81638">
        <ele>1162</ele>
        <time>2021-08-04T08:34:28.838Z</time>
      </trkpt>
      <trkpt lat="46.99192" lon="8.81637">
        <ele>1161</ele>
        <time>2021-08-04T08:34:29.838Z</time>
      </trkpt>
      <trkpt lat="46.99191" lon="8.81636">
        <ele>1161</ele>
        <time>2021-08-04T08:34:30.838Z</time>
      </trkpt>
      <trkpt lat="46.9919" lon="8.81636">
        <ele>1161</ele>
        <time>2021-08-04T08:34:31.838Z</time>
      </trkpt>
      <trkpt lat="46.99189" lon="8.81635">
        <ele>1161</ele>
        <time>2021-08-04T08:34:32.838Z</time>
      </trkpt>
      <trkpt lat="46.99188" lon="8.81634">
        <ele>1161</ele>
        <time>2021-08-04T08:34:33.838Z</time>
      </trkpt>
      <trkpt lat="46.99188" lon="8.81633">
        <ele>1161</ele>
        <time>2021-08-04T08:34:34.838Z</time>
      </trkpt>
      <trkpt lat="46.99188" lon="8.81632">
        <ele>1161</ele>
        <time>2021-08-04T08:34:35.838Z</time>
      </trkpt>
      <trkpt lat="46.99188" lon="8.81631">
        <ele>1161</ele>
        <time>2021-08-04T08:34:36.838Z</time>
      </trkpt>
      <trkpt lat="46.99188" lon="8.8163">
        <ele>1162</ele>
        <time>2021-08-04T08:34:37.839Z</time>
      </trkpt>
      <trkpt lat="46.99188" lon="8.81629">
        <ele>1162</ele>
        <time>2021-08-04T08:34:38.838Z</time>
      </trkpt>
      <trkpt lat="46.99188" lon="8.81629">
        <ele>1161</ele>
        <time>2021-08-04T08:34:39.838Z</time>
      </trkpt>
      <trkpt lat="46.99189" lon="8.81629">
        <ele>1160</ele>
        <time>2021-08-04T08:34:40.838Z</time>
      </trkpt>
      <trkpt lat="46.99189" lon="8.81628">
        <ele>1160</ele>
        <time>2021-08-04T08:34:41.839Z</time>
      </trkpt>
      <trkpt lat="46.99189" lon="8.81627">
        <ele>1159</ele>
        <time>2021-08-04T08:34:42.838Z</time>
      </trkpt>
      <trkpt lat="46.99189" lon="8.81627">
        <ele>1158</ele>
        <time>2021-08-04T08:34:43.838Z</time>
      </trkpt>
      <trkpt lat="46.99188" lon="8.81627">
        <ele>1158</ele>
        <time>2021-08-04T08:34:44.838Z</time>
      </trkpt>
      <trkpt lat="46.99188" lon="8.81628">
        <ele>1157</ele>
        <time>2021-08-04T08:34:45.839Z</time>
      </trkpt>
      <trkpt lat="46.99187" lon="8.81628">
        <ele>1156</ele>
        <time>2021-08-04T08:34:46.838Z</time>
      </trkpt>
      <trkpt lat="46.99188" lon="8.81628">
        <ele>1156</ele>
        <time>2021-08-04T08:34:47.838Z</time>
      </trkpt>
      <trkpt lat="46.99188" lon="8.81628">
        <ele>1156</ele>
        <time>2021-08-04T08:34:48.838Z</time>
      </trkpt>
      <trkpt lat="46.99189" lon="8.81627">
        <ele>1155</ele>
        <time>2021-08-04T08:34:49.838Z</time>
      </trkpt>
      <trkpt lat="46.99189" lon="8.81627">
        <ele>1156</ele>
        <time>2021-08-04T08:34:50.838Z</time>
      </trkpt>
      <trkpt lat="46.99189" lon="8.81627">
        <ele>1156</ele>
        <time>2021-08-04T08:34:51.838Z</time>
      </trkpt>
      <trkpt lat="46.99189" lon="8.81627">
        <ele>1156</ele>
        <time>2021-08-04T08:34:52.838Z</time>
      </trkpt>
      <trkpt lat="46.99192" lon="8.81628">
        <ele>1157</ele>
        <time>2021-08-04T08:34:53.839Z</time>
      </trkpt>
      <trkpt lat="46.99192" lon="8.81629">
        <ele>1157</ele>
        <time>2021-08-04T08:34:54.838Z</time>
      </trkpt>
      <trkpt lat="46.99193" lon="8.81629">
        <ele>1157</ele>
        <time>2021-08-04T08:34:55.839Z</time>
      </trkpt>
      <trkpt lat="46.99193" lon="8.81629">
        <ele>1157</ele>
        <time>2021-08-04T08:34:56.839Z</time>
      </trkpt>
      <trkpt lat="46.99193" lon="8.81629">
        <ele>1157</ele>
        <time>2021-08-04T08:34:57.839Z</time>
      </trkpt>
      <trkpt lat="46.99194" lon="8.8163">
        <ele>1157</ele>
        <time>2021-08-04T08:34:58.839Z</time>
      </trkpt>
      <trkpt lat="46.99195" lon="8.8163">
        <ele>1157</ele>
        <time>2021-08-04T08:34:59.839Z</time>
      </trkpt>
      <trkpt lat="46.99196" lon="8.8163">
        <ele>1157</ele>
        <time>2021-08-04T08:35:00.839Z</time>
      </trkpt>
      <trkpt lat="46.99197" lon="8.8163">
        <ele>1157</ele>
        <time>2021-08-04T08:35:01.839Z</time>
      </trkpt>
      <trkpt lat="46.99198" lon="8.8163">
        <ele>1157</ele>
        <time>2021-08-04T08:35:02.839Z</time>
      </trkpt>
      <trkpt lat="46.99198" lon="8.8163">
        <ele>1157</ele>
        <time>2021-08-04T08:35:03.839Z</time>
      </trkpt>
      <trkpt lat="46.99199" lon="8.81629">
        <ele>1157</ele>
        <time>2021-08-04T08:35:04.839Z</time>
      </trkpt>
      <trkpt lat="46.992" lon="8.8163">
        <ele>1157</ele>
        <time>2021-08-04T08:35:05.839Z</time>
      </trkpt>
      <trkpt lat="46.992" lon="8.8163">
        <ele>1157</ele>
        <time>2021-08-04T08:35:06.839Z</time>
      </trkpt>
      <trkpt lat="46.992" lon="8.81631">
        <ele>1157</ele>
        <time>2021-08-04T08:35:07.838Z</time>
      </trkpt>
      <trkpt lat="46.99199" lon="8.81632">
        <ele>1155</ele>
        <time>2021-08-04T08:35:08.840Z</time>
      </trkpt>
      <trkpt lat="46.99199" lon="8.81632">
        <ele>1154</ele>
        <time>2021-08-04T08:35:09.839Z</time>
      </trkpt>
      <trkpt lat="46.99202" lon="8.81629">
        <ele>1145</ele>
        <time>2021-08-04T08:35:10.839Z</time>
      </trkpt>
      <trkpt lat="46.99202" lon="8.81629">
        <ele>1145</ele>
        <time>2021-08-04T08:35:11.839Z</time>
      </trkpt>
      <trkpt lat="46.99199" lon="8.81627">
        <ele>1147</ele>
        <time>2021-08-04T08:35:12.841Z</time>
      </trkpt>
      <trkpt lat="46.99199" lon="8.81626">
        <ele>1147</ele>
        <time>2021-08-04T08:35:13.841Z</time>
      </trkpt>
      <trkpt lat="46.992" lon="8.81626">
        <ele>1147</ele>
        <time>2021-08-04T08:35:14.841Z</time>
      </trkpt>
      <trkpt lat="46.992" lon="8.81626">
        <ele>1147</ele>
        <time>2021-08-04T08:35:15.840Z</time>
      </trkpt>
      <trkpt lat="46.992" lon="8.81625">
        <ele>1147</ele>
        <time>2021-08-04T08:35:16.840Z</time>
      </trkpt>
      <trkpt lat="46.992" lon="8.81624">
        <ele>1147</ele>
        <time>2021-08-04T08:35:17.840Z</time>
      </trkpt>
      <trkpt lat="46.992" lon="8.81623">
        <ele>1147</ele>
        <time>2021-08-04T08:35:18.841Z</time>
      </trkpt>
      <trkpt lat="46.992" lon="8.81623">
        <ele>1148</ele>
        <time>2021-08-04T08:35:19.841Z</time>
      </trkpt>
      <trkpt lat="46.99201" lon="8.81622">
        <ele>1153</ele>
        <time>2021-08-04T08:35:20.842Z</time>
      </trkpt>
      <trkpt lat="46.99202" lon="8.81621">
        <ele>1155</ele>
        <time>2021-08-04T08:35:21.842Z</time>
      </trkpt>
      <trkpt lat="46.99202" lon="8.8162">
        <ele>1155</ele>
        <time>2021-08-04T08:35:22.842Z</time>
      </trkpt>
      <trkpt lat="46.99203" lon="8.81619">
        <ele>1156</ele>
        <time>2021-08-04T08:35:23.842Z</time>
      </trkpt>
      <trkpt lat="46.99203" lon="8.81618">
        <ele>1157</ele>
        <time>2021-08-04T08:35:24.842Z</time>
      </trkpt>
      <trkpt lat="46.99203" lon="8.81618">
        <ele>1157</ele>
        <time>2021-08-04T08:35:25.842Z</time>
      </trkpt>
      <trkpt lat="46.99203" lon="8.81618">
        <ele>1158</ele>
        <time>2021-08-04T08:35:26.842Z</time>
      </trkpt>
      <trkpt lat="46.99202" lon="8.81618">
        <ele>1158</ele>
        <time>2021-08-04T08:35:27.842Z</time>
      </trkpt>
      <trkpt lat="46.99203" lon="8.81618">
        <ele>1158</ele>
        <time>2021-08-04T08:35:28.842Z</time>
      </trkpt>
      <trkpt lat="46.99203" lon="8.81618">
        <ele>1158</ele>
        <time>2021-08-04T08:35:29.842Z</time>
      </trkpt>
      <trkpt lat="46.99204" lon="8.81619">
        <ele>1151</ele>
        <time>2021-08-04T08:35:30.842Z</time>
      </trkpt>
      <trkpt lat="46.99204" lon="8.81618">
        <ele>1151</ele>
        <time>2021-08-04T08:35:31.843Z</time>
      </trkpt>
      <trkpt lat="46.99204" lon="8.81617">
        <ele>1151</ele>
        <time>2021-08-04T08:35:32.843Z</time>
      </trkpt>
      <trkpt lat="46.99205" lon="8.81617">
        <ele>1151</ele>
        <time>2021-08-04T08:35:33.842Z</time>
      </trkpt>
      <trkpt lat="46.99205" lon="8.81616">
        <ele>1150</ele>
        <time>2021-08-04T08:35:34.843Z</time>
      </trkpt>
      <trkpt lat="46.99205" lon="8.81616">
        <ele>1150</ele>
        <time>2021-08-04T08:35:35.843Z</time>
      </trkpt>
      <trkpt lat="46.99205" lon="8.81616">
        <ele>1150</ele>
        <time>2021-08-04T08:35:36.842Z</time>
      </trkpt>
      <trkpt lat="46.99206" lon="8.81616">
        <ele>1149</ele>
        <time>2021-08-04T08:35:37.843Z</time>
      </trkpt>
      <trkpt lat="46.99206" lon="8.81616">
        <ele>1149</ele>
        <time>2021-08-04T08:35:38.843Z</time>
      </trkpt>
      <trkpt lat="46.99206" lon="8.81616">
        <ele>1148</ele>
        <time>2021-08-04T08:35:39.842Z</time>
      </trkpt>
      <trkpt lat="46.99207" lon="8.81616">
        <ele>1148</ele>
        <time>2021-08-04T08:35:40.842Z</time>
      </trkpt>
      <trkpt lat="46.99207" lon="8.81615">
        <ele>1148</ele>
        <time>2021-08-04T08:35:41.843Z</time>
      </trkpt>
      <trkpt lat="46.99207" lon="8.81615">
        <ele>1148</ele>
        <time>2021-08-04T08:35:42.843Z</time>
      </trkpt>
      <trkpt lat="46.99208" lon="8.81614">
        <ele>1148</ele>
        <time>2021-08-04T08:35:43.843Z</time>
      </trkpt>
      <trkpt lat="46.99208" lon="8.81613">
        <ele>1149</ele>
        <time>2021-08-04T08:35:44.843Z</time>
      </trkpt>
      <trkpt lat="46.99208" lon="8.81611">
        <ele>1149</ele>
        <time>2021-08-04T08:35:45.843Z</time>
      </trkpt>
      <trkpt lat="46.99208" lon="8.81609">
        <ele>1150</ele>
        <time>2021-08-04T08:35:46.843Z</time>
      </trkpt>
      <trkpt lat="46.99208" lon="8.81608">
        <ele>1150</ele>
        <time>2021-08-04T08:35:47.842Z</time>
      </trkpt>
      <trkpt lat="46.99208" lon="8.81606">
        <ele>1151</ele>
        <time>2021-08-04T08:35:48.843Z</time>
      </trkpt>
      <trkpt lat="46.99208" lon="8.81605">
        <ele>1152</ele>
        <time>2021-08-04T08:35:49.842Z</time>
      </trkpt>
      <trkpt lat="46.99208" lon="8.81603">
        <ele>1152</ele>
        <time>2021-08-04T08:35:50.843Z</time>
      </trkpt>
      <trkpt lat="46.99208" lon="8.81602">
        <ele>1152</ele>
        <time>2021-08-04T08:35:51.843Z</time>
      </trkpt>
      <trkpt lat="46.99208" lon="8.81601">
        <ele>1152</ele>
        <time>2021-08-04T08:35:52.843Z</time>
      </trkpt>
      <trkpt lat="46.99208" lon="8.816">
        <ele>1152</ele>
        <time>2021-08-04T08:35:53.842Z</time>
      </trkpt>
      <trkpt lat="46.99208" lon="8.81599">
        <ele>1152</ele>
        <time>2021-08-04T08:35:54.842Z</time>
      </trkpt>
      <trkpt lat="46.99208" lon="8.81599">
        <ele>1152</ele>
        <time>2021-08-04T08:35:55.843Z</time>
      </trkpt>
      <trkpt lat="46.99208" lon="8.81598">
        <ele>1151</ele>
        <time>2021-08-04T08:35:56.842Z</time>
      </trkpt>
      <trkpt lat="46.99208" lon="8.81597">
        <ele>1151</ele>
        <time>2021-08-04T08:35:57.843Z</time>
      </trkpt>
      <trkpt lat="46.99209" lon="8.81596">
        <ele>1151</ele>
        <time>2021-08-04T08:35:58.843Z</time>
      </trkpt>
      <trkpt lat="46.99209" lon="8.81594">
        <ele>1150</ele>
        <time>2021-08-04T08:35:59.842Z</time>
      </trkpt>
      <trkpt lat="46.99208" lon="8.81593">
        <ele>1150</ele>
        <time>2021-08-04T08:36:00.843Z</time>
      </trkpt>
      <trkpt lat="46.99208" lon="8.81592">
        <ele>1149</ele>
        <time>2021-08-04T08:36:01.842Z</time>
      </trkpt>
      <trkpt lat="46.99209" lon="8.81591">
        <ele>1148</ele>
        <time>2021-08-04T08:36:02.843Z</time>
      </trkpt>
      <trkpt lat="46.99209" lon="8.8159">
        <ele>1148</ele>
        <time>2021-08-04T08:36:03.843Z</time>
      </trkpt>
      <trkpt lat="46.99209" lon="8.81588">
        <ele>1147</ele>
        <time>2021-08-04T08:36:04.843Z</time>
      </trkpt>
      <trkpt lat="46.99209" lon="8.81587">
        <ele>1147</ele>
        <time>2021-08-04T08:36:05.842Z</time>
      </trkpt>
      <trkpt lat="46.99209" lon="8.81585">
        <ele>1148</ele>
        <time>2021-08-04T08:36:06.843Z</time>
      </trkpt>
      <trkpt lat="46.99209" lon="8.81583">
        <ele>1148</ele>
        <time>2021-08-04T08:36:07.842Z</time>
      </trkpt>
      <trkpt lat="46.99209" lon="8.81581">
        <ele>1149</ele>
        <time>2021-08-04T08:36:08.843Z</time>
      </trkpt>
      <trkpt lat="46.99208" lon="8.8158">
        <ele>1149</ele>
        <time>2021-08-04T08:36:09.843Z</time>
      </trkpt>
      <trkpt lat="46.99208" lon="8.81579">
        <ele>1149</ele>
        <time>2021-08-04T08:36:10.843Z</time>
      </trkpt>
      <trkpt lat="46.99208" lon="8.81578">
        <ele>1149</ele>
        <time>2021-08-04T08:36:11.843Z</time>
      </trkpt>
      <trkpt lat="46.99207" lon="8.81577">
        <ele>1149</ele>
        <time>2021-08-04T08:36:12.842Z</time>
      </trkpt>
      <trkpt lat="46.99207" lon="8.81576">
        <ele>1149</ele>
        <time>2021-08-04T08:36:13.842Z</time>
      </trkpt>
      <trkpt lat="46.99206" lon="8.81575">
        <ele>1149</ele>
        <time>2021-08-04T08:36:14.842Z</time>
      </trkpt>
      <trkpt lat="46.99206" lon="8.81573">
        <ele>1149</ele>
        <time>2021-08-04T08:36:15.843Z</time>
      </trkpt>
      <trkpt lat="46.99206" lon="8.81572">
        <ele>1149</ele>
        <time>2021-08-04T08:36:16.843Z</time>
      </trkpt>
      <trkpt lat="46.99206" lon="8.81571">
        <ele>1149</ele>
        <time>2021-08-04T08:36:17.842Z</time>
      </trkpt>
      <trkpt lat="46.99205" lon="8.8157">
        <ele>1149</ele>
        <time>2021-08-04T08:36:18.843Z</time>
      </trkpt>
      <trkpt lat="46.99205" lon="8.81569">
        <ele>1149</ele>
        <time>2021-08-04T08:36:19.842Z</time>
      </trkpt>
      <trkpt lat="46.99205" lon="8.81568">
        <ele>1149</ele>
        <time>2021-08-04T08:36:20.843Z</time>
      </trkpt>
      <trkpt lat="46.99205" lon="8.81567">
        <ele>1149</ele>
        <time>2021-08-04T08:36:21.843Z</time>
      </trkpt>
      <trkpt lat="46.99205" lon="8.81566">
        <ele>1149</ele>
        <time>2021-08-04T08:36:22.842Z</time>
      </trkpt>
      <trkpt lat="46.99205" lon="8.81564">
        <ele>1149</ele>
        <time>2021-08-04T08:36:23.843Z</time>
      </trkpt>
      <trkpt lat="46.99205" lon="8.81563">
        <ele>1149</ele>
        <time>2021-08-04T08:36:24.843Z</time>
      </trkpt>
      <trkpt lat="46.99205" lon="8.81562">
        <ele>1149</ele>
        <time>2021-08-04T08:36:25.842Z</time>
      </trkpt>
      <trkpt lat="46.99205" lon="8.8156">
        <ele>1149</ele>
        <time>2021-08-04T08:36:26.843Z</time>
      </trkpt>
      <trkpt lat="46.99204" lon="8.81558">
        <ele>1149</ele>
        <time>2021-08-04T08:36:27.843Z</time>
      </trkpt>
      <trkpt lat="46.99204" lon="8.81556">
        <ele>1149</ele>
        <time>2021-08-04T08:36:28.843Z</time>
      </trkpt>
      <trkpt lat="46.99204" lon="8.81555">
        <ele>1149</ele>
        <time>2021-08-04T08:36:29.843Z</time>
      </trkpt>
      <trkpt lat="46.99204" lon="8.81554">
        <ele>1149</ele>
        <time>2021-08-04T08:36:30.842Z</time>
      </trkpt>
      <trkpt lat="46.99205" lon="8.81552">
        <ele>1149</ele>
        <time>2021-08-04T08:36:31.843Z</time>
      </trkpt>
      <trkpt lat="46.99205" lon="8.81551">
        <ele>1149</ele>
        <time>2021-08-04T08:36:32.843Z</time>
      </trkpt>
      <trkpt lat="46.99205" lon="8.81548">
        <ele>1149</ele>
        <time>2021-08-04T08:36:33.843Z</time>
      </trkpt>
      <trkpt lat="46.99205" lon="8.81547">
        <ele>1149</ele>
        <time>2021-08-04T08:36:34.842Z</time>
      </trkpt>
      <trkpt lat="46.99206" lon="8.81546">
        <ele>1149</ele>
        <time>2021-08-04T08:36:35.843Z</time>
      </trkpt>
      <trkpt lat="46.99207" lon="8.81545">
        <ele>1149</ele>
        <time>2021-08-04T08:36:36.843Z</time>
      </trkpt>
      <trkpt lat="46.99207" lon="8.81544">
        <ele>1149</ele>
        <time>2021-08-04T08:36:37.843Z</time>
      </trkpt>
      <trkpt lat="46.99209" lon="8.81542">
        <ele>1149</ele>
        <time>2021-08-04T08:36:38.842Z</time>
      </trkpt>
      <trkpt lat="46.99209" lon="8.81541">
        <ele>1150</ele>
        <time>2021-08-04T08:36:39.843Z</time>
      </trkpt>
      <trkpt lat="46.99209" lon="8.8154">
        <ele>1150</ele>
        <time>2021-08-04T08:36:40.843Z</time>
      </trkpt>
      <trkpt lat="46.99209" lon="8.81539">
        <ele>1150</ele>
        <time>2021-08-04T08:36:41.843Z</time>
      </trkpt>
      <trkpt lat="46.99208" lon="8.81537">
        <ele>1150</ele>
        <time>2021-08-04T08:36:42.843Z</time>
      </trkpt>
      <trkpt lat="46.99207" lon="8.81535">
        <ele>1151</ele>
        <time>2021-08-04T08:36:43.843Z</time>
      </trkpt>
      <trkpt lat="46.99206" lon="8.81533">
        <ele>1151</ele>
        <time>2021-08-04T08:36:44.842Z</time>
      </trkpt>
      <trkpt lat="46.99206" lon="8.81532">
        <ele>1151</ele>
        <time>2021-08-04T08:36:45.842Z</time>
      </trkpt>
      <trkpt lat="46.99206" lon="8.81531">
        <ele>1152</ele>
        <time>2021-08-04T08:36:46.843Z</time>
      </trkpt>
      <trkpt lat="46.99206" lon="8.81529">
        <ele>1152</ele>
        <time>2021-08-04T08:36:47.842Z</time>
      </trkpt>
      <trkpt lat="46.99206" lon="8.81528">
        <ele>1152</ele>
        <time>2021-08-04T08:36:48.843Z</time>
      </trkpt>
      <trkpt lat="46.99205" lon="8.81526">
        <ele>1151</ele>
        <time>2021-08-04T08:36:49.843Z</time>
      </trkpt>
      <trkpt lat="46.99205" lon="8.81524">
        <ele>1151</ele>
        <time>2021-08-04T08:36:50.842Z</time>
      </trkpt>
      <trkpt lat="46.99205" lon="8.81522">
        <ele>1151</ele>
        <time>2021-08-04T08:36:51.842Z</time>
      </trkpt>
      <trkpt lat="46.99206" lon="8.81521">
        <ele>1151</ele>
        <time>2021-08-04T08:36:52.842Z</time>
      </trkpt>
      <trkpt lat="46.99205" lon="8.81521">
        <ele>1150</ele>
        <time>2021-08-04T08:36:53.842Z</time>
      </trkpt>
      <trkpt lat="46.99205" lon="8.8152">
        <ele>1150</ele>
        <time>2021-08-04T08:36:54.842Z</time>
      </trkpt>
      <trkpt lat="46.99205" lon="8.81519">
        <ele>1150</ele>
        <time>2021-08-04T08:36:55.843Z</time>
      </trkpt>
      <trkpt lat="46.99205" lon="8.81517">
        <ele>1150</ele>
        <time>2021-08-04T08:36:56.843Z</time>
      </trkpt>
      <trkpt lat="46.99206" lon="8.81516">
        <ele>1150</ele>
        <time>2021-08-04T08:36:57.843Z</time>
      </trkpt>
      <trkpt lat="46.99205" lon="8.81515">
        <ele>1149</ele>
        <time>2021-08-04T08:36:58.843Z</time>
      </trkpt>
      <trkpt lat="46.99205" lon="8.81515">
        <ele>1149</ele>
        <time>2021-08-04T08:36:59.842Z</time>
      </trkpt>
      <trkpt lat="46.99204" lon="8.81515">
        <ele>1148</ele>
        <time>2021-08-04T08:37:00.843Z</time>
      </trkpt>
      <trkpt lat="46.99204" lon="8.81515">
        <ele>1148</ele>
        <time>2021-08-04T08:37:01.843Z</time>
      </trkpt>
      <trkpt lat="46.99204" lon="8.81513">
        <ele>1147</ele>
        <time>2021-08-04T08:37:02.843Z</time>
      </trkpt>
      <trkpt lat="46.99204" lon="8.81512">
        <ele>1147</ele>
        <time>2021-08-04T08:37:03.843Z</time>
      </trkpt>
      <trkpt lat="46.99204" lon="8.81512">
        <ele>1147</ele>
        <time>2021-08-04T08:37:04.843Z</time>
      </trkpt>
      <trkpt lat="46.99202" lon="8.81514">
        <ele>1150</ele>
        <time>2021-08-04T08:37:05.843Z</time>
      </trkpt>
      <trkpt lat="46.99202" lon="8.81514">
        <ele>1150</ele>
        <time>2021-08-04T08:37:06.844Z</time>
      </trkpt>
      <trkpt lat="46.99203" lon="8.81514">
        <ele>1151</ele>
        <time>2021-08-04T08:37:07.843Z</time>
      </trkpt>
      <trkpt lat="46.99203" lon="8.81514">
        <ele>1150</ele>
        <time>2021-08-04T08:37:08.844Z</time>
      </trkpt>
      <trkpt lat="46.99201" lon="8.81515">
        <ele>1148</ele>
        <time>2021-08-04T08:37:09.845Z</time>
      </trkpt>
      <trkpt lat="46.99201" lon="8.81515">
        <ele>1148</ele>
        <time>2021-08-04T08:37:10.844Z</time>
      </trkpt>
      <trkpt lat="46.99202" lon="8.81513">
        <ele>1148</ele>
        <time>2021-08-04T08:37:11.844Z</time>
      </trkpt>
      <trkpt lat="46.99202" lon="8.81512">
        <ele>1148</ele>
        <time>2021-08-04T08:37:12.844Z</time>
      </trkpt>
      <trkpt lat="46.99202" lon="8.81511">
        <ele>1149</ele>
        <time>2021-08-04T08:37:13.844Z</time>
      </trkpt>
      <trkpt lat="46.99202" lon="8.8151">
        <ele>1149</ele>
        <time>2021-08-04T08:37:14.845Z</time>
      </trkpt>
      <trkpt lat="46.99202" lon="8.8151">
        <ele>1149</ele>
        <time>2021-08-04T08:37:15.844Z</time>
      </trkpt>
      <trkpt lat="46.99202" lon="8.81509">
        <ele>1149</ele>
        <time>2021-08-04T08:37:16.844Z</time>
      </trkpt>
      <trkpt lat="46.99201" lon="8.81507">
        <ele>1148</ele>
        <time>2021-08-04T08:37:17.846Z</time>
      </trkpt>
      <trkpt lat="46.99201" lon="8.81506">
        <ele>1149</ele>
        <time>2021-08-04T08:37:18.846Z</time>
      </trkpt>
      <trkpt lat="46.99201" lon="8.81504">
        <ele>1149</ele>
        <time>2021-08-04T08:37:19.845Z</time>
      </trkpt>
      <trkpt lat="46.99201" lon="8.81503">
        <ele>1149</ele>
        <time>2021-08-04T08:37:20.846Z</time>
      </trkpt>
      <trkpt lat="46.99201" lon="8.81502">
        <ele>1149</ele>
        <time>2021-08-04T08:37:21.846Z</time>
      </trkpt>
      <trkpt lat="46.992" lon="8.81502">
        <ele>1149</ele>
        <time>2021-08-04T08:37:22.846Z</time>
      </trkpt>
      <trkpt lat="46.992" lon="8.81501">
        <ele>1148</ele>
        <time>2021-08-04T08:37:23.846Z</time>
      </trkpt>
      <trkpt lat="46.99199" lon="8.81501">
        <ele>1148</ele>
        <time>2021-08-04T08:37:24.846Z</time>
      </trkpt>
      <trkpt lat="46.99199" lon="8.815">
        <ele>1148</ele>
        <time>2021-08-04T08:37:25.846Z</time>
      </trkpt>
      <trkpt lat="46.99198" lon="8.81499">
        <ele>1147</ele>
        <time>2021-08-04T08:37:26.846Z</time>
      </trkpt>
      <trkpt lat="46.99198" lon="8.81498">
        <ele>1147</ele>
        <time>2021-08-04T08:37:27.846Z</time>
      </trkpt>
      <trkpt lat="46.99198" lon="8.81497">
        <ele>1147</ele>
        <time>2021-08-04T08:37:28.846Z</time>
      </trkpt>
      <trkpt lat="46.99198" lon="8.81496">
        <ele>1147</ele>
        <time>2021-08-04T08:37:29.846Z</time>
      </trkpt>
      <trkpt lat="46.99198" lon="8.81495">
        <ele>1147</ele>
        <time>2021-08-04T08:37:30.845Z</time>
      </trkpt>
      <trkpt lat="46.99198" lon="8.81494">
        <ele>1147</ele>
        <time>2021-08-04T08:37:31.845Z</time>
      </trkpt>
      <trkpt lat="46.99197" lon="8.81492">
        <ele>1147</ele>
        <time>2021-08-04T08:37:32.846Z</time>
      </trkpt>
      <trkpt lat="46.99196" lon="8.8149">
        <ele>1147</ele>
        <time>2021-08-04T08:37:33.846Z</time>
      </trkpt>
      <trkpt lat="46.99196" lon="8.81488">
        <ele>1147</ele>
        <time>2021-08-04T08:37:34.845Z</time>
      </trkpt>
      <trkpt lat="46.99196" lon="8.81487">
        <ele>1148</ele>
        <time>2021-08-04T08:37:35.846Z</time>
      </trkpt>
      <trkpt lat="46.99196" lon="8.81485">
        <ele>1149</ele>
        <time>2021-08-04T08:37:36.846Z</time>
      </trkpt>
      <trkpt lat="46.99196" lon="8.81483">
        <ele>1149</ele>
        <time>2021-08-04T08:37:37.846Z</time>
      </trkpt>
      <trkpt lat="46.99195" lon="8.81482">
        <ele>1149</ele>
        <time>2021-08-04T08:37:38.845Z</time>
      </trkpt>
      <trkpt lat="46.99194" lon="8.8148">
        <ele>1149</ele>
        <time>2021-08-04T08:37:39.845Z</time>
      </trkpt>
      <trkpt lat="46.99193" lon="8.81478">
        <ele>1149</ele>
        <time>2021-08-04T08:37:40.846Z</time>
      </trkpt>
      <trkpt lat="46.99193" lon="8.81477">
        <ele>1148</ele>
        <time>2021-08-04T08:37:41.846Z</time>
      </trkpt>
      <trkpt lat="46.99192" lon="8.81477">
        <ele>1147</ele>
        <time>2021-08-04T08:37:42.846Z</time>
      </trkpt>
      <trkpt lat="46.99192" lon="8.81476">
        <ele>1147</ele>
        <time>2021-08-04T08:37:43.846Z</time>
      </trkpt>
      <trkpt lat="46.99192" lon="8.81477">
        <ele>1146</ele>
        <time>2021-08-04T08:37:44.846Z</time>
      </trkpt>
      <trkpt lat="46.99191" lon="8.81477">
        <ele>1142</ele>
        <time>2021-08-04T08:37:45.846Z</time>
      </trkpt>
      <trkpt lat="46.99191" lon="8.81476">
        <ele>1144</ele>
        <time>2021-08-04T08:37:46.846Z</time>
      </trkpt>
      <trkpt lat="46.9919" lon="8.81476">
        <ele>1145</ele>
        <time>2021-08-04T08:37:47.845Z</time>
      </trkpt>
      <trkpt lat="46.9919" lon="8.81469">
        <ele>1153</ele>
        <time>2021-08-04T08:37:48.846Z</time>
      </trkpt>
      <trkpt lat="46.99189" lon="8.81468">
        <ele>1154</ele>
        <time>2021-08-04T08:37:49.847Z</time>
      </trkpt>
      <trkpt lat="46.99189" lon="8.81466">
        <ele>1154</ele>
        <time>2021-08-04T08:37:50.846Z</time>
      </trkpt>
      <trkpt lat="46.99189" lon="8.81465">
        <ele>1154</ele>
        <time>2021-08-04T08:37:51.846Z</time>
      </trkpt>
      <trkpt lat="46.99189" lon="8.81464">
        <ele>1154</ele>
        <time>2021-08-04T08:37:52.847Z</time>
      </trkpt>
      <trkpt lat="46.99189" lon="8.81462">
        <ele>1154</ele>
        <time>2021-08-04T08:37:53.847Z</time>
      </trkpt>
      <trkpt lat="46.99189" lon="8.81462">
        <ele>1153</ele>
        <time>2021-08-04T08:37:54.847Z</time>
      </trkpt>
      <trkpt lat="46.99188" lon="8.81461">
        <ele>1153</ele>
        <time>2021-08-04T08:37:55.847Z</time>
      </trkpt>
      <trkpt lat="46.99188" lon="8.8146">
        <ele>1152</ele>
        <time>2021-08-04T08:37:56.847Z</time>
      </trkpt>
      <trkpt lat="46.99188" lon="8.81458">
        <ele>1152</ele>
        <time>2021-08-04T08:37:57.846Z</time>
      </trkpt>
      <trkpt lat="46.99188" lon="8.81458">
        <ele>1152</ele>
        <time>2021-08-04T08:37:58.847Z</time>
      </trkpt>
      <trkpt lat="46.99188" lon="8.81457">
        <ele>1151</ele>
        <time>2021-08-04T08:37:59.847Z</time>
      </trkpt>
      <trkpt lat="46.99188" lon="8.81457">
        <ele>1151</ele>
        <time>2021-08-04T08:38:00.847Z</time>
      </trkpt>
      <trkpt lat="46.99185" lon="8.81453">
        <ele>1150</ele>
        <time>2021-08-04T08:38:01.846Z</time>
      </trkpt>
      <trkpt lat="46.99185" lon="8.81453">
        <ele>1150</ele>
        <time>2021-08-04T08:38:02.847Z</time>
      </trkpt>
      <trkpt lat="46.99184" lon="8.81452">
        <ele>1150</ele>
        <time>2021-08-04T08:38:03.846Z</time>
      </trkpt>
      <trkpt lat="46.99184" lon="8.81451">
        <ele>1150</ele>
        <time>2021-08-04T08:38:04.846Z</time>
      </trkpt>
      <trkpt lat="46.99183" lon="8.8145">
        <ele>1150</ele>
        <time>2021-08-04T08:38:05.846Z</time>
      </trkpt>
      <trkpt lat="46.99182" lon="8.81449">
        <ele>1149</ele>
        <time>2021-08-04T08:38:06.846Z</time>
      </trkpt>
      <trkpt lat="46.99182" lon="8.81448">
        <ele>1149</ele>
        <time>2021-08-04T08:38:07.847Z</time>
      </trkpt>
      <trkpt lat="46.99181" lon="8.81448">
        <ele>1149</ele>
        <time>2021-08-04T08:38:08.847Z</time>
      </trkpt>
      <trkpt lat="46.99181" lon="8.81447">
        <ele>1149</ele>
        <time>2021-08-04T08:38:09.846Z</time>
      </trkpt>
      <trkpt lat="46.9918" lon="8.81445">
        <ele>1149</ele>
        <time>2021-08-04T08:38:10.847Z</time>
      </trkpt>
      <trkpt lat="46.9918" lon="8.81444">
        <ele>1148</ele>
        <time>2021-08-04T08:38:11.847Z</time>
      </trkpt>
      <trkpt lat="46.9918" lon="8.81442">
        <ele>1148</ele>
        <time>2021-08-04T08:38:12.846Z</time>
      </trkpt>
      <trkpt lat="46.9918" lon="8.81439">
        <ele>1148</ele>
        <time>2021-08-04T08:38:13.846Z</time>
      </trkpt>
      <trkpt lat="46.9918" lon="8.81437">
        <ele>1147</ele>
        <time>2021-08-04T08:38:14.846Z</time>
      </trkpt>
      <trkpt lat="46.99179" lon="8.81436">
        <ele>1147</ele>
        <time>2021-08-04T08:38:15.846Z</time>
      </trkpt>
      <trkpt lat="46.99178" lon="8.81435">
        <ele>1147</ele>
        <time>2021-08-04T08:38:16.846Z</time>
      </trkpt>
      <trkpt lat="46.99178" lon="8.81434">
        <ele>1146</ele>
        <time>2021-08-04T08:38:17.847Z</time>
      </trkpt>
      <trkpt lat="46.99177" lon="8.81433">
        <ele>1146</ele>
        <time>2021-08-04T08:38:18.847Z</time>
      </trkpt>
      <trkpt lat="46.99176" lon="8.81432">
        <ele>1146</ele>
        <time>2021-08-04T08:38:19.846Z</time>
      </trkpt>
      <trkpt lat="46.99176" lon="8.81431">
        <ele>1145</ele>
        <time>2021-08-04T08:38:20.847Z</time>
      </trkpt>
      <trkpt lat="46.99175" lon="8.8143">
        <ele>1145</ele>
        <time>2021-08-04T08:38:21.847Z</time>
      </trkpt>
      <trkpt lat="46.99174" lon="8.81429">
        <ele>1145</ele>
        <time>2021-08-04T08:38:22.847Z</time>
      </trkpt>
      <trkpt lat="46.99174" lon="8.81427">
        <ele>1145</ele>
        <time>2021-08-04T08:38:23.846Z</time>
      </trkpt>
      <trkpt lat="46.99173" lon="8.81426">
        <ele>1145</ele>
        <time>2021-08-04T08:38:24.847Z</time>
      </trkpt>
      <trkpt lat="46.99173" lon="8.81425">
        <ele>1145</ele>
        <time>2021-08-04T08:38:25.846Z</time>
      </trkpt>
      <trkpt lat="46.99173" lon="8.81425">
        <ele>1145</ele>
        <time>2021-08-04T08:38:26.846Z</time>
      </trkpt>
      <trkpt lat="46.99172" lon="8.81423">
        <ele>1145</ele>
        <time>2021-08-04T08:38:27.846Z</time>
      </trkpt>
      <trkpt lat="46.99172" lon="8.81422">
        <ele>1145</ele>
        <time>2021-08-04T08:38:28.847Z</time>
      </trkpt>
      <trkpt lat="46.99172" lon="8.8142">
        <ele>1145</ele>
        <time>2021-08-04T08:38:29.847Z</time>
      </trkpt>
      <trkpt lat="46.99171" lon="8.81419">
        <ele>1144</ele>
        <time>2021-08-04T08:38:30.847Z</time>
      </trkpt>
      <trkpt lat="46.99171" lon="8.81417">
        <ele>1144</ele>
        <time>2021-08-04T08:38:31.846Z</time>
      </trkpt>
      <trkpt lat="46.99171" lon="8.81416">
        <ele>1144</ele>
        <time>2021-08-04T08:38:32.846Z</time>
      </trkpt>
      <trkpt lat="46.9917" lon="8.81415">
        <ele>1144</ele>
        <time>2021-08-04T08:38:33.846Z</time>
      </trkpt>
      <trkpt lat="46.9917" lon="8.81413">
        <ele>1144</ele>
        <time>2021-08-04T08:38:34.847Z</time>
      </trkpt>
      <trkpt lat="46.9917" lon="8.81412">
        <ele>1143</ele>
        <time>2021-08-04T08:38:35.847Z</time>
      </trkpt>
      <trkpt lat="46.99169" lon="8.81411">
        <ele>1143</ele>
        <time>2021-08-04T08:38:36.847Z</time>
      </trkpt>
      <trkpt lat="46.99169" lon="8.8141">
        <ele>1143</ele>
        <time>2021-08-04T08:38:37.847Z</time>
      </trkpt>
      <trkpt lat="46.99169" lon="8.81409">
        <ele>1143</ele>
        <time>2021-08-04T08:38:38.847Z</time>
      </trkpt>
      <trkpt lat="46.99169" lon="8.81407">
        <ele>1143</ele>
        <time>2021-08-04T08:38:39.847Z</time>
      </trkpt>
      <trkpt lat="46.99168" lon="8.81406">
        <ele>1143</ele>
        <time>2021-08-04T08:38:40.847Z</time>
      </trkpt>
      <trkpt lat="46.99168" lon="8.81405">
        <ele>1143</ele>
        <time>2021-08-04T08:38:41.847Z</time>
      </trkpt>
      <trkpt lat="46.99168" lon="8.81403">
        <ele>1143</ele>
        <time>2021-08-04T08:38:42.847Z</time>
      </trkpt>
      <trkpt lat="46.99167" lon="8.81402">
        <ele>1143</ele>
        <time>2021-08-04T08:38:43.847Z</time>
      </trkpt>
      <trkpt lat="46.99167" lon="8.814">
        <ele>1143</ele>
        <time>2021-08-04T08:38:44.846Z</time>
      </trkpt>
      <trkpt lat="46.99167" lon="8.81398">
        <ele>1143</ele>
        <time>2021-08-04T08:38:45.847Z</time>
      </trkpt>
      <trkpt lat="46.99167" lon="8.81397">
        <ele>1143</ele>
        <time>2021-08-04T08:38:46.847Z</time>
      </trkpt>
      <trkpt lat="46.99167" lon="8.81395">
        <ele>1142</ele>
        <time>2021-08-04T08:38:47.847Z</time>
      </trkpt>
      <trkpt lat="46.99166" lon="8.81394">
        <ele>1142</ele>
        <time>2021-08-04T08:38:48.846Z</time>
      </trkpt>
      <trkpt lat="46.99166" lon="8.81392">
        <ele>1142</ele>
        <time>2021-08-04T08:38:49.847Z</time>
      </trkpt>
      <trkpt lat="46.99166" lon="8.8139">
        <ele>1141</ele>
        <time>2021-08-04T08:38:50.846Z</time>
      </trkpt>
      <trkpt lat="46.99167" lon="8.81388">
        <ele>1142</ele>
        <time>2021-08-04T08:38:51.846Z</time>
      </trkpt>
      <trkpt lat="46.99167" lon="8.81386">
        <ele>1142</ele>
        <time>2021-08-04T08:38:52.846Z</time>
      </trkpt>
      <trkpt lat="46.99167" lon="8.81385">
        <ele>1142</ele>
        <time>2021-08-04T08:38:53.846Z</time>
      </trkpt>
      <trkpt lat="46.99168" lon="8.81384">
        <ele>1142</ele>
        <time>2021-08-04T08:38:54.847Z</time>
      </trkpt>
      <trkpt lat="46.99168" lon="8.81383">
        <ele>1143</ele>
        <time>2021-08-04T08:38:55.847Z</time>
      </trkpt>
      <trkpt lat="46.99168" lon="8.81382">
        <ele>1142</ele>
        <time>2021-08-04T08:38:56.846Z</time>
      </trkpt>
      <trkpt lat="46.99168" lon="8.81381">
        <ele>1142</ele>
        <time>2021-08-04T08:38:57.846Z</time>
      </trkpt>
      <trkpt lat="46.99169" lon="8.81381">
        <ele>1142</ele>
        <time>2021-08-04T08:38:58.846Z</time>
      </trkpt>
      <trkpt lat="46.99169" lon="8.8138">
        <ele>1142</ele>
        <time>2021-08-04T08:38:59.847Z</time>
      </trkpt>
      <trkpt lat="46.99169" lon="8.8138">
        <ele>1142</ele>
        <time>2021-08-04T08:39:00.847Z</time>
      </trkpt>
      <trkpt lat="46.9917" lon="8.81379">
        <ele>1142</ele>
        <time>2021-08-04T08:39:01.847Z</time>
      </trkpt>
      <trkpt lat="46.9917" lon="8.81378">
        <ele>1142</ele>
        <time>2021-08-04T08:39:02.847Z</time>
      </trkpt>
      <trkpt lat="46.9917" lon="8.81377">
        <ele>1143</ele>
        <time>2021-08-04T08:39:03.846Z</time>
      </trkpt>
      <trkpt lat="46.9917" lon="8.81377">
        <ele>1144</ele>
        <time>2021-08-04T08:39:04.846Z</time>
      </trkpt>
      <trkpt lat="46.9917" lon="8.81376">
        <ele>1144</ele>
        <time>2021-08-04T08:39:05.847Z</time>
      </trkpt>
      <trkpt lat="46.9917" lon="8.81375">
        <ele>1144</ele>
        <time>2021-08-04T08:39:06.846Z</time>
      </trkpt>
      <trkpt lat="46.9917" lon="8.81374">
        <ele>1145</ele>
        <time>2021-08-04T08:39:07.847Z</time>
      </trkpt>
      <trkpt lat="46.9917" lon="8.81374">
        <ele>1145</ele>
        <time>2021-08-04T08:39:08.847Z</time>
      </trkpt>
      <trkpt lat="46.9917" lon="8.81372">
        <ele>1144</ele>
        <time>2021-08-04T08:39:09.846Z</time>
      </trkpt>
      <trkpt lat="46.9917" lon="8.81371">
        <ele>1144</ele>
        <time>2021-08-04T08:39:10.847Z</time>
      </trkpt>
      <trkpt lat="46.9917" lon="8.81369">
        <ele>1144</ele>
        <time>2021-08-04T08:39:11.846Z</time>
      </trkpt>
      <trkpt lat="46.9917" lon="8.81368">
        <ele>1145</ele>
        <time>2021-08-04T08:39:12.846Z</time>
      </trkpt>
      <trkpt lat="46.9917" lon="8.81366">
        <ele>1145</ele>
        <time>2021-08-04T08:39:13.847Z</time>
      </trkpt>
      <trkpt lat="46.9917" lon="8.81364">
        <ele>1145</ele>
        <time>2021-08-04T08:39:14.847Z</time>
      </trkpt>
      <trkpt lat="46.9917" lon="8.81363">
        <ele>1146</ele>
        <time>2021-08-04T08:39:15.846Z</time>
      </trkpt>
      <trkpt lat="46.9917" lon="8.81361">
        <ele>1145</ele>
        <time>2021-08-04T08:39:16.847Z</time>
      </trkpt>
      <trkpt lat="46.9917" lon="8.8136">
        <ele>1145</ele>
        <time>2021-08-04T08:39:17.846Z</time>
      </trkpt>
      <trkpt lat="46.9917" lon="8.81359">
        <ele>1144</ele>
        <time>2021-08-04T08:39:18.846Z</time>
      </trkpt>
      <trkpt lat="46.9917" lon="8.81358">
        <ele>1144</ele>
        <time>2021-08-04T08:39:19.847Z</time>
      </trkpt>
      <trkpt lat="46.99169" lon="8.81356">
        <ele>1144</ele>
        <time>2021-08-04T08:39:20.847Z</time>
      </trkpt>
      <trkpt lat="46.99169" lon="8.81353">
        <ele>1143</ele>
        <time>2021-08-04T08:39:21.847Z</time>
      </trkpt>
      <trkpt lat="46.99168" lon="8.81352">
        <ele>1143</ele>
        <time>2021-08-04T08:39:22.847Z</time>
      </trkpt>
      <trkpt lat="46.99168" lon="8.8135">
        <ele>1144</ele>
        <time>2021-08-04T08:39:23.847Z</time>
      </trkpt>
      <trkpt lat="46.99167" lon="8.81349">
        <ele>1144</ele>
        <time>2021-08-04T08:39:24.847Z</time>
      </trkpt>
      <trkpt lat="46.99167" lon="8.81348">
        <ele>1144</ele>
        <time>2021-08-04T08:39:25.846Z</time>
      </trkpt>
      <trkpt lat="46.99167" lon="8.81347">
        <ele>1144</ele>
        <time>2021-08-04T08:39:26.847Z</time>
      </trkpt>
      <trkpt lat="46.99167" lon="8.81345">
        <ele>1144</ele>
        <time>2021-08-04T08:39:27.847Z</time>
      </trkpt>
      <trkpt lat="46.99166" lon="8.81344">
        <ele>1144</ele>
        <time>2021-08-04T08:39:28.847Z</time>
      </trkpt>
      <trkpt lat="46.99166" lon="8.81343">
        <ele>1144</ele>
        <time>2021-08-04T08:39:29.846Z</time>
      </trkpt>
      <trkpt lat="46.99166" lon="8.81341">
        <ele>1143</ele>
        <time>2021-08-04T08:39:30.846Z</time>
      </trkpt>
      <trkpt lat="46.99165" lon="8.8134">
        <ele>1143</ele>
        <time>2021-08-04T08:39:31.847Z</time>
      </trkpt>
      <trkpt lat="46.99165" lon="8.81339">
        <ele>1143</ele>
        <time>2021-08-04T08:39:32.847Z</time>
      </trkpt>
      <trkpt lat="46.99165" lon="8.81337">
        <ele>1143</ele>
        <time>2021-08-04T08:39:33.847Z</time>
      </trkpt>
      <trkpt lat="46.99165" lon="8.81336">
        <ele>1142</ele>
        <time>2021-08-04T08:39:34.846Z</time>
      </trkpt>
      <trkpt lat="46.99165" lon="8.81335">
        <ele>1142</ele>
        <time>2021-08-04T08:39:35.846Z</time>
      </trkpt>
      <trkpt lat="46.99165" lon="8.81333">
        <ele>1142</ele>
        <time>2021-08-04T08:39:36.847Z</time>
      </trkpt>
      <trkpt lat="46.99165" lon="8.81332">
        <ele>1142</ele>
        <time>2021-08-04T08:39:37.846Z</time>
      </trkpt>
      <trkpt lat="46.99165" lon="8.8133">
        <ele>1142</ele>
        <time>2021-08-04T08:39:38.847Z</time>
      </trkpt>
      <trkpt lat="46.99164" lon="8.81329">
        <ele>1142</ele>
        <time>2021-08-04T08:39:39.846Z</time>
      </trkpt>
      <trkpt lat="46.99164" lon="8.81327">
        <ele>1142</ele>
        <time>2021-08-04T08:39:40.847Z</time>
      </trkpt>
      <trkpt lat="46.99163" lon="8.81326">
        <ele>1142</ele>
        <time>2021-08-04T08:39:41.847Z</time>
      </trkpt>
      <trkpt lat="46.99163" lon="8.81325">
        <ele>1142</ele>
        <time>2021-08-04T08:39:42.847Z</time>
      </trkpt>
      <trkpt lat="46.99162" lon="8.81324">
        <ele>1142</ele>
        <time>2021-08-04T08:39:43.846Z</time>
      </trkpt>
      <trkpt lat="46.99162" lon="8.81323">
        <ele>1141</ele>
        <time>2021-08-04T08:39:44.846Z</time>
      </trkpt>
      <trkpt lat="46.99162" lon="8.81321">
        <ele>1141</ele>
        <time>2021-08-04T08:39:45.847Z</time>
      </trkpt>
      <trkpt lat="46.99162" lon="8.8132">
        <ele>1141</ele>
        <time>2021-08-04T08:39:46.846Z</time>
      </trkpt>
      <trkpt lat="46.99162" lon="8.81318">
        <ele>1141</ele>
        <time>2021-08-04T08:39:47.847Z</time>
      </trkpt>
      <trkpt lat="46.99162" lon="8.81317">
        <ele>1141</ele>
        <time>2021-08-04T08:39:48.847Z</time>
      </trkpt>
      <trkpt lat="46.99161" lon="8.81315">
        <ele>1141</ele>
        <time>2021-08-04T08:39:49.846Z</time>
      </trkpt>
      <trkpt lat="46.99161" lon="8.81314">
        <ele>1142</ele>
        <time>2021-08-04T08:39:50.847Z</time>
      </trkpt>
      <trkpt lat="46.99161" lon="8.81313">
        <ele>1142</ele>
        <time>2021-08-04T08:39:51.847Z</time>
      </trkpt>
      <trkpt lat="46.9916" lon="8.81311">
        <ele>1142</ele>
        <time>2021-08-04T08:39:52.847Z</time>
      </trkpt>
      <trkpt lat="46.9916" lon="8.8131">
        <ele>1142</ele>
        <time>2021-08-04T08:39:53.846Z</time>
      </trkpt>
      <trkpt lat="46.99159" lon="8.81309">
        <ele>1142</ele>
        <time>2021-08-04T08:39:54.847Z</time>
      </trkpt>
      <trkpt lat="46.99159" lon="8.81307">
        <ele>1142</ele>
        <time>2021-08-04T08:39:55.847Z</time>
      </trkpt>
      <trkpt lat="46.99158" lon="8.81306">
        <ele>1142</ele>
        <time>2021-08-04T08:39:56.847Z</time>
      </trkpt>
      <trkpt lat="46.99158" lon="8.81305">
        <ele>1142</ele>
        <time>2021-08-04T08:39:57.847Z</time>
      </trkpt>
      <trkpt lat="46.99157" lon="8.81305">
        <ele>1143</ele>
        <time>2021-08-04T08:39:58.847Z</time>
      </trkpt>
      <trkpt lat="46.99156" lon="8.81305">
        <ele>1144</ele>
        <time>2021-08-04T08:39:59.847Z</time>
      </trkpt>
      <trkpt lat="46.99156" lon="8.81305">
        <ele>1144</ele>
        <time>2021-08-04T08:40:00.847Z</time>
      </trkpt>
      <trkpt lat="46.99156" lon="8.81306">
        <ele>1144</ele>
        <time>2021-08-04T08:40:01.847Z</time>
      </trkpt>
      <trkpt lat="46.99157" lon="8.81302">
        <ele>1146</ele>
        <time>2021-08-04T08:40:02.846Z</time>
      </trkpt>
      <trkpt lat="46.99157" lon="8.813">
        <ele>1146</ele>
        <time>2021-08-04T08:40:03.847Z</time>
      </trkpt>
      <trkpt lat="46.99156" lon="8.81299">
        <ele>1147</ele>
        <time>2021-08-04T08:40:04.846Z</time>
      </trkpt>
      <trkpt lat="46.99156" lon="8.81298">
        <ele>1147</ele>
        <time>2021-08-04T08:40:05.847Z</time>
      </trkpt>
      <trkpt lat="46.99155" lon="8.81297">
        <ele>1147</ele>
        <time>2021-08-04T08:40:06.847Z</time>
      </trkpt>
      <trkpt lat="46.99155" lon="8.81296">
        <ele>1147</ele>
        <time>2021-08-04T08:40:07.846Z</time>
      </trkpt>
      <trkpt lat="46.99155" lon="8.81294">
        <ele>1146</ele>
        <time>2021-08-04T08:40:08.847Z</time>
      </trkpt>
      <trkpt lat="46.99154" lon="8.81293">
        <ele>1146</ele>
        <time>2021-08-04T08:40:09.847Z</time>
      </trkpt>
      <trkpt lat="46.99154" lon="8.81291">
        <ele>1146</ele>
        <time>2021-08-04T08:40:10.847Z</time>
      </trkpt>
      <trkpt lat="46.99153" lon="8.8129">
        <ele>1145</ele>
        <time>2021-08-04T08:40:11.847Z</time>
      </trkpt>
      <trkpt lat="46.99152" lon="8.81288">
        <ele>1145</ele>
        <time>2021-08-04T08:40:12.847Z</time>
      </trkpt>
      <trkpt lat="46.99152" lon="8.81287">
        <ele>1145</ele>
        <time>2021-08-04T08:40:13.847Z</time>
      </trkpt>
      <trkpt lat="46.99152" lon="8.81286">
        <ele>1145</ele>
        <time>2021-08-04T08:40:14.847Z</time>
      </trkpt>
      <trkpt lat="46.99151" lon="8.81284">
        <ele>1145</ele>
        <time>2021-08-04T08:40:15.847Z</time>
      </trkpt>
      <trkpt lat="46.99151" lon="8.81283">
        <ele>1144</ele>
        <time>2021-08-04T08:40:16.847Z</time>
      </trkpt>
      <trkpt lat="46.99151" lon="8.81282">
        <ele>1144</ele>
        <time>2021-08-04T08:40:17.846Z</time>
      </trkpt>
      <trkpt lat="46.99151" lon="8.81281">
        <ele>1144</ele>
        <time>2021-08-04T08:40:18.846Z</time>
      </trkpt>
      <trkpt lat="46.9915" lon="8.8128">
        <ele>1144</ele>
        <time>2021-08-04T08:40:19.846Z</time>
      </trkpt>
      <trkpt lat="46.9915" lon="8.81278">
        <ele>1144</ele>
        <time>2021-08-04T08:40:20.847Z</time>
      </trkpt>
      <trkpt lat="46.99149" lon="8.81277">
        <ele>1144</ele>
        <time>2021-08-04T08:40:21.846Z</time>
      </trkpt>
      <trkpt lat="46.99149" lon="8.81276">
        <ele>1144</ele>
        <time>2021-08-04T08:40:22.846Z</time>
      </trkpt>
      <trkpt lat="46.99149" lon="8.81275">
        <ele>1144</ele>
        <time>2021-08-04T08:40:23.847Z</time>
      </trkpt>
      <trkpt lat="46.99148" lon="8.81273">
        <ele>1144</ele>
        <time>2021-08-04T08:40:24.847Z</time>
      </trkpt>
      <trkpt lat="46.99148" lon="8.81271">
        <ele>1144</ele>
        <time>2021-08-04T08:40:25.846Z</time>
      </trkpt>
      <trkpt lat="46.99148" lon="8.8127">
        <ele>1144</ele>
        <time>2021-08-04T08:40:26.847Z</time>
      </trkpt>
      <trkpt lat="46.99148" lon="8.81269">
        <ele>1143</ele>
        <time>2021-08-04T08:40:27.847Z</time>
      </trkpt>
      <trkpt lat="46.99148" lon="8.81268">
        <ele>1143</ele>
        <time>2021-08-04T08:40:28.847Z</time>
      </trkpt>
      <trkpt lat="46.99148" lon="8.81267">
        <ele>1143</ele>
        <time>2021-08-04T08:40:29.847Z</time>
      </trkpt>
      <trkpt lat="46.99148" lon="8.81265">
        <ele>1144</ele>
        <time>2021-08-04T08:40:30.847Z</time>
      </trkpt>
      <trkpt lat="46.99148" lon="8.81264">
        <ele>1144</ele>
        <time>2021-08-04T08:40:31.847Z</time>
      </trkpt>
      <trkpt lat="46.99148" lon="8.81263">
        <ele>1144</ele>
        <time>2021-08-04T08:40:32.847Z</time>
      </trkpt>
      <trkpt lat="46.99148" lon="8.81261">
        <ele>1144</ele>
        <time>2021-08-04T08:40:33.846Z</time>
      </trkpt>
      <trkpt lat="46.99148" lon="8.8126">
        <ele>1144</ele>
        <time>2021-08-04T08:40:34.846Z</time>
      </trkpt>
      <trkpt lat="46.99148" lon="8.81258">
        <ele>1144</ele>
        <time>2021-08-04T08:40:35.847Z</time>
      </trkpt>
      <trkpt lat="46.99148" lon="8.81257">
        <ele>1145</ele>
        <time>2021-08-04T08:40:36.847Z</time>
      </trkpt>
      <trkpt lat="46.99147" lon="8.81255">
        <ele>1145</ele>
        <time>2021-08-04T08:40:37.847Z</time>
      </trkpt>
      <trkpt lat="46.99147" lon="8.81253">
        <ele>1145</ele>
        <time>2021-08-04T08:40:38.847Z</time>
      </trkpt>
      <trkpt lat="46.99147" lon="8.81251">
        <ele>1144</ele>
        <time>2021-08-04T08:40:39.847Z</time>
      </trkpt>
      <trkpt lat="46.99147" lon="8.81249">
        <ele>1145</ele>
        <time>2021-08-04T08:40:40.847Z</time>
      </trkpt>
      <trkpt lat="46.99146" lon="8.81247">
        <ele>1144</ele>
        <time>2021-08-04T08:40:41.846Z</time>
      </trkpt>
      <trkpt lat="46.99146" lon="8.81245">
        <ele>1144</ele>
        <time>2021-08-04T08:40:42.847Z</time>
      </trkpt>
      <trkpt lat="46.99146" lon="8.81244">
        <ele>1144</ele>
        <time>2021-08-04T08:40:43.847Z</time>
      </trkpt>
      <trkpt lat="46.99146" lon="8.81242">
        <ele>1143</ele>
        <time>2021-08-04T08:40:44.847Z</time>
      </trkpt>
      <trkpt lat="46.99145" lon="8.8124">
        <ele>1143</ele>
        <time>2021-08-04T08:40:45.846Z</time>
      </trkpt>
      <trkpt lat="46.99145" lon="8.81239">
        <ele>1143</ele>
        <time>2021-08-04T08:40:46.847Z</time>
      </trkpt>
      <trkpt lat="46.99144" lon="8.81237">
        <ele>1142</ele>
        <time>2021-08-04T08:40:47.846Z</time>
      </trkpt>
      <trkpt lat="46.99144" lon="8.81235">
        <ele>1142</ele>
        <time>2021-08-04T08:40:48.847Z</time>
      </trkpt>
      <trkpt lat="46.99143" lon="8.81234">
        <ele>1142</ele>
        <time>2021-08-04T08:40:49.846Z</time>
      </trkpt>
      <trkpt lat="46.99143" lon="8.81233">
        <ele>1142</ele>
        <time>2021-08-04T08:40:50.847Z</time>
      </trkpt>
      <trkpt lat="46.99142" lon="8.81231">
        <ele>1142</ele>
        <time>2021-08-04T08:40:51.847Z</time>
      </trkpt>
      <trkpt lat="46.99142" lon="8.8123">
        <ele>1142</ele>
        <time>2021-08-04T08:40:52.847Z</time>
      </trkpt>
      <trkpt lat="46.99142" lon="8.81228">
        <ele>1143</ele>
        <time>2021-08-04T08:40:53.847Z</time>
      </trkpt>
      <trkpt lat="46.99142" lon="8.81226">
        <ele>1142</ele>
        <time>2021-08-04T08:40:54.847Z</time>
      </trkpt>
      <trkpt lat="46.99142" lon="8.81225">
        <ele>1142</ele>
        <time>2021-08-04T08:40:55.847Z</time>
      </trkpt>
      <trkpt lat="46.99143" lon="8.81224">
        <ele>1142</ele>
        <time>2021-08-04T08:40:56.846Z</time>
      </trkpt>
      <trkpt lat="46.99143" lon="8.81222">
        <ele>1141</ele>
        <time>2021-08-04T08:40:57.847Z</time>
      </trkpt>
      <trkpt lat="46.99142" lon="8.81221">
        <ele>1141</ele>
        <time>2021-08-04T08:40:58.847Z</time>
      </trkpt>
      <trkpt lat="46.99142" lon="8.81219">
        <ele>1141</ele>
        <time>2021-08-04T08:40:59.847Z</time>
      </trkpt>
      <trkpt lat="46.99141" lon="8.81218">
        <ele>1140</ele>
        <time>2021-08-04T08:41:00.847Z</time>
      </trkpt>
      <trkpt lat="46.99141" lon="8.81217">
        <ele>1140</ele>
        <time>2021-08-04T08:41:01.847Z</time>
      </trkpt>
      <trkpt lat="46.9914" lon="8.81215">
        <ele>1140</ele>
        <time>2021-08-04T08:41:02.847Z</time>
      </trkpt>
      <trkpt lat="46.99139" lon="8.81214">
        <ele>1140</ele>
        <time>2021-08-04T08:41:03.847Z</time>
      </trkpt>
      <trkpt lat="46.99138" lon="8.81213">
        <ele>1140</ele>
        <time>2021-08-04T08:41:04.846Z</time>
      </trkpt>
      <trkpt lat="46.99137" lon="8.81212">
        <ele>1140</ele>
        <time>2021-08-04T08:41:05.846Z</time>
      </trkpt>
      <trkpt lat="46.99136" lon="8.81212">
        <ele>1140</ele>
        <time>2021-08-04T08:41:06.847Z</time>
      </trkpt>
      <trkpt lat="46.99136" lon="8.81211">
        <ele>1141</ele>
        <time>2021-08-04T08:41:07.847Z</time>
      </trkpt>
      <trkpt lat="46.99136" lon="8.8121">
        <ele>1141</ele>
        <time>2021-08-04T08:41:08.846Z</time>
      </trkpt>
      <trkpt lat="46.99134" lon="8.8121">
        <ele>1141</ele>
        <time>2021-08-04T08:41:09.847Z</time>
      </trkpt>
      <trkpt lat="46.99134" lon="8.8121">
        <ele>1141</ele>
        <time>2021-08-04T08:41:10.846Z</time>
      </trkpt>
      <trkpt lat="46.99133" lon="8.8121">
        <ele>1141</ele>
        <time>2021-08-04T08:41:11.847Z</time>
      </trkpt>
      <trkpt lat="46.99134" lon="8.81211">
        <ele>1140</ele>
        <time>2021-08-04T08:41:12.847Z</time>
      </trkpt>
      <trkpt lat="46.99134" lon="8.8121">
        <ele>1140</ele>
        <time>2021-08-04T08:41:13.847Z</time>
      </trkpt>
      <trkpt lat="46.99131" lon="8.81207">
        <ele>1139</ele>
        <time>2021-08-04T08:41:14.848Z</time>
      </trkpt>
      <trkpt lat="46.9913" lon="8.81206">
        <ele>1139</ele>
        <time>2021-08-04T08:41:15.848Z</time>
      </trkpt>
      <trkpt lat="46.9913" lon="8.81206">
        <ele>1139</ele>
        <time>2021-08-04T08:41:16.848Z</time>
      </trkpt>
      <trkpt lat="46.99129" lon="8.81206">
        <ele>1139</ele>
        <time>2021-08-04T08:41:17.847Z</time>
      </trkpt>
      <trkpt lat="46.99129" lon="8.81206">
        <ele>1139</ele>
        <time>2021-08-04T08:41:18.848Z</time>
      </trkpt>
      <trkpt lat="46.99128" lon="8.81205">
        <ele>1139</ele>
        <time>2021-08-04T08:41:19.848Z</time>
      </trkpt>
      <trkpt lat="46.99128" lon="8.81204">
        <ele>1139</ele>
        <time>2021-08-04T08:41:20.847Z</time>
      </trkpt>
      <trkpt lat="46.99127" lon="8.81203">
        <ele>1138</ele>
        <time>2021-08-04T08:41:21.848Z</time>
      </trkpt>
      <trkpt lat="46.99126" lon="8.81201">
        <ele>1138</ele>
        <time>2021-08-04T08:41:22.847Z</time>
      </trkpt>
      <trkpt lat="46.99125" lon="8.812">
        <ele>1138</ele>
        <time>2021-08-04T08:41:23.847Z</time>
      </trkpt>
      <trkpt lat="46.99124" lon="8.81199">
        <ele>1137</ele>
        <time>2021-08-04T08:41:24.847Z</time>
      </trkpt>
      <trkpt lat="46.99124" lon="8.812">
        <ele>1137</ele>
        <time>2021-08-04T08:41:25.848Z</time>
      </trkpt>
      <trkpt lat="46.99123" lon="8.81198">
        <ele>1137</ele>
        <time>2021-08-04T08:41:26.848Z</time>
      </trkpt>
      <trkpt lat="46.99121" lon="8.81197">
        <ele>1137</ele>
        <time>2021-08-04T08:41:27.848Z</time>
      </trkpt>
      <trkpt lat="46.9912" lon="8.81197">
        <ele>1137</ele>
        <time>2021-08-04T08:41:28.848Z</time>
      </trkpt>
      <trkpt lat="46.99119" lon="8.81195">
        <ele>1137</ele>
        <time>2021-08-04T08:41:29.847Z</time>
      </trkpt>
      <trkpt lat="46.99117" lon="8.81194">
        <ele>1137</ele>
        <time>2021-08-04T08:41:30.847Z</time>
      </trkpt>
      <trkpt lat="46.99116" lon="8.81193">
        <ele>1137</ele>
        <time>2021-08-04T08:41:31.847Z</time>
      </trkpt>
      <trkpt lat="46.99115" lon="8.81192">
        <ele>1136</ele>
        <time>2021-08-04T08:41:32.848Z</time>
      </trkpt>
      <trkpt lat="46.99115" lon="8.81192">
        <ele>1136</ele>
        <time>2021-08-04T08:41:33.848Z</time>
      </trkpt>
      <trkpt lat="46.99114" lon="8.81192">
        <ele>1136</ele>
        <time>2021-08-04T08:41:34.848Z</time>
      </trkpt>
      <trkpt lat="46.99113" lon="8.81192">
        <ele>1136</ele>
        <time>2021-08-04T08:41:35.848Z</time>
      </trkpt>
      <trkpt lat="46.99113" lon="8.81192">
        <ele>1135</ele>
        <time>2021-08-04T08:41:36.848Z</time>
      </trkpt>
      <trkpt lat="46.99112" lon="8.81191">
        <ele>1135</ele>
        <time>2021-08-04T08:41:37.847Z</time>
      </trkpt>
      <trkpt lat="46.99112" lon="8.8119">
        <ele>1136</ele>
        <time>2021-08-04T08:41:38.848Z</time>
      </trkpt>
      <trkpt lat="46.99111" lon="8.81189">
        <ele>1136</ele>
        <time>2021-08-04T08:41:39.848Z</time>
      </trkpt>
      <trkpt lat="46.99111" lon="8.81189">
        <ele>1136</ele>
        <time>2021-08-04T08:41:40.848Z</time>
      </trkpt>
      <trkpt lat="46.9911" lon="8.81188">
        <ele>1136</ele>
        <time>2021-08-04T08:41:41.847Z</time>
      </trkpt>
      <trkpt lat="46.99109" lon="8.81187">
        <ele>1135</ele>
        <time>2021-08-04T08:41:42.848Z</time>
      </trkpt>
      <trkpt lat="46.99108" lon="8.81185">
        <ele>1135</ele>
        <time>2021-08-04T08:41:43.848Z</time>
      </trkpt>
      <trkpt lat="46.99107" lon="8.81183">
        <ele>1135</ele>
        <time>2021-08-04T08:41:44.848Z</time>
      </trkpt>
      <trkpt lat="46.99107" lon="8.81182">
        <ele>1135</ele>
        <time>2021-08-04T08:41:45.848Z</time>
      </trkpt>
      <trkpt lat="46.99107" lon="8.81181">
        <ele>1135</ele>
        <time>2021-08-04T08:41:46.847Z</time>
      </trkpt>
      <trkpt lat="46.99106" lon="8.81181">
        <ele>1135</ele>
        <time>2021-08-04T08:41:47.848Z</time>
      </trkpt>
      <trkpt lat="46.99106" lon="8.8118">
        <ele>1135</ele>
        <time>2021-08-04T08:41:48.847Z</time>
      </trkpt>
      <trkpt lat="46.99106" lon="8.81179">
        <ele>1135</ele>
        <time>2021-08-04T08:41:49.848Z</time>
      </trkpt>
      <trkpt lat="46.99105" lon="8.81178">
        <ele>1135</ele>
        <time>2021-08-04T08:41:50.848Z</time>
      </trkpt>
      <trkpt lat="46.99105" lon="8.81178">
        <ele>1136</ele>
        <time>2021-08-04T08:41:51.848Z</time>
      </trkpt>
      <trkpt lat="46.99104" lon="8.81177">
        <ele>1136</ele>
        <time>2021-08-04T08:41:52.848Z</time>
      </trkpt>
      <trkpt lat="46.99103" lon="8.81176">
        <ele>1136</ele>
        <time>2021-08-04T08:41:53.847Z</time>
      </trkpt>
      <trkpt lat="46.99102" lon="8.81175">
        <ele>1136</ele>
        <time>2021-08-04T08:41:54.848Z</time>
      </trkpt>
      <trkpt lat="46.99101" lon="8.81174">
        <ele>1136</ele>
        <time>2021-08-04T08:41:55.848Z</time>
      </trkpt>
      <trkpt lat="46.99101" lon="8.81173">
        <ele>1136</ele>
        <time>2021-08-04T08:41:56.848Z</time>
      </trkpt>
      <trkpt lat="46.991" lon="8.81173">
        <ele>1136</ele>
        <time>2021-08-04T08:41:57.847Z</time>
      </trkpt>
      <trkpt lat="46.99099" lon="8.81172">
        <ele>1136</ele>
        <time>2021-08-04T08:41:58.847Z</time>
      </trkpt>
      <trkpt lat="46.99098" lon="8.81171">
        <ele>1136</ele>
        <time>2021-08-04T08:41:59.848Z</time>
      </trkpt>
      <trkpt lat="46.99097" lon="8.8117">
        <ele>1137</ele>
        <time>2021-08-04T08:42:00.848Z</time>
      </trkpt>
      <trkpt lat="46.99097" lon="8.81169">
        <ele>1137</ele>
        <time>2021-08-04T08:42:01.848Z</time>
      </trkpt>
      <trkpt lat="46.99096" lon="8.81168">
        <ele>1137</ele>
        <time>2021-08-04T08:42:02.848Z</time>
      </trkpt>
      <trkpt lat="46.99095" lon="8.81167">
        <ele>1137</ele>
        <time>2021-08-04T08:42:03.848Z</time>
      </trkpt>
      <trkpt lat="46.99095" lon="8.81166">
        <ele>1136</ele>
        <time>2021-08-04T08:42:04.848Z</time>
      </trkpt>
      <trkpt lat="46.99094" lon="8.81165">
        <ele>1136</ele>
        <time>2021-08-04T08:42:05.847Z</time>
      </trkpt>
      <trkpt lat="46.99094" lon="8.81164">
        <ele>1135</ele>
        <time>2021-08-04T08:42:06.847Z</time>
      </trkpt>
      <trkpt lat="46.99093" lon="8.81163">
        <ele>1134</ele>
        <time>2021-08-04T08:42:07.848Z</time>
      </trkpt>
      <trkpt lat="46.99093" lon="8.81163">
        <ele>1133</ele>
        <time>2021-08-04T08:42:08.848Z</time>
      </trkpt>
      <trkpt lat="46.99092" lon="8.81163">
        <ele>1132</ele>
        <time>2021-08-04T08:42:09.848Z</time>
      </trkpt>
      <trkpt lat="46.99092" lon="8.81162">
        <ele>1131</ele>
        <time>2021-08-04T08:42:10.847Z</time>
      </trkpt>
      <trkpt lat="46.99092" lon="8.81162">
        <ele>1131</ele>
        <time>2021-08-04T08:42:11.848Z</time>
      </trkpt>
      <trkpt lat="46.99092" lon="8.81162">
        <ele>1130</ele>
        <time>2021-08-04T08:42:12.848Z</time>
      </trkpt>
      <trkpt lat="46.99091" lon="8.81162">
        <ele>1130</ele>
        <time>2021-08-04T08:42:13.848Z</time>
      </trkpt>
      <trkpt lat="46.9909" lon="8.8116">
        <ele>1129</ele>
        <time>2021-08-04T08:42:14.848Z</time>
      </trkpt>
      <trkpt lat="46.9909" lon="8.81159">
        <ele>1129</ele>
        <time>2021-08-04T08:42:15.847Z</time>
      </trkpt>
      <trkpt lat="46.99089" lon="8.81158">
        <ele>1129</ele>
        <time>2021-08-04T08:42:16.847Z</time>
      </trkpt>
      <trkpt lat="46.99088" lon="8.81157">
        <ele>1129</ele>
        <time>2021-08-04T08:42:17.847Z</time>
      </trkpt>
      <trkpt lat="46.99087" lon="8.81156">
        <ele>1128</ele>
        <time>2021-08-04T08:42:18.848Z</time>
      </trkpt>
      <trkpt lat="46.99086" lon="8.81155">
        <ele>1128</ele>
        <time>2021-08-04T08:42:19.847Z</time>
      </trkpt>
      <trkpt lat="46.99085" lon="8.81153">
        <ele>1128</ele>
        <time>2021-08-04T08:42:20.848Z</time>
      </trkpt>
      <trkpt lat="46.99084" lon="8.81152">
        <ele>1128</ele>
        <time>2021-08-04T08:42:21.848Z</time>
      </trkpt>
      <trkpt lat="46.99083" lon="8.81151">
        <ele>1128</ele>
        <time>2021-08-04T08:42:22.848Z</time>
      </trkpt>
      <trkpt lat="46.99082" lon="8.8115">
        <ele>1128</ele>
        <time>2021-08-04T08:42:23.848Z</time>
      </trkpt>
      <trkpt lat="46.99081" lon="8.81149">
        <ele>1128</ele>
        <time>2021-08-04T08:42:24.848Z</time>
      </trkpt>
      <trkpt lat="46.9908" lon="8.81148">
        <ele>1128</ele>
        <time>2021-08-04T08:42:25.848Z</time>
      </trkpt>
      <trkpt lat="46.99079" lon="8.81146">
        <ele>1128</ele>
        <time>2021-08-04T08:42:26.848Z</time>
      </trkpt>
      <trkpt lat="46.99078" lon="8.81145">
        <ele>1128</ele>
        <time>2021-08-04T08:42:27.848Z</time>
      </trkpt>
      <trkpt lat="46.99077" lon="8.81143">
        <ele>1128</ele>
        <time>2021-08-04T08:42:28.848Z</time>
      </trkpt>
      <trkpt lat="46.99076" lon="8.81142">
        <ele>1128</ele>
        <time>2021-08-04T08:42:29.848Z</time>
      </trkpt>
      <trkpt lat="46.99076" lon="8.81141">
        <ele>1129</ele>
        <time>2021-08-04T08:42:30.847Z</time>
      </trkpt>
      <trkpt lat="46.99075" lon="8.8114">
        <ele>1129</ele>
        <time>2021-08-04T08:42:31.848Z</time>
      </trkpt>
      <trkpt lat="46.99074" lon="8.81139">
        <ele>1129</ele>
        <time>2021-08-04T08:42:32.848Z</time>
      </trkpt>
      <trkpt lat="46.99073" lon="8.81137">
        <ele>1130</ele>
        <time>2021-08-04T08:42:33.847Z</time>
      </trkpt>
      <trkpt lat="46.99073" lon="8.81136">
        <ele>1130</ele>
        <time>2021-08-04T08:42:34.848Z</time>
      </trkpt>
      <trkpt lat="46.99072" lon="8.81135">
        <ele>1130</ele>
        <time>2021-08-04T08:42:35.847Z</time>
      </trkpt>
      <trkpt lat="46.99071" lon="8.81135">
        <ele>1130</ele>
        <time>2021-08-04T08:42:36.848Z</time>
      </trkpt>
      <trkpt lat="46.99071" lon="8.81135">
        <ele>1130</ele>
        <time>2021-08-04T08:42:37.848Z</time>
      </trkpt>
      <trkpt lat="46.99071" lon="8.81134">
        <ele>1130</ele>
        <time>2021-08-04T08:42:38.848Z</time>
      </trkpt>
      <trkpt lat="46.9907" lon="8.81134">
        <ele>1130</ele>
        <time>2021-08-04T08:42:39.847Z</time>
      </trkpt>
      <trkpt lat="46.9907" lon="8.81134">
        <ele>1130</ele>
        <time>2021-08-04T08:42:40.847Z</time>
      </trkpt>
      <trkpt lat="46.9907" lon="8.81133">
        <ele>1130</ele>
        <time>2021-08-04T08:42:41.847Z</time>
      </trkpt>
      <trkpt lat="46.9907" lon="8.81134">
        <ele>1129</ele>
        <time>2021-08-04T08:42:42.847Z</time>
      </trkpt>
      <trkpt lat="46.99069" lon="8.81135">
        <ele>1125</ele>
        <time>2021-08-04T08:42:43.848Z</time>
      </trkpt>
      <trkpt lat="46.99069" lon="8.81135">
        <ele>1124</ele>
        <time>2021-08-04T08:42:44.849Z</time>
      </trkpt>
      <trkpt lat="46.99067" lon="8.81134">
        <ele>1122</ele>
        <time>2021-08-04T08:42:45.850Z</time>
      </trkpt>
      <trkpt lat="46.99067" lon="8.81133">
        <ele>1122</ele>
        <time>2021-08-04T08:42:46.850Z</time>
      </trkpt>
      <trkpt lat="46.99067" lon="8.81133">
        <ele>1123</ele>
        <time>2021-08-04T08:42:47.849Z</time>
      </trkpt>
      <trkpt lat="46.99067" lon="8.81132">
        <ele>1123</ele>
        <time>2021-08-04T08:42:48.850Z</time>
      </trkpt>
      <trkpt lat="46.99067" lon="8.81131">
        <ele>1124</ele>
        <time>2021-08-04T08:42:49.849Z</time>
      </trkpt>
      <trkpt lat="46.99066" lon="8.81131">
        <ele>1124</ele>
        <time>2021-08-04T08:42:50.850Z</time>
      </trkpt>
      <trkpt lat="46.99066" lon="8.8113">
        <ele>1124</ele>
        <time>2021-08-04T08:42:51.849Z</time>
      </trkpt>
      <trkpt lat="46.99065" lon="8.81129">
        <ele>1124</ele>
        <time>2021-08-04T08:42:52.850Z</time>
      </trkpt>
      <trkpt lat="46.99065" lon="8.81128">
        <ele>1124</ele>
        <time>2021-08-04T08:42:53.849Z</time>
      </trkpt>
      <trkpt lat="46.99066" lon="8.81128">
        <ele>1124</ele>
        <time>2021-08-04T08:42:54.850Z</time>
      </trkpt>
      <trkpt lat="46.99066" lon="8.81128">
        <ele>1123</ele>
        <time>2021-08-04T08:42:55.850Z</time>
      </trkpt>
      <trkpt lat="46.99066" lon="8.81128">
        <ele>1123</ele>
        <time>2021-08-04T08:42:56.849Z</time>
      </trkpt>
      <trkpt lat="46.99069" lon="8.81129">
        <ele>1119</ele>
        <time>2021-08-04T08:42:57.850Z</time>
      </trkpt>
      <trkpt lat="46.99069" lon="8.81128">
        <ele>1119</ele>
        <time>2021-08-04T08:42:58.850Z</time>
      </trkpt>
      <trkpt lat="46.99067" lon="8.81125">
        <ele>1118</ele>
        <time>2021-08-04T08:42:59.850Z</time>
      </trkpt>
      <trkpt lat="46.99067" lon="8.81125">
        <ele>1118</ele>
        <time>2021-08-04T08:43:00.850Z</time>
      </trkpt>
      <trkpt lat="46.99067" lon="8.81124">
        <ele>1118</ele>
        <time>2021-08-04T08:43:01.849Z</time>
      </trkpt>
      <trkpt lat="46.99066" lon="8.81125">
        <ele>1117</ele>
        <time>2021-08-04T08:43:02.850Z</time>
      </trkpt>
      <trkpt lat="46.99066" lon="8.81125">
        <ele>1116</ele>
        <time>2021-08-04T08:43:03.850Z</time>
      </trkpt>
      <trkpt lat="46.99065" lon="8.81125">
        <ele>1115</ele>
        <time>2021-08-04T08:43:04.850Z</time>
      </trkpt>
      <trkpt lat="46.99063" lon="8.81124">
        <ele>1119</ele>
        <time>2021-08-04T08:43:05.851Z</time>
      </trkpt>
      <trkpt lat="46.99065" lon="8.81126">
        <ele>1120</ele>
        <time>2021-08-04T08:43:06.850Z</time>
      </trkpt>
      <trkpt lat="46.99063" lon="8.8113">
        <ele>1121</ele>
        <time>2021-08-04T08:43:07.851Z</time>
      </trkpt>
      <trkpt lat="46.99063" lon="8.8113">
        <ele>1121</ele>
        <time>2021-08-04T08:43:08.851Z</time>
      </trkpt>
      <trkpt lat="46.99063" lon="8.81129">
        <ele>1121</ele>
        <time>2021-08-04T08:43:09.850Z</time>
      </trkpt>
      <trkpt lat="46.99063" lon="8.81129">
        <ele>1121</ele>
        <time>2021-08-04T08:43:10.851Z</time>
      </trkpt>
      <trkpt lat="46.99064" lon="8.81126">
        <ele>1121</ele>
        <time>2021-08-04T08:43:11.853Z</time>
      </trkpt>
      <trkpt lat="46.99064" lon="8.81126">
        <ele>1121</ele>
        <time>2021-08-04T08:43:12.853Z</time>
      </trkpt>
      <trkpt lat="46.99065" lon="8.81119">
        <ele>1124</ele>
        <time>2021-08-04T08:43:13.854Z</time>
      </trkpt>
      <trkpt lat="46.99064" lon="8.81119">
        <ele>1124</ele>
        <time>2021-08-04T08:43:14.854Z</time>
      </trkpt>
      <trkpt lat="46.99065" lon="8.81119">
        <ele>1124</ele>
        <time>2021-08-04T08:43:15.853Z</time>
      </trkpt>
      <trkpt lat="46.99065" lon="8.81119">
        <ele>1124</ele>
        <time>2021-08-04T08:43:16.854Z</time>
      </trkpt>
      <trkpt lat="46.99065" lon="8.81119">
        <ele>1123</ele>
        <time>2021-08-04T08:43:17.854Z</time>
      </trkpt>
      <trkpt lat="46.99067" lon="8.8112">
        <ele>1121</ele>
        <time>2021-08-04T08:43:18.855Z</time>
      </trkpt>
      <trkpt lat="46.99067" lon="8.8112">
        <ele>1121</ele>
        <time>2021-08-04T08:43:19.855Z</time>
      </trkpt>
      <trkpt lat="46.99066" lon="8.81118">
        <ele>1121</ele>
        <time>2021-08-04T08:43:20.855Z</time>
      </trkpt>
      <trkpt lat="46.99066" lon="8.81118">
        <ele>1121</ele>
        <time>2021-08-04T08:43:21.855Z</time>
      </trkpt>
      <trkpt lat="46.99066" lon="8.81117">
        <ele>1121</ele>
        <time>2021-08-04T08:43:22.856Z</time>
      </trkpt>
      <trkpt lat="46.99066" lon="8.81116">
        <ele>1121</ele>
        <time>2021-08-04T08:43:23.855Z</time>
      </trkpt>
      <trkpt lat="46.99065" lon="8.81115">
        <ele>1120</ele>
        <time>2021-08-04T08:43:24.856Z</time>
      </trkpt>
      <trkpt lat="46.99066" lon="8.81115">
        <ele>1120</ele>
        <time>2021-08-04T08:43:25.855Z</time>
      </trkpt>
      <trkpt lat="46.99067" lon="8.81115">
        <ele>1119</ele>
        <time>2021-08-04T08:43:26.855Z</time>
      </trkpt>
      <trkpt lat="46.99067" lon="8.81114">
        <ele>1119</ele>
        <time>2021-08-04T08:43:27.855Z</time>
      </trkpt>
      <trkpt lat="46.99067" lon="8.81113">
        <ele>1119</ele>
        <time>2021-08-04T08:43:28.856Z</time>
      </trkpt>
      <trkpt lat="46.99066" lon="8.81113">
        <ele>1119</ele>
        <time>2021-08-04T08:43:29.855Z</time>
      </trkpt>
      <trkpt lat="46.99066" lon="8.81113">
        <ele>1119</ele>
        <time>2021-08-04T08:43:30.855Z</time>
      </trkpt>
      <trkpt lat="46.99066" lon="8.81112">
        <ele>1119</ele>
        <time>2021-08-04T08:43:31.855Z</time>
      </trkpt>
      <trkpt lat="46.99065" lon="8.81112">
        <ele>1119</ele>
        <time>2021-08-04T08:43:32.856Z</time>
      </trkpt>
      <trkpt lat="46.99065" lon="8.81111">
        <ele>1119</ele>
        <time>2021-08-04T08:43:33.855Z</time>
      </trkpt>
      <trkpt lat="46.99064" lon="8.81107">
        <ele>1120</ele>
        <time>2021-08-04T08:43:34.856Z</time>
      </trkpt>
      <trkpt lat="46.99063" lon="8.81105">
        <ele>1120</ele>
        <time>2021-08-04T08:43:35.856Z</time>
      </trkpt>
      <trkpt lat="46.99063" lon="8.81105">
        <ele>1120</ele>
        <time>2021-08-04T08:43:36.856Z</time>
      </trkpt>
      <trkpt lat="46.99063" lon="8.81104">
        <ele>1120</ele>
        <time>2021-08-04T08:43:37.856Z</time>
      </trkpt>
      <trkpt lat="46.99062" lon="8.81104">
        <ele>1119</ele>
        <time>2021-08-04T08:43:38.856Z</time>
      </trkpt>
      <trkpt lat="46.99062" lon="8.81103">
        <ele>1119</ele>
        <time>2021-08-04T08:43:39.856Z</time>
      </trkpt>
      <trkpt lat="46.99062" lon="8.81103">
        <ele>1118</ele>
        <time>2021-08-04T08:43:40.856Z</time>
      </trkpt>
      <trkpt lat="46.99062" lon="8.81103">
        <ele>1116</ele>
        <time>2021-08-04T08:43:41.856Z</time>
      </trkpt>
      <trkpt lat="46.99062" lon="8.81102">
        <ele>1116</ele>
        <time>2021-08-04T08:43:42.856Z</time>
      </trkpt>
      <trkpt lat="46.99062" lon="8.81101">
        <ele>1116</ele>
        <time>2021-08-04T08:43:43.857Z</time>
      </trkpt>
      <trkpt lat="46.99061" lon="8.81101">
        <ele>1115</ele>
        <time>2021-08-04T08:43:44.857Z</time>
      </trkpt>
      <trkpt lat="46.99061" lon="8.811">
        <ele>1115</ele>
        <time>2021-08-04T08:43:45.857Z</time>
      </trkpt>
      <trkpt lat="46.99061" lon="8.81099">
        <ele>1114</ele>
        <time>2021-08-04T08:43:46.857Z</time>
      </trkpt>
      <trkpt lat="46.99061" lon="8.81098">
        <ele>1114</ele>
        <time>2021-08-04T08:43:47.857Z</time>
      </trkpt>
      <trkpt lat="46.99061" lon="8.81099">
        <ele>1113</ele>
        <time>2021-08-04T08:43:48.856Z</time>
      </trkpt>
      <trkpt lat="46.99061" lon="8.81099">
        <ele>1112</ele>
        <time>2021-08-04T08:43:49.857Z</time>
      </trkpt>
      <trkpt lat="46.99061" lon="8.81098">
        <ele>1111</ele>
        <time>2021-08-04T08:43:50.857Z</time>
      </trkpt>
      <trkpt lat="46.99061" lon="8.81098">
        <ele>1111</ele>
        <time>2021-08-04T08:43:51.856Z</time>
      </trkpt>
      <trkpt lat="46.99061" lon="8.81098">
        <ele>1110</ele>
        <time>2021-08-04T08:43:52.856Z</time>
      </trkpt>
      <trkpt lat="46.9906" lon="8.81096">
        <ele>1106</ele>
        <time>2021-08-04T08:43:53.857Z</time>
      </trkpt>
      <trkpt lat="46.9906" lon="8.81095">
        <ele>1106</ele>
        <time>2021-08-04T08:43:54.857Z</time>
      </trkpt>
      <trkpt lat="46.9906" lon="8.81095">
        <ele>1107</ele>
        <time>2021-08-04T08:43:55.857Z</time>
      </trkpt>
      <trkpt lat="46.9906" lon="8.81094">
        <ele>1106</ele>
        <time>2021-08-04T08:43:56.856Z</time>
      </trkpt>
      <trkpt lat="46.99059" lon="8.81093">
        <ele>1106</ele>
        <time>2021-08-04T08:43:57.857Z</time>
      </trkpt>
      <trkpt lat="46.99059" lon="8.81092">
        <ele>1106</ele>
        <time>2021-08-04T08:43:58.857Z</time>
      </trkpt>
      <trkpt lat="46.99059" lon="8.81091">
        <ele>1106</ele>
        <time>2021-08-04T08:43:59.857Z</time>
      </trkpt>
      <trkpt lat="46.99059" lon="8.81089">
        <ele>1106</ele>
        <time>2021-08-04T08:44:00.857Z</time>
      </trkpt>
      <trkpt lat="46.99058" lon="8.81088">
        <ele>1106</ele>
        <time>2021-08-04T08:44:01.857Z</time>
      </trkpt>
      <trkpt lat="46.99058" lon="8.81087">
        <ele>1106</ele>
        <time>2021-08-04T08:44:02.856Z</time>
      </trkpt>
      <trkpt lat="46.99058" lon="8.81086">
        <ele>1106</ele>
        <time>2021-08-04T08:44:03.857Z</time>
      </trkpt>
      <trkpt lat="46.99057" lon="8.81084">
        <ele>1106</ele>
        <time>2021-08-04T08:44:04.856Z</time>
      </trkpt>
      <trkpt lat="46.99057" lon="8.81083">
        <ele>1106</ele>
        <time>2021-08-04T08:44:05.857Z</time>
      </trkpt>
      <trkpt lat="46.99058" lon="8.81082">
        <ele>1106</ele>
        <time>2021-08-04T08:44:06.857Z</time>
      </trkpt>
      <trkpt lat="46.99058" lon="8.81081">
        <ele>1106</ele>
        <time>2021-08-04T08:44:07.856Z</time>
      </trkpt>
      <trkpt lat="46.99057" lon="8.8108">
        <ele>1106</ele>
        <time>2021-08-04T08:44:08.856Z</time>
      </trkpt>
      <trkpt lat="46.99057" lon="8.81079">
        <ele>1106</ele>
        <time>2021-08-04T08:44:09.857Z</time>
      </trkpt>
      <trkpt lat="46.99057" lon="8.81077">
        <ele>1106</ele>
        <time>2021-08-04T08:44:10.857Z</time>
      </trkpt>
      <trkpt lat="46.99057" lon="8.81076">
        <ele>1106</ele>
        <time>2021-08-04T08:44:11.857Z</time>
      </trkpt>
      <trkpt lat="46.99057" lon="8.81074">
        <ele>1107</ele>
        <time>2021-08-04T08:44:12.857Z</time>
      </trkpt>
      <trkpt lat="46.99057" lon="8.81073">
        <ele>1107</ele>
        <time>2021-08-04T08:44:13.857Z</time>
      </trkpt>
      <trkpt lat="46.99057" lon="8.81071">
        <ele>1108</ele>
        <time>2021-08-04T08:44:14.857Z</time>
      </trkpt>
      <trkpt lat="46.99056" lon="8.8107">
        <ele>1108</ele>
        <time>2021-08-04T08:44:15.856Z</time>
      </trkpt>
      <trkpt lat="46.99056" lon="8.81069">
        <ele>1108</ele>
        <time>2021-08-04T08:44:16.857Z</time>
      </trkpt>
      <trkpt lat="46.99056" lon="8.81067">
        <ele>1108</ele>
        <time>2021-08-04T08:44:17.857Z</time>
      </trkpt>
      <trkpt lat="46.99055" lon="8.81066">
        <ele>1108</ele>
        <time>2021-08-04T08:44:18.856Z</time>
      </trkpt>
      <trkpt lat="46.99055" lon="8.81065">
        <ele>1108</ele>
        <time>2021-08-04T08:44:19.857Z</time>
      </trkpt>
      <trkpt lat="46.99054" lon="8.81063">
        <ele>1108</ele>
        <time>2021-08-04T08:44:20.856Z</time>
      </trkpt>
      <trkpt lat="46.99054" lon="8.81061">
        <ele>1107</ele>
        <time>2021-08-04T08:44:21.856Z</time>
      </trkpt>
      <trkpt lat="46.99054" lon="8.8106">
        <ele>1107</ele>
        <time>2021-08-04T08:44:22.856Z</time>
      </trkpt>
      <trkpt lat="46.99053" lon="8.81059">
        <ele>1107</ele>
        <time>2021-08-04T08:44:23.857Z</time>
      </trkpt>
      <trkpt lat="46.99053" lon="8.81058">
        <ele>1106</ele>
        <time>2021-08-04T08:44:24.857Z</time>
      </trkpt>
      <trkpt lat="46.99053" lon="8.81056">
        <ele>1106</ele>
        <time>2021-08-04T08:44:25.857Z</time>
      </trkpt>
      <trkpt lat="46.99053" lon="8.81055">
        <ele>1105</ele>
        <time>2021-08-04T08:44:26.856Z</time>
      </trkpt>
      <trkpt lat="46.99053" lon="8.81054">
        <ele>1105</ele>
        <time>2021-08-04T08:44:27.856Z</time>
      </trkpt>
      <trkpt lat="46.99053" lon="8.81053">
        <ele>1105</ele>
        <time>2021-08-04T08:44:28.856Z</time>
      </trkpt>
      <trkpt lat="46.99053" lon="8.81052">
        <ele>1105</ele>
        <time>2021-08-04T08:44:29.856Z</time>
      </trkpt>
      <trkpt lat="46.99052" lon="8.8105">
        <ele>1105</ele>
        <time>2021-08-04T08:44:30.856Z</time>
      </trkpt>
      <trkpt lat="46.99052" lon="8.81049">
        <ele>1105</ele>
        <time>2021-08-04T08:44:31.856Z</time>
      </trkpt>
      <trkpt lat="46.99052" lon="8.81047">
        <ele>1104</ele>
        <time>2021-08-04T08:44:32.857Z</time>
      </trkpt>
      <trkpt lat="46.99051" lon="8.81045">
        <ele>1104</ele>
        <time>2021-08-04T08:44:33.857Z</time>
      </trkpt>
      <trkpt lat="46.99051" lon="8.81044">
        <ele>1104</ele>
        <time>2021-08-04T08:44:34.857Z</time>
      </trkpt>
      <trkpt lat="46.9905" lon="8.81043">
        <ele>1103</ele>
        <time>2021-08-04T08:44:35.857Z</time>
      </trkpt>
      <trkpt lat="46.9905" lon="8.81042">
        <ele>1103</ele>
        <time>2021-08-04T08:44:36.857Z</time>
      </trkpt>
      <trkpt lat="46.99049" lon="8.81041">
        <ele>1103</ele>
        <time>2021-08-04T08:44:37.856Z</time>
      </trkpt>
      <trkpt lat="46.99049" lon="8.8104">
        <ele>1102</ele>
        <time>2021-08-04T08:44:38.857Z</time>
      </trkpt>
      <trkpt lat="46.99049" lon="8.81039">
        <ele>1102</ele>
        <time>2021-08-04T08:44:39.857Z</time>
      </trkpt>
      <trkpt lat="46.99049" lon="8.81038">
        <ele>1102</ele>
        <time>2021-08-04T08:44:40.857Z</time>
      </trkpt>
      <trkpt lat="46.99049" lon="8.81037">
        <ele>1102</ele>
        <time>2021-08-04T08:44:41.857Z</time>
      </trkpt>
      <trkpt lat="46.9905" lon="8.81036">
        <ele>1102</ele>
        <time>2021-08-04T08:44:42.856Z</time>
      </trkpt>
      <trkpt lat="46.9905" lon="8.81035">
        <ele>1102</ele>
        <time>2021-08-04T08:44:43.857Z</time>
      </trkpt>
      <trkpt lat="46.9905" lon="8.81034">
        <ele>1101</ele>
        <time>2021-08-04T08:44:44.857Z</time>
      </trkpt>
      <trkpt lat="46.99051" lon="8.81032">
        <ele>1101</ele>
        <time>2021-08-04T08:44:45.856Z</time>
      </trkpt>
      <trkpt lat="46.99051" lon="8.81029">
        <ele>1101</ele>
        <time>2021-08-04T08:44:46.857Z</time>
      </trkpt>
      <trkpt lat="46.99051" lon="8.81027">
        <ele>1100</ele>
        <time>2021-08-04T08:44:47.856Z</time>
      </trkpt>
      <trkpt lat="46.99052" lon="8.81026">
        <ele>1100</ele>
        <time>2021-08-04T08:44:48.856Z</time>
      </trkpt>
      <trkpt lat="46.99052" lon="8.81024">
        <ele>1100</ele>
        <time>2021-08-04T08:44:49.856Z</time>
      </trkpt>
      <trkpt lat="46.99052" lon="8.81023">
        <ele>1100</ele>
        <time>2021-08-04T08:44:50.857Z</time>
      </trkpt>
      <trkpt lat="46.99052" lon="8.81022">
        <ele>1100</ele>
        <time>2021-08-04T08:44:51.856Z</time>
      </trkpt>
      <trkpt lat="46.99051" lon="8.8102">
        <ele>1100</ele>
        <time>2021-08-04T08:44:52.856Z</time>
      </trkpt>
      <trkpt lat="46.99051" lon="8.81019">
        <ele>1100</ele>
        <time>2021-08-04T08:44:53.856Z</time>
      </trkpt>
      <trkpt lat="46.9905" lon="8.81017">
        <ele>1099</ele>
        <time>2021-08-04T08:44:54.856Z</time>
      </trkpt>
      <trkpt lat="46.9905" lon="8.81016">
        <ele>1099</ele>
        <time>2021-08-04T08:44:55.857Z</time>
      </trkpt>
      <trkpt lat="46.9905" lon="8.81015">
        <ele>1099</ele>
        <time>2021-08-04T08:44:56.857Z</time>
      </trkpt>
      <trkpt lat="46.9905" lon="8.81014">
        <ele>1100</ele>
        <time>2021-08-04T08:44:57.856Z</time>
      </trkpt>
      <trkpt lat="46.9905" lon="8.81013">
        <ele>1100</ele>
        <time>2021-08-04T08:44:58.857Z</time>
      </trkpt>
      <trkpt lat="46.9905" lon="8.81012">
        <ele>1100</ele>
        <time>2021-08-04T08:44:59.857Z</time>
      </trkpt>
      <trkpt lat="46.9905" lon="8.8101">
        <ele>1101</ele>
        <time>2021-08-04T08:45:00.856Z</time>
      </trkpt>
      <trkpt lat="46.9905" lon="8.81009">
        <ele>1101</ele>
        <time>2021-08-04T08:45:01.856Z</time>
      </trkpt>
      <trkpt lat="46.9905" lon="8.81007">
        <ele>1101</ele>
        <time>2021-08-04T08:45:02.856Z</time>
      </trkpt>
      <trkpt lat="46.9905" lon="8.81006">
        <ele>1101</ele>
        <time>2021-08-04T08:45:03.856Z</time>
      </trkpt>
      <trkpt lat="46.9905" lon="8.81004">
        <ele>1101</ele>
        <time>2021-08-04T08:45:04.856Z</time>
      </trkpt>
      <trkpt lat="46.9905" lon="8.81003">
        <ele>1101</ele>
        <time>2021-08-04T08:45:05.857Z</time>
      </trkpt>
      <trkpt lat="46.99049" lon="8.81002">
        <ele>1101</ele>
        <time>2021-08-04T08:45:06.856Z</time>
      </trkpt>
      <trkpt lat="46.9905" lon="8.81">
        <ele>1101</ele>
        <time>2021-08-04T08:45:07.856Z</time>
      </trkpt>
      <trkpt lat="46.9905" lon="8.80998">
        <ele>1101</ele>
        <time>2021-08-04T08:45:08.856Z</time>
      </trkpt>
      <trkpt lat="46.9905" lon="8.80997">
        <ele>1102</ele>
        <time>2021-08-04T08:45:09.856Z</time>
      </trkpt>
      <trkpt lat="46.9905" lon="8.80996">
        <ele>1102</ele>
        <time>2021-08-04T08:45:10.856Z</time>
      </trkpt>
      <trkpt lat="46.9905" lon="8.80995">
        <ele>1102</ele>
        <time>2021-08-04T08:45:11.856Z</time>
      </trkpt>
      <trkpt lat="46.9905" lon="8.80994">
        <ele>1103</ele>
        <time>2021-08-04T08:45:12.857Z</time>
      </trkpt>
      <trkpt lat="46.9905" lon="8.80992">
        <ele>1103</ele>
        <time>2021-08-04T08:45:13.857Z</time>
      </trkpt>
      <trkpt lat="46.99051" lon="8.80992">
        <ele>1103</ele>
        <time>2021-08-04T08:45:14.856Z</time>
      </trkpt>
      <trkpt lat="46.99051" lon="8.8099">
        <ele>1103</ele>
        <time>2021-08-04T08:45:15.856Z</time>
      </trkpt>
      <trkpt lat="46.99051" lon="8.80989">
        <ele>1103</ele>
        <time>2021-08-04T08:45:16.856Z</time>
      </trkpt>
      <trkpt lat="46.9905" lon="8.80988">
        <ele>1103</ele>
        <time>2021-08-04T08:45:17.857Z</time>
      </trkpt>
      <trkpt lat="46.9905" lon="8.80987">
        <ele>1103</ele>
        <time>2021-08-04T08:45:18.857Z</time>
      </trkpt>
      <trkpt lat="46.9905" lon="8.80986">
        <ele>1103</ele>
        <time>2021-08-04T08:45:19.857Z</time>
      </trkpt>
      <trkpt lat="46.9905" lon="8.80985">
        <ele>1103</ele>
        <time>2021-08-04T08:45:20.856Z</time>
      </trkpt>
      <trkpt lat="46.9905" lon="8.80984">
        <ele>1103</ele>
        <time>2021-08-04T08:45:21.857Z</time>
      </trkpt>
      <trkpt lat="46.9905" lon="8.80982">
        <ele>1103</ele>
        <time>2021-08-04T08:45:22.857Z</time>
      </trkpt>
      <trkpt lat="46.9905" lon="8.80981">
        <ele>1103</ele>
        <time>2021-08-04T08:45:23.857Z</time>
      </trkpt>
      <trkpt lat="46.9905" lon="8.8098">
        <ele>1104</ele>
        <time>2021-08-04T08:45:24.857Z</time>
      </trkpt>
      <trkpt lat="46.99049" lon="8.80979">
        <ele>1104</ele>
        <time>2021-08-04T08:45:25.857Z</time>
      </trkpt>
      <trkpt lat="46.99049" lon="8.80977">
        <ele>1104</ele>
        <time>2021-08-04T08:45:26.856Z</time>
      </trkpt>
      <trkpt lat="46.99048" lon="8.80976">
        <ele>1104</ele>
        <time>2021-08-04T08:45:27.857Z</time>
      </trkpt>
      <trkpt lat="46.99048" lon="8.80974">
        <ele>1104</ele>
        <time>2021-08-04T08:45:28.857Z</time>
      </trkpt>
      <trkpt lat="46.99048" lon="8.80973">
        <ele>1104</ele>
        <time>2021-08-04T08:45:29.857Z</time>
      </trkpt>
      <trkpt lat="46.99048" lon="8.80972">
        <ele>1104</ele>
        <time>2021-08-04T08:45:30.857Z</time>
      </trkpt>
      <trkpt lat="46.99048" lon="8.80971">
        <ele>1104</ele>
        <time>2021-08-04T08:45:31.856Z</time>
      </trkpt>
      <trkpt lat="46.99048" lon="8.8097">
        <ele>1103</ele>
        <time>2021-08-04T08:45:32.857Z</time>
      </trkpt>
      <trkpt lat="46.99048" lon="8.80968">
        <ele>1103</ele>
        <time>2021-08-04T08:45:33.857Z</time>
      </trkpt>
      <trkpt lat="46.99048" lon="8.80967">
        <ele>1104</ele>
        <time>2021-08-04T08:45:34.856Z</time>
      </trkpt>
      <trkpt lat="46.99048" lon="8.80966">
        <ele>1104</ele>
        <time>2021-08-04T08:45:35.857Z</time>
      </trkpt>
      <trkpt lat="46.99048" lon="8.80965">
        <ele>1104</ele>
        <time>2021-08-04T08:45:36.857Z</time>
      </trkpt>
      <trkpt lat="46.99048" lon="8.80964">
        <ele>1104</ele>
        <time>2021-08-04T08:45:37.856Z</time>
      </trkpt>
      <trkpt lat="46.99048" lon="8.80963">
        <ele>1104</ele>
        <time>2021-08-04T08:45:38.857Z</time>
      </trkpt>
      <trkpt lat="46.99048" lon="8.80962">
        <ele>1104</ele>
        <time>2021-08-04T08:45:39.857Z</time>
      </trkpt>
      <trkpt lat="46.99048" lon="8.80962">
        <ele>1104</ele>
        <time>2021-08-04T08:45:40.857Z</time>
      </trkpt>
      <trkpt lat="46.99048" lon="8.8096">
        <ele>1103</ele>
        <time>2021-08-04T08:45:41.857Z</time>
      </trkpt>
      <trkpt lat="46.99048" lon="8.8096">
        <ele>1103</ele>
        <time>2021-08-04T08:45:42.857Z</time>
      </trkpt>
      <trkpt lat="46.99047" lon="8.80959">
        <ele>1102</ele>
        <time>2021-08-04T08:45:43.857Z</time>
      </trkpt>
      <trkpt lat="46.99046" lon="8.80958">
        <ele>1101</ele>
        <time>2021-08-04T08:45:44.856Z</time>
      </trkpt>
      <trkpt lat="46.99046" lon="8.80957">
        <ele>1101</ele>
        <time>2021-08-04T08:45:45.856Z</time>
      </trkpt>
      <trkpt lat="46.99046" lon="8.80955">
        <ele>1101</ele>
        <time>2021-08-04T08:45:46.857Z</time>
      </trkpt>
      <trkpt lat="46.99046" lon="8.80954">
        <ele>1101</ele>
        <time>2021-08-04T08:45:47.857Z</time>
      </trkpt>
      <trkpt lat="46.99045" lon="8.80953">
        <ele>1101</ele>
        <time>2021-08-04T08:45:48.856Z</time>
      </trkpt>
      <trkpt lat="46.99045" lon="8.80952">
        <ele>1101</ele>
        <time>2021-08-04T08:45:49.857Z</time>
      </trkpt>
      <trkpt lat="46.99045" lon="8.80951">
        <ele>1101</ele>
        <time>2021-08-04T08:45:50.857Z</time>
      </trkpt>
      <trkpt lat="46.99045" lon="8.80951">
        <ele>1101</ele>
        <time>2021-08-04T08:45:51.857Z</time>
      </trkpt>
      <trkpt lat="46.99044" lon="8.80949">
        <ele>1100</ele>
        <time>2021-08-04T08:45:52.856Z</time>
      </trkpt>
      <trkpt lat="46.99044" lon="8.80949">
        <ele>1099</ele>
        <time>2021-08-04T08:45:53.856Z</time>
      </trkpt>
      <trkpt lat="46.99044" lon="8.80948">
        <ele>1098</ele>
        <time>2021-08-04T08:45:54.857Z</time>
      </trkpt>
      <trkpt lat="46.99043" lon="8.80947">
        <ele>1097</ele>
        <time>2021-08-04T08:45:55.857Z</time>
      </trkpt>
      <trkpt lat="46.99043" lon="8.80946">
        <ele>1097</ele>
        <time>2021-08-04T08:45:56.856Z</time>
      </trkpt>
      <trkpt lat="46.99043" lon="8.80946">
        <ele>1096</ele>
        <time>2021-08-04T08:45:57.857Z</time>
      </trkpt>
      <trkpt lat="46.99043" lon="8.80945">
        <ele>1096</ele>
        <time>2021-08-04T08:45:58.856Z</time>
      </trkpt>
      <trkpt lat="46.99043" lon="8.80944">
        <ele>1096</ele>
        <time>2021-08-04T08:45:59.856Z</time>
      </trkpt>
      <trkpt lat="46.99042" lon="8.80943">
        <ele>1095</ele>
        <time>2021-08-04T08:46:00.857Z</time>
      </trkpt>
      <trkpt lat="46.99042" lon="8.80943">
        <ele>1095</ele>
        <time>2021-08-04T08:46:01.857Z</time>
      </trkpt>
      <trkpt lat="46.99042" lon="8.80941">
        <ele>1095</ele>
        <time>2021-08-04T08:46:02.856Z</time>
      </trkpt>
      <trkpt lat="46.99042" lon="8.8094">
        <ele>1095</ele>
        <time>2021-08-04T08:46:03.857Z</time>
      </trkpt>
      <trkpt lat="46.99041" lon="8.80939">
        <ele>1094</ele>
        <time>2021-08-04T08:46:04.856Z</time>
      </trkpt>
      <trkpt lat="46.99041" lon="8.80938">
        <ele>1094</ele>
        <time>2021-08-04T08:46:05.857Z</time>
      </trkpt>
      <trkpt lat="46.99041" lon="8.80937">
        <ele>1093</ele>
        <time>2021-08-04T08:46:06.857Z</time>
      </trkpt>
      <trkpt lat="46.99041" lon="8.80936">
        <ele>1093</ele>
        <time>2021-08-04T08:46:07.857Z</time>
      </trkpt>
      <trkpt lat="46.99041" lon="8.80935">
        <ele>1093</ele>
        <time>2021-08-04T08:46:08.857Z</time>
      </trkpt>
      <trkpt lat="46.9904" lon="8.80934">
        <ele>1092</ele>
        <time>2021-08-04T08:46:09.857Z</time>
      </trkpt>
      <trkpt lat="46.9904" lon="8.80932">
        <ele>1092</ele>
        <time>2021-08-04T08:46:10.857Z</time>
      </trkpt>
      <trkpt lat="46.99041" lon="8.80931">
        <ele>1092</ele>
        <time>2021-08-04T08:46:11.857Z</time>
      </trkpt>
      <trkpt lat="46.99041" lon="8.80929">
        <ele>1092</ele>
        <time>2021-08-04T08:46:12.857Z</time>
      </trkpt>
      <trkpt lat="46.99041" lon="8.80928">
        <ele>1092</ele>
        <time>2021-08-04T08:46:13.856Z</time>
      </trkpt>
      <trkpt lat="46.99041" lon="8.80927">
        <ele>1092</ele>
        <time>2021-08-04T08:46:14.857Z</time>
      </trkpt>
      <trkpt lat="46.99042" lon="8.80925">
        <ele>1092</ele>
        <time>2021-08-04T08:46:15.857Z</time>
      </trkpt>
      <trkpt lat="46.99042" lon="8.80924">
        <ele>1092</ele>
        <time>2021-08-04T08:46:16.857Z</time>
      </trkpt>
      <trkpt lat="46.99042" lon="8.80921">
        <ele>1093</ele>
        <time>2021-08-04T08:46:17.857Z</time>
      </trkpt>
      <trkpt lat="46.99041" lon="8.8092">
        <ele>1093</ele>
        <time>2021-08-04T08:46:18.857Z</time>
      </trkpt>
      <trkpt lat="46.99041" lon="8.80918">
        <ele>1093</ele>
        <time>2021-08-04T08:46:19.857Z</time>
      </trkpt>
      <trkpt lat="46.9904" lon="8.80917">
        <ele>1093</ele>
        <time>2021-08-04T08:46:20.857Z</time>
      </trkpt>
      <trkpt lat="46.9904" lon="8.80916">
        <ele>1094</ele>
        <time>2021-08-04T08:46:21.857Z</time>
      </trkpt>
      <trkpt lat="46.9904" lon="8.80915">
        <ele>1094</ele>
        <time>2021-08-04T08:46:22.856Z</time>
      </trkpt>
      <trkpt lat="46.9904" lon="8.80914">
        <ele>1094</ele>
        <time>2021-08-04T08:46:23.856Z</time>
      </trkpt>
      <trkpt lat="46.99041" lon="8.80913">
        <ele>1095</ele>
        <time>2021-08-04T08:46:24.857Z</time>
      </trkpt>
      <trkpt lat="46.99041" lon="8.80912">
        <ele>1095</ele>
        <time>2021-08-04T08:46:25.857Z</time>
      </trkpt>
      <trkpt lat="46.99042" lon="8.80911">
        <ele>1096</ele>
        <time>2021-08-04T08:46:26.856Z</time>
      </trkpt>
      <trkpt lat="46.99043" lon="8.8091">
        <ele>1097</ele>
        <time>2021-08-04T08:46:27.857Z</time>
      </trkpt>
      <trkpt lat="46.99043" lon="8.8091">
        <ele>1097</ele>
        <time>2021-08-04T08:46:28.856Z</time>
      </trkpt>
      <trkpt lat="46.99043" lon="8.80909">
        <ele>1097</ele>
        <time>2021-08-04T08:46:29.856Z</time>
      </trkpt>
      <trkpt lat="46.99044" lon="8.80908">
        <ele>1097</ele>
        <time>2021-08-04T08:46:30.857Z</time>
      </trkpt>
      <trkpt lat="46.99044" lon="8.80907">
        <ele>1097</ele>
        <time>2021-08-04T08:46:31.857Z</time>
      </trkpt>
      <trkpt lat="46.99044" lon="8.80907">
        <ele>1097</ele>
        <time>2021-08-04T08:46:32.857Z</time>
      </trkpt>
      <trkpt lat="46.99044" lon="8.80907">
        <ele>1097</ele>
        <time>2021-08-04T08:46:33.857Z</time>
      </trkpt>
      <trkpt lat="46.99044" lon="8.80902">
        <ele>1098</ele>
        <time>2021-08-04T08:46:34.857Z</time>
      </trkpt>
      <trkpt lat="46.99045" lon="8.80901">
        <ele>1098</ele>
        <time>2021-08-04T08:46:35.857Z</time>
      </trkpt>
      <trkpt lat="46.99045" lon="8.809">
        <ele>1099</ele>
        <time>2021-08-04T08:46:36.857Z</time>
      </trkpt>
      <trkpt lat="46.99044" lon="8.80898">
        <ele>1099</ele>
        <time>2021-08-04T08:46:37.857Z</time>
      </trkpt>
      <trkpt lat="46.99044" lon="8.80896">
        <ele>1099</ele>
        <time>2021-08-04T08:46:38.858Z</time>
      </trkpt>
      <trkpt lat="46.99045" lon="8.80895">
        <ele>1099</ele>
        <time>2021-08-04T08:46:39.857Z</time>
      </trkpt>
      <trkpt lat="46.99045" lon="8.80894">
        <ele>1099</ele>
        <time>2021-08-04T08:46:40.857Z</time>
      </trkpt>
      <trkpt lat="46.99045" lon="8.80893">
        <ele>1098</ele>
        <time>2021-08-04T08:46:41.857Z</time>
      </trkpt>
      <trkpt lat="46.99046" lon="8.80894">
        <ele>1098</ele>
        <time>2021-08-04T08:46:42.857Z</time>
      </trkpt>
      <trkpt lat="46.99047" lon="8.80892">
        <ele>1097</ele>
        <time>2021-08-04T08:46:43.857Z</time>
      </trkpt>
      <trkpt lat="46.99047" lon="8.8089">
        <ele>1097</ele>
        <time>2021-08-04T08:46:44.857Z</time>
      </trkpt>
      <trkpt lat="46.99047" lon="8.80889">
        <ele>1097</ele>
        <time>2021-08-04T08:46:45.858Z</time>
      </trkpt>
      <trkpt lat="46.99047" lon="8.80887">
        <ele>1097</ele>
        <time>2021-08-04T08:46:46.858Z</time>
      </trkpt>
      <trkpt lat="46.99047" lon="8.80886">
        <ele>1097</ele>
        <time>2021-08-04T08:46:47.857Z</time>
      </trkpt>
      <trkpt lat="46.99047" lon="8.80885">
        <ele>1097</ele>
        <time>2021-08-04T08:46:48.858Z</time>
      </trkpt>
      <trkpt lat="46.99047" lon="8.80884">
        <ele>1097</ele>
        <time>2021-08-04T08:46:49.857Z</time>
      </trkpt>
      <trkpt lat="46.99048" lon="8.80883">
        <ele>1097</ele>
        <time>2021-08-04T08:46:50.857Z</time>
      </trkpt>
      <trkpt lat="46.99048" lon="8.80882">
        <ele>1097</ele>
        <time>2021-08-04T08:46:51.857Z</time>
      </trkpt>
      <trkpt lat="46.9905" lon="8.80883">
        <ele>1098</ele>
        <time>2021-08-04T08:46:52.857Z</time>
      </trkpt>
      <trkpt lat="46.99051" lon="8.80883">
        <ele>1098</ele>
        <time>2021-08-04T08:46:53.857Z</time>
      </trkpt>
      <trkpt lat="46.99054" lon="8.80881">
        <ele>1091</ele>
        <time>2021-08-04T08:46:54.857Z</time>
      </trkpt>
      <trkpt lat="46.99054" lon="8.80879">
        <ele>1092</ele>
        <time>2021-08-04T08:46:55.858Z</time>
      </trkpt>
      <trkpt lat="46.99054" lon="8.80877">
        <ele>1092</ele>
        <time>2021-08-04T08:46:56.857Z</time>
      </trkpt>
      <trkpt lat="46.99054" lon="8.80874">
        <ele>1092</ele>
        <time>2021-08-04T08:46:57.857Z</time>
      </trkpt>
      <trkpt lat="46.99054" lon="8.80873">
        <ele>1092</ele>
        <time>2021-08-04T08:46:58.857Z</time>
      </trkpt>
      <trkpt lat="46.99054" lon="8.80871">
        <ele>1091</ele>
        <time>2021-08-04T08:46:59.857Z</time>
      </trkpt>
      <trkpt lat="46.99053" lon="8.80869">
        <ele>1091</ele>
        <time>2021-08-04T08:47:00.858Z</time>
      </trkpt>
      <trkpt lat="46.99053" lon="8.80868">
        <ele>1091</ele>
        <time>2021-08-04T08:47:01.857Z</time>
      </trkpt>
      <trkpt lat="46.99053" lon="8.80867">
        <ele>1091</ele>
        <time>2021-08-04T08:47:02.858Z</time>
      </trkpt>
      <trkpt lat="46.99053" lon="8.80866">
        <ele>1091</ele>
        <time>2021-08-04T08:47:03.858Z</time>
      </trkpt>
      <trkpt lat="46.99054" lon="8.80864">
        <ele>1091</ele>
        <time>2021-08-04T08:47:04.857Z</time>
      </trkpt>
      <trkpt lat="46.99055" lon="8.80863">
        <ele>1091</ele>
        <time>2021-08-04T08:47:05.857Z</time>
      </trkpt>
      <trkpt lat="46.99054" lon="8.80861">
        <ele>1091</ele>
        <time>2021-08-04T08:47:06.857Z</time>
      </trkpt>
      <trkpt lat="46.99054" lon="8.80859">
        <ele>1091</ele>
        <time>2021-08-04T08:47:07.857Z</time>
      </trkpt>
      <trkpt lat="46.99054" lon="8.80857">
        <ele>1091</ele>
        <time>2021-08-04T08:47:08.857Z</time>
      </trkpt>
      <trkpt lat="46.99054" lon="8.80855">
        <ele>1092</ele>
        <time>2021-08-04T08:47:09.857Z</time>
      </trkpt>
      <trkpt lat="46.99054" lon="8.80853">
        <ele>1092</ele>
        <time>2021-08-04T08:47:10.857Z</time>
      </trkpt>
      <trkpt lat="46.99054" lon="8.80852">
        <ele>1092</ele>
        <time>2021-08-04T08:47:11.858Z</time>
      </trkpt>
      <trkpt lat="46.99054" lon="8.80851">
        <ele>1092</ele>
        <time>2021-08-04T08:47:12.857Z</time>
      </trkpt>
      <trkpt lat="46.99053" lon="8.8085">
        <ele>1093</ele>
        <time>2021-08-04T08:47:13.857Z</time>
      </trkpt>
      <trkpt lat="46.99053" lon="8.80849">
        <ele>1093</ele>
        <time>2021-08-04T08:47:14.857Z</time>
      </trkpt>
      <trkpt lat="46.99053" lon="8.80847">
        <ele>1093</ele>
        <time>2021-08-04T08:47:15.857Z</time>
      </trkpt>
      <trkpt lat="46.99053" lon="8.80846">
        <ele>1093</ele>
        <time>2021-08-04T08:47:16.857Z</time>
      </trkpt>
      <trkpt lat="46.99052" lon="8.80844">
        <ele>1093</ele>
        <time>2021-08-04T08:47:17.857Z</time>
      </trkpt>
      <trkpt lat="46.99052" lon="8.80842">
        <ele>1092</ele>
        <time>2021-08-04T08:47:18.857Z</time>
      </trkpt>
      <trkpt lat="46.99052" lon="8.8084">
        <ele>1092</ele>
        <time>2021-08-04T08:47:19.857Z</time>
      </trkpt>
      <trkpt lat="46.99052" lon="8.80839">
        <ele>1092</ele>
        <time>2021-08-04T08:47:20.857Z</time>
      </trkpt>
      <trkpt lat="46.99053" lon="8.80838">
        <ele>1092</ele>
        <time>2021-08-04T08:47:21.858Z</time>
      </trkpt>
      <trkpt lat="46.99053" lon="8.80837">
        <ele>1092</ele>
        <time>2021-08-04T08:47:22.858Z</time>
      </trkpt>
      <trkpt lat="46.99053" lon="8.80836">
        <ele>1092</ele>
        <time>2021-08-04T08:47:23.857Z</time>
      </trkpt>
      <trkpt lat="46.99053" lon="8.80835">
        <ele>1092</ele>
        <time>2021-08-04T08:47:24.857Z</time>
      </trkpt>
      <trkpt lat="46.99053" lon="8.80834">
        <ele>1091</ele>
        <time>2021-08-04T08:47:25.858Z</time>
      </trkpt>
      <trkpt lat="46.99053" lon="8.80832">
        <ele>1091</ele>
        <time>2021-08-04T08:47:26.857Z</time>
      </trkpt>
      <trkpt lat="46.99054" lon="8.8083">
        <ele>1090</ele>
        <time>2021-08-04T08:47:27.857Z</time>
      </trkpt>
      <trkpt lat="46.99054" lon="8.80829">
        <ele>1090</ele>
        <time>2021-08-04T08:47:28.857Z</time>
      </trkpt>
      <trkpt lat="46.99053" lon="8.80827">
        <ele>1089</ele>
        <time>2021-08-04T08:47:29.858Z</time>
      </trkpt>
      <trkpt lat="46.99053" lon="8.80825">
        <ele>1089</ele>
        <time>2021-08-04T08:47:30.858Z</time>
      </trkpt>
      <trkpt lat="46.99054" lon="8.80823">
        <ele>1089</ele>
        <time>2021-08-04T08:47:31.857Z</time>
      </trkpt>
      <trkpt lat="46.99055" lon="8.80822">
        <ele>1089</ele>
        <time>2021-08-04T08:47:32.857Z</time>
      </trkpt>
      <trkpt lat="46.99055" lon="8.80821">
        <ele>1090</ele>
        <time>2021-08-04T08:47:33.857Z</time>
      </trkpt>
      <trkpt lat="46.99055" lon="8.80819">
        <ele>1090</ele>
        <time>2021-08-04T08:47:34.857Z</time>
      </trkpt>
      <trkpt lat="46.99055" lon="8.80818">
        <ele>1090</ele>
        <time>2021-08-04T08:47:35.858Z</time>
      </trkpt>
      <trkpt lat="46.99056" lon="8.80817">
        <ele>1090</ele>
        <time>2021-08-04T08:47:36.857Z</time>
      </trkpt>
      <trkpt lat="46.99056" lon="8.80816">
        <ele>1090</ele>
        <time>2021-08-04T08:47:37.858Z</time>
      </trkpt>
      <trkpt lat="46.99056" lon="8.80814">
        <ele>1089</ele>
        <time>2021-08-04T08:47:38.857Z</time>
      </trkpt>
      <trkpt lat="46.99057" lon="8.80813">
        <ele>1090</ele>
        <time>2021-08-04T08:47:39.857Z</time>
      </trkpt>
      <trkpt lat="46.99057" lon="8.80813">
        <ele>1090</ele>
        <time>2021-08-04T08:47:40.857Z</time>
      </trkpt>
      <trkpt lat="46.99057" lon="8.80812">
        <ele>1090</ele>
        <time>2021-08-04T08:47:41.857Z</time>
      </trkpt>
      <trkpt lat="46.99057" lon="8.80812">
        <ele>1091</ele>
        <time>2021-08-04T08:47:42.858Z</time>
      </trkpt>
      <trkpt lat="46.99057" lon="8.80811">
        <ele>1091</ele>
        <time>2021-08-04T08:47:43.857Z</time>
      </trkpt>
      <trkpt lat="46.99058" lon="8.8081">
        <ele>1091</ele>
        <time>2021-08-04T08:47:44.858Z</time>
      </trkpt>
      <trkpt lat="46.99058" lon="8.8081">
        <ele>1091</ele>
        <time>2021-08-04T08:47:45.857Z</time>
      </trkpt>
      <trkpt lat="46.99058" lon="8.80809">
        <ele>1091</ele>
        <time>2021-08-04T08:47:46.857Z</time>
      </trkpt>
      <trkpt lat="46.99058" lon="8.80808">
        <ele>1091</ele>
        <time>2021-08-04T08:47:47.857Z</time>
      </trkpt>
      <trkpt lat="46.99058" lon="8.80806">
        <ele>1091</ele>
        <time>2021-08-04T08:47:48.857Z</time>
      </trkpt>
      <trkpt lat="46.99058" lon="8.80805">
        <ele>1090</ele>
        <time>2021-08-04T08:47:49.858Z</time>
      </trkpt>
      <trkpt lat="46.99058" lon="8.80803">
        <ele>1090</ele>
        <time>2021-08-04T08:47:50.858Z</time>
      </trkpt>
      <trkpt lat="46.99057" lon="8.80802">
        <ele>1089</ele>
        <time>2021-08-04T08:47:51.857Z</time>
      </trkpt>
      <trkpt lat="46.99056" lon="8.808">
        <ele>1089</ele>
        <time>2021-08-04T08:47:52.857Z</time>
      </trkpt>
      <trkpt lat="46.99056" lon="8.80798">
        <ele>1088</ele>
        <time>2021-08-04T08:47:53.858Z</time>
      </trkpt>
      <trkpt lat="46.99056" lon="8.80797">
        <ele>1088</ele>
        <time>2021-08-04T08:47:54.858Z</time>
      </trkpt>
      <trkpt lat="46.99057" lon="8.80795">
        <ele>1088</ele>
        <time>2021-08-04T08:47:55.857Z</time>
      </trkpt>
      <trkpt lat="46.99058" lon="8.80795">
        <ele>1088</ele>
        <time>2021-08-04T08:47:56.858Z</time>
      </trkpt>
      <trkpt lat="46.99058" lon="8.80793">
        <ele>1087</ele>
        <time>2021-08-04T08:47:57.858Z</time>
      </trkpt>
      <trkpt lat="46.99058" lon="8.80792">
        <ele>1087</ele>
        <time>2021-08-04T08:47:58.858Z</time>
      </trkpt>
      <trkpt lat="46.99057" lon="8.8079">
        <ele>1087</ele>
        <time>2021-08-04T08:47:59.857Z</time>
      </trkpt>
      <trkpt lat="46.99056" lon="8.80788">
        <ele>1087</ele>
        <time>2021-08-04T08:48:00.857Z</time>
      </trkpt>
      <trkpt lat="46.99056" lon="8.80786">
        <ele>1088</ele>
        <time>2021-08-04T08:48:01.857Z</time>
      </trkpt>
      <trkpt lat="46.99055" lon="8.80784">
        <ele>1088</ele>
        <time>2021-08-04T08:48:02.858Z</time>
      </trkpt>
      <trkpt lat="46.99055" lon="8.80781">
        <ele>1089</ele>
        <time>2021-08-04T08:48:03.857Z</time>
      </trkpt>
      <trkpt lat="46.99055" lon="8.80779">
        <ele>1089</ele>
        <time>2021-08-04T08:48:04.858Z</time>
      </trkpt>
      <trkpt lat="46.99056" lon="8.80777">
        <ele>1090</ele>
        <time>2021-08-04T08:48:05.857Z</time>
      </trkpt>
      <trkpt lat="46.99057" lon="8.80777">
        <ele>1090</ele>
        <time>2021-08-04T08:48:06.857Z</time>
      </trkpt>
      <trkpt lat="46.99058" lon="8.80776">
        <ele>1091</ele>
        <time>2021-08-04T08:48:07.857Z</time>
      </trkpt>
      <trkpt lat="46.99058" lon="8.80774">
        <ele>1091</ele>
        <time>2021-08-04T08:48:08.857Z</time>
      </trkpt>
      <trkpt lat="46.99058" lon="8.80773">
        <ele>1092</ele>
        <time>2021-08-04T08:48:09.858Z</time>
      </trkpt>
      <trkpt lat="46.99058" lon="8.80771">
        <ele>1092</ele>
        <time>2021-08-04T08:48:10.858Z</time>
      </trkpt>
      <trkpt lat="46.99057" lon="8.80769">
        <ele>1092</ele>
        <time>2021-08-04T08:48:11.858Z</time>
      </trkpt>
      <trkpt lat="46.99057" lon="8.80767">
        <ele>1092</ele>
        <time>2021-08-04T08:48:12.857Z</time>
      </trkpt>
      <trkpt lat="46.99056" lon="8.80766">
        <ele>1092</ele>
        <time>2021-08-04T08:48:13.858Z</time>
      </trkpt>
      <trkpt lat="46.99055" lon="8.80763">
        <ele>1092</ele>
        <time>2021-08-04T08:48:14.857Z</time>
      </trkpt>
      <trkpt lat="46.99055" lon="8.80762">
        <ele>1093</ele>
        <time>2021-08-04T08:48:15.857Z</time>
      </trkpt>
      <trkpt lat="46.99055" lon="8.8076">
        <ele>1093</ele>
        <time>2021-08-04T08:48:16.858Z</time>
      </trkpt>
      <trkpt lat="46.99055" lon="8.80759">
        <ele>1093</ele>
        <time>2021-08-04T08:48:17.857Z</time>
      </trkpt>
      <trkpt lat="46.99055" lon="8.80758">
        <ele>1093</ele>
        <time>2021-08-04T08:48:18.857Z</time>
      </trkpt>
      <trkpt lat="46.99055" lon="8.80756">
        <ele>1094</ele>
        <time>2021-08-04T08:48:19.857Z</time>
      </trkpt>
      <trkpt lat="46.99056" lon="8.80754">
        <ele>1094</ele>
        <time>2021-08-04T08:48:20.857Z</time>
      </trkpt>
      <trkpt lat="46.99056" lon="8.80753">
        <ele>1094</ele>
        <time>2021-08-04T08:48:21.857Z</time>
      </trkpt>
      <trkpt lat="46.99057" lon="8.80752">
        <ele>1094</ele>
        <time>2021-08-04T08:48:22.858Z</time>
      </trkpt>
      <trkpt lat="46.99056" lon="8.80751">
        <ele>1094</ele>
        <time>2021-08-04T08:48:23.858Z</time>
      </trkpt>
      <trkpt lat="46.99056" lon="8.8075">
        <ele>1094</ele>
        <time>2021-08-04T08:48:24.857Z</time>
      </trkpt>
      <trkpt lat="46.99056" lon="8.80748">
        <ele>1093</ele>
        <time>2021-08-04T08:48:25.857Z</time>
      </trkpt>
      <trkpt lat="46.99055" lon="8.80745">
        <ele>1093</ele>
        <time>2021-08-04T08:48:26.857Z</time>
      </trkpt>
      <trkpt lat="46.99055" lon="8.80743">
        <ele>1093</ele>
        <time>2021-08-04T08:48:27.857Z</time>
      </trkpt>
      <trkpt lat="46.99055" lon="8.80741">
        <ele>1093</ele>
        <time>2021-08-04T08:48:28.857Z</time>
      </trkpt>
      <trkpt lat="46.99055" lon="8.8074">
        <ele>1093</ele>
        <time>2021-08-04T08:48:29.857Z</time>
      </trkpt>
      <trkpt lat="46.99055" lon="8.80738">
        <ele>1093</ele>
        <time>2021-08-04T08:48:30.857Z</time>
      </trkpt>
      <trkpt lat="46.99055" lon="8.80736">
        <ele>1093</ele>
        <time>2021-08-04T08:48:31.857Z</time>
      </trkpt>
      <trkpt lat="46.99055" lon="8.80734">
        <ele>1092</ele>
        <time>2021-08-04T08:48:32.857Z</time>
      </trkpt>
      <trkpt lat="46.99055" lon="8.80732">
        <ele>1092</ele>
        <time>2021-08-04T08:48:33.857Z</time>
      </trkpt>
      <trkpt lat="46.99055" lon="8.80731">
        <ele>1092</ele>
        <time>2021-08-04T08:48:34.857Z</time>
      </trkpt>
      <trkpt lat="46.99054" lon="8.80729">
        <ele>1092</ele>
        <time>2021-08-04T08:48:35.857Z</time>
      </trkpt>
      <trkpt lat="46.99054" lon="8.80727">
        <ele>1092</ele>
        <time>2021-08-04T08:48:36.857Z</time>
      </trkpt>
      <trkpt lat="46.99054" lon="8.80725">
        <ele>1092</ele>
        <time>2021-08-04T08:48:37.857Z</time>
      </trkpt>
      <trkpt lat="46.99054" lon="8.80724">
        <ele>1092</ele>
        <time>2021-08-04T08:48:38.858Z</time>
      </trkpt>
      <trkpt lat="46.99054" lon="8.80722">
        <ele>1092</ele>
        <time>2021-08-04T08:48:39.858Z</time>
      </trkpt>
      <trkpt lat="46.99054" lon="8.80719">
        <ele>1092</ele>
        <time>2021-08-04T08:48:40.858Z</time>
      </trkpt>
      <trkpt lat="46.99054" lon="8.80718">
        <ele>1092</ele>
        <time>2021-08-04T08:48:41.857Z</time>
      </trkpt>
      <trkpt lat="46.99054" lon="8.80717">
        <ele>1092</ele>
        <time>2021-08-04T08:48:42.857Z</time>
      </trkpt>
      <trkpt lat="46.99054" lon="8.80715">
        <ele>1092</ele>
        <time>2021-08-04T08:48:43.858Z</time>
      </trkpt>
      <trkpt lat="46.99053" lon="8.80714">
        <ele>1092</ele>
        <time>2021-08-04T08:48:44.858Z</time>
      </trkpt>
      <trkpt lat="46.99053" lon="8.80713">
        <ele>1092</ele>
        <time>2021-08-04T08:48:45.857Z</time>
      </trkpt>
      <trkpt lat="46.99052" lon="8.80711">
        <ele>1092</ele>
        <time>2021-08-04T08:48:46.858Z</time>
      </trkpt>
      <trkpt lat="46.99052" lon="8.8071">
        <ele>1092</ele>
        <time>2021-08-04T08:48:47.857Z</time>
      </trkpt>
      <trkpt lat="46.99052" lon="8.80709">
        <ele>1091</ele>
        <time>2021-08-04T08:48:48.857Z</time>
      </trkpt>
      <trkpt lat="46.99053" lon="8.80708">
        <ele>1091</ele>
        <time>2021-08-04T08:48:49.857Z</time>
      </trkpt>
      <trkpt lat="46.99053" lon="8.80707">
        <ele>1091</ele>
        <time>2021-08-04T08:48:50.857Z</time>
      </trkpt>
      <trkpt lat="46.99053" lon="8.80706">
        <ele>1091</ele>
        <time>2021-08-04T08:48:51.857Z</time>
      </trkpt>
      <trkpt lat="46.99053" lon="8.80704">
        <ele>1091</ele>
        <time>2021-08-04T08:48:52.857Z</time>
      </trkpt>
      <trkpt lat="46.99053" lon="8.80702">
        <ele>1091</ele>
        <time>2021-08-04T08:48:53.857Z</time>
      </trkpt>
      <trkpt lat="46.99053" lon="8.80701">
        <ele>1091</ele>
        <time>2021-08-04T08:48:54.858Z</time>
      </trkpt>
      <trkpt lat="46.99053" lon="8.80699">
        <ele>1091</ele>
        <time>2021-08-04T08:48:55.857Z</time>
      </trkpt>
      <trkpt lat="46.99053" lon="8.80698">
        <ele>1091</ele>
        <time>2021-08-04T08:48:56.858Z</time>
      </trkpt>
      <trkpt lat="46.99054" lon="8.80697">
        <ele>1090</ele>
        <time>2021-08-04T08:48:57.858Z</time>
      </trkpt>
      <trkpt lat="46.99055" lon="8.80696">
        <ele>1090</ele>
        <time>2021-08-04T08:48:58.857Z</time>
      </trkpt>
      <trkpt lat="46.99055" lon="8.80695">
        <ele>1090</ele>
        <time>2021-08-04T08:48:59.857Z</time>
      </trkpt>
      <trkpt lat="46.99054" lon="8.80694">
        <ele>1090</ele>
        <time>2021-08-04T08:49:00.857Z</time>
      </trkpt>
      <trkpt lat="46.99055" lon="8.80694">
        <ele>1091</ele>
        <time>2021-08-04T08:49:01.857Z</time>
      </trkpt>
      <trkpt lat="46.99055" lon="8.80693">
        <ele>1091</ele>
        <time>2021-08-04T08:49:02.857Z</time>
      </trkpt>
      <trkpt lat="46.99056" lon="8.80693">
        <ele>1091</ele>
        <time>2021-08-04T08:49:03.857Z</time>
      </trkpt>
      <trkpt lat="46.99057" lon="8.80693">
        <ele>1092</ele>
        <time>2021-08-04T08:49:04.857Z</time>
      </trkpt>
      <trkpt lat="46.99058" lon="8.80692">
        <ele>1092</ele>
        <time>2021-08-04T08:49:05.857Z</time>
      </trkpt>
      <trkpt lat="46.99059" lon="8.8069">
        <ele>1093</ele>
        <time>2021-08-04T08:49:06.858Z</time>
      </trkpt>
      <trkpt lat="46.99059" lon="8.80689">
        <ele>1094</ele>
        <time>2021-08-04T08:49:07.857Z</time>
      </trkpt>
      <trkpt lat="46.99059" lon="8.80688">
        <ele>1094</ele>
        <time>2021-08-04T08:49:08.857Z</time>
      </trkpt>
      <trkpt lat="46.9906" lon="8.80688">
        <ele>1095</ele>
        <time>2021-08-04T08:49:09.857Z</time>
      </trkpt>
      <trkpt lat="46.99061" lon="8.80687">
        <ele>1096</ele>
        <time>2021-08-04T08:49:10.857Z</time>
      </trkpt>
      <trkpt lat="46.99061" lon="8.80686">
        <ele>1096</ele>
        <time>2021-08-04T08:49:11.858Z</time>
      </trkpt>
      <trkpt lat="46.99061" lon="8.80685">
        <ele>1097</ele>
        <time>2021-08-04T08:49:12.858Z</time>
      </trkpt>
      <trkpt lat="46.99062" lon="8.80684">
        <ele>1097</ele>
        <time>2021-08-04T08:49:13.858Z</time>
      </trkpt>
      <trkpt lat="46.99063" lon="8.80683">
        <ele>1098</ele>
        <time>2021-08-04T08:49:14.857Z</time>
      </trkpt>
      <trkpt lat="46.99062" lon="8.80682">
        <ele>1098</ele>
        <time>2021-08-04T08:49:15.858Z</time>
      </trkpt>
      <trkpt lat="46.99062" lon="8.8068">
        <ele>1098</ele>
        <time>2021-08-04T08:49:16.857Z</time>
      </trkpt>
      <trkpt lat="46.99062" lon="8.80678">
        <ele>1099</ele>
        <time>2021-08-04T08:49:17.857Z</time>
      </trkpt>
      <trkpt lat="46.99061" lon="8.80677">
        <ele>1099</ele>
        <time>2021-08-04T08:49:18.857Z</time>
      </trkpt>
      <trkpt lat="46.99061" lon="8.80675">
        <ele>1099</ele>
        <time>2021-08-04T08:49:19.858Z</time>
      </trkpt>
      <trkpt lat="46.99061" lon="8.80673">
        <ele>1099</ele>
        <time>2021-08-04T08:49:20.857Z</time>
      </trkpt>
      <trkpt lat="46.99061" lon="8.80672">
        <ele>1100</ele>
        <time>2021-08-04T08:49:21.857Z</time>
      </trkpt>
      <trkpt lat="46.99061" lon="8.8067">
        <ele>1100</ele>
        <time>2021-08-04T08:49:22.857Z</time>
      </trkpt>
      <trkpt lat="46.99061" lon="8.80668">
        <ele>1100</ele>
        <time>2021-08-04T08:49:23.858Z</time>
      </trkpt>
      <trkpt lat="46.99061" lon="8.80667">
        <ele>1099</ele>
        <time>2021-08-04T08:49:24.857Z</time>
      </trkpt>
      <trkpt lat="46.99061" lon="8.80666">
        <ele>1099</ele>
        <time>2021-08-04T08:49:25.857Z</time>
      </trkpt>
      <trkpt lat="46.99061" lon="8.80664">
        <ele>1099</ele>
        <time>2021-08-04T08:49:26.857Z</time>
      </trkpt>
      <trkpt lat="46.99061" lon="8.80663">
        <ele>1099</ele>
        <time>2021-08-04T08:49:27.857Z</time>
      </trkpt>
      <trkpt lat="46.99061" lon="8.80661">
        <ele>1098</ele>
        <time>2021-08-04T08:49:28.858Z</time>
      </trkpt>
      <trkpt lat="46.99061" lon="8.80659">
        <ele>1098</ele>
        <time>2021-08-04T08:49:29.858Z</time>
      </trkpt>
      <trkpt lat="46.99061" lon="8.80657">
        <ele>1097</ele>
        <time>2021-08-04T08:49:30.857Z</time>
      </trkpt>
      <trkpt lat="46.99061" lon="8.80655">
        <ele>1097</ele>
        <time>2021-08-04T08:49:31.857Z</time>
      </trkpt>
      <trkpt lat="46.9906" lon="8.80653">
        <ele>1097</ele>
        <time>2021-08-04T08:49:32.857Z</time>
      </trkpt>
      <trkpt lat="46.99059" lon="8.80652">
        <ele>1097</ele>
        <time>2021-08-04T08:49:33.858Z</time>
      </trkpt>
      <trkpt lat="46.99059" lon="8.80652">
        <ele>1097</ele>
        <time>2021-08-04T08:49:34.858Z</time>
      </trkpt>
      <trkpt lat="46.99059" lon="8.80651">
        <ele>1097</ele>
        <time>2021-08-04T08:49:35.857Z</time>
      </trkpt>
      <trkpt lat="46.99059" lon="8.80651">
        <ele>1096</ele>
        <time>2021-08-04T08:49:36.857Z</time>
      </trkpt>
      <trkpt lat="46.99058" lon="8.8065">
        <ele>1096</ele>
        <time>2021-08-04T08:49:37.857Z</time>
      </trkpt>
      <trkpt lat="46.99058" lon="8.80648">
        <ele>1095</ele>
        <time>2021-08-04T08:49:38.857Z</time>
      </trkpt>
      <trkpt lat="46.99058" lon="8.80647">
        <ele>1095</ele>
        <time>2021-08-04T08:49:39.857Z</time>
      </trkpt>
      <trkpt lat="46.99057" lon="8.80646">
        <ele>1094</ele>
        <time>2021-08-04T08:49:40.858Z</time>
      </trkpt>
      <trkpt lat="46.99057" lon="8.80644">
        <ele>1094</ele>
        <time>2021-08-04T08:49:41.857Z</time>
      </trkpt>
      <trkpt lat="46.99057" lon="8.80644">
        <ele>1094</ele>
        <time>2021-08-04T08:49:42.857Z</time>
      </trkpt>
      <trkpt lat="46.99057" lon="8.80643">
        <ele>1094</ele>
        <time>2021-08-04T08:49:43.857Z</time>
      </trkpt>
      <trkpt lat="46.99057" lon="8.80642">
        <ele>1094</ele>
        <time>2021-08-04T08:49:44.857Z</time>
      </trkpt>
      <trkpt lat="46.99057" lon="8.80642">
        <ele>1094</ele>
        <time>2021-08-04T08:49:45.857Z</time>
      </trkpt>
      <trkpt lat="46.99056" lon="8.80641">
        <ele>1094</ele>
        <time>2021-08-04T08:49:46.857Z</time>
      </trkpt>
      <trkpt lat="46.99057" lon="8.80641">
        <ele>1094</ele>
        <time>2021-08-04T08:49:47.857Z</time>
      </trkpt>
      <trkpt lat="46.99057" lon="8.8064">
        <ele>1093</ele>
        <time>2021-08-04T08:49:48.857Z</time>
      </trkpt>
      <trkpt lat="46.99056" lon="8.8064">
        <ele>1093</ele>
        <time>2021-08-04T08:49:49.857Z</time>
      </trkpt>
      <trkpt lat="46.99056" lon="8.80639">
        <ele>1093</ele>
        <time>2021-08-04T08:49:50.858Z</time>
      </trkpt>
      <trkpt lat="46.99056" lon="8.80638">
        <ele>1092</ele>
        <time>2021-08-04T08:49:51.857Z</time>
      </trkpt>
      <trkpt lat="46.99056" lon="8.80637">
        <ele>1092</ele>
        <time>2021-08-04T08:49:52.857Z</time>
      </trkpt>
      <trkpt lat="46.99056" lon="8.80637">
        <ele>1091</ele>
        <time>2021-08-04T08:49:53.857Z</time>
      </trkpt>
      <trkpt lat="46.99055" lon="8.80635">
        <ele>1091</ele>
        <time>2021-08-04T08:49:54.858Z</time>
      </trkpt>
      <trkpt lat="46.99054" lon="8.80634">
        <ele>1091</ele>
        <time>2021-08-04T08:49:55.858Z</time>
      </trkpt>
      <trkpt lat="46.99054" lon="8.80633">
        <ele>1092</ele>
        <time>2021-08-04T08:49:56.857Z</time>
      </trkpt>
      <trkpt lat="46.99053" lon="8.80632">
        <ele>1092</ele>
        <time>2021-08-04T08:49:57.858Z</time>
      </trkpt>
      <trkpt lat="46.99053" lon="8.80632">
        <ele>1092</ele>
        <time>2021-08-04T08:49:58.857Z</time>
      </trkpt>
      <trkpt lat="46.99053" lon="8.80631">
        <ele>1092</ele>
        <time>2021-08-04T08:49:59.858Z</time>
      </trkpt>
      <trkpt lat="46.99053" lon="8.80631">
        <ele>1092</ele>
        <time>2021-08-04T08:50:00.857Z</time>
      </trkpt>
      <trkpt lat="46.99053" lon="8.80631">
        <ele>1091</ele>
        <time>2021-08-04T08:50:01.858Z</time>
      </trkpt>
      <trkpt lat="46.99053" lon="8.80632">
        <ele>1089</ele>
        <time>2021-08-04T08:50:02.859Z</time>
      </trkpt>
      <trkpt lat="46.99052" lon="8.80632">
        <ele>1089</ele>
        <time>2021-08-04T08:50:03.859Z</time>
      </trkpt>
      <trkpt lat="46.99052" lon="8.80632">
        <ele>1088</ele>
        <time>2021-08-04T08:50:04.859Z</time>
      </trkpt>
      <trkpt lat="46.99052" lon="8.80631">
        <ele>1088</ele>
        <time>2021-08-04T08:50:05.860Z</time>
      </trkpt>
      <trkpt lat="46.99052" lon="8.8063">
        <ele>1086</ele>
        <time>2021-08-04T08:50:06.860Z</time>
      </trkpt>
      <trkpt lat="46.99052" lon="8.80629">
        <ele>1086</ele>
        <time>2021-08-04T08:50:07.859Z</time>
      </trkpt>
      <trkpt lat="46.99052" lon="8.80628">
        <ele>1086</ele>
        <time>2021-08-04T08:50:08.859Z</time>
      </trkpt>
      <trkpt lat="46.99052" lon="8.80627">
        <ele>1086</ele>
        <time>2021-08-04T08:50:09.859Z</time>
      </trkpt>
      <trkpt lat="46.99052" lon="8.80626">
        <ele>1086</ele>
        <time>2021-08-04T08:50:10.860Z</time>
      </trkpt>
      <trkpt lat="46.99052" lon="8.80626">
        <ele>1087</ele>
        <time>2021-08-04T08:50:11.860Z</time>
      </trkpt>
      <trkpt lat="46.99051" lon="8.80625">
        <ele>1088</ele>
        <time>2021-08-04T08:50:12.860Z</time>
      </trkpt>
      <trkpt lat="46.99051" lon="8.80624">
        <ele>1089</ele>
        <time>2021-08-04T08:50:13.859Z</time>
      </trkpt>
      <trkpt lat="46.99051" lon="8.80624">
        <ele>1089</ele>
        <time>2021-08-04T08:50:14.860Z</time>
      </trkpt>
      <trkpt lat="46.99051" lon="8.80623">
        <ele>1090</ele>
        <time>2021-08-04T08:50:15.859Z</time>
      </trkpt>
      <trkpt lat="46.99051" lon="8.80623">
        <ele>1090</ele>
        <time>2021-08-04T08:50:16.859Z</time>
      </trkpt>
      <trkpt lat="46.99051" lon="8.80622">
        <ele>1090</ele>
        <time>2021-08-04T08:50:17.860Z</time>
      </trkpt>
      <trkpt lat="46.99051" lon="8.80622">
        <ele>1091</ele>
        <time>2021-08-04T08:50:18.860Z</time>
      </trkpt>
      <trkpt lat="46.99052" lon="8.80621">
        <ele>1091</ele>
        <time>2021-08-04T08:50:19.860Z</time>
      </trkpt>
      <trkpt lat="46.99053" lon="8.8062">
        <ele>1091</ele>
        <time>2021-08-04T08:50:20.859Z</time>
      </trkpt>
      <trkpt lat="46.99054" lon="8.8062">
        <ele>1092</ele>
        <time>2021-08-04T08:50:21.860Z</time>
      </trkpt>
      <trkpt lat="46.99055" lon="8.80619">
        <ele>1092</ele>
        <time>2021-08-04T08:50:22.859Z</time>
      </trkpt>
      <trkpt lat="46.99056" lon="8.80618">
        <ele>1092</ele>
        <time>2021-08-04T08:50:23.860Z</time>
      </trkpt>
      <trkpt lat="46.99057" lon="8.80618">
        <ele>1092</ele>
        <time>2021-08-04T08:50:24.860Z</time>
      </trkpt>
      <trkpt lat="46.99058" lon="8.80617">
        <ele>1092</ele>
        <time>2021-08-04T08:50:25.860Z</time>
      </trkpt>
      <trkpt lat="46.9906" lon="8.80616">
        <ele>1093</ele>
        <time>2021-08-04T08:50:26.859Z</time>
      </trkpt>
      <trkpt lat="46.99061" lon="8.80615">
        <ele>1093</ele>
        <time>2021-08-04T08:50:27.860Z</time>
      </trkpt>
      <trkpt lat="46.99061" lon="8.80614">
        <ele>1093</ele>
        <time>2021-08-04T08:50:28.860Z</time>
      </trkpt>
      <trkpt lat="46.99062" lon="8.80614">
        <ele>1094</ele>
        <time>2021-08-04T08:50:29.859Z</time>
      </trkpt>
      <trkpt lat="46.99062" lon="8.80613">
        <ele>1095</ele>
        <time>2021-08-04T08:50:30.860Z</time>
      </trkpt>
      <trkpt lat="46.99062" lon="8.80612">
        <ele>1095</ele>
        <time>2021-08-04T08:50:31.860Z</time>
      </trkpt>
      <trkpt lat="46.99062" lon="8.80611">
        <ele>1095</ele>
        <time>2021-08-04T08:50:32.860Z</time>
      </trkpt>
      <trkpt lat="46.99062" lon="8.8061">
        <ele>1095</ele>
        <time>2021-08-04T08:50:33.859Z</time>
      </trkpt>
      <trkpt lat="46.99062" lon="8.8061">
        <ele>1096</ele>
        <time>2021-08-04T08:50:34.859Z</time>
      </trkpt>
      <trkpt lat="46.99062" lon="8.8061">
        <ele>1096</ele>
        <time>2021-08-04T08:50:35.860Z</time>
      </trkpt>
      <trkpt lat="46.99062" lon="8.8061">
        <ele>1096</ele>
        <time>2021-08-04T08:50:36.860Z</time>
      </trkpt>
      <trkpt lat="46.99063" lon="8.80608">
        <ele>1094</ele>
        <time>2021-08-04T08:50:37.860Z</time>
      </trkpt>
      <trkpt lat="46.99063" lon="8.80607">
        <ele>1093</ele>
        <time>2021-08-04T08:50:38.860Z</time>
      </trkpt>
      <trkpt lat="46.99063" lon="8.80606">
        <ele>1093</ele>
        <time>2021-08-04T08:50:39.860Z</time>
      </trkpt>
      <trkpt lat="46.99063" lon="8.80605">
        <ele>1093</ele>
        <time>2021-08-04T08:50:40.861Z</time>
      </trkpt>
      <trkpt lat="46.99065" lon="8.80604">
        <ele>1093</ele>
        <time>2021-08-04T08:50:41.861Z</time>
      </trkpt>
      <trkpt lat="46.99067" lon="8.80603">
        <ele>1092</ele>
        <time>2021-08-04T08:50:42.860Z</time>
      </trkpt>
      <trkpt lat="46.99068" lon="8.80602">
        <ele>1092</ele>
        <time>2021-08-04T08:50:43.861Z</time>
      </trkpt>
      <trkpt lat="46.99068" lon="8.80602">
        <ele>1092</ele>
        <time>2021-08-04T08:50:44.861Z</time>
      </trkpt>
      <trkpt lat="46.99069" lon="8.80601">
        <ele>1092</ele>
        <time>2021-08-04T08:50:45.860Z</time>
      </trkpt>
      <trkpt lat="46.99069" lon="8.806">
        <ele>1092</ele>
        <time>2021-08-04T08:50:46.861Z</time>
      </trkpt>
      <trkpt lat="46.9907" lon="8.80599">
        <ele>1092</ele>
        <time>2021-08-04T08:50:47.861Z</time>
      </trkpt>
      <trkpt lat="46.9907" lon="8.80598">
        <ele>1092</ele>
        <time>2021-08-04T08:50:48.861Z</time>
      </trkpt>
      <trkpt lat="46.9907" lon="8.80597">
        <ele>1092</ele>
        <time>2021-08-04T08:50:49.861Z</time>
      </trkpt>
      <trkpt lat="46.99071" lon="8.80596">
        <ele>1091</ele>
        <time>2021-08-04T08:50:50.861Z</time>
      </trkpt>
      <trkpt lat="46.99071" lon="8.80596">
        <ele>1091</ele>
        <time>2021-08-04T08:50:51.860Z</time>
      </trkpt>
      <trkpt lat="46.99071" lon="8.80595">
        <ele>1090</ele>
        <time>2021-08-04T08:50:52.860Z</time>
      </trkpt>
      <trkpt lat="46.99072" lon="8.80594">
        <ele>1090</ele>
        <time>2021-08-04T08:50:53.861Z</time>
      </trkpt>
      <trkpt lat="46.99072" lon="8.80593">
        <ele>1090</ele>
        <time>2021-08-04T08:50:54.860Z</time>
      </trkpt>
      <trkpt lat="46.99073" lon="8.80592">
        <ele>1090</ele>
        <time>2021-08-04T08:50:55.861Z</time>
      </trkpt>
      <trkpt lat="46.99073" lon="8.80591">
        <ele>1091</ele>
        <time>2021-08-04T08:50:56.861Z</time>
      </trkpt>
      <trkpt lat="46.99073" lon="8.8059">
        <ele>1091</ele>
        <time>2021-08-04T08:50:57.860Z</time>
      </trkpt>
      <trkpt lat="46.99074" lon="8.8059">
        <ele>1091</ele>
        <time>2021-08-04T08:50:58.861Z</time>
      </trkpt>
      <trkpt lat="46.99074" lon="8.80589">
        <ele>1091</ele>
        <time>2021-08-04T08:50:59.861Z</time>
      </trkpt>
      <trkpt lat="46.99074" lon="8.80587">
        <ele>1091</ele>
        <time>2021-08-04T08:51:00.861Z</time>
      </trkpt>
      <trkpt lat="46.99074" lon="8.80585">
        <ele>1091</ele>
        <time>2021-08-04T08:51:01.860Z</time>
      </trkpt>
      <trkpt lat="46.99074" lon="8.80584">
        <ele>1091</ele>
        <time>2021-08-04T08:51:02.861Z</time>
      </trkpt>
      <trkpt lat="46.99074" lon="8.80583">
        <ele>1091</ele>
        <time>2021-08-04T08:51:03.861Z</time>
      </trkpt>
      <trkpt lat="46.99074" lon="8.80581">
        <ele>1091</ele>
        <time>2021-08-04T08:51:04.861Z</time>
      </trkpt>
      <trkpt lat="46.99075" lon="8.8058">
        <ele>1091</ele>
        <time>2021-08-04T08:51:05.861Z</time>
      </trkpt>
      <trkpt lat="46.99075" lon="8.80578">
        <ele>1091</ele>
        <time>2021-08-04T08:51:06.861Z</time>
      </trkpt>
      <trkpt lat="46.99076" lon="8.80577">
        <ele>1091</ele>
        <time>2021-08-04T08:51:07.861Z</time>
      </trkpt>
      <trkpt lat="46.99076" lon="8.80576">
        <ele>1091</ele>
        <time>2021-08-04T08:51:08.860Z</time>
      </trkpt>
      <trkpt lat="46.99076" lon="8.80575">
        <ele>1091</ele>
        <time>2021-08-04T08:51:09.861Z</time>
      </trkpt>
      <trkpt lat="46.99077" lon="8.80574">
        <ele>1091</ele>
        <time>2021-08-04T08:51:10.861Z</time>
      </trkpt>
      <trkpt lat="46.99077" lon="8.80572">
        <ele>1091</ele>
        <time>2021-08-04T08:51:11.861Z</time>
      </trkpt>
      <trkpt lat="46.99078" lon="8.80571">
        <ele>1091</ele>
        <time>2021-08-04T08:51:12.861Z</time>
      </trkpt>
      <trkpt lat="46.99078" lon="8.80569">
        <ele>1091</ele>
        <time>2021-08-04T08:51:13.860Z</time>
      </trkpt>
      <trkpt lat="46.99078" lon="8.80568">
        <ele>1092</ele>
        <time>2021-08-04T08:51:14.861Z</time>
      </trkpt>
      <trkpt lat="46.99078" lon="8.80567">
        <ele>1092</ele>
        <time>2021-08-04T08:51:15.861Z</time>
      </trkpt>
      <trkpt lat="46.99078" lon="8.80566">
        <ele>1092</ele>
        <time>2021-08-04T08:51:16.861Z</time>
      </trkpt>
      <trkpt lat="46.99079" lon="8.80566">
        <ele>1092</ele>
        <time>2021-08-04T08:51:17.861Z</time>
      </trkpt>
      <trkpt lat="46.99079" lon="8.80565">
        <ele>1092</ele>
        <time>2021-08-04T08:51:18.861Z</time>
      </trkpt>
      <trkpt lat="46.9908" lon="8.80565">
        <ele>1092</ele>
        <time>2021-08-04T08:51:19.860Z</time>
      </trkpt>
      <trkpt lat="46.9908" lon="8.80564">
        <ele>1093</ele>
        <time>2021-08-04T08:51:20.860Z</time>
      </trkpt>
      <trkpt lat="46.99081" lon="8.80563">
        <ele>1093</ele>
        <time>2021-08-04T08:51:21.861Z</time>
      </trkpt>
      <trkpt lat="46.99081" lon="8.80562">
        <ele>1093</ele>
        <time>2021-08-04T08:51:22.861Z</time>
      </trkpt>
      <trkpt lat="46.99082" lon="8.80561">
        <ele>1093</ele>
        <time>2021-08-04T08:51:23.861Z</time>
      </trkpt>
      <trkpt lat="46.99082" lon="8.8056">
        <ele>1093</ele>
        <time>2021-08-04T08:51:24.861Z</time>
      </trkpt>
      <trkpt lat="46.99083" lon="8.80558">
        <ele>1093</ele>
        <time>2021-08-04T08:51:25.860Z</time>
      </trkpt>
      <trkpt lat="46.99083" lon="8.80556">
        <ele>1094</ele>
        <time>2021-08-04T08:51:26.861Z</time>
      </trkpt>
      <trkpt lat="46.99083" lon="8.80554">
        <ele>1094</ele>
        <time>2021-08-04T08:51:27.860Z</time>
      </trkpt>
      <trkpt lat="46.99084" lon="8.80552">
        <ele>1094</ele>
        <time>2021-08-04T08:51:28.860Z</time>
      </trkpt>
      <trkpt lat="46.99084" lon="8.80551">
        <ele>1095</ele>
        <time>2021-08-04T08:51:29.860Z</time>
      </trkpt>
      <trkpt lat="46.99084" lon="8.8055">
        <ele>1095</ele>
        <time>2021-08-04T08:51:30.860Z</time>
      </trkpt>
      <trkpt lat="46.99084" lon="8.80547">
        <ele>1095</ele>
        <time>2021-08-04T08:51:31.861Z</time>
      </trkpt>
      <trkpt lat="46.99083" lon="8.80545">
        <ele>1095</ele>
        <time>2021-08-04T08:51:32.860Z</time>
      </trkpt>
      <trkpt lat="46.99083" lon="8.80543">
        <ele>1095</ele>
        <time>2021-08-04T08:51:33.860Z</time>
      </trkpt>
      <trkpt lat="46.99083" lon="8.80542">
        <ele>1095</ele>
        <time>2021-08-04T08:51:34.860Z</time>
      </trkpt>
      <trkpt lat="46.99083" lon="8.8054">
        <ele>1095</ele>
        <time>2021-08-04T08:51:35.861Z</time>
      </trkpt>
      <trkpt lat="46.99083" lon="8.80539">
        <ele>1095</ele>
        <time>2021-08-04T08:51:36.860Z</time>
      </trkpt>
      <trkpt lat="46.99083" lon="8.80537">
        <ele>1096</ele>
        <time>2021-08-04T08:51:37.860Z</time>
      </trkpt>
      <trkpt lat="46.99083" lon="8.80535">
        <ele>1096</ele>
        <time>2021-08-04T08:51:38.861Z</time>
      </trkpt>
      <trkpt lat="46.99083" lon="8.80533">
        <ele>1096</ele>
        <time>2021-08-04T08:51:39.860Z</time>
      </trkpt>
      <trkpt lat="46.99083" lon="8.80532">
        <ele>1097</ele>
        <time>2021-08-04T08:51:40.860Z</time>
      </trkpt>
      <trkpt lat="46.99082" lon="8.80532">
        <ele>1097</ele>
        <time>2021-08-04T08:51:41.860Z</time>
      </trkpt>
      <trkpt lat="46.99081" lon="8.80529">
        <ele>1097</ele>
        <time>2021-08-04T08:51:42.860Z</time>
      </trkpt>
      <trkpt lat="46.99081" lon="8.80527">
        <ele>1097</ele>
        <time>2021-08-04T08:51:43.861Z</time>
      </trkpt>
      <trkpt lat="46.9908" lon="8.80526">
        <ele>1097</ele>
        <time>2021-08-04T08:51:44.860Z</time>
      </trkpt>
      <trkpt lat="46.9908" lon="8.80523">
        <ele>1097</ele>
        <time>2021-08-04T08:51:45.860Z</time>
      </trkpt>
      <trkpt lat="46.9908" lon="8.80521">
        <ele>1097</ele>
        <time>2021-08-04T08:51:46.860Z</time>
      </trkpt>
      <trkpt lat="46.99079" lon="8.8052">
        <ele>1097</ele>
        <time>2021-08-04T08:51:47.860Z</time>
      </trkpt>
      <trkpt lat="46.99079" lon="8.80519">
        <ele>1097</ele>
        <time>2021-08-04T08:51:48.860Z</time>
      </trkpt>
      <trkpt lat="46.99079" lon="8.80517">
        <ele>1097</ele>
        <time>2021-08-04T08:51:49.860Z</time>
      </trkpt>
      <trkpt lat="46.99078" lon="8.80517">
        <ele>1097</ele>
        <time>2021-08-04T08:51:50.860Z</time>
      </trkpt>
      <trkpt lat="46.99077" lon="8.80516">
        <ele>1097</ele>
        <time>2021-08-04T08:51:51.860Z</time>
      </trkpt>
      <trkpt lat="46.99076" lon="8.80516">
        <ele>1097</ele>
        <time>2021-08-04T08:51:52.860Z</time>
      </trkpt>
      <trkpt lat="46.99075" lon="8.80515">
        <ele>1096</ele>
        <time>2021-08-04T08:51:53.860Z</time>
      </trkpt>
      <trkpt lat="46.99075" lon="8.80514">
        <ele>1096</ele>
        <time>2021-08-04T08:51:54.860Z</time>
      </trkpt>
      <trkpt lat="46.99074" lon="8.80514">
        <ele>1095</ele>
        <time>2021-08-04T08:51:55.861Z</time>
      </trkpt>
      <trkpt lat="46.99073" lon="8.80512">
        <ele>1095</ele>
        <time>2021-08-04T08:51:56.861Z</time>
      </trkpt>
      <trkpt lat="46.99072" lon="8.80511">
        <ele>1095</ele>
        <time>2021-08-04T08:51:57.860Z</time>
      </trkpt>
      <trkpt lat="46.99071" lon="8.80509">
        <ele>1094</ele>
        <time>2021-08-04T08:51:58.861Z</time>
      </trkpt>
      <trkpt lat="46.99071" lon="8.80508">
        <ele>1094</ele>
        <time>2021-08-04T08:51:59.861Z</time>
      </trkpt>
      <trkpt lat="46.99071" lon="8.80507">
        <ele>1093</ele>
        <time>2021-08-04T08:52:00.861Z</time>
      </trkpt>
      <trkpt lat="46.99071" lon="8.80506">
        <ele>1092</ele>
        <time>2021-08-04T08:52:01.861Z</time>
      </trkpt>
      <trkpt lat="46.99071" lon="8.80504">
        <ele>1091</ele>
        <time>2021-08-04T08:52:02.861Z</time>
      </trkpt>
      <trkpt lat="46.99071" lon="8.80502">
        <ele>1090</ele>
        <time>2021-08-04T08:52:03.860Z</time>
      </trkpt>
      <trkpt lat="46.9907" lon="8.80501">
        <ele>1089</ele>
        <time>2021-08-04T08:52:04.861Z</time>
      </trkpt>
      <trkpt lat="46.9907" lon="8.80499">
        <ele>1088</ele>
        <time>2021-08-04T08:52:05.861Z</time>
      </trkpt>
      <trkpt lat="46.9907" lon="8.80497">
        <ele>1088</ele>
        <time>2021-08-04T08:52:06.861Z</time>
      </trkpt>
      <trkpt lat="46.99069" lon="8.80497">
        <ele>1087</ele>
        <time>2021-08-04T08:52:07.860Z</time>
      </trkpt>
      <trkpt lat="46.99068" lon="8.80496">
        <ele>1086</ele>
        <time>2021-08-04T08:52:08.861Z</time>
      </trkpt>
      <trkpt lat="46.99068" lon="8.80495">
        <ele>1086</ele>
        <time>2021-08-04T08:52:09.860Z</time>
      </trkpt>
      <trkpt lat="46.99067" lon="8.80494">
        <ele>1085</ele>
        <time>2021-08-04T08:52:10.861Z</time>
      </trkpt>
      <trkpt lat="46.99067" lon="8.80494">
        <ele>1085</ele>
        <time>2021-08-04T08:52:11.860Z</time>
      </trkpt>
      <trkpt lat="46.99067" lon="8.80493">
        <ele>1084</ele>
        <time>2021-08-04T08:52:12.861Z</time>
      </trkpt>
      <trkpt lat="46.99066" lon="8.80493">
        <ele>1084</ele>
        <time>2021-08-04T08:52:13.860Z</time>
      </trkpt>
      <trkpt lat="46.99066" lon="8.80492">
        <ele>1084</ele>
        <time>2021-08-04T08:52:14.861Z</time>
      </trkpt>
      <trkpt lat="46.99065" lon="8.80492">
        <ele>1084</ele>
        <time>2021-08-04T08:52:15.860Z</time>
      </trkpt>
      <trkpt lat="46.99064" lon="8.80492">
        <ele>1084</ele>
        <time>2021-08-04T08:52:16.860Z</time>
      </trkpt>
      <trkpt lat="46.99063" lon="8.80491">
        <ele>1084</ele>
        <time>2021-08-04T08:52:17.861Z</time>
      </trkpt>
      <trkpt lat="46.99062" lon="8.8049">
        <ele>1084</ele>
        <time>2021-08-04T08:52:18.860Z</time>
      </trkpt>
      <trkpt lat="46.99061" lon="8.8049">
        <ele>1084</ele>
        <time>2021-08-04T08:52:19.861Z</time>
      </trkpt>
      <trkpt lat="46.99061" lon="8.80489">
        <ele>1084</ele>
        <time>2021-08-04T08:52:20.861Z</time>
      </trkpt>
      <trkpt lat="46.9906" lon="8.80487">
        <ele>1084</ele>
        <time>2021-08-04T08:52:21.861Z</time>
      </trkpt>
      <trkpt lat="46.9906" lon="8.80486">
        <ele>1084</ele>
        <time>2021-08-04T08:52:22.861Z</time>
      </trkpt>
      <trkpt lat="46.99059" lon="8.80485">
        <ele>1085</ele>
        <time>2021-08-04T08:52:23.860Z</time>
      </trkpt>
      <trkpt lat="46.99059" lon="8.80483">
        <ele>1085</ele>
        <time>2021-08-04T08:52:24.860Z</time>
      </trkpt>
      <trkpt lat="46.99059" lon="8.80482">
        <ele>1085</ele>
        <time>2021-08-04T08:52:25.860Z</time>
      </trkpt>
      <trkpt lat="46.99059" lon="8.8048">
        <ele>1085</ele>
        <time>2021-08-04T08:52:26.860Z</time>
      </trkpt>
      <trkpt lat="46.99058" lon="8.80478">
        <ele>1085</ele>
        <time>2021-08-04T08:52:27.860Z</time>
      </trkpt>
      <trkpt lat="46.99058" lon="8.80475">
        <ele>1085</ele>
        <time>2021-08-04T08:52:28.861Z</time>
      </trkpt>
      <trkpt lat="46.99058" lon="8.80473">
        <ele>1085</ele>
        <time>2021-08-04T08:52:29.861Z</time>
      </trkpt>
      <trkpt lat="46.99057" lon="8.80471">
        <ele>1086</ele>
        <time>2021-08-04T08:52:30.861Z</time>
      </trkpt>
      <trkpt lat="46.99057" lon="8.80469">
        <ele>1086</ele>
        <time>2021-08-04T08:52:31.861Z</time>
      </trkpt>
      <trkpt lat="46.99057" lon="8.80467">
        <ele>1087</ele>
        <time>2021-08-04T08:52:32.860Z</time>
      </trkpt>
      <trkpt lat="46.99057" lon="8.80466">
        <ele>1087</ele>
        <time>2021-08-04T08:52:33.861Z</time>
      </trkpt>
      <trkpt lat="46.99057" lon="8.80465">
        <ele>1088</ele>
        <time>2021-08-04T08:52:34.860Z</time>
      </trkpt>
      <trkpt lat="46.99056" lon="8.80463">
        <ele>1089</ele>
        <time>2021-08-04T08:52:35.861Z</time>
      </trkpt>
      <trkpt lat="46.99056" lon="8.80462">
        <ele>1090</ele>
        <time>2021-08-04T08:52:36.861Z</time>
      </trkpt>
      <trkpt lat="46.99056" lon="8.80461">
        <ele>1090</ele>
        <time>2021-08-04T08:52:37.861Z</time>
      </trkpt>
      <trkpt lat="46.99056" lon="8.8046">
        <ele>1091</ele>
        <time>2021-08-04T08:52:38.860Z</time>
      </trkpt>
      <trkpt lat="46.99056" lon="8.80459">
        <ele>1092</ele>
        <time>2021-08-04T08:52:39.861Z</time>
      </trkpt>
      <trkpt lat="46.99056" lon="8.80458">
        <ele>1092</ele>
        <time>2021-08-04T08:52:40.861Z</time>
      </trkpt>
      <trkpt lat="46.99055" lon="8.80457">
        <ele>1093</ele>
        <time>2021-08-04T08:52:41.861Z</time>
      </trkpt>
      <trkpt lat="46.99055" lon="8.80456">
        <ele>1093</ele>
        <time>2021-08-04T08:52:42.860Z</time>
      </trkpt>
      <trkpt lat="46.99055" lon="8.80454">
        <ele>1094</ele>
        <time>2021-08-04T08:52:43.861Z</time>
      </trkpt>
      <trkpt lat="46.99055" lon="8.80451">
        <ele>1094</ele>
        <time>2021-08-04T08:52:44.860Z</time>
      </trkpt>
      <trkpt lat="46.99055" lon="8.80448">
        <ele>1095</ele>
        <time>2021-08-04T08:52:45.861Z</time>
      </trkpt>
      <trkpt lat="46.99056" lon="8.80446">
        <ele>1095</ele>
        <time>2021-08-04T08:52:46.861Z</time>
      </trkpt>
      <trkpt lat="46.99056" lon="8.80444">
        <ele>1096</ele>
        <time>2021-08-04T08:52:47.861Z</time>
      </trkpt>
      <trkpt lat="46.99056" lon="8.80441">
        <ele>1097</ele>
        <time>2021-08-04T08:52:48.861Z</time>
      </trkpt>
      <trkpt lat="46.99056" lon="8.80438">
        <ele>1098</ele>
        <time>2021-08-04T08:52:49.861Z</time>
      </trkpt>
      <trkpt lat="46.99056" lon="8.80436">
        <ele>1098</ele>
        <time>2021-08-04T08:52:50.860Z</time>
      </trkpt>
      <trkpt lat="46.99056" lon="8.80434">
        <ele>1098</ele>
        <time>2021-08-04T08:52:51.861Z</time>
      </trkpt>
      <trkpt lat="46.99056" lon="8.80432">
        <ele>1099</ele>
        <time>2021-08-04T08:52:52.861Z</time>
      </trkpt>
      <trkpt lat="46.99056" lon="8.80431">
        <ele>1099</ele>
        <time>2021-08-04T08:52:53.861Z</time>
      </trkpt>
      <trkpt lat="46.99056" lon="8.80429">
        <ele>1100</ele>
        <time>2021-08-04T08:52:54.861Z</time>
      </trkpt>
      <trkpt lat="46.99056" lon="8.80428">
        <ele>1100</ele>
        <time>2021-08-04T08:52:55.861Z</time>
      </trkpt>
      <trkpt lat="46.99056" lon="8.80427">
        <ele>1100</ele>
        <time>2021-08-04T08:52:56.860Z</time>
      </trkpt>
      <trkpt lat="46.99056" lon="8.80425">
        <ele>1100</ele>
        <time>2021-08-04T08:52:57.861Z</time>
      </trkpt>
      <trkpt lat="46.99056" lon="8.80424">
        <ele>1099</ele>
        <time>2021-08-04T08:52:58.861Z</time>
      </trkpt>
      <trkpt lat="46.99055" lon="8.80422">
        <ele>1099</ele>
        <time>2021-08-04T08:52:59.861Z</time>
      </trkpt>
      <trkpt lat="46.99054" lon="8.80419">
        <ele>1098</ele>
        <time>2021-08-04T08:53:00.861Z</time>
      </trkpt>
      <trkpt lat="46.99054" lon="8.80417">
        <ele>1098</ele>
        <time>2021-08-04T08:53:01.860Z</time>
      </trkpt>
      <trkpt lat="46.99053" lon="8.80415">
        <ele>1098</ele>
        <time>2021-08-04T08:53:02.860Z</time>
      </trkpt>
      <trkpt lat="46.99052" lon="8.80414">
        <ele>1097</ele>
        <time>2021-08-04T08:53:03.861Z</time>
      </trkpt>
      <trkpt lat="46.99052" lon="8.80412">
        <ele>1097</ele>
        <time>2021-08-04T08:53:04.860Z</time>
      </trkpt>
      <trkpt lat="46.99051" lon="8.80411">
        <ele>1096</ele>
        <time>2021-08-04T08:53:05.861Z</time>
      </trkpt>
      <trkpt lat="46.99051" lon="8.8041">
        <ele>1096</ele>
        <time>2021-08-04T08:53:06.860Z</time>
      </trkpt>
      <trkpt lat="46.9905" lon="8.80408">
        <ele>1096</ele>
        <time>2021-08-04T08:53:07.860Z</time>
      </trkpt>
      <trkpt lat="46.99049" lon="8.80407">
        <ele>1095</ele>
        <time>2021-08-04T08:53:08.861Z</time>
      </trkpt>
      <trkpt lat="46.99049" lon="8.80406">
        <ele>1095</ele>
        <time>2021-08-04T08:53:09.860Z</time>
      </trkpt>
      <trkpt lat="46.99048" lon="8.80405">
        <ele>1094</ele>
        <time>2021-08-04T08:53:10.861Z</time>
      </trkpt>
      <trkpt lat="46.99047" lon="8.80404">
        <ele>1093</ele>
        <time>2021-08-04T08:53:11.860Z</time>
      </trkpt>
      <trkpt lat="46.99046" lon="8.80403">
        <ele>1093</ele>
        <time>2021-08-04T08:53:12.861Z</time>
      </trkpt>
      <trkpt lat="46.99046" lon="8.80401">
        <ele>1092</ele>
        <time>2021-08-04T08:53:13.860Z</time>
      </trkpt>
      <trkpt lat="46.99045" lon="8.804">
        <ele>1092</ele>
        <time>2021-08-04T08:53:14.860Z</time>
      </trkpt>
      <trkpt lat="46.99045" lon="8.80398">
        <ele>1091</ele>
        <time>2021-08-04T08:53:15.860Z</time>
      </trkpt>
      <trkpt lat="46.99044" lon="8.80397">
        <ele>1091</ele>
        <time>2021-08-04T08:53:16.861Z</time>
      </trkpt>
      <trkpt lat="46.99043" lon="8.80395">
        <ele>1090</ele>
        <time>2021-08-04T08:53:17.861Z</time>
      </trkpt>
      <trkpt lat="46.99043" lon="8.80394">
        <ele>1090</ele>
        <time>2021-08-04T08:53:18.860Z</time>
      </trkpt>
      <trkpt lat="46.99043" lon="8.80393">
        <ele>1090</ele>
        <time>2021-08-04T08:53:19.861Z</time>
      </trkpt>
      <trkpt lat="46.99042" lon="8.80392">
        <ele>1089</ele>
        <time>2021-08-04T08:53:20.861Z</time>
      </trkpt>
      <trkpt lat="46.99042" lon="8.80391">
        <ele>1088</ele>
        <time>2021-08-04T08:53:21.861Z</time>
      </trkpt>
      <trkpt lat="46.99041" lon="8.80389">
        <ele>1088</ele>
        <time>2021-08-04T08:53:22.861Z</time>
      </trkpt>
      <trkpt lat="46.99041" lon="8.80388">
        <ele>1088</ele>
        <time>2021-08-04T08:53:23.860Z</time>
      </trkpt>
      <trkpt lat="46.9904" lon="8.80387">
        <ele>1087</ele>
        <time>2021-08-04T08:53:24.861Z</time>
      </trkpt>
      <trkpt lat="46.99039" lon="8.80385">
        <ele>1087</ele>
        <time>2021-08-04T08:53:25.860Z</time>
      </trkpt>
      <trkpt lat="46.99038" lon="8.80383">
        <ele>1086</ele>
        <time>2021-08-04T08:53:26.861Z</time>
      </trkpt>
      <trkpt lat="46.99038" lon="8.80382">
        <ele>1086</ele>
        <time>2021-08-04T08:53:27.861Z</time>
      </trkpt>
      <trkpt lat="46.99037" lon="8.8038">
        <ele>1085</ele>
        <time>2021-08-04T08:53:28.860Z</time>
      </trkpt>
      <trkpt lat="46.99036" lon="8.80379">
        <ele>1086</ele>
        <time>2021-08-04T08:53:29.861Z</time>
      </trkpt>
      <trkpt lat="46.99036" lon="8.80377">
        <ele>1086</ele>
        <time>2021-08-04T08:53:30.860Z</time>
      </trkpt>
      <trkpt lat="46.99035" lon="8.80375">
        <ele>1086</ele>
        <time>2021-08-04T08:53:31.861Z</time>
      </trkpt>
      <trkpt lat="46.99034" lon="8.80373">
        <ele>1087</ele>
        <time>2021-08-04T08:53:32.861Z</time>
      </trkpt>
      <trkpt lat="46.99033" lon="8.80371">
        <ele>1087</ele>
        <time>2021-08-04T08:53:33.860Z</time>
      </trkpt>
      <trkpt lat="46.99032" lon="8.8037">
        <ele>1087</ele>
        <time>2021-08-04T08:53:34.861Z</time>
      </trkpt>
      <trkpt lat="46.99032" lon="8.80369">
        <ele>1088</ele>
        <time>2021-08-04T08:53:35.860Z</time>
      </trkpt>
      <trkpt lat="46.99031" lon="8.80367">
        <ele>1088</ele>
        <time>2021-08-04T08:53:36.860Z</time>
      </trkpt>
      <trkpt lat="46.9903" lon="8.80366">
        <ele>1089</ele>
        <time>2021-08-04T08:53:37.861Z</time>
      </trkpt>
      <trkpt lat="46.9903" lon="8.80365">
        <ele>1089</ele>
        <time>2021-08-04T08:53:38.861Z</time>
      </trkpt>
      <trkpt lat="46.99029" lon="8.80363">
        <ele>1090</ele>
        <time>2021-08-04T08:53:39.861Z</time>
      </trkpt>
      <trkpt lat="46.99029" lon="8.80363">
        <ele>1090</ele>
        <time>2021-08-04T08:53:40.860Z</time>
      </trkpt>
      <trkpt lat="46.99028" lon="8.80361">
        <ele>1090</ele>
        <time>2021-08-04T08:53:41.861Z</time>
      </trkpt>
      <trkpt lat="46.99028" lon="8.8036">
        <ele>1090</ele>
        <time>2021-08-04T08:53:42.861Z</time>
      </trkpt>
      <trkpt lat="46.99027" lon="8.80359">
        <ele>1090</ele>
        <time>2021-08-04T08:53:43.861Z</time>
      </trkpt>
      <trkpt lat="46.99027" lon="8.80359">
        <ele>1090</ele>
        <time>2021-08-04T08:53:44.861Z</time>
      </trkpt>
      <trkpt lat="46.99026" lon="8.80357">
        <ele>1090</ele>
        <time>2021-08-04T08:53:45.861Z</time>
      </trkpt>
      <trkpt lat="46.99025" lon="8.80355">
        <ele>1090</ele>
        <time>2021-08-04T08:53:46.861Z</time>
      </trkpt>
      <trkpt lat="46.99024" lon="8.80354">
        <ele>1089</ele>
        <time>2021-08-04T08:53:47.861Z</time>
      </trkpt>
      <trkpt lat="46.99024" lon="8.80352">
        <ele>1089</ele>
        <time>2021-08-04T08:53:48.860Z</time>
      </trkpt>
      <trkpt lat="46.99023" lon="8.80351">
        <ele>1088</ele>
        <time>2021-08-04T08:53:49.861Z</time>
      </trkpt>
      <trkpt lat="46.99022" lon="8.80349">
        <ele>1087</ele>
        <time>2021-08-04T08:53:50.861Z</time>
      </trkpt>
      <trkpt lat="46.99021" lon="8.80348">
        <ele>1087</ele>
        <time>2021-08-04T08:53:51.861Z</time>
      </trkpt>
      <trkpt lat="46.9902" lon="8.80346">
        <ele>1086</ele>
        <time>2021-08-04T08:53:52.860Z</time>
      </trkpt>
      <trkpt lat="46.9902" lon="8.80344">
        <ele>1086</ele>
        <time>2021-08-04T08:53:53.860Z</time>
      </trkpt>
      <trkpt lat="46.99019" lon="8.80343">
        <ele>1086</ele>
        <time>2021-08-04T08:53:54.861Z</time>
      </trkpt>
      <trkpt lat="46.99018" lon="8.80341">
        <ele>1086</ele>
        <time>2021-08-04T08:53:55.861Z</time>
      </trkpt>
      <trkpt lat="46.99018" lon="8.80339">
        <ele>1086</ele>
        <time>2021-08-04T08:53:56.861Z</time>
      </trkpt>
      <trkpt lat="46.99017" lon="8.80338">
        <ele>1085</ele>
        <time>2021-08-04T08:53:57.861Z</time>
      </trkpt>
      <trkpt lat="46.99016" lon="8.80336">
        <ele>1085</ele>
        <time>2021-08-04T08:53:58.861Z</time>
      </trkpt>
      <trkpt lat="46.99016" lon="8.80335">
        <ele>1084</ele>
        <time>2021-08-04T08:53:59.860Z</time>
      </trkpt>
      <trkpt lat="46.99015" lon="8.80334">
        <ele>1084</ele>
        <time>2021-08-04T08:54:00.861Z</time>
      </trkpt>
      <trkpt lat="46.99014" lon="8.80333">
        <ele>1083</ele>
        <time>2021-08-04T08:54:01.860Z</time>
      </trkpt>
      <trkpt lat="46.99013" lon="8.80332">
        <ele>1083</ele>
        <time>2021-08-04T08:54:02.861Z</time>
      </trkpt>
      <trkpt lat="46.99013" lon="8.8033">
        <ele>1083</ele>
        <time>2021-08-04T08:54:03.861Z</time>
      </trkpt>
      <trkpt lat="46.99012" lon="8.8033">
        <ele>1082</ele>
        <time>2021-08-04T08:54:04.861Z</time>
      </trkpt>
      <trkpt lat="46.99011" lon="8.8033">
        <ele>1082</ele>
        <time>2021-08-04T08:54:05.861Z</time>
      </trkpt>
      <trkpt lat="46.99011" lon="8.8033">
        <ele>1081</ele>
        <time>2021-08-04T08:54:06.860Z</time>
      </trkpt>
      <trkpt lat="46.9901" lon="8.8033">
        <ele>1081</ele>
        <time>2021-08-04T08:54:07.861Z</time>
      </trkpt>
      <trkpt lat="46.9901" lon="8.80329">
        <ele>1081</ele>
        <time>2021-08-04T08:54:08.861Z</time>
      </trkpt>
      <trkpt lat="46.9901" lon="8.80328">
        <ele>1082</ele>
        <time>2021-08-04T08:54:09.861Z</time>
      </trkpt>
      <trkpt lat="46.9901" lon="8.80327">
        <ele>1082</ele>
        <time>2021-08-04T08:54:10.861Z</time>
      </trkpt>
      <trkpt lat="46.99009" lon="8.80326">
        <ele>1082</ele>
        <time>2021-08-04T08:54:11.860Z</time>
      </trkpt>
      <trkpt lat="46.99009" lon="8.80324">
        <ele>1082</ele>
        <time>2021-08-04T08:54:12.861Z</time>
      </trkpt>
      <trkpt lat="46.99008" lon="8.80323">
        <ele>1082</ele>
        <time>2021-08-04T08:54:13.860Z</time>
      </trkpt>
      <trkpt lat="46.99008" lon="8.80322">
        <ele>1081</ele>
        <time>2021-08-04T08:54:14.860Z</time>
      </trkpt>
      <trkpt lat="46.99007" lon="8.8032">
        <ele>1081</ele>
        <time>2021-08-04T08:54:15.860Z</time>
      </trkpt>
      <trkpt lat="46.99006" lon="8.80319">
        <ele>1081</ele>
        <time>2021-08-04T08:54:16.860Z</time>
      </trkpt>
      <trkpt lat="46.99006" lon="8.80317">
        <ele>1081</ele>
        <time>2021-08-04T08:54:17.861Z</time>
      </trkpt>
      <trkpt lat="46.99005" lon="8.80316">
        <ele>1082</ele>
        <time>2021-08-04T08:54:18.860Z</time>
      </trkpt>
      <trkpt lat="46.99004" lon="8.80315">
        <ele>1082</ele>
        <time>2021-08-04T08:54:19.861Z</time>
      </trkpt>
      <trkpt lat="46.99004" lon="8.80313">
        <ele>1082</ele>
        <time>2021-08-04T08:54:20.861Z</time>
      </trkpt>
      <trkpt lat="46.99003" lon="8.80312">
        <ele>1082</ele>
        <time>2021-08-04T08:54:21.861Z</time>
      </trkpt>
      <trkpt lat="46.99003" lon="8.80311">
        <ele>1081</ele>
        <time>2021-08-04T08:54:22.861Z</time>
      </trkpt>
      <trkpt lat="46.99002" lon="8.80309">
        <ele>1081</ele>
        <time>2021-08-04T08:54:23.861Z</time>
      </trkpt>
      <trkpt lat="46.99002" lon="8.80308">
        <ele>1081</ele>
        <time>2021-08-04T08:54:24.861Z</time>
      </trkpt>
      <trkpt lat="46.99001" lon="8.80307">
        <ele>1081</ele>
        <time>2021-08-04T08:54:25.861Z</time>
      </trkpt>
      <trkpt lat="46.99" lon="8.80306">
        <ele>1081</ele>
        <time>2021-08-04T08:54:26.861Z</time>
      </trkpt>
      <trkpt lat="46.99" lon="8.80304">
        <ele>1081</ele>
        <time>2021-08-04T08:54:27.861Z</time>
      </trkpt>
      <trkpt lat="46.98999" lon="8.80302">
        <ele>1081</ele>
        <time>2021-08-04T08:54:28.861Z</time>
      </trkpt>
      <trkpt lat="46.98998" lon="8.80301">
        <ele>1081</ele>
        <time>2021-08-04T08:54:29.860Z</time>
      </trkpt>
      <trkpt lat="46.98998" lon="8.80299">
        <ele>1081</ele>
        <time>2021-08-04T08:54:30.861Z</time>
      </trkpt>
      <trkpt lat="46.98997" lon="8.80298">
        <ele>1081</ele>
        <time>2021-08-04T08:54:31.860Z</time>
      </trkpt>
      <trkpt lat="46.98997" lon="8.80296">
        <ele>1080</ele>
        <time>2021-08-04T08:54:32.861Z</time>
      </trkpt>
      <trkpt lat="46.98996" lon="8.80295">
        <ele>1080</ele>
        <time>2021-08-04T08:54:33.860Z</time>
      </trkpt>
      <trkpt lat="46.98995" lon="8.80293">
        <ele>1080</ele>
        <time>2021-08-04T08:54:34.860Z</time>
      </trkpt>
      <trkpt lat="46.98995" lon="8.80291">
        <ele>1080</ele>
        <time>2021-08-04T08:54:35.861Z</time>
      </trkpt>
      <trkpt lat="46.98994" lon="8.80289">
        <ele>1079</ele>
        <time>2021-08-04T08:54:36.860Z</time>
      </trkpt>
      <trkpt lat="46.98994" lon="8.80288">
        <ele>1079</ele>
        <time>2021-08-04T08:54:37.861Z</time>
      </trkpt>
      <trkpt lat="46.98994" lon="8.80286">
        <ele>1078</ele>
        <time>2021-08-04T08:54:38.860Z</time>
      </trkpt>
      <trkpt lat="46.98994" lon="8.80284">
        <ele>1078</ele>
        <time>2021-08-04T08:54:39.860Z</time>
      </trkpt>
      <trkpt lat="46.98994" lon="8.80282">
        <ele>1078</ele>
        <time>2021-08-04T08:54:40.860Z</time>
      </trkpt>
      <trkpt lat="46.98994" lon="8.80281">
        <ele>1078</ele>
        <time>2021-08-04T08:54:41.861Z</time>
      </trkpt>
      <trkpt lat="46.98994" lon="8.80279">
        <ele>1078</ele>
        <time>2021-08-04T08:54:42.860Z</time>
      </trkpt>
      <trkpt lat="46.98994" lon="8.80278">
        <ele>1078</ele>
        <time>2021-08-04T08:54:43.861Z</time>
      </trkpt>
      <trkpt lat="46.98993" lon="8.80276">
        <ele>1078</ele>
        <time>2021-08-04T08:54:44.861Z</time>
      </trkpt>
      <trkpt lat="46.98993" lon="8.80274">
        <ele>1078</ele>
        <time>2021-08-04T08:54:45.861Z</time>
      </trkpt>
      <trkpt lat="46.98993" lon="8.80272">
        <ele>1078</ele>
        <time>2021-08-04T08:54:46.860Z</time>
      </trkpt>
      <trkpt lat="46.98993" lon="8.8027">
        <ele>1077</ele>
        <time>2021-08-04T08:54:47.860Z</time>
      </trkpt>
      <trkpt lat="46.98993" lon="8.80268">
        <ele>1077</ele>
        <time>2021-08-04T08:54:48.861Z</time>
      </trkpt>
      <trkpt lat="46.98992" lon="8.80267">
        <ele>1077</ele>
        <time>2021-08-04T08:54:49.861Z</time>
      </trkpt>
      <trkpt lat="46.98992" lon="8.80265">
        <ele>1076</ele>
        <time>2021-08-04T08:54:50.860Z</time>
      </trkpt>
      <trkpt lat="46.98992" lon="8.80263">
        <ele>1076</ele>
        <time>2021-08-04T08:54:51.861Z</time>
      </trkpt>
      <trkpt lat="46.98992" lon="8.80261">
        <ele>1076</ele>
        <time>2021-08-04T08:54:52.860Z</time>
      </trkpt>
      <trkpt lat="46.98991" lon="8.80258">
        <ele>1076</ele>
        <time>2021-08-04T08:54:53.860Z</time>
      </trkpt>
      <trkpt lat="46.98991" lon="8.80256">
        <ele>1076</ele>
        <time>2021-08-04T08:54:54.861Z</time>
      </trkpt>
      <trkpt lat="46.98991" lon="8.80254">
        <ele>1075</ele>
        <time>2021-08-04T08:54:55.861Z</time>
      </trkpt>
      <trkpt lat="46.98991" lon="8.80253">
        <ele>1075</ele>
        <time>2021-08-04T08:54:56.861Z</time>
      </trkpt>
      <trkpt lat="46.98991" lon="8.8025">
        <ele>1076</ele>
        <time>2021-08-04T08:54:57.861Z</time>
      </trkpt>
      <trkpt lat="46.98991" lon="8.80248">
        <ele>1076</ele>
        <time>2021-08-04T08:54:58.861Z</time>
      </trkpt>
      <trkpt lat="46.98991" lon="8.80246">
        <ele>1076</ele>
        <time>2021-08-04T08:54:59.861Z</time>
      </trkpt>
      <trkpt lat="46.98992" lon="8.80245">
        <ele>1076</ele>
        <time>2021-08-04T08:55:00.861Z</time>
      </trkpt>
      <trkpt lat="46.98992" lon="8.80243">
        <ele>1076</ele>
        <time>2021-08-04T08:55:01.861Z</time>
      </trkpt>
      <trkpt lat="46.98992" lon="8.80241">
        <ele>1075</ele>
        <time>2021-08-04T08:55:02.861Z</time>
      </trkpt>
      <trkpt lat="46.98992" lon="8.80239">
        <ele>1075</ele>
        <time>2021-08-04T08:55:03.860Z</time>
      </trkpt>
      <trkpt lat="46.98992" lon="8.80238">
        <ele>1074</ele>
        <time>2021-08-04T08:55:04.861Z</time>
      </trkpt>
      <trkpt lat="46.98992" lon="8.80236">
        <ele>1074</ele>
        <time>2021-08-04T08:55:05.860Z</time>
      </trkpt>
      <trkpt lat="46.98992" lon="8.80233">
        <ele>1074</ele>
        <time>2021-08-04T08:55:06.861Z</time>
      </trkpt>
      <trkpt lat="46.98993" lon="8.80231">
        <ele>1075</ele>
        <time>2021-08-04T08:55:07.861Z</time>
      </trkpt>
      <trkpt lat="46.98994" lon="8.8023">
        <ele>1075</ele>
        <time>2021-08-04T08:55:08.861Z</time>
      </trkpt>
      <trkpt lat="46.98994" lon="8.80228">
        <ele>1075</ele>
        <time>2021-08-04T08:55:09.861Z</time>
      </trkpt>
      <trkpt lat="46.98994" lon="8.80227">
        <ele>1074</ele>
        <time>2021-08-04T08:55:10.861Z</time>
      </trkpt>
      <trkpt lat="46.98994" lon="8.80226">
        <ele>1074</ele>
        <time>2021-08-04T08:55:11.861Z</time>
      </trkpt>
      <trkpt lat="46.98994" lon="8.80226">
        <ele>1074</ele>
        <time>2021-08-04T08:55:12.861Z</time>
      </trkpt>
      <trkpt lat="46.98994" lon="8.80225">
        <ele>1073</ele>
        <time>2021-08-04T08:55:13.861Z</time>
      </trkpt>
      <trkpt lat="46.98994" lon="8.80224">
        <ele>1073</ele>
        <time>2021-08-04T08:55:14.861Z</time>
      </trkpt>
      <trkpt lat="46.98994" lon="8.80223">
        <ele>1073</ele>
        <time>2021-08-04T08:55:15.860Z</time>
      </trkpt>
      <trkpt lat="46.98994" lon="8.80223">
        <ele>1073</ele>
        <time>2021-08-04T08:55:16.861Z</time>
      </trkpt>
      <trkpt lat="46.98993" lon="8.80221">
        <ele>1073</ele>
        <time>2021-08-04T08:55:17.860Z</time>
      </trkpt>
      <trkpt lat="46.98993" lon="8.80221">
        <ele>1073</ele>
        <time>2021-08-04T08:55:18.861Z</time>
      </trkpt>
      <trkpt lat="46.98992" lon="8.8022">
        <ele>1073</ele>
        <time>2021-08-04T08:55:19.861Z</time>
      </trkpt>
      <trkpt lat="46.98992" lon="8.80219">
        <ele>1073</ele>
        <time>2021-08-04T08:55:20.861Z</time>
      </trkpt>
      <trkpt lat="46.98992" lon="8.80219">
        <ele>1073</ele>
        <time>2021-08-04T08:55:21.861Z</time>
      </trkpt>
      <trkpt lat="46.98992" lon="8.80218">
        <ele>1072</ele>
        <time>2021-08-04T08:55:22.860Z</time>
      </trkpt>
      <trkpt lat="46.98991" lon="8.80218">
        <ele>1072</ele>
        <time>2021-08-04T08:55:23.861Z</time>
      </trkpt>
      <trkpt lat="46.9899" lon="8.80218">
        <ele>1071</ele>
        <time>2021-08-04T08:55:24.860Z</time>
      </trkpt>
      <trkpt lat="46.9899" lon="8.80217">
        <ele>1071</ele>
        <time>2021-08-04T08:55:25.861Z</time>
      </trkpt>
      <trkpt lat="46.9899" lon="8.80217">
        <ele>1071</ele>
        <time>2021-08-04T08:55:26.861Z</time>
      </trkpt>
      <trkpt lat="46.9899" lon="8.80216">
        <ele>1071</ele>
        <time>2021-08-04T08:55:27.861Z</time>
      </trkpt>
      <trkpt lat="46.98989" lon="8.80215">
        <ele>1070</ele>
        <time>2021-08-04T08:55:28.860Z</time>
      </trkpt>
      <trkpt lat="46.98989" lon="8.80214">
        <ele>1070</ele>
        <time>2021-08-04T08:55:29.861Z</time>
      </trkpt>
      <trkpt lat="46.9899" lon="8.80213">
        <ele>1070</ele>
        <time>2021-08-04T08:55:30.861Z</time>
      </trkpt>
      <trkpt lat="46.98991" lon="8.80213">
        <ele>1070</ele>
        <time>2021-08-04T08:55:31.860Z</time>
      </trkpt>
      <trkpt lat="46.98992" lon="8.80213">
        <ele>1070</ele>
        <time>2021-08-04T08:55:32.861Z</time>
      </trkpt>
      <trkpt lat="46.98992" lon="8.80214">
        <ele>1070</ele>
        <time>2021-08-04T08:55:33.861Z</time>
      </trkpt>
      <trkpt lat="46.98993" lon="8.80215">
        <ele>1062</ele>
        <time>2021-08-04T08:55:34.861Z</time>
      </trkpt>
      <trkpt lat="46.98993" lon="8.80215">
        <ele>1062</ele>
        <time>2021-08-04T08:55:35.861Z</time>
      </trkpt>
      <trkpt lat="46.98991" lon="8.80218">
        <ele>1062</ele>
        <time>2021-08-04T08:55:36.862Z</time>
      </trkpt>
      <trkpt lat="46.9899" lon="8.80218">
        <ele>1062</ele>
        <time>2021-08-04T08:55:37.862Z</time>
      </trkpt>
      <trkpt lat="46.9899" lon="8.80218">
        <ele>1062</ele>
        <time>2021-08-04T08:55:38.862Z</time>
      </trkpt>
      <trkpt lat="46.9899" lon="8.80218">
        <ele>1062</ele>
        <time>2021-08-04T08:55:39.863Z</time>
      </trkpt>
      <trkpt lat="46.9899" lon="8.80219">
        <ele>1062</ele>
        <time>2021-08-04T08:55:40.862Z</time>
      </trkpt>
      <trkpt lat="46.98989" lon="8.8022">
        <ele>1062</ele>
        <time>2021-08-04T08:55:41.863Z</time>
      </trkpt>
      <trkpt lat="46.9899" lon="8.80221">
        <ele>1063</ele>
        <time>2021-08-04T08:55:42.862Z</time>
      </trkpt>
      <trkpt lat="46.9899" lon="8.80223">
        <ele>1063</ele>
        <time>2021-08-04T08:55:43.863Z</time>
      </trkpt>
      <trkpt lat="46.9899" lon="8.80223">
        <ele>1063</ele>
        <time>2021-08-04T08:55:44.863Z</time>
      </trkpt>
      <trkpt lat="46.9899" lon="8.80223">
        <ele>1063</ele>
        <time>2021-08-04T08:55:45.863Z</time>
      </trkpt>
      <trkpt lat="46.98991" lon="8.80223">
        <ele>1064</ele>
        <time>2021-08-04T08:55:46.863Z</time>
      </trkpt>
      <trkpt lat="46.98991" lon="8.80222">
        <ele>1064</ele>
        <time>2021-08-04T08:55:47.863Z</time>
      </trkpt>
      <trkpt lat="46.98991" lon="8.80222">
        <ele>1064</ele>
        <time>2021-08-04T08:55:48.863Z</time>
      </trkpt>
      <trkpt lat="46.98992" lon="8.80221">
        <ele>1064</ele>
        <time>2021-08-04T08:55:49.863Z</time>
      </trkpt>
      <trkpt lat="46.98993" lon="8.80221">
        <ele>1065</ele>
        <time>2021-08-04T08:55:50.863Z</time>
      </trkpt>
      <trkpt lat="46.98995" lon="8.80219">
        <ele>1065</ele>
        <time>2021-08-04T08:55:51.863Z</time>
      </trkpt>
      <trkpt lat="46.98992" lon="8.8022">
        <ele>1065</ele>
        <time>2021-08-04T08:55:52.863Z</time>
      </trkpt>
      <trkpt lat="46.98992" lon="8.8022">
        <ele>1065</ele>
        <time>2021-08-04T08:55:53.863Z</time>
      </trkpt>
      <trkpt lat="46.98993" lon="8.8022">
        <ele>1065</ele>
        <time>2021-08-04T08:55:54.862Z</time>
      </trkpt>
      <trkpt lat="46.98993" lon="8.8022">
        <ele>1066</ele>
        <time>2021-08-04T08:55:55.863Z</time>
      </trkpt>
      <trkpt lat="46.98992" lon="8.80219">
        <ele>1066</ele>
        <time>2021-08-04T08:55:56.863Z</time>
      </trkpt>
      <trkpt lat="46.98992" lon="8.80218">
        <ele>1067</ele>
        <time>2021-08-04T08:55:57.862Z</time>
      </trkpt>
      <trkpt lat="46.98992" lon="8.80216">
        <ele>1067</ele>
        <time>2021-08-04T08:55:58.862Z</time>
      </trkpt>
      <trkpt lat="46.98992" lon="8.80215">
        <ele>1068</ele>
        <time>2021-08-04T08:55:59.863Z</time>
      </trkpt>
      <trkpt lat="46.98994" lon="8.80215">
        <ele>1068</ele>
        <time>2021-08-04T08:56:00.863Z</time>
      </trkpt>
      <trkpt lat="46.98995" lon="8.80213">
        <ele>1069</ele>
        <time>2021-08-04T08:56:01.863Z</time>
      </trkpt>
      <trkpt lat="46.98994" lon="8.8021">
        <ele>1070</ele>
        <time>2021-08-04T08:56:02.863Z</time>
      </trkpt>
      <trkpt lat="46.98994" lon="8.80209">
        <ele>1070</ele>
        <time>2021-08-04T08:56:03.863Z</time>
      </trkpt>
      <trkpt lat="46.98994" lon="8.80207">
        <ele>1070</ele>
        <time>2021-08-04T08:56:04.863Z</time>
      </trkpt>
      <trkpt lat="46.98994" lon="8.80205">
        <ele>1070</ele>
        <time>2021-08-04T08:56:05.862Z</time>
      </trkpt>
      <trkpt lat="46.98994" lon="8.80203">
        <ele>1070</ele>
        <time>2021-08-04T08:56:06.862Z</time>
      </trkpt>
      <trkpt lat="46.98994" lon="8.80202">
        <ele>1070</ele>
        <time>2021-08-04T08:56:07.862Z</time>
      </trkpt>
      <trkpt lat="46.98994" lon="8.802">
        <ele>1069</ele>
        <time>2021-08-04T08:56:08.863Z</time>
      </trkpt>
      <trkpt lat="46.98993" lon="8.80199">
        <ele>1069</ele>
        <time>2021-08-04T08:56:09.863Z</time>
      </trkpt>
      <trkpt lat="46.98993" lon="8.80197">
        <ele>1069</ele>
        <time>2021-08-04T08:56:10.863Z</time>
      </trkpt>
      <trkpt lat="46.98993" lon="8.80196">
        <ele>1068</ele>
        <time>2021-08-04T08:56:11.862Z</time>
      </trkpt>
      <trkpt lat="46.98993" lon="8.80194">
        <ele>1068</ele>
        <time>2021-08-04T08:56:12.862Z</time>
      </trkpt>
      <trkpt lat="46.98992" lon="8.80192">
        <ele>1068</ele>
        <time>2021-08-04T08:56:13.863Z</time>
      </trkpt>
      <trkpt lat="46.98992" lon="8.80191">
        <ele>1067</ele>
        <time>2021-08-04T08:56:14.863Z</time>
      </trkpt>
      <trkpt lat="46.98992" lon="8.8019">
        <ele>1067</ele>
        <time>2021-08-04T08:56:15.862Z</time>
      </trkpt>
      <trkpt lat="46.98992" lon="8.8019">
        <ele>1068</ele>
        <time>2021-08-04T08:56:16.862Z</time>
      </trkpt>
      <trkpt lat="46.98992" lon="8.8019">
        <ele>1068</ele>
        <time>2021-08-04T08:56:17.863Z</time>
      </trkpt>
      <trkpt lat="46.98992" lon="8.8019">
        <ele>1068</ele>
        <time>2021-08-04T08:56:18.863Z</time>
      </trkpt>
      <trkpt lat="46.98991" lon="8.80191">
        <ele>1068</ele>
        <time>2021-08-04T08:56:19.863Z</time>
      </trkpt>
      <trkpt lat="46.98991" lon="8.80192">
        <ele>1069</ele>
        <time>2021-08-04T08:56:20.863Z</time>
      </trkpt>
      <trkpt lat="46.98993" lon="8.80191">
        <ele>1066</ele>
        <time>2021-08-04T08:56:21.864Z</time>
      </trkpt>
      <trkpt lat="46.98993" lon="8.8019">
        <ele>1066</ele>
        <time>2021-08-04T08:56:22.863Z</time>
      </trkpt>
      <trkpt lat="46.98993" lon="8.80188">
        <ele>1063</ele>
        <time>2021-08-04T08:56:23.863Z</time>
      </trkpt>
      <trkpt lat="46.98993" lon="8.80188">
        <ele>1063</ele>
        <time>2021-08-04T08:56:24.864Z</time>
      </trkpt>
      <trkpt lat="46.98993" lon="8.80187">
        <ele>1064</ele>
        <time>2021-08-04T08:56:25.863Z</time>
      </trkpt>
      <trkpt lat="46.98993" lon="8.80186">
        <ele>1064</ele>
        <time>2021-08-04T08:56:26.864Z</time>
      </trkpt>
      <trkpt lat="46.98994" lon="8.80184">
        <ele>1065</ele>
        <time>2021-08-04T08:56:27.864Z</time>
      </trkpt>
      <trkpt lat="46.98994" lon="8.80183">
        <ele>1065</ele>
        <time>2021-08-04T08:56:28.864Z</time>
      </trkpt>
      <trkpt lat="46.98994" lon="8.80181">
        <ele>1065</ele>
        <time>2021-08-04T08:56:29.863Z</time>
      </trkpt>
      <trkpt lat="46.98995" lon="8.80179">
        <ele>1065</ele>
        <time>2021-08-04T08:56:30.864Z</time>
      </trkpt>
      <trkpt lat="46.98995" lon="8.80177">
        <ele>1065</ele>
        <time>2021-08-04T08:56:31.863Z</time>
      </trkpt>
      <trkpt lat="46.98996" lon="8.80175">
        <ele>1065</ele>
        <time>2021-08-04T08:56:32.864Z</time>
      </trkpt>
      <trkpt lat="46.98996" lon="8.80173">
        <ele>1065</ele>
        <time>2021-08-04T08:56:33.864Z</time>
      </trkpt>
      <trkpt lat="46.98996" lon="8.80172">
        <ele>1065</ele>
        <time>2021-08-04T08:56:34.864Z</time>
      </trkpt>
      <trkpt lat="46.98997" lon="8.80171">
        <ele>1066</ele>
        <time>2021-08-04T08:56:35.863Z</time>
      </trkpt>
      <trkpt lat="46.98997" lon="8.80169">
        <ele>1066</ele>
        <time>2021-08-04T08:56:36.863Z</time>
      </trkpt>
      <trkpt lat="46.98998" lon="8.80168">
        <ele>1066</ele>
        <time>2021-08-04T08:56:37.864Z</time>
      </trkpt>
      <trkpt lat="46.98998" lon="8.80167">
        <ele>1067</ele>
        <time>2021-08-04T08:56:38.864Z</time>
      </trkpt>
      <trkpt lat="46.98999" lon="8.80165">
        <ele>1067</ele>
        <time>2021-08-04T08:56:39.863Z</time>
      </trkpt>
      <trkpt lat="46.98999" lon="8.80163">
        <ele>1068</ele>
        <time>2021-08-04T08:56:40.864Z</time>
      </trkpt>
      <trkpt lat="46.98999" lon="8.80162">
        <ele>1068</ele>
        <time>2021-08-04T08:56:41.864Z</time>
      </trkpt>
      <trkpt lat="46.99" lon="8.8016">
        <ele>1068</ele>
        <time>2021-08-04T08:56:42.864Z</time>
      </trkpt>
      <trkpt lat="46.98999" lon="8.80158">
        <ele>1068</ele>
        <time>2021-08-04T08:56:43.863Z</time>
      </trkpt>
      <trkpt lat="46.98999" lon="8.80155">
        <ele>1068</ele>
        <time>2021-08-04T08:56:44.864Z</time>
      </trkpt>
      <trkpt lat="46.98999" lon="8.80153">
        <ele>1068</ele>
        <time>2021-08-04T08:56:45.864Z</time>
      </trkpt>
      <trkpt lat="46.98999" lon="8.80151">
        <ele>1068</ele>
        <time>2021-08-04T08:56:46.864Z</time>
      </trkpt>
      <trkpt lat="46.98999" lon="8.8015">
        <ele>1068</ele>
        <time>2021-08-04T08:56:47.863Z</time>
      </trkpt>
      <trkpt lat="46.99" lon="8.80148">
        <ele>1068</ele>
        <time>2021-08-04T08:56:48.864Z</time>
      </trkpt>
      <trkpt lat="46.99001" lon="8.80145">
        <ele>1068</ele>
        <time>2021-08-04T08:56:49.864Z</time>
      </trkpt>
      <trkpt lat="46.99001" lon="8.80144">
        <ele>1067</ele>
        <time>2021-08-04T08:56:50.864Z</time>
      </trkpt>
      <trkpt lat="46.99001" lon="8.80142">
        <ele>1068</ele>
        <time>2021-08-04T08:56:51.864Z</time>
      </trkpt>
      <trkpt lat="46.99001" lon="8.8014">
        <ele>1068</ele>
        <time>2021-08-04T08:56:52.863Z</time>
      </trkpt>
      <trkpt lat="46.99001" lon="8.80138">
        <ele>1068</ele>
        <time>2021-08-04T08:56:53.864Z</time>
      </trkpt>
      <trkpt lat="46.99001" lon="8.80137">
        <ele>1069</ele>
        <time>2021-08-04T08:56:54.864Z</time>
      </trkpt>
      <trkpt lat="46.99001" lon="8.80136">
        <ele>1069</ele>
        <time>2021-08-04T08:56:55.863Z</time>
      </trkpt>
      <trkpt lat="46.99001" lon="8.80134">
        <ele>1069</ele>
        <time>2021-08-04T08:56:56.864Z</time>
      </trkpt>
      <trkpt lat="46.99002" lon="8.80132">
        <ele>1069</ele>
        <time>2021-08-04T08:56:57.863Z</time>
      </trkpt>
      <trkpt lat="46.99002" lon="8.80131">
        <ele>1069</ele>
        <time>2021-08-04T08:56:58.864Z</time>
      </trkpt>
      <trkpt lat="46.99002" lon="8.80129">
        <ele>1069</ele>
        <time>2021-08-04T08:56:59.863Z</time>
      </trkpt>
      <trkpt lat="46.99002" lon="8.80128">
        <ele>1068</ele>
        <time>2021-08-04T08:57:00.864Z</time>
      </trkpt>
      <trkpt lat="46.99003" lon="8.80126">
        <ele>1067</ele>
        <time>2021-08-04T08:57:01.864Z</time>
      </trkpt>
      <trkpt lat="46.99003" lon="8.80124">
        <ele>1067</ele>
        <time>2021-08-04T08:57:02.864Z</time>
      </trkpt>
      <trkpt lat="46.99002" lon="8.80123">
        <ele>1066</ele>
        <time>2021-08-04T08:57:03.863Z</time>
      </trkpt>
      <trkpt lat="46.99002" lon="8.80121">
        <ele>1065</ele>
        <time>2021-08-04T08:57:04.864Z</time>
      </trkpt>
      <trkpt lat="46.99002" lon="8.80119">
        <ele>1064</ele>
        <time>2021-08-04T08:57:05.863Z</time>
      </trkpt>
      <trkpt lat="46.99002" lon="8.80117">
        <ele>1064</ele>
        <time>2021-08-04T08:57:06.863Z</time>
      </trkpt>
      <trkpt lat="46.99002" lon="8.80115">
        <ele>1064</ele>
        <time>2021-08-04T08:57:07.863Z</time>
      </trkpt>
      <trkpt lat="46.99003" lon="8.80113">
        <ele>1063</ele>
        <time>2021-08-04T08:57:08.863Z</time>
      </trkpt>
      <trkpt lat="46.99003" lon="8.80111">
        <ele>1063</ele>
        <time>2021-08-04T08:57:09.864Z</time>
      </trkpt>
      <trkpt lat="46.99003" lon="8.8011">
        <ele>1063</ele>
        <time>2021-08-04T08:57:10.864Z</time>
      </trkpt>
      <trkpt lat="46.99004" lon="8.80108">
        <ele>1063</ele>
        <time>2021-08-04T08:57:11.864Z</time>
      </trkpt>
      <trkpt lat="46.99003" lon="8.80106">
        <ele>1062</ele>
        <time>2021-08-04T08:57:12.863Z</time>
      </trkpt>
      <trkpt lat="46.99004" lon="8.80103">
        <ele>1062</ele>
        <time>2021-08-04T08:57:13.864Z</time>
      </trkpt>
      <trkpt lat="46.99004" lon="8.80101">
        <ele>1062</ele>
        <time>2021-08-04T08:57:14.864Z</time>
      </trkpt>
      <trkpt lat="46.99004" lon="8.801">
        <ele>1061</ele>
        <time>2021-08-04T08:57:15.864Z</time>
      </trkpt>
      <trkpt lat="46.99004" lon="8.80098">
        <ele>1061</ele>
        <time>2021-08-04T08:57:16.863Z</time>
      </trkpt>
      <trkpt lat="46.99005" lon="8.80096">
        <ele>1061</ele>
        <time>2021-08-04T08:57:17.863Z</time>
      </trkpt>
      <trkpt lat="46.99005" lon="8.80094">
        <ele>1060</ele>
        <time>2021-08-04T08:57:18.864Z</time>
      </trkpt>
      <trkpt lat="46.99004" lon="8.80092">
        <ele>1060</ele>
        <time>2021-08-04T08:57:19.864Z</time>
      </trkpt>
      <trkpt lat="46.99004" lon="8.8009">
        <ele>1060</ele>
        <time>2021-08-04T08:57:20.864Z</time>
      </trkpt>
      <trkpt lat="46.99004" lon="8.80089">
        <ele>1059</ele>
        <time>2021-08-04T08:57:21.864Z</time>
      </trkpt>
      <trkpt lat="46.99004" lon="8.80088">
        <ele>1059</ele>
        <time>2021-08-04T08:57:22.864Z</time>
      </trkpt>
      <trkpt lat="46.99004" lon="8.80086">
        <ele>1059</ele>
        <time>2021-08-04T08:57:23.864Z</time>
      </trkpt>
      <trkpt lat="46.99005" lon="8.80085">
        <ele>1059</ele>
        <time>2021-08-04T08:57:24.864Z</time>
      </trkpt>
      <trkpt lat="46.99005" lon="8.80083">
        <ele>1059</ele>
        <time>2021-08-04T08:57:25.863Z</time>
      </trkpt>
      <trkpt lat="46.99006" lon="8.80081">
        <ele>1059</ele>
        <time>2021-08-04T08:57:26.864Z</time>
      </trkpt>
      <trkpt lat="46.99006" lon="8.80079">
        <ele>1058</ele>
        <time>2021-08-04T08:57:27.863Z</time>
      </trkpt>
      <trkpt lat="46.99005" lon="8.80077">
        <ele>1058</ele>
        <time>2021-08-04T08:57:28.863Z</time>
      </trkpt>
      <trkpt lat="46.99005" lon="8.80075">
        <ele>1058</ele>
        <time>2021-08-04T08:57:29.863Z</time>
      </trkpt>
      <trkpt lat="46.99005" lon="8.80073">
        <ele>1058</ele>
        <time>2021-08-04T08:57:30.863Z</time>
      </trkpt>
      <trkpt lat="46.99005" lon="8.80071">
        <ele>1058</ele>
        <time>2021-08-04T08:57:31.863Z</time>
      </trkpt>
      <trkpt lat="46.99004" lon="8.80069">
        <ele>1058</ele>
        <time>2021-08-04T08:57:32.863Z</time>
      </trkpt>
      <trkpt lat="46.99003" lon="8.80067">
        <ele>1058</ele>
        <time>2021-08-04T08:57:33.863Z</time>
      </trkpt>
      <trkpt lat="46.99003" lon="8.80066">
        <ele>1057</ele>
        <time>2021-08-04T08:57:34.864Z</time>
      </trkpt>
      <trkpt lat="46.99002" lon="8.80063">
        <ele>1057</ele>
        <time>2021-08-04T08:57:35.863Z</time>
      </trkpt>
      <trkpt lat="46.99001" lon="8.80061">
        <ele>1057</ele>
        <time>2021-08-04T08:57:36.864Z</time>
      </trkpt>
      <trkpt lat="46.99001" lon="8.80059">
        <ele>1057</ele>
        <time>2021-08-04T08:57:37.864Z</time>
      </trkpt>
      <trkpt lat="46.99001" lon="8.80057">
        <ele>1056</ele>
        <time>2021-08-04T08:57:38.864Z</time>
      </trkpt>
      <trkpt lat="46.99" lon="8.80055">
        <ele>1056</ele>
        <time>2021-08-04T08:57:39.864Z</time>
      </trkpt>
      <trkpt lat="46.99" lon="8.80053">
        <ele>1056</ele>
        <time>2021-08-04T08:57:40.863Z</time>
      </trkpt>
      <trkpt lat="46.98999" lon="8.80051">
        <ele>1055</ele>
        <time>2021-08-04T08:57:41.864Z</time>
      </trkpt>
      <trkpt lat="46.98999" lon="8.80049">
        <ele>1055</ele>
        <time>2021-08-04T08:57:42.864Z</time>
      </trkpt>
      <trkpt lat="46.98998" lon="8.80047">
        <ele>1054</ele>
        <time>2021-08-04T08:57:43.864Z</time>
      </trkpt>
      <trkpt lat="46.98998" lon="8.80045">
        <ele>1054</ele>
        <time>2021-08-04T08:57:44.863Z</time>
      </trkpt>
      <trkpt lat="46.98998" lon="8.80043">
        <ele>1054</ele>
        <time>2021-08-04T08:57:45.864Z</time>
      </trkpt>
      <trkpt lat="46.98997" lon="8.80042">
        <ele>1054</ele>
        <time>2021-08-04T08:57:46.864Z</time>
      </trkpt>
      <trkpt lat="46.98997" lon="8.8004">
        <ele>1054</ele>
        <time>2021-08-04T08:57:47.864Z</time>
      </trkpt>
      <trkpt lat="46.98997" lon="8.80039">
        <ele>1054</ele>
        <time>2021-08-04T08:57:48.863Z</time>
      </trkpt>
      <trkpt lat="46.98997" lon="8.80037">
        <ele>1054</ele>
        <time>2021-08-04T08:57:49.864Z</time>
      </trkpt>
      <trkpt lat="46.98997" lon="8.80035">
        <ele>1054</ele>
        <time>2021-08-04T08:57:50.863Z</time>
      </trkpt>
      <trkpt lat="46.98998" lon="8.80034">
        <ele>1053</ele>
        <time>2021-08-04T08:57:51.863Z</time>
      </trkpt>
      <trkpt lat="46.98998" lon="8.80033">
        <ele>1053</ele>
        <time>2021-08-04T08:57:52.864Z</time>
      </trkpt>
      <trkpt lat="46.98998" lon="8.80031">
        <ele>1053</ele>
        <time>2021-08-04T08:57:53.864Z</time>
      </trkpt>
      <trkpt lat="46.98999" lon="8.8003">
        <ele>1052</ele>
        <time>2021-08-04T08:57:54.863Z</time>
      </trkpt>
      <trkpt lat="46.99" lon="8.80029">
        <ele>1052</ele>
        <time>2021-08-04T08:57:55.864Z</time>
      </trkpt>
      <trkpt lat="46.99001" lon="8.80028">
        <ele>1052</ele>
        <time>2021-08-04T08:57:56.864Z</time>
      </trkpt>
      <trkpt lat="46.99001" lon="8.80027">
        <ele>1052</ele>
        <time>2021-08-04T08:57:57.864Z</time>
      </trkpt>
      <trkpt lat="46.99002" lon="8.80025">
        <ele>1052</ele>
        <time>2021-08-04T08:57:58.863Z</time>
      </trkpt>
      <trkpt lat="46.99003" lon="8.80023">
        <ele>1052</ele>
        <time>2021-08-04T08:57:59.863Z</time>
      </trkpt>
      <trkpt lat="46.99004" lon="8.80022">
        <ele>1053</ele>
        <time>2021-08-04T08:58:00.863Z</time>
      </trkpt>
      <trkpt lat="46.99005" lon="8.80021">
        <ele>1053</ele>
        <time>2021-08-04T08:58:01.864Z</time>
      </trkpt>
      <trkpt lat="46.99007" lon="8.8002">
        <ele>1053</ele>
        <time>2021-08-04T08:58:02.864Z</time>
      </trkpt>
      <trkpt lat="46.99008" lon="8.8002">
        <ele>1053</ele>
        <time>2021-08-04T08:58:03.864Z</time>
      </trkpt>
      <trkpt lat="46.99009" lon="8.8002">
        <ele>1053</ele>
        <time>2021-08-04T08:58:04.863Z</time>
      </trkpt>
      <trkpt lat="46.99011" lon="8.80019">
        <ele>1054</ele>
        <time>2021-08-04T08:58:05.864Z</time>
      </trkpt>
      <trkpt lat="46.99012" lon="8.80018">
        <ele>1054</ele>
        <time>2021-08-04T08:58:06.864Z</time>
      </trkpt>
      <trkpt lat="46.99013" lon="8.80017">
        <ele>1054</ele>
        <time>2021-08-04T08:58:07.864Z</time>
      </trkpt>
      <trkpt lat="46.99014" lon="8.80015">
        <ele>1054</ele>
        <time>2021-08-04T08:58:08.864Z</time>
      </trkpt>
      <trkpt lat="46.99014" lon="8.80013">
        <ele>1055</ele>
        <time>2021-08-04T08:58:09.864Z</time>
      </trkpt>
      <trkpt lat="46.99014" lon="8.80011">
        <ele>1055</ele>
        <time>2021-08-04T08:58:10.863Z</time>
      </trkpt>
      <trkpt lat="46.99014" lon="8.80009">
        <ele>1055</ele>
        <time>2021-08-04T08:58:11.864Z</time>
      </trkpt>
      <trkpt lat="46.99015" lon="8.80007">
        <ele>1055</ele>
        <time>2021-08-04T08:58:12.864Z</time>
      </trkpt>
      <trkpt lat="46.99015" lon="8.80006">
        <ele>1054</ele>
        <time>2021-08-04T08:58:13.863Z</time>
      </trkpt>
      <trkpt lat="46.99015" lon="8.80004">
        <ele>1054</ele>
        <time>2021-08-04T08:58:14.864Z</time>
      </trkpt>
      <trkpt lat="46.99014" lon="8.80002">
        <ele>1054</ele>
        <time>2021-08-04T08:58:15.863Z</time>
      </trkpt>
      <trkpt lat="46.99014" lon="8.80001">
        <ele>1053</ele>
        <time>2021-08-04T08:58:16.863Z</time>
      </trkpt>
      <trkpt lat="46.99014" lon="8.79999">
        <ele>1053</ele>
        <time>2021-08-04T08:58:17.864Z</time>
      </trkpt>
      <trkpt lat="46.99014" lon="8.79998">
        <ele>1053</ele>
        <time>2021-08-04T08:58:18.864Z</time>
      </trkpt>
      <trkpt lat="46.99014" lon="8.79996">
        <ele>1054</ele>
        <time>2021-08-04T08:58:19.863Z</time>
      </trkpt>
      <trkpt lat="46.99014" lon="8.79994">
        <ele>1054</ele>
        <time>2021-08-04T08:58:20.863Z</time>
      </trkpt>
      <trkpt lat="46.99014" lon="8.79992">
        <ele>1054</ele>
        <time>2021-08-04T08:58:21.863Z</time>
      </trkpt>
      <trkpt lat="46.99013" lon="8.79989">
        <ele>1055</ele>
        <time>2021-08-04T08:58:22.863Z</time>
      </trkpt>
      <trkpt lat="46.99012" lon="8.79987">
        <ele>1055</ele>
        <time>2021-08-04T08:58:23.863Z</time>
      </trkpt>
      <trkpt lat="46.99011" lon="8.79984">
        <ele>1056</ele>
        <time>2021-08-04T08:58:24.864Z</time>
      </trkpt>
      <trkpt lat="46.9901" lon="8.79982">
        <ele>1056</ele>
        <time>2021-08-04T08:58:25.863Z</time>
      </trkpt>
      <trkpt lat="46.9901" lon="8.7998">
        <ele>1057</ele>
        <time>2021-08-04T08:58:26.864Z</time>
      </trkpt>
      <trkpt lat="46.99009" lon="8.79979">
        <ele>1057</ele>
        <time>2021-08-04T08:58:27.864Z</time>
      </trkpt>
      <trkpt lat="46.99009" lon="8.79977">
        <ele>1058</ele>
        <time>2021-08-04T08:58:28.863Z</time>
      </trkpt>
      <trkpt lat="46.99009" lon="8.79976">
        <ele>1058</ele>
        <time>2021-08-04T08:58:29.863Z</time>
      </trkpt>
      <trkpt lat="46.99009" lon="8.79975">
        <ele>1059</ele>
        <time>2021-08-04T08:58:30.863Z</time>
      </trkpt>
      <trkpt lat="46.99008" lon="8.79974">
        <ele>1059</ele>
        <time>2021-08-04T08:58:31.864Z</time>
      </trkpt>
      <trkpt lat="46.9901" lon="8.79974">
        <ele>1059</ele>
        <time>2021-08-04T08:58:32.863Z</time>
      </trkpt>
      <trkpt lat="46.9901" lon="8.79974">
        <ele>1060</ele>
        <time>2021-08-04T08:58:33.864Z</time>
      </trkpt>
      <trkpt lat="46.99011" lon="8.79976">
        <ele>1061</ele>
        <time>2021-08-04T08:58:34.863Z</time>
      </trkpt>
      <trkpt lat="46.9901" lon="8.79978">
        <ele>1061</ele>
        <time>2021-08-04T08:58:35.863Z</time>
      </trkpt>
      <trkpt lat="46.99009" lon="8.79979">
        <ele>1062</ele>
        <time>2021-08-04T08:58:36.864Z</time>
      </trkpt>
      <trkpt lat="46.9901" lon="8.79977">
        <ele>1062</ele>
        <time>2021-08-04T08:58:37.864Z</time>
      </trkpt>
      <trkpt lat="46.9901" lon="8.79974">
        <ele>1062</ele>
        <time>2021-08-04T08:58:38.863Z</time>
      </trkpt>
      <trkpt lat="46.9901" lon="8.79972">
        <ele>1062</ele>
        <time>2021-08-04T08:58:39.864Z</time>
      </trkpt>
      <trkpt lat="46.9901" lon="8.7997">
        <ele>1062</ele>
        <time>2021-08-04T08:58:40.864Z</time>
      </trkpt>
      <trkpt lat="46.99009" lon="8.79969">
        <ele>1062</ele>
        <time>2021-08-04T08:58:41.863Z</time>
      </trkpt>
      <trkpt lat="46.99008" lon="8.79967">
        <ele>1062</ele>
        <time>2021-08-04T08:58:42.863Z</time>
      </trkpt>
      <trkpt lat="46.99007" lon="8.79965">
        <ele>1062</ele>
        <time>2021-08-04T08:58:43.864Z</time>
      </trkpt>
      <trkpt lat="46.99006" lon="8.79964">
        <ele>1062</ele>
        <time>2021-08-04T08:58:44.864Z</time>
      </trkpt>
      <trkpt lat="46.99006" lon="8.79963">
        <ele>1062</ele>
        <time>2021-08-04T08:58:45.864Z</time>
      </trkpt>
      <trkpt lat="46.99005" lon="8.79962">
        <ele>1062</ele>
        <time>2021-08-04T08:58:46.863Z</time>
      </trkpt>
      <trkpt lat="46.99004" lon="8.7996">
        <ele>1061</ele>
        <time>2021-08-04T08:58:47.863Z</time>
      </trkpt>
      <trkpt lat="46.99004" lon="8.79957">
        <ele>1061</ele>
        <time>2021-08-04T08:58:48.864Z</time>
      </trkpt>
      <trkpt lat="46.99004" lon="8.79956">
        <ele>1061</ele>
        <time>2021-08-04T08:58:49.863Z</time>
      </trkpt>
      <trkpt lat="46.99004" lon="8.79954">
        <ele>1061</ele>
        <time>2021-08-04T08:58:50.863Z</time>
      </trkpt>
      <trkpt lat="46.99004" lon="8.79954">
        <ele>1060</ele>
        <time>2021-08-04T08:58:51.864Z</time>
      </trkpt>
      <trkpt lat="46.99004" lon="8.79953">
        <ele>1060</ele>
        <time>2021-08-04T08:58:52.864Z</time>
      </trkpt>
      <trkpt lat="46.99004" lon="8.79952">
        <ele>1060</ele>
        <time>2021-08-04T08:58:53.863Z</time>
      </trkpt>
      <trkpt lat="46.99003" lon="8.79948">
        <ele>1059</ele>
        <time>2021-08-04T08:58:54.866Z</time>
      </trkpt>
      <trkpt lat="46.99003" lon="8.79948">
        <ele>1059</ele>
        <time>2021-08-04T08:58:55.866Z</time>
      </trkpt>
      <trkpt lat="46.99004" lon="8.7995">
        <ele>1056</ele>
        <time>2021-08-04T08:58:56.867Z</time>
      </trkpt>
      <trkpt lat="46.99003" lon="8.79948">
        <ele>1056</ele>
        <time>2021-08-04T08:58:57.867Z</time>
      </trkpt>
      <trkpt lat="46.99003" lon="8.79946">
        <ele>1056</ele>
        <time>2021-08-04T08:58:58.866Z</time>
      </trkpt>
      <trkpt lat="46.99002" lon="8.79945">
        <ele>1056</ele>
        <time>2021-08-04T08:58:59.867Z</time>
      </trkpt>
      <trkpt lat="46.99002" lon="8.79943">
        <ele>1057</ele>
        <time>2021-08-04T08:59:00.867Z</time>
      </trkpt>
      <trkpt lat="46.99002" lon="8.79941">
        <ele>1057</ele>
        <time>2021-08-04T08:59:01.867Z</time>
      </trkpt>
      <trkpt lat="46.99002" lon="8.7994">
        <ele>1057</ele>
        <time>2021-08-04T08:59:02.867Z</time>
      </trkpt>
      <trkpt lat="46.99002" lon="8.79938">
        <ele>1058</ele>
        <time>2021-08-04T08:59:03.866Z</time>
      </trkpt>
      <trkpt lat="46.99001" lon="8.79937">
        <ele>1058</ele>
        <time>2021-08-04T08:59:04.867Z</time>
      </trkpt>
      <trkpt lat="46.99001" lon="8.79935">
        <ele>1058</ele>
        <time>2021-08-04T08:59:05.866Z</time>
      </trkpt>
      <trkpt lat="46.99" lon="8.79934">
        <ele>1058</ele>
        <time>2021-08-04T08:59:06.867Z</time>
      </trkpt>
      <trkpt lat="46.99" lon="8.79932">
        <ele>1058</ele>
        <time>2021-08-04T08:59:07.867Z</time>
      </trkpt>
      <trkpt lat="46.98999" lon="8.79932">
        <ele>1058</ele>
        <time>2021-08-04T08:59:08.867Z</time>
      </trkpt>
      <trkpt lat="46.98998" lon="8.79931">
        <ele>1058</ele>
        <time>2021-08-04T08:59:09.867Z</time>
      </trkpt>
      <trkpt lat="46.98998" lon="8.79929">
        <ele>1057</ele>
        <time>2021-08-04T08:59:10.867Z</time>
      </trkpt>
      <trkpt lat="46.98998" lon="8.79927">
        <ele>1057</ele>
        <time>2021-08-04T08:59:11.866Z</time>
      </trkpt>
      <trkpt lat="46.98998" lon="8.79925">
        <ele>1057</ele>
        <time>2021-08-04T08:59:12.866Z</time>
      </trkpt>
      <trkpt lat="46.98998" lon="8.79924">
        <ele>1056</ele>
        <time>2021-08-04T08:59:13.867Z</time>
      </trkpt>
      <trkpt lat="46.98998" lon="8.79922">
        <ele>1055</ele>
        <time>2021-08-04T08:59:14.867Z</time>
      </trkpt>
      <trkpt lat="46.98998" lon="8.7992">
        <ele>1054</ele>
        <time>2021-08-04T08:59:15.867Z</time>
      </trkpt>
      <trkpt lat="46.98997" lon="8.79918">
        <ele>1054</ele>
        <time>2021-08-04T08:59:16.867Z</time>
      </trkpt>
      <trkpt lat="46.98996" lon="8.79917">
        <ele>1054</ele>
        <time>2021-08-04T08:59:17.866Z</time>
      </trkpt>
      <trkpt lat="46.98996" lon="8.79915">
        <ele>1053</ele>
        <time>2021-08-04T08:59:18.867Z</time>
      </trkpt>
      <trkpt lat="46.98995" lon="8.79914">
        <ele>1053</ele>
        <time>2021-08-04T08:59:19.867Z</time>
      </trkpt>
      <trkpt lat="46.98994" lon="8.79913">
        <ele>1053</ele>
        <time>2021-08-04T08:59:20.866Z</time>
      </trkpt>
      <trkpt lat="46.98994" lon="8.79913">
        <ele>1053</ele>
        <time>2021-08-04T08:59:21.866Z</time>
      </trkpt>
      <trkpt lat="46.98993" lon="8.79913">
        <ele>1053</ele>
        <time>2021-08-04T08:59:22.867Z</time>
      </trkpt>
      <trkpt lat="46.98992" lon="8.79913">
        <ele>1052</ele>
        <time>2021-08-04T08:59:23.867Z</time>
      </trkpt>
      <trkpt lat="46.98991" lon="8.79913">
        <ele>1052</ele>
        <time>2021-08-04T08:59:24.867Z</time>
      </trkpt>
      <trkpt lat="46.98991" lon="8.79913">
        <ele>1052</ele>
        <time>2021-08-04T08:59:25.866Z</time>
      </trkpt>
      <trkpt lat="46.98981" lon="8.79911">
        <ele>1048</ele>
        <time>2021-08-04T08:59:26.868Z</time>
      </trkpt>
      <trkpt lat="46.98981" lon="8.79911">
        <ele>1048</ele>
        <time>2021-08-04T08:59:27.868Z</time>
      </trkpt>
      <trkpt lat="46.98976" lon="8.79908">
        <ele>1045</ele>
        <time>2021-08-04T08:59:28.868Z</time>
      </trkpt>
      <trkpt lat="46.98976" lon="8.79909">
        <ele>1045</ele>
        <time>2021-08-04T08:59:29.867Z</time>
      </trkpt>
      <trkpt lat="46.98976" lon="8.79911">
        <ele>1045</ele>
        <time>2021-08-04T08:59:30.867Z</time>
      </trkpt>
      <trkpt lat="46.98976" lon="8.79913">
        <ele>1044</ele>
        <time>2021-08-04T08:59:31.867Z</time>
      </trkpt>
      <trkpt lat="46.98976" lon="8.79914">
        <ele>1044</ele>
        <time>2021-08-04T08:59:32.868Z</time>
      </trkpt>
      <trkpt lat="46.98976" lon="8.79914">
        <ele>1044</ele>
        <time>2021-08-04T08:59:33.868Z</time>
      </trkpt>
      <trkpt lat="46.98976" lon="8.79915">
        <ele>1044</ele>
        <time>2021-08-04T08:59:34.867Z</time>
      </trkpt>
      <trkpt lat="46.98976" lon="8.79915">
        <ele>1044</ele>
        <time>2021-08-04T08:59:35.868Z</time>
      </trkpt>
      <trkpt lat="46.98976" lon="8.79915">
        <ele>1044</ele>
        <time>2021-08-04T08:59:36.868Z</time>
      </trkpt>
      <trkpt lat="46.98975" lon="8.79915">
        <ele>1044</ele>
        <time>2021-08-04T08:59:37.867Z</time>
      </trkpt>
      <trkpt lat="46.98975" lon="8.79916">
        <ele>1045</ele>
        <time>2021-08-04T08:59:38.868Z</time>
      </trkpt>
      <trkpt lat="46.98975" lon="8.79916">
        <ele>1045</ele>
        <time>2021-08-04T08:59:39.867Z</time>
      </trkpt>
      <trkpt lat="46.98973" lon="8.79915">
        <ele>1049</ele>
        <time>2021-08-04T08:59:40.868Z</time>
      </trkpt>
      <trkpt lat="46.98974" lon="8.79916">
        <ele>1050</ele>
        <time>2021-08-04T08:59:41.869Z</time>
      </trkpt>
      <trkpt lat="46.98975" lon="8.79917">
        <ele>1050</ele>
        <time>2021-08-04T08:59:42.868Z</time>
      </trkpt>
      <trkpt lat="46.98975" lon="8.79918">
        <ele>1051</ele>
        <time>2021-08-04T08:59:43.868Z</time>
      </trkpt>
      <trkpt lat="46.98975" lon="8.79919">
        <ele>1051</ele>
        <time>2021-08-04T08:59:44.869Z</time>
      </trkpt>
      <trkpt lat="46.98975" lon="8.7992">
        <ele>1051</ele>
        <time>2021-08-04T08:59:45.868Z</time>
      </trkpt>
      <trkpt lat="46.98975" lon="8.79922">
        <ele>1051</ele>
        <time>2021-08-04T08:59:46.869Z</time>
      </trkpt>
      <trkpt lat="46.98975" lon="8.79923">
        <ele>1050</ele>
        <time>2021-08-04T08:59:47.868Z</time>
      </trkpt>
      <trkpt lat="46.98975" lon="8.79924">
        <ele>1050</ele>
        <time>2021-08-04T08:59:48.869Z</time>
      </trkpt>
      <trkpt lat="46.98974" lon="8.79924">
        <ele>1050</ele>
        <time>2021-08-04T08:59:49.869Z</time>
      </trkpt>
      <trkpt lat="46.98974" lon="8.79925">
        <ele>1049</ele>
        <time>2021-08-04T08:59:50.869Z</time>
      </trkpt>
      <trkpt lat="46.98973" lon="8.79926">
        <ele>1049</ele>
        <time>2021-08-04T08:59:51.868Z</time>
      </trkpt>
      <trkpt lat="46.98973" lon="8.79927">
        <ele>1049</ele>
        <time>2021-08-04T08:59:52.869Z</time>
      </trkpt>
      <trkpt lat="46.98972" lon="8.79928">
        <ele>1049</ele>
        <time>2021-08-04T08:59:53.869Z</time>
      </trkpt>
      <trkpt lat="46.9897" lon="8.79931">
        <ele>1050</ele>
        <time>2021-08-04T08:59:54.869Z</time>
      </trkpt>
      <trkpt lat="46.9897" lon="8.79932">
        <ele>1050</ele>
        <time>2021-08-04T08:59:55.869Z</time>
      </trkpt>
      <trkpt lat="46.98969" lon="8.79933">
        <ele>1050</ele>
        <time>2021-08-04T08:59:56.869Z</time>
      </trkpt>
      <trkpt lat="46.98969" lon="8.79934">
        <ele>1050</ele>
        <time>2021-08-04T08:59:57.869Z</time>
      </trkpt>
      <trkpt lat="46.98968" lon="8.79934">
        <ele>1050</ele>
        <time>2021-08-04T08:59:58.870Z</time>
      </trkpt>
      <trkpt lat="46.98968" lon="8.79934">
        <ele>1050</ele>
        <time>2021-08-04T08:59:59.870Z</time>
      </trkpt>
      <trkpt lat="46.98968" lon="8.79935">
        <ele>1049</ele>
        <time>2021-08-04T09:00:00.870Z</time>
      </trkpt>
      <trkpt lat="46.98967" lon="8.79935">
        <ele>1049</ele>
        <time>2021-08-04T09:00:01.870Z</time>
      </trkpt>
      <trkpt lat="46.98967" lon="8.79935">
        <ele>1048</ele>
        <time>2021-08-04T09:00:02.870Z</time>
      </trkpt>
      <trkpt lat="46.98966" lon="8.79935">
        <ele>1048</ele>
        <time>2021-08-04T09:00:03.869Z</time>
      </trkpt>
      <trkpt lat="46.98965" lon="8.79935">
        <ele>1047</ele>
        <time>2021-08-04T09:00:04.870Z</time>
      </trkpt>
      <trkpt lat="46.98965" lon="8.79934">
        <ele>1047</ele>
        <time>2021-08-04T09:00:05.869Z</time>
      </trkpt>
      <trkpt lat="46.98964" lon="8.79934">
        <ele>1047</ele>
        <time>2021-08-04T09:00:06.870Z</time>
      </trkpt>
      <trkpt lat="46.98963" lon="8.79933">
        <ele>1046</ele>
        <time>2021-08-04T09:00:07.870Z</time>
      </trkpt>
      <trkpt lat="46.98962" lon="8.79932">
        <ele>1046</ele>
        <time>2021-08-04T09:00:08.870Z</time>
      </trkpt>
      <trkpt lat="46.98961" lon="8.79932">
        <ele>1045</ele>
        <time>2021-08-04T09:00:09.869Z</time>
      </trkpt>
      <trkpt lat="46.98959" lon="8.79932">
        <ele>1044</ele>
        <time>2021-08-04T09:00:10.870Z</time>
      </trkpt>
      <trkpt lat="46.98958" lon="8.79932">
        <ele>1044</ele>
        <time>2021-08-04T09:00:11.869Z</time>
      </trkpt>
      <trkpt lat="46.98957" lon="8.79932">
        <ele>1044</ele>
        <time>2021-08-04T09:00:12.870Z</time>
      </trkpt>
      <trkpt lat="46.98955" lon="8.79932">
        <ele>1043</ele>
        <time>2021-08-04T09:00:13.870Z</time>
      </trkpt>
      <trkpt lat="46.98955" lon="8.79931">
        <ele>1043</ele>
        <time>2021-08-04T09:00:14.869Z</time>
      </trkpt>
      <trkpt lat="46.98954" lon="8.79931">
        <ele>1043</ele>
        <time>2021-08-04T09:00:15.870Z</time>
      </trkpt>
      <trkpt lat="46.98953" lon="8.79932">
        <ele>1043</ele>
        <time>2021-08-04T09:00:16.870Z</time>
      </trkpt>
      <trkpt lat="46.98953" lon="8.79932">
        <ele>1043</ele>
        <time>2021-08-04T09:00:17.869Z</time>
      </trkpt>
      <trkpt lat="46.98953" lon="8.79933">
        <ele>1042</ele>
        <time>2021-08-04T09:00:18.870Z</time>
      </trkpt>
      <trkpt lat="46.98952" lon="8.79933">
        <ele>1042</ele>
        <time>2021-08-04T09:00:19.869Z</time>
      </trkpt>
      <trkpt lat="46.98952" lon="8.79932">
        <ele>1041</ele>
        <time>2021-08-04T09:00:20.870Z</time>
      </trkpt>
      <trkpt lat="46.98951" lon="8.79932">
        <ele>1040</ele>
        <time>2021-08-04T09:00:21.870Z</time>
      </trkpt>
      <trkpt lat="46.9895" lon="8.79931">
        <ele>1040</ele>
        <time>2021-08-04T09:00:22.870Z</time>
      </trkpt>
      <trkpt lat="46.98949" lon="8.79931">
        <ele>1040</ele>
        <time>2021-08-04T09:00:23.869Z</time>
      </trkpt>
      <trkpt lat="46.98948" lon="8.79931">
        <ele>1040</ele>
        <time>2021-08-04T09:00:24.870Z</time>
      </trkpt>
      <trkpt lat="46.98948" lon="8.79931">
        <ele>1040</ele>
        <time>2021-08-04T09:00:25.870Z</time>
      </trkpt>
      <trkpt lat="46.98947" lon="8.7993">
        <ele>1039</ele>
        <time>2021-08-04T09:00:26.870Z</time>
      </trkpt>
      <trkpt lat="46.98946" lon="8.7993">
        <ele>1039</ele>
        <time>2021-08-04T09:00:27.870Z</time>
      </trkpt>
      <trkpt lat="46.98946" lon="8.7993">
        <ele>1039</ele>
        <time>2021-08-04T09:00:28.870Z</time>
      </trkpt>
      <trkpt lat="46.98945" lon="8.79931">
        <ele>1037</ele>
        <time>2021-08-04T09:00:29.871Z</time>
      </trkpt>
      <trkpt lat="46.98944" lon="8.79931">
        <ele>1037</ele>
        <time>2021-08-04T09:00:30.871Z</time>
      </trkpt>
      <trkpt lat="46.98944" lon="8.79931">
        <ele>1037</ele>
        <time>2021-08-04T09:00:31.871Z</time>
      </trkpt>
      <trkpt lat="46.98943" lon="8.7993">
        <ele>1037</ele>
        <time>2021-08-04T09:00:32.871Z</time>
      </trkpt>
      <trkpt lat="46.98942" lon="8.7993">
        <ele>1037</ele>
        <time>2021-08-04T09:00:33.872Z</time>
      </trkpt>
      <trkpt lat="46.98942" lon="8.7993">
        <ele>1036</ele>
        <time>2021-08-04T09:00:34.871Z</time>
      </trkpt>
      <trkpt lat="46.98941" lon="8.79929">
        <ele>1037</ele>
        <time>2021-08-04T09:00:35.872Z</time>
      </trkpt>
      <trkpt lat="46.9894" lon="8.79928">
        <ele>1037</ele>
        <time>2021-08-04T09:00:36.871Z</time>
      </trkpt>
      <trkpt lat="46.9894" lon="8.79928">
        <ele>1037</ele>
        <time>2021-08-04T09:00:37.872Z</time>
      </trkpt>
      <trkpt lat="46.98939" lon="8.79927">
        <ele>1037</ele>
        <time>2021-08-04T09:00:38.872Z</time>
      </trkpt>
      <trkpt lat="46.98939" lon="8.79926">
        <ele>1037</ele>
        <time>2021-08-04T09:00:39.872Z</time>
      </trkpt>
      <trkpt lat="46.98939" lon="8.79925">
        <ele>1037</ele>
        <time>2021-08-04T09:00:40.871Z</time>
      </trkpt>
      <trkpt lat="46.98939" lon="8.79924">
        <ele>1037</ele>
        <time>2021-08-04T09:00:41.871Z</time>
      </trkpt>
      <trkpt lat="46.98939" lon="8.79923">
        <ele>1037</ele>
        <time>2021-08-04T09:00:42.872Z</time>
      </trkpt>
      <trkpt lat="46.98939" lon="8.79922">
        <ele>1037</ele>
        <time>2021-08-04T09:00:43.872Z</time>
      </trkpt>
      <trkpt lat="46.98938" lon="8.79921">
        <ele>1037</ele>
        <time>2021-08-04T09:00:44.871Z</time>
      </trkpt>
      <trkpt lat="46.98938" lon="8.7992">
        <ele>1037</ele>
        <time>2021-08-04T09:00:45.871Z</time>
      </trkpt>
      <trkpt lat="46.98938" lon="8.7992">
        <ele>1037</ele>
        <time>2021-08-04T09:00:46.872Z</time>
      </trkpt>
      <trkpt lat="46.98937" lon="8.79919">
        <ele>1037</ele>
        <time>2021-08-04T09:00:47.872Z</time>
      </trkpt>
      <trkpt lat="46.98937" lon="8.79918">
        <ele>1037</ele>
        <time>2021-08-04T09:00:48.872Z</time>
      </trkpt>
      <trkpt lat="46.98937" lon="8.79917">
        <ele>1037</ele>
        <time>2021-08-04T09:00:49.871Z</time>
      </trkpt>
      <trkpt lat="46.98936" lon="8.79916">
        <ele>1037</ele>
        <time>2021-08-04T09:00:50.872Z</time>
      </trkpt>
      <trkpt lat="46.98936" lon="8.79915">
        <ele>1037</ele>
        <time>2021-08-04T09:00:51.872Z</time>
      </trkpt>
      <trkpt lat="46.98935" lon="8.79914">
        <ele>1038</ele>
        <time>2021-08-04T09:00:52.872Z</time>
      </trkpt>
      <trkpt lat="46.98935" lon="8.79913">
        <ele>1038</ele>
        <time>2021-08-04T09:00:53.871Z</time>
      </trkpt>
      <trkpt lat="46.98935" lon="8.79912">
        <ele>1038</ele>
        <time>2021-08-04T09:00:54.872Z</time>
      </trkpt>
      <trkpt lat="46.98935" lon="8.79911">
        <ele>1037</ele>
        <time>2021-08-04T09:00:55.872Z</time>
      </trkpt>
      <trkpt lat="46.98935" lon="8.79909">
        <ele>1037</ele>
        <time>2021-08-04T09:00:56.871Z</time>
      </trkpt>
      <trkpt lat="46.98935" lon="8.79906">
        <ele>1037</ele>
        <time>2021-08-04T09:00:57.872Z</time>
      </trkpt>
      <trkpt lat="46.98934" lon="8.79904">
        <ele>1036</ele>
        <time>2021-08-04T09:00:58.872Z</time>
      </trkpt>
      <trkpt lat="46.98933" lon="8.79902">
        <ele>1036</ele>
        <time>2021-08-04T09:00:59.872Z</time>
      </trkpt>
      <trkpt lat="46.98932" lon="8.799">
        <ele>1035</ele>
        <time>2021-08-04T09:01:00.872Z</time>
      </trkpt>
      <trkpt lat="46.98931" lon="8.79897">
        <ele>1035</ele>
        <time>2021-08-04T09:01:01.871Z</time>
      </trkpt>
      <trkpt lat="46.98931" lon="8.79895">
        <ele>1034</ele>
        <time>2021-08-04T09:01:02.871Z</time>
      </trkpt>
      <trkpt lat="46.9893" lon="8.79892">
        <ele>1034</ele>
        <time>2021-08-04T09:01:03.872Z</time>
      </trkpt>
      <trkpt lat="46.98929" lon="8.79891">
        <ele>1034</ele>
        <time>2021-08-04T09:01:04.872Z</time>
      </trkpt>
      <trkpt lat="46.98929" lon="8.7989">
        <ele>1034</ele>
        <time>2021-08-04T09:01:05.871Z</time>
      </trkpt>
      <trkpt lat="46.98928" lon="8.79889">
        <ele>1034</ele>
        <time>2021-08-04T09:01:06.871Z</time>
      </trkpt>
      <trkpt lat="46.98928" lon="8.79887">
        <ele>1034</ele>
        <time>2021-08-04T09:01:07.872Z</time>
      </trkpt>
      <trkpt lat="46.98927" lon="8.79886">
        <ele>1033</ele>
        <time>2021-08-04T09:01:08.872Z</time>
      </trkpt>
      <trkpt lat="46.98926" lon="8.79884">
        <ele>1033</ele>
        <time>2021-08-04T09:01:09.871Z</time>
      </trkpt>
      <trkpt lat="46.98926" lon="8.79883">
        <ele>1032</ele>
        <time>2021-08-04T09:01:10.872Z</time>
      </trkpt>
      <trkpt lat="46.98924" lon="8.79883">
        <ele>1031</ele>
        <time>2021-08-04T09:01:11.872Z</time>
      </trkpt>
      <trkpt lat="46.98923" lon="8.79882">
        <ele>1030</ele>
        <time>2021-08-04T09:01:12.871Z</time>
      </trkpt>
      <trkpt lat="46.98923" lon="8.7988">
        <ele>1030</ele>
        <time>2021-08-04T09:01:13.871Z</time>
      </trkpt>
      <trkpt lat="46.98923" lon="8.79879">
        <ele>1029</ele>
        <time>2021-08-04T09:01:14.872Z</time>
      </trkpt>
      <trkpt lat="46.98922" lon="8.79878">
        <ele>1028</ele>
        <time>2021-08-04T09:01:15.872Z</time>
      </trkpt>
      <trkpt lat="46.98921" lon="8.79876">
        <ele>1028</ele>
        <time>2021-08-04T09:01:16.872Z</time>
      </trkpt>
      <trkpt lat="46.98921" lon="8.79874">
        <ele>1027</ele>
        <time>2021-08-04T09:01:17.871Z</time>
      </trkpt>
      <trkpt lat="46.98921" lon="8.79873">
        <ele>1027</ele>
        <time>2021-08-04T09:01:18.872Z</time>
      </trkpt>
      <trkpt lat="46.98921" lon="8.79871">
        <ele>1027</ele>
        <time>2021-08-04T09:01:19.871Z</time>
      </trkpt>
      <trkpt lat="46.98921" lon="8.7987">
        <ele>1026</ele>
        <time>2021-08-04T09:01:20.871Z</time>
      </trkpt>
      <trkpt lat="46.98922" lon="8.7987">
        <ele>1026</ele>
        <time>2021-08-04T09:01:21.871Z</time>
      </trkpt>
      <trkpt lat="46.98922" lon="8.7987">
        <ele>1026</ele>
        <time>2021-08-04T09:01:22.872Z</time>
      </trkpt>
      <trkpt lat="46.98922" lon="8.7987">
        <ele>1026</ele>
        <time>2021-08-04T09:01:23.871Z</time>
      </trkpt>
      <trkpt lat="46.98922" lon="8.79869">
        <ele>1026</ele>
        <time>2021-08-04T09:01:24.871Z</time>
      </trkpt>
      <trkpt lat="46.98922" lon="8.79868">
        <ele>1027</ele>
        <time>2021-08-04T09:01:25.872Z</time>
      </trkpt>
      <trkpt lat="46.98922" lon="8.79866">
        <ele>1028</ele>
        <time>2021-08-04T09:01:26.872Z</time>
      </trkpt>
      <trkpt lat="46.98921" lon="8.79865">
        <ele>1028</ele>
        <time>2021-08-04T09:01:27.872Z</time>
      </trkpt>
      <trkpt lat="46.98921" lon="8.79864">
        <ele>1029</ele>
        <time>2021-08-04T09:01:28.871Z</time>
      </trkpt>
      <trkpt lat="46.9892" lon="8.79863">
        <ele>1029</ele>
        <time>2021-08-04T09:01:29.872Z</time>
      </trkpt>
      <trkpt lat="46.9892" lon="8.79862">
        <ele>1029</ele>
        <time>2021-08-04T09:01:30.872Z</time>
      </trkpt>
      <trkpt lat="46.9892" lon="8.79862">
        <ele>1030</ele>
        <time>2021-08-04T09:01:31.871Z</time>
      </trkpt>
      <trkpt lat="46.9892" lon="8.79862">
        <ele>1030</ele>
        <time>2021-08-04T09:01:32.871Z</time>
      </trkpt>
      <trkpt lat="46.98921" lon="8.79862">
        <ele>1030</ele>
        <time>2021-08-04T09:01:33.871Z</time>
      </trkpt>
      <trkpt lat="46.9892" lon="8.79861">
        <ele>1030</ele>
        <time>2021-08-04T09:01:34.871Z</time>
      </trkpt>
      <trkpt lat="46.98919" lon="8.7986">
        <ele>1030</ele>
        <time>2021-08-04T09:01:35.872Z</time>
      </trkpt>
      <trkpt lat="46.98919" lon="8.79859">
        <ele>1030</ele>
        <time>2021-08-04T09:01:36.872Z</time>
      </trkpt>
      <trkpt lat="46.98918" lon="8.79858">
        <ele>1030</ele>
        <time>2021-08-04T09:01:37.871Z</time>
      </trkpt>
      <trkpt lat="46.98918" lon="8.79856">
        <ele>1029</ele>
        <time>2021-08-04T09:01:38.871Z</time>
      </trkpt>
      <trkpt lat="46.98918" lon="8.79855">
        <ele>1029</ele>
        <time>2021-08-04T09:01:39.871Z</time>
      </trkpt>
      <trkpt lat="46.98917" lon="8.79854">
        <ele>1029</ele>
        <time>2021-08-04T09:01:40.871Z</time>
      </trkpt>
      <trkpt lat="46.98917" lon="8.79853">
        <ele>1028</ele>
        <time>2021-08-04T09:01:41.871Z</time>
      </trkpt>
      <trkpt lat="46.98917" lon="8.79852">
        <ele>1028</ele>
        <time>2021-08-04T09:01:42.871Z</time>
      </trkpt>
      <trkpt lat="46.98916" lon="8.79851">
        <ele>1028</ele>
        <time>2021-08-04T09:01:43.871Z</time>
      </trkpt>
      <trkpt lat="46.98916" lon="8.7985">
        <ele>1028</ele>
        <time>2021-08-04T09:01:44.871Z</time>
      </trkpt>
      <trkpt lat="46.98915" lon="8.79849">
        <ele>1028</ele>
        <time>2021-08-04T09:01:45.871Z</time>
      </trkpt>
      <trkpt lat="46.98914" lon="8.79848">
        <ele>1028</ele>
        <time>2021-08-04T09:01:46.871Z</time>
      </trkpt>
      <trkpt lat="46.98914" lon="8.79847">
        <ele>1028</ele>
        <time>2021-08-04T09:01:47.871Z</time>
      </trkpt>
      <trkpt lat="46.98913" lon="8.79846">
        <ele>1028</ele>
        <time>2021-08-04T09:01:48.871Z</time>
      </trkpt>
      <trkpt lat="46.98913" lon="8.79844">
        <ele>1028</ele>
        <time>2021-08-04T09:01:49.871Z</time>
      </trkpt>
      <trkpt lat="46.98912" lon="8.79843">
        <ele>1028</ele>
        <time>2021-08-04T09:01:50.871Z</time>
      </trkpt>
      <trkpt lat="46.98911" lon="8.79841">
        <ele>1028</ele>
        <time>2021-08-04T09:01:51.871Z</time>
      </trkpt>
      <trkpt lat="46.9891" lon="8.7984">
        <ele>1028</ele>
        <time>2021-08-04T09:01:52.871Z</time>
      </trkpt>
      <trkpt lat="46.9891" lon="8.79837">
        <ele>1028</ele>
        <time>2021-08-04T09:01:53.871Z</time>
      </trkpt>
      <trkpt lat="46.98909" lon="8.79835">
        <ele>1027</ele>
        <time>2021-08-04T09:01:54.871Z</time>
      </trkpt>
      <trkpt lat="46.98909" lon="8.79834">
        <ele>1027</ele>
        <time>2021-08-04T09:01:55.872Z</time>
      </trkpt>
      <trkpt lat="46.98908" lon="8.79832">
        <ele>1027</ele>
        <time>2021-08-04T09:01:56.872Z</time>
      </trkpt>
      <trkpt lat="46.98908" lon="8.7983">
        <ele>1027</ele>
        <time>2021-08-04T09:01:57.871Z</time>
      </trkpt>
      <trkpt lat="46.98908" lon="8.79828">
        <ele>1027</ele>
        <time>2021-08-04T09:01:58.871Z</time>
      </trkpt>
      <trkpt lat="46.98907" lon="8.79826">
        <ele>1027</ele>
        <time>2021-08-04T09:01:59.871Z</time>
      </trkpt>
      <trkpt lat="46.98906" lon="8.79825">
        <ele>1027</ele>
        <time>2021-08-04T09:02:00.872Z</time>
      </trkpt>
      <trkpt lat="46.98906" lon="8.79825">
        <ele>1027</ele>
        <time>2021-08-04T09:02:01.872Z</time>
      </trkpt>
      <trkpt lat="46.98905" lon="8.79824">
        <ele>1027</ele>
        <time>2021-08-04T09:02:02.871Z</time>
      </trkpt>
      <trkpt lat="46.98905" lon="8.79823">
        <ele>1027</ele>
        <time>2021-08-04T09:02:03.872Z</time>
      </trkpt>
      <trkpt lat="46.98905" lon="8.79822">
        <ele>1027</ele>
        <time>2021-08-04T09:02:04.872Z</time>
      </trkpt>
      <trkpt lat="46.98904" lon="8.79822">
        <ele>1027</ele>
        <time>2021-08-04T09:02:05.872Z</time>
      </trkpt>
      <trkpt lat="46.98904" lon="8.79821">
        <ele>1027</ele>
        <time>2021-08-04T09:02:06.872Z</time>
      </trkpt>
      <trkpt lat="46.98903" lon="8.7982">
        <ele>1027</ele>
        <time>2021-08-04T09:02:07.871Z</time>
      </trkpt>
      <trkpt lat="46.98903" lon="8.79818">
        <ele>1027</ele>
        <time>2021-08-04T09:02:08.872Z</time>
      </trkpt>
      <trkpt lat="46.98903" lon="8.79817">
        <ele>1027</ele>
        <time>2021-08-04T09:02:09.872Z</time>
      </trkpt>
      <trkpt lat="46.98903" lon="8.79817">
        <ele>1027</ele>
        <time>2021-08-04T09:02:10.872Z</time>
      </trkpt>
      <trkpt lat="46.98903" lon="8.79816">
        <ele>1026</ele>
        <time>2021-08-04T09:02:11.871Z</time>
      </trkpt>
      <trkpt lat="46.98903" lon="8.79816">
        <ele>1026</ele>
        <time>2021-08-04T09:02:12.872Z</time>
      </trkpt>
      <trkpt lat="46.98903" lon="8.79815">
        <ele>1026</ele>
        <time>2021-08-04T09:02:13.872Z</time>
      </trkpt>
      <trkpt lat="46.98904" lon="8.79815">
        <ele>1026</ele>
        <time>2021-08-04T09:02:14.871Z</time>
      </trkpt>
      <trkpt lat="46.98904" lon="8.79814">
        <ele>1025</ele>
        <time>2021-08-04T09:02:15.871Z</time>
      </trkpt>
      <trkpt lat="46.98904" lon="8.79813">
        <ele>1025</ele>
        <time>2021-08-04T09:02:16.872Z</time>
      </trkpt>
      <trkpt lat="46.98903" lon="8.79813">
        <ele>1025</ele>
        <time>2021-08-04T09:02:17.872Z</time>
      </trkpt>
      <trkpt lat="46.98904" lon="8.79812">
        <ele>1025</ele>
        <time>2021-08-04T09:02:18.872Z</time>
      </trkpt>
      <trkpt lat="46.98904" lon="8.79811">
        <ele>1024</ele>
        <time>2021-08-04T09:02:19.872Z</time>
      </trkpt>
      <trkpt lat="46.98905" lon="8.7981">
        <ele>1023</ele>
        <time>2021-08-04T09:02:20.873Z</time>
      </trkpt>
      <trkpt lat="46.98905" lon="8.7981">
        <ele>1023</ele>
        <time>2021-08-04T09:02:21.872Z</time>
      </trkpt>
      <trkpt lat="46.98905" lon="8.7981">
        <ele>1023</ele>
        <time>2021-08-04T09:02:22.873Z</time>
      </trkpt>
      <trkpt lat="46.98904" lon="8.7981">
        <ele>1023</ele>
        <time>2021-08-04T09:02:23.873Z</time>
      </trkpt>
      <trkpt lat="46.98903" lon="8.79808">
        <ele>1023</ele>
        <time>2021-08-04T09:02:24.872Z</time>
      </trkpt>
      <trkpt lat="46.98903" lon="8.79805">
        <ele>1023</ele>
        <time>2021-08-04T09:02:25.872Z</time>
      </trkpt>
      <trkpt lat="46.98902" lon="8.79803">
        <ele>1023</ele>
        <time>2021-08-04T09:02:26.872Z</time>
      </trkpt>
      <trkpt lat="46.98902" lon="8.79801">
        <ele>1023</ele>
        <time>2021-08-04T09:02:27.873Z</time>
      </trkpt>
      <trkpt lat="46.98901" lon="8.798">
        <ele>1022</ele>
        <time>2021-08-04T09:02:28.872Z</time>
      </trkpt>
      <trkpt lat="46.98901" lon="8.79799">
        <ele>1022</ele>
        <time>2021-08-04T09:02:29.872Z</time>
      </trkpt>
      <trkpt lat="46.98899" lon="8.79799">
        <ele>1022</ele>
        <time>2021-08-04T09:02:30.873Z</time>
      </trkpt>
      <trkpt lat="46.98899" lon="8.79797">
        <ele>1021</ele>
        <time>2021-08-04T09:02:31.872Z</time>
      </trkpt>
      <trkpt lat="46.98899" lon="8.79796">
        <ele>1020</ele>
        <time>2021-08-04T09:02:32.873Z</time>
      </trkpt>
      <trkpt lat="46.98899" lon="8.79795">
        <ele>1020</ele>
        <time>2021-08-04T09:02:33.873Z</time>
      </trkpt>
      <trkpt lat="46.98899" lon="8.79794">
        <ele>1019</ele>
        <time>2021-08-04T09:02:34.872Z</time>
      </trkpt>
      <trkpt lat="46.98898" lon="8.79792">
        <ele>1019</ele>
        <time>2021-08-04T09:02:35.873Z</time>
      </trkpt>
      <trkpt lat="46.98898" lon="8.79791">
        <ele>1019</ele>
        <time>2021-08-04T09:02:36.872Z</time>
      </trkpt>
      <trkpt lat="46.98897" lon="8.79791">
        <ele>1018</ele>
        <time>2021-08-04T09:02:37.873Z</time>
      </trkpt>
      <trkpt lat="46.98897" lon="8.7979">
        <ele>1018</ele>
        <time>2021-08-04T09:02:38.872Z</time>
      </trkpt>
      <trkpt lat="46.98897" lon="8.79789">
        <ele>1018</ele>
        <time>2021-08-04T09:02:39.872Z</time>
      </trkpt>
      <trkpt lat="46.98896" lon="8.79789">
        <ele>1018</ele>
        <time>2021-08-04T09:02:40.872Z</time>
      </trkpt>
      <trkpt lat="46.98896" lon="8.79788">
        <ele>1017</ele>
        <time>2021-08-04T09:02:41.873Z</time>
      </trkpt>
      <trkpt lat="46.98895" lon="8.79787">
        <ele>1017</ele>
        <time>2021-08-04T09:02:42.873Z</time>
      </trkpt>
      <trkpt lat="46.98894" lon="8.79787">
        <ele>1016</ele>
        <time>2021-08-04T09:02:43.873Z</time>
      </trkpt>
      <trkpt lat="46.98894" lon="8.79786">
        <ele>1016</ele>
        <time>2021-08-04T09:02:44.872Z</time>
      </trkpt>
      <trkpt lat="46.98893" lon="8.79785">
        <ele>1016</ele>
        <time>2021-08-04T09:02:45.872Z</time>
      </trkpt>
      <trkpt lat="46.98893" lon="8.79784">
        <ele>1016</ele>
        <time>2021-08-04T09:02:46.872Z</time>
      </trkpt>
      <trkpt lat="46.98893" lon="8.79783">
        <ele>1016</ele>
        <time>2021-08-04T09:02:47.872Z</time>
      </trkpt>
      <trkpt lat="46.98893" lon="8.79783">
        <ele>1017</ele>
        <time>2021-08-04T09:02:48.872Z</time>
      </trkpt>
      <trkpt lat="46.98892" lon="8.79783">
        <ele>1017</ele>
        <time>2021-08-04T09:02:49.873Z</time>
      </trkpt>
      <trkpt lat="46.98892" lon="8.79783">
        <ele>1017</ele>
        <time>2021-08-04T09:02:50.872Z</time>
      </trkpt>
      <trkpt lat="46.98891" lon="8.79781">
        <ele>1015</ele>
        <time>2021-08-04T09:02:51.873Z</time>
      </trkpt>
      <trkpt lat="46.98891" lon="8.7978">
        <ele>1014</ele>
        <time>2021-08-04T09:02:52.874Z</time>
      </trkpt>
      <trkpt lat="46.98891" lon="8.79779">
        <ele>1014</ele>
        <time>2021-08-04T09:02:53.874Z</time>
      </trkpt>
      <trkpt lat="46.98891" lon="8.79778">
        <ele>1014</ele>
        <time>2021-08-04T09:02:54.874Z</time>
      </trkpt>
      <trkpt lat="46.98891" lon="8.79777">
        <ele>1013</ele>
        <time>2021-08-04T09:02:55.874Z</time>
      </trkpt>
      <trkpt lat="46.9889" lon="8.79776">
        <ele>1013</ele>
        <time>2021-08-04T09:02:56.874Z</time>
      </trkpt>
      <trkpt lat="46.9889" lon="8.79774">
        <ele>1013</ele>
        <time>2021-08-04T09:02:57.874Z</time>
      </trkpt>
      <trkpt lat="46.98889" lon="8.79771">
        <ele>1012</ele>
        <time>2021-08-04T09:02:58.874Z</time>
      </trkpt>
      <trkpt lat="46.98888" lon="8.7977">
        <ele>1012</ele>
        <time>2021-08-04T09:02:59.874Z</time>
      </trkpt>
      <trkpt lat="46.98887" lon="8.79767">
        <ele>1012</ele>
        <time>2021-08-04T09:03:00.874Z</time>
      </trkpt>
      <trkpt lat="46.98886" lon="8.79765">
        <ele>1011</ele>
        <time>2021-08-04T09:03:01.874Z</time>
      </trkpt>
      <trkpt lat="46.98885" lon="8.79763">
        <ele>1011</ele>
        <time>2021-08-04T09:03:02.874Z</time>
      </trkpt>
      <trkpt lat="46.98884" lon="8.79762">
        <ele>1011</ele>
        <time>2021-08-04T09:03:03.874Z</time>
      </trkpt>
      <trkpt lat="46.98883" lon="8.79761">
        <ele>1011</ele>
        <time>2021-08-04T09:03:04.874Z</time>
      </trkpt>
      <trkpt lat="46.98882" lon="8.79759">
        <ele>1011</ele>
        <time>2021-08-04T09:03:05.874Z</time>
      </trkpt>
      <trkpt lat="46.98881" lon="8.79758">
        <ele>1010</ele>
        <time>2021-08-04T09:03:06.873Z</time>
      </trkpt>
      <trkpt lat="46.9888" lon="8.79757">
        <ele>1010</ele>
        <time>2021-08-04T09:03:07.874Z</time>
      </trkpt>
      <trkpt lat="46.98879" lon="8.79756">
        <ele>1010</ele>
        <time>2021-08-04T09:03:08.873Z</time>
      </trkpt>
      <trkpt lat="46.98878" lon="8.79755">
        <ele>1010</ele>
        <time>2021-08-04T09:03:09.874Z</time>
      </trkpt>
      <trkpt lat="46.98878" lon="8.79754">
        <ele>1010</ele>
        <time>2021-08-04T09:03:10.874Z</time>
      </trkpt>
      <trkpt lat="46.98877" lon="8.79753">
        <ele>1010</ele>
        <time>2021-08-04T09:03:11.874Z</time>
      </trkpt>
      <trkpt lat="46.98875" lon="8.79752">
        <ele>1010</ele>
        <time>2021-08-04T09:03:12.873Z</time>
      </trkpt>
      <trkpt lat="46.98875" lon="8.79751">
        <ele>1010</ele>
        <time>2021-08-04T09:03:13.874Z</time>
      </trkpt>
      <trkpt lat="46.98875" lon="8.7975">
        <ele>1011</ele>
        <time>2021-08-04T09:03:14.874Z</time>
      </trkpt>
      <trkpt lat="46.98875" lon="8.7975">
        <ele>1011</ele>
        <time>2021-08-04T09:03:15.873Z</time>
      </trkpt>
      <trkpt lat="46.98875" lon="8.79749">
        <ele>1011</ele>
        <time>2021-08-04T09:03:16.874Z</time>
      </trkpt>
      <trkpt lat="46.98874" lon="8.79749">
        <ele>1011</ele>
        <time>2021-08-04T09:03:17.874Z</time>
      </trkpt>
      <trkpt lat="46.98874" lon="8.79749">
        <ele>1011</ele>
        <time>2021-08-04T09:03:18.873Z</time>
      </trkpt>
      <trkpt lat="46.98873" lon="8.79748">
        <ele>1011</ele>
        <time>2021-08-04T09:03:19.873Z</time>
      </trkpt>
      <trkpt lat="46.98873" lon="8.79747">
        <ele>1011</ele>
        <time>2021-08-04T09:03:20.874Z</time>
      </trkpt>
      <trkpt lat="46.98872" lon="8.79745">
        <ele>1011</ele>
        <time>2021-08-04T09:03:21.873Z</time>
      </trkpt>
      <trkpt lat="46.98872" lon="8.79743">
        <ele>1011</ele>
        <time>2021-08-04T09:03:22.874Z</time>
      </trkpt>
      <trkpt lat="46.98872" lon="8.79742">
        <ele>1010</ele>
        <time>2021-08-04T09:03:23.873Z</time>
      </trkpt>
      <trkpt lat="46.98872" lon="8.79741">
        <ele>1010</ele>
        <time>2021-08-04T09:03:24.874Z</time>
      </trkpt>
      <trkpt lat="46.98872" lon="8.7974">
        <ele>1010</ele>
        <time>2021-08-04T09:03:25.874Z</time>
      </trkpt>
      <trkpt lat="46.98871" lon="8.7974">
        <ele>1010</ele>
        <time>2021-08-04T09:03:26.873Z</time>
      </trkpt>
      <trkpt lat="46.98871" lon="8.79739">
        <ele>1010</ele>
        <time>2021-08-04T09:03:27.874Z</time>
      </trkpt>
      <trkpt lat="46.98871" lon="8.79738">
        <ele>1009</ele>
        <time>2021-08-04T09:03:28.874Z</time>
      </trkpt>
      <trkpt lat="46.9887" lon="8.79737">
        <ele>1009</ele>
        <time>2021-08-04T09:03:29.874Z</time>
      </trkpt>
      <trkpt lat="46.98869" lon="8.79737">
        <ele>1009</ele>
        <time>2021-08-04T09:03:30.873Z</time>
      </trkpt>
      <trkpt lat="46.98868" lon="8.79737">
        <ele>1009</ele>
        <time>2021-08-04T09:03:31.874Z</time>
      </trkpt>
      <trkpt lat="46.98867" lon="8.79736">
        <ele>1009</ele>
        <time>2021-08-04T09:03:32.874Z</time>
      </trkpt>
      <trkpt lat="46.98867" lon="8.79735">
        <ele>1009</ele>
        <time>2021-08-04T09:03:33.874Z</time>
      </trkpt>
      <trkpt lat="46.98866" lon="8.79734">
        <ele>1009</ele>
        <time>2021-08-04T09:03:34.874Z</time>
      </trkpt>
      <trkpt lat="46.98865" lon="8.79734">
        <ele>1009</ele>
        <time>2021-08-04T09:03:35.874Z</time>
      </trkpt>
      <trkpt lat="46.98864" lon="8.79734">
        <ele>1009</ele>
        <time>2021-08-04T09:03:36.874Z</time>
      </trkpt>
      <trkpt lat="46.98863" lon="8.79734">
        <ele>1009</ele>
        <time>2021-08-04T09:03:37.874Z</time>
      </trkpt>
      <trkpt lat="46.98862" lon="8.79733">
        <ele>1009</ele>
        <time>2021-08-04T09:03:38.874Z</time>
      </trkpt>
      <trkpt lat="46.98861" lon="8.79732">
        <ele>1008</ele>
        <time>2021-08-04T09:03:39.873Z</time>
      </trkpt>
      <trkpt lat="46.98861" lon="8.79732">
        <ele>1008</ele>
        <time>2021-08-04T09:03:40.874Z</time>
      </trkpt>
      <trkpt lat="46.98861" lon="8.79731">
        <ele>1008</ele>
        <time>2021-08-04T09:03:41.874Z</time>
      </trkpt>
      <trkpt lat="46.9886" lon="8.7973">
        <ele>1007</ele>
        <time>2021-08-04T09:03:42.874Z</time>
      </trkpt>
      <trkpt lat="46.9886" lon="8.79728">
        <ele>1007</ele>
        <time>2021-08-04T09:03:43.873Z</time>
      </trkpt>
      <trkpt lat="46.98859" lon="8.79726">
        <ele>1007</ele>
        <time>2021-08-04T09:03:44.874Z</time>
      </trkpt>
      <trkpt lat="46.98859" lon="8.79724">
        <ele>1007</ele>
        <time>2021-08-04T09:03:45.874Z</time>
      </trkpt>
      <trkpt lat="46.98859" lon="8.79722">
        <ele>1007</ele>
        <time>2021-08-04T09:03:46.873Z</time>
      </trkpt>
      <trkpt lat="46.98859" lon="8.79722">
        <ele>1007</ele>
        <time>2021-08-04T09:03:47.874Z</time>
      </trkpt>
      <trkpt lat="46.98859" lon="8.7972">
        <ele>1007</ele>
        <time>2021-08-04T09:03:48.873Z</time>
      </trkpt>
      <trkpt lat="46.98858" lon="8.79719">
        <ele>1006</ele>
        <time>2021-08-04T09:03:49.873Z</time>
      </trkpt>
      <trkpt lat="46.98858" lon="8.79717">
        <ele>1006</ele>
        <time>2021-08-04T09:03:50.874Z</time>
      </trkpt>
      <trkpt lat="46.98857" lon="8.79715">
        <ele>1005</ele>
        <time>2021-08-04T09:03:51.873Z</time>
      </trkpt>
      <trkpt lat="46.98857" lon="8.79713">
        <ele>1005</ele>
        <time>2021-08-04T09:03:52.874Z</time>
      </trkpt>
      <trkpt lat="46.98857" lon="8.79712">
        <ele>1005</ele>
        <time>2021-08-04T09:03:53.873Z</time>
      </trkpt>
      <trkpt lat="46.98857" lon="8.7971">
        <ele>1004</ele>
        <time>2021-08-04T09:03:54.873Z</time>
      </trkpt>
      <trkpt lat="46.98857" lon="8.79709">
        <ele>1004</ele>
        <time>2021-08-04T09:03:55.873Z</time>
      </trkpt>
      <trkpt lat="46.98857" lon="8.79709">
        <ele>1003</ele>
        <time>2021-08-04T09:03:56.874Z</time>
      </trkpt>
      <trkpt lat="46.98856" lon="8.79709">
        <ele>1003</ele>
        <time>2021-08-04T09:03:57.873Z</time>
      </trkpt>
      <trkpt lat="46.98857" lon="8.79709">
        <ele>1003</ele>
        <time>2021-08-04T09:03:58.874Z</time>
      </trkpt>
      <trkpt lat="46.98857" lon="8.7971">
        <ele>1002</ele>
        <time>2021-08-04T09:03:59.874Z</time>
      </trkpt>
      <trkpt lat="46.98857" lon="8.79708">
        <ele>1002</ele>
        <time>2021-08-04T09:04:00.873Z</time>
      </trkpt>
      <trkpt lat="46.98857" lon="8.79707">
        <ele>1002</ele>
        <time>2021-08-04T09:04:01.874Z</time>
      </trkpt>
      <trkpt lat="46.98856" lon="8.79704">
        <ele>1003</ele>
        <time>2021-08-04T09:04:02.874Z</time>
      </trkpt>
      <trkpt lat="46.98856" lon="8.79703">
        <ele>1002</ele>
        <time>2021-08-04T09:04:03.874Z</time>
      </trkpt>
      <trkpt lat="46.98855" lon="8.79702">
        <ele>1002</ele>
        <time>2021-08-04T09:04:04.874Z</time>
      </trkpt>
      <trkpt lat="46.98855" lon="8.79701">
        <ele>1002</ele>
        <time>2021-08-04T09:04:05.874Z</time>
      </trkpt>
      <trkpt lat="46.98855" lon="8.79701">
        <ele>1003</ele>
        <time>2021-08-04T09:04:06.874Z</time>
      </trkpt>
      <trkpt lat="46.98855" lon="8.797">
        <ele>1003</ele>
        <time>2021-08-04T09:04:07.873Z</time>
      </trkpt>
      <trkpt lat="46.98854" lon="8.797">
        <ele>1003</ele>
        <time>2021-08-04T09:04:08.874Z</time>
      </trkpt>
      <trkpt lat="46.98854" lon="8.797">
        <ele>1003</ele>
        <time>2021-08-04T09:04:09.874Z</time>
      </trkpt>
      <trkpt lat="46.98853" lon="8.79699">
        <ele>1003</ele>
        <time>2021-08-04T09:04:10.874Z</time>
      </trkpt>
      <trkpt lat="46.98853" lon="8.79698">
        <ele>1003</ele>
        <time>2021-08-04T09:04:11.874Z</time>
      </trkpt>
      <trkpt lat="46.98852" lon="8.79697">
        <ele>1003</ele>
        <time>2021-08-04T09:04:12.874Z</time>
      </trkpt>
      <trkpt lat="46.9885" lon="8.79697">
        <ele>1003</ele>
        <time>2021-08-04T09:04:13.874Z</time>
      </trkpt>
      <trkpt lat="46.9885" lon="8.79697">
        <ele>1003</ele>
        <time>2021-08-04T09:04:14.874Z</time>
      </trkpt>
      <trkpt lat="46.9885" lon="8.79697">
        <ele>1004</ele>
        <time>2021-08-04T09:04:15.873Z</time>
      </trkpt>
      <trkpt lat="46.9885" lon="8.79696">
        <ele>1004</ele>
        <time>2021-08-04T09:04:16.873Z</time>
      </trkpt>
      <trkpt lat="46.98851" lon="8.79696">
        <ele>1004</ele>
        <time>2021-08-04T09:04:17.874Z</time>
      </trkpt>
      <trkpt lat="46.98851" lon="8.79696">
        <ele>1004</ele>
        <time>2021-08-04T09:04:18.873Z</time>
      </trkpt>
      <trkpt lat="46.98851" lon="8.79695">
        <ele>1004</ele>
        <time>2021-08-04T09:04:19.873Z</time>
      </trkpt>
      <trkpt lat="46.98851" lon="8.79694">
        <ele>1004</ele>
        <time>2021-08-04T09:04:20.874Z</time>
      </trkpt>
      <trkpt lat="46.98851" lon="8.79694">
        <ele>1004</ele>
        <time>2021-08-04T09:04:21.873Z</time>
      </trkpt>
      <trkpt lat="46.9885" lon="8.79693">
        <ele>1005</ele>
        <time>2021-08-04T09:04:22.874Z</time>
      </trkpt>
      <trkpt lat="46.98849" lon="8.79691">
        <ele>1005</ele>
        <time>2021-08-04T09:04:23.873Z</time>
      </trkpt>
      <trkpt lat="46.98848" lon="8.7969">
        <ele>1005</ele>
        <time>2021-08-04T09:04:24.873Z</time>
      </trkpt>
      <trkpt lat="46.98848" lon="8.79689">
        <ele>1005</ele>
        <time>2021-08-04T09:04:25.873Z</time>
      </trkpt>
      <trkpt lat="46.98848" lon="8.79687">
        <ele>1005</ele>
        <time>2021-08-04T09:04:26.873Z</time>
      </trkpt>
      <trkpt lat="46.98848" lon="8.79686">
        <ele>1006</ele>
        <time>2021-08-04T09:04:27.873Z</time>
      </trkpt>
      <trkpt lat="46.98848" lon="8.79685">
        <ele>1006</ele>
        <time>2021-08-04T09:04:28.873Z</time>
      </trkpt>
      <trkpt lat="46.98848" lon="8.79684">
        <ele>1007</ele>
        <time>2021-08-04T09:04:29.873Z</time>
      </trkpt>
      <trkpt lat="46.98847" lon="8.79684">
        <ele>1007</ele>
        <time>2021-08-04T09:04:30.873Z</time>
      </trkpt>
      <trkpt lat="46.98848" lon="8.79684">
        <ele>1007</ele>
        <time>2021-08-04T09:04:31.873Z</time>
      </trkpt>
      <trkpt lat="46.98848" lon="8.79683">
        <ele>1007</ele>
        <time>2021-08-04T09:04:32.873Z</time>
      </trkpt>
      <trkpt lat="46.98848" lon="8.79682">
        <ele>1007</ele>
        <time>2021-08-04T09:04:33.874Z</time>
      </trkpt>
      <trkpt lat="46.98848" lon="8.79681">
        <ele>1007</ele>
        <time>2021-08-04T09:04:34.873Z</time>
      </trkpt>
      <trkpt lat="46.98849" lon="8.79679">
        <ele>1007</ele>
        <time>2021-08-04T09:04:35.874Z</time>
      </trkpt>
      <trkpt lat="46.98849" lon="8.79676">
        <ele>1006</ele>
        <time>2021-08-04T09:04:36.873Z</time>
      </trkpt>
      <trkpt lat="46.98849" lon="8.79674">
        <ele>1006</ele>
        <time>2021-08-04T09:04:37.874Z</time>
      </trkpt>
      <trkpt lat="46.98849" lon="8.79672">
        <ele>1006</ele>
        <time>2021-08-04T09:04:38.874Z</time>
      </trkpt>
      <trkpt lat="46.98848" lon="8.7967">
        <ele>1006</ele>
        <time>2021-08-04T09:04:39.874Z</time>
      </trkpt>
      <trkpt lat="46.98847" lon="8.79668">
        <ele>1006</ele>
        <time>2021-08-04T09:04:40.874Z</time>
      </trkpt>
      <trkpt lat="46.98846" lon="8.79667">
        <ele>1005</ele>
        <time>2021-08-04T09:04:41.873Z</time>
      </trkpt>
      <trkpt lat="46.98846" lon="8.79666">
        <ele>1005</ele>
        <time>2021-08-04T09:04:42.874Z</time>
      </trkpt>
      <trkpt lat="46.98845" lon="8.79666">
        <ele>1005</ele>
        <time>2021-08-04T09:04:43.874Z</time>
      </trkpt>
      <trkpt lat="46.98845" lon="8.79665">
        <ele>1005</ele>
        <time>2021-08-04T09:04:44.873Z</time>
      </trkpt>
      <trkpt lat="46.9884" lon="8.79659">
        <ele>998</ele>
        <time>2021-08-04T09:04:45.874Z</time>
      </trkpt>
      <trkpt lat="46.9884" lon="8.79657">
        <ele>997</ele>
        <time>2021-08-04T09:04:46.875Z</time>
      </trkpt>
      <trkpt lat="46.98841" lon="8.79654">
        <ele>997</ele>
        <time>2021-08-04T09:04:47.874Z</time>
      </trkpt>
      <trkpt lat="46.9884" lon="8.79653">
        <ele>996</ele>
        <time>2021-08-04T09:04:48.875Z</time>
      </trkpt>
      <trkpt lat="46.98837" lon="8.79652">
        <ele>993</ele>
        <time>2021-08-04T09:04:49.875Z</time>
      </trkpt>
      <trkpt lat="46.98837" lon="8.79652">
        <ele>993</ele>
        <time>2021-08-04T09:04:50.875Z</time>
      </trkpt>
      <trkpt lat="46.98837" lon="8.79652">
        <ele>992</ele>
        <time>2021-08-04T09:04:51.874Z</time>
      </trkpt>
      <trkpt lat="46.98837" lon="8.79651">
        <ele>992</ele>
        <time>2021-08-04T09:04:52.875Z</time>
      </trkpt>
      <trkpt lat="46.98837" lon="8.79651">
        <ele>992</ele>
        <time>2021-08-04T09:04:53.875Z</time>
      </trkpt>
      <trkpt lat="46.98837" lon="8.79651">
        <ele>992</ele>
        <time>2021-08-04T09:04:54.875Z</time>
      </trkpt>
      <trkpt lat="46.98837" lon="8.7965">
        <ele>991</ele>
        <time>2021-08-04T09:04:55.877Z</time>
      </trkpt>
      <trkpt lat="46.98838" lon="8.7965">
        <ele>991</ele>
        <time>2021-08-04T09:04:56.877Z</time>
      </trkpt>
      <trkpt lat="46.98838" lon="8.7965">
        <ele>991</ele>
        <time>2021-08-04T09:04:57.876Z</time>
      </trkpt>
      <trkpt lat="46.98837" lon="8.79648">
        <ele>991</ele>
        <time>2021-08-04T09:04:58.877Z</time>
      </trkpt>
      <trkpt lat="46.98836" lon="8.79647">
        <ele>991</ele>
        <time>2021-08-04T09:04:59.877Z</time>
      </trkpt>
      <trkpt lat="46.98836" lon="8.79647">
        <ele>990</ele>
        <time>2021-08-04T09:05:00.876Z</time>
      </trkpt>
      <trkpt lat="46.98835" lon="8.79646">
        <ele>990</ele>
        <time>2021-08-04T09:05:01.876Z</time>
      </trkpt>
      <trkpt lat="46.98835" lon="8.79646">
        <ele>989</ele>
        <time>2021-08-04T09:05:02.877Z</time>
      </trkpt>
      <trkpt lat="46.98836" lon="8.79645">
        <ele>989</ele>
        <time>2021-08-04T09:05:03.877Z</time>
      </trkpt>
      <trkpt lat="46.98836" lon="8.79645">
        <ele>989</ele>
        <time>2021-08-04T09:05:04.876Z</time>
      </trkpt>
      <trkpt lat="46.98836" lon="8.79644">
        <ele>988</ele>
        <time>2021-08-04T09:05:05.876Z</time>
      </trkpt>
      <trkpt lat="46.98835" lon="8.79644">
        <ele>988</ele>
        <time>2021-08-04T09:05:06.877Z</time>
      </trkpt>
      <trkpt lat="46.98835" lon="8.79645">
        <ele>988</ele>
        <time>2021-08-04T09:05:07.877Z</time>
      </trkpt>
      <trkpt lat="46.98835" lon="8.79645">
        <ele>987</ele>
        <time>2021-08-04T09:05:08.877Z</time>
      </trkpt>
      <trkpt lat="46.98835" lon="8.79643">
        <ele>987</ele>
        <time>2021-08-04T09:05:09.878Z</time>
      </trkpt>
      <trkpt lat="46.98835" lon="8.79643">
        <ele>986</ele>
        <time>2021-08-04T09:05:10.878Z</time>
      </trkpt>
      <trkpt lat="46.98835" lon="8.79642">
        <ele>986</ele>
        <time>2021-08-04T09:05:11.877Z</time>
      </trkpt>
      <trkpt lat="46.98835" lon="8.79641">
        <ele>986</ele>
        <time>2021-08-04T09:05:12.877Z</time>
      </trkpt>
      <trkpt lat="46.98834" lon="8.7964">
        <ele>986</ele>
        <time>2021-08-04T09:05:13.878Z</time>
      </trkpt>
      <trkpt lat="46.98834" lon="8.79638">
        <ele>986</ele>
        <time>2021-08-04T09:05:14.878Z</time>
      </trkpt>
      <trkpt lat="46.98834" lon="8.79637">
        <ele>986</ele>
        <time>2021-08-04T09:05:15.878Z</time>
      </trkpt>
      <trkpt lat="46.98833" lon="8.79637">
        <ele>986</ele>
        <time>2021-08-04T09:05:16.878Z</time>
      </trkpt>
      <trkpt lat="46.98833" lon="8.79636">
        <ele>986</ele>
        <time>2021-08-04T09:05:17.877Z</time>
      </trkpt>
      <trkpt lat="46.98833" lon="8.79636">
        <ele>986</ele>
        <time>2021-08-04T09:05:18.878Z</time>
      </trkpt>
      <trkpt lat="46.98832" lon="8.79635">
        <ele>986</ele>
        <time>2021-08-04T09:05:19.878Z</time>
      </trkpt>
      <trkpt lat="46.98832" lon="8.79634">
        <ele>986</ele>
        <time>2021-08-04T09:05:20.877Z</time>
      </trkpt>
      <trkpt lat="46.98831" lon="8.79633">
        <ele>986</ele>
        <time>2021-08-04T09:05:21.877Z</time>
      </trkpt>
      <trkpt lat="46.98829" lon="8.79631">
        <ele>986</ele>
        <time>2021-08-04T09:05:22.877Z</time>
      </trkpt>
      <trkpt lat="46.98828" lon="8.7963">
        <ele>986</ele>
        <time>2021-08-04T09:05:23.877Z</time>
      </trkpt>
      <trkpt lat="46.98828" lon="8.79629">
        <ele>986</ele>
        <time>2021-08-04T09:05:24.877Z</time>
      </trkpt>
      <trkpt lat="46.98828" lon="8.79628">
        <ele>986</ele>
        <time>2021-08-04T09:05:25.877Z</time>
      </trkpt>
      <trkpt lat="46.98828" lon="8.79627">
        <ele>986</ele>
        <time>2021-08-04T09:05:26.877Z</time>
      </trkpt>
      <trkpt lat="46.98827" lon="8.79628">
        <ele>986</ele>
        <time>2021-08-04T09:05:27.877Z</time>
      </trkpt>
      <trkpt lat="46.98827" lon="8.79627">
        <ele>987</ele>
        <time>2021-08-04T09:05:28.877Z</time>
      </trkpt>
      <trkpt lat="46.98827" lon="8.79627">
        <ele>987</ele>
        <time>2021-08-04T09:05:29.877Z</time>
      </trkpt>
      <trkpt lat="46.98826" lon="8.79626">
        <ele>988</ele>
        <time>2021-08-04T09:05:30.877Z</time>
      </trkpt>
      <trkpt lat="46.98826" lon="8.79625">
        <ele>989</ele>
        <time>2021-08-04T09:05:31.878Z</time>
      </trkpt>
      <trkpt lat="46.98826" lon="8.79624">
        <ele>989</ele>
        <time>2021-08-04T09:05:32.878Z</time>
      </trkpt>
      <trkpt lat="46.98825" lon="8.79624">
        <ele>989</ele>
        <time>2021-08-04T09:05:33.877Z</time>
      </trkpt>
      <trkpt lat="46.98824" lon="8.79623">
        <ele>990</ele>
        <time>2021-08-04T09:05:34.877Z</time>
      </trkpt>
      <trkpt lat="46.98823" lon="8.79622">
        <ele>990</ele>
        <time>2021-08-04T09:05:35.877Z</time>
      </trkpt>
      <trkpt lat="46.98822" lon="8.79621">
        <ele>990</ele>
        <time>2021-08-04T09:05:36.877Z</time>
      </trkpt>
      <trkpt lat="46.98821" lon="8.7962">
        <ele>990</ele>
        <time>2021-08-04T09:05:37.878Z</time>
      </trkpt>
      <trkpt lat="46.9882" lon="8.79619">
        <ele>990</ele>
        <time>2021-08-04T09:05:38.877Z</time>
      </trkpt>
      <trkpt lat="46.98819" lon="8.79619">
        <ele>991</ele>
        <time>2021-08-04T09:05:39.877Z</time>
      </trkpt>
      <trkpt lat="46.98819" lon="8.79617">
        <ele>991</ele>
        <time>2021-08-04T09:05:40.877Z</time>
      </trkpt>
      <trkpt lat="46.98818" lon="8.79615">
        <ele>991</ele>
        <time>2021-08-04T09:05:41.877Z</time>
      </trkpt>
      <trkpt lat="46.98818" lon="8.79614">
        <ele>991</ele>
        <time>2021-08-04T09:05:42.877Z</time>
      </trkpt>
      <trkpt lat="46.98818" lon="8.79613">
        <ele>991</ele>
        <time>2021-08-04T09:05:43.878Z</time>
      </trkpt>
      <trkpt lat="46.98818" lon="8.79611">
        <ele>991</ele>
        <time>2021-08-04T09:05:44.878Z</time>
      </trkpt>
      <trkpt lat="46.98818" lon="8.79609">
        <ele>990</ele>
        <time>2021-08-04T09:05:45.877Z</time>
      </trkpt>
      <trkpt lat="46.98818" lon="8.79607">
        <ele>990</ele>
        <time>2021-08-04T09:05:46.878Z</time>
      </trkpt>
      <trkpt lat="46.98817" lon="8.79606">
        <ele>990</ele>
        <time>2021-08-04T09:05:47.878Z</time>
      </trkpt>
      <trkpt lat="46.98817" lon="8.79605">
        <ele>990</ele>
        <time>2021-08-04T09:05:48.877Z</time>
      </trkpt>
      <trkpt lat="46.98817" lon="8.79604">
        <ele>990</ele>
        <time>2021-08-04T09:05:49.877Z</time>
      </trkpt>
      <trkpt lat="46.98816" lon="8.79603">
        <ele>990</ele>
        <time>2021-08-04T09:05:50.877Z</time>
      </trkpt>
      <trkpt lat="46.98816" lon="8.79601">
        <ele>990</ele>
        <time>2021-08-04T09:05:51.878Z</time>
      </trkpt>
      <trkpt lat="46.98815" lon="8.79599">
        <ele>990</ele>
        <time>2021-08-04T09:05:52.878Z</time>
      </trkpt>
      <trkpt lat="46.98815" lon="8.79597">
        <ele>989</ele>
        <time>2021-08-04T09:05:53.877Z</time>
      </trkpt>
      <trkpt lat="46.98815" lon="8.79595">
        <ele>989</ele>
        <time>2021-08-04T09:05:54.878Z</time>
      </trkpt>
      <trkpt lat="46.98815" lon="8.79594">
        <ele>989</ele>
        <time>2021-08-04T09:05:55.878Z</time>
      </trkpt>
      <trkpt lat="46.98815" lon="8.79592">
        <ele>989</ele>
        <time>2021-08-04T09:05:56.878Z</time>
      </trkpt>
      <trkpt lat="46.98815" lon="8.7959">
        <ele>989</ele>
        <time>2021-08-04T09:05:57.878Z</time>
      </trkpt>
      <trkpt lat="46.98814" lon="8.79587">
        <ele>989</ele>
        <time>2021-08-04T09:05:58.877Z</time>
      </trkpt>
      <trkpt lat="46.98813" lon="8.79583">
        <ele>989</ele>
        <time>2021-08-04T09:05:59.877Z</time>
      </trkpt>
      <trkpt lat="46.98813" lon="8.79581">
        <ele>989</ele>
        <time>2021-08-04T09:06:00.878Z</time>
      </trkpt>
      <trkpt lat="46.98814" lon="8.79579">
        <ele>989</ele>
        <time>2021-08-04T09:06:01.877Z</time>
      </trkpt>
      <trkpt lat="46.98814" lon="8.79578">
        <ele>989</ele>
        <time>2021-08-04T09:06:02.877Z</time>
      </trkpt>
      <trkpt lat="46.98815" lon="8.79576">
        <ele>989</ele>
        <time>2021-08-04T09:06:03.878Z</time>
      </trkpt>
      <trkpt lat="46.98816" lon="8.79575">
        <ele>989</ele>
        <time>2021-08-04T09:06:04.878Z</time>
      </trkpt>
      <trkpt lat="46.98816" lon="8.79573">
        <ele>989</ele>
        <time>2021-08-04T09:06:05.878Z</time>
      </trkpt>
      <trkpt lat="46.98816" lon="8.79572">
        <ele>990</ele>
        <time>2021-08-04T09:06:06.878Z</time>
      </trkpt>
      <trkpt lat="46.98816" lon="8.79571">
        <ele>990</ele>
        <time>2021-08-04T09:06:07.878Z</time>
      </trkpt>
      <trkpt lat="46.98816" lon="8.7957">
        <ele>990</ele>
        <time>2021-08-04T09:06:08.878Z</time>
      </trkpt>
      <trkpt lat="46.98816" lon="8.79569">
        <ele>991</ele>
        <time>2021-08-04T09:06:09.877Z</time>
      </trkpt>
      <trkpt lat="46.98816" lon="8.79568">
        <ele>991</ele>
        <time>2021-08-04T09:06:10.878Z</time>
      </trkpt>
      <trkpt lat="46.98816" lon="8.79566">
        <ele>991</ele>
        <time>2021-08-04T09:06:11.878Z</time>
      </trkpt>
      <trkpt lat="46.98816" lon="8.79565">
        <ele>991</ele>
        <time>2021-08-04T09:06:12.878Z</time>
      </trkpt>
      <trkpt lat="46.98816" lon="8.79563">
        <ele>991</ele>
        <time>2021-08-04T09:06:13.877Z</time>
      </trkpt>
      <trkpt lat="46.98816" lon="8.79562">
        <ele>991</ele>
        <time>2021-08-04T09:06:14.878Z</time>
      </trkpt>
      <trkpt lat="46.98816" lon="8.7956">
        <ele>991</ele>
        <time>2021-08-04T09:06:15.877Z</time>
      </trkpt>
      <trkpt lat="46.98816" lon="8.79559">
        <ele>991</ele>
        <time>2021-08-04T09:06:16.877Z</time>
      </trkpt>
      <trkpt lat="46.98817" lon="8.79557">
        <ele>991</ele>
        <time>2021-08-04T09:06:17.878Z</time>
      </trkpt>
      <trkpt lat="46.98816" lon="8.79555">
        <ele>990</ele>
        <time>2021-08-04T09:06:18.878Z</time>
      </trkpt>
      <trkpt lat="46.98815" lon="8.79553">
        <ele>990</ele>
        <time>2021-08-04T09:06:19.878Z</time>
      </trkpt>
      <trkpt lat="46.98815" lon="8.7955">
        <ele>990</ele>
        <time>2021-08-04T09:06:20.878Z</time>
      </trkpt>
      <trkpt lat="46.98814" lon="8.79548">
        <ele>990</ele>
        <time>2021-08-04T09:06:21.878Z</time>
      </trkpt>
      <trkpt lat="46.98813" lon="8.79546">
        <ele>990</ele>
        <time>2021-08-04T09:06:22.878Z</time>
      </trkpt>
      <trkpt lat="46.98813" lon="8.79545">
        <ele>990</ele>
        <time>2021-08-04T09:06:23.878Z</time>
      </trkpt>
      <trkpt lat="46.98813" lon="8.79543">
        <ele>990</ele>
        <time>2021-08-04T09:06:24.877Z</time>
      </trkpt>
      <trkpt lat="46.98813" lon="8.79541">
        <ele>990</ele>
        <time>2021-08-04T09:06:25.878Z</time>
      </trkpt>
      <trkpt lat="46.98814" lon="8.7954">
        <ele>990</ele>
        <time>2021-08-04T09:06:26.878Z</time>
      </trkpt>
      <trkpt lat="46.98814" lon="8.79538">
        <ele>989</ele>
        <time>2021-08-04T09:06:27.877Z</time>
      </trkpt>
      <trkpt lat="46.98814" lon="8.79536">
        <ele>988</ele>
        <time>2021-08-04T09:06:28.878Z</time>
      </trkpt>
      <trkpt lat="46.98814" lon="8.79534">
        <ele>987</ele>
        <time>2021-08-04T09:06:29.878Z</time>
      </trkpt>
      <trkpt lat="46.98815" lon="8.79532">
        <ele>986</ele>
        <time>2021-08-04T09:06:30.878Z</time>
      </trkpt>
      <trkpt lat="46.98815" lon="8.7953">
        <ele>985</ele>
        <time>2021-08-04T09:06:31.878Z</time>
      </trkpt>
      <trkpt lat="46.98815" lon="8.79529">
        <ele>984</ele>
        <time>2021-08-04T09:06:32.878Z</time>
      </trkpt>
      <trkpt lat="46.98815" lon="8.79526">
        <ele>982</ele>
        <time>2021-08-04T09:06:33.877Z</time>
      </trkpt>
      <trkpt lat="46.98814" lon="8.79524">
        <ele>981</ele>
        <time>2021-08-04T09:06:34.877Z</time>
      </trkpt>
      <trkpt lat="46.98813" lon="8.79522">
        <ele>980</ele>
        <time>2021-08-04T09:06:35.878Z</time>
      </trkpt>
      <trkpt lat="46.98812" lon="8.79519">
        <ele>980</ele>
        <time>2021-08-04T09:06:36.877Z</time>
      </trkpt>
      <trkpt lat="46.98812" lon="8.79517">
        <ele>979</ele>
        <time>2021-08-04T09:06:37.877Z</time>
      </trkpt>
      <trkpt lat="46.98812" lon="8.79514">
        <ele>978</ele>
        <time>2021-08-04T09:06:38.877Z</time>
      </trkpt>
      <trkpt lat="46.98812" lon="8.79511">
        <ele>978</ele>
        <time>2021-08-04T09:06:39.878Z</time>
      </trkpt>
      <trkpt lat="46.98812" lon="8.79509">
        <ele>977</ele>
        <time>2021-08-04T09:06:40.878Z</time>
      </trkpt>
      <trkpt lat="46.98811" lon="8.79506">
        <ele>977</ele>
        <time>2021-08-04T09:06:41.878Z</time>
      </trkpt>
      <trkpt lat="46.9881" lon="8.79504">
        <ele>977</ele>
        <time>2021-08-04T09:06:42.877Z</time>
      </trkpt>
      <trkpt lat="46.9881" lon="8.79502">
        <ele>977</ele>
        <time>2021-08-04T09:06:43.878Z</time>
      </trkpt>
      <trkpt lat="46.98811" lon="8.79501">
        <ele>977</ele>
        <time>2021-08-04T09:06:44.878Z</time>
      </trkpt>
      <trkpt lat="46.98811" lon="8.795">
        <ele>977</ele>
        <time>2021-08-04T09:06:45.878Z</time>
      </trkpt>
      <trkpt lat="46.98812" lon="8.79499">
        <ele>977</ele>
        <time>2021-08-04T09:06:46.877Z</time>
      </trkpt>
      <trkpt lat="46.98813" lon="8.79498">
        <ele>977</ele>
        <time>2021-08-04T09:06:47.878Z</time>
      </trkpt>
      <trkpt lat="46.98813" lon="8.79496">
        <ele>977</ele>
        <time>2021-08-04T09:06:48.877Z</time>
      </trkpt>
      <trkpt lat="46.98815" lon="8.79494">
        <ele>977</ele>
        <time>2021-08-04T09:06:49.878Z</time>
      </trkpt>
      <trkpt lat="46.98816" lon="8.79493">
        <ele>977</ele>
        <time>2021-08-04T09:06:50.877Z</time>
      </trkpt>
      <trkpt lat="46.98816" lon="8.79492">
        <ele>977</ele>
        <time>2021-08-04T09:06:51.877Z</time>
      </trkpt>
      <trkpt lat="46.98817" lon="8.7949">
        <ele>977</ele>
        <time>2021-08-04T09:06:52.878Z</time>
      </trkpt>
      <trkpt lat="46.98817" lon="8.79489">
        <ele>977</ele>
        <time>2021-08-04T09:06:53.878Z</time>
      </trkpt>
      <trkpt lat="46.98817" lon="8.79488">
        <ele>977</ele>
        <time>2021-08-04T09:06:54.878Z</time>
      </trkpt>
      <trkpt lat="46.98817" lon="8.79487">
        <ele>977</ele>
        <time>2021-08-04T09:06:55.877Z</time>
      </trkpt>
      <trkpt lat="46.98817" lon="8.79485">
        <ele>977</ele>
        <time>2021-08-04T09:06:56.878Z</time>
      </trkpt>
      <trkpt lat="46.98818" lon="8.79483">
        <ele>977</ele>
        <time>2021-08-04T09:06:57.878Z</time>
      </trkpt>
      <trkpt lat="46.98818" lon="8.79481">
        <ele>976</ele>
        <time>2021-08-04T09:06:58.878Z</time>
      </trkpt>
      <trkpt lat="46.98818" lon="8.79478">
        <ele>976</ele>
        <time>2021-08-04T09:06:59.877Z</time>
      </trkpt>
      <trkpt lat="46.98818" lon="8.79476">
        <ele>975</ele>
        <time>2021-08-04T09:07:00.877Z</time>
      </trkpt>
      <trkpt lat="46.98818" lon="8.79474">
        <ele>975</ele>
        <time>2021-08-04T09:07:01.877Z</time>
      </trkpt>
      <trkpt lat="46.98817" lon="8.79472">
        <ele>974</ele>
        <time>2021-08-04T09:07:02.878Z</time>
      </trkpt>
      <trkpt lat="46.98817" lon="8.7947">
        <ele>974</ele>
        <time>2021-08-04T09:07:03.877Z</time>
      </trkpt>
      <trkpt lat="46.98817" lon="8.79469">
        <ele>973</ele>
        <time>2021-08-04T09:07:04.878Z</time>
      </trkpt>
      <trkpt lat="46.98817" lon="8.79467">
        <ele>973</ele>
        <time>2021-08-04T09:07:05.878Z</time>
      </trkpt>
      <trkpt lat="46.98817" lon="8.79466">
        <ele>972</ele>
        <time>2021-08-04T09:07:06.877Z</time>
      </trkpt>
      <trkpt lat="46.98816" lon="8.79465">
        <ele>971</ele>
        <time>2021-08-04T09:07:07.878Z</time>
      </trkpt>
      <trkpt lat="46.98817" lon="8.79464">
        <ele>970</ele>
        <time>2021-08-04T09:07:08.878Z</time>
      </trkpt>
      <trkpt lat="46.98817" lon="8.79462">
        <ele>969</ele>
        <time>2021-08-04T09:07:09.877Z</time>
      </trkpt>
      <trkpt lat="46.98817" lon="8.7946">
        <ele>968</ele>
        <time>2021-08-04T09:07:10.877Z</time>
      </trkpt>
      <trkpt lat="46.98817" lon="8.79459">
        <ele>967</ele>
        <time>2021-08-04T09:07:11.877Z</time>
      </trkpt>
      <trkpt lat="46.98817" lon="8.79457">
        <ele>967</ele>
        <time>2021-08-04T09:07:12.878Z</time>
      </trkpt>
      <trkpt lat="46.98817" lon="8.79455">
        <ele>967</ele>
        <time>2021-08-04T09:07:13.878Z</time>
      </trkpt>
      <trkpt lat="46.98816" lon="8.79454">
        <ele>966</ele>
        <time>2021-08-04T09:07:14.877Z</time>
      </trkpt>
      <trkpt lat="46.98816" lon="8.79452">
        <ele>966</ele>
        <time>2021-08-04T09:07:15.878Z</time>
      </trkpt>
      <trkpt lat="46.98816" lon="8.79451">
        <ele>965</ele>
        <time>2021-08-04T09:07:16.878Z</time>
      </trkpt>
      <trkpt lat="46.98816" lon="8.79449">
        <ele>965</ele>
        <time>2021-08-04T09:07:17.878Z</time>
      </trkpt>
      <trkpt lat="46.98816" lon="8.79447">
        <ele>965</ele>
        <time>2021-08-04T09:07:18.878Z</time>
      </trkpt>
      <trkpt lat="46.98817" lon="8.79446">
        <ele>964</ele>
        <time>2021-08-04T09:07:19.877Z</time>
      </trkpt>
      <trkpt lat="46.98818" lon="8.79445">
        <ele>964</ele>
        <time>2021-08-04T09:07:20.878Z</time>
      </trkpt>
      <trkpt lat="46.98819" lon="8.79443">
        <ele>964</ele>
        <time>2021-08-04T09:07:21.878Z</time>
      </trkpt>
      <trkpt lat="46.9882" lon="8.79442">
        <ele>964</ele>
        <time>2021-08-04T09:07:22.878Z</time>
      </trkpt>
      <trkpt lat="46.98821" lon="8.79441">
        <ele>964</ele>
        <time>2021-08-04T09:07:23.878Z</time>
      </trkpt>
      <trkpt lat="46.98822" lon="8.7944">
        <ele>965</ele>
        <time>2021-08-04T09:07:24.878Z</time>
      </trkpt>
      <trkpt lat="46.98823" lon="8.7944">
        <ele>965</ele>
        <time>2021-08-04T09:07:25.878Z</time>
      </trkpt>
      <trkpt lat="46.98824" lon="8.79439">
        <ele>966</ele>
        <time>2021-08-04T09:07:26.877Z</time>
      </trkpt>
      <trkpt lat="46.98825" lon="8.79437">
        <ele>966</ele>
        <time>2021-08-04T09:07:27.877Z</time>
      </trkpt>
      <trkpt lat="46.98826" lon="8.79436">
        <ele>966</ele>
        <time>2021-08-04T09:07:28.878Z</time>
      </trkpt>
      <trkpt lat="46.98827" lon="8.79435">
        <ele>967</ele>
        <time>2021-08-04T09:07:29.878Z</time>
      </trkpt>
      <trkpt lat="46.98828" lon="8.79433">
        <ele>966</ele>
        <time>2021-08-04T09:07:30.877Z</time>
      </trkpt>
      <trkpt lat="46.98829" lon="8.79432">
        <ele>966</ele>
        <time>2021-08-04T09:07:31.878Z</time>
      </trkpt>
      <trkpt lat="46.9883" lon="8.7943">
        <ele>966</ele>
        <time>2021-08-04T09:07:32.877Z</time>
      </trkpt>
      <trkpt lat="46.98832" lon="8.79428">
        <ele>966</ele>
        <time>2021-08-04T09:07:33.878Z</time>
      </trkpt>
      <trkpt lat="46.98834" lon="8.79428">
        <ele>967</ele>
        <time>2021-08-04T09:07:34.878Z</time>
      </trkpt>
      <trkpt lat="46.98835" lon="8.79428">
        <ele>967</ele>
        <time>2021-08-04T09:07:35.877Z</time>
      </trkpt>
      <trkpt lat="46.98835" lon="8.79427">
        <ele>967</ele>
        <time>2021-08-04T09:07:36.878Z</time>
      </trkpt>
      <trkpt lat="46.98836" lon="8.79425">
        <ele>967</ele>
        <time>2021-08-04T09:07:37.878Z</time>
      </trkpt>
      <trkpt lat="46.98837" lon="8.79424">
        <ele>967</ele>
        <time>2021-08-04T09:07:38.878Z</time>
      </trkpt>
      <trkpt lat="46.98838" lon="8.79424">
        <ele>967</ele>
        <time>2021-08-04T09:07:39.877Z</time>
      </trkpt>
      <trkpt lat="46.98839" lon="8.79423">
        <ele>967</ele>
        <time>2021-08-04T09:07:40.878Z</time>
      </trkpt>
      <trkpt lat="46.9884" lon="8.79421">
        <ele>967</ele>
        <time>2021-08-04T09:07:41.878Z</time>
      </trkpt>
      <trkpt lat="46.98841" lon="8.7942">
        <ele>967</ele>
        <time>2021-08-04T09:07:42.877Z</time>
      </trkpt>
      <trkpt lat="46.98842" lon="8.7942">
        <ele>967</ele>
        <time>2021-08-04T09:07:43.878Z</time>
      </trkpt>
      <trkpt lat="46.98841" lon="8.79418">
        <ele>967</ele>
        <time>2021-08-04T09:07:44.877Z</time>
      </trkpt>
      <trkpt lat="46.98841" lon="8.79417">
        <ele>967</ele>
        <time>2021-08-04T09:07:45.878Z</time>
      </trkpt>
      <trkpt lat="46.9884" lon="8.79415">
        <ele>967</ele>
        <time>2021-08-04T09:07:46.878Z</time>
      </trkpt>
      <trkpt lat="46.9884" lon="8.79414">
        <ele>967</ele>
        <time>2021-08-04T09:07:47.877Z</time>
      </trkpt>
      <trkpt lat="46.98839" lon="8.79412">
        <ele>967</ele>
        <time>2021-08-04T09:07:48.877Z</time>
      </trkpt>
      <trkpt lat="46.98839" lon="8.79411">
        <ele>967</ele>
        <time>2021-08-04T09:07:49.877Z</time>
      </trkpt>
      <trkpt lat="46.98839" lon="8.7941">
        <ele>967</ele>
        <time>2021-08-04T09:07:50.877Z</time>
      </trkpt>
      <trkpt lat="46.98839" lon="8.79409">
        <ele>967</ele>
        <time>2021-08-04T09:07:51.878Z</time>
      </trkpt>
      <trkpt lat="46.98839" lon="8.79409">
        <ele>967</ele>
        <time>2021-08-04T09:07:52.878Z</time>
      </trkpt>
      <trkpt lat="46.98838" lon="8.79408">
        <ele>966</ele>
        <time>2021-08-04T09:07:53.877Z</time>
      </trkpt>
      <trkpt lat="46.98838" lon="8.79407">
        <ele>966</ele>
        <time>2021-08-04T09:07:54.877Z</time>
      </trkpt>
      <trkpt lat="46.98837" lon="8.79406">
        <ele>966</ele>
        <time>2021-08-04T09:07:55.878Z</time>
      </trkpt>
      <trkpt lat="46.98837" lon="8.79405">
        <ele>967</ele>
        <time>2021-08-04T09:07:56.878Z</time>
      </trkpt>
      <trkpt lat="46.98836" lon="8.79403">
        <ele>967</ele>
        <time>2021-08-04T09:07:57.878Z</time>
      </trkpt>
      <trkpt lat="46.98835" lon="8.79401">
        <ele>967</ele>
        <time>2021-08-04T09:07:58.878Z</time>
      </trkpt>
      <trkpt lat="46.98834" lon="8.79399">
        <ele>968</ele>
        <time>2021-08-04T09:07:59.877Z</time>
      </trkpt>
      <trkpt lat="46.98833" lon="8.79397">
        <ele>968</ele>
        <time>2021-08-04T09:08:00.877Z</time>
      </trkpt>
      <trkpt lat="46.98832" lon="8.79395">
        <ele>969</ele>
        <time>2021-08-04T09:08:01.878Z</time>
      </trkpt>
      <trkpt lat="46.98832" lon="8.79394">
        <ele>969</ele>
        <time>2021-08-04T09:08:02.877Z</time>
      </trkpt>
      <trkpt lat="46.98831" lon="8.79392">
        <ele>970</ele>
        <time>2021-08-04T09:08:03.877Z</time>
      </trkpt>
      <trkpt lat="46.9883" lon="8.7939">
        <ele>970</ele>
        <time>2021-08-04T09:08:04.877Z</time>
      </trkpt>
      <trkpt lat="46.98829" lon="8.79388">
        <ele>970</ele>
        <time>2021-08-04T09:08:05.877Z</time>
      </trkpt>
      <trkpt lat="46.98828" lon="8.79387">
        <ele>970</ele>
        <time>2021-08-04T09:08:06.877Z</time>
      </trkpt>
      <trkpt lat="46.98828" lon="8.79386">
        <ele>970</ele>
        <time>2021-08-04T09:08:07.878Z</time>
      </trkpt>
      <trkpt lat="46.98828" lon="8.79385">
        <ele>970</ele>
        <time>2021-08-04T09:08:08.877Z</time>
      </trkpt>
      <trkpt lat="46.98827" lon="8.79382">
        <ele>969</ele>
        <time>2021-08-04T09:08:09.877Z</time>
      </trkpt>
      <trkpt lat="46.98826" lon="8.7938">
        <ele>969</ele>
        <time>2021-08-04T09:08:10.877Z</time>
      </trkpt>
      <trkpt lat="46.98825" lon="8.79379">
        <ele>968</ele>
        <time>2021-08-04T09:08:11.877Z</time>
      </trkpt>
      <trkpt lat="46.98823" lon="8.79377">
        <ele>968</ele>
        <time>2021-08-04T09:08:12.877Z</time>
      </trkpt>
      <trkpt lat="46.98821" lon="8.79375">
        <ele>967</ele>
        <time>2021-08-04T09:08:13.877Z</time>
      </trkpt>
      <trkpt lat="46.9882" lon="8.79374">
        <ele>967</ele>
        <time>2021-08-04T09:08:14.878Z</time>
      </trkpt>
      <trkpt lat="46.98819" lon="8.79373">
        <ele>967</ele>
        <time>2021-08-04T09:08:15.878Z</time>
      </trkpt>
      <trkpt lat="46.98818" lon="8.79372">
        <ele>967</ele>
        <time>2021-08-04T09:08:16.878Z</time>
      </trkpt>
      <trkpt lat="46.98816" lon="8.79372">
        <ele>967</ele>
        <time>2021-08-04T09:08:17.877Z</time>
      </trkpt>
      <trkpt lat="46.98815" lon="8.79371">
        <ele>966</ele>
        <time>2021-08-04T09:08:18.878Z</time>
      </trkpt>
      <trkpt lat="46.98815" lon="8.7937">
        <ele>966</ele>
        <time>2021-08-04T09:08:19.878Z</time>
      </trkpt>
      <trkpt lat="46.98814" lon="8.79369">
        <ele>966</ele>
        <time>2021-08-04T09:08:20.877Z</time>
      </trkpt>
      <trkpt lat="46.98813" lon="8.79368">
        <ele>966</ele>
        <time>2021-08-04T09:08:21.878Z</time>
      </trkpt>
      <trkpt lat="46.98812" lon="8.79367">
        <ele>966</ele>
        <time>2021-08-04T09:08:22.878Z</time>
      </trkpt>
      <trkpt lat="46.98811" lon="8.79367">
        <ele>966</ele>
        <time>2021-08-04T09:08:23.877Z</time>
      </trkpt>
      <trkpt lat="46.9881" lon="8.79367">
        <ele>967</ele>
        <time>2021-08-04T09:08:24.878Z</time>
      </trkpt>
      <trkpt lat="46.9881" lon="8.79367">
        <ele>967</ele>
        <time>2021-08-04T09:08:25.877Z</time>
      </trkpt>
      <trkpt lat="46.98809" lon="8.79366">
        <ele>967</ele>
        <time>2021-08-04T09:08:26.877Z</time>
      </trkpt>
      <trkpt lat="46.98807" lon="8.79365">
        <ele>967</ele>
        <time>2021-08-04T09:08:27.878Z</time>
      </trkpt>
      <trkpt lat="46.98806" lon="8.79365">
        <ele>967</ele>
        <time>2021-08-04T09:08:28.878Z</time>
      </trkpt>
      <trkpt lat="46.98805" lon="8.79364">
        <ele>967</ele>
        <time>2021-08-04T09:08:29.878Z</time>
      </trkpt>
      <trkpt lat="46.98805" lon="8.79364">
        <ele>968</ele>
        <time>2021-08-04T09:08:30.878Z</time>
      </trkpt>
      <trkpt lat="46.98804" lon="8.79364">
        <ele>968</ele>
        <time>2021-08-04T09:08:31.878Z</time>
      </trkpt>
      <trkpt lat="46.98803" lon="8.79364">
        <ele>968</ele>
        <time>2021-08-04T09:08:32.878Z</time>
      </trkpt>
      <trkpt lat="46.98802" lon="8.79363">
        <ele>969</ele>
        <time>2021-08-04T09:08:33.878Z</time>
      </trkpt>
      <trkpt lat="46.98801" lon="8.79363">
        <ele>969</ele>
        <time>2021-08-04T09:08:34.878Z</time>
      </trkpt>
      <trkpt lat="46.98799" lon="8.79363">
        <ele>969</ele>
        <time>2021-08-04T09:08:35.878Z</time>
      </trkpt>
      <trkpt lat="46.98798" lon="8.79362">
        <ele>969</ele>
        <time>2021-08-04T09:08:36.878Z</time>
      </trkpt>
      <trkpt lat="46.98796" lon="8.79361">
        <ele>969</ele>
        <time>2021-08-04T09:08:37.877Z</time>
      </trkpt>
      <trkpt lat="46.98795" lon="8.7936">
        <ele>969</ele>
        <time>2021-08-04T09:08:38.877Z</time>
      </trkpt>
      <trkpt lat="46.98794" lon="8.79359">
        <ele>969</ele>
        <time>2021-08-04T09:08:39.878Z</time>
      </trkpt>
      <trkpt lat="46.98792" lon="8.79358">
        <ele>969</ele>
        <time>2021-08-04T09:08:40.878Z</time>
      </trkpt>
      <trkpt lat="46.98791" lon="8.79357">
        <ele>968</ele>
        <time>2021-08-04T09:08:41.877Z</time>
      </trkpt>
      <trkpt lat="46.98788" lon="8.79356">
        <ele>968</ele>
        <time>2021-08-04T09:08:42.878Z</time>
      </trkpt>
      <trkpt lat="46.98786" lon="8.79355">
        <ele>968</ele>
        <time>2021-08-04T09:08:43.877Z</time>
      </trkpt>
      <trkpt lat="46.98785" lon="8.79355">
        <ele>968</ele>
        <time>2021-08-04T09:08:44.878Z</time>
      </trkpt>
      <trkpt lat="46.98784" lon="8.79354">
        <ele>968</ele>
        <time>2021-08-04T09:08:45.877Z</time>
      </trkpt>
      <trkpt lat="46.98782" lon="8.79352">
        <ele>967</ele>
        <time>2021-08-04T09:08:46.878Z</time>
      </trkpt>
      <trkpt lat="46.98781" lon="8.79351">
        <ele>967</ele>
        <time>2021-08-04T09:08:47.878Z</time>
      </trkpt>
      <trkpt lat="46.98779" lon="8.7935">
        <ele>967</ele>
        <time>2021-08-04T09:08:48.877Z</time>
      </trkpt>
      <trkpt lat="46.98777" lon="8.79349">
        <ele>966</ele>
        <time>2021-08-04T09:08:49.878Z</time>
      </trkpt>
      <trkpt lat="46.98776" lon="8.79348">
        <ele>966</ele>
        <time>2021-08-04T09:08:50.877Z</time>
      </trkpt>
      <trkpt lat="46.98776" lon="8.79347">
        <ele>966</ele>
        <time>2021-08-04T09:08:51.878Z</time>
      </trkpt>
      <trkpt lat="46.98775" lon="8.79347">
        <ele>965</ele>
        <time>2021-08-04T09:08:52.878Z</time>
      </trkpt>
      <trkpt lat="46.98773" lon="8.79346">
        <ele>965</ele>
        <time>2021-08-04T09:08:53.878Z</time>
      </trkpt>
      <trkpt lat="46.98772" lon="8.79345">
        <ele>965</ele>
        <time>2021-08-04T09:08:54.877Z</time>
      </trkpt>
      <trkpt lat="46.98771" lon="8.79344">
        <ele>966</ele>
        <time>2021-08-04T09:08:55.877Z</time>
      </trkpt>
      <trkpt lat="46.98769" lon="8.79342">
        <ele>966</ele>
        <time>2021-08-04T09:08:56.878Z</time>
      </trkpt>
      <trkpt lat="46.98768" lon="8.7934">
        <ele>966</ele>
        <time>2021-08-04T09:08:57.877Z</time>
      </trkpt>
      <trkpt lat="46.98766" lon="8.79338">
        <ele>966</ele>
        <time>2021-08-04T09:08:58.878Z</time>
      </trkpt>
      <trkpt lat="46.98766" lon="8.79337">
        <ele>966</ele>
        <time>2021-08-04T09:08:59.878Z</time>
      </trkpt>
      <trkpt lat="46.98765" lon="8.79336">
        <ele>966</ele>
        <time>2021-08-04T09:09:00.878Z</time>
      </trkpt>
      <trkpt lat="46.98763" lon="8.79334">
        <ele>966</ele>
        <time>2021-08-04T09:09:01.878Z</time>
      </trkpt>
      <trkpt lat="46.98762" lon="8.79332">
        <ele>967</ele>
        <time>2021-08-04T09:09:02.878Z</time>
      </trkpt>
      <trkpt lat="46.9876" lon="8.79329">
        <ele>967</ele>
        <time>2021-08-04T09:09:03.878Z</time>
      </trkpt>
      <trkpt lat="46.98759" lon="8.79328">
        <ele>967</ele>
        <time>2021-08-04T09:09:04.878Z</time>
      </trkpt>
      <trkpt lat="46.98757" lon="8.79326">
        <ele>968</ele>
        <time>2021-08-04T09:09:05.877Z</time>
      </trkpt>
      <trkpt lat="46.98756" lon="8.79325">
        <ele>968</ele>
        <time>2021-08-04T09:09:06.878Z</time>
      </trkpt>
      <trkpt lat="46.98756" lon="8.79323">
        <ele>968</ele>
        <time>2021-08-04T09:09:07.877Z</time>
      </trkpt>
      <trkpt lat="46.98755" lon="8.7932">
        <ele>968</ele>
        <time>2021-08-04T09:09:08.878Z</time>
      </trkpt>
      <trkpt lat="46.98754" lon="8.79317">
        <ele>968</ele>
        <time>2021-08-04T09:09:09.878Z</time>
      </trkpt>
      <trkpt lat="46.98753" lon="8.79315">
        <ele>967</ele>
        <time>2021-08-04T09:09:10.878Z</time>
      </trkpt>
      <trkpt lat="46.98753" lon="8.79313">
        <ele>967</ele>
        <time>2021-08-04T09:09:11.878Z</time>
      </trkpt>
      <trkpt lat="46.98752" lon="8.79311">
        <ele>967</ele>
        <time>2021-08-04T09:09:12.877Z</time>
      </trkpt>
      <trkpt lat="46.98752" lon="8.7931">
        <ele>966</ele>
        <time>2021-08-04T09:09:13.878Z</time>
      </trkpt>
      <trkpt lat="46.9875" lon="8.79308">
        <ele>965</ele>
        <time>2021-08-04T09:09:14.878Z</time>
      </trkpt>
      <trkpt lat="46.9875" lon="8.79306">
        <ele>965</ele>
        <time>2021-08-04T09:09:15.878Z</time>
      </trkpt>
      <trkpt lat="46.98749" lon="8.79305">
        <ele>965</ele>
        <time>2021-08-04T09:09:16.878Z</time>
      </trkpt>
      <trkpt lat="46.98747" lon="8.79303">
        <ele>965</ele>
        <time>2021-08-04T09:09:17.878Z</time>
      </trkpt>
      <trkpt lat="46.98747" lon="8.79301">
        <ele>965</ele>
        <time>2021-08-04T09:09:18.878Z</time>
      </trkpt>
      <trkpt lat="46.98746" lon="8.793">
        <ele>964</ele>
        <time>2021-08-04T09:09:19.878Z</time>
      </trkpt>
      <trkpt lat="46.98745" lon="8.79298">
        <ele>964</ele>
        <time>2021-08-04T09:09:20.877Z</time>
      </trkpt>
      <trkpt lat="46.98744" lon="8.79297">
        <ele>963</ele>
        <time>2021-08-04T09:09:21.878Z</time>
      </trkpt>
      <trkpt lat="46.98744" lon="8.79297">
        <ele>963</ele>
        <time>2021-08-04T09:09:22.878Z</time>
      </trkpt>
      <trkpt lat="46.98743" lon="8.79295">
        <ele>962</ele>
        <time>2021-08-04T09:09:23.877Z</time>
      </trkpt>
      <trkpt lat="46.98742" lon="8.79294">
        <ele>962</ele>
        <time>2021-08-04T09:09:24.878Z</time>
      </trkpt>
      <trkpt lat="46.98741" lon="8.79293">
        <ele>961</ele>
        <time>2021-08-04T09:09:25.878Z</time>
      </trkpt>
      <trkpt lat="46.9874" lon="8.79291">
        <ele>961</ele>
        <time>2021-08-04T09:09:26.878Z</time>
      </trkpt>
      <trkpt lat="46.98739" lon="8.79288">
        <ele>961</ele>
        <time>2021-08-04T09:09:27.878Z</time>
      </trkpt>
      <trkpt lat="46.98738" lon="8.79286">
        <ele>961</ele>
        <time>2021-08-04T09:09:28.878Z</time>
      </trkpt>
      <trkpt lat="46.98737" lon="8.79284">
        <ele>961</ele>
        <time>2021-08-04T09:09:29.877Z</time>
      </trkpt>
      <trkpt lat="46.98736" lon="8.79283">
        <ele>961</ele>
        <time>2021-08-04T09:09:30.878Z</time>
      </trkpt>
      <trkpt lat="46.98735" lon="8.79282">
        <ele>961</ele>
        <time>2021-08-04T09:09:31.878Z</time>
      </trkpt>
      <trkpt lat="46.98734" lon="8.79281">
        <ele>962</ele>
        <time>2021-08-04T09:09:32.877Z</time>
      </trkpt>
      <trkpt lat="46.98733" lon="8.7928">
        <ele>962</ele>
        <time>2021-08-04T09:09:33.877Z</time>
      </trkpt>
      <trkpt lat="46.98733" lon="8.79279">
        <ele>962</ele>
        <time>2021-08-04T09:09:34.878Z</time>
      </trkpt>
      <trkpt lat="46.98732" lon="8.79277">
        <ele>963</ele>
        <time>2021-08-04T09:09:35.878Z</time>
      </trkpt>
      <trkpt lat="46.98732" lon="8.79276">
        <ele>962</ele>
        <time>2021-08-04T09:09:36.877Z</time>
      </trkpt>
      <trkpt lat="46.98731" lon="8.79275">
        <ele>962</ele>
        <time>2021-08-04T09:09:37.877Z</time>
      </trkpt>
      <trkpt lat="46.9873" lon="8.79274">
        <ele>962</ele>
        <time>2021-08-04T09:09:38.877Z</time>
      </trkpt>
      <trkpt lat="46.98729" lon="8.79274">
        <ele>962</ele>
        <time>2021-08-04T09:09:39.877Z</time>
      </trkpt>
      <trkpt lat="46.98728" lon="8.79272">
        <ele>962</ele>
        <time>2021-08-04T09:09:40.877Z</time>
      </trkpt>
      <trkpt lat="46.98727" lon="8.79272">
        <ele>962</ele>
        <time>2021-08-04T09:09:41.877Z</time>
      </trkpt>
      <trkpt lat="46.98726" lon="8.7927">
        <ele>961</ele>
        <time>2021-08-04T09:09:42.877Z</time>
      </trkpt>
      <trkpt lat="46.98725" lon="8.79269">
        <ele>961</ele>
        <time>2021-08-04T09:09:43.877Z</time>
      </trkpt>
      <trkpt lat="46.98724" lon="8.79268">
        <ele>961</ele>
        <time>2021-08-04T09:09:44.878Z</time>
      </trkpt>
      <trkpt lat="46.98723" lon="8.79267">
        <ele>961</ele>
        <time>2021-08-04T09:09:45.877Z</time>
      </trkpt>
      <trkpt lat="46.98723" lon="8.79265">
        <ele>961</ele>
        <time>2021-08-04T09:09:46.878Z</time>
      </trkpt>
      <trkpt lat="46.98722" lon="8.79264">
        <ele>961</ele>
        <time>2021-08-04T09:09:47.878Z</time>
      </trkpt>
      <trkpt lat="46.98722" lon="8.79263">
        <ele>961</ele>
        <time>2021-08-04T09:09:48.878Z</time>
      </trkpt>
      <trkpt lat="46.98721" lon="8.79262">
        <ele>961</ele>
        <time>2021-08-04T09:09:49.877Z</time>
      </trkpt>
      <trkpt lat="46.9872" lon="8.7926">
        <ele>961</ele>
        <time>2021-08-04T09:09:50.878Z</time>
      </trkpt>
      <trkpt lat="46.98719" lon="8.79259">
        <ele>960</ele>
        <time>2021-08-04T09:09:51.878Z</time>
      </trkpt>
      <trkpt lat="46.98718" lon="8.79258">
        <ele>960</ele>
        <time>2021-08-04T09:09:52.878Z</time>
      </trkpt>
      <trkpt lat="46.98717" lon="8.79257">
        <ele>960</ele>
        <time>2021-08-04T09:09:53.877Z</time>
      </trkpt>
      <trkpt lat="46.98717" lon="8.79256">
        <ele>960</ele>
        <time>2021-08-04T09:09:54.878Z</time>
      </trkpt>
      <trkpt lat="46.98716" lon="8.79255">
        <ele>960</ele>
        <time>2021-08-04T09:09:55.877Z</time>
      </trkpt>
      <trkpt lat="46.98715" lon="8.79254">
        <ele>959</ele>
        <time>2021-08-04T09:09:56.877Z</time>
      </trkpt>
      <trkpt lat="46.98714" lon="8.79252">
        <ele>959</ele>
        <time>2021-08-04T09:09:57.877Z</time>
      </trkpt>
      <trkpt lat="46.98713" lon="8.79251">
        <ele>959</ele>
        <time>2021-08-04T09:09:58.877Z</time>
      </trkpt>
      <trkpt lat="46.98712" lon="8.79249">
        <ele>958</ele>
        <time>2021-08-04T09:09:59.877Z</time>
      </trkpt>
      <trkpt lat="46.98711" lon="8.79248">
        <ele>958</ele>
        <time>2021-08-04T09:10:00.878Z</time>
      </trkpt>
      <trkpt lat="46.98709" lon="8.79247">
        <ele>958</ele>
        <time>2021-08-04T09:10:01.878Z</time>
      </trkpt>
      <trkpt lat="46.98709" lon="8.79246">
        <ele>958</ele>
        <time>2021-08-04T09:10:02.877Z</time>
      </trkpt>
      <trkpt lat="46.98709" lon="8.79244">
        <ele>958</ele>
        <time>2021-08-04T09:10:03.877Z</time>
      </trkpt>
      <trkpt lat="46.98708" lon="8.79243">
        <ele>957</ele>
        <time>2021-08-04T09:10:04.877Z</time>
      </trkpt>
      <trkpt lat="46.98708" lon="8.79241">
        <ele>957</ele>
        <time>2021-08-04T09:10:05.877Z</time>
      </trkpt>
      <trkpt lat="46.98708" lon="8.7924">
        <ele>957</ele>
        <time>2021-08-04T09:10:06.877Z</time>
      </trkpt>
      <trkpt lat="46.98708" lon="8.79238">
        <ele>957</ele>
        <time>2021-08-04T09:10:07.877Z</time>
      </trkpt>
      <trkpt lat="46.98708" lon="8.79237">
        <ele>957</ele>
        <time>2021-08-04T09:10:08.877Z</time>
      </trkpt>
      <trkpt lat="46.98708" lon="8.79236">
        <ele>956</ele>
        <time>2021-08-04T09:10:09.877Z</time>
      </trkpt>
      <trkpt lat="46.98708" lon="8.79236">
        <ele>955</ele>
        <time>2021-08-04T09:10:10.877Z</time>
      </trkpt>
      <trkpt lat="46.98707" lon="8.79235">
        <ele>955</ele>
        <time>2021-08-04T09:10:11.877Z</time>
      </trkpt>
      <trkpt lat="46.98707" lon="8.79235">
        <ele>954</ele>
        <time>2021-08-04T09:10:12.877Z</time>
      </trkpt>
      <trkpt lat="46.98707" lon="8.79233">
        <ele>954</ele>
        <time>2021-08-04T09:10:13.877Z</time>
      </trkpt>
      <trkpt lat="46.98706" lon="8.79232">
        <ele>954</ele>
        <time>2021-08-04T09:10:14.877Z</time>
      </trkpt>
      <trkpt lat="46.98705" lon="8.7923">
        <ele>953</ele>
        <time>2021-08-04T09:10:15.877Z</time>
      </trkpt>
      <trkpt lat="46.98705" lon="8.79229">
        <ele>953</ele>
        <time>2021-08-04T09:10:16.877Z</time>
      </trkpt>
      <trkpt lat="46.98705" lon="8.79227">
        <ele>953</ele>
        <time>2021-08-04T09:10:17.877Z</time>
      </trkpt>
      <trkpt lat="46.98705" lon="8.79225">
        <ele>953</ele>
        <time>2021-08-04T09:10:18.878Z</time>
      </trkpt>
      <trkpt lat="46.98705" lon="8.79224">
        <ele>952</ele>
        <time>2021-08-04T09:10:19.877Z</time>
      </trkpt>
      <trkpt lat="46.98705" lon="8.79223">
        <ele>952</ele>
        <time>2021-08-04T09:10:20.877Z</time>
      </trkpt>
      <trkpt lat="46.98704" lon="8.79222">
        <ele>951</ele>
        <time>2021-08-04T09:10:21.878Z</time>
      </trkpt>
      <trkpt lat="46.98704" lon="8.7922">
        <ele>950</ele>
        <time>2021-08-04T09:10:22.878Z</time>
      </trkpt>
      <trkpt lat="46.98703" lon="8.79218">
        <ele>950</ele>
        <time>2021-08-04T09:10:23.878Z</time>
      </trkpt>
      <trkpt lat="46.98703" lon="8.79216">
        <ele>949</ele>
        <time>2021-08-04T09:10:24.878Z</time>
      </trkpt>
      <trkpt lat="46.98703" lon="8.79215">
        <ele>948</ele>
        <time>2021-08-04T09:10:25.877Z</time>
      </trkpt>
      <trkpt lat="46.98703" lon="8.79214">
        <ele>947</ele>
        <time>2021-08-04T09:10:26.878Z</time>
      </trkpt>
      <trkpt lat="46.98703" lon="8.79212">
        <ele>947</ele>
        <time>2021-08-04T09:10:27.878Z</time>
      </trkpt>
      <trkpt lat="46.98702" lon="8.79209">
        <ele>947</ele>
        <time>2021-08-04T09:10:28.877Z</time>
      </trkpt>
      <trkpt lat="46.98702" lon="8.79207">
        <ele>946</ele>
        <time>2021-08-04T09:10:29.878Z</time>
      </trkpt>
      <trkpt lat="46.98702" lon="8.79205">
        <ele>946</ele>
        <time>2021-08-04T09:10:30.877Z</time>
      </trkpt>
      <trkpt lat="46.98702" lon="8.79204">
        <ele>946</ele>
        <time>2021-08-04T09:10:31.877Z</time>
      </trkpt>
      <trkpt lat="46.98702" lon="8.79201">
        <ele>946</ele>
        <time>2021-08-04T09:10:32.877Z</time>
      </trkpt>
      <trkpt lat="46.98702" lon="8.79199">
        <ele>946</ele>
        <time>2021-08-04T09:10:33.878Z</time>
      </trkpt>
      <trkpt lat="46.98702" lon="8.79197">
        <ele>947</ele>
        <time>2021-08-04T09:10:34.877Z</time>
      </trkpt>
      <trkpt lat="46.98702" lon="8.79195">
        <ele>947</ele>
        <time>2021-08-04T09:10:35.878Z</time>
      </trkpt>
      <trkpt lat="46.98703" lon="8.79193">
        <ele>947</ele>
        <time>2021-08-04T09:10:36.878Z</time>
      </trkpt>
      <trkpt lat="46.98703" lon="8.79191">
        <ele>947</ele>
        <time>2021-08-04T09:10:37.878Z</time>
      </trkpt>
      <trkpt lat="46.98703" lon="8.7919">
        <ele>947</ele>
        <time>2021-08-04T09:10:38.878Z</time>
      </trkpt>
      <trkpt lat="46.98702" lon="8.79189">
        <ele>947</ele>
        <time>2021-08-04T09:10:39.878Z</time>
      </trkpt>
      <trkpt lat="46.98702" lon="8.79188">
        <ele>947</ele>
        <time>2021-08-04T09:10:40.878Z</time>
      </trkpt>
      <trkpt lat="46.98702" lon="8.79186">
        <ele>948</ele>
        <time>2021-08-04T09:10:41.878Z</time>
      </trkpt>
      <trkpt lat="46.98702" lon="8.79184">
        <ele>948</ele>
        <time>2021-08-04T09:10:42.878Z</time>
      </trkpt>
      <trkpt lat="46.98701" lon="8.79182">
        <ele>949</ele>
        <time>2021-08-04T09:10:43.878Z</time>
      </trkpt>
      <trkpt lat="46.987" lon="8.7918">
        <ele>949</ele>
        <time>2021-08-04T09:10:44.878Z</time>
      </trkpt>
      <trkpt lat="46.98699" lon="8.79178">
        <ele>950</ele>
        <time>2021-08-04T09:10:45.877Z</time>
      </trkpt>
      <trkpt lat="46.98698" lon="8.79175">
        <ele>950</ele>
        <time>2021-08-04T09:10:46.878Z</time>
      </trkpt>
      <trkpt lat="46.98697" lon="8.79173">
        <ele>951</ele>
        <time>2021-08-04T09:10:47.878Z</time>
      </trkpt>
      <trkpt lat="46.98696" lon="8.79171">
        <ele>951</ele>
        <time>2021-08-04T09:10:48.878Z</time>
      </trkpt>
      <trkpt lat="46.98696" lon="8.79169">
        <ele>952</ele>
        <time>2021-08-04T09:10:49.878Z</time>
      </trkpt>
      <trkpt lat="46.98695" lon="8.79167">
        <ele>952</ele>
        <time>2021-08-04T09:10:50.878Z</time>
      </trkpt>
      <trkpt lat="46.98694" lon="8.79165">
        <ele>953</ele>
        <time>2021-08-04T09:10:51.878Z</time>
      </trkpt>
      <trkpt lat="46.98693" lon="8.79163">
        <ele>954</ele>
        <time>2021-08-04T09:10:52.878Z</time>
      </trkpt>
      <trkpt lat="46.98693" lon="8.79161">
        <ele>955</ele>
        <time>2021-08-04T09:10:53.877Z</time>
      </trkpt>
      <trkpt lat="46.98692" lon="8.79159">
        <ele>955</ele>
        <time>2021-08-04T09:10:54.878Z</time>
      </trkpt>
      <trkpt lat="46.98691" lon="8.79158">
        <ele>956</ele>
        <time>2021-08-04T09:10:55.877Z</time>
      </trkpt>
      <trkpt lat="46.98691" lon="8.79156">
        <ele>957</ele>
        <time>2021-08-04T09:10:56.878Z</time>
      </trkpt>
      <trkpt lat="46.9869" lon="8.79154">
        <ele>957</ele>
        <time>2021-08-04T09:10:57.878Z</time>
      </trkpt>
      <trkpt lat="46.9869" lon="8.79152">
        <ele>958</ele>
        <time>2021-08-04T09:10:58.877Z</time>
      </trkpt>
      <trkpt lat="46.98689" lon="8.7915">
        <ele>958</ele>
        <time>2021-08-04T09:10:59.878Z</time>
      </trkpt>
      <trkpt lat="46.98688" lon="8.79149">
        <ele>959</ele>
        <time>2021-08-04T09:11:00.877Z</time>
      </trkpt>
      <trkpt lat="46.98687" lon="8.79147">
        <ele>959</ele>
        <time>2021-08-04T09:11:01.878Z</time>
      </trkpt>
      <trkpt lat="46.98685" lon="8.79145">
        <ele>959</ele>
        <time>2021-08-04T09:11:02.878Z</time>
      </trkpt>
      <trkpt lat="46.98684" lon="8.79142">
        <ele>958</ele>
        <time>2021-08-04T09:11:03.877Z</time>
      </trkpt>
      <trkpt lat="46.98683" lon="8.7914">
        <ele>958</ele>
        <time>2021-08-04T09:11:04.878Z</time>
      </trkpt>
      <trkpt lat="46.98683" lon="8.79139">
        <ele>957</ele>
        <time>2021-08-04T09:11:05.878Z</time>
      </trkpt>
      <trkpt lat="46.98683" lon="8.7914">
        <ele>956</ele>
        <time>2021-08-04T09:11:06.877Z</time>
      </trkpt>
      <trkpt lat="46.98683" lon="8.79139">
        <ele>955</ele>
        <time>2021-08-04T09:11:07.878Z</time>
      </trkpt>
      <trkpt lat="46.98682" lon="8.79137">
        <ele>954</ele>
        <time>2021-08-04T09:11:08.877Z</time>
      </trkpt>
      <trkpt lat="46.98681" lon="8.79135">
        <ele>953</ele>
        <time>2021-08-04T09:11:09.877Z</time>
      </trkpt>
      <trkpt lat="46.9868" lon="8.79133">
        <ele>952</ele>
        <time>2021-08-04T09:11:10.878Z</time>
      </trkpt>
      <trkpt lat="46.9868" lon="8.79131">
        <ele>951</ele>
        <time>2021-08-04T09:11:11.878Z</time>
      </trkpt>
      <trkpt lat="46.9868" lon="8.79128">
        <ele>950</ele>
        <time>2021-08-04T09:11:12.878Z</time>
      </trkpt>
      <trkpt lat="46.98679" lon="8.79126">
        <ele>949</ele>
        <time>2021-08-04T09:11:13.878Z</time>
      </trkpt>
      <trkpt lat="46.98678" lon="8.79124">
        <ele>949</ele>
        <time>2021-08-04T09:11:14.878Z</time>
      </trkpt>
      <trkpt lat="46.98678" lon="8.79122">
        <ele>948</ele>
        <time>2021-08-04T09:11:15.878Z</time>
      </trkpt>
      <trkpt lat="46.98677" lon="8.79121">
        <ele>947</ele>
        <time>2021-08-04T09:11:16.877Z</time>
      </trkpt>
      <trkpt lat="46.98676" lon="8.79119">
        <ele>946</ele>
        <time>2021-08-04T09:11:17.877Z</time>
      </trkpt>
      <trkpt lat="46.98675" lon="8.79118">
        <ele>945</ele>
        <time>2021-08-04T09:11:18.877Z</time>
      </trkpt>
      <trkpt lat="46.98675" lon="8.79116">
        <ele>944</ele>
        <time>2021-08-04T09:11:19.878Z</time>
      </trkpt>
      <trkpt lat="46.98675" lon="8.79114">
        <ele>943</ele>
        <time>2021-08-04T09:11:20.878Z</time>
      </trkpt>
      <trkpt lat="46.98674" lon="8.79112">
        <ele>943</ele>
        <time>2021-08-04T09:11:21.878Z</time>
      </trkpt>
      <trkpt lat="46.98673" lon="8.79109">
        <ele>942</ele>
        <time>2021-08-04T09:11:22.877Z</time>
      </trkpt>
      <trkpt lat="46.98672" lon="8.79107">
        <ele>941</ele>
        <time>2021-08-04T09:11:23.877Z</time>
      </trkpt>
      <trkpt lat="46.98671" lon="8.79105">
        <ele>941</ele>
        <time>2021-08-04T09:11:24.878Z</time>
      </trkpt>
      <trkpt lat="46.9867" lon="8.79103">
        <ele>940</ele>
        <time>2021-08-04T09:11:25.878Z</time>
      </trkpt>
      <trkpt lat="46.9867" lon="8.79101">
        <ele>940</ele>
        <time>2021-08-04T09:11:26.877Z</time>
      </trkpt>
      <trkpt lat="46.98669" lon="8.79099">
        <ele>940</ele>
        <time>2021-08-04T09:11:27.878Z</time>
      </trkpt>
      <trkpt lat="46.98669" lon="8.79097">
        <ele>939</ele>
        <time>2021-08-04T09:11:28.878Z</time>
      </trkpt>
      <trkpt lat="46.98668" lon="8.79095">
        <ele>939</ele>
        <time>2021-08-04T09:11:29.878Z</time>
      </trkpt>
      <trkpt lat="46.98666" lon="8.79092">
        <ele>940</ele>
        <time>2021-08-04T09:11:30.877Z</time>
      </trkpt>
      <trkpt lat="46.98665" lon="8.79089">
        <ele>940</ele>
        <time>2021-08-04T09:11:31.878Z</time>
      </trkpt>
      <trkpt lat="46.98664" lon="8.79086">
        <ele>940</ele>
        <time>2021-08-04T09:11:32.878Z</time>
      </trkpt>
      <trkpt lat="46.98664" lon="8.79083">
        <ele>940</ele>
        <time>2021-08-04T09:11:33.878Z</time>
      </trkpt>
      <trkpt lat="46.98663" lon="8.7908">
        <ele>939</ele>
        <time>2021-08-04T09:11:34.878Z</time>
      </trkpt>
      <trkpt lat="46.98662" lon="8.79077">
        <ele>939</ele>
        <time>2021-08-04T09:11:35.877Z</time>
      </trkpt>
      <trkpt lat="46.98661" lon="8.79074">
        <ele>939</ele>
        <time>2021-08-04T09:11:36.878Z</time>
      </trkpt>
      <trkpt lat="46.9866" lon="8.79072">
        <ele>938</ele>
        <time>2021-08-04T09:11:37.878Z</time>
      </trkpt>
      <trkpt lat="46.9866" lon="8.79071">
        <ele>937</ele>
        <time>2021-08-04T09:11:38.878Z</time>
      </trkpt>
      <trkpt lat="46.98659" lon="8.79071">
        <ele>936</ele>
        <time>2021-08-04T09:11:39.877Z</time>
      </trkpt>
      <trkpt lat="46.98659" lon="8.79071">
        <ele>935</ele>
        <time>2021-08-04T09:11:40.878Z</time>
      </trkpt>
      <trkpt lat="46.98658" lon="8.7907">
        <ele>934</ele>
        <time>2021-08-04T09:11:41.878Z</time>
      </trkpt>
      <trkpt lat="46.98657" lon="8.79069">
        <ele>933</ele>
        <time>2021-08-04T09:11:42.878Z</time>
      </trkpt>
      <trkpt lat="46.98656" lon="8.79069">
        <ele>932</ele>
        <time>2021-08-04T09:11:43.877Z</time>
      </trkpt>
      <trkpt lat="46.98655" lon="8.79068">
        <ele>931</ele>
        <time>2021-08-04T09:11:44.877Z</time>
      </trkpt>
      <trkpt lat="46.98654" lon="8.79067">
        <ele>931</ele>
        <time>2021-08-04T09:11:45.877Z</time>
      </trkpt>
      <trkpt lat="46.98653" lon="8.79067">
        <ele>930</ele>
        <time>2021-08-04T09:11:46.878Z</time>
      </trkpt>
      <trkpt lat="46.98652" lon="8.79066">
        <ele>929</ele>
        <time>2021-08-04T09:11:47.878Z</time>
      </trkpt>
      <trkpt lat="46.98651" lon="8.79066">
        <ele>928</ele>
        <time>2021-08-04T09:11:48.877Z</time>
      </trkpt>
      <trkpt lat="46.9865" lon="8.79066">
        <ele>928</ele>
        <time>2021-08-04T09:11:49.877Z</time>
      </trkpt>
      <trkpt lat="46.98649" lon="8.79066">
        <ele>927</ele>
        <time>2021-08-04T09:11:50.877Z</time>
      </trkpt>
      <trkpt lat="46.98647" lon="8.79067">
        <ele>926</ele>
        <time>2021-08-04T09:11:51.878Z</time>
      </trkpt>
      <trkpt lat="46.98646" lon="8.79067">
        <ele>925</ele>
        <time>2021-08-04T09:11:52.877Z</time>
      </trkpt>
      <trkpt lat="46.98645" lon="8.79068">
        <ele>924</ele>
        <time>2021-08-04T09:11:53.877Z</time>
      </trkpt>
      <trkpt lat="46.98644" lon="8.79069">
        <ele>923</ele>
        <time>2021-08-04T09:11:54.877Z</time>
      </trkpt>
      <trkpt lat="46.98642" lon="8.7907">
        <ele>922</ele>
        <time>2021-08-04T09:11:55.877Z</time>
      </trkpt>
      <trkpt lat="46.98641" lon="8.79071">
        <ele>922</ele>
        <time>2021-08-04T09:11:56.877Z</time>
      </trkpt>
      <trkpt lat="46.9864" lon="8.79071">
        <ele>921</ele>
        <time>2021-08-04T09:11:57.878Z</time>
      </trkpt>
      <trkpt lat="46.98639" lon="8.79073">
        <ele>921</ele>
        <time>2021-08-04T09:11:58.877Z</time>
      </trkpt>
      <trkpt lat="46.98638" lon="8.79075">
        <ele>920</ele>
        <time>2021-08-04T09:11:59.877Z</time>
      </trkpt>
      <trkpt lat="46.98636" lon="8.79076">
        <ele>920</ele>
        <time>2021-08-04T09:12:00.877Z</time>
      </trkpt>
      <trkpt lat="46.98635" lon="8.79078">
        <ele>920</ele>
        <time>2021-08-04T09:12:01.878Z</time>
      </trkpt>
      <trkpt lat="46.98634" lon="8.79079">
        <ele>920</ele>
        <time>2021-08-04T09:12:02.878Z</time>
      </trkpt>
      <trkpt lat="46.98632" lon="8.79081">
        <ele>920</ele>
        <time>2021-08-04T09:12:03.877Z</time>
      </trkpt>
      <trkpt lat="46.98631" lon="8.79083">
        <ele>919</ele>
        <time>2021-08-04T09:12:04.877Z</time>
      </trkpt>
      <trkpt lat="46.9863" lon="8.79084">
        <ele>919</ele>
        <time>2021-08-04T09:12:05.877Z</time>
      </trkpt>
      <trkpt lat="46.98629" lon="8.79085">
        <ele>919</ele>
        <time>2021-08-04T09:12:06.878Z</time>
      </trkpt>
      <trkpt lat="46.98628" lon="8.79087">
        <ele>919</ele>
        <time>2021-08-04T09:12:07.878Z</time>
      </trkpt>
      <trkpt lat="46.98627" lon="8.79088">
        <ele>919</ele>
        <time>2021-08-04T09:12:08.877Z</time>
      </trkpt>
      <trkpt lat="46.98626" lon="8.79088">
        <ele>918</ele>
        <time>2021-08-04T09:12:09.877Z</time>
      </trkpt>
      <trkpt lat="46.98625" lon="8.79089">
        <ele>918</ele>
        <time>2021-08-04T09:12:10.877Z</time>
      </trkpt>
      <trkpt lat="46.98624" lon="8.79091">
        <ele>919</ele>
        <time>2021-08-04T09:12:11.878Z</time>
      </trkpt>
      <trkpt lat="46.98623" lon="8.79092">
        <ele>919</ele>
        <time>2021-08-04T09:12:12.877Z</time>
      </trkpt>
      <trkpt lat="46.98622" lon="8.79094">
        <ele>919</ele>
        <time>2021-08-04T09:12:13.877Z</time>
      </trkpt>
      <trkpt lat="46.98622" lon="8.79095">
        <ele>920</ele>
        <time>2021-08-04T09:12:14.877Z</time>
      </trkpt>
      <trkpt lat="46.98621" lon="8.79097">
        <ele>920</ele>
        <time>2021-08-04T09:12:15.877Z</time>
      </trkpt>
      <trkpt lat="46.98621" lon="8.79098">
        <ele>920</ele>
        <time>2021-08-04T09:12:16.877Z</time>
      </trkpt>
      <trkpt lat="46.9862" lon="8.79099">
        <ele>920</ele>
        <time>2021-08-04T09:12:17.877Z</time>
      </trkpt>
      <trkpt lat="46.98618" lon="8.79101">
        <ele>920</ele>
        <time>2021-08-04T09:12:18.878Z</time>
      </trkpt>
      <trkpt lat="46.98617" lon="8.79102">
        <ele>920</ele>
        <time>2021-08-04T09:12:19.878Z</time>
      </trkpt>
      <trkpt lat="46.98617" lon="8.79103">
        <ele>920</ele>
        <time>2021-08-04T09:12:20.877Z</time>
      </trkpt>
      <trkpt lat="46.98617" lon="8.79102">
        <ele>921</ele>
        <time>2021-08-04T09:12:21.877Z</time>
      </trkpt>
      <trkpt lat="46.98617" lon="8.79103">
        <ele>921</ele>
        <time>2021-08-04T09:12:22.877Z</time>
      </trkpt>
      <trkpt lat="46.98616" lon="8.79104">
        <ele>922</ele>
        <time>2021-08-04T09:12:23.878Z</time>
      </trkpt>
      <trkpt lat="46.98616" lon="8.79104">
        <ele>922</ele>
        <time>2021-08-04T09:12:24.877Z</time>
      </trkpt>
      <trkpt lat="46.98614" lon="8.79106">
        <ele>923</ele>
        <time>2021-08-04T09:12:25.877Z</time>
      </trkpt>
      <trkpt lat="46.98613" lon="8.79107">
        <ele>923</ele>
        <time>2021-08-04T09:12:26.877Z</time>
      </trkpt>
      <trkpt lat="46.98612" lon="8.79108">
        <ele>923</ele>
        <time>2021-08-04T09:12:27.878Z</time>
      </trkpt>
      <trkpt lat="46.98611" lon="8.79109">
        <ele>923</ele>
        <time>2021-08-04T09:12:28.877Z</time>
      </trkpt>
      <trkpt lat="46.98609" lon="8.79111">
        <ele>923</ele>
        <time>2021-08-04T09:12:29.878Z</time>
      </trkpt>
      <trkpt lat="46.98608" lon="8.79113">
        <ele>924</ele>
        <time>2021-08-04T09:12:30.878Z</time>
      </trkpt>
      <trkpt lat="46.98607" lon="8.79114">
        <ele>924</ele>
        <time>2021-08-04T09:12:31.878Z</time>
      </trkpt>
      <trkpt lat="46.98606" lon="8.79115">
        <ele>924</ele>
        <time>2021-08-04T09:12:32.878Z</time>
      </trkpt>
      <trkpt lat="46.98605" lon="8.79116">
        <ele>924</ele>
        <time>2021-08-04T09:12:33.878Z</time>
      </trkpt>
      <trkpt lat="46.98604" lon="8.79117">
        <ele>925</ele>
        <time>2021-08-04T09:12:34.878Z</time>
      </trkpt>
      <trkpt lat="46.98603" lon="8.79118">
        <ele>925</ele>
        <time>2021-08-04T09:12:35.877Z</time>
      </trkpt>
      <trkpt lat="46.98602" lon="8.79118">
        <ele>925</ele>
        <time>2021-08-04T09:12:36.877Z</time>
      </trkpt>
      <trkpt lat="46.986" lon="8.79119">
        <ele>925</ele>
        <time>2021-08-04T09:12:37.878Z</time>
      </trkpt>
      <trkpt lat="46.98599" lon="8.7912">
        <ele>925</ele>
        <time>2021-08-04T09:12:38.878Z</time>
      </trkpt>
      <trkpt lat="46.98598" lon="8.7912">
        <ele>925</ele>
        <time>2021-08-04T09:12:39.878Z</time>
      </trkpt>
      <trkpt lat="46.98597" lon="8.79121">
        <ele>925</ele>
        <time>2021-08-04T09:12:40.878Z</time>
      </trkpt>
      <trkpt lat="46.98596" lon="8.79122">
        <ele>925</ele>
        <time>2021-08-04T09:12:41.878Z</time>
      </trkpt>
      <trkpt lat="46.98594" lon="8.79122">
        <ele>925</ele>
        <time>2021-08-04T09:12:42.878Z</time>
      </trkpt>
      <trkpt lat="46.98593" lon="8.79123">
        <ele>925</ele>
        <time>2021-08-04T09:12:43.877Z</time>
      </trkpt>
      <trkpt lat="46.98592" lon="8.79124">
        <ele>925</ele>
        <time>2021-08-04T09:12:44.877Z</time>
      </trkpt>
      <trkpt lat="46.98591" lon="8.79125">
        <ele>925</ele>
        <time>2021-08-04T09:12:45.877Z</time>
      </trkpt>
      <trkpt lat="46.98589" lon="8.79125">
        <ele>925</ele>
        <time>2021-08-04T09:12:46.878Z</time>
      </trkpt>
      <trkpt lat="46.98588" lon="8.79126">
        <ele>926</ele>
        <time>2021-08-04T09:12:47.878Z</time>
      </trkpt>
      <trkpt lat="46.98587" lon="8.79126">
        <ele>926</ele>
        <time>2021-08-04T09:12:48.878Z</time>
      </trkpt>
      <trkpt lat="46.98585" lon="8.79125">
        <ele>926</ele>
        <time>2021-08-04T09:12:49.877Z</time>
      </trkpt>
      <trkpt lat="46.98584" lon="8.79124">
        <ele>926</ele>
        <time>2021-08-04T09:12:50.878Z</time>
      </trkpt>
      <trkpt lat="46.98583" lon="8.79123">
        <ele>927</ele>
        <time>2021-08-04T09:12:51.878Z</time>
      </trkpt>
      <trkpt lat="46.98582" lon="8.79122">
        <ele>927</ele>
        <time>2021-08-04T09:12:52.878Z</time>
      </trkpt>
      <trkpt lat="46.98582" lon="8.7912">
        <ele>927</ele>
        <time>2021-08-04T09:12:53.878Z</time>
      </trkpt>
      <trkpt lat="46.9858" lon="8.79117">
        <ele>927</ele>
        <time>2021-08-04T09:12:54.878Z</time>
      </trkpt>
      <trkpt lat="46.98578" lon="8.79114">
        <ele>928</ele>
        <time>2021-08-04T09:12:55.878Z</time>
      </trkpt>
      <trkpt lat="46.98577" lon="8.79112">
        <ele>928</ele>
        <time>2021-08-04T09:12:56.878Z</time>
      </trkpt>
      <trkpt lat="46.98577" lon="8.79109">
        <ele>928</ele>
        <time>2021-08-04T09:12:57.877Z</time>
      </trkpt>
      <trkpt lat="46.98577" lon="8.79107">
        <ele>928</ele>
        <time>2021-08-04T09:12:58.877Z</time>
      </trkpt>
      <trkpt lat="46.98578" lon="8.79106">
        <ele>929</ele>
        <time>2021-08-04T09:12:59.878Z</time>
      </trkpt>
      <trkpt lat="46.98578" lon="8.79104">
        <ele>929</ele>
        <time>2021-08-04T09:13:00.878Z</time>
      </trkpt>
      <trkpt lat="46.98578" lon="8.79102">
        <ele>929</ele>
        <time>2021-08-04T09:13:01.878Z</time>
      </trkpt>
      <trkpt lat="46.98578" lon="8.791">
        <ele>929</ele>
        <time>2021-08-04T09:13:02.878Z</time>
      </trkpt>
      <trkpt lat="46.98578" lon="8.79099">
        <ele>929</ele>
        <time>2021-08-04T09:13:03.877Z</time>
      </trkpt>
      <trkpt lat="46.98579" lon="8.79097">
        <ele>929</ele>
        <time>2021-08-04T09:13:04.878Z</time>
      </trkpt>
      <trkpt lat="46.98579" lon="8.79096">
        <ele>928</ele>
        <time>2021-08-04T09:13:05.878Z</time>
      </trkpt>
      <trkpt lat="46.98579" lon="8.79094">
        <ele>928</ele>
        <time>2021-08-04T09:13:06.878Z</time>
      </trkpt>
      <trkpt lat="46.98579" lon="8.79092">
        <ele>928</ele>
        <time>2021-08-04T09:13:07.877Z</time>
      </trkpt>
      <trkpt lat="46.98579" lon="8.7909">
        <ele>928</ele>
        <time>2021-08-04T09:13:08.878Z</time>
      </trkpt>
      <trkpt lat="46.98579" lon="8.79088">
        <ele>928</ele>
        <time>2021-08-04T09:13:09.877Z</time>
      </trkpt>
      <trkpt lat="46.98579" lon="8.79086">
        <ele>928</ele>
        <time>2021-08-04T09:13:10.877Z</time>
      </trkpt>
      <trkpt lat="46.98579" lon="8.79084">
        <ele>927</ele>
        <time>2021-08-04T09:13:11.878Z</time>
      </trkpt>
      <trkpt lat="46.9858" lon="8.79083">
        <ele>926</ele>
        <time>2021-08-04T09:13:12.878Z</time>
      </trkpt>
      <trkpt lat="46.98581" lon="8.79081">
        <ele>926</ele>
        <time>2021-08-04T09:13:13.877Z</time>
      </trkpt>
      <trkpt lat="46.98581" lon="8.7908">
        <ele>925</ele>
        <time>2021-08-04T09:13:14.878Z</time>
      </trkpt>
      <trkpt lat="46.98582" lon="8.79078">
        <ele>925</ele>
        <time>2021-08-04T09:13:15.877Z</time>
      </trkpt>
      <trkpt lat="46.98582" lon="8.79076">
        <ele>924</ele>
        <time>2021-08-04T09:13:16.877Z</time>
      </trkpt>
      <trkpt lat="46.98582" lon="8.79074">
        <ele>923</ele>
        <time>2021-08-04T09:13:17.877Z</time>
      </trkpt>
      <trkpt lat="46.98583" lon="8.79072">
        <ele>922</ele>
        <time>2021-08-04T09:13:18.878Z</time>
      </trkpt>
      <trkpt lat="46.98583" lon="8.79069">
        <ele>921</ele>
        <time>2021-08-04T09:13:19.878Z</time>
      </trkpt>
      <trkpt lat="46.98584" lon="8.79067">
        <ele>921</ele>
        <time>2021-08-04T09:13:20.877Z</time>
      </trkpt>
      <trkpt lat="46.98584" lon="8.79065">
        <ele>920</ele>
        <time>2021-08-04T09:13:21.878Z</time>
      </trkpt>
      <trkpt lat="46.98584" lon="8.79063">
        <ele>920</ele>
        <time>2021-08-04T09:13:22.877Z</time>
      </trkpt>
      <trkpt lat="46.98584" lon="8.7906">
        <ele>920</ele>
        <time>2021-08-04T09:13:23.878Z</time>
      </trkpt>
      <trkpt lat="46.98584" lon="8.79058">
        <ele>920</ele>
        <time>2021-08-04T09:13:24.878Z</time>
      </trkpt>
      <trkpt lat="46.98585" lon="8.79056">
        <ele>920</ele>
        <time>2021-08-04T09:13:25.878Z</time>
      </trkpt>
      <trkpt lat="46.98585" lon="8.79054">
        <ele>919</ele>
        <time>2021-08-04T09:13:26.877Z</time>
      </trkpt>
      <trkpt lat="46.98584" lon="8.79052">
        <ele>919</ele>
        <time>2021-08-04T09:13:27.878Z</time>
      </trkpt>
      <trkpt lat="46.98584" lon="8.7905">
        <ele>919</ele>
        <time>2021-08-04T09:13:28.878Z</time>
      </trkpt>
      <trkpt lat="46.98584" lon="8.79048">
        <ele>919</ele>
        <time>2021-08-04T09:13:29.878Z</time>
      </trkpt>
      <trkpt lat="46.98584" lon="8.79046">
        <ele>919</ele>
        <time>2021-08-04T09:13:30.877Z</time>
      </trkpt>
      <trkpt lat="46.98584" lon="8.79044">
        <ele>918</ele>
        <time>2021-08-04T09:13:31.877Z</time>
      </trkpt>
      <trkpt lat="46.98583" lon="8.79043">
        <ele>918</ele>
        <time>2021-08-04T09:13:32.877Z</time>
      </trkpt>
      <trkpt lat="46.98582" lon="8.79041">
        <ele>918</ele>
        <time>2021-08-04T09:13:33.878Z</time>
      </trkpt>
      <trkpt lat="46.98582" lon="8.7904">
        <ele>918</ele>
        <time>2021-08-04T09:13:34.878Z</time>
      </trkpt>
      <trkpt lat="46.98581" lon="8.79038">
        <ele>918</ele>
        <time>2021-08-04T09:13:35.877Z</time>
      </trkpt>
      <trkpt lat="46.98581" lon="8.79036">
        <ele>918</ele>
        <time>2021-08-04T09:13:36.877Z</time>
      </trkpt>
      <trkpt lat="46.9858" lon="8.79034">
        <ele>918</ele>
        <time>2021-08-04T09:13:37.877Z</time>
      </trkpt>
      <trkpt lat="46.98579" lon="8.79033">
        <ele>918</ele>
        <time>2021-08-04T09:13:38.877Z</time>
      </trkpt>
      <trkpt lat="46.98578" lon="8.79032">
        <ele>918</ele>
        <time>2021-08-04T09:13:39.877Z</time>
      </trkpt>
      <trkpt lat="46.98577" lon="8.7903">
        <ele>918</ele>
        <time>2021-08-04T09:13:40.878Z</time>
      </trkpt>
      <trkpt lat="46.98576" lon="8.79028">
        <ele>918</ele>
        <time>2021-08-04T09:13:41.877Z</time>
      </trkpt>
      <trkpt lat="46.98575" lon="8.79026">
        <ele>918</ele>
        <time>2021-08-04T09:13:42.878Z</time>
      </trkpt>
      <trkpt lat="46.98574" lon="8.79025">
        <ele>919</ele>
        <time>2021-08-04T09:13:43.878Z</time>
      </trkpt>
      <trkpt lat="46.98573" lon="8.79024">
        <ele>919</ele>
        <time>2021-08-04T09:13:44.878Z</time>
      </trkpt>
      <trkpt lat="46.98572" lon="8.79023">
        <ele>919</ele>
        <time>2021-08-04T09:13:45.877Z</time>
      </trkpt>
      <trkpt lat="46.98571" lon="8.79022">
        <ele>918</ele>
        <time>2021-08-04T09:13:46.877Z</time>
      </trkpt>
      <trkpt lat="46.9857" lon="8.79021">
        <ele>918</ele>
        <time>2021-08-04T09:13:47.878Z</time>
      </trkpt>
      <trkpt lat="46.98569" lon="8.7902">
        <ele>918</ele>
        <time>2021-08-04T09:13:48.878Z</time>
      </trkpt>
      <trkpt lat="46.98568" lon="8.79019">
        <ele>917</ele>
        <time>2021-08-04T09:13:49.878Z</time>
      </trkpt>
      <trkpt lat="46.98568" lon="8.79018">
        <ele>917</ele>
        <time>2021-08-04T09:13:50.877Z</time>
      </trkpt>
      <trkpt lat="46.98567" lon="8.79016">
        <ele>917</ele>
        <time>2021-08-04T09:13:51.877Z</time>
      </trkpt>
      <trkpt lat="46.98566" lon="8.79015">
        <ele>917</ele>
        <time>2021-08-04T09:13:52.878Z</time>
      </trkpt>
      <trkpt lat="46.98564" lon="8.79014">
        <ele>917</ele>
        <time>2021-08-04T09:13:53.877Z</time>
      </trkpt>
      <trkpt lat="46.98563" lon="8.79012">
        <ele>917</ele>
        <time>2021-08-04T09:13:54.877Z</time>
      </trkpt>
      <trkpt lat="46.98562" lon="8.79011">
        <ele>917</ele>
        <time>2021-08-04T09:13:55.877Z</time>
      </trkpt>
      <trkpt lat="46.98561" lon="8.79009">
        <ele>917</ele>
        <time>2021-08-04T09:13:56.877Z</time>
      </trkpt>
      <trkpt lat="46.9856" lon="8.79008">
        <ele>917</ele>
        <time>2021-08-04T09:13:57.878Z</time>
      </trkpt>
      <trkpt lat="46.98559" lon="8.79006">
        <ele>917</ele>
        <time>2021-08-04T09:13:58.877Z</time>
      </trkpt>
      <trkpt lat="46.98558" lon="8.79004">
        <ele>918</ele>
        <time>2021-08-04T09:13:59.878Z</time>
      </trkpt>
      <trkpt lat="46.98557" lon="8.79002">
        <ele>918</ele>
        <time>2021-08-04T09:14:00.877Z</time>
      </trkpt>
      <trkpt lat="46.98556" lon="8.79001">
        <ele>919</ele>
        <time>2021-08-04T09:14:01.877Z</time>
      </trkpt>
      <trkpt lat="46.98556" lon="8.79">
        <ele>919</ele>
        <time>2021-08-04T09:14:02.877Z</time>
      </trkpt>
      <trkpt lat="46.98555" lon="8.78998">
        <ele>919</ele>
        <time>2021-08-04T09:14:03.877Z</time>
      </trkpt>
      <trkpt lat="46.98553" lon="8.78996">
        <ele>920</ele>
        <time>2021-08-04T09:14:04.877Z</time>
      </trkpt>
      <trkpt lat="46.98552" lon="8.78993">
        <ele>920</ele>
        <time>2021-08-04T09:14:05.877Z</time>
      </trkpt>
      <trkpt lat="46.98551" lon="8.78991">
        <ele>920</ele>
        <time>2021-08-04T09:14:06.877Z</time>
      </trkpt>
      <trkpt lat="46.9855" lon="8.78989">
        <ele>920</ele>
        <time>2021-08-04T09:14:07.877Z</time>
      </trkpt>
      <trkpt lat="46.98548" lon="8.78988">
        <ele>920</ele>
        <time>2021-08-04T09:14:08.877Z</time>
      </trkpt>
      <trkpt lat="46.98547" lon="8.78986">
        <ele>921</ele>
        <time>2021-08-04T09:14:09.877Z</time>
      </trkpt>
      <trkpt lat="46.98546" lon="8.78985">
        <ele>921</ele>
        <time>2021-08-04T09:14:10.877Z</time>
      </trkpt>
      <trkpt lat="46.98545" lon="8.78982">
        <ele>922</ele>
        <time>2021-08-04T09:14:11.877Z</time>
      </trkpt>
      <trkpt lat="46.98544" lon="8.7898">
        <ele>922</ele>
        <time>2021-08-04T09:14:12.877Z</time>
      </trkpt>
      <trkpt lat="46.98543" lon="8.78979">
        <ele>922</ele>
        <time>2021-08-04T09:14:13.877Z</time>
      </trkpt>
      <trkpt lat="46.98542" lon="8.78979">
        <ele>921</ele>
        <time>2021-08-04T09:14:14.877Z</time>
      </trkpt>
      <trkpt lat="46.98541" lon="8.78977">
        <ele>920</ele>
        <time>2021-08-04T09:14:15.878Z</time>
      </trkpt>
      <trkpt lat="46.98539" lon="8.78975">
        <ele>919</ele>
        <time>2021-08-04T09:14:16.878Z</time>
      </trkpt>
      <trkpt lat="46.98538" lon="8.78973">
        <ele>919</ele>
        <time>2021-08-04T09:14:17.878Z</time>
      </trkpt>
      <trkpt lat="46.98537" lon="8.78972">
        <ele>918</ele>
        <time>2021-08-04T09:14:18.878Z</time>
      </trkpt>
      <trkpt lat="46.98537" lon="8.7897">
        <ele>918</ele>
        <time>2021-08-04T09:14:19.878Z</time>
      </trkpt>
      <trkpt lat="46.98536" lon="8.78968">
        <ele>917</ele>
        <time>2021-08-04T09:14:20.878Z</time>
      </trkpt>
      <trkpt lat="46.98535" lon="8.78967">
        <ele>917</ele>
        <time>2021-08-04T09:14:21.878Z</time>
      </trkpt>
      <trkpt lat="46.98534" lon="8.78966">
        <ele>917</ele>
        <time>2021-08-04T09:14:22.878Z</time>
      </trkpt>
      <trkpt lat="46.98533" lon="8.78965">
        <ele>916</ele>
        <time>2021-08-04T09:14:23.877Z</time>
      </trkpt>
      <trkpt lat="46.98532" lon="8.78964">
        <ele>916</ele>
        <time>2021-08-04T09:14:24.878Z</time>
      </trkpt>
      <trkpt lat="46.98531" lon="8.78963">
        <ele>915</ele>
        <time>2021-08-04T09:14:25.878Z</time>
      </trkpt>
      <trkpt lat="46.9853" lon="8.78962">
        <ele>915</ele>
        <time>2021-08-04T09:14:26.878Z</time>
      </trkpt>
      <trkpt lat="46.98529" lon="8.7896">
        <ele>915</ele>
        <time>2021-08-04T09:14:27.878Z</time>
      </trkpt>
      <trkpt lat="46.98528" lon="8.78959">
        <ele>914</ele>
        <time>2021-08-04T09:14:28.878Z</time>
      </trkpt>
      <trkpt lat="46.98527" lon="8.78957">
        <ele>914</ele>
        <time>2021-08-04T09:14:29.878Z</time>
      </trkpt>
      <trkpt lat="46.98526" lon="8.78956">
        <ele>914</ele>
        <time>2021-08-04T09:14:30.877Z</time>
      </trkpt>
      <trkpt lat="46.98525" lon="8.78955">
        <ele>915</ele>
        <time>2021-08-04T09:14:31.877Z</time>
      </trkpt>
      <trkpt lat="46.98523" lon="8.78954">
        <ele>915</ele>
        <time>2021-08-04T09:14:32.878Z</time>
      </trkpt>
      <trkpt lat="46.98523" lon="8.78952">
        <ele>915</ele>
        <time>2021-08-04T09:14:33.878Z</time>
      </trkpt>
      <trkpt lat="46.98522" lon="8.78951">
        <ele>915</ele>
        <time>2021-08-04T09:14:34.878Z</time>
      </trkpt>
      <trkpt lat="46.98521" lon="8.7895">
        <ele>915</ele>
        <time>2021-08-04T09:14:35.877Z</time>
      </trkpt>
      <trkpt lat="46.9852" lon="8.78949">
        <ele>915</ele>
        <time>2021-08-04T09:14:36.878Z</time>
      </trkpt>
      <trkpt lat="46.98519" lon="8.78948">
        <ele>914</ele>
        <time>2021-08-04T09:14:37.877Z</time>
      </trkpt>
      <trkpt lat="46.98519" lon="8.78947">
        <ele>913</ele>
        <time>2021-08-04T09:14:38.877Z</time>
      </trkpt>
      <trkpt lat="46.98518" lon="8.78946">
        <ele>912</ele>
        <time>2021-08-04T09:14:39.878Z</time>
      </trkpt>
      <trkpt lat="46.98517" lon="8.78945">
        <ele>911</ele>
        <time>2021-08-04T09:14:40.878Z</time>
      </trkpt>
      <trkpt lat="46.98515" lon="8.78944">
        <ele>910</ele>
        <time>2021-08-04T09:14:41.877Z</time>
      </trkpt>
      <trkpt lat="46.98515" lon="8.78942">
        <ele>909</ele>
        <time>2021-08-04T09:14:42.878Z</time>
      </trkpt>
      <trkpt lat="46.98514" lon="8.7894">
        <ele>909</ele>
        <time>2021-08-04T09:14:43.877Z</time>
      </trkpt>
      <trkpt lat="46.98513" lon="8.78939">
        <ele>908</ele>
        <time>2021-08-04T09:14:44.878Z</time>
      </trkpt>
      <trkpt lat="46.98512" lon="8.78937">
        <ele>908</ele>
        <time>2021-08-04T09:14:45.878Z</time>
      </trkpt>
      <trkpt lat="46.98511" lon="8.78935">
        <ele>908</ele>
        <time>2021-08-04T09:14:46.878Z</time>
      </trkpt>
      <trkpt lat="46.9851" lon="8.78933">
        <ele>908</ele>
        <time>2021-08-04T09:14:47.877Z</time>
      </trkpt>
      <trkpt lat="46.98509" lon="8.78932">
        <ele>908</ele>
        <time>2021-08-04T09:14:48.878Z</time>
      </trkpt>
      <trkpt lat="46.98509" lon="8.78931">
        <ele>908</ele>
        <time>2021-08-04T09:14:49.877Z</time>
      </trkpt>
      <trkpt lat="46.98508" lon="8.78929">
        <ele>908</ele>
        <time>2021-08-04T09:14:50.877Z</time>
      </trkpt>
      <trkpt lat="46.98507" lon="8.78928">
        <ele>908</ele>
        <time>2021-08-04T09:14:51.878Z</time>
      </trkpt>
      <trkpt lat="46.98506" lon="8.78927">
        <ele>908</ele>
        <time>2021-08-04T09:14:52.878Z</time>
      </trkpt>
      <trkpt lat="46.98506" lon="8.78926">
        <ele>907</ele>
        <time>2021-08-04T09:14:53.878Z</time>
      </trkpt>
      <trkpt lat="46.98505" lon="8.78926">
        <ele>907</ele>
        <time>2021-08-04T09:14:54.878Z</time>
      </trkpt>
      <trkpt lat="46.98504" lon="8.78925">
        <ele>907</ele>
        <time>2021-08-04T09:14:55.877Z</time>
      </trkpt>
      <trkpt lat="46.98503" lon="8.78923">
        <ele>907</ele>
        <time>2021-08-04T09:14:56.877Z</time>
      </trkpt>
      <trkpt lat="46.98502" lon="8.78922">
        <ele>907</ele>
        <time>2021-08-04T09:14:57.877Z</time>
      </trkpt>
      <trkpt lat="46.98502" lon="8.78921">
        <ele>907</ele>
        <time>2021-08-04T09:14:58.878Z</time>
      </trkpt>
      <trkpt lat="46.98501" lon="8.7892">
        <ele>907</ele>
        <time>2021-08-04T09:14:59.878Z</time>
      </trkpt>
      <trkpt lat="46.985" lon="8.78918">
        <ele>907</ele>
        <time>2021-08-04T09:15:00.878Z</time>
      </trkpt>
      <trkpt lat="46.98498" lon="8.78916">
        <ele>907</ele>
        <time>2021-08-04T09:15:01.877Z</time>
      </trkpt>
      <trkpt lat="46.98498" lon="8.78915">
        <ele>907</ele>
        <time>2021-08-04T09:15:02.877Z</time>
      </trkpt>
      <trkpt lat="46.98497" lon="8.78914">
        <ele>906</ele>
        <time>2021-08-04T09:15:03.877Z</time>
      </trkpt>
      <trkpt lat="46.98496" lon="8.78913">
        <ele>906</ele>
        <time>2021-08-04T09:15:04.878Z</time>
      </trkpt>
      <trkpt lat="46.98494" lon="8.78912">
        <ele>906</ele>
        <time>2021-08-04T09:15:05.877Z</time>
      </trkpt>
      <trkpt lat="46.98494" lon="8.78911">
        <ele>906</ele>
        <time>2021-08-04T09:15:06.878Z</time>
      </trkpt>
      <trkpt lat="46.98493" lon="8.7891">
        <ele>906</ele>
        <time>2021-08-04T09:15:07.878Z</time>
      </trkpt>
      <trkpt lat="46.98492" lon="8.78909">
        <ele>906</ele>
        <time>2021-08-04T09:15:08.878Z</time>
      </trkpt>
      <trkpt lat="46.98492" lon="8.78908">
        <ele>906</ele>
        <time>2021-08-04T09:15:09.878Z</time>
      </trkpt>
      <trkpt lat="46.9849" lon="8.78907">
        <ele>906</ele>
        <time>2021-08-04T09:15:10.878Z</time>
      </trkpt>
      <trkpt lat="46.98489" lon="8.78906">
        <ele>906</ele>
        <time>2021-08-04T09:15:11.877Z</time>
      </trkpt>
      <trkpt lat="46.98488" lon="8.78905">
        <ele>906</ele>
        <time>2021-08-04T09:15:12.877Z</time>
      </trkpt>
      <trkpt lat="46.98487" lon="8.78904">
        <ele>906</ele>
        <time>2021-08-04T09:15:13.878Z</time>
      </trkpt>
      <trkpt lat="46.98487" lon="8.78904">
        <ele>906</ele>
        <time>2021-08-04T09:15:14.878Z</time>
      </trkpt>
      <trkpt lat="46.98486" lon="8.78903">
        <ele>906</ele>
        <time>2021-08-04T09:15:15.877Z</time>
      </trkpt>
      <trkpt lat="46.98485" lon="8.78902">
        <ele>905</ele>
        <time>2021-08-04T09:15:16.877Z</time>
      </trkpt>
      <trkpt lat="46.98484" lon="8.78901">
        <ele>905</ele>
        <time>2021-08-04T09:15:17.877Z</time>
      </trkpt>
      <trkpt lat="46.98483" lon="8.789">
        <ele>905</ele>
        <time>2021-08-04T09:15:18.877Z</time>
      </trkpt>
      <trkpt lat="46.98481" lon="8.78899">
        <ele>905</ele>
        <time>2021-08-04T09:15:19.878Z</time>
      </trkpt>
      <trkpt lat="46.9848" lon="8.78898">
        <ele>905</ele>
        <time>2021-08-04T09:15:20.878Z</time>
      </trkpt>
      <trkpt lat="46.98479" lon="8.78897">
        <ele>905</ele>
        <time>2021-08-04T09:15:21.877Z</time>
      </trkpt>
      <trkpt lat="46.98478" lon="8.78896">
        <ele>905</ele>
        <time>2021-08-04T09:15:22.878Z</time>
      </trkpt>
      <trkpt lat="46.98477" lon="8.78896">
        <ele>905</ele>
        <time>2021-08-04T09:15:23.877Z</time>
      </trkpt>
      <trkpt lat="46.98476" lon="8.78895">
        <ele>905</ele>
        <time>2021-08-04T09:15:24.878Z</time>
      </trkpt>
      <trkpt lat="46.98476" lon="8.78895">
        <ele>904</ele>
        <time>2021-08-04T09:15:25.878Z</time>
      </trkpt>
      <trkpt lat="46.98475" lon="8.78894">
        <ele>904</ele>
        <time>2021-08-04T09:15:26.877Z</time>
      </trkpt>
      <trkpt lat="46.98475" lon="8.78893">
        <ele>903</ele>
        <time>2021-08-04T09:15:27.878Z</time>
      </trkpt>
      <trkpt lat="46.98474" lon="8.78893">
        <ele>903</ele>
        <time>2021-08-04T09:15:28.877Z</time>
      </trkpt>
      <trkpt lat="46.98473" lon="8.78892">
        <ele>902</ele>
        <time>2021-08-04T09:15:29.878Z</time>
      </trkpt>
      <trkpt lat="46.98472" lon="8.78892">
        <ele>901</ele>
        <time>2021-08-04T09:15:30.878Z</time>
      </trkpt>
      <trkpt lat="46.98471" lon="8.78891">
        <ele>901</ele>
        <time>2021-08-04T09:15:31.877Z</time>
      </trkpt>
      <trkpt lat="46.9847" lon="8.78891">
        <ele>901</ele>
        <time>2021-08-04T09:15:32.878Z</time>
      </trkpt>
      <trkpt lat="46.98468" lon="8.78891">
        <ele>900</ele>
        <time>2021-08-04T09:15:33.877Z</time>
      </trkpt>
      <trkpt lat="46.98467" lon="8.7889">
        <ele>900</ele>
        <time>2021-08-04T09:15:34.878Z</time>
      </trkpt>
      <trkpt lat="46.98465" lon="8.7889">
        <ele>900</ele>
        <time>2021-08-04T09:15:35.878Z</time>
      </trkpt>
      <trkpt lat="46.98464" lon="8.7889">
        <ele>900</ele>
        <time>2021-08-04T09:15:36.877Z</time>
      </trkpt>
      <trkpt lat="46.98463" lon="8.78889">
        <ele>900</ele>
        <time>2021-08-04T09:15:37.877Z</time>
      </trkpt>
      <trkpt lat="46.98462" lon="8.78888">
        <ele>901</ele>
        <time>2021-08-04T09:15:38.878Z</time>
      </trkpt>
      <trkpt lat="46.98461" lon="8.78887">
        <ele>901</ele>
        <time>2021-08-04T09:15:39.878Z</time>
      </trkpt>
      <trkpt lat="46.9846" lon="8.78886">
        <ele>901</ele>
        <time>2021-08-04T09:15:40.878Z</time>
      </trkpt>
      <trkpt lat="46.98459" lon="8.78885">
        <ele>901</ele>
        <time>2021-08-04T09:15:41.877Z</time>
      </trkpt>
      <trkpt lat="46.98458" lon="8.78885">
        <ele>902</ele>
        <time>2021-08-04T09:15:42.878Z</time>
      </trkpt>
      <trkpt lat="46.98458" lon="8.78884">
        <ele>902</ele>
        <time>2021-08-04T09:15:43.878Z</time>
      </trkpt>
      <trkpt lat="46.98457" lon="8.78884">
        <ele>902</ele>
        <time>2021-08-04T09:15:44.877Z</time>
      </trkpt>
      <trkpt lat="46.98456" lon="8.78883">
        <ele>902</ele>
        <time>2021-08-04T09:15:45.877Z</time>
      </trkpt>
      <trkpt lat="46.98455" lon="8.78883">
        <ele>902</ele>
        <time>2021-08-04T09:15:46.877Z</time>
      </trkpt>
      <trkpt lat="46.98454" lon="8.78883">
        <ele>903</ele>
        <time>2021-08-04T09:15:47.878Z</time>
      </trkpt>
      <trkpt lat="46.98454" lon="8.78883">
        <ele>903</ele>
        <time>2021-08-04T09:15:48.878Z</time>
      </trkpt>
      <trkpt lat="46.98453" lon="8.78882">
        <ele>903</ele>
        <time>2021-08-04T09:15:49.878Z</time>
      </trkpt>
      <trkpt lat="46.98458" lon="8.7888">
        <ele>903</ele>
        <time>2021-08-04T09:15:50.879Z</time>
      </trkpt>
      <trkpt lat="46.98458" lon="8.7888">
        <ele>901</ele>
        <time>2021-08-04T09:15:51.879Z</time>
      </trkpt>
      <trkpt lat="46.98462" lon="8.78881">
        <ele>892</ele>
        <time>2021-08-04T09:15:52.878Z</time>
      </trkpt>
      <trkpt lat="46.98462" lon="8.78881">
        <ele>892</ele>
        <time>2021-08-04T09:15:53.878Z</time>
      </trkpt>
      <trkpt lat="46.98462" lon="8.78881">
        <ele>891</ele>
        <time>2021-08-04T09:15:54.878Z</time>
      </trkpt>
      <trkpt lat="46.98462" lon="8.78881">
        <ele>890</ele>
        <time>2021-08-04T09:15:55.879Z</time>
      </trkpt>
      <trkpt lat="46.98462" lon="8.78881">
        <ele>888</ele>
        <time>2021-08-04T09:15:56.879Z</time>
      </trkpt>
      <trkpt lat="46.98462" lon="8.78881">
        <ele>888</ele>
        <time>2021-08-04T09:15:57.879Z</time>
      </trkpt>
      <trkpt lat="46.98461" lon="8.78877">
        <ele>890</ele>
        <time>2021-08-04T09:15:58.880Z</time>
      </trkpt>
      <trkpt lat="46.9846" lon="8.78877">
        <ele>890</ele>
        <time>2021-08-04T09:15:59.880Z</time>
      </trkpt>
      <trkpt lat="46.9846" lon="8.78877">
        <ele>891</ele>
        <time>2021-08-04T09:16:00.881Z</time>
      </trkpt>
      <trkpt lat="46.98459" lon="8.78876">
        <ele>891</ele>
        <time>2021-08-04T09:16:01.880Z</time>
      </trkpt>
      <trkpt lat="46.98459" lon="8.78876">
        <ele>892</ele>
        <time>2021-08-04T09:16:02.880Z</time>
      </trkpt>
      <trkpt lat="46.98459" lon="8.78875">
        <ele>893</ele>
        <time>2021-08-04T09:16:03.880Z</time>
      </trkpt>
      <trkpt lat="46.98464" lon="8.78875">
        <ele>886</ele>
        <time>2021-08-04T09:16:04.881Z</time>
      </trkpt>
      <trkpt lat="46.98464" lon="8.78875">
        <ele>886</ele>
        <time>2021-08-04T09:16:05.881Z</time>
      </trkpt>
      <trkpt lat="46.98464" lon="8.78875">
        <ele>886</ele>
        <time>2021-08-04T09:16:06.881Z</time>
      </trkpt>
      <trkpt lat="46.98464" lon="8.78874">
        <ele>886</ele>
        <time>2021-08-04T09:16:07.880Z</time>
      </trkpt>
      <trkpt lat="46.98464" lon="8.78874">
        <ele>886</ele>
        <time>2021-08-04T09:16:08.880Z</time>
      </trkpt>
      <trkpt lat="46.98464" lon="8.78874">
        <ele>886</ele>
        <time>2021-08-04T09:16:09.881Z</time>
      </trkpt>
      <trkpt lat="46.98463" lon="8.78874">
        <ele>889</ele>
        <time>2021-08-04T09:16:10.881Z</time>
      </trkpt>
      <trkpt lat="46.98462" lon="8.78873">
        <ele>889</ele>
        <time>2021-08-04T09:16:11.880Z</time>
      </trkpt>
      <trkpt lat="46.98462" lon="8.78873">
        <ele>890</ele>
        <time>2021-08-04T09:16:12.880Z</time>
      </trkpt>
      <trkpt lat="46.98462" lon="8.78873">
        <ele>890</ele>
        <time>2021-08-04T09:16:13.880Z</time>
      </trkpt>
      <trkpt lat="46.98463" lon="8.78875">
        <ele>896</ele>
        <time>2021-08-04T09:16:14.881Z</time>
      </trkpt>
      <trkpt lat="46.98463" lon="8.78875">
        <ele>896</ele>
        <time>2021-08-04T09:16:15.882Z</time>
      </trkpt>
      <trkpt lat="46.98463" lon="8.78874">
        <ele>895</ele>
        <time>2021-08-04T09:16:16.881Z</time>
      </trkpt>
      <trkpt lat="46.98463" lon="8.78873">
        <ele>895</ele>
        <time>2021-08-04T09:16:17.882Z</time>
      </trkpt>
      <trkpt lat="46.98463" lon="8.78873">
        <ele>895</ele>
        <time>2021-08-04T09:16:18.881Z</time>
      </trkpt>
      <trkpt lat="46.98463" lon="8.78873">
        <ele>895</ele>
        <time>2021-08-04T09:16:19.882Z</time>
      </trkpt>
      <trkpt lat="46.98463" lon="8.78873">
        <ele>895</ele>
        <time>2021-08-04T09:16:20.882Z</time>
      </trkpt>
      <trkpt lat="46.98462" lon="8.78873">
        <ele>896</ele>
        <time>2021-08-04T09:16:21.881Z</time>
      </trkpt>
      <trkpt lat="46.98462" lon="8.78873">
        <ele>896</ele>
        <time>2021-08-04T09:16:22.881Z</time>
      </trkpt>
      <trkpt lat="46.98461" lon="8.78874">
        <ele>896</ele>
        <time>2021-08-04T09:16:23.882Z</time>
      </trkpt>
      <trkpt lat="46.9846" lon="8.78874">
        <ele>897</ele>
        <time>2021-08-04T09:16:24.882Z</time>
      </trkpt>
      <trkpt lat="46.98459" lon="8.78873">
        <ele>898</ele>
        <time>2021-08-04T09:16:25.883Z</time>
      </trkpt>
      <trkpt lat="46.98458" lon="8.78873">
        <ele>898</ele>
        <time>2021-08-04T09:16:26.883Z</time>
      </trkpt>
      <trkpt lat="46.98458" lon="8.78871">
        <ele>899</ele>
        <time>2021-08-04T09:16:27.882Z</time>
      </trkpt>
      <trkpt lat="46.98457" lon="8.78871">
        <ele>899</ele>
        <time>2021-08-04T09:16:28.882Z</time>
      </trkpt>
      <trkpt lat="46.98456" lon="8.7887">
        <ele>899</ele>
        <time>2021-08-04T09:16:29.883Z</time>
      </trkpt>
      <trkpt lat="46.98455" lon="8.78869">
        <ele>900</ele>
        <time>2021-08-04T09:16:30.883Z</time>
      </trkpt>
      <trkpt lat="46.98453" lon="8.78869">
        <ele>900</ele>
        <time>2021-08-04T09:16:31.883Z</time>
      </trkpt>
      <trkpt lat="46.98452" lon="8.78869">
        <ele>900</ele>
        <time>2021-08-04T09:16:32.883Z</time>
      </trkpt>
      <trkpt lat="46.9845" lon="8.78869">
        <ele>900</ele>
        <time>2021-08-04T09:16:33.883Z</time>
      </trkpt>
      <trkpt lat="46.98449" lon="8.7887">
        <ele>901</ele>
        <time>2021-08-04T09:16:34.883Z</time>
      </trkpt>
      <trkpt lat="46.98447" lon="8.78869">
        <ele>901</ele>
        <time>2021-08-04T09:16:35.883Z</time>
      </trkpt>
      <trkpt lat="46.98445" lon="8.78869">
        <ele>902</ele>
        <time>2021-08-04T09:16:36.883Z</time>
      </trkpt>
      <trkpt lat="46.98444" lon="8.78868">
        <ele>902</ele>
        <time>2021-08-04T09:16:37.883Z</time>
      </trkpt>
      <trkpt lat="46.98444" lon="8.78868">
        <ele>903</ele>
        <time>2021-08-04T09:16:38.883Z</time>
      </trkpt>
      <trkpt lat="46.98443" lon="8.78867">
        <ele>904</ele>
        <time>2021-08-04T09:16:39.882Z</time>
      </trkpt>
      <trkpt lat="46.9844" lon="8.78866">
        <ele>904</ele>
        <time>2021-08-04T09:16:40.882Z</time>
      </trkpt>
      <trkpt lat="46.98439" lon="8.78865">
        <ele>905</ele>
        <time>2021-08-04T09:16:41.882Z</time>
      </trkpt>
      <trkpt lat="46.98439" lon="8.78864">
        <ele>905</ele>
        <time>2021-08-04T09:16:42.883Z</time>
      </trkpt>
      <trkpt lat="46.98438" lon="8.78864">
        <ele>906</ele>
        <time>2021-08-04T09:16:43.883Z</time>
      </trkpt>
      <trkpt lat="46.98437" lon="8.78863">
        <ele>906</ele>
        <time>2021-08-04T09:16:44.883Z</time>
      </trkpt>
      <trkpt lat="46.98436" lon="8.78863">
        <ele>906</ele>
        <time>2021-08-04T09:16:45.883Z</time>
      </trkpt>
      <trkpt lat="46.98436" lon="8.78862">
        <ele>906</ele>
        <time>2021-08-04T09:16:46.883Z</time>
      </trkpt>
      <trkpt lat="46.98434" lon="8.78862">
        <ele>906</ele>
        <time>2021-08-04T09:16:47.883Z</time>
      </trkpt>
      <trkpt lat="46.98434" lon="8.78862">
        <ele>907</ele>
        <time>2021-08-04T09:16:48.883Z</time>
      </trkpt>
      <trkpt lat="46.98433" lon="8.78862">
        <ele>907</ele>
        <time>2021-08-04T09:16:49.882Z</time>
      </trkpt>
      <trkpt lat="46.98433" lon="8.78862">
        <ele>907</ele>
        <time>2021-08-04T09:16:50.882Z</time>
      </trkpt>
      <trkpt lat="46.98432" lon="8.78862">
        <ele>907</ele>
        <time>2021-08-04T09:16:51.882Z</time>
      </trkpt>
      <trkpt lat="46.98431" lon="8.78862">
        <ele>908</ele>
        <time>2021-08-04T09:16:52.882Z</time>
      </trkpt>
      <trkpt lat="46.98431" lon="8.78862">
        <ele>908</ele>
        <time>2021-08-04T09:16:53.882Z</time>
      </trkpt>
      <trkpt lat="46.9843" lon="8.78863">
        <ele>908</ele>
        <time>2021-08-04T09:16:54.882Z</time>
      </trkpt>
      <trkpt lat="46.98428" lon="8.78863">
        <ele>908</ele>
        <time>2021-08-04T09:16:55.883Z</time>
      </trkpt>
      <trkpt lat="46.98427" lon="8.78862">
        <ele>908</ele>
        <time>2021-08-04T09:16:56.882Z</time>
      </trkpt>
      <trkpt lat="46.98426" lon="8.78862">
        <ele>907</ele>
        <time>2021-08-04T09:16:57.883Z</time>
      </trkpt>
      <trkpt lat="46.98425" lon="8.78862">
        <ele>907</ele>
        <time>2021-08-04T09:16:58.883Z</time>
      </trkpt>
      <trkpt lat="46.98423" lon="8.78863">
        <ele>906</ele>
        <time>2021-08-04T09:16:59.882Z</time>
      </trkpt>
      <trkpt lat="46.98422" lon="8.78862">
        <ele>906</ele>
        <time>2021-08-04T09:17:00.883Z</time>
      </trkpt>
      <trkpt lat="46.98421" lon="8.78863">
        <ele>905</ele>
        <time>2021-08-04T09:17:01.882Z</time>
      </trkpt>
      <trkpt lat="46.98419" lon="8.78862">
        <ele>905</ele>
        <time>2021-08-04T09:17:02.883Z</time>
      </trkpt>
      <trkpt lat="46.98418" lon="8.78863">
        <ele>905</ele>
        <time>2021-08-04T09:17:03.882Z</time>
      </trkpt>
      <trkpt lat="46.98417" lon="8.78863">
        <ele>904</ele>
        <time>2021-08-04T09:17:04.882Z</time>
      </trkpt>
      <trkpt lat="46.98417" lon="8.78863">
        <ele>904</ele>
        <time>2021-08-04T09:17:05.882Z</time>
      </trkpt>
      <trkpt lat="46.98416" lon="8.78864">
        <ele>905</ele>
        <time>2021-08-04T09:17:06.883Z</time>
      </trkpt>
      <trkpt lat="46.98415" lon="8.78864">
        <ele>905</ele>
        <time>2021-08-04T09:17:07.882Z</time>
      </trkpt>
      <trkpt lat="46.98415" lon="8.78863">
        <ele>905</ele>
        <time>2021-08-04T09:17:08.882Z</time>
      </trkpt>
      <trkpt lat="46.98414" lon="8.78862">
        <ele>905</ele>
        <time>2021-08-04T09:17:09.882Z</time>
      </trkpt>
      <trkpt lat="46.98413" lon="8.78862">
        <ele>905</ele>
        <time>2021-08-04T09:17:10.882Z</time>
      </trkpt>
      <trkpt lat="46.98412" lon="8.78862">
        <ele>905</ele>
        <time>2021-08-04T09:17:11.882Z</time>
      </trkpt>
      <trkpt lat="46.98411" lon="8.78863">
        <ele>905</ele>
        <time>2021-08-04T09:17:12.882Z</time>
      </trkpt>
      <trkpt lat="46.98411" lon="8.78863">
        <ele>906</ele>
        <time>2021-08-04T09:17:13.882Z</time>
      </trkpt>
      <trkpt lat="46.9841" lon="8.78864">
        <ele>906</ele>
        <time>2021-08-04T09:17:14.882Z</time>
      </trkpt>
      <trkpt lat="46.9841" lon="8.78864">
        <ele>906</ele>
        <time>2021-08-04T09:17:15.882Z</time>
      </trkpt>
      <trkpt lat="46.9841" lon="8.78865">
        <ele>905</ele>
        <time>2021-08-04T09:17:16.883Z</time>
      </trkpt>
      <trkpt lat="46.98409" lon="8.78864">
        <ele>905</ele>
        <time>2021-08-04T09:17:17.883Z</time>
      </trkpt>
      <trkpt lat="46.98409" lon="8.78864">
        <ele>905</ele>
        <time>2021-08-04T09:17:18.882Z</time>
      </trkpt>
      <trkpt lat="46.98409" lon="8.78864">
        <ele>905</ele>
        <time>2021-08-04T09:17:19.882Z</time>
      </trkpt>
      <trkpt lat="46.98408" lon="8.78865">
        <ele>905</ele>
        <time>2021-08-04T09:17:20.882Z</time>
      </trkpt>
      <trkpt lat="46.98408" lon="8.78865">
        <ele>904</ele>
        <time>2021-08-04T09:17:21.883Z</time>
      </trkpt>
      <trkpt lat="46.98407" lon="8.78866">
        <ele>904</ele>
        <time>2021-08-04T09:17:22.882Z</time>
      </trkpt>
      <trkpt lat="46.98407" lon="8.78866">
        <ele>904</ele>
        <time>2021-08-04T09:17:23.882Z</time>
      </trkpt>
      <trkpt lat="46.98406" lon="8.78866">
        <ele>903</ele>
        <time>2021-08-04T09:17:24.882Z</time>
      </trkpt>
      <trkpt lat="46.98406" lon="8.78867">
        <ele>903</ele>
        <time>2021-08-04T09:17:25.882Z</time>
      </trkpt>
      <trkpt lat="46.98406" lon="8.78868">
        <ele>902</ele>
        <time>2021-08-04T09:17:26.883Z</time>
      </trkpt>
      <trkpt lat="46.98405" lon="8.78868">
        <ele>902</ele>
        <time>2021-08-04T09:17:27.882Z</time>
      </trkpt>
      <trkpt lat="46.98404" lon="8.78869">
        <ele>902</ele>
        <time>2021-08-04T09:17:28.882Z</time>
      </trkpt>
      <trkpt lat="46.98404" lon="8.78869">
        <ele>902</ele>
        <time>2021-08-04T09:17:29.883Z</time>
      </trkpt>
      <trkpt lat="46.98403" lon="8.78869">
        <ele>902</ele>
        <time>2021-08-04T09:17:30.882Z</time>
      </trkpt>
      <trkpt lat="46.98402" lon="8.7887">
        <ele>902</ele>
        <time>2021-08-04T09:17:31.882Z</time>
      </trkpt>
      <trkpt lat="46.98402" lon="8.7887">
        <ele>901</ele>
        <time>2021-08-04T09:17:32.882Z</time>
      </trkpt>
      <trkpt lat="46.98402" lon="8.78871">
        <ele>901</ele>
        <time>2021-08-04T09:17:33.882Z</time>
      </trkpt>
      <trkpt lat="46.98401" lon="8.78871">
        <ele>901</ele>
        <time>2021-08-04T09:17:34.882Z</time>
      </trkpt>
      <trkpt lat="46.98401" lon="8.78872">
        <ele>900</ele>
        <time>2021-08-04T09:17:35.883Z</time>
      </trkpt>
      <trkpt lat="46.984" lon="8.78873">
        <ele>900</ele>
        <time>2021-08-04T09:17:36.883Z</time>
      </trkpt>
      <trkpt lat="46.984" lon="8.78873">
        <ele>900</ele>
        <time>2021-08-04T09:17:37.883Z</time>
      </trkpt>
      <trkpt lat="46.98399" lon="8.78874">
        <ele>899</ele>
        <time>2021-08-04T09:17:38.882Z</time>
      </trkpt>
      <trkpt lat="46.98399" lon="8.78875">
        <ele>899</ele>
        <time>2021-08-04T09:17:39.882Z</time>
      </trkpt>
      <trkpt lat="46.98397" lon="8.78876">
        <ele>898</ele>
        <time>2021-08-04T09:17:40.882Z</time>
      </trkpt>
      <trkpt lat="46.98397" lon="8.78876">
        <ele>897</ele>
        <time>2021-08-04T09:17:41.882Z</time>
      </trkpt>
      <trkpt lat="46.98397" lon="8.78876">
        <ele>897</ele>
        <time>2021-08-04T09:17:42.883Z</time>
      </trkpt>
      <trkpt lat="46.98397" lon="8.78877">
        <ele>896</ele>
        <time>2021-08-04T09:17:43.883Z</time>
      </trkpt>
      <trkpt lat="46.98397" lon="8.78877">
        <ele>895</ele>
        <time>2021-08-04T09:17:44.883Z</time>
      </trkpt>
      <trkpt lat="46.98396" lon="8.78877">
        <ele>894</ele>
        <time>2021-08-04T09:17:45.882Z</time>
      </trkpt>
      <trkpt lat="46.98396" lon="8.78878">
        <ele>894</ele>
        <time>2021-08-04T09:17:46.883Z</time>
      </trkpt>
      <trkpt lat="46.98396" lon="8.78878">
        <ele>893</ele>
        <time>2021-08-04T09:17:47.883Z</time>
      </trkpt>
      <trkpt lat="46.98396" lon="8.78879">
        <ele>892</ele>
        <time>2021-08-04T09:17:48.883Z</time>
      </trkpt>
      <trkpt lat="46.98396" lon="8.78879">
        <ele>892</ele>
        <time>2021-08-04T09:17:49.883Z</time>
      </trkpt>
      <trkpt lat="46.98395" lon="8.7888">
        <ele>891</ele>
        <time>2021-08-04T09:17:50.883Z</time>
      </trkpt>
      <trkpt lat="46.98395" lon="8.78881">
        <ele>891</ele>
        <time>2021-08-04T09:17:51.882Z</time>
      </trkpt>
      <trkpt lat="46.98396" lon="8.78881">
        <ele>891</ele>
        <time>2021-08-04T09:17:52.882Z</time>
      </trkpt>
      <trkpt lat="46.98396" lon="8.78881">
        <ele>890</ele>
        <time>2021-08-04T09:17:53.883Z</time>
      </trkpt>
      <trkpt lat="46.98397" lon="8.78882">
        <ele>889</ele>
        <time>2021-08-04T09:17:54.883Z</time>
      </trkpt>
      <trkpt lat="46.98397" lon="8.78882">
        <ele>889</ele>
        <time>2021-08-04T09:17:55.883Z</time>
      </trkpt>
      <trkpt lat="46.98397" lon="8.78882">
        <ele>888</ele>
        <time>2021-08-04T09:17:56.882Z</time>
      </trkpt>
      <trkpt lat="46.98397" lon="8.78883">
        <ele>887</ele>
        <time>2021-08-04T09:17:57.883Z</time>
      </trkpt>
      <trkpt lat="46.98396" lon="8.78884">
        <ele>887</ele>
        <time>2021-08-04T09:17:58.882Z</time>
      </trkpt>
      <trkpt lat="46.98396" lon="8.78884">
        <ele>886</ele>
        <time>2021-08-04T09:17:59.883Z</time>
      </trkpt>
      <trkpt lat="46.98396" lon="8.78884">
        <ele>885</ele>
        <time>2021-08-04T09:18:00.882Z</time>
      </trkpt>
      <trkpt lat="46.98396" lon="8.78884">
        <ele>885</ele>
        <time>2021-08-04T09:18:01.882Z</time>
      </trkpt>
      <trkpt lat="46.98395" lon="8.78884">
        <ele>885</ele>
        <time>2021-08-04T09:18:02.882Z</time>
      </trkpt>
      <trkpt lat="46.98392" lon="8.78883">
        <ele>886</ele>
        <time>2021-08-04T09:18:03.882Z</time>
      </trkpt>
      <trkpt lat="46.98391" lon="8.78885">
        <ele>886</ele>
        <time>2021-08-04T09:18:04.882Z</time>
      </trkpt>
      <trkpt lat="46.98392" lon="8.78886">
        <ele>886</ele>
        <time>2021-08-04T09:18:05.882Z</time>
      </trkpt>
      <trkpt lat="46.98391" lon="8.78886">
        <ele>886</ele>
        <time>2021-08-04T09:18:06.882Z</time>
      </trkpt>
      <trkpt lat="46.98386" lon="8.78881">
        <ele>886</ele>
        <time>2021-08-04T09:18:07.884Z</time>
      </trkpt>
      <trkpt lat="46.98386" lon="8.78881">
        <ele>886</ele>
        <time>2021-08-04T09:18:08.883Z</time>
      </trkpt>
      <trkpt lat="46.98385" lon="8.78881">
        <ele>886</ele>
        <time>2021-08-04T09:18:09.884Z</time>
      </trkpt>
      <trkpt lat="46.98385" lon="8.78881">
        <ele>883</ele>
        <time>2021-08-04T09:18:10.884Z</time>
      </trkpt>
      <trkpt lat="46.98385" lon="8.7888">
        <ele>882</ele>
        <time>2021-08-04T09:18:11.884Z</time>
      </trkpt>
      <trkpt lat="46.98382" lon="8.78883">
        <ele>881</ele>
        <time>2021-08-04T09:18:12.885Z</time>
      </trkpt>
      <trkpt lat="46.98381" lon="8.78884">
        <ele>880</ele>
        <time>2021-08-04T09:18:13.885Z</time>
      </trkpt>
      <trkpt lat="46.98381" lon="8.78885">
        <ele>879</ele>
        <time>2021-08-04T09:18:14.885Z</time>
      </trkpt>
      <trkpt lat="46.9838" lon="8.78886">
        <ele>878</ele>
        <time>2021-08-04T09:18:15.885Z</time>
      </trkpt>
      <trkpt lat="46.98379" lon="8.78886">
        <ele>878</ele>
        <time>2021-08-04T09:18:16.885Z</time>
      </trkpt>
      <trkpt lat="46.98379" lon="8.78887">
        <ele>878</ele>
        <time>2021-08-04T09:18:17.885Z</time>
      </trkpt>
      <trkpt lat="46.98379" lon="8.78887">
        <ele>877</ele>
        <time>2021-08-04T09:18:18.885Z</time>
      </trkpt>
      <trkpt lat="46.98379" lon="8.78887">
        <ele>877</ele>
        <time>2021-08-04T09:18:19.885Z</time>
      </trkpt>
      <trkpt lat="46.98377" lon="8.78886">
        <ele>876</ele>
        <time>2021-08-04T09:18:20.884Z</time>
      </trkpt>
      <trkpt lat="46.98376" lon="8.78886">
        <ele>876</ele>
        <time>2021-08-04T09:18:21.884Z</time>
      </trkpt>
      <trkpt lat="46.98377" lon="8.78886">
        <ele>876</ele>
        <time>2021-08-04T09:18:22.885Z</time>
      </trkpt>
      <trkpt lat="46.98377" lon="8.78886">
        <ele>875</ele>
        <time>2021-08-04T09:18:23.884Z</time>
      </trkpt>
      <trkpt lat="46.98377" lon="8.78885">
        <ele>875</ele>
        <time>2021-08-04T09:18:24.885Z</time>
      </trkpt>
      <trkpt lat="46.98377" lon="8.78884">
        <ele>875</ele>
        <time>2021-08-04T09:18:25.885Z</time>
      </trkpt>
      <trkpt lat="46.98377" lon="8.78884">
        <ele>874</ele>
        <time>2021-08-04T09:18:26.885Z</time>
      </trkpt>
      <trkpt lat="46.98377" lon="8.78883">
        <ele>874</ele>
        <time>2021-08-04T09:18:27.885Z</time>
      </trkpt>
      <trkpt lat="46.98377" lon="8.78882">
        <ele>873</ele>
        <time>2021-08-04T09:18:28.885Z</time>
      </trkpt>
      <trkpt lat="46.98377" lon="8.78882">
        <ele>873</ele>
        <time>2021-08-04T09:18:29.885Z</time>
      </trkpt>
      <trkpt lat="46.98376" lon="8.78882">
        <ele>872</ele>
        <time>2021-08-04T09:18:30.885Z</time>
      </trkpt>
      <trkpt lat="46.98376" lon="8.78882">
        <ele>872</ele>
        <time>2021-08-04T09:18:31.884Z</time>
      </trkpt>
      <trkpt lat="46.98376" lon="8.78883">
        <ele>872</ele>
        <time>2021-08-04T09:18:32.885Z</time>
      </trkpt>
      <trkpt lat="46.98375" lon="8.78883">
        <ele>872</ele>
        <time>2021-08-04T09:18:33.884Z</time>
      </trkpt>
      <trkpt lat="46.98375" lon="8.78884">
        <ele>872</ele>
        <time>2021-08-04T09:18:34.885Z</time>
      </trkpt>
      <trkpt lat="46.98375" lon="8.78885">
        <ele>872</ele>
        <time>2021-08-04T09:18:35.884Z</time>
      </trkpt>
      <trkpt lat="46.98374" lon="8.78886">
        <ele>873</ele>
        <time>2021-08-04T09:18:36.884Z</time>
      </trkpt>
      <trkpt lat="46.98373" lon="8.78887">
        <ele>873</ele>
        <time>2021-08-04T09:18:37.884Z</time>
      </trkpt>
      <trkpt lat="46.98372" lon="8.78888">
        <ele>874</ele>
        <time>2021-08-04T09:18:38.884Z</time>
      </trkpt>
      <trkpt lat="46.98371" lon="8.78888">
        <ele>874</ele>
        <time>2021-08-04T09:18:39.885Z</time>
      </trkpt>
      <trkpt lat="46.9837" lon="8.78889">
        <ele>875</ele>
        <time>2021-08-04T09:18:40.885Z</time>
      </trkpt>
      <trkpt lat="46.98369" lon="8.78888">
        <ele>876</ele>
        <time>2021-08-04T09:18:41.884Z</time>
      </trkpt>
      <trkpt lat="46.98368" lon="8.78888">
        <ele>876</ele>
        <time>2021-08-04T09:18:42.885Z</time>
      </trkpt>
      <trkpt lat="46.98366" lon="8.78888">
        <ele>877</ele>
        <time>2021-08-04T09:18:43.884Z</time>
      </trkpt>
      <trkpt lat="46.98365" lon="8.78887">
        <ele>878</ele>
        <time>2021-08-04T09:18:44.885Z</time>
      </trkpt>
      <trkpt lat="46.98364" lon="8.78888">
        <ele>878</ele>
        <time>2021-08-04T09:18:45.885Z</time>
      </trkpt>
      <trkpt lat="46.98363" lon="8.78889">
        <ele>878</ele>
        <time>2021-08-04T09:18:46.884Z</time>
      </trkpt>
      <trkpt lat="46.98362" lon="8.7889">
        <ele>878</ele>
        <time>2021-08-04T09:18:47.884Z</time>
      </trkpt>
      <trkpt lat="46.98362" lon="8.78891">
        <ele>878</ele>
        <time>2021-08-04T09:18:48.885Z</time>
      </trkpt>
      <trkpt lat="46.98361" lon="8.78891">
        <ele>878</ele>
        <time>2021-08-04T09:18:49.884Z</time>
      </trkpt>
      <trkpt lat="46.98361" lon="8.78892">
        <ele>877</ele>
        <time>2021-08-04T09:18:50.884Z</time>
      </trkpt>
      <trkpt lat="46.9836" lon="8.78893">
        <ele>877</ele>
        <time>2021-08-04T09:18:51.885Z</time>
      </trkpt>
      <trkpt lat="46.98359" lon="8.78893">
        <ele>877</ele>
        <time>2021-08-04T09:18:52.885Z</time>
      </trkpt>
      <trkpt lat="46.98359" lon="8.78893">
        <ele>877</ele>
        <time>2021-08-04T09:18:53.885Z</time>
      </trkpt>
      <trkpt lat="46.98358" lon="8.78893">
        <ele>877</ele>
        <time>2021-08-04T09:18:54.885Z</time>
      </trkpt>
      <trkpt lat="46.98357" lon="8.78892">
        <ele>877</ele>
        <time>2021-08-04T09:18:55.885Z</time>
      </trkpt>
      <trkpt lat="46.98356" lon="8.78892">
        <ele>877</ele>
        <time>2021-08-04T09:18:56.885Z</time>
      </trkpt>
      <trkpt lat="46.98355" lon="8.78892">
        <ele>877</ele>
        <time>2021-08-04T09:18:57.885Z</time>
      </trkpt>
      <trkpt lat="46.98355" lon="8.78893">
        <ele>877</ele>
        <time>2021-08-04T09:18:58.884Z</time>
      </trkpt>
      <trkpt lat="46.98355" lon="8.78893">
        <ele>877</ele>
        <time>2021-08-04T09:18:59.885Z</time>
      </trkpt>
      <trkpt lat="46.98354" lon="8.78894">
        <ele>876</ele>
        <time>2021-08-04T09:19:00.884Z</time>
      </trkpt>
      <trkpt lat="46.98353" lon="8.78894">
        <ele>876</ele>
        <time>2021-08-04T09:19:01.884Z</time>
      </trkpt>
      <trkpt lat="46.98352" lon="8.78893">
        <ele>876</ele>
        <time>2021-08-04T09:19:02.884Z</time>
      </trkpt>
      <trkpt lat="46.98351" lon="8.78892">
        <ele>877</ele>
        <time>2021-08-04T09:19:03.884Z</time>
      </trkpt>
      <trkpt lat="46.9835" lon="8.78891">
        <ele>877</ele>
        <time>2021-08-04T09:19:04.885Z</time>
      </trkpt>
      <trkpt lat="46.98349" lon="8.78891">
        <ele>877</ele>
        <time>2021-08-04T09:19:05.884Z</time>
      </trkpt>
      <trkpt lat="46.98348" lon="8.78891">
        <ele>877</ele>
        <time>2021-08-04T09:19:06.885Z</time>
      </trkpt>
      <trkpt lat="46.98347" lon="8.78891">
        <ele>877</ele>
        <time>2021-08-04T09:19:07.885Z</time>
      </trkpt>
      <trkpt lat="46.98346" lon="8.78891">
        <ele>877</ele>
        <time>2021-08-04T09:19:08.884Z</time>
      </trkpt>
      <trkpt lat="46.98346" lon="8.78891">
        <ele>877</ele>
        <time>2021-08-04T09:19:09.885Z</time>
      </trkpt>
      <trkpt lat="46.98345" lon="8.78891">
        <ele>877</ele>
        <time>2021-08-04T09:19:10.884Z</time>
      </trkpt>
      <trkpt lat="46.98344" lon="8.78892">
        <ele>877</ele>
        <time>2021-08-04T09:19:11.885Z</time>
      </trkpt>
      <trkpt lat="46.98344" lon="8.78892">
        <ele>877</ele>
        <time>2021-08-04T09:19:12.884Z</time>
      </trkpt>
      <trkpt lat="46.98343" lon="8.78892">
        <ele>877</ele>
        <time>2021-08-04T09:19:13.885Z</time>
      </trkpt>
      <trkpt lat="46.98342" lon="8.78893">
        <ele>876</ele>
        <time>2021-08-04T09:19:14.884Z</time>
      </trkpt>
      <trkpt lat="46.98341" lon="8.78893">
        <ele>876</ele>
        <time>2021-08-04T09:19:15.884Z</time>
      </trkpt>
      <trkpt lat="46.9834" lon="8.78893">
        <ele>876</ele>
        <time>2021-08-04T09:19:16.884Z</time>
      </trkpt>
      <trkpt lat="46.98339" lon="8.78894">
        <ele>876</ele>
        <time>2021-08-04T09:19:17.885Z</time>
      </trkpt>
      <trkpt lat="46.98339" lon="8.78894">
        <ele>875</ele>
        <time>2021-08-04T09:19:18.884Z</time>
      </trkpt>
      <trkpt lat="46.98339" lon="8.78895">
        <ele>875</ele>
        <time>2021-08-04T09:19:19.884Z</time>
      </trkpt>
      <trkpt lat="46.98338" lon="8.78895">
        <ele>875</ele>
        <time>2021-08-04T09:19:20.884Z</time>
      </trkpt>
      <trkpt lat="46.98338" lon="8.78895">
        <ele>874</ele>
        <time>2021-08-04T09:19:21.885Z</time>
      </trkpt>
      <trkpt lat="46.98337" lon="8.78896">
        <ele>874</ele>
        <time>2021-08-04T09:19:22.884Z</time>
      </trkpt>
      <trkpt lat="46.98336" lon="8.78896">
        <ele>873</ele>
        <time>2021-08-04T09:19:23.885Z</time>
      </trkpt>
      <trkpt lat="46.98336" lon="8.78896">
        <ele>873</ele>
        <time>2021-08-04T09:19:24.885Z</time>
      </trkpt>
      <trkpt lat="46.98335" lon="8.78896">
        <ele>872</ele>
        <time>2021-08-04T09:19:25.885Z</time>
      </trkpt>
      <trkpt lat="46.98334" lon="8.78896">
        <ele>871</ele>
        <time>2021-08-04T09:19:26.884Z</time>
      </trkpt>
      <trkpt lat="46.98333" lon="8.78897">
        <ele>870</ele>
        <time>2021-08-04T09:19:27.885Z</time>
      </trkpt>
      <trkpt lat="46.98332" lon="8.78898">
        <ele>870</ele>
        <time>2021-08-04T09:19:28.885Z</time>
      </trkpt>
      <trkpt lat="46.98332" lon="8.78898">
        <ele>869</ele>
        <time>2021-08-04T09:19:29.884Z</time>
      </trkpt>
      <trkpt lat="46.98331" lon="8.78898">
        <ele>868</ele>
        <time>2021-08-04T09:19:30.885Z</time>
      </trkpt>
      <trkpt lat="46.9833" lon="8.78899">
        <ele>867</ele>
        <time>2021-08-04T09:19:31.884Z</time>
      </trkpt>
      <trkpt lat="46.9833" lon="8.78899">
        <ele>866</ele>
        <time>2021-08-04T09:19:32.885Z</time>
      </trkpt>
      <trkpt lat="46.98329" lon="8.78899">
        <ele>866</ele>
        <time>2021-08-04T09:19:33.885Z</time>
      </trkpt>
      <trkpt lat="46.98328" lon="8.78899">
        <ele>865</ele>
        <time>2021-08-04T09:19:34.884Z</time>
      </trkpt>
      <trkpt lat="46.98327" lon="8.78899">
        <ele>865</ele>
        <time>2021-08-04T09:19:35.885Z</time>
      </trkpt>
      <trkpt lat="46.98326" lon="8.78899">
        <ele>865</ele>
        <time>2021-08-04T09:19:36.885Z</time>
      </trkpt>
      <trkpt lat="46.98324" lon="8.78899">
        <ele>865</ele>
        <time>2021-08-04T09:19:37.885Z</time>
      </trkpt>
      <trkpt lat="46.98323" lon="8.78898">
        <ele>865</ele>
        <time>2021-08-04T09:19:38.885Z</time>
      </trkpt>
      <trkpt lat="46.98322" lon="8.78899">
        <ele>865</ele>
        <time>2021-08-04T09:19:39.885Z</time>
      </trkpt>
      <trkpt lat="46.98321" lon="8.789">
        <ele>865</ele>
        <time>2021-08-04T09:19:40.884Z</time>
      </trkpt>
      <trkpt lat="46.98321" lon="8.789">
        <ele>865</ele>
        <time>2021-08-04T09:19:41.885Z</time>
      </trkpt>
      <trkpt lat="46.9832" lon="8.789">
        <ele>864</ele>
        <time>2021-08-04T09:19:42.885Z</time>
      </trkpt>
      <trkpt lat="46.98319" lon="8.78901">
        <ele>864</ele>
        <time>2021-08-04T09:19:43.884Z</time>
      </trkpt>
      <trkpt lat="46.98318" lon="8.78901">
        <ele>863</ele>
        <time>2021-08-04T09:19:48.045Z</time>
      </trkpt>
      <trkpt lat="46.98318" lon="8.789">
        <ele>863</ele>
        <time>2021-08-04T09:19:49.045Z</time>
      </trkpt>
      <trkpt lat="46.98317" lon="8.78899">
        <ele>862</ele>
        <time>2021-08-04T09:19:50.044Z</time>
      </trkpt>
      <trkpt lat="46.98316" lon="8.78899">
        <ele>862</ele>
        <time>2021-08-04T09:19:51.045Z</time>
      </trkpt>
      <trkpt lat="46.98315" lon="8.78898">
        <ele>861</ele>
        <time>2021-08-04T09:19:52.045Z</time>
      </trkpt>
      <trkpt lat="46.98314" lon="8.78898">
        <ele>861</ele>
        <time>2021-08-04T09:19:53.045Z</time>
      </trkpt>
      <trkpt lat="46.98314" lon="8.78898">
        <ele>861</ele>
        <time>2021-08-04T09:19:54.045Z</time>
      </trkpt>
      <trkpt lat="46.98314" lon="8.78898">
        <ele>861</ele>
        <time>2021-08-04T09:19:55.045Z</time>
      </trkpt>
      <trkpt lat="46.98314" lon="8.78898">
        <ele>861</ele>
        <time>2021-08-04T09:19:56.044Z</time>
      </trkpt>
      <trkpt lat="46.98313" lon="8.78898">
        <ele>860</ele>
        <time>2021-08-04T09:19:57.045Z</time>
      </trkpt>
      <trkpt lat="46.98312" lon="8.78899">
        <ele>859</ele>
        <time>2021-08-04T09:19:58.045Z</time>
      </trkpt>
      <trkpt lat="46.98312" lon="8.78899">
        <ele>858</ele>
        <time>2021-08-04T09:19:59.045Z</time>
      </trkpt>
      <trkpt lat="46.98312" lon="8.78899">
        <ele>857</ele>
        <time>2021-08-04T09:20:00.044Z</time>
      </trkpt>
      <trkpt lat="46.98311" lon="8.78899">
        <ele>856</ele>
        <time>2021-08-04T09:20:09.165Z</time>
      </trkpt>
      <trkpt lat="46.98311" lon="8.78899">
        <ele>855</ele>
        <time>2021-08-04T09:20:10.165Z</time>
      </trkpt>
      <trkpt lat="46.98311" lon="8.78899">
        <ele>854</ele>
        <time>2021-08-04T09:20:18.314Z</time>
      </trkpt>
      <trkpt lat="46.9831" lon="8.78899">
        <ele>853</ele>
        <time>2021-08-04T09:20:19.314Z</time>
      </trkpt>
      <trkpt lat="46.98309" lon="8.78899">
        <ele>853</ele>
        <time>2021-08-04T09:20:20.314Z</time>
      </trkpt>
      <trkpt lat="46.98307" lon="8.78899">
        <ele>852</ele>
        <time>2021-08-04T09:20:21.315Z</time>
      </trkpt>
      <trkpt lat="46.98306" lon="8.78899">
        <ele>851</ele>
        <time>2021-08-04T09:20:22.314Z</time>
      </trkpt>
      <trkpt lat="46.98305" lon="8.78899">
        <ele>851</ele>
        <time>2021-08-04T09:20:23.315Z</time>
      </trkpt>
      <trkpt lat="46.98304" lon="8.78899">
        <ele>851</ele>
        <time>2021-08-04T09:20:24.315Z</time>
      </trkpt>
      <trkpt lat="46.98304" lon="8.78898">
        <ele>851</ele>
        <time>2021-08-04T09:20:25.315Z</time>
      </trkpt>
      <trkpt lat="46.98302" lon="8.78898">
        <ele>851</ele>
        <time>2021-08-04T09:20:26.314Z</time>
      </trkpt>
      <trkpt lat="46.98301" lon="8.78898">
        <ele>851</ele>
        <time>2021-08-04T09:20:27.315Z</time>
      </trkpt>
      <trkpt lat="46.983" lon="8.78898">
        <ele>852</ele>
        <time>2021-08-04T09:20:28.315Z</time>
      </trkpt>
      <trkpt lat="46.98298" lon="8.78898">
        <ele>852</ele>
        <time>2021-08-04T09:20:29.315Z</time>
      </trkpt>
      <trkpt lat="46.98297" lon="8.78897">
        <ele>853</ele>
        <time>2021-08-04T09:20:33.373Z</time>
      </trkpt>
      <trkpt lat="46.98296" lon="8.78896">
        <ele>853</ele>
        <time>2021-08-04T09:20:34.374Z</time>
      </trkpt>
      <trkpt lat="46.98295" lon="8.78896">
        <ele>853</ele>
        <time>2021-08-04T09:20:49.308Z</time>
      </trkpt>
      <trkpt lat="46.98294" lon="8.78896">
        <ele>854</ele>
        <time>2021-08-04T09:20:50.308Z</time>
      </trkpt>
      <trkpt lat="46.98293" lon="8.78896">
        <ele>854</ele>
        <time>2021-08-04T09:20:51.308Z</time>
      </trkpt>
      <trkpt lat="46.98292" lon="8.78896">
        <ele>854</ele>
        <time>2021-08-04T09:20:52.307Z</time>
      </trkpt>
      <trkpt lat="46.98292" lon="8.78896">
        <ele>855</ele>
        <time>2021-08-04T09:20:53.308Z</time>
      </trkpt>
      <trkpt lat="46.98292" lon="8.78897">
        <ele>855</ele>
        <time>2021-08-04T09:20:54.308Z</time>
      </trkpt>
      <trkpt lat="46.98291" lon="8.78897">
        <ele>854</ele>
        <time>2021-08-04T09:20:55.307Z</time>
      </trkpt>
      <trkpt lat="46.9829" lon="8.78897">
        <ele>854</ele>
        <time>2021-08-04T09:20:56.308Z</time>
      </trkpt>
      <trkpt lat="46.98289" lon="8.78896">
        <ele>855</ele>
        <time>2021-08-04T09:20:57.308Z</time>
      </trkpt>
      <trkpt lat="46.98288" lon="8.78895">
        <ele>855</ele>
        <time>2021-08-04T09:20:58.308Z</time>
      </trkpt>
      <trkpt lat="46.98287" lon="8.78894">
        <ele>855</ele>
        <time>2021-08-04T09:20:59.308Z</time>
      </trkpt>
      <trkpt lat="46.98286" lon="8.78893">
        <ele>855</ele>
        <time>2021-08-04T09:21:00.308Z</time>
      </trkpt>
      <trkpt lat="46.98285" lon="8.78893">
        <ele>854</ele>
        <time>2021-08-04T09:21:01.308Z</time>
      </trkpt>
      <trkpt lat="46.98284" lon="8.78892">
        <ele>854</ele>
        <time>2021-08-04T09:21:02.308Z</time>
      </trkpt>
      <trkpt lat="46.98283" lon="8.78891">
        <ele>853</ele>
        <time>2021-08-04T09:21:03.308Z</time>
      </trkpt>
      <trkpt lat="46.98282" lon="8.78891">
        <ele>853</ele>
        <time>2021-08-04T09:21:04.307Z</time>
      </trkpt>
      <trkpt lat="46.98282" lon="8.7889">
        <ele>852</ele>
        <time>2021-08-04T09:21:05.308Z</time>
      </trkpt>
      <trkpt lat="46.98281" lon="8.7889">
        <ele>852</ele>
        <time>2021-08-04T09:21:06.307Z</time>
      </trkpt>
      <trkpt lat="46.9828" lon="8.78889">
        <ele>851</ele>
        <time>2021-08-04T09:21:07.308Z</time>
      </trkpt>
      <trkpt lat="46.98279" lon="8.78888">
        <ele>851</ele>
        <time>2021-08-04T09:21:08.308Z</time>
      </trkpt>
      <trkpt lat="46.98278" lon="8.78887">
        <ele>850</ele>
        <time>2021-08-04T09:21:09.308Z</time>
      </trkpt>
      <trkpt lat="46.98278" lon="8.78886">
        <ele>850</ele>
        <time>2021-08-04T09:21:10.308Z</time>
      </trkpt>
      <trkpt lat="46.98277" lon="8.78885">
        <ele>850</ele>
        <time>2021-08-04T09:21:11.308Z</time>
      </trkpt>
      <trkpt lat="46.98276" lon="8.78884">
        <ele>849</ele>
        <time>2021-08-04T09:21:12.307Z</time>
      </trkpt>
      <trkpt lat="46.98276" lon="8.78883">
        <ele>849</ele>
        <time>2021-08-04T09:21:13.308Z</time>
      </trkpt>
      <trkpt lat="46.98275" lon="8.78883">
        <ele>847</ele>
        <time>2021-08-04T09:21:14.308Z</time>
      </trkpt>
      <trkpt lat="46.98274" lon="8.78882">
        <ele>846</ele>
        <time>2021-08-04T09:21:15.308Z</time>
      </trkpt>
      <trkpt lat="46.98274" lon="8.78881">
        <ele>845</ele>
        <time>2021-08-04T09:21:16.308Z</time>
      </trkpt>
      <trkpt lat="46.98273" lon="8.7888">
        <ele>845</ele>
        <time>2021-08-04T09:21:17.307Z</time>
      </trkpt>
      <trkpt lat="46.98272" lon="8.78879">
        <ele>844</ele>
        <time>2021-08-04T09:21:18.307Z</time>
      </trkpt>
      <trkpt lat="46.98272" lon="8.78878">
        <ele>844</ele>
        <time>2021-08-04T09:21:19.308Z</time>
      </trkpt>
      <trkpt lat="46.98271" lon="8.78877">
        <ele>844</ele>
        <time>2021-08-04T09:21:20.307Z</time>
      </trkpt>
      <trkpt lat="46.98271" lon="8.78877">
        <ele>844</ele>
        <time>2021-08-04T09:21:21.308Z</time>
      </trkpt>
      <trkpt lat="46.9827" lon="8.78876">
        <ele>844</ele>
        <time>2021-08-04T09:21:22.307Z</time>
      </trkpt>
      <trkpt lat="46.98269" lon="8.78875">
        <ele>844</ele>
        <time>2021-08-04T09:21:23.308Z</time>
      </trkpt>
      <trkpt lat="46.98268" lon="8.78875">
        <ele>843</ele>
        <time>2021-08-04T09:21:24.308Z</time>
      </trkpt>
      <trkpt lat="46.98268" lon="8.78874">
        <ele>843</ele>
        <time>2021-08-04T09:21:25.308Z</time>
      </trkpt>
      <trkpt lat="46.98267" lon="8.78873">
        <ele>843</ele>
        <time>2021-08-04T09:21:26.307Z</time>
      </trkpt>
      <trkpt lat="46.98266" lon="8.78873">
        <ele>842</ele>
        <time>2021-08-04T09:21:27.307Z</time>
      </trkpt>
      <trkpt lat="46.98265" lon="8.78872">
        <ele>842</ele>
        <time>2021-08-04T09:21:28.307Z</time>
      </trkpt>
      <trkpt lat="46.98265" lon="8.78871">
        <ele>841</ele>
        <time>2021-08-04T09:21:29.307Z</time>
      </trkpt>
      <trkpt lat="46.98264" lon="8.7887">
        <ele>841</ele>
        <time>2021-08-04T09:21:30.308Z</time>
      </trkpt>
      <trkpt lat="46.98263" lon="8.7887">
        <ele>840</ele>
        <time>2021-08-04T09:21:31.307Z</time>
      </trkpt>
      <trkpt lat="46.98263" lon="8.78869">
        <ele>840</ele>
        <time>2021-08-04T09:21:32.307Z</time>
      </trkpt>
      <trkpt lat="46.98262" lon="8.78868">
        <ele>839</ele>
        <time>2021-08-04T09:21:33.307Z</time>
      </trkpt>
      <trkpt lat="46.98262" lon="8.78867">
        <ele>838</ele>
        <time>2021-08-04T09:21:34.308Z</time>
      </trkpt>
      <trkpt lat="46.98261" lon="8.78866">
        <ele>838</ele>
        <time>2021-08-04T09:21:35.307Z</time>
      </trkpt>
      <trkpt lat="46.9826" lon="8.78865">
        <ele>837</ele>
        <time>2021-08-04T09:21:36.307Z</time>
      </trkpt>
      <trkpt lat="46.9826" lon="8.78864">
        <ele>837</ele>
        <time>2021-08-04T09:21:37.307Z</time>
      </trkpt>
      <trkpt lat="46.98259" lon="8.78863">
        <ele>837</ele>
        <time>2021-08-04T09:21:38.307Z</time>
      </trkpt>
      <trkpt lat="46.98258" lon="8.78863">
        <ele>837</ele>
        <time>2021-08-04T09:21:39.307Z</time>
      </trkpt>
      <trkpt lat="46.98257" lon="8.78862">
        <ele>837</ele>
        <time>2021-08-04T09:21:40.307Z</time>
      </trkpt>
      <trkpt lat="46.98256" lon="8.78861">
        <ele>837</ele>
        <time>2021-08-04T09:21:41.307Z</time>
      </trkpt>
      <trkpt lat="46.98255" lon="8.7886">
        <ele>837</ele>
        <time>2021-08-04T09:21:46.402Z</time>
      </trkpt>
      <trkpt lat="46.98254" lon="8.78859">
        <ele>836</ele>
        <time>2021-08-04T09:21:47.402Z</time>
      </trkpt>
      <trkpt lat="46.98253" lon="8.78858">
        <ele>836</ele>
        <time>2021-08-04T09:21:48.402Z</time>
      </trkpt>
      <trkpt lat="46.98252" lon="8.78857">
        <ele>836</ele>
        <time>2021-08-04T09:21:49.402Z</time>
      </trkpt>
      <trkpt lat="46.98251" lon="8.78856">
        <ele>836</ele>
        <time>2021-08-04T09:21:50.402Z</time>
      </trkpt>
      <trkpt lat="46.9825" lon="8.78855">
        <ele>836</ele>
        <time>2021-08-04T09:21:51.402Z</time>
      </trkpt>
      <trkpt lat="46.98249" lon="8.78854">
        <ele>836</ele>
        <time>2021-08-04T09:21:52.402Z</time>
      </trkpt>
      <trkpt lat="46.98247" lon="8.78854">
        <ele>836</ele>
        <time>2021-08-04T09:21:53.402Z</time>
      </trkpt>
      <trkpt lat="46.98247" lon="8.78853">
        <ele>836</ele>
        <time>2021-08-04T09:21:54.402Z</time>
      </trkpt>
      <trkpt lat="46.98246" lon="8.78852">
        <ele>836</ele>
        <time>2021-08-04T09:21:55.402Z</time>
      </trkpt>
      <trkpt lat="46.98245" lon="8.78851">
        <ele>836</ele>
        <time>2021-08-04T09:21:56.402Z</time>
      </trkpt>
      <trkpt lat="46.98244" lon="8.78851">
        <ele>836</ele>
        <time>2021-08-04T09:22:00.540Z</time>
      </trkpt>
      <trkpt lat="46.98243" lon="8.7885">
        <ele>835</ele>
        <time>2021-08-04T09:22:01.540Z</time>
      </trkpt>
      <trkpt lat="46.98242" lon="8.78849">
        <ele>835</ele>
        <time>2021-08-04T09:22:02.541Z</time>
      </trkpt>
      <trkpt lat="46.98241" lon="8.78849">
        <ele>835</ele>
        <time>2021-08-04T09:22:03.541Z</time>
      </trkpt>
      <trkpt lat="46.9824" lon="8.78848">
        <ele>835</ele>
        <time>2021-08-04T09:22:04.541Z</time>
      </trkpt>
      <trkpt lat="46.98239" lon="8.78847">
        <ele>834</ele>
        <time>2021-08-04T09:22:05.540Z</time>
      </trkpt>
      <trkpt lat="46.98238" lon="8.78846">
        <ele>834</ele>
        <time>2021-08-04T09:22:06.540Z</time>
      </trkpt>
      <trkpt lat="46.98237" lon="8.78846">
        <ele>834</ele>
        <time>2021-08-04T09:22:07.540Z</time>
      </trkpt>
      <trkpt lat="46.98236" lon="8.78845">
        <ele>833</ele>
        <time>2021-08-04T09:22:08.540Z</time>
      </trkpt>
      <trkpt lat="46.98235" lon="8.78844">
        <ele>833</ele>
        <time>2021-08-04T09:22:09.541Z</time>
      </trkpt>
      <trkpt lat="46.98235" lon="8.78843">
        <ele>833</ele>
        <time>2021-08-04T09:22:10.540Z</time>
      </trkpt>
      <trkpt lat="46.98234" lon="8.78841">
        <ele>833</ele>
        <time>2021-08-04T09:22:11.540Z</time>
      </trkpt>
      <trkpt lat="46.98233" lon="8.7884">
        <ele>832</ele>
        <time>2021-08-04T09:22:12.541Z</time>
      </trkpt>
      <trkpt lat="46.98232" lon="8.78839">
        <ele>832</ele>
        <time>2021-08-04T09:22:13.541Z</time>
      </trkpt>
      <trkpt lat="46.98231" lon="8.78838">
        <ele>831</ele>
        <time>2021-08-04T09:22:14.541Z</time>
      </trkpt>
      <trkpt lat="46.98231" lon="8.78837">
        <ele>830</ele>
        <time>2021-08-04T09:22:15.541Z</time>
      </trkpt>
      <trkpt lat="46.9823" lon="8.78836">
        <ele>829</ele>
        <time>2021-08-04T09:22:16.540Z</time>
      </trkpt>
      <trkpt lat="46.98229" lon="8.78835">
        <ele>829</ele>
        <time>2021-08-04T09:22:17.541Z</time>
      </trkpt>
      <trkpt lat="46.98228" lon="8.78834">
        <ele>829</ele>
        <time>2021-08-04T09:22:18.540Z</time>
      </trkpt>
      <trkpt lat="46.98228" lon="8.78832">
        <ele>828</ele>
        <time>2021-08-04T09:22:19.541Z</time>
      </trkpt>
      <trkpt lat="46.98227" lon="8.78831">
        <ele>828</ele>
        <time>2021-08-04T09:22:20.541Z</time>
      </trkpt>
      <trkpt lat="46.98226" lon="8.7883">
        <ele>828</ele>
        <time>2021-08-04T09:22:21.541Z</time>
      </trkpt>
      <trkpt lat="46.98226" lon="8.78829">
        <ele>828</ele>
        <time>2021-08-04T09:22:22.540Z</time>
      </trkpt>
      <trkpt lat="46.98225" lon="8.78829">
        <ele>828</ele>
        <time>2021-08-04T09:22:23.541Z</time>
      </trkpt>
      <trkpt lat="46.98224" lon="8.78828">
        <ele>829</ele>
        <time>2021-08-04T09:22:24.541Z</time>
      </trkpt>
      <trkpt lat="46.98224" lon="8.78828">
        <ele>829</ele>
        <time>2021-08-04T09:22:25.541Z</time>
      </trkpt>
      <trkpt lat="46.98223" lon="8.78828">
        <ele>829</ele>
        <time>2021-08-04T09:22:26.540Z</time>
      </trkpt>
      <trkpt lat="46.98224" lon="8.78828">
        <ele>829</ele>
        <time>2021-08-04T09:22:27.541Z</time>
      </trkpt>
      <trkpt lat="46.98224" lon="8.78828">
        <ele>830</ele>
        <time>2021-08-04T09:22:28.541Z</time>
      </trkpt>
      <trkpt lat="46.98224" lon="8.78828">
        <ele>830</ele>
        <time>2021-08-04T09:22:29.541Z</time>
      </trkpt>
      <trkpt lat="46.98225" lon="8.78828">
        <ele>829</ele>
        <time>2021-08-04T09:22:30.541Z</time>
      </trkpt>
      <trkpt lat="46.98225" lon="8.78828">
        <ele>829</ele>
        <time>2021-08-04T09:22:31.540Z</time>
      </trkpt>
      <trkpt lat="46.98227" lon="8.78828">
        <ele>829</ele>
        <time>2021-08-04T09:22:32.541Z</time>
      </trkpt>
      <trkpt lat="46.98228" lon="8.78828">
        <ele>828</ele>
        <time>2021-08-04T09:22:33.540Z</time>
      </trkpt>
      <trkpt lat="46.98228" lon="8.78829">
        <ele>827</ele>
        <time>2021-08-04T09:22:34.541Z</time>
      </trkpt>
      <trkpt lat="46.98227" lon="8.7883">
        <ele>827</ele>
        <time>2021-08-04T09:22:35.541Z</time>
      </trkpt>
      <trkpt lat="46.98227" lon="8.7883">
        <ele>826</ele>
        <time>2021-08-04T09:22:36.540Z</time>
      </trkpt>
      <trkpt lat="46.98226" lon="8.7883">
        <ele>826</ele>
        <time>2021-08-04T09:22:37.541Z</time>
      </trkpt>
      <trkpt lat="46.98226" lon="8.78827">
        <ele>824</ele>
        <time>2021-08-04T09:22:38.541Z</time>
      </trkpt>
      <trkpt lat="46.98224" lon="8.78826">
        <ele>824</ele>
        <time>2021-08-04T09:22:39.541Z</time>
      </trkpt>
      <trkpt lat="46.98223" lon="8.78825">
        <ele>824</ele>
        <time>2021-08-04T09:22:40.542Z</time>
      </trkpt>
      <trkpt lat="46.98222" lon="8.78825">
        <ele>824</ele>
        <time>2021-08-04T09:22:41.541Z</time>
      </trkpt>
      <trkpt lat="46.98221" lon="8.78824">
        <ele>824</ele>
        <time>2021-08-04T09:22:42.542Z</time>
      </trkpt>
      <trkpt lat="46.9822" lon="8.78824">
        <ele>824</ele>
        <time>2021-08-04T09:22:43.542Z</time>
      </trkpt>
      <trkpt lat="46.98219" lon="8.78822">
        <ele>824</ele>
        <time>2021-08-04T09:22:44.542Z</time>
      </trkpt>
      <trkpt lat="46.98218" lon="8.7882">
        <ele>824</ele>
        <time>2021-08-04T09:22:45.541Z</time>
      </trkpt>
      <trkpt lat="46.98217" lon="8.78819">
        <ele>824</ele>
        <time>2021-08-04T09:22:46.542Z</time>
      </trkpt>
      <trkpt lat="46.98216" lon="8.78818">
        <ele>823</ele>
        <time>2021-08-04T09:22:47.541Z</time>
      </trkpt>
      <trkpt lat="46.98216" lon="8.78817">
        <ele>823</ele>
        <time>2021-08-04T09:22:48.541Z</time>
      </trkpt>
      <trkpt lat="46.98215" lon="8.78815">
        <ele>823</ele>
        <time>2021-08-04T09:22:49.541Z</time>
      </trkpt>
      <trkpt lat="46.98214" lon="8.78814">
        <ele>822</ele>
        <time>2021-08-04T09:22:50.542Z</time>
      </trkpt>
      <trkpt lat="46.98213" lon="8.78813">
        <ele>822</ele>
        <time>2021-08-04T09:22:51.541Z</time>
      </trkpt>
      <trkpt lat="46.98212" lon="8.78812">
        <ele>821</ele>
        <time>2021-08-04T09:22:52.541Z</time>
      </trkpt>
      <trkpt lat="46.98212" lon="8.78811">
        <ele>821</ele>
        <time>2021-08-04T09:22:53.541Z</time>
      </trkpt>
      <trkpt lat="46.98211" lon="8.78809">
        <ele>821</ele>
        <time>2021-08-04T09:22:54.541Z</time>
      </trkpt>
      <trkpt lat="46.9821" lon="8.78808">
        <ele>820</ele>
        <time>2021-08-04T09:22:55.541Z</time>
      </trkpt>
      <trkpt lat="46.98209" lon="8.78806">
        <ele>820</ele>
        <time>2021-08-04T09:22:56.541Z</time>
      </trkpt>
      <trkpt lat="46.98208" lon="8.78804">
        <ele>821</ele>
        <time>2021-08-04T09:22:57.541Z</time>
      </trkpt>
      <trkpt lat="46.98207" lon="8.78803">
        <ele>821</ele>
        <time>2021-08-04T09:22:58.541Z</time>
      </trkpt>
      <trkpt lat="46.98207" lon="8.78801">
        <ele>820</ele>
        <time>2021-08-04T09:22:59.542Z</time>
      </trkpt>
      <trkpt lat="46.98206" lon="8.788">
        <ele>820</ele>
        <time>2021-08-04T09:23:00.542Z</time>
      </trkpt>
      <trkpt lat="46.98205" lon="8.78799">
        <ele>820</ele>
        <time>2021-08-04T09:23:01.542Z</time>
      </trkpt>
      <trkpt lat="46.98204" lon="8.78799">
        <ele>820</ele>
        <time>2021-08-04T09:23:02.542Z</time>
      </trkpt>
      <trkpt lat="46.98203" lon="8.78798">
        <ele>820</ele>
        <time>2021-08-04T09:23:03.542Z</time>
      </trkpt>
      <trkpt lat="46.98203" lon="8.78798">
        <ele>820</ele>
        <time>2021-08-04T09:23:04.542Z</time>
      </trkpt>
      <trkpt lat="46.98202" lon="8.78798">
        <ele>820</ele>
        <time>2021-08-04T09:23:05.542Z</time>
      </trkpt>
      <trkpt lat="46.98202" lon="8.78797">
        <ele>820</ele>
        <time>2021-08-04T09:23:06.542Z</time>
      </trkpt>
      <trkpt lat="46.98201" lon="8.78793">
        <ele>822</ele>
        <time>2021-08-04T09:23:07.543Z</time>
      </trkpt>
      <trkpt lat="46.982" lon="8.78792">
        <ele>822</ele>
        <time>2021-08-04T09:23:08.543Z</time>
      </trkpt>
      <trkpt lat="46.98199" lon="8.78791">
        <ele>822</ele>
        <time>2021-08-04T09:23:09.542Z</time>
      </trkpt>
      <trkpt lat="46.98198" lon="8.7879">
        <ele>823</ele>
        <time>2021-08-04T09:23:10.542Z</time>
      </trkpt>
      <trkpt lat="46.98197" lon="8.7879">
        <ele>824</ele>
        <time>2021-08-04T09:23:11.542Z</time>
      </trkpt>
      <trkpt lat="46.98196" lon="8.78789">
        <ele>824</ele>
        <time>2021-08-04T09:23:12.542Z</time>
      </trkpt>
      <trkpt lat="46.98196" lon="8.78789">
        <ele>825</ele>
        <time>2021-08-04T09:23:13.542Z</time>
      </trkpt>
      <trkpt lat="46.98195" lon="8.78788">
        <ele>825</ele>
        <time>2021-08-04T09:23:14.543Z</time>
      </trkpt>
      <trkpt lat="46.98194" lon="8.78788">
        <ele>825</ele>
        <time>2021-08-04T09:23:15.542Z</time>
      </trkpt>
      <trkpt lat="46.98194" lon="8.78788">
        <ele>824</ele>
        <time>2021-08-04T09:23:16.543Z</time>
      </trkpt>
      <trkpt lat="46.98193" lon="8.78788">
        <ele>824</ele>
        <time>2021-08-04T09:23:17.542Z</time>
      </trkpt>
      <trkpt lat="46.98193" lon="8.78788">
        <ele>823</ele>
        <time>2021-08-04T09:23:18.542Z</time>
      </trkpt>
      <trkpt lat="46.98192" lon="8.78788">
        <ele>822</ele>
        <time>2021-08-04T09:23:19.542Z</time>
      </trkpt>
      <trkpt lat="46.98192" lon="8.78788">
        <ele>822</ele>
        <time>2021-08-04T09:23:20.543Z</time>
      </trkpt>
      <trkpt lat="46.98191" lon="8.78788">
        <ele>821</ele>
        <time>2021-08-04T09:23:21.543Z</time>
      </trkpt>
      <trkpt lat="46.9819" lon="8.78787">
        <ele>820</ele>
        <time>2021-08-04T09:23:22.543Z</time>
      </trkpt>
      <trkpt lat="46.98189" lon="8.78787">
        <ele>819</ele>
        <time>2021-08-04T09:23:23.543Z</time>
      </trkpt>
      <trkpt lat="46.98189" lon="8.78787">
        <ele>818</ele>
        <time>2021-08-04T09:23:24.543Z</time>
      </trkpt>
      <trkpt lat="46.98188" lon="8.78786">
        <ele>817</ele>
        <time>2021-08-04T09:23:25.542Z</time>
      </trkpt>
      <trkpt lat="46.98187" lon="8.78786">
        <ele>817</ele>
        <time>2021-08-04T09:23:26.543Z</time>
      </trkpt>
      <trkpt lat="46.98186" lon="8.78786">
        <ele>817</ele>
        <time>2021-08-04T09:23:27.542Z</time>
      </trkpt>
      <trkpt lat="46.98186" lon="8.78785">
        <ele>817</ele>
        <time>2021-08-04T09:23:28.542Z</time>
      </trkpt>
      <trkpt lat="46.98185" lon="8.78785">
        <ele>816</ele>
        <time>2021-08-04T09:23:29.542Z</time>
      </trkpt>
      <trkpt lat="46.98184" lon="8.78785">
        <ele>816</ele>
        <time>2021-08-04T09:23:30.542Z</time>
      </trkpt>
      <trkpt lat="46.98183" lon="8.78784">
        <ele>816</ele>
        <time>2021-08-04T09:23:31.542Z</time>
      </trkpt>
      <trkpt lat="46.98182" lon="8.78784">
        <ele>816</ele>
        <time>2021-08-04T09:23:32.543Z</time>
      </trkpt>
      <trkpt lat="46.98181" lon="8.78783">
        <ele>815</ele>
        <time>2021-08-04T09:23:33.543Z</time>
      </trkpt>
      <trkpt lat="46.9818" lon="8.78783">
        <ele>815</ele>
        <time>2021-08-04T09:23:34.542Z</time>
      </trkpt>
      <trkpt lat="46.9818" lon="8.78783">
        <ele>814</ele>
        <time>2021-08-04T09:23:35.543Z</time>
      </trkpt>
      <trkpt lat="46.98179" lon="8.78783">
        <ele>813</ele>
        <time>2021-08-04T09:23:36.543Z</time>
      </trkpt>
      <trkpt lat="46.98178" lon="8.78783">
        <ele>812</ele>
        <time>2021-08-04T09:23:37.543Z</time>
      </trkpt>
      <trkpt lat="46.98178" lon="8.78783">
        <ele>811</ele>
        <time>2021-08-04T09:23:39.643Z</time>
      </trkpt>
      <trkpt lat="46.98177" lon="8.78783">
        <ele>811</ele>
        <time>2021-08-04T09:23:40.643Z</time>
      </trkpt>
      <trkpt lat="46.98176" lon="8.78782">
        <ele>811</ele>
        <time>2021-08-04T09:23:41.643Z</time>
      </trkpt>
      <trkpt lat="46.98175" lon="8.78782">
        <ele>811</ele>
        <time>2021-08-04T09:23:42.644Z</time>
      </trkpt>
      <trkpt lat="46.98174" lon="8.78781">
        <ele>810</ele>
        <time>2021-08-04T09:23:43.643Z</time>
      </trkpt>
      <trkpt lat="46.98173" lon="8.7878">
        <ele>810</ele>
        <time>2021-08-04T09:23:44.643Z</time>
      </trkpt>
      <trkpt lat="46.98172" lon="8.78779">
        <ele>810</ele>
        <time>2021-08-04T09:23:45.643Z</time>
      </trkpt>
      <trkpt lat="46.9817" lon="8.78778">
        <ele>810</ele>
        <time>2021-08-04T09:23:49.779Z</time>
      </trkpt>
      <trkpt lat="46.98169" lon="8.78777">
        <ele>810</ele>
        <time>2021-08-04T09:24:03.659Z</time>
      </trkpt>
      <trkpt lat="46.98168" lon="8.78776">
        <ele>810</ele>
        <time>2021-08-04T09:24:04.659Z</time>
      </trkpt>
      <trkpt lat="46.98166" lon="8.78776">
        <ele>810</ele>
        <time>2021-08-04T09:24:05.659Z</time>
      </trkpt>
      <trkpt lat="46.98166" lon="8.78776">
        <ele>809</ele>
        <time>2021-08-04T09:24:06.660Z</time>
      </trkpt>
      <trkpt lat="46.98165" lon="8.78776">
        <ele>809</ele>
        <time>2021-08-04T09:24:07.660Z</time>
      </trkpt>
      <trkpt lat="46.98164" lon="8.78777">
        <ele>809</ele>
        <time>2021-08-04T09:24:08.659Z</time>
      </trkpt>
      <trkpt lat="46.98163" lon="8.78777">
        <ele>809</ele>
        <time>2021-08-04T09:24:09.660Z</time>
      </trkpt>
      <trkpt lat="46.98162" lon="8.78777">
        <ele>809</ele>
        <time>2021-08-04T09:24:26.786Z</time>
      </trkpt>
      <trkpt lat="46.98161" lon="8.78777">
        <ele>809</ele>
        <time>2021-08-04T09:24:27.786Z</time>
      </trkpt>
      <trkpt lat="46.98161" lon="8.78776">
        <ele>809</ele>
        <time>2021-08-04T09:24:28.786Z</time>
      </trkpt>
      <trkpt lat="46.9816" lon="8.78776">
        <ele>809</ele>
        <time>2021-08-04T09:24:29.787Z</time>
      </trkpt>
      <trkpt lat="46.98159" lon="8.78775">
        <ele>809</ele>
        <time>2021-08-04T09:24:30.786Z</time>
      </trkpt>
      <trkpt lat="46.98158" lon="8.78775">
        <ele>809</ele>
        <time>2021-08-04T09:24:31.786Z</time>
      </trkpt>
      <trkpt lat="46.98157" lon="8.78774">
        <ele>809</ele>
        <time>2021-08-04T09:24:32.786Z</time>
      </trkpt>
      <trkpt lat="46.98156" lon="8.78774">
        <ele>808</ele>
        <time>2021-08-04T09:24:33.787Z</time>
      </trkpt>
      <trkpt lat="46.98155" lon="8.78774">
        <ele>808</ele>
        <time>2021-08-04T09:24:34.787Z</time>
      </trkpt>
      <trkpt lat="46.98154" lon="8.78773">
        <ele>807</ele>
        <time>2021-08-04T09:24:35.786Z</time>
      </trkpt>
      <trkpt lat="46.98153" lon="8.78772">
        <ele>806</ele>
        <time>2021-08-04T09:24:36.786Z</time>
      </trkpt>
      <trkpt lat="46.98153" lon="8.7877">
        <ele>806</ele>
        <time>2021-08-04T09:24:37.786Z</time>
      </trkpt>
      <trkpt lat="46.98152" lon="8.78769">
        <ele>806</ele>
        <time>2021-08-04T09:24:38.786Z</time>
      </trkpt>
      <trkpt lat="46.98152" lon="8.78767">
        <ele>805</ele>
        <time>2021-08-04T09:24:39.787Z</time>
      </trkpt>
      <trkpt lat="46.98152" lon="8.78766">
        <ele>805</ele>
        <time>2021-08-04T09:24:40.786Z</time>
      </trkpt>
      <trkpt lat="46.98152" lon="8.78764">
        <ele>806</ele>
        <time>2021-08-04T09:24:41.786Z</time>
      </trkpt>
      <trkpt lat="46.98151" lon="8.78764">
        <ele>806</ele>
        <time>2021-08-04T09:24:42.786Z</time>
      </trkpt>
      <trkpt lat="46.98151" lon="8.78763">
        <ele>807</ele>
        <time>2021-08-04T09:24:43.787Z</time>
      </trkpt>
      <trkpt lat="46.98151" lon="8.78763">
        <ele>806</ele>
        <time>2021-08-04T09:24:44.787Z</time>
      </trkpt>
      <trkpt lat="46.98151" lon="8.78763">
        <ele>806</ele>
        <time>2021-08-04T09:24:45.787Z</time>
      </trkpt>
      <trkpt lat="46.9815" lon="8.78765">
        <ele>803</ele>
        <time>2021-08-04T09:24:46.788Z</time>
      </trkpt>
      <trkpt lat="46.9815" lon="8.78765">
        <ele>803</ele>
        <time>2021-08-04T09:24:47.788Z</time>
      </trkpt>
      <trkpt lat="46.98149" lon="8.78765">
        <ele>804</ele>
        <time>2021-08-04T09:24:48.788Z</time>
      </trkpt>
      <trkpt lat="46.98152" lon="8.78766">
        <ele>805</ele>
        <time>2021-08-04T09:24:49.789Z</time>
      </trkpt>
      <trkpt lat="46.98152" lon="8.78766">
        <ele>805</ele>
        <time>2021-08-04T09:24:50.788Z</time>
      </trkpt>
      <trkpt lat="46.9815" lon="8.78766">
        <ele>804</ele>
        <time>2021-08-04T09:24:51.788Z</time>
      </trkpt>
      <trkpt lat="46.9815" lon="8.78765">
        <ele>803</ele>
        <time>2021-08-04T09:24:52.788Z</time>
      </trkpt>
      <trkpt lat="46.98149" lon="8.78765">
        <ele>803</ele>
        <time>2021-08-04T09:24:53.789Z</time>
      </trkpt>
      <trkpt lat="46.98148" lon="8.78764">
        <ele>803</ele>
        <time>2021-08-04T09:24:54.788Z</time>
      </trkpt>
      <trkpt lat="46.98148" lon="8.78764">
        <ele>802</ele>
        <time>2021-08-04T09:24:55.788Z</time>
      </trkpt>
      <trkpt lat="46.98147" lon="8.78763">
        <ele>802</ele>
        <time>2021-08-04T09:24:56.788Z</time>
      </trkpt>
      <trkpt lat="46.98147" lon="8.78763">
        <ele>803</ele>
        <time>2021-08-04T09:24:57.789Z</time>
      </trkpt>
      <trkpt lat="46.98146" lon="8.78763">
        <ele>803</ele>
        <time>2021-08-04T09:24:58.788Z</time>
      </trkpt>
      <trkpt lat="46.98145" lon="8.78763">
        <ele>803</ele>
        <time>2021-08-04T09:24:59.788Z</time>
      </trkpt>
      <trkpt lat="46.98144" lon="8.78763">
        <ele>803</ele>
        <time>2021-08-04T09:25:00.789Z</time>
      </trkpt>
      <trkpt lat="46.98143" lon="8.78763">
        <ele>804</ele>
        <time>2021-08-04T09:25:01.789Z</time>
      </trkpt>
      <trkpt lat="46.98142" lon="8.78763">
        <ele>804</ele>
        <time>2021-08-04T09:25:02.789Z</time>
      </trkpt>
      <trkpt lat="46.98141" lon="8.78763">
        <ele>804</ele>
        <time>2021-08-04T09:25:03.789Z</time>
      </trkpt>
      <trkpt lat="46.98141" lon="8.78762">
        <ele>804</ele>
        <time>2021-08-04T09:25:04.788Z</time>
      </trkpt>
      <trkpt lat="46.98139" lon="8.78762">
        <ele>804</ele>
        <time>2021-08-04T09:25:05.789Z</time>
      </trkpt>
      <trkpt lat="46.98138" lon="8.78762">
        <ele>804</ele>
        <time>2021-08-04T09:25:06.788Z</time>
      </trkpt>
      <trkpt lat="46.98137" lon="8.78762">
        <ele>804</ele>
        <time>2021-08-04T09:25:07.788Z</time>
      </trkpt>
      <trkpt lat="46.98136" lon="8.78762">
        <ele>803</ele>
        <time>2021-08-04T09:25:08.788Z</time>
      </trkpt>
      <trkpt lat="46.98135" lon="8.78761">
        <ele>803</ele>
        <time>2021-08-04T09:25:09.788Z</time>
      </trkpt>
      <trkpt lat="46.98134" lon="8.78761">
        <ele>802</ele>
        <time>2021-08-04T09:25:10.788Z</time>
      </trkpt>
      <trkpt lat="46.98133" lon="8.7876">
        <ele>802</ele>
        <time>2021-08-04T09:25:11.788Z</time>
      </trkpt>
      <trkpt lat="46.98132" lon="8.7876">
        <ele>802</ele>
        <time>2021-08-04T09:25:12.788Z</time>
      </trkpt>
      <trkpt lat="46.9813" lon="8.7876">
        <ele>802</ele>
        <time>2021-08-04T09:25:13.789Z</time>
      </trkpt>
      <trkpt lat="46.98129" lon="8.78759">
        <ele>802</ele>
        <time>2021-08-04T09:25:14.788Z</time>
      </trkpt>
      <trkpt lat="46.98128" lon="8.78758">
        <ele>802</ele>
        <time>2021-08-04T09:25:15.789Z</time>
      </trkpt>
      <trkpt lat="46.98127" lon="8.78759">
        <ele>801</ele>
        <time>2021-08-04T09:25:16.789Z</time>
      </trkpt>
      <trkpt lat="46.98126" lon="8.78759">
        <ele>801</ele>
        <time>2021-08-04T09:25:17.789Z</time>
      </trkpt>
      <trkpt lat="46.98125" lon="8.78759">
        <ele>801</ele>
        <time>2021-08-04T09:25:18.788Z</time>
      </trkpt>
      <trkpt lat="46.98124" lon="8.78759">
        <ele>801</ele>
        <time>2021-08-04T09:25:19.788Z</time>
      </trkpt>
      <trkpt lat="46.98124" lon="8.78759">
        <ele>801</ele>
        <time>2021-08-04T09:25:20.789Z</time>
      </trkpt>
      <trkpt lat="46.98123" lon="8.78759">
        <ele>800</ele>
        <time>2021-08-04T09:25:21.788Z</time>
      </trkpt>
      <trkpt lat="46.98122" lon="8.78759">
        <ele>800</ele>
        <time>2021-08-04T09:25:22.789Z</time>
      </trkpt>
      <trkpt lat="46.98122" lon="8.78759">
        <ele>800</ele>
        <time>2021-08-04T09:25:23.788Z</time>
      </trkpt>
      <trkpt lat="46.98121" lon="8.78759">
        <ele>800</ele>
        <time>2021-08-04T09:25:24.789Z</time>
      </trkpt>
      <trkpt lat="46.98121" lon="8.7876">
        <ele>800</ele>
        <time>2021-08-04T09:25:25.788Z</time>
      </trkpt>
      <trkpt lat="46.9812" lon="8.78761">
        <ele>800</ele>
        <time>2021-08-04T09:25:26.788Z</time>
      </trkpt>
      <trkpt lat="46.98119" lon="8.78761">
        <ele>799</ele>
        <time>2021-08-04T09:25:27.789Z</time>
      </trkpt>
      <trkpt lat="46.98119" lon="8.7876">
        <ele>798</ele>
        <time>2021-08-04T09:25:28.789Z</time>
      </trkpt>
      <trkpt lat="46.98118" lon="8.7876">
        <ele>798</ele>
        <time>2021-08-04T09:25:29.789Z</time>
      </trkpt>
      <trkpt lat="46.98117" lon="8.7876">
        <ele>797</ele>
        <time>2021-08-04T09:25:30.788Z</time>
      </trkpt>
      <trkpt lat="46.98117" lon="8.78759">
        <ele>797</ele>
        <time>2021-08-04T09:25:31.789Z</time>
      </trkpt>
      <trkpt lat="46.98116" lon="8.78759">
        <ele>797</ele>
        <time>2021-08-04T09:25:32.789Z</time>
      </trkpt>
      <trkpt lat="46.98116" lon="8.78758">
        <ele>797</ele>
        <time>2021-08-04T09:25:33.789Z</time>
      </trkpt>
      <trkpt lat="46.98115" lon="8.78758">
        <ele>797</ele>
        <time>2021-08-04T09:25:34.789Z</time>
      </trkpt>
      <trkpt lat="46.98115" lon="8.78757">
        <ele>797</ele>
        <time>2021-08-04T09:25:35.789Z</time>
      </trkpt>
      <trkpt lat="46.98114" lon="8.78757">
        <ele>796</ele>
        <time>2021-08-04T09:25:36.789Z</time>
      </trkpt>
      <trkpt lat="46.98114" lon="8.78756">
        <ele>795</ele>
        <time>2021-08-04T09:25:37.788Z</time>
      </trkpt>
      <trkpt lat="46.98113" lon="8.78756">
        <ele>794</ele>
        <time>2021-08-04T09:25:38.788Z</time>
      </trkpt>
      <trkpt lat="46.98113" lon="8.78755">
        <ele>793</ele>
        <time>2021-08-04T09:25:39.789Z</time>
      </trkpt>
      <trkpt lat="46.98113" lon="8.78754">
        <ele>793</ele>
        <time>2021-08-04T09:25:40.789Z</time>
      </trkpt>
      <trkpt lat="46.98112" lon="8.78753">
        <ele>792</ele>
        <time>2021-08-04T09:25:41.789Z</time>
      </trkpt>
      <trkpt lat="46.98112" lon="8.78752">
        <ele>791</ele>
        <time>2021-08-04T09:25:42.789Z</time>
      </trkpt>
      <trkpt lat="46.98112" lon="8.78751">
        <ele>791</ele>
        <time>2021-08-04T09:25:43.788Z</time>
      </trkpt>
      <trkpt lat="46.98111" lon="8.7875">
        <ele>791</ele>
        <time>2021-08-04T09:25:44.789Z</time>
      </trkpt>
      <trkpt lat="46.98111" lon="8.78748">
        <ele>790</ele>
        <time>2021-08-04T09:25:45.789Z</time>
      </trkpt>
      <trkpt lat="46.98111" lon="8.78747">
        <ele>790</ele>
        <time>2021-08-04T09:25:46.788Z</time>
      </trkpt>
      <trkpt lat="46.98111" lon="8.78746">
        <ele>790</ele>
        <time>2021-08-04T09:25:47.789Z</time>
      </trkpt>
      <trkpt lat="46.9811" lon="8.78745">
        <ele>790</ele>
        <time>2021-08-04T09:25:48.789Z</time>
      </trkpt>
      <trkpt lat="46.9811" lon="8.78743">
        <ele>789</ele>
        <time>2021-08-04T09:25:49.788Z</time>
      </trkpt>
      <trkpt lat="46.9811" lon="8.7874">
        <ele>789</ele>
        <time>2021-08-04T09:25:50.789Z</time>
      </trkpt>
      <trkpt lat="46.98109" lon="8.78738">
        <ele>789</ele>
        <time>2021-08-04T09:25:51.789Z</time>
      </trkpt>
      <trkpt lat="46.98109" lon="8.78736">
        <ele>789</ele>
        <time>2021-08-04T09:25:52.789Z</time>
      </trkpt>
      <trkpt lat="46.98109" lon="8.78734">
        <ele>789</ele>
        <time>2021-08-04T09:25:53.788Z</time>
      </trkpt>
      <trkpt lat="46.98109" lon="8.78733">
        <ele>789</ele>
        <time>2021-08-04T09:25:54.788Z</time>
      </trkpt>
      <trkpt lat="46.98109" lon="8.78732">
        <ele>789</ele>
        <time>2021-08-04T09:25:55.789Z</time>
      </trkpt>
      <trkpt lat="46.9811" lon="8.78731">
        <ele>789</ele>
        <time>2021-08-04T09:25:56.789Z</time>
      </trkpt>
      <trkpt lat="46.9811" lon="8.78729">
        <ele>789</ele>
        <time>2021-08-04T09:25:57.789Z</time>
      </trkpt>
      <trkpt lat="46.98111" lon="8.78728">
        <ele>789</ele>
        <time>2021-08-04T09:25:58.789Z</time>
      </trkpt>
      <trkpt lat="46.9811" lon="8.78727">
        <ele>789</ele>
        <time>2021-08-04T09:25:59.789Z</time>
      </trkpt>
      <trkpt lat="46.9811" lon="8.78725">
        <ele>788</ele>
        <time>2021-08-04T09:26:00.788Z</time>
      </trkpt>
      <trkpt lat="46.98111" lon="8.78724">
        <ele>788</ele>
        <time>2021-08-04T09:26:01.788Z</time>
      </trkpt>
      <trkpt lat="46.98111" lon="8.78723">
        <ele>788</ele>
        <time>2021-08-04T09:26:02.788Z</time>
      </trkpt>
      <trkpt lat="46.98111" lon="8.78721">
        <ele>788</ele>
        <time>2021-08-04T09:26:03.788Z</time>
      </trkpt>
      <trkpt lat="46.98111" lon="8.78719">
        <ele>787</ele>
        <time>2021-08-04T09:26:07.878Z</time>
      </trkpt>
      <trkpt lat="46.98111" lon="8.78718">
        <ele>787</ele>
        <time>2021-08-04T09:26:08.878Z</time>
      </trkpt>
      <trkpt lat="46.98112" lon="8.78716">
        <ele>786</ele>
        <time>2021-08-04T09:26:09.878Z</time>
      </trkpt>
      <trkpt lat="46.98112" lon="8.78715">
        <ele>786</ele>
        <time>2021-08-04T09:26:12.897Z</time>
      </trkpt>
      <trkpt lat="46.98112" lon="8.78714">
        <ele>786</ele>
        <time>2021-08-04T09:26:13.898Z</time>
      </trkpt>
      <trkpt lat="46.98113" lon="8.78713">
        <ele>785</ele>
        <time>2021-08-04T09:26:14.897Z</time>
      </trkpt>
      <trkpt lat="46.98113" lon="8.78711">
        <ele>785</ele>
        <time>2021-08-04T09:26:15.898Z</time>
      </trkpt>
      <trkpt lat="46.98113" lon="8.7871">
        <ele>785</ele>
        <time>2021-08-04T09:26:16.898Z</time>
      </trkpt>
      <trkpt lat="46.98113" lon="8.78708">
        <ele>784</ele>
        <time>2021-08-04T09:26:17.898Z</time>
      </trkpt>
      <trkpt lat="46.98113" lon="8.78707">
        <ele>784</ele>
        <time>2021-08-04T09:26:18.898Z</time>
      </trkpt>
      <trkpt lat="46.98112" lon="8.78706">
        <ele>784</ele>
        <time>2021-08-04T09:26:19.897Z</time>
      </trkpt>
      <trkpt lat="46.98111" lon="8.78706">
        <ele>783</ele>
        <time>2021-08-04T09:26:20.898Z</time>
      </trkpt>
      <trkpt lat="46.9811" lon="8.78707">
        <ele>783</ele>
        <time>2021-08-04T09:26:21.898Z</time>
      </trkpt>
      <trkpt lat="46.98109" lon="8.78708">
        <ele>782</ele>
        <time>2021-08-04T09:26:22.898Z</time>
      </trkpt>
      <trkpt lat="46.98109" lon="8.78708">
        <ele>781</ele>
        <time>2021-08-04T09:26:23.898Z</time>
      </trkpt>
      <trkpt lat="46.98108" lon="8.78709">
        <ele>780</ele>
        <time>2021-08-04T09:26:24.898Z</time>
      </trkpt>
      <trkpt lat="46.98107" lon="8.7871">
        <ele>779</ele>
        <time>2021-08-04T09:26:25.897Z</time>
      </trkpt>
      <trkpt lat="46.98106" lon="8.7871">
        <ele>778</ele>
        <time>2021-08-04T09:26:26.897Z</time>
      </trkpt>
      <trkpt lat="46.98106" lon="8.7871">
        <ele>778</ele>
        <time>2021-08-04T09:26:27.897Z</time>
      </trkpt>
      <trkpt lat="46.98106" lon="8.7871">
        <ele>777</ele>
        <time>2021-08-04T09:26:28.898Z</time>
      </trkpt>
      <trkpt lat="46.98105" lon="8.78709">
        <ele>777</ele>
        <time>2021-08-04T09:26:29.897Z</time>
      </trkpt>
      <trkpt lat="46.98104" lon="8.78708">
        <ele>777</ele>
        <time>2021-08-04T09:26:30.897Z</time>
      </trkpt>
      <trkpt lat="46.98103" lon="8.78708">
        <ele>776</ele>
        <time>2021-08-04T09:26:31.898Z</time>
      </trkpt>
      <trkpt lat="46.98102" lon="8.78708">
        <ele>776</ele>
        <time>2021-08-04T09:26:32.898Z</time>
      </trkpt>
      <trkpt lat="46.98101" lon="8.78709">
        <ele>776</ele>
        <time>2021-08-04T09:26:33.897Z</time>
      </trkpt>
      <trkpt lat="46.98101" lon="8.78709">
        <ele>776</ele>
        <time>2021-08-04T09:26:34.897Z</time>
      </trkpt>
      <trkpt lat="46.981" lon="8.78709">
        <ele>776</ele>
        <time>2021-08-04T09:26:35.897Z</time>
      </trkpt>
      <trkpt lat="46.98099" lon="8.7871">
        <ele>775</ele>
        <time>2021-08-04T09:26:36.897Z</time>
      </trkpt>
      <trkpt lat="46.98098" lon="8.78711">
        <ele>775</ele>
        <time>2021-08-04T09:26:37.897Z</time>
      </trkpt>
      <trkpt lat="46.98098" lon="8.78711">
        <ele>775</ele>
        <time>2021-08-04T09:26:38.898Z</time>
      </trkpt>
      <trkpt lat="46.98097" lon="8.78712">
        <ele>775</ele>
        <time>2021-08-04T09:26:39.898Z</time>
      </trkpt>
      <trkpt lat="46.98096" lon="8.78713">
        <ele>774</ele>
        <time>2021-08-04T09:26:40.897Z</time>
      </trkpt>
      <trkpt lat="46.98095" lon="8.78713">
        <ele>774</ele>
        <time>2021-08-04T09:26:41.897Z</time>
      </trkpt>
      <trkpt lat="46.98095" lon="8.78714">
        <ele>774</ele>
        <time>2021-08-04T09:26:42.897Z</time>
      </trkpt>
      <trkpt lat="46.98094" lon="8.78714">
        <ele>774</ele>
        <time>2021-08-04T09:26:43.897Z</time>
      </trkpt>
      <trkpt lat="46.98094" lon="8.78715">
        <ele>774</ele>
        <time>2021-08-04T09:26:44.897Z</time>
      </trkpt>
      <trkpt lat="46.98093" lon="8.78715">
        <ele>774</ele>
        <time>2021-08-04T09:26:45.897Z</time>
      </trkpt>
      <trkpt lat="46.98093" lon="8.78715">
        <ele>774</ele>
        <time>2021-08-04T09:26:46.898Z</time>
      </trkpt>
      <trkpt lat="46.98092" lon="8.78715">
        <ele>774</ele>
        <time>2021-08-04T09:26:47.897Z</time>
      </trkpt>
      <trkpt lat="46.98091" lon="8.78715">
        <ele>774</ele>
        <time>2021-08-04T09:26:48.897Z</time>
      </trkpt>
      <trkpt lat="46.9809" lon="8.78715">
        <ele>773</ele>
        <time>2021-08-04T09:26:49.897Z</time>
      </trkpt>
      <trkpt lat="46.9809" lon="8.78715">
        <ele>773</ele>
        <time>2021-08-04T09:26:50.897Z</time>
      </trkpt>
      <trkpt lat="46.9809" lon="8.78714">
        <ele>773</ele>
        <time>2021-08-04T09:26:51.897Z</time>
      </trkpt>
      <trkpt lat="46.9809" lon="8.78713">
        <ele>773</ele>
        <time>2021-08-04T09:26:52.897Z</time>
      </trkpt>
      <trkpt lat="46.98089" lon="8.78713">
        <ele>773</ele>
        <time>2021-08-04T09:26:53.898Z</time>
      </trkpt>
      <trkpt lat="46.98089" lon="8.78712">
        <ele>773</ele>
        <time>2021-08-04T09:26:54.897Z</time>
      </trkpt>
      <trkpt lat="46.9809" lon="8.78712">
        <ele>772</ele>
        <time>2021-08-04T09:26:55.898Z</time>
      </trkpt>
      <trkpt lat="46.9809" lon="8.78711">
        <ele>772</ele>
        <time>2021-08-04T09:26:56.898Z</time>
      </trkpt>
      <trkpt lat="46.98091" lon="8.7871">
        <ele>772</ele>
        <time>2021-08-04T09:26:57.897Z</time>
      </trkpt>
      <trkpt lat="46.98091" lon="8.78709">
        <ele>771</ele>
        <time>2021-08-04T09:26:58.898Z</time>
      </trkpt>
      <trkpt lat="46.98091" lon="8.78708">
        <ele>771</ele>
        <time>2021-08-04T09:26:59.897Z</time>
      </trkpt>
      <trkpt lat="46.98091" lon="8.78708">
        <ele>771</ele>
        <time>2021-08-04T09:27:00.898Z</time>
      </trkpt>
      <trkpt lat="46.9809" lon="8.78708">
        <ele>771</ele>
        <time>2021-08-04T09:27:01.898Z</time>
      </trkpt>
      <trkpt lat="46.98089" lon="8.78707">
        <ele>771</ele>
        <time>2021-08-04T09:27:02.897Z</time>
      </trkpt>
      <trkpt lat="46.98088" lon="8.78707">
        <ele>771</ele>
        <time>2021-08-04T09:27:03.898Z</time>
      </trkpt>
      <trkpt lat="46.98088" lon="8.78706">
        <ele>771</ele>
        <time>2021-08-04T09:27:04.898Z</time>
      </trkpt>
      <trkpt lat="46.98088" lon="8.78705">
        <ele>770</ele>
        <time>2021-08-04T09:27:05.897Z</time>
      </trkpt>
      <trkpt lat="46.98088" lon="8.78704">
        <ele>770</ele>
        <time>2021-08-04T09:27:06.898Z</time>
      </trkpt>
      <trkpt lat="46.98089" lon="8.78701">
        <ele>769</ele>
        <time>2021-08-04T09:27:07.899Z</time>
      </trkpt>
      <trkpt lat="46.98089" lon="8.78699">
        <ele>768</ele>
        <time>2021-08-04T09:27:08.900Z</time>
      </trkpt>
      <trkpt lat="46.98089" lon="8.78695">
        <ele>769</ele>
        <time>2021-08-04T09:27:09.901Z</time>
      </trkpt>
      <trkpt lat="46.98089" lon="8.78694">
        <ele>770</ele>
        <time>2021-08-04T09:27:10.900Z</time>
      </trkpt>
      <trkpt lat="46.98089" lon="8.78693">
        <ele>770</ele>
        <time>2021-08-04T09:27:11.900Z</time>
      </trkpt>
      <trkpt lat="46.98089" lon="8.78692">
        <ele>771</ele>
        <time>2021-08-04T09:27:12.901Z</time>
      </trkpt>
      <trkpt lat="46.98088" lon="8.7869">
        <ele>771</ele>
        <time>2021-08-04T09:27:13.900Z</time>
      </trkpt>
      <trkpt lat="46.98088" lon="8.78689">
        <ele>772</ele>
        <time>2021-08-04T09:27:14.901Z</time>
      </trkpt>
      <trkpt lat="46.98089" lon="8.78688">
        <ele>772</ele>
        <time>2021-08-04T09:27:15.901Z</time>
      </trkpt>
      <trkpt lat="46.98089" lon="8.78687">
        <ele>772</ele>
        <time>2021-08-04T09:27:16.901Z</time>
      </trkpt>
      <trkpt lat="46.9809" lon="8.78687">
        <ele>772</ele>
        <time>2021-08-04T09:27:17.900Z</time>
      </trkpt>
      <trkpt lat="46.98091" lon="8.78687">
        <ele>772</ele>
        <time>2021-08-04T09:27:18.900Z</time>
      </trkpt>
      <trkpt lat="46.98092" lon="8.78687">
        <ele>772</ele>
        <time>2021-08-04T09:27:19.900Z</time>
      </trkpt>
      <trkpt lat="46.98092" lon="8.78686">
        <ele>772</ele>
        <time>2021-08-04T09:27:20.900Z</time>
      </trkpt>
      <trkpt lat="46.98093" lon="8.78686">
        <ele>771</ele>
        <time>2021-08-04T09:27:21.901Z</time>
      </trkpt>
      <trkpt lat="46.98092" lon="8.78685">
        <ele>770</ele>
        <time>2021-08-04T09:27:22.900Z</time>
      </trkpt>
      <trkpt lat="46.98092" lon="8.78684">
        <ele>770</ele>
        <time>2021-08-04T09:27:23.900Z</time>
      </trkpt>
      <trkpt lat="46.98092" lon="8.78682">
        <ele>770</ele>
        <time>2021-08-04T09:27:24.900Z</time>
      </trkpt>
      <trkpt lat="46.98092" lon="8.78681">
        <ele>769</ele>
        <time>2021-08-04T09:27:25.900Z</time>
      </trkpt>
      <trkpt lat="46.98092" lon="8.7868">
        <ele>769</ele>
        <time>2021-08-04T09:27:26.900Z</time>
      </trkpt>
      <trkpt lat="46.98093" lon="8.78679">
        <ele>769</ele>
        <time>2021-08-04T09:27:27.900Z</time>
      </trkpt>
      <trkpt lat="46.98093" lon="8.78678">
        <ele>769</ele>
        <time>2021-08-04T09:27:28.900Z</time>
      </trkpt>
      <trkpt lat="46.98094" lon="8.78677">
        <ele>769</ele>
        <time>2021-08-04T09:27:29.900Z</time>
      </trkpt>
      <trkpt lat="46.98094" lon="8.78676">
        <ele>769</ele>
        <time>2021-08-04T09:27:30.900Z</time>
      </trkpt>
      <trkpt lat="46.98094" lon="8.78674">
        <ele>768</ele>
        <time>2021-08-04T09:27:31.900Z</time>
      </trkpt>
      <trkpt lat="46.98095" lon="8.78672">
        <ele>768</ele>
        <time>2021-08-04T09:27:32.900Z</time>
      </trkpt>
      <trkpt lat="46.98095" lon="8.78671">
        <ele>768</ele>
        <time>2021-08-04T09:27:33.900Z</time>
      </trkpt>
      <trkpt lat="46.98094" lon="8.7867">
        <ele>767</ele>
        <time>2021-08-04T09:27:34.900Z</time>
      </trkpt>
      <trkpt lat="46.98094" lon="8.78669">
        <ele>767</ele>
        <time>2021-08-04T09:27:35.900Z</time>
      </trkpt>
      <trkpt lat="46.98094" lon="8.78669">
        <ele>766</ele>
        <time>2021-08-04T09:27:36.900Z</time>
      </trkpt>
      <trkpt lat="46.98094" lon="8.78668">
        <ele>766</ele>
        <time>2021-08-04T09:27:37.901Z</time>
      </trkpt>
      <trkpt lat="46.98094" lon="8.78667">
        <ele>766</ele>
        <time>2021-08-04T09:27:38.900Z</time>
      </trkpt>
      <trkpt lat="46.98094" lon="8.78667">
        <ele>766</ele>
        <time>2021-08-04T09:27:39.900Z</time>
      </trkpt>
      <trkpt lat="46.98094" lon="8.78666">
        <ele>766</ele>
        <time>2021-08-04T09:27:40.900Z</time>
      </trkpt>
      <trkpt lat="46.98094" lon="8.78666">
        <ele>766</ele>
        <time>2021-08-04T09:27:41.900Z</time>
      </trkpt>
      <trkpt lat="46.98094" lon="8.78665">
        <ele>765</ele>
        <time>2021-08-04T09:27:42.900Z</time>
      </trkpt>
      <trkpt lat="46.98094" lon="8.78664">
        <ele>765</ele>
        <time>2021-08-04T09:27:43.900Z</time>
      </trkpt>
      <trkpt lat="46.98093" lon="8.78663">
        <ele>764</ele>
        <time>2021-08-04T09:27:44.900Z</time>
      </trkpt>
      <trkpt lat="46.98093" lon="8.78661">
        <ele>764</ele>
        <time>2021-08-04T09:27:45.901Z</time>
      </trkpt>
      <trkpt lat="46.98093" lon="8.7866">
        <ele>763</ele>
        <time>2021-08-04T09:27:46.900Z</time>
      </trkpt>
      <trkpt lat="46.98093" lon="8.78659">
        <ele>763</ele>
        <time>2021-08-04T09:27:47.901Z</time>
      </trkpt>
      <trkpt lat="46.98092" lon="8.78658">
        <ele>763</ele>
        <time>2021-08-04T09:27:48.901Z</time>
      </trkpt>
      <trkpt lat="46.98092" lon="8.78658">
        <ele>763</ele>
        <time>2021-08-04T09:27:49.900Z</time>
      </trkpt>
      <trkpt lat="46.9809" lon="8.78658">
        <ele>761</ele>
        <time>2021-08-04T09:27:50.900Z</time>
      </trkpt>
      <trkpt lat="46.9809" lon="8.78657">
        <ele>761</ele>
        <time>2021-08-04T09:27:51.901Z</time>
      </trkpt>
      <trkpt lat="46.98089" lon="8.78656">
        <ele>761</ele>
        <time>2021-08-04T09:27:52.900Z</time>
      </trkpt>
      <trkpt lat="46.98089" lon="8.78655">
        <ele>761</ele>
        <time>2021-08-04T09:27:53.900Z</time>
      </trkpt>
      <trkpt lat="46.98088" lon="8.78654">
        <ele>760</ele>
        <time>2021-08-04T09:27:54.900Z</time>
      </trkpt>
      <trkpt lat="46.98088" lon="8.78654">
        <ele>760</ele>
        <time>2021-08-04T09:27:55.900Z</time>
      </trkpt>
      <trkpt lat="46.98087" lon="8.78653">
        <ele>760</ele>
        <time>2021-08-04T09:27:56.901Z</time>
      </trkpt>
      <trkpt lat="46.98086" lon="8.78653">
        <ele>760</ele>
        <time>2021-08-04T09:27:57.901Z</time>
      </trkpt>
      <trkpt lat="46.98086" lon="8.78653">
        <ele>760</ele>
        <time>2021-08-04T09:27:58.901Z</time>
      </trkpt>
      <trkpt lat="46.98085" lon="8.78653">
        <ele>760</ele>
        <time>2021-08-04T09:27:59.901Z</time>
      </trkpt>
      <trkpt lat="46.98084" lon="8.78653">
        <ele>760</ele>
        <time>2021-08-04T09:28:00.901Z</time>
      </trkpt>
      <trkpt lat="46.98083" lon="8.78652">
        <ele>761</ele>
        <time>2021-08-04T09:28:01.901Z</time>
      </trkpt>
      <trkpt lat="46.98082" lon="8.78652">
        <ele>761</ele>
        <time>2021-08-04T09:28:02.901Z</time>
      </trkpt>
      <trkpt lat="46.98081" lon="8.78651">
        <ele>761</ele>
        <time>2021-08-04T09:28:03.900Z</time>
      </trkpt>
      <trkpt lat="46.98081" lon="8.78651">
        <ele>761</ele>
        <time>2021-08-04T09:28:04.900Z</time>
      </trkpt>
      <trkpt lat="46.9808" lon="8.78651">
        <ele>761</ele>
        <time>2021-08-04T09:28:05.900Z</time>
      </trkpt>
      <trkpt lat="46.98079" lon="8.78651">
        <ele>761</ele>
        <time>2021-08-04T09:28:06.900Z</time>
      </trkpt>
      <trkpt lat="46.98078" lon="8.78651">
        <ele>762</ele>
        <time>2021-08-04T09:28:07.900Z</time>
      </trkpt>
      <trkpt lat="46.98078" lon="8.78652">
        <ele>762</ele>
        <time>2021-08-04T09:28:08.901Z</time>
      </trkpt>
      <trkpt lat="46.98077" lon="8.78652">
        <ele>762</ele>
        <time>2021-08-04T09:28:09.901Z</time>
      </trkpt>
      <trkpt lat="46.98077" lon="8.78652">
        <ele>762</ele>
        <time>2021-08-04T09:28:10.901Z</time>
      </trkpt>
      <trkpt lat="46.98076" lon="8.78652">
        <ele>761</ele>
        <time>2021-08-04T09:28:11.900Z</time>
      </trkpt>
      <trkpt lat="46.98075" lon="8.78653">
        <ele>761</ele>
        <time>2021-08-04T09:28:12.900Z</time>
      </trkpt>
      <trkpt lat="46.98074" lon="8.78653">
        <ele>761</ele>
        <time>2021-08-04T09:28:13.901Z</time>
      </trkpt>
      <trkpt lat="46.98073" lon="8.78653">
        <ele>760</ele>
        <time>2021-08-04T09:28:14.901Z</time>
      </trkpt>
      <trkpt lat="46.98073" lon="8.78653">
        <ele>760</ele>
        <time>2021-08-04T09:28:15.901Z</time>
      </trkpt>
      <trkpt lat="46.98072" lon="8.78653">
        <ele>759</ele>
        <time>2021-08-04T09:28:16.901Z</time>
      </trkpt>
      <trkpt lat="46.98071" lon="8.78653">
        <ele>759</ele>
        <time>2021-08-04T09:28:17.900Z</time>
      </trkpt>
      <trkpt lat="46.98071" lon="8.78652">
        <ele>759</ele>
        <time>2021-08-04T09:28:18.901Z</time>
      </trkpt>
      <trkpt lat="46.9807" lon="8.78652">
        <ele>758</ele>
        <time>2021-08-04T09:28:19.900Z</time>
      </trkpt>
      <trkpt lat="46.9807" lon="8.78653">
        <ele>758</ele>
        <time>2021-08-04T09:28:20.901Z</time>
      </trkpt>
      <trkpt lat="46.9807" lon="8.78652">
        <ele>758</ele>
        <time>2021-08-04T09:28:21.901Z</time>
      </trkpt>
      <trkpt lat="46.98071" lon="8.78652">
        <ele>758</ele>
        <time>2021-08-04T09:28:22.901Z</time>
      </trkpt>
      <trkpt lat="46.98071" lon="8.78651">
        <ele>758</ele>
        <time>2021-08-04T09:28:23.900Z</time>
      </trkpt>
      <trkpt lat="46.98072" lon="8.78651">
        <ele>758</ele>
        <time>2021-08-04T09:28:24.901Z</time>
      </trkpt>
      <trkpt lat="46.98074" lon="8.78648">
        <ele>756</ele>
        <time>2021-08-04T09:28:25.902Z</time>
      </trkpt>
      <trkpt lat="46.98075" lon="8.78647">
        <ele>756</ele>
        <time>2021-08-04T09:28:26.902Z</time>
      </trkpt>
      <trkpt lat="46.98076" lon="8.78646">
        <ele>755</ele>
        <time>2021-08-04T09:28:27.901Z</time>
      </trkpt>
      <trkpt lat="46.98077" lon="8.78645">
        <ele>754</ele>
        <time>2021-08-04T09:28:28.902Z</time>
      </trkpt>
      <trkpt lat="46.98077" lon="8.78644">
        <ele>754</ele>
        <time>2021-08-04T09:28:29.902Z</time>
      </trkpt>
      <trkpt lat="46.98077" lon="8.78643">
        <ele>753</ele>
        <time>2021-08-04T09:28:30.901Z</time>
      </trkpt>
      <trkpt lat="46.98077" lon="8.78644">
        <ele>753</ele>
        <time>2021-08-04T09:28:31.901Z</time>
      </trkpt>
      <trkpt lat="46.98076" lon="8.78646">
        <ele>753</ele>
        <time>2021-08-04T09:28:32.902Z</time>
      </trkpt>
      <trkpt lat="46.98075" lon="8.78647">
        <ele>753</ele>
        <time>2021-08-04T09:28:33.902Z</time>
      </trkpt>
      <trkpt lat="46.98075" lon="8.78648">
        <ele>753</ele>
        <time>2021-08-04T09:28:34.902Z</time>
      </trkpt>
      <trkpt lat="46.98075" lon="8.78647">
        <ele>753</ele>
        <time>2021-08-04T09:28:35.902Z</time>
      </trkpt>
      <trkpt lat="46.98075" lon="8.78648">
        <ele>753</ele>
        <time>2021-08-04T09:28:36.901Z</time>
      </trkpt>
      <trkpt lat="46.98075" lon="8.78648">
        <ele>753</ele>
        <time>2021-08-04T09:28:37.902Z</time>
      </trkpt>
      <trkpt lat="46.98075" lon="8.78648">
        <ele>754</ele>
        <time>2021-08-04T09:28:38.901Z</time>
      </trkpt>
      <trkpt lat="46.98074" lon="8.78647">
        <ele>755</ele>
        <time>2021-08-04T09:28:39.901Z</time>
      </trkpt>
      <trkpt lat="46.98074" lon="8.78647">
        <ele>755</ele>
        <time>2021-08-04T09:28:40.902Z</time>
      </trkpt>
      <trkpt lat="46.98074" lon="8.78648">
        <ele>755</ele>
        <time>2021-08-04T09:28:41.901Z</time>
      </trkpt>
      <trkpt lat="46.98073" lon="8.78649">
        <ele>756</ele>
        <time>2021-08-04T09:28:42.902Z</time>
      </trkpt>
      <trkpt lat="46.98073" lon="8.7865">
        <ele>756</ele>
        <time>2021-08-04T09:28:43.902Z</time>
      </trkpt>
      <trkpt lat="46.98072" lon="8.7865">
        <ele>755</ele>
        <time>2021-08-04T09:28:44.902Z</time>
      </trkpt>
      <trkpt lat="46.98071" lon="8.7865">
        <ele>755</ele>
        <time>2021-08-04T09:28:45.901Z</time>
      </trkpt>
      <trkpt lat="46.98071" lon="8.7865">
        <ele>755</ele>
        <time>2021-08-04T09:28:46.902Z</time>
      </trkpt>
      <trkpt lat="46.98069" lon="8.7865">
        <ele>755</ele>
        <time>2021-08-04T09:28:47.902Z</time>
      </trkpt>
      <trkpt lat="46.98068" lon="8.78649">
        <ele>755</ele>
        <time>2021-08-04T09:28:48.902Z</time>
      </trkpt>
      <trkpt lat="46.98068" lon="8.78649">
        <ele>755</ele>
        <time>2021-08-04T09:28:49.902Z</time>
      </trkpt>
      <trkpt lat="46.98067" lon="8.78649">
        <ele>755</ele>
        <time>2021-08-04T09:28:50.901Z</time>
      </trkpt>
      <trkpt lat="46.98066" lon="8.7865">
        <ele>755</ele>
        <time>2021-08-04T09:28:51.901Z</time>
      </trkpt>
      <trkpt lat="46.98066" lon="8.7865">
        <ele>755</ele>
        <time>2021-08-04T09:28:52.901Z</time>
      </trkpt>
      <trkpt lat="46.98065" lon="8.7865">
        <ele>755</ele>
        <time>2021-08-04T09:28:53.902Z</time>
      </trkpt>
      <trkpt lat="46.98062" lon="8.7865">
        <ele>754</ele>
        <time>2021-08-04T09:28:54.903Z</time>
      </trkpt>
      <trkpt lat="46.98062" lon="8.7865">
        <ele>754</ele>
        <time>2021-08-04T09:28:55.902Z</time>
      </trkpt>
      <trkpt lat="46.98061" lon="8.7865">
        <ele>754</ele>
        <time>2021-08-04T09:28:56.903Z</time>
      </trkpt>
      <trkpt lat="46.98061" lon="8.7865">
        <ele>754</ele>
        <time>2021-08-04T09:28:57.903Z</time>
      </trkpt>
      <trkpt lat="46.9806" lon="8.78649">
        <ele>754</ele>
        <time>2021-08-04T09:28:58.903Z</time>
      </trkpt>
      <trkpt lat="46.9806" lon="8.78649">
        <ele>754</ele>
        <time>2021-08-04T09:28:59.903Z</time>
      </trkpt>
      <trkpt lat="46.98059" lon="8.78649">
        <ele>754</ele>
        <time>2021-08-04T09:29:00.903Z</time>
      </trkpt>
      <trkpt lat="46.98059" lon="8.78649">
        <ele>753</ele>
        <time>2021-08-04T09:29:01.903Z</time>
      </trkpt>
      <trkpt lat="46.9806" lon="8.78649">
        <ele>753</ele>
        <time>2021-08-04T09:29:02.902Z</time>
      </trkpt>
      <trkpt lat="46.9806" lon="8.78649">
        <ele>752</ele>
        <time>2021-08-04T09:29:03.902Z</time>
      </trkpt>
      <trkpt lat="46.9806" lon="8.78648">
        <ele>751</ele>
        <time>2021-08-04T09:29:04.903Z</time>
      </trkpt>
      <trkpt lat="46.9806" lon="8.78648">
        <ele>751</ele>
        <time>2021-08-04T09:29:05.903Z</time>
      </trkpt>
      <trkpt lat="46.9806" lon="8.78648">
        <ele>751</ele>
        <time>2021-08-04T09:29:06.903Z</time>
      </trkpt>
      <trkpt lat="46.98059" lon="8.78647">
        <ele>750</ele>
        <time>2021-08-04T09:29:07.903Z</time>
      </trkpt>
      <trkpt lat="46.98059" lon="8.78647">
        <ele>750</ele>
        <time>2021-08-04T09:29:08.902Z</time>
      </trkpt>
      <trkpt lat="46.98058" lon="8.78646">
        <ele>750</ele>
        <time>2021-08-04T09:29:09.903Z</time>
      </trkpt>
      <trkpt lat="46.98057" lon="8.78645">
        <ele>750</ele>
        <time>2021-08-04T09:29:10.903Z</time>
      </trkpt>
      <trkpt lat="46.98055" lon="8.78644">
        <ele>749</ele>
        <time>2021-08-04T09:29:11.903Z</time>
      </trkpt>
      <trkpt lat="46.98054" lon="8.78644">
        <ele>749</ele>
        <time>2021-08-04T09:29:12.903Z</time>
      </trkpt>
      <trkpt lat="46.98053" lon="8.78644">
        <ele>749</ele>
        <time>2021-08-04T09:29:13.903Z</time>
      </trkpt>
      <trkpt lat="46.98052" lon="8.78643">
        <ele>749</ele>
        <time>2021-08-04T09:29:14.903Z</time>
      </trkpt>
      <trkpt lat="46.9805" lon="8.78643">
        <ele>749</ele>
        <time>2021-08-04T09:29:15.903Z</time>
      </trkpt>
      <trkpt lat="46.9805" lon="8.78643">
        <ele>748</ele>
        <time>2021-08-04T09:29:16.903Z</time>
      </trkpt>
      <trkpt lat="46.98049" lon="8.78644">
        <ele>747</ele>
        <time>2021-08-04T09:29:17.903Z</time>
      </trkpt>
      <trkpt lat="46.98049" lon="8.78644">
        <ele>746</ele>
        <time>2021-08-04T09:29:18.903Z</time>
      </trkpt>
      <trkpt lat="46.98048" lon="8.78644">
        <ele>746</ele>
        <time>2021-08-04T09:29:19.902Z</time>
      </trkpt>
      <trkpt lat="46.98048" lon="8.78644">
        <ele>745</ele>
        <time>2021-08-04T09:29:20.903Z</time>
      </trkpt>
      <trkpt lat="46.98047" lon="8.78644">
        <ele>745</ele>
        <time>2021-08-04T09:29:21.903Z</time>
      </trkpt>
      <trkpt lat="46.98046" lon="8.78644">
        <ele>745</ele>
        <time>2021-08-04T09:29:22.902Z</time>
      </trkpt>
      <trkpt lat="46.98046" lon="8.78644">
        <ele>745</ele>
        <time>2021-08-04T09:29:23.903Z</time>
      </trkpt>
      <trkpt lat="46.98045" lon="8.78643">
        <ele>745</ele>
        <time>2021-08-04T09:29:24.903Z</time>
      </trkpt>
      <trkpt lat="46.98044" lon="8.78643">
        <ele>745</ele>
        <time>2021-08-04T09:29:25.902Z</time>
      </trkpt>
      <trkpt lat="46.98044" lon="8.78643">
        <ele>745</ele>
        <time>2021-08-04T09:29:26.903Z</time>
      </trkpt>
      <trkpt lat="46.98043" lon="8.78643">
        <ele>746</ele>
        <time>2021-08-04T09:29:27.903Z</time>
      </trkpt>
      <trkpt lat="46.98042" lon="8.78643">
        <ele>746</ele>
        <time>2021-08-04T09:29:28.903Z</time>
      </trkpt>
      <trkpt lat="46.98041" lon="8.78643">
        <ele>746</ele>
        <time>2021-08-04T09:29:29.902Z</time>
      </trkpt>
      <trkpt lat="46.98041" lon="8.78644">
        <ele>747</ele>
        <time>2021-08-04T09:29:30.903Z</time>
      </trkpt>
      <trkpt lat="46.9804" lon="8.78644">
        <ele>747</ele>
        <time>2021-08-04T09:29:31.903Z</time>
      </trkpt>
      <trkpt lat="46.9804" lon="8.78644">
        <ele>747</ele>
        <time>2021-08-04T09:29:32.903Z</time>
      </trkpt>
      <trkpt lat="46.98039" lon="8.78644">
        <ele>746</ele>
        <time>2021-08-04T09:29:33.903Z</time>
      </trkpt>
      <trkpt lat="46.98038" lon="8.78644">
        <ele>747</ele>
        <time>2021-08-04T09:29:34.903Z</time>
      </trkpt>
      <trkpt lat="46.98037" lon="8.78643">
        <ele>747</ele>
        <time>2021-08-04T09:29:35.903Z</time>
      </trkpt>
      <trkpt lat="46.98036" lon="8.78643">
        <ele>747</ele>
        <time>2021-08-04T09:29:36.904Z</time>
      </trkpt>
      <trkpt lat="46.98035" lon="8.78643">
        <ele>747</ele>
        <time>2021-08-04T09:29:37.904Z</time>
      </trkpt>
      <trkpt lat="46.98034" lon="8.78643">
        <ele>747</ele>
        <time>2021-08-04T09:29:38.904Z</time>
      </trkpt>
      <trkpt lat="46.98033" lon="8.78643">
        <ele>747</ele>
        <time>2021-08-04T09:29:39.903Z</time>
      </trkpt>
      <trkpt lat="46.98033" lon="8.78643">
        <ele>746</ele>
        <time>2021-08-04T09:29:40.904Z</time>
      </trkpt>
      <trkpt lat="46.98032" lon="8.78644">
        <ele>746</ele>
        <time>2021-08-04T09:29:41.903Z</time>
      </trkpt>
      <trkpt lat="46.98031" lon="8.78644">
        <ele>745</ele>
        <time>2021-08-04T09:29:42.904Z</time>
      </trkpt>
      <trkpt lat="46.9803" lon="8.78645">
        <ele>745</ele>
        <time>2021-08-04T09:29:43.904Z</time>
      </trkpt>
      <trkpt lat="46.9803" lon="8.78645">
        <ele>745</ele>
        <time>2021-08-04T09:29:44.903Z</time>
      </trkpt>
      <trkpt lat="46.9803" lon="8.78646">
        <ele>744</ele>
        <time>2021-08-04T09:29:45.904Z</time>
      </trkpt>
      <trkpt lat="46.9803" lon="8.78645">
        <ele>744</ele>
        <time>2021-08-04T09:29:46.903Z</time>
      </trkpt>
      <trkpt lat="46.9803" lon="8.78645">
        <ele>744</ele>
        <time>2021-08-04T09:29:47.904Z</time>
      </trkpt>
      <trkpt lat="46.98029" lon="8.78646">
        <ele>744</ele>
        <time>2021-08-04T09:29:48.904Z</time>
      </trkpt>
      <trkpt lat="46.98029" lon="8.78646">
        <ele>743</ele>
        <time>2021-08-04T09:29:49.904Z</time>
      </trkpt>
      <trkpt lat="46.98028" lon="8.78647">
        <ele>743</ele>
        <time>2021-08-04T09:29:50.904Z</time>
      </trkpt>
      <trkpt lat="46.98028" lon="8.78648">
        <ele>742</ele>
        <time>2021-08-04T09:29:51.904Z</time>
      </trkpt>
      <trkpt lat="46.98027" lon="8.78649">
        <ele>742</ele>
        <time>2021-08-04T09:29:52.904Z</time>
      </trkpt>
      <trkpt lat="46.98026" lon="8.78649">
        <ele>741</ele>
        <time>2021-08-04T09:29:53.903Z</time>
      </trkpt>
      <trkpt lat="46.98026" lon="8.78649">
        <ele>741</ele>
        <time>2021-08-04T09:29:54.904Z</time>
      </trkpt>
      <trkpt lat="46.98025" lon="8.78649">
        <ele>741</ele>
        <time>2021-08-04T09:29:55.904Z</time>
      </trkpt>
      <trkpt lat="46.98025" lon="8.78649">
        <ele>741</ele>
        <time>2021-08-04T09:29:56.904Z</time>
      </trkpt>
      <trkpt lat="46.98024" lon="8.78648">
        <ele>741</ele>
        <time>2021-08-04T09:29:57.904Z</time>
      </trkpt>
      <trkpt lat="46.98023" lon="8.78648">
        <ele>741</ele>
        <time>2021-08-04T09:29:58.904Z</time>
      </trkpt>
      <trkpt lat="46.98022" lon="8.78647">
        <ele>741</ele>
        <time>2021-08-04T09:29:59.904Z</time>
      </trkpt>
      <trkpt lat="46.98021" lon="8.78647">
        <ele>741</ele>
        <time>2021-08-04T09:30:00.903Z</time>
      </trkpt>
      <trkpt lat="46.98021" lon="8.78647">
        <ele>741</ele>
        <time>2021-08-04T09:30:01.904Z</time>
      </trkpt>
      <trkpt lat="46.9802" lon="8.78647">
        <ele>740</ele>
        <time>2021-08-04T09:30:02.904Z</time>
      </trkpt>
      <trkpt lat="46.98019" lon="8.78646">
        <ele>740</ele>
        <time>2021-08-04T09:30:03.903Z</time>
      </trkpt>
      <trkpt lat="46.98018" lon="8.78646">
        <ele>739</ele>
        <time>2021-08-04T09:30:04.904Z</time>
      </trkpt>
      <trkpt lat="46.98017" lon="8.78646">
        <ele>739</ele>
        <time>2021-08-04T09:30:05.903Z</time>
      </trkpt>
      <trkpt lat="46.98017" lon="8.78646">
        <ele>739</ele>
        <time>2021-08-04T09:30:06.903Z</time>
      </trkpt>
      <trkpt lat="46.98016" lon="8.78646">
        <ele>739</ele>
        <time>2021-08-04T09:30:07.904Z</time>
      </trkpt>
      <trkpt lat="46.98016" lon="8.78646">
        <ele>739</ele>
        <time>2021-08-04T09:30:08.904Z</time>
      </trkpt>
      <trkpt lat="46.98016" lon="8.78646">
        <ele>739</ele>
        <time>2021-08-04T09:30:09.903Z</time>
      </trkpt>
      <trkpt lat="46.98015" lon="8.78645">
        <ele>740</ele>
        <time>2021-08-04T09:30:10.904Z</time>
      </trkpt>
      <trkpt lat="46.98015" lon="8.78644">
        <ele>740</ele>
        <time>2021-08-04T09:30:11.903Z</time>
      </trkpt>
      <trkpt lat="46.98014" lon="8.78643">
        <ele>740</ele>
        <time>2021-08-04T09:30:12.903Z</time>
      </trkpt>
      <trkpt lat="46.98014" lon="8.78643">
        <ele>740</ele>
        <time>2021-08-04T09:30:13.904Z</time>
      </trkpt>
      <trkpt lat="46.98013" lon="8.78642">
        <ele>741</ele>
        <time>2021-08-04T09:30:14.904Z</time>
      </trkpt>
      <trkpt lat="46.98013" lon="8.78642">
        <ele>740</ele>
        <time>2021-08-04T09:30:15.903Z</time>
      </trkpt>
      <trkpt lat="46.98011" lon="8.78642">
        <ele>740</ele>
        <time>2021-08-04T09:30:16.904Z</time>
      </trkpt>
      <trkpt lat="46.9801" lon="8.78641">
        <ele>740</ele>
        <time>2021-08-04T09:30:17.904Z</time>
      </trkpt>
      <trkpt lat="46.98009" lon="8.78641">
        <ele>740</ele>
        <time>2021-08-04T09:30:18.903Z</time>
      </trkpt>
      <trkpt lat="46.98008" lon="8.7864">
        <ele>740</ele>
        <time>2021-08-04T09:30:19.904Z</time>
      </trkpt>
      <trkpt lat="46.98007" lon="8.78639">
        <ele>740</ele>
        <time>2021-08-04T09:30:20.904Z</time>
      </trkpt>
      <trkpt lat="46.98006" lon="8.78638">
        <ele>740</ele>
        <time>2021-08-04T09:30:21.903Z</time>
      </trkpt>
      <trkpt lat="46.98005" lon="8.78637">
        <ele>740</ele>
        <time>2021-08-04T09:30:22.904Z</time>
      </trkpt>
      <trkpt lat="46.98005" lon="8.78638">
        <ele>740</ele>
        <time>2021-08-04T09:30:23.904Z</time>
      </trkpt>
      <trkpt lat="46.98004" lon="8.78638">
        <ele>740</ele>
        <time>2021-08-04T09:30:24.903Z</time>
      </trkpt>
      <trkpt lat="46.98003" lon="8.78638">
        <ele>740</ele>
        <time>2021-08-04T09:30:25.903Z</time>
      </trkpt>
      <trkpt lat="46.98003" lon="8.78638">
        <ele>740</ele>
        <time>2021-08-04T09:30:26.904Z</time>
      </trkpt>
      <trkpt lat="46.98002" lon="8.78639">
        <ele>740</ele>
        <time>2021-08-04T09:30:27.904Z</time>
      </trkpt>
      <trkpt lat="46.98001" lon="8.78639">
        <ele>740</ele>
        <time>2021-08-04T09:30:28.904Z</time>
      </trkpt>
      <trkpt lat="46.98" lon="8.78639">
        <ele>740</ele>
        <time>2021-08-04T09:30:29.903Z</time>
      </trkpt>
      <trkpt lat="46.98" lon="8.78639">
        <ele>739</ele>
        <time>2021-08-04T09:30:30.904Z</time>
      </trkpt>
      <trkpt lat="46.98" lon="8.7864">
        <ele>739</ele>
        <time>2021-08-04T09:30:31.904Z</time>
      </trkpt>
      <trkpt lat="46.98" lon="8.7864">
        <ele>739</ele>
        <time>2021-08-04T09:30:32.904Z</time>
      </trkpt>
      <trkpt lat="46.98001" lon="8.7864">
        <ele>739</ele>
        <time>2021-08-04T09:30:33.904Z</time>
      </trkpt>
      <trkpt lat="46.98" lon="8.7864">
        <ele>740</ele>
        <time>2021-08-04T09:30:34.904Z</time>
      </trkpt>
      <trkpt lat="46.97998" lon="8.78639">
        <ele>740</ele>
        <time>2021-08-04T09:30:35.904Z</time>
      </trkpt>
      <trkpt lat="46.97997" lon="8.78639">
        <ele>741</ele>
        <time>2021-08-04T09:30:36.904Z</time>
      </trkpt>
      <trkpt lat="46.97997" lon="8.78639">
        <ele>741</ele>
        <time>2021-08-04T09:30:37.905Z</time>
      </trkpt>
      <trkpt lat="46.97996" lon="8.78639">
        <ele>741</ele>
        <time>2021-08-04T09:30:38.904Z</time>
      </trkpt>
      <trkpt lat="46.97996" lon="8.78639">
        <ele>741</ele>
        <time>2021-08-04T09:30:39.905Z</time>
      </trkpt>
      <trkpt lat="46.97995" lon="8.7864">
        <ele>741</ele>
        <time>2021-08-04T09:30:40.905Z</time>
      </trkpt>
      <trkpt lat="46.97994" lon="8.7864">
        <ele>740</ele>
        <time>2021-08-04T09:30:41.905Z</time>
      </trkpt>
      <trkpt lat="46.97993" lon="8.7864">
        <ele>740</ele>
        <time>2021-08-04T09:30:42.905Z</time>
      </trkpt>
      <trkpt lat="46.97992" lon="8.7864">
        <ele>740</ele>
        <time>2021-08-04T09:30:43.905Z</time>
      </trkpt>
      <trkpt lat="46.97992" lon="8.78639">
        <ele>740</ele>
        <time>2021-08-04T09:30:44.904Z</time>
      </trkpt>
      <trkpt lat="46.97992" lon="8.78639">
        <ele>739</ele>
        <time>2021-08-04T09:30:45.904Z</time>
      </trkpt>
      <trkpt lat="46.97991" lon="8.78639">
        <ele>739</ele>
        <time>2021-08-04T09:30:46.905Z</time>
      </trkpt>
      <trkpt lat="46.97991" lon="8.78639">
        <ele>739</ele>
        <time>2021-08-04T09:30:47.905Z</time>
      </trkpt>
      <trkpt lat="46.97991" lon="8.78639">
        <ele>738</ele>
        <time>2021-08-04T09:30:48.905Z</time>
      </trkpt>
      <trkpt lat="46.9799" lon="8.78638">
        <ele>738</ele>
        <time>2021-08-04T09:30:49.905Z</time>
      </trkpt>
      <trkpt lat="46.9799" lon="8.78638">
        <ele>737</ele>
        <time>2021-08-04T09:30:50.905Z</time>
      </trkpt>
      <trkpt lat="46.97989" lon="8.78638">
        <ele>737</ele>
        <time>2021-08-04T09:30:51.904Z</time>
      </trkpt>
      <trkpt lat="46.97988" lon="8.78638">
        <ele>737</ele>
        <time>2021-08-04T09:30:52.905Z</time>
      </trkpt>
      <trkpt lat="46.97987" lon="8.78637">
        <ele>736</ele>
        <time>2021-08-04T09:30:53.905Z</time>
      </trkpt>
      <trkpt lat="46.97986" lon="8.78636">
        <ele>736</ele>
        <time>2021-08-04T09:30:54.905Z</time>
      </trkpt>
      <trkpt lat="46.97986" lon="8.78635">
        <ele>736</ele>
        <time>2021-08-04T09:30:55.905Z</time>
      </trkpt>
      <trkpt lat="46.97986" lon="8.78635">
        <ele>736</ele>
        <time>2021-08-04T09:30:56.905Z</time>
      </trkpt>
      <trkpt lat="46.97985" lon="8.78634">
        <ele>735</ele>
        <time>2021-08-04T09:30:57.905Z</time>
      </trkpt>
      <trkpt lat="46.97985" lon="8.78634">
        <ele>735</ele>
        <time>2021-08-04T09:30:58.905Z</time>
      </trkpt>
      <trkpt lat="46.97985" lon="8.78633">
        <ele>734</ele>
        <time>2021-08-04T09:30:59.905Z</time>
      </trkpt>
      <trkpt lat="46.97984" lon="8.78633">
        <ele>734</ele>
        <time>2021-08-04T09:31:00.905Z</time>
      </trkpt>
      <trkpt lat="46.97983" lon="8.78633">
        <ele>734</ele>
        <time>2021-08-04T09:31:01.904Z</time>
      </trkpt>
      <trkpt lat="46.97982" lon="8.78633">
        <ele>734</ele>
        <time>2021-08-04T09:31:02.905Z</time>
      </trkpt>
      <trkpt lat="46.97982" lon="8.78632">
        <ele>734</ele>
        <time>2021-08-04T09:31:03.905Z</time>
      </trkpt>
      <trkpt lat="46.97981" lon="8.78632">
        <ele>734</ele>
        <time>2021-08-04T09:31:04.905Z</time>
      </trkpt>
      <trkpt lat="46.9798" lon="8.78631">
        <ele>734</ele>
        <time>2021-08-04T09:31:05.905Z</time>
      </trkpt>
      <trkpt lat="46.9798" lon="8.7863">
        <ele>733</ele>
        <time>2021-08-04T09:31:06.904Z</time>
      </trkpt>
      <trkpt lat="46.97979" lon="8.7863">
        <ele>733</ele>
        <time>2021-08-04T09:31:07.905Z</time>
      </trkpt>
      <trkpt lat="46.97978" lon="8.78629">
        <ele>733</ele>
        <time>2021-08-04T09:31:08.905Z</time>
      </trkpt>
      <trkpt lat="46.97977" lon="8.78628">
        <ele>733</ele>
        <time>2021-08-04T09:31:09.905Z</time>
      </trkpt>
      <trkpt lat="46.97977" lon="8.78627">
        <ele>733</ele>
        <time>2021-08-04T09:31:10.905Z</time>
      </trkpt>
      <trkpt lat="46.97976" lon="8.78626">
        <ele>734</ele>
        <time>2021-08-04T09:31:11.905Z</time>
      </trkpt>
      <trkpt lat="46.97975" lon="8.78626">
        <ele>734</ele>
        <time>2021-08-04T09:31:12.905Z</time>
      </trkpt>
      <trkpt lat="46.97975" lon="8.78626">
        <ele>734</ele>
        <time>2021-08-04T09:31:13.905Z</time>
      </trkpt>
      <trkpt lat="46.97974" lon="8.78626">
        <ele>735</ele>
        <time>2021-08-04T09:31:14.905Z</time>
      </trkpt>
      <trkpt lat="46.97974" lon="8.78627">
        <ele>735</ele>
        <time>2021-08-04T09:31:15.905Z</time>
      </trkpt>
      <trkpt lat="46.97973" lon="8.78627">
        <ele>735</ele>
        <time>2021-08-04T09:31:16.905Z</time>
      </trkpt>
      <trkpt lat="46.97973" lon="8.78627">
        <ele>735</ele>
        <time>2021-08-04T09:31:17.905Z</time>
      </trkpt>
      <trkpt lat="46.97972" lon="8.78627">
        <ele>735</ele>
        <time>2021-08-04T09:31:18.904Z</time>
      </trkpt>
      <trkpt lat="46.97972" lon="8.78628">
        <ele>735</ele>
        <time>2021-08-04T09:31:19.905Z</time>
      </trkpt>
      <trkpt lat="46.97971" lon="8.78628">
        <ele>735</ele>
        <time>2021-08-04T09:31:20.905Z</time>
      </trkpt>
      <trkpt lat="46.97971" lon="8.78628">
        <ele>735</ele>
        <time>2021-08-04T09:31:21.905Z</time>
      </trkpt>
      <trkpt lat="46.9797" lon="8.78629">
        <ele>735</ele>
        <time>2021-08-04T09:31:22.904Z</time>
      </trkpt>
      <trkpt lat="46.9797" lon="8.78628">
        <ele>736</ele>
        <time>2021-08-04T09:31:23.904Z</time>
      </trkpt>
      <trkpt lat="46.97968" lon="8.78628">
        <ele>736</ele>
        <time>2021-08-04T09:31:24.905Z</time>
      </trkpt>
      <trkpt lat="46.97968" lon="8.78627">
        <ele>736</ele>
        <time>2021-08-04T09:31:25.905Z</time>
      </trkpt>
      <trkpt lat="46.97967" lon="8.78627">
        <ele>737</ele>
        <time>2021-08-04T09:31:26.905Z</time>
      </trkpt>
      <trkpt lat="46.97965" lon="8.78625">
        <ele>737</ele>
        <time>2021-08-04T09:31:27.905Z</time>
      </trkpt>
      <trkpt lat="46.97963" lon="8.78625">
        <ele>737</ele>
        <time>2021-08-04T09:31:28.904Z</time>
      </trkpt>
      <trkpt lat="46.97963" lon="8.78624">
        <ele>738</ele>
        <time>2021-08-04T09:31:29.904Z</time>
      </trkpt>
      <trkpt lat="46.97962" lon="8.78624">
        <ele>738</ele>
        <time>2021-08-04T09:31:30.905Z</time>
      </trkpt>
      <trkpt lat="46.97961" lon="8.78624">
        <ele>738</ele>
        <time>2021-08-04T09:31:31.904Z</time>
      </trkpt>
      <trkpt lat="46.9796" lon="8.78623">
        <ele>738</ele>
        <time>2021-08-04T09:31:32.904Z</time>
      </trkpt>
      <trkpt lat="46.97959" lon="8.78623">
        <ele>738</ele>
        <time>2021-08-04T09:31:33.904Z</time>
      </trkpt>
      <trkpt lat="46.97958" lon="8.78623">
        <ele>738</ele>
        <time>2021-08-04T09:31:34.904Z</time>
      </trkpt>
      <trkpt lat="46.97957" lon="8.78623">
        <ele>739</ele>
        <time>2021-08-04T09:31:35.905Z</time>
      </trkpt>
      <trkpt lat="46.97957" lon="8.78624">
        <ele>738</ele>
        <time>2021-08-04T09:31:36.904Z</time>
      </trkpt>
      <trkpt lat="46.97957" lon="8.78624">
        <ele>738</ele>
        <time>2021-08-04T09:31:37.904Z</time>
      </trkpt>
      <trkpt lat="46.97956" lon="8.78625">
        <ele>738</ele>
        <time>2021-08-04T09:31:38.904Z</time>
      </trkpt>
      <trkpt lat="46.97956" lon="8.78625">
        <ele>738</ele>
        <time>2021-08-04T09:31:39.904Z</time>
      </trkpt>
      <trkpt lat="46.97956" lon="8.78626">
        <ele>737</ele>
        <time>2021-08-04T09:31:40.905Z</time>
      </trkpt>
      <trkpt lat="46.97955" lon="8.78627">
        <ele>736</ele>
        <time>2021-08-04T09:31:41.905Z</time>
      </trkpt>
      <trkpt lat="46.97955" lon="8.78627">
        <ele>735</ele>
        <time>2021-08-04T09:31:42.905Z</time>
      </trkpt>
      <trkpt lat="46.97955" lon="8.78626">
        <ele>733</ele>
        <time>2021-08-04T09:31:43.905Z</time>
      </trkpt>
      <trkpt lat="46.97955" lon="8.78625">
        <ele>733</ele>
        <time>2021-08-04T09:31:44.906Z</time>
      </trkpt>
      <trkpt lat="46.97955" lon="8.78624">
        <ele>732</ele>
        <time>2021-08-04T09:31:45.905Z</time>
      </trkpt>
      <trkpt lat="46.97954" lon="8.78624">
        <ele>732</ele>
        <time>2021-08-04T09:31:46.906Z</time>
      </trkpt>
      <trkpt lat="46.97953" lon="8.78623">
        <ele>732</ele>
        <time>2021-08-04T09:31:47.906Z</time>
      </trkpt>
      <trkpt lat="46.97953" lon="8.78622">
        <ele>732</ele>
        <time>2021-08-04T09:31:48.906Z</time>
      </trkpt>
      <trkpt lat="46.97953" lon="8.78621">
        <ele>732</ele>
        <time>2021-08-04T09:31:49.905Z</time>
      </trkpt>
      <trkpt lat="46.97953" lon="8.78621">
        <ele>732</ele>
        <time>2021-08-04T09:31:50.906Z</time>
      </trkpt>
      <trkpt lat="46.97952" lon="8.7862">
        <ele>732</ele>
        <time>2021-08-04T09:31:51.906Z</time>
      </trkpt>
      <trkpt lat="46.97952" lon="8.7862">
        <ele>732</ele>
        <time>2021-08-04T09:31:52.906Z</time>
      </trkpt>
      <trkpt lat="46.97952" lon="8.78619">
        <ele>731</ele>
        <time>2021-08-04T09:31:53.906Z</time>
      </trkpt>
      <trkpt lat="46.97952" lon="8.78619">
        <ele>731</ele>
        <time>2021-08-04T09:31:54.906Z</time>
      </trkpt>
      <trkpt lat="46.97952" lon="8.78618">
        <ele>730</ele>
        <time>2021-08-04T09:31:55.906Z</time>
      </trkpt>
      <trkpt lat="46.97951" lon="8.78618">
        <ele>729</ele>
        <time>2021-08-04T09:31:56.906Z</time>
      </trkpt>
      <trkpt lat="46.97951" lon="8.78618">
        <ele>729</ele>
        <time>2021-08-04T09:31:57.906Z</time>
      </trkpt>
      <trkpt lat="46.9795" lon="8.78618">
        <ele>728</ele>
        <time>2021-08-04T09:31:58.906Z</time>
      </trkpt>
      <trkpt lat="46.97949" lon="8.78618">
        <ele>728</ele>
        <time>2021-08-04T09:31:59.905Z</time>
      </trkpt>
      <trkpt lat="46.97948" lon="8.78617">
        <ele>728</ele>
        <time>2021-08-04T09:32:00.906Z</time>
      </trkpt>
      <trkpt lat="46.97948" lon="8.78617">
        <ele>728</ele>
        <time>2021-08-04T09:32:01.906Z</time>
      </trkpt>
      <trkpt lat="46.97947" lon="8.78618">
        <ele>728</ele>
        <time>2021-08-04T09:32:02.906Z</time>
      </trkpt>
      <trkpt lat="46.97945" lon="8.78617">
        <ele>728</ele>
        <time>2021-08-04T09:32:03.906Z</time>
      </trkpt>
      <trkpt lat="46.97943" lon="8.78616">
        <ele>728</ele>
        <time>2021-08-04T09:32:04.906Z</time>
      </trkpt>
      <trkpt lat="46.97942" lon="8.78615">
        <ele>729</ele>
        <time>2021-08-04T09:32:05.906Z</time>
      </trkpt>
      <trkpt lat="46.97941" lon="8.78614">
        <ele>729</ele>
        <time>2021-08-04T09:32:06.906Z</time>
      </trkpt>
      <trkpt lat="46.97939" lon="8.78613">
        <ele>729</ele>
        <time>2021-08-04T09:32:07.906Z</time>
      </trkpt>
      <trkpt lat="46.97939" lon="8.78613">
        <ele>729</ele>
        <time>2021-08-04T09:32:08.905Z</time>
      </trkpt>
      <trkpt lat="46.97939" lon="8.78613">
        <ele>729</ele>
        <time>2021-08-04T09:32:09.905Z</time>
      </trkpt>
      <trkpt lat="46.97938" lon="8.78614">
        <ele>729</ele>
        <time>2021-08-04T09:32:10.905Z</time>
      </trkpt>
      <trkpt lat="46.97939" lon="8.78614">
        <ele>729</ele>
        <time>2021-08-04T09:32:11.906Z</time>
      </trkpt>
      <trkpt lat="46.97942" lon="8.78616">
        <ele>726</ele>
        <time>2021-08-04T09:32:12.905Z</time>
      </trkpt>
      <trkpt lat="46.97942" lon="8.78616">
        <ele>725</ele>
        <time>2021-08-04T09:32:13.906Z</time>
      </trkpt>
      <trkpt lat="46.97943" lon="8.78616">
        <ele>725</ele>
        <time>2021-08-04T09:32:14.905Z</time>
      </trkpt>
      <trkpt lat="46.97943" lon="8.78616">
        <ele>724</ele>
        <time>2021-08-04T09:32:15.906Z</time>
      </trkpt>
      <trkpt lat="46.97943" lon="8.78616">
        <ele>723</ele>
        <time>2021-08-04T09:32:16.905Z</time>
      </trkpt>
      <trkpt lat="46.97944" lon="8.78616">
        <ele>722</ele>
        <time>2021-08-04T09:32:17.905Z</time>
      </trkpt>
      <trkpt lat="46.97945" lon="8.78616">
        <ele>721</ele>
        <time>2021-08-04T09:32:18.906Z</time>
      </trkpt>
      <trkpt lat="46.97945" lon="8.78615">
        <ele>720</ele>
        <time>2021-08-04T09:32:19.906Z</time>
      </trkpt>
      <trkpt lat="46.97946" lon="8.78614">
        <ele>719</ele>
        <time>2021-08-04T09:32:20.906Z</time>
      </trkpt>
      <trkpt lat="46.97946" lon="8.78613">
        <ele>718</ele>
        <time>2021-08-04T09:32:21.906Z</time>
      </trkpt>
      <trkpt lat="46.97947" lon="8.78612">
        <ele>717</ele>
        <time>2021-08-04T09:32:22.906Z</time>
      </trkpt>
      <trkpt lat="46.97947" lon="8.78611">
        <ele>717</ele>
        <time>2021-08-04T09:32:23.906Z</time>
      </trkpt>
      <trkpt lat="46.97947" lon="8.78609">
        <ele>716</ele>
        <time>2021-08-04T09:32:24.906Z</time>
      </trkpt>
      <trkpt lat="46.97947" lon="8.78608">
        <ele>716</ele>
        <time>2021-08-04T09:32:25.905Z</time>
      </trkpt>
      <trkpt lat="46.97948" lon="8.78607">
        <ele>715</ele>
        <time>2021-08-04T09:32:26.905Z</time>
      </trkpt>
      <trkpt lat="46.97949" lon="8.78606">
        <ele>715</ele>
        <time>2021-08-04T09:32:27.906Z</time>
      </trkpt>
      <trkpt lat="46.97951" lon="8.78606">
        <ele>714</ele>
        <time>2021-08-04T09:32:28.906Z</time>
      </trkpt>
      <trkpt lat="46.97951" lon="8.78605">
        <ele>714</ele>
        <time>2021-08-04T09:32:29.906Z</time>
      </trkpt>
      <trkpt lat="46.97952" lon="8.78604">
        <ele>713</ele>
        <time>2021-08-04T09:32:30.905Z</time>
      </trkpt>
      <trkpt lat="46.97952" lon="8.78603">
        <ele>713</ele>
        <time>2021-08-04T09:32:31.906Z</time>
      </trkpt>
      <trkpt lat="46.97952" lon="8.78602">
        <ele>714</ele>
        <time>2021-08-04T09:32:32.906Z</time>
      </trkpt>
      <trkpt lat="46.97953" lon="8.78601">
        <ele>714</ele>
        <time>2021-08-04T09:32:33.906Z</time>
      </trkpt>
      <trkpt lat="46.97953" lon="8.786">
        <ele>714</ele>
        <time>2021-08-04T09:32:34.906Z</time>
      </trkpt>
      <trkpt lat="46.97953" lon="8.78599">
        <ele>714</ele>
        <time>2021-08-04T09:32:35.905Z</time>
      </trkpt>
      <trkpt lat="46.97953" lon="8.78598">
        <ele>714</ele>
        <time>2021-08-04T09:32:36.906Z</time>
      </trkpt>
      <trkpt lat="46.97953" lon="8.78596">
        <ele>714</ele>
        <time>2021-08-04T09:32:37.905Z</time>
      </trkpt>
      <trkpt lat="46.97952" lon="8.78596">
        <ele>713</ele>
        <time>2021-08-04T09:32:38.905Z</time>
      </trkpt>
      <trkpt lat="46.97952" lon="8.78595">
        <ele>713</ele>
        <time>2021-08-04T09:32:39.905Z</time>
      </trkpt>
      <trkpt lat="46.9795" lon="8.78593">
        <ele>712</ele>
        <time>2021-08-04T09:32:40.906Z</time>
      </trkpt>
      <trkpt lat="46.97949" lon="8.78593">
        <ele>712</ele>
        <time>2021-08-04T09:32:41.905Z</time>
      </trkpt>
      <trkpt lat="46.97948" lon="8.78593">
        <ele>711</ele>
        <time>2021-08-04T09:32:42.906Z</time>
      </trkpt>
      <trkpt lat="46.97948" lon="8.78593">
        <ele>711</ele>
        <time>2021-08-04T09:32:43.905Z</time>
      </trkpt>
      <trkpt lat="46.97946" lon="8.78593">
        <ele>712</ele>
        <time>2021-08-04T09:32:44.905Z</time>
      </trkpt>
      <trkpt lat="46.97945" lon="8.78594">
        <ele>712</ele>
        <time>2021-08-04T09:32:45.905Z</time>
      </trkpt>
      <trkpt lat="46.97945" lon="8.78593">
        <ele>712</ele>
        <time>2021-08-04T09:32:46.905Z</time>
      </trkpt>
      <trkpt lat="46.97944" lon="8.78592">
        <ele>712</ele>
        <time>2021-08-04T09:32:47.905Z</time>
      </trkpt>
      <trkpt lat="46.97943" lon="8.78591">
        <ele>712</ele>
        <time>2021-08-04T09:32:48.906Z</time>
      </trkpt>
      <trkpt lat="46.97942" lon="8.7859">
        <ele>711</ele>
        <time>2021-08-04T09:32:49.906Z</time>
      </trkpt>
      <trkpt lat="46.97941" lon="8.7859">
        <ele>711</ele>
        <time>2021-08-04T09:32:50.906Z</time>
      </trkpt>
      <trkpt lat="46.97941" lon="8.7859">
        <ele>710</ele>
        <time>2021-08-04T09:32:51.905Z</time>
      </trkpt>
      <trkpt lat="46.9794" lon="8.7859">
        <ele>710</ele>
        <time>2021-08-04T09:32:52.906Z</time>
      </trkpt>
      <trkpt lat="46.9794" lon="8.78589">
        <ele>709</ele>
        <time>2021-08-04T09:32:53.906Z</time>
      </trkpt>
      <trkpt lat="46.97939" lon="8.78589">
        <ele>709</ele>
        <time>2021-08-04T09:32:54.906Z</time>
      </trkpt>
      <trkpt lat="46.97938" lon="8.78589">
        <ele>708</ele>
        <time>2021-08-04T09:32:55.905Z</time>
      </trkpt>
      <trkpt lat="46.97938" lon="8.78589">
        <ele>707</ele>
        <time>2021-08-04T09:33:11.013Z</time>
      </trkpt>
      <trkpt lat="46.97937" lon="8.78589">
        <ele>707</ele>
        <time>2021-08-04T09:33:12.013Z</time>
      </trkpt>
      <trkpt lat="46.97936" lon="8.78588">
        <ele>706</ele>
        <time>2021-08-04T09:33:13.013Z</time>
      </trkpt>
      <trkpt lat="46.97935" lon="8.78588">
        <ele>705</ele>
        <time>2021-08-04T09:33:14.013Z</time>
      </trkpt>
      <trkpt lat="46.97934" lon="8.78588">
        <ele>705</ele>
        <time>2021-08-04T09:33:15.012Z</time>
      </trkpt>
      <trkpt lat="46.97933" lon="8.78588">
        <ele>705</ele>
        <time>2021-08-04T09:33:16.012Z</time>
      </trkpt>
      <trkpt lat="46.97932" lon="8.78588">
        <ele>704</ele>
        <time>2021-08-04T09:33:17.013Z</time>
      </trkpt>
      <trkpt lat="46.97931" lon="8.78589">
        <ele>704</ele>
        <time>2021-08-04T09:33:18.013Z</time>
      </trkpt>
      <trkpt lat="46.9793" lon="8.78588">
        <ele>704</ele>
        <time>2021-08-04T09:33:19.012Z</time>
      </trkpt>
      <trkpt lat="46.97929" lon="8.78588">
        <ele>704</ele>
        <time>2021-08-04T09:33:20.013Z</time>
      </trkpt>
      <trkpt lat="46.97928" lon="8.78588">
        <ele>704</ele>
        <time>2021-08-04T09:33:21.013Z</time>
      </trkpt>
      <trkpt lat="46.97926" lon="8.78588">
        <ele>704</ele>
        <time>2021-08-04T09:33:22.012Z</time>
      </trkpt>
      <trkpt lat="46.97925" lon="8.78588">
        <ele>705</ele>
        <time>2021-08-04T09:33:23.013Z</time>
      </trkpt>
      <trkpt lat="46.97924" lon="8.78588">
        <ele>705</ele>
        <time>2021-08-04T09:33:24.013Z</time>
      </trkpt>
      <trkpt lat="46.97924" lon="8.78588">
        <ele>705</ele>
        <time>2021-08-04T09:33:25.012Z</time>
      </trkpt>
      <trkpt lat="46.97923" lon="8.78588">
        <ele>705</ele>
        <time>2021-08-04T09:33:29.176Z</time>
      </trkpt>
      <trkpt lat="46.97923" lon="8.78588">
        <ele>705</ele>
        <time>2021-08-04T09:33:30.176Z</time>
      </trkpt>
      <trkpt lat="46.97922" lon="8.78588">
        <ele>705</ele>
        <time>2021-08-04T09:33:31.176Z</time>
      </trkpt>
      <trkpt lat="46.97921" lon="8.78588">
        <ele>705</ele>
        <time>2021-08-04T09:33:32.175Z</time>
      </trkpt>
      <trkpt lat="46.9792" lon="8.78588">
        <ele>704</ele>
        <time>2021-08-04T09:33:33.176Z</time>
      </trkpt>
      <trkpt lat="46.97919" lon="8.78588">
        <ele>704</ele>
        <time>2021-08-04T09:33:34.176Z</time>
      </trkpt>
      <trkpt lat="46.97919" lon="8.78588">
        <ele>704</ele>
        <time>2021-08-04T09:33:40.300Z</time>
      </trkpt>
      <trkpt lat="46.97918" lon="8.78587">
        <ele>703</ele>
        <time>2021-08-04T09:33:41.300Z</time>
      </trkpt>
      <trkpt lat="46.97917" lon="8.78587">
        <ele>703</ele>
        <time>2021-08-04T09:33:42.300Z</time>
      </trkpt>
      <trkpt lat="46.97916" lon="8.78586">
        <ele>703</ele>
        <time>2021-08-04T09:33:43.299Z</time>
      </trkpt>
      <trkpt lat="46.97915" lon="8.78585">
        <ele>703</ele>
        <time>2021-08-04T09:33:44.299Z</time>
      </trkpt>
      <trkpt lat="46.97914" lon="8.78584">
        <ele>703</ele>
        <time>2021-08-04T09:33:45.299Z</time>
      </trkpt>
      <trkpt lat="46.97912" lon="8.78583">
        <ele>703</ele>
        <time>2021-08-04T09:33:46.299Z</time>
      </trkpt>
      <trkpt lat="46.97911" lon="8.78581">
        <ele>703</ele>
        <time>2021-08-04T09:33:47.300Z</time>
      </trkpt>
      <trkpt lat="46.9791" lon="8.7858">
        <ele>703</ele>
        <time>2021-08-04T09:33:48.299Z</time>
      </trkpt>
      <trkpt lat="46.97909" lon="8.78579">
        <ele>703</ele>
        <time>2021-08-04T09:33:49.299Z</time>
      </trkpt>
      <trkpt lat="46.97908" lon="8.78578">
        <ele>703</ele>
        <time>2021-08-04T09:33:50.299Z</time>
      </trkpt>
      <trkpt lat="46.97907" lon="8.78577">
        <ele>702</ele>
        <time>2021-08-04T09:33:51.300Z</time>
      </trkpt>
      <trkpt lat="46.97906" lon="8.78575">
        <ele>702</ele>
        <time>2021-08-04T09:33:52.300Z</time>
      </trkpt>
      <trkpt lat="46.97906" lon="8.78573">
        <ele>702</ele>
        <time>2021-08-04T09:33:53.299Z</time>
      </trkpt>
      <trkpt lat="46.97906" lon="8.78572">
        <ele>702</ele>
        <time>2021-08-04T09:33:54.299Z</time>
      </trkpt>
      <trkpt lat="46.97905" lon="8.7857">
        <ele>701</ele>
        <time>2021-08-04T09:33:55.300Z</time>
      </trkpt>
      <trkpt lat="46.97904" lon="8.78569">
        <ele>701</ele>
        <time>2021-08-04T09:33:56.299Z</time>
      </trkpt>
      <trkpt lat="46.97902" lon="8.78568">
        <ele>701</ele>
        <time>2021-08-04T09:33:57.299Z</time>
      </trkpt>
      <trkpt lat="46.979" lon="8.78568">
        <ele>701</ele>
        <time>2021-08-04T09:33:58.300Z</time>
      </trkpt>
      <trkpt lat="46.97899" lon="8.78568">
        <ele>701</ele>
        <time>2021-08-04T09:33:59.299Z</time>
      </trkpt>
      <trkpt lat="46.97897" lon="8.78568">
        <ele>701</ele>
        <time>2021-08-04T09:34:00.300Z</time>
      </trkpt>
      <trkpt lat="46.97895" lon="8.78567">
        <ele>701</ele>
        <time>2021-08-04T09:34:01.300Z</time>
      </trkpt>
      <trkpt lat="46.97894" lon="8.78566">
        <ele>701</ele>
        <time>2021-08-04T09:34:02.299Z</time>
      </trkpt>
      <trkpt lat="46.97892" lon="8.78565">
        <ele>702</ele>
        <time>2021-08-04T09:34:03.299Z</time>
      </trkpt>
      <trkpt lat="46.97891" lon="8.78565">
        <ele>702</ele>
        <time>2021-08-04T09:34:04.299Z</time>
      </trkpt>
      <trkpt lat="46.97889" lon="8.78564">
        <ele>701</ele>
        <time>2021-08-04T09:34:05.300Z</time>
      </trkpt>
      <trkpt lat="46.97889" lon="8.78564">
        <ele>701</ele>
        <time>2021-08-04T09:34:06.299Z</time>
      </trkpt>
      <trkpt lat="46.97888" lon="8.78565">
        <ele>701</ele>
        <time>2021-08-04T09:34:07.299Z</time>
      </trkpt>
      <trkpt lat="46.97887" lon="8.78564">
        <ele>701</ele>
        <time>2021-08-04T09:34:08.299Z</time>
      </trkpt>
      <trkpt lat="46.97886" lon="8.78564">
        <ele>701</ele>
        <time>2021-08-04T09:34:09.299Z</time>
      </trkpt>
      <trkpt lat="46.97885" lon="8.78565">
        <ele>701</ele>
        <time>2021-08-04T09:34:10.299Z</time>
      </trkpt>
      <trkpt lat="46.97884" lon="8.78564">
        <ele>700</ele>
        <time>2021-08-04T09:34:11.299Z</time>
      </trkpt>
      <trkpt lat="46.97883" lon="8.78565">
        <ele>700</ele>
        <time>2021-08-04T09:34:12.299Z</time>
      </trkpt>
      <trkpt lat="46.97883" lon="8.78565">
        <ele>700</ele>
        <time>2021-08-04T09:34:13.299Z</time>
      </trkpt>
      <trkpt lat="46.97882" lon="8.78565">
        <ele>700</ele>
        <time>2021-08-04T09:34:14.299Z</time>
      </trkpt>
      <trkpt lat="46.97882" lon="8.78565">
        <ele>699</ele>
        <time>2021-08-04T09:34:15.300Z</time>
      </trkpt>
      <trkpt lat="46.97881" lon="8.78566">
        <ele>699</ele>
        <time>2021-08-04T09:34:16.299Z</time>
      </trkpt>
      <trkpt lat="46.9788" lon="8.78566">
        <ele>699</ele>
        <time>2021-08-04T09:34:17.299Z</time>
      </trkpt>
      <trkpt lat="46.97879" lon="8.78566">
        <ele>699</ele>
        <time>2021-08-04T09:34:25.468Z</time>
      </trkpt>
      <trkpt lat="46.97879" lon="8.78567">
        <ele>698</ele>
        <time>2021-08-04T09:34:26.468Z</time>
      </trkpt>
      <trkpt lat="46.97878" lon="8.78567">
        <ele>697</ele>
        <time>2021-08-04T09:34:27.468Z</time>
      </trkpt>
      <trkpt lat="46.97877" lon="8.78567">
        <ele>696</ele>
        <time>2021-08-04T09:34:28.468Z</time>
      </trkpt>
      <trkpt lat="46.97877" lon="8.78568">
        <ele>695</ele>
        <time>2021-08-04T09:34:29.468Z</time>
      </trkpt>
      <trkpt lat="46.97876" lon="8.78568">
        <ele>694</ele>
        <time>2021-08-04T09:34:30.468Z</time>
      </trkpt>
      <trkpt lat="46.97875" lon="8.78569">
        <ele>693</ele>
        <time>2021-08-04T09:34:31.468Z</time>
      </trkpt>
      <trkpt lat="46.97875" lon="8.7857">
        <ele>692</ele>
        <time>2021-08-04T09:34:32.468Z</time>
      </trkpt>
      <trkpt lat="46.97874" lon="8.7857">
        <ele>692</ele>
        <time>2021-08-04T09:34:33.468Z</time>
      </trkpt>
      <trkpt lat="46.97873" lon="8.78571">
        <ele>692</ele>
        <time>2021-08-04T09:34:34.468Z</time>
      </trkpt>
      <trkpt lat="46.97873" lon="8.78571">
        <ele>691</ele>
        <time>2021-08-04T09:34:35.468Z</time>
      </trkpt>
      <trkpt lat="46.97872" lon="8.78571">
        <ele>691</ele>
        <time>2021-08-04T09:34:36.468Z</time>
      </trkpt>
      <trkpt lat="46.97872" lon="8.7857">
        <ele>691</ele>
        <time>2021-08-04T09:34:37.468Z</time>
      </trkpt>
      <trkpt lat="46.97871" lon="8.7857">
        <ele>691</ele>
        <time>2021-08-04T09:34:38.468Z</time>
      </trkpt>
      <trkpt lat="46.9787" lon="8.7857">
        <ele>691</ele>
        <time>2021-08-04T09:34:39.468Z</time>
      </trkpt>
      <trkpt lat="46.9787" lon="8.78569">
        <ele>690</ele>
        <time>2021-08-04T09:34:40.468Z</time>
      </trkpt>
      <trkpt lat="46.97869" lon="8.78569">
        <ele>690</ele>
        <time>2021-08-04T09:34:41.469Z</time>
      </trkpt>
      <trkpt lat="46.97869" lon="8.78569">
        <ele>690</ele>
        <time>2021-08-04T09:34:42.468Z</time>
      </trkpt>
      <trkpt lat="46.97869" lon="8.78569">
        <ele>689</ele>
        <time>2021-08-04T09:34:43.468Z</time>
      </trkpt>
      <trkpt lat="46.97868" lon="8.78569">
        <ele>689</ele>
        <time>2021-08-04T09:34:44.468Z</time>
      </trkpt>
      <trkpt lat="46.97868" lon="8.78569">
        <ele>688</ele>
        <time>2021-08-04T09:34:45.468Z</time>
      </trkpt>
      <trkpt lat="46.97867" lon="8.7857">
        <ele>687</ele>
        <time>2021-08-04T09:34:46.469Z</time>
      </trkpt>
      <trkpt lat="46.97866" lon="8.78572">
        <ele>687</ele>
        <time>2021-08-04T09:34:47.469Z</time>
      </trkpt>
      <trkpt lat="46.97866" lon="8.78573">
        <ele>687</ele>
        <time>2021-08-04T09:34:48.468Z</time>
      </trkpt>
      <trkpt lat="46.97866" lon="8.78573">
        <ele>686</ele>
        <time>2021-08-04T09:34:49.469Z</time>
      </trkpt>
      <trkpt lat="46.97865" lon="8.78574">
        <ele>686</ele>
        <time>2021-08-04T09:34:50.469Z</time>
      </trkpt>
      <trkpt lat="46.97864" lon="8.78574">
        <ele>686</ele>
        <time>2021-08-04T09:34:51.469Z</time>
      </trkpt>
      <trkpt lat="46.97862" lon="8.78575">
        <ele>686</ele>
        <time>2021-08-04T09:34:52.469Z</time>
      </trkpt>
      <trkpt lat="46.97861" lon="8.78575">
        <ele>686</ele>
        <time>2021-08-04T09:34:53.468Z</time>
      </trkpt>
      <trkpt lat="46.9786" lon="8.78574">
        <ele>686</ele>
        <time>2021-08-04T09:34:54.468Z</time>
      </trkpt>
      <trkpt lat="46.9786" lon="8.78574">
        <ele>686</ele>
        <time>2021-08-04T09:34:55.469Z</time>
      </trkpt>
      <trkpt lat="46.97859" lon="8.78573">
        <ele>687</ele>
        <time>2021-08-04T09:34:56.469Z</time>
      </trkpt>
      <trkpt lat="46.97859" lon="8.78572">
        <ele>687</ele>
        <time>2021-08-04T09:34:57.468Z</time>
      </trkpt>
      <trkpt lat="46.97858" lon="8.78573">
        <ele>687</ele>
        <time>2021-08-04T09:34:58.468Z</time>
      </trkpt>
      <trkpt lat="46.97858" lon="8.78573">
        <ele>687</ele>
        <time>2021-08-04T09:34:59.468Z</time>
      </trkpt>
      <trkpt lat="46.97857" lon="8.78573">
        <ele>688</ele>
        <time>2021-08-04T09:35:00.469Z</time>
      </trkpt>
      <trkpt lat="46.97856" lon="8.78573">
        <ele>688</ele>
        <time>2021-08-04T09:35:01.469Z</time>
      </trkpt>
      <trkpt lat="46.97856" lon="8.78573">
        <ele>688</ele>
        <time>2021-08-04T09:35:02.468Z</time>
      </trkpt>
      <trkpt lat="46.97855" lon="8.78573">
        <ele>689</ele>
        <time>2021-08-04T09:35:03.468Z</time>
      </trkpt>
      <trkpt lat="46.97854" lon="8.78573">
        <ele>689</ele>
        <time>2021-08-04T09:35:04.469Z</time>
      </trkpt>
      <trkpt lat="46.97853" lon="8.78573">
        <ele>689</ele>
        <time>2021-08-04T09:35:05.468Z</time>
      </trkpt>
      <trkpt lat="46.97852" lon="8.78572">
        <ele>689</ele>
        <time>2021-08-04T09:35:06.469Z</time>
      </trkpt>
      <trkpt lat="46.9785" lon="8.78572">
        <ele>689</ele>
        <time>2021-08-04T09:35:07.469Z</time>
      </trkpt>
      <trkpt lat="46.97849" lon="8.78571">
        <ele>689</ele>
        <time>2021-08-04T09:35:08.469Z</time>
      </trkpt>
      <trkpt lat="46.97849" lon="8.78571">
        <ele>689</ele>
        <time>2021-08-04T09:35:09.468Z</time>
      </trkpt>
      <trkpt lat="46.97848" lon="8.78572">
        <ele>690</ele>
        <time>2021-08-04T09:35:10.469Z</time>
      </trkpt>
      <trkpt lat="46.97847" lon="8.78572">
        <ele>690</ele>
        <time>2021-08-04T09:35:11.469Z</time>
      </trkpt>
      <trkpt lat="46.97847" lon="8.78572">
        <ele>690</ele>
        <time>2021-08-04T09:35:12.469Z</time>
      </trkpt>
      <trkpt lat="46.97846" lon="8.78571">
        <ele>691</ele>
        <time>2021-08-04T09:35:13.468Z</time>
      </trkpt>
      <trkpt lat="46.97846" lon="8.78571">
        <ele>691</ele>
        <time>2021-08-04T09:35:14.469Z</time>
      </trkpt>
      <trkpt lat="46.97845" lon="8.78571">
        <ele>691</ele>
        <time>2021-08-04T09:35:15.469Z</time>
      </trkpt>
      <trkpt lat="46.97845" lon="8.78571">
        <ele>691</ele>
        <time>2021-08-04T09:35:16.469Z</time>
      </trkpt>
      <trkpt lat="46.97845" lon="8.78571">
        <ele>691</ele>
        <time>2021-08-04T09:35:17.469Z</time>
      </trkpt>
      <trkpt lat="46.97845" lon="8.7857">
        <ele>691</ele>
        <time>2021-08-04T09:35:18.468Z</time>
      </trkpt>
      <trkpt lat="46.97845" lon="8.7857">
        <ele>691</ele>
        <time>2021-08-04T09:35:19.469Z</time>
      </trkpt>
      <trkpt lat="46.97844" lon="8.78569">
        <ele>690</ele>
        <time>2021-08-04T09:35:20.469Z</time>
      </trkpt>
      <trkpt lat="46.97843" lon="8.78569">
        <ele>690</ele>
        <time>2021-08-04T09:35:21.468Z</time>
      </trkpt>
      <trkpt lat="46.97842" lon="8.78569">
        <ele>689</ele>
        <time>2021-08-04T09:35:22.468Z</time>
      </trkpt>
      <trkpt lat="46.97842" lon="8.78569">
        <ele>689</ele>
        <time>2021-08-04T09:35:23.469Z</time>
      </trkpt>
      <trkpt lat="46.97842" lon="8.78568">
        <ele>688</ele>
        <time>2021-08-04T09:35:24.468Z</time>
      </trkpt>
      <trkpt lat="46.97841" lon="8.78568">
        <ele>688</ele>
        <time>2021-08-04T09:35:25.469Z</time>
      </trkpt>
      <trkpt lat="46.97842" lon="8.78568">
        <ele>688</ele>
        <time>2021-08-04T09:35:26.469Z</time>
      </trkpt>
      <trkpt lat="46.97841" lon="8.78568">
        <ele>687</ele>
        <time>2021-08-04T09:35:27.469Z</time>
      </trkpt>
      <trkpt lat="46.97841" lon="8.78569">
        <ele>687</ele>
        <time>2021-08-04T09:35:28.468Z</time>
      </trkpt>
      <trkpt lat="46.9784" lon="8.78569">
        <ele>687</ele>
        <time>2021-08-04T09:35:29.469Z</time>
      </trkpt>
      <trkpt lat="46.9784" lon="8.78569">
        <ele>687</ele>
        <time>2021-08-04T09:35:30.469Z</time>
      </trkpt>
      <trkpt lat="46.97839" lon="8.7857">
        <ele>687</ele>
        <time>2021-08-04T09:35:31.469Z</time>
      </trkpt>
      <trkpt lat="46.97838" lon="8.7857">
        <ele>686</ele>
        <time>2021-08-04T09:35:32.468Z</time>
      </trkpt>
      <trkpt lat="46.97838" lon="8.78571">
        <ele>686</ele>
        <time>2021-08-04T09:35:33.468Z</time>
      </trkpt>
      <trkpt lat="46.97837" lon="8.78572">
        <ele>686</ele>
        <time>2021-08-04T09:35:34.469Z</time>
      </trkpt>
      <trkpt lat="46.97837" lon="8.78574">
        <ele>686</ele>
        <time>2021-08-04T09:35:35.469Z</time>
      </trkpt>
      <trkpt lat="46.97837" lon="8.78574">
        <ele>686</ele>
        <time>2021-08-04T09:35:36.468Z</time>
      </trkpt>
      <trkpt lat="46.97836" lon="8.78575">
        <ele>686</ele>
        <time>2021-08-04T09:35:37.469Z</time>
      </trkpt>
      <trkpt lat="46.97835" lon="8.78576">
        <ele>686</ele>
        <time>2021-08-04T09:35:38.468Z</time>
      </trkpt>
      <trkpt lat="46.97833" lon="8.78577">
        <ele>686</ele>
        <time>2021-08-04T09:35:39.469Z</time>
      </trkpt>
      <trkpt lat="46.97832" lon="8.78579">
        <ele>686</ele>
        <time>2021-08-04T09:35:40.469Z</time>
      </trkpt>
      <trkpt lat="46.97831" lon="8.78581">
        <ele>686</ele>
        <time>2021-08-04T09:35:41.469Z</time>
      </trkpt>
      <trkpt lat="46.9783" lon="8.78582">
        <ele>686</ele>
        <time>2021-08-04T09:35:42.469Z</time>
      </trkpt>
      <trkpt lat="46.97829" lon="8.78583">
        <ele>686</ele>
        <time>2021-08-04T09:35:43.468Z</time>
      </trkpt>
      <trkpt lat="46.97829" lon="8.78583">
        <ele>686</ele>
        <time>2021-08-04T09:35:44.468Z</time>
      </trkpt>
      <trkpt lat="46.97829" lon="8.78584">
        <ele>686</ele>
        <time>2021-08-04T09:35:45.469Z</time>
      </trkpt>
      <trkpt lat="46.97829" lon="8.78585">
        <ele>686</ele>
        <time>2021-08-04T09:35:46.468Z</time>
      </trkpt>
      <trkpt lat="46.97828" lon="8.78585">
        <ele>686</ele>
        <time>2021-08-04T09:35:47.469Z</time>
      </trkpt>
      <trkpt lat="46.97828" lon="8.78586">
        <ele>685</ele>
        <time>2021-08-04T09:35:48.468Z</time>
      </trkpt>
      <trkpt lat="46.97827" lon="8.78587">
        <ele>684</ele>
        <time>2021-08-04T09:35:49.469Z</time>
      </trkpt>
      <trkpt lat="46.97826" lon="8.78587">
        <ele>683</ele>
        <time>2021-08-04T09:35:50.468Z</time>
      </trkpt>
      <trkpt lat="46.97825" lon="8.78588">
        <ele>682</ele>
        <time>2021-08-04T09:35:51.468Z</time>
      </trkpt>
      <trkpt lat="46.97824" lon="8.78589">
        <ele>682</ele>
        <time>2021-08-04T09:35:52.469Z</time>
      </trkpt>
      <trkpt lat="46.97823" lon="8.78589">
        <ele>681</ele>
        <time>2021-08-04T09:35:53.469Z</time>
      </trkpt>
      <trkpt lat="46.97822" lon="8.7859">
        <ele>680</ele>
        <time>2021-08-04T09:35:54.468Z</time>
      </trkpt>
      <trkpt lat="46.97821" lon="8.7859">
        <ele>679</ele>
        <time>2021-08-04T09:35:55.468Z</time>
      </trkpt>
      <trkpt lat="46.9782" lon="8.7859">
        <ele>678</ele>
        <time>2021-08-04T09:35:56.468Z</time>
      </trkpt>
      <trkpt lat="46.97819" lon="8.7859">
        <ele>677</ele>
        <time>2021-08-04T09:35:57.468Z</time>
      </trkpt>
      <trkpt lat="46.97818" lon="8.7859">
        <ele>676</ele>
        <time>2021-08-04T09:35:58.468Z</time>
      </trkpt>
      <trkpt lat="46.97817" lon="8.7859">
        <ele>676</ele>
        <time>2021-08-04T09:35:59.469Z</time>
      </trkpt>
      <trkpt lat="46.97816" lon="8.78589">
        <ele>675</ele>
        <time>2021-08-04T09:36:00.469Z</time>
      </trkpt>
      <trkpt lat="46.97815" lon="8.78589">
        <ele>674</ele>
        <time>2021-08-04T09:36:01.468Z</time>
      </trkpt>
      <trkpt lat="46.97814" lon="8.78588">
        <ele>674</ele>
        <time>2021-08-04T09:36:02.468Z</time>
      </trkpt>
      <trkpt lat="46.97813" lon="8.78588">
        <ele>674</ele>
        <time>2021-08-04T09:36:03.468Z</time>
      </trkpt>
      <trkpt lat="46.97812" lon="8.78587">
        <ele>673</ele>
        <time>2021-08-04T09:36:04.469Z</time>
      </trkpt>
      <trkpt lat="46.97812" lon="8.78587">
        <ele>673</ele>
        <time>2021-08-04T09:36:05.468Z</time>
      </trkpt>
      <trkpt lat="46.97811" lon="8.78587">
        <ele>673</ele>
        <time>2021-08-04T09:36:06.468Z</time>
      </trkpt>
      <trkpt lat="46.9781" lon="8.78586">
        <ele>673</ele>
        <time>2021-08-04T09:36:07.468Z</time>
      </trkpt>
      <trkpt lat="46.97809" lon="8.78585">
        <ele>674</ele>
        <time>2021-08-04T09:36:08.468Z</time>
      </trkpt>
      <trkpt lat="46.97808" lon="8.78585">
        <ele>674</ele>
        <time>2021-08-04T09:36:09.469Z</time>
      </trkpt>
      <trkpt lat="46.97807" lon="8.78584">
        <ele>674</ele>
        <time>2021-08-04T09:36:10.469Z</time>
      </trkpt>
      <trkpt lat="46.97806" lon="8.78583">
        <ele>674</ele>
        <time>2021-08-04T09:36:11.468Z</time>
      </trkpt>
      <trkpt lat="46.97805" lon="8.78582">
        <ele>675</ele>
        <time>2021-08-04T09:36:12.468Z</time>
      </trkpt>
      <trkpt lat="46.97804" lon="8.7858">
        <ele>675</ele>
        <time>2021-08-04T09:36:13.468Z</time>
      </trkpt>
      <trkpt lat="46.97803" lon="8.78579">
        <ele>675</ele>
        <time>2021-08-04T09:36:14.469Z</time>
      </trkpt>
      <trkpt lat="46.97802" lon="8.78579">
        <ele>675</ele>
        <time>2021-08-04T09:36:15.468Z</time>
      </trkpt>
      <trkpt lat="46.97801" lon="8.78578">
        <ele>675</ele>
        <time>2021-08-04T09:36:16.468Z</time>
      </trkpt>
      <trkpt lat="46.978" lon="8.78578">
        <ele>676</ele>
        <time>2021-08-04T09:36:17.468Z</time>
      </trkpt>
      <trkpt lat="46.97799" lon="8.78579">
        <ele>676</ele>
        <time>2021-08-04T09:36:18.468Z</time>
      </trkpt>
      <trkpt lat="46.97799" lon="8.78579">
        <ele>677</ele>
        <time>2021-08-04T09:36:19.469Z</time>
      </trkpt>
      <trkpt lat="46.97799" lon="8.78579">
        <ele>677</ele>
        <time>2021-08-04T09:36:20.468Z</time>
      </trkpt>
      <trkpt lat="46.97797" lon="8.78583">
        <ele>678</ele>
        <time>2021-08-04T09:36:21.468Z</time>
      </trkpt>
      <trkpt lat="46.97797" lon="8.78584">
        <ele>678</ele>
        <time>2021-08-04T09:36:22.469Z</time>
      </trkpt>
      <trkpt lat="46.97796" lon="8.78584">
        <ele>679</ele>
        <time>2021-08-04T09:36:23.468Z</time>
      </trkpt>
      <trkpt lat="46.97795" lon="8.78585">
        <ele>679</ele>
        <time>2021-08-04T09:36:24.468Z</time>
      </trkpt>
      <trkpt lat="46.97794" lon="8.78586">
        <ele>679</ele>
        <time>2021-08-04T09:36:25.468Z</time>
      </trkpt>
      <trkpt lat="46.97794" lon="8.78587">
        <ele>679</ele>
        <time>2021-08-04T09:36:26.468Z</time>
      </trkpt>
      <trkpt lat="46.97793" lon="8.78586">
        <ele>678</ele>
        <time>2021-08-04T09:36:27.469Z</time>
      </trkpt>
      <trkpt lat="46.97791" lon="8.78585">
        <ele>678</ele>
        <time>2021-08-04T09:36:31.469Z</time>
      </trkpt>
      <trkpt lat="46.9779" lon="8.78585">
        <ele>677</ele>
        <time>2021-08-04T09:36:32.469Z</time>
      </trkpt>
      <trkpt lat="46.9779" lon="8.78585">
        <ele>677</ele>
        <time>2021-08-04T09:36:33.469Z</time>
      </trkpt>
      <trkpt lat="46.97789" lon="8.78586">
        <ele>677</ele>
        <time>2021-08-04T09:36:34.469Z</time>
      </trkpt>
      <trkpt lat="46.97789" lon="8.78587">
        <ele>676</ele>
        <time>2021-08-04T09:36:35.468Z</time>
      </trkpt>
      <trkpt lat="46.97789" lon="8.78587">
        <ele>676</ele>
        <time>2021-08-04T09:36:36.469Z</time>
      </trkpt>
      <trkpt lat="46.97789" lon="8.78587">
        <ele>676</ele>
        <time>2021-08-04T09:36:37.468Z</time>
      </trkpt>
      <trkpt lat="46.97789" lon="8.78588">
        <ele>675</ele>
        <time>2021-08-04T09:36:38.469Z</time>
      </trkpt>
      <trkpt lat="46.97788" lon="8.78589">
        <ele>675</ele>
        <time>2021-08-04T09:36:39.469Z</time>
      </trkpt>
      <trkpt lat="46.97788" lon="8.78589">
        <ele>674</ele>
        <time>2021-08-04T09:36:40.469Z</time>
      </trkpt>
      <trkpt lat="46.97787" lon="8.78589">
        <ele>674</ele>
        <time>2021-08-04T09:36:41.468Z</time>
      </trkpt>
      <trkpt lat="46.97783" lon="8.78589">
        <ele>674</ele>
        <time>2021-08-04T09:36:42.470Z</time>
      </trkpt>
      <trkpt lat="46.97782" lon="8.7859">
        <ele>674</ele>
        <time>2021-08-04T09:36:43.469Z</time>
      </trkpt>
      <trkpt lat="46.97782" lon="8.78591">
        <ele>674</ele>
        <time>2021-08-04T09:36:44.470Z</time>
      </trkpt>
      <trkpt lat="46.97781" lon="8.78591">
        <ele>675</ele>
        <time>2021-08-04T09:36:45.470Z</time>
      </trkpt>
      <trkpt lat="46.9778" lon="8.78592">
        <ele>675</ele>
        <time>2021-08-04T09:36:46.470Z</time>
      </trkpt>
      <trkpt lat="46.97781" lon="8.7859">
        <ele>675</ele>
        <time>2021-08-04T09:36:47.469Z</time>
      </trkpt>
      <trkpt lat="46.97782" lon="8.78589">
        <ele>676</ele>
        <time>2021-08-04T09:36:48.470Z</time>
      </trkpt>
      <trkpt lat="46.97782" lon="8.78589">
        <ele>676</ele>
        <time>2021-08-04T09:36:49.469Z</time>
      </trkpt>
      <trkpt lat="46.97781" lon="8.78589">
        <ele>677</ele>
        <time>2021-08-04T09:36:50.469Z</time>
      </trkpt>
      <trkpt lat="46.97781" lon="8.7859">
        <ele>677</ele>
        <time>2021-08-04T09:36:51.470Z</time>
      </trkpt>
      <trkpt lat="46.97781" lon="8.7859">
        <ele>677</ele>
        <time>2021-08-04T09:36:52.469Z</time>
      </trkpt>
      <trkpt lat="46.97779" lon="8.78593">
        <ele>681</ele>
        <time>2021-08-04T09:36:53.471Z</time>
      </trkpt>
      <trkpt lat="46.97778" lon="8.78593">
        <ele>692</ele>
        <time>2021-08-04T09:36:54.472Z</time>
      </trkpt>
      <trkpt lat="46.97778" lon="8.78593">
        <ele>693</ele>
        <time>2021-08-04T09:36:55.471Z</time>
      </trkpt>
      <trkpt lat="46.97779" lon="8.78584">
        <ele>702</ele>
        <time>2021-08-04T09:36:56.472Z</time>
      </trkpt>
      <trkpt lat="46.97779" lon="8.78583">
        <ele>702</ele>
        <time>2021-08-04T09:36:57.471Z</time>
      </trkpt>
      <trkpt lat="46.9778" lon="8.78582">
        <ele>703</ele>
        <time>2021-08-04T09:36:58.471Z</time>
      </trkpt>
      <trkpt lat="46.9778" lon="8.78582">
        <ele>703</ele>
        <time>2021-08-04T09:36:59.472Z</time>
      </trkpt>
      <trkpt lat="46.9778" lon="8.78582">
        <ele>703</ele>
        <time>2021-08-04T09:37:00.472Z</time>
      </trkpt>
      <trkpt lat="46.9778" lon="8.78582">
        <ele>703</ele>
        <time>2021-08-04T09:37:01.472Z</time>
      </trkpt>
      <trkpt lat="46.97781" lon="8.78583">
        <ele>703</ele>
        <time>2021-08-04T09:37:02.472Z</time>
      </trkpt>
      <trkpt lat="46.97782" lon="8.78584">
        <ele>700</ele>
        <time>2021-08-04T09:37:03.472Z</time>
      </trkpt>
      <trkpt lat="46.97782" lon="8.78584">
        <ele>699</ele>
        <time>2021-08-04T09:37:04.473Z</time>
      </trkpt>
      <trkpt lat="46.97783" lon="8.78585">
        <ele>699</ele>
        <time>2021-08-04T09:37:05.472Z</time>
      </trkpt>
      <trkpt lat="46.97783" lon="8.78586">
        <ele>698</ele>
        <time>2021-08-04T09:37:06.473Z</time>
      </trkpt>
      <trkpt lat="46.97784" lon="8.78587">
        <ele>697</ele>
        <time>2021-08-04T09:37:07.473Z</time>
      </trkpt>
      <trkpt lat="46.97785" lon="8.78587">
        <ele>697</ele>
        <time>2021-08-04T09:37:08.472Z</time>
      </trkpt>
      <trkpt lat="46.97785" lon="8.78588">
        <ele>696</ele>
        <time>2021-08-04T09:37:09.473Z</time>
      </trkpt>
      <trkpt lat="46.97786" lon="8.78588">
        <ele>696</ele>
        <time>2021-08-04T09:37:10.472Z</time>
      </trkpt>
      <trkpt lat="46.97786" lon="8.78588">
        <ele>696</ele>
        <time>2021-08-04T09:37:11.473Z</time>
      </trkpt>
      <trkpt lat="46.97786" lon="8.78589">
        <ele>696</ele>
        <time>2021-08-04T09:37:12.472Z</time>
      </trkpt>
      <trkpt lat="46.97785" lon="8.7859">
        <ele>696</ele>
        <time>2021-08-04T09:37:13.472Z</time>
      </trkpt>
      <trkpt lat="46.97784" lon="8.78589">
        <ele>695</ele>
        <time>2021-08-04T09:37:14.472Z</time>
      </trkpt>
      <trkpt lat="46.97784" lon="8.78588">
        <ele>695</ele>
        <time>2021-08-04T09:37:15.473Z</time>
      </trkpt>
      <trkpt lat="46.97783" lon="8.78588">
        <ele>695</ele>
        <time>2021-08-04T09:37:16.473Z</time>
      </trkpt>
      <trkpt lat="46.97782" lon="8.78588">
        <ele>695</ele>
        <time>2021-08-04T09:37:17.473Z</time>
      </trkpt>
      <trkpt lat="46.97782" lon="8.78588">
        <ele>694</ele>
        <time>2021-08-04T09:37:18.473Z</time>
      </trkpt>
      <trkpt lat="46.97782" lon="8.78589">
        <ele>693</ele>
        <time>2021-08-04T09:37:19.473Z</time>
      </trkpt>
      <trkpt lat="46.97781" lon="8.78589">
        <ele>693</ele>
        <time>2021-08-04T09:37:20.474Z</time>
      </trkpt>
      <trkpt lat="46.97779" lon="8.7859">
        <ele>692</ele>
        <time>2021-08-04T09:37:21.473Z</time>
      </trkpt>
      <trkpt lat="46.97779" lon="8.7859">
        <ele>692</ele>
        <time>2021-08-04T09:37:22.473Z</time>
      </trkpt>
      <trkpt lat="46.9778" lon="8.78591">
        <ele>691</ele>
        <time>2021-08-04T09:37:23.474Z</time>
      </trkpt>
      <trkpt lat="46.97779" lon="8.78592">
        <ele>690</ele>
        <time>2021-08-04T09:37:24.474Z</time>
      </trkpt>
      <trkpt lat="46.9778" lon="8.78591">
        <ele>689</ele>
        <time>2021-08-04T09:37:25.475Z</time>
      </trkpt>
      <trkpt lat="46.97781" lon="8.78589">
        <ele>689</ele>
        <time>2021-08-04T09:37:26.474Z</time>
      </trkpt>
      <trkpt lat="46.97781" lon="8.78586">
        <ele>689</ele>
        <time>2021-08-04T09:37:27.474Z</time>
      </trkpt>
      <trkpt lat="46.97782" lon="8.78583">
        <ele>688</ele>
        <time>2021-08-04T09:37:28.474Z</time>
      </trkpt>
      <trkpt lat="46.97781" lon="8.78583">
        <ele>688</ele>
        <time>2021-08-04T09:37:29.474Z</time>
      </trkpt>
      <trkpt lat="46.97781" lon="8.78584">
        <ele>687</ele>
        <time>2021-08-04T09:37:30.474Z</time>
      </trkpt>
      <trkpt lat="46.97782" lon="8.78584">
        <ele>687</ele>
        <time>2021-08-04T09:37:31.474Z</time>
      </trkpt>
      <trkpt lat="46.97783" lon="8.78584">
        <ele>687</ele>
        <time>2021-08-04T09:37:32.474Z</time>
      </trkpt>
      <trkpt lat="46.97783" lon="8.78583">
        <ele>687</ele>
        <time>2021-08-04T09:37:33.474Z</time>
      </trkpt>
      <trkpt lat="46.97783" lon="8.78583">
        <ele>686</ele>
        <time>2021-08-04T09:37:34.475Z</time>
      </trkpt>
      <trkpt lat="46.97783" lon="8.78583">
        <ele>686</ele>
        <time>2021-08-04T09:37:35.475Z</time>
      </trkpt>
      <trkpt lat="46.97783" lon="8.78584">
        <ele>686</ele>
        <time>2021-08-04T09:37:36.475Z</time>
      </trkpt>
      <trkpt lat="46.97783" lon="8.78585">
        <ele>686</ele>
        <time>2021-08-04T09:37:37.475Z</time>
      </trkpt>
      <trkpt lat="46.97783" lon="8.78587">
        <ele>686</ele>
        <time>2021-08-04T09:37:38.475Z</time>
      </trkpt>
      <trkpt lat="46.97782" lon="8.78588">
        <ele>686</ele>
        <time>2021-08-04T09:37:39.474Z</time>
      </trkpt>
      <trkpt lat="46.97782" lon="8.78589">
        <ele>686</ele>
        <time>2021-08-04T09:37:40.475Z</time>
      </trkpt>
      <trkpt lat="46.97782" lon="8.7859">
        <ele>686</ele>
        <time>2021-08-04T09:37:41.475Z</time>
      </trkpt>
      <trkpt lat="46.97782" lon="8.78591">
        <ele>686</ele>
        <time>2021-08-04T09:37:42.475Z</time>
      </trkpt>
      <trkpt lat="46.97782" lon="8.78591">
        <ele>685</ele>
        <time>2021-08-04T09:37:43.475Z</time>
      </trkpt>
      <trkpt lat="46.97782" lon="8.7859">
        <ele>685</ele>
        <time>2021-08-04T09:37:44.475Z</time>
      </trkpt>
      <trkpt lat="46.97782" lon="8.78589">
        <ele>686</ele>
        <time>2021-08-04T09:37:45.475Z</time>
      </trkpt>
      <trkpt lat="46.97782" lon="8.78589">
        <ele>686</ele>
        <time>2021-08-04T09:37:46.474Z</time>
      </trkpt>
      <trkpt lat="46.97782" lon="8.78588">
        <ele>687</ele>
        <time>2021-08-04T09:37:47.474Z</time>
      </trkpt>
      <trkpt lat="46.97782" lon="8.78588">
        <ele>687</ele>
        <time>2021-08-04T09:37:48.475Z</time>
      </trkpt>
      <trkpt lat="46.97782" lon="8.78588">
        <ele>688</ele>
        <time>2021-08-04T09:37:49.474Z</time>
      </trkpt>
      <trkpt lat="46.97782" lon="8.78588">
        <ele>688</ele>
        <time>2021-08-04T09:37:50.474Z</time>
      </trkpt>
      <trkpt lat="46.97783" lon="8.78587">
        <ele>688</ele>
        <time>2021-08-04T09:37:51.475Z</time>
      </trkpt>
      <trkpt lat="46.97783" lon="8.78586">
        <ele>687</ele>
        <time>2021-08-04T09:37:52.474Z</time>
      </trkpt>
      <trkpt lat="46.97784" lon="8.78585">
        <ele>687</ele>
        <time>2021-08-04T09:37:53.475Z</time>
      </trkpt>
      <trkpt lat="46.97785" lon="8.78583">
        <ele>687</ele>
        <time>2021-08-04T09:37:54.475Z</time>
      </trkpt>
      <trkpt lat="46.97785" lon="8.78583">
        <ele>687</ele>
        <time>2021-08-04T09:37:55.475Z</time>
      </trkpt>
      <trkpt lat="46.97785" lon="8.78583">
        <ele>686</ele>
        <time>2021-08-04T09:37:56.474Z</time>
      </trkpt>
      <trkpt lat="46.97785" lon="8.78584">
        <ele>686</ele>
        <time>2021-08-04T09:37:57.474Z</time>
      </trkpt>
      <trkpt lat="46.97784" lon="8.78587">
        <ele>684</ele>
        <time>2021-08-04T09:37:58.475Z</time>
      </trkpt>
      <trkpt lat="46.97783" lon="8.78588">
        <ele>683</ele>
        <time>2021-08-04T09:37:59.475Z</time>
      </trkpt>
      <trkpt lat="46.97782" lon="8.78588">
        <ele>683</ele>
        <time>2021-08-04T09:38:00.474Z</time>
      </trkpt>
      <trkpt lat="46.97782" lon="8.78588">
        <ele>683</ele>
        <time>2021-08-04T09:38:01.475Z</time>
      </trkpt>
      <trkpt lat="46.97782" lon="8.78589">
        <ele>684</ele>
        <time>2021-08-04T09:38:07.542Z</time>
      </trkpt>
      <trkpt lat="46.97781" lon="8.78589">
        <ele>684</ele>
        <time>2021-08-04T09:38:08.542Z</time>
      </trkpt>
      <trkpt lat="46.97781" lon="8.78588">
        <ele>685</ele>
        <time>2021-08-04T09:38:09.544Z</time>
      </trkpt>
      <trkpt lat="46.97782" lon="8.78587">
        <ele>685</ele>
        <time>2021-08-04T09:38:10.544Z</time>
      </trkpt>
      <trkpt lat="46.97782" lon="8.78585">
        <ele>685</ele>
        <time>2021-08-04T09:38:11.544Z</time>
      </trkpt>
      <trkpt lat="46.97784" lon="8.78583">
        <ele>686</ele>
        <time>2021-08-04T09:38:12.543Z</time>
      </trkpt>
      <trkpt lat="46.97783" lon="8.78583">
        <ele>686</ele>
        <time>2021-08-04T09:38:13.543Z</time>
      </trkpt>
      <trkpt lat="46.97783" lon="8.78583">
        <ele>685</ele>
        <time>2021-08-04T09:38:14.543Z</time>
      </trkpt>
      <trkpt lat="46.97784" lon="8.78582">
        <ele>683</ele>
        <time>2021-08-04T09:38:15.544Z</time>
      </trkpt>
      <trkpt lat="46.97784" lon="8.78581">
        <ele>682</ele>
        <time>2021-08-04T09:38:16.543Z</time>
      </trkpt>
      <trkpt lat="46.97783" lon="8.78579">
        <ele>680</ele>
        <time>2021-08-04T09:38:17.543Z</time>
      </trkpt>
      <trkpt lat="46.97783" lon="8.78576">
        <ele>678</ele>
        <time>2021-08-04T09:38:18.543Z</time>
      </trkpt>
      <trkpt lat="46.97783" lon="8.78574">
        <ele>676</ele>
        <time>2021-08-04T09:38:19.544Z</time>
      </trkpt>
      <trkpt lat="46.97782" lon="8.78572">
        <ele>675</ele>
        <time>2021-08-04T09:38:20.543Z</time>
      </trkpt>
      <trkpt lat="46.97782" lon="8.78571">
        <ele>673</ele>
        <time>2021-08-04T09:38:21.543Z</time>
      </trkpt>
      <trkpt lat="46.97782" lon="8.78569">
        <ele>672</ele>
        <time>2021-08-04T09:38:22.543Z</time>
      </trkpt>
      <trkpt lat="46.97782" lon="8.78568">
        <ele>671</ele>
        <time>2021-08-04T09:38:23.543Z</time>
      </trkpt>
      <trkpt lat="46.97782" lon="8.78567">
        <ele>670</ele>
        <time>2021-08-04T09:38:24.543Z</time>
      </trkpt>
      <trkpt lat="46.97781" lon="8.78565">
        <ele>670</ele>
        <time>2021-08-04T09:38:25.543Z</time>
      </trkpt>
      <trkpt lat="46.97781" lon="8.78565">
        <ele>670</ele>
        <time>2021-08-04T09:38:26.544Z</time>
      </trkpt>
      <trkpt lat="46.97781" lon="8.78566">
        <ele>670</ele>
        <time>2021-08-04T09:38:27.543Z</time>
      </trkpt>
      <trkpt lat="46.97782" lon="8.78566">
        <ele>670</ele>
        <time>2021-08-04T09:38:28.544Z</time>
      </trkpt>
      <trkpt lat="46.97784" lon="8.78562">
        <ele>675</ele>
        <time>2021-08-04T09:38:29.545Z</time>
      </trkpt>
      <trkpt lat="46.97784" lon="8.78562">
        <ele>676</ele>
        <time>2021-08-04T09:38:30.545Z</time>
      </trkpt>
      <trkpt lat="46.97784" lon="8.78561">
        <ele>677</ele>
        <time>2021-08-04T09:38:31.544Z</time>
      </trkpt>
      <trkpt lat="46.97783" lon="8.7856">
        <ele>678</ele>
        <time>2021-08-04T09:38:32.544Z</time>
      </trkpt>
      <trkpt lat="46.97784" lon="8.7856">
        <ele>686</ele>
        <time>2021-08-04T09:38:33.544Z</time>
      </trkpt>
      <trkpt lat="46.97787" lon="8.78558">
        <ele>660</ele>
        <time>2021-08-04T09:38:34.544Z</time>
      </trkpt>
      <trkpt lat="46.97786" lon="8.78557">
        <ele>659</ele>
        <time>2021-08-04T09:38:35.544Z</time>
      </trkpt>
      <trkpt lat="46.97786" lon="8.78557">
        <ele>659</ele>
        <time>2021-08-04T09:38:36.545Z</time>
      </trkpt>
      <trkpt lat="46.97784" lon="8.78554">
        <ele>658</ele>
        <time>2021-08-04T09:38:37.545Z</time>
      </trkpt>
      <trkpt lat="46.97784" lon="8.78553">
        <ele>659</ele>
        <time>2021-08-04T09:38:38.545Z</time>
      </trkpt>
      <trkpt lat="46.97783" lon="8.78551">
        <ele>659</ele>
        <time>2021-08-04T09:38:39.545Z</time>
      </trkpt>
      <trkpt lat="46.97782" lon="8.7855">
        <ele>659</ele>
        <time>2021-08-04T09:38:40.545Z</time>
      </trkpt>
      <trkpt lat="46.97782" lon="8.78549">
        <ele>659</ele>
        <time>2021-08-04T09:38:41.545Z</time>
      </trkpt>
      <trkpt lat="46.97781" lon="8.78547">
        <ele>660</ele>
        <time>2021-08-04T09:38:42.545Z</time>
      </trkpt>
      <trkpt lat="46.9778" lon="8.78547">
        <ele>660</ele>
        <time>2021-08-04T09:38:43.545Z</time>
      </trkpt>
      <trkpt lat="46.9778" lon="8.78545">
        <ele>660</ele>
        <time>2021-08-04T09:38:44.545Z</time>
      </trkpt>
      <trkpt lat="46.97779" lon="8.78544">
        <ele>660</ele>
        <time>2021-08-04T09:38:45.545Z</time>
      </trkpt>
      <trkpt lat="46.97779" lon="8.78543">
        <ele>661</ele>
        <time>2021-08-04T09:38:46.545Z</time>
      </trkpt>
      <trkpt lat="46.97779" lon="8.78541">
        <ele>661</ele>
        <time>2021-08-04T09:38:47.545Z</time>
      </trkpt>
      <trkpt lat="46.97778" lon="8.7854">
        <ele>661</ele>
        <time>2021-08-04T09:38:48.545Z</time>
      </trkpt>
      <trkpt lat="46.97777" lon="8.78539">
        <ele>661</ele>
        <time>2021-08-04T09:38:49.545Z</time>
      </trkpt>
      <trkpt lat="46.97776" lon="8.78538">
        <ele>662</ele>
        <time>2021-08-04T09:38:50.545Z</time>
      </trkpt>
      <trkpt lat="46.97776" lon="8.78538">
        <ele>663</ele>
        <time>2021-08-04T09:38:51.545Z</time>
      </trkpt>
      <trkpt lat="46.97775" lon="8.78537">
        <ele>664</ele>
        <time>2021-08-04T09:38:52.545Z</time>
      </trkpt>
      <trkpt lat="46.97775" lon="8.78536">
        <ele>664</ele>
        <time>2021-08-04T09:38:53.545Z</time>
      </trkpt>
      <trkpt lat="46.97774" lon="8.78534">
        <ele>664</ele>
        <time>2021-08-04T09:38:54.545Z</time>
      </trkpt>
      <trkpt lat="46.97774" lon="8.78533">
        <ele>664</ele>
        <time>2021-08-04T09:38:55.545Z</time>
      </trkpt>
      <trkpt lat="46.97773" lon="8.78531">
        <ele>664</ele>
        <time>2021-08-04T09:38:56.545Z</time>
      </trkpt>
      <trkpt lat="46.97773" lon="8.7853">
        <ele>664</ele>
        <time>2021-08-04T09:38:57.545Z</time>
      </trkpt>
      <trkpt lat="46.97772" lon="8.78528">
        <ele>664</ele>
        <time>2021-08-04T09:38:58.545Z</time>
      </trkpt>
      <trkpt lat="46.97772" lon="8.78527">
        <ele>664</ele>
        <time>2021-08-04T09:38:59.545Z</time>
      </trkpt>
      <trkpt lat="46.97771" lon="8.78526">
        <ele>663</ele>
        <time>2021-08-04T09:39:00.545Z</time>
      </trkpt>
      <trkpt lat="46.97771" lon="8.78525">
        <ele>664</ele>
        <time>2021-08-04T09:39:01.545Z</time>
      </trkpt>
      <trkpt lat="46.9777" lon="8.78524">
        <ele>664</ele>
        <time>2021-08-04T09:39:02.545Z</time>
      </trkpt>
      <trkpt lat="46.97769" lon="8.78523">
        <ele>664</ele>
        <time>2021-08-04T09:39:03.545Z</time>
      </trkpt>
      <trkpt lat="46.97768" lon="8.78522">
        <ele>665</ele>
        <time>2021-08-04T09:39:04.545Z</time>
      </trkpt>
      <trkpt lat="46.97768" lon="8.78521">
        <ele>665</ele>
        <time>2021-08-04T09:39:05.545Z</time>
      </trkpt>
      <trkpt lat="46.97767" lon="8.78519">
        <ele>666</ele>
        <time>2021-08-04T09:39:06.545Z</time>
      </trkpt>
      <trkpt lat="46.97766" lon="8.78518">
        <ele>666</ele>
        <time>2021-08-04T09:39:07.545Z</time>
      </trkpt>
      <trkpt lat="46.97766" lon="8.78516">
        <ele>666</ele>
        <time>2021-08-04T09:39:08.545Z</time>
      </trkpt>
      <trkpt lat="46.97765" lon="8.78515">
        <ele>667</ele>
        <time>2021-08-04T09:39:09.545Z</time>
      </trkpt>
      <trkpt lat="46.97765" lon="8.78513">
        <ele>667</ele>
        <time>2021-08-04T09:39:10.545Z</time>
      </trkpt>
      <trkpt lat="46.97765" lon="8.78511">
        <ele>667</ele>
        <time>2021-08-04T09:39:11.545Z</time>
      </trkpt>
      <trkpt lat="46.97765" lon="8.7851">
        <ele>667</ele>
        <time>2021-08-04T09:39:12.545Z</time>
      </trkpt>
      <trkpt lat="46.97765" lon="8.78509">
        <ele>668</ele>
        <time>2021-08-04T09:39:13.545Z</time>
      </trkpt>
      <trkpt lat="46.97764" lon="8.78507">
        <ele>668</ele>
        <time>2021-08-04T09:39:14.545Z</time>
      </trkpt>
      <trkpt lat="46.97764" lon="8.78505">
        <ele>668</ele>
        <time>2021-08-04T09:39:15.545Z</time>
      </trkpt>
      <trkpt lat="46.97763" lon="8.78503">
        <ele>668</ele>
        <time>2021-08-04T09:39:16.545Z</time>
      </trkpt>
      <trkpt lat="46.97763" lon="8.78502">
        <ele>668</ele>
        <time>2021-08-04T09:39:17.545Z</time>
      </trkpt>
      <trkpt lat="46.97762" lon="8.785">
        <ele>667</ele>
        <time>2021-08-04T09:39:18.545Z</time>
      </trkpt>
      <trkpt lat="46.97761" lon="8.78498">
        <ele>667</ele>
        <time>2021-08-04T09:39:19.545Z</time>
      </trkpt>
      <trkpt lat="46.97761" lon="8.78496">
        <ele>667</ele>
        <time>2021-08-04T09:39:20.545Z</time>
      </trkpt>
      <trkpt lat="46.9776" lon="8.78495">
        <ele>667</ele>
        <time>2021-08-04T09:39:21.545Z</time>
      </trkpt>
      <trkpt lat="46.97759" lon="8.78494">
        <ele>667</ele>
        <time>2021-08-04T09:39:22.545Z</time>
      </trkpt>
      <trkpt lat="46.97758" lon="8.78493">
        <ele>666</ele>
        <time>2021-08-04T09:39:23.545Z</time>
      </trkpt>
      <trkpt lat="46.97758" lon="8.78491">
        <ele>666</ele>
        <time>2021-08-04T09:39:24.545Z</time>
      </trkpt>
      <trkpt lat="46.97757" lon="8.78489">
        <ele>666</ele>
        <time>2021-08-04T09:39:25.545Z</time>
      </trkpt>
      <trkpt lat="46.97755" lon="8.78488">
        <ele>666</ele>
        <time>2021-08-04T09:39:26.545Z</time>
      </trkpt>
      <trkpt lat="46.97754" lon="8.78487">
        <ele>666</ele>
        <time>2021-08-04T09:39:27.545Z</time>
      </trkpt>
      <trkpt lat="46.97753" lon="8.78486">
        <ele>666</ele>
        <time>2021-08-04T09:39:28.545Z</time>
      </trkpt>
      <trkpt lat="46.97752" lon="8.78484">
        <ele>667</ele>
        <time>2021-08-04T09:39:29.545Z</time>
      </trkpt>
      <trkpt lat="46.97751" lon="8.78482">
        <ele>667</ele>
        <time>2021-08-04T09:39:30.545Z</time>
      </trkpt>
      <trkpt lat="46.9775" lon="8.78481">
        <ele>668</ele>
        <time>2021-08-04T09:39:31.545Z</time>
      </trkpt>
      <trkpt lat="46.97749" lon="8.78479">
        <ele>668</ele>
        <time>2021-08-04T09:39:32.545Z</time>
      </trkpt>
      <trkpt lat="46.97748" lon="8.78477">
        <ele>669</ele>
        <time>2021-08-04T09:39:33.545Z</time>
      </trkpt>
      <trkpt lat="46.97747" lon="8.78475">
        <ele>669</ele>
        <time>2021-08-04T09:39:34.545Z</time>
      </trkpt>
      <trkpt lat="46.97746" lon="8.78474">
        <ele>669</ele>
        <time>2021-08-04T09:39:35.545Z</time>
      </trkpt>
      <trkpt lat="46.97746" lon="8.78473">
        <ele>669</ele>
        <time>2021-08-04T09:39:36.545Z</time>
      </trkpt>
      <trkpt lat="46.97745" lon="8.78472">
        <ele>669</ele>
        <time>2021-08-04T09:39:37.545Z</time>
      </trkpt>
      <trkpt lat="46.97745" lon="8.78471">
        <ele>670</ele>
        <time>2021-08-04T09:39:38.545Z</time>
      </trkpt>
      <trkpt lat="46.97744" lon="8.7847">
        <ele>670</ele>
        <time>2021-08-04T09:39:39.545Z</time>
      </trkpt>
      <trkpt lat="46.97744" lon="8.78469">
        <ele>670</ele>
        <time>2021-08-04T09:39:40.545Z</time>
      </trkpt>
      <trkpt lat="46.97744" lon="8.78467">
        <ele>670</ele>
        <time>2021-08-04T09:39:41.545Z</time>
      </trkpt>
      <trkpt lat="46.97744" lon="8.78465">
        <ele>669</ele>
        <time>2021-08-04T09:39:42.545Z</time>
      </trkpt>
      <trkpt lat="46.97744" lon="8.78464">
        <ele>669</ele>
        <time>2021-08-04T09:39:43.545Z</time>
      </trkpt>
      <trkpt lat="46.97743" lon="8.78463">
        <ele>669</ele>
        <time>2021-08-04T09:39:44.545Z</time>
      </trkpt>
      <trkpt lat="46.97743" lon="8.78462">
        <ele>669</ele>
        <time>2021-08-04T09:39:45.545Z</time>
      </trkpt>
      <trkpt lat="46.97742" lon="8.78461">
        <ele>669</ele>
        <time>2021-08-04T09:39:46.545Z</time>
      </trkpt>
      <trkpt lat="46.97741" lon="8.78459">
        <ele>669</ele>
        <time>2021-08-04T09:39:47.545Z</time>
      </trkpt>
      <trkpt lat="46.9774" lon="8.78458">
        <ele>669</ele>
        <time>2021-08-04T09:39:48.545Z</time>
      </trkpt>
      <trkpt lat="46.97739" lon="8.78457">
        <ele>669</ele>
        <time>2021-08-04T09:39:49.545Z</time>
      </trkpt>
      <trkpt lat="46.97739" lon="8.78456">
        <ele>669</ele>
        <time>2021-08-04T09:39:50.545Z</time>
      </trkpt>
      <trkpt lat="46.97739" lon="8.78455">
        <ele>669</ele>
        <time>2021-08-04T09:39:51.545Z</time>
      </trkpt>
      <trkpt lat="46.97739" lon="8.78453">
        <ele>669</ele>
        <time>2021-08-04T09:39:52.545Z</time>
      </trkpt>
      <trkpt lat="46.97739" lon="8.78451">
        <ele>669</ele>
        <time>2021-08-04T09:39:53.545Z</time>
      </trkpt>
      <trkpt lat="46.97739" lon="8.7845">
        <ele>669</ele>
        <time>2021-08-04T09:39:54.545Z</time>
      </trkpt>
      <trkpt lat="46.97739" lon="8.78448">
        <ele>669</ele>
        <time>2021-08-04T09:39:55.545Z</time>
      </trkpt>
      <trkpt lat="46.97738" lon="8.78445">
        <ele>670</ele>
        <time>2021-08-04T09:40:06.681Z</time>
      </trkpt>
      <trkpt lat="46.97738" lon="8.78444">
        <ele>670</ele>
        <time>2021-08-04T09:40:07.681Z</time>
      </trkpt>
      <trkpt lat="46.97737" lon="8.78442">
        <ele>669</ele>
        <time>2021-08-04T09:40:08.681Z</time>
      </trkpt>
      <trkpt lat="46.97736" lon="8.78442">
        <ele>669</ele>
        <time>2021-08-04T09:40:09.681Z</time>
      </trkpt>
      <trkpt lat="46.97735" lon="8.7844">
        <ele>669</ele>
        <time>2021-08-04T09:40:10.681Z</time>
      </trkpt>
      <trkpt lat="46.97734" lon="8.78439">
        <ele>669</ele>
        <time>2021-08-04T09:40:11.681Z</time>
      </trkpt>
      <trkpt lat="46.97733" lon="8.78438">
        <ele>669</ele>
        <time>2021-08-04T09:40:12.681Z</time>
      </trkpt>
      <trkpt lat="46.97732" lon="8.78437">
        <ele>668</ele>
        <time>2021-08-04T09:40:13.681Z</time>
      </trkpt>
      <trkpt lat="46.97731" lon="8.78436">
        <ele>668</ele>
        <time>2021-08-04T09:40:14.681Z</time>
      </trkpt>
      <trkpt lat="46.9773" lon="8.78435">
        <ele>667</ele>
        <time>2021-08-04T09:40:15.681Z</time>
      </trkpt>
      <trkpt lat="46.9773" lon="8.78434">
        <ele>667</ele>
        <time>2021-08-04T09:40:16.681Z</time>
      </trkpt>
      <trkpt lat="46.9773" lon="8.78432">
        <ele>666</ele>
        <time>2021-08-04T09:40:17.681Z</time>
      </trkpt>
      <trkpt lat="46.9773" lon="8.7843">
        <ele>666</ele>
        <time>2021-08-04T09:40:18.681Z</time>
      </trkpt>
      <trkpt lat="46.9773" lon="8.78429">
        <ele>665</ele>
        <time>2021-08-04T09:40:19.681Z</time>
      </trkpt>
      <trkpt lat="46.9773" lon="8.78427">
        <ele>665</ele>
        <time>2021-08-04T09:40:20.681Z</time>
      </trkpt>
      <trkpt lat="46.9773" lon="8.78426">
        <ele>665</ele>
        <time>2021-08-04T09:40:21.681Z</time>
      </trkpt>
      <trkpt lat="46.97729" lon="8.78424">
        <ele>665</ele>
        <time>2021-08-04T09:40:22.681Z</time>
      </trkpt>
      <trkpt lat="46.97728" lon="8.78424">
        <ele>664</ele>
        <time>2021-08-04T09:40:23.681Z</time>
      </trkpt>
      <trkpt lat="46.97727" lon="8.78423">
        <ele>664</ele>
        <time>2021-08-04T09:40:24.681Z</time>
      </trkpt>
      <trkpt lat="46.97727" lon="8.78421">
        <ele>664</ele>
        <time>2021-08-04T09:40:25.681Z</time>
      </trkpt>
      <trkpt lat="46.97726" lon="8.7842">
        <ele>664</ele>
        <time>2021-08-04T09:40:26.681Z</time>
      </trkpt>
      <trkpt lat="46.97727" lon="8.78418">
        <ele>664</ele>
        <time>2021-08-04T09:40:27.681Z</time>
      </trkpt>
      <trkpt lat="46.97727" lon="8.78416">
        <ele>664</ele>
        <time>2021-08-04T09:40:28.681Z</time>
      </trkpt>
      <trkpt lat="46.97728" lon="8.78413">
        <ele>664</ele>
        <time>2021-08-04T09:40:29.681Z</time>
      </trkpt>
      <trkpt lat="46.97728" lon="8.78411">
        <ele>664</ele>
        <time>2021-08-04T09:40:30.681Z</time>
      </trkpt>
      <trkpt lat="46.97728" lon="8.7841">
        <ele>664</ele>
        <time>2021-08-04T09:40:31.681Z</time>
      </trkpt>
      <trkpt lat="46.97727" lon="8.78409">
        <ele>664</ele>
        <time>2021-08-04T09:40:32.681Z</time>
      </trkpt>
      <trkpt lat="46.97726" lon="8.78408">
        <ele>664</ele>
        <time>2021-08-04T09:40:33.681Z</time>
      </trkpt>
      <trkpt lat="46.97726" lon="8.78407">
        <ele>664</ele>
        <time>2021-08-04T09:40:34.681Z</time>
      </trkpt>
      <trkpt lat="46.97726" lon="8.78407">
        <ele>664</ele>
        <time>2021-08-04T09:40:35.681Z</time>
      </trkpt>
      <trkpt lat="46.97725" lon="8.78406">
        <ele>664</ele>
        <time>2021-08-04T09:40:36.681Z</time>
      </trkpt>
      <trkpt lat="46.97725" lon="8.78405">
        <ele>665</ele>
        <time>2021-08-04T09:40:37.681Z</time>
      </trkpt>
      <trkpt lat="46.97724" lon="8.78404">
        <ele>665</ele>
        <time>2021-08-04T09:40:38.681Z</time>
      </trkpt>
      <trkpt lat="46.97722" lon="8.78403">
        <ele>665</ele>
        <time>2021-08-04T09:40:39.681Z</time>
      </trkpt>
      <trkpt lat="46.97722" lon="8.78402">
        <ele>665</ele>
        <time>2021-08-04T09:40:40.681Z</time>
      </trkpt>
      <trkpt lat="46.9772" lon="8.784">
        <ele>664</ele>
        <time>2021-08-04T09:40:41.681Z</time>
      </trkpt>
      <trkpt lat="46.9772" lon="8.78398">
        <ele>664</ele>
        <time>2021-08-04T09:40:42.681Z</time>
      </trkpt>
      <trkpt lat="46.97719" lon="8.78396">
        <ele>664</ele>
        <time>2021-08-04T09:40:43.681Z</time>
      </trkpt>
      <trkpt lat="46.97719" lon="8.78394">
        <ele>663</ele>
        <time>2021-08-04T09:40:44.681Z</time>
      </trkpt>
      <trkpt lat="46.97718" lon="8.78393">
        <ele>663</ele>
        <time>2021-08-04T09:40:45.681Z</time>
      </trkpt>
      <trkpt lat="46.97718" lon="8.7839">
        <ele>663</ele>
        <time>2021-08-04T09:40:46.681Z</time>
      </trkpt>
      <trkpt lat="46.97717" lon="8.78389">
        <ele>662</ele>
        <time>2021-08-04T09:40:47.681Z</time>
      </trkpt>
      <trkpt lat="46.97716" lon="8.78388">
        <ele>662</ele>
        <time>2021-08-04T09:40:48.681Z</time>
      </trkpt>
      <trkpt lat="46.97715" lon="8.78387">
        <ele>662</ele>
        <time>2021-08-04T09:40:49.681Z</time>
      </trkpt>
      <trkpt lat="46.97714" lon="8.78387">
        <ele>662</ele>
        <time>2021-08-04T09:40:50.681Z</time>
      </trkpt>
      <trkpt lat="46.97713" lon="8.78387">
        <ele>663</ele>
        <time>2021-08-04T09:40:51.681Z</time>
      </trkpt>
      <trkpt lat="46.97711" lon="8.78391">
        <ele>662</ele>
        <time>2021-08-04T09:40:52.682Z</time>
      </trkpt>
      <trkpt lat="46.97711" lon="8.78392">
        <ele>661</ele>
        <time>2021-08-04T09:40:53.681Z</time>
      </trkpt>
      <trkpt lat="46.97711" lon="8.78392">
        <ele>660</ele>
        <time>2021-08-04T09:40:54.681Z</time>
      </trkpt>
      <trkpt lat="46.97709" lon="8.78387">
        <ele>653</ele>
        <time>2021-08-04T09:40:55.681Z</time>
      </trkpt>
      <trkpt lat="46.97709" lon="8.78387">
        <ele>654</ele>
        <time>2021-08-04T09:40:56.681Z</time>
      </trkpt>
      <trkpt lat="46.97709" lon="8.78387">
        <ele>655</ele>
        <time>2021-08-04T09:40:57.681Z</time>
      </trkpt>
      <trkpt lat="46.97709" lon="8.78387">
        <ele>660</ele>
        <time>2021-08-04T09:40:58.682Z</time>
      </trkpt>
      <trkpt lat="46.9771" lon="8.78387">
        <ele>660</ele>
        <time>2021-08-04T09:40:59.681Z</time>
      </trkpt>
      <trkpt lat="46.97712" lon="8.78386">
        <ele>661</ele>
        <time>2021-08-04T09:41:00.681Z</time>
      </trkpt>
      <trkpt lat="46.97713" lon="8.78384">
        <ele>661</ele>
        <time>2021-08-04T09:41:01.682Z</time>
      </trkpt>
      <trkpt lat="46.97714" lon="8.78382">
        <ele>661</ele>
        <time>2021-08-04T09:41:02.682Z</time>
      </trkpt>
      <trkpt lat="46.97714" lon="8.78379">
        <ele>661</ele>
        <time>2021-08-04T09:41:03.681Z</time>
      </trkpt>
      <trkpt lat="46.97714" lon="8.78378">
        <ele>661</ele>
        <time>2021-08-04T09:41:04.682Z</time>
      </trkpt>
      <trkpt lat="46.97714" lon="8.78376">
        <ele>661</ele>
        <time>2021-08-04T09:41:05.682Z</time>
      </trkpt>
      <trkpt lat="46.97714" lon="8.78374">
        <ele>660</ele>
        <time>2021-08-04T09:41:06.682Z</time>
      </trkpt>
      <trkpt lat="46.97714" lon="8.78373">
        <ele>660</ele>
        <time>2021-08-04T09:41:07.681Z</time>
      </trkpt>
      <trkpt lat="46.97714" lon="8.78372">
        <ele>660</ele>
        <time>2021-08-04T09:41:08.682Z</time>
      </trkpt>
      <trkpt lat="46.97714" lon="8.78371">
        <ele>659</ele>
        <time>2021-08-04T09:41:09.682Z</time>
      </trkpt>
      <trkpt lat="46.97714" lon="8.7837">
        <ele>659</ele>
        <time>2021-08-04T09:41:10.682Z</time>
      </trkpt>
      <trkpt lat="46.97714" lon="8.78369">
        <ele>659</ele>
        <time>2021-08-04T09:41:11.682Z</time>
      </trkpt>
      <trkpt lat="46.97713" lon="8.78368">
        <ele>659</ele>
        <time>2021-08-04T09:41:12.682Z</time>
      </trkpt>
      <trkpt lat="46.97713" lon="8.78366">
        <ele>659</ele>
        <time>2021-08-04T09:41:13.681Z</time>
      </trkpt>
      <trkpt lat="46.97713" lon="8.78365">
        <ele>659</ele>
        <time>2021-08-04T09:41:14.682Z</time>
      </trkpt>
      <trkpt lat="46.97713" lon="8.78364">
        <ele>659</ele>
        <time>2021-08-04T09:41:15.682Z</time>
      </trkpt>
      <trkpt lat="46.97713" lon="8.78363">
        <ele>660</ele>
        <time>2021-08-04T09:41:16.682Z</time>
      </trkpt>
      <trkpt lat="46.97712" lon="8.78361">
        <ele>660</ele>
        <time>2021-08-04T09:41:17.681Z</time>
      </trkpt>
      <trkpt lat="46.97712" lon="8.7836">
        <ele>660</ele>
        <time>2021-08-04T09:41:18.682Z</time>
      </trkpt>
      <trkpt lat="46.97712" lon="8.78359">
        <ele>660</ele>
        <time>2021-08-04T09:41:19.682Z</time>
      </trkpt>
      <trkpt lat="46.97712" lon="8.78357">
        <ele>660</ele>
        <time>2021-08-04T09:41:20.682Z</time>
      </trkpt>
      <trkpt lat="46.97712" lon="8.78356">
        <ele>660</ele>
        <time>2021-08-04T09:41:21.681Z</time>
      </trkpt>
      <trkpt lat="46.97712" lon="8.78356">
        <ele>660</ele>
        <time>2021-08-04T09:41:22.682Z</time>
      </trkpt>
      <trkpt lat="46.97712" lon="8.78355">
        <ele>660</ele>
        <time>2021-08-04T09:41:23.682Z</time>
      </trkpt>
      <trkpt lat="46.97711" lon="8.78353">
        <ele>660</ele>
        <time>2021-08-04T09:41:24.681Z</time>
      </trkpt>
      <trkpt lat="46.97711" lon="8.78351">
        <ele>660</ele>
        <time>2021-08-04T09:41:25.681Z</time>
      </trkpt>
      <trkpt lat="46.97711" lon="8.78349">
        <ele>660</ele>
        <time>2021-08-04T09:41:26.682Z</time>
      </trkpt>
      <trkpt lat="46.97711" lon="8.78347">
        <ele>660</ele>
        <time>2021-08-04T09:41:27.682Z</time>
      </trkpt>
      <trkpt lat="46.97711" lon="8.78345">
        <ele>660</ele>
        <time>2021-08-04T09:41:28.681Z</time>
      </trkpt>
      <trkpt lat="46.97711" lon="8.78343">
        <ele>660</ele>
        <time>2021-08-04T09:41:29.682Z</time>
      </trkpt>
      <trkpt lat="46.97712" lon="8.78342">
        <ele>660</ele>
        <time>2021-08-04T09:41:30.681Z</time>
      </trkpt>
      <trkpt lat="46.97712" lon="8.7834">
        <ele>660</ele>
        <time>2021-08-04T09:41:31.681Z</time>
      </trkpt>
      <trkpt lat="46.97711" lon="8.78339">
        <ele>660</ele>
        <time>2021-08-04T09:41:32.682Z</time>
      </trkpt>
      <trkpt lat="46.97711" lon="8.78337">
        <ele>659</ele>
        <time>2021-08-04T09:41:33.681Z</time>
      </trkpt>
      <trkpt lat="46.97711" lon="8.78335">
        <ele>659</ele>
        <time>2021-08-04T09:41:34.682Z</time>
      </trkpt>
      <trkpt lat="46.97711" lon="8.78333">
        <ele>659</ele>
        <time>2021-08-04T09:41:35.681Z</time>
      </trkpt>
      <trkpt lat="46.97711" lon="8.78331">
        <ele>659</ele>
        <time>2021-08-04T09:41:36.681Z</time>
      </trkpt>
      <trkpt lat="46.97711" lon="8.78329">
        <ele>660</ele>
        <time>2021-08-04T09:41:37.681Z</time>
      </trkpt>
      <trkpt lat="46.97711" lon="8.78328">
        <ele>660</ele>
        <time>2021-08-04T09:41:38.681Z</time>
      </trkpt>
      <trkpt lat="46.97711" lon="8.78327">
        <ele>660</ele>
        <time>2021-08-04T09:41:39.681Z</time>
      </trkpt>
      <trkpt lat="46.97711" lon="8.78325">
        <ele>660</ele>
        <time>2021-08-04T09:41:40.681Z</time>
      </trkpt>
      <trkpt lat="46.97711" lon="8.78323">
        <ele>660</ele>
        <time>2021-08-04T09:41:41.681Z</time>
      </trkpt>
      <trkpt lat="46.97711" lon="8.78322">
        <ele>660</ele>
        <time>2021-08-04T09:41:42.682Z</time>
      </trkpt>
      <trkpt lat="46.97711" lon="8.7832">
        <ele>660</ele>
        <time>2021-08-04T09:41:43.682Z</time>
      </trkpt>
      <trkpt lat="46.97711" lon="8.78319">
        <ele>661</ele>
        <time>2021-08-04T09:41:44.681Z</time>
      </trkpt>
      <trkpt lat="46.97711" lon="8.78317">
        <ele>661</ele>
        <time>2021-08-04T09:41:45.681Z</time>
      </trkpt>
      <trkpt lat="46.97711" lon="8.78315">
        <ele>661</ele>
        <time>2021-08-04T09:41:46.681Z</time>
      </trkpt>
      <trkpt lat="46.97711" lon="8.78314">
        <ele>661</ele>
        <time>2021-08-04T09:41:47.681Z</time>
      </trkpt>
      <trkpt lat="46.97711" lon="8.78312">
        <ele>661</ele>
        <time>2021-08-04T09:41:48.681Z</time>
      </trkpt>
      <trkpt lat="46.97711" lon="8.78311">
        <ele>661</ele>
        <time>2021-08-04T09:41:49.681Z</time>
      </trkpt>
      <trkpt lat="46.9771" lon="8.7831">
        <ele>661</ele>
        <time>2021-08-04T09:41:50.682Z</time>
      </trkpt>
      <trkpt lat="46.9771" lon="8.78309">
        <ele>661</ele>
        <time>2021-08-04T09:41:51.682Z</time>
      </trkpt>
      <trkpt lat="46.9771" lon="8.78307">
        <ele>660</ele>
        <time>2021-08-04T09:41:52.682Z</time>
      </trkpt>
      <trkpt lat="46.9771" lon="8.78305">
        <ele>660</ele>
        <time>2021-08-04T09:41:53.681Z</time>
      </trkpt>
      <trkpt lat="46.97709" lon="8.78303">
        <ele>660</ele>
        <time>2021-08-04T09:41:54.682Z</time>
      </trkpt>
      <trkpt lat="46.97709" lon="8.78302">
        <ele>660</ele>
        <time>2021-08-04T09:41:55.681Z</time>
      </trkpt>
      <trkpt lat="46.97709" lon="8.783">
        <ele>659</ele>
        <time>2021-08-04T09:41:56.682Z</time>
      </trkpt>
      <trkpt lat="46.97709" lon="8.78298">
        <ele>659</ele>
        <time>2021-08-04T09:41:57.682Z</time>
      </trkpt>
      <trkpt lat="46.97709" lon="8.78296">
        <ele>659</ele>
        <time>2021-08-04T09:41:58.681Z</time>
      </trkpt>
      <trkpt lat="46.97709" lon="8.78294">
        <ele>659</ele>
        <time>2021-08-04T09:41:59.682Z</time>
      </trkpt>
      <trkpt lat="46.97709" lon="8.78293">
        <ele>659</ele>
        <time>2021-08-04T09:42:00.682Z</time>
      </trkpt>
      <trkpt lat="46.97709" lon="8.78291">
        <ele>659</ele>
        <time>2021-08-04T09:42:01.682Z</time>
      </trkpt>
      <trkpt lat="46.97708" lon="8.78289">
        <ele>660</ele>
        <time>2021-08-04T09:42:02.681Z</time>
      </trkpt>
      <trkpt lat="46.97708" lon="8.78287">
        <ele>660</ele>
        <time>2021-08-04T09:42:03.682Z</time>
      </trkpt>
      <trkpt lat="46.97708" lon="8.78286">
        <ele>660</ele>
        <time>2021-08-04T09:42:04.682Z</time>
      </trkpt>
      <trkpt lat="46.97708" lon="8.78284">
        <ele>661</ele>
        <time>2021-08-04T09:42:05.682Z</time>
      </trkpt>
      <trkpt lat="46.97708" lon="8.78282">
        <ele>661</ele>
        <time>2021-08-04T09:42:06.682Z</time>
      </trkpt>
      <trkpt lat="46.97708" lon="8.78279">
        <ele>662</ele>
        <time>2021-08-04T09:42:07.682Z</time>
      </trkpt>
      <trkpt lat="46.97708" lon="8.78278">
        <ele>662</ele>
        <time>2021-08-04T09:42:08.682Z</time>
      </trkpt>
      <trkpt lat="46.97708" lon="8.78276">
        <ele>663</ele>
        <time>2021-08-04T09:42:09.681Z</time>
      </trkpt>
      <trkpt lat="46.97708" lon="8.78274">
        <ele>663</ele>
        <time>2021-08-04T09:42:10.682Z</time>
      </trkpt>
      <trkpt lat="46.97708" lon="8.78272">
        <ele>663</ele>
        <time>2021-08-04T09:42:11.681Z</time>
      </trkpt>
      <trkpt lat="46.97708" lon="8.7827">
        <ele>663</ele>
        <time>2021-08-04T09:42:12.682Z</time>
      </trkpt>
      <trkpt lat="46.97709" lon="8.78268">
        <ele>663</ele>
        <time>2021-08-04T09:42:13.681Z</time>
      </trkpt>
      <trkpt lat="46.97708" lon="8.78267">
        <ele>662</ele>
        <time>2021-08-04T09:42:14.682Z</time>
      </trkpt>
      <trkpt lat="46.97709" lon="8.78266">
        <ele>662</ele>
        <time>2021-08-04T09:42:15.681Z</time>
      </trkpt>
      <trkpt lat="46.9771" lon="8.78264">
        <ele>662</ele>
        <time>2021-08-04T09:42:16.682Z</time>
      </trkpt>
      <trkpt lat="46.9771" lon="8.78263">
        <ele>661</ele>
        <time>2021-08-04T09:42:17.682Z</time>
      </trkpt>
      <trkpt lat="46.9771" lon="8.78262">
        <ele>661</ele>
        <time>2021-08-04T09:42:18.681Z</time>
      </trkpt>
      <trkpt lat="46.97711" lon="8.7826">
        <ele>661</ele>
        <time>2021-08-04T09:42:19.682Z</time>
      </trkpt>
      <trkpt lat="46.97712" lon="8.78258">
        <ele>661</ele>
        <time>2021-08-04T09:42:20.681Z</time>
      </trkpt>
      <trkpt lat="46.97712" lon="8.78258">
        <ele>661</ele>
        <time>2021-08-04T09:42:21.682Z</time>
      </trkpt>
      <trkpt lat="46.97711" lon="8.78257">
        <ele>661</ele>
        <time>2021-08-04T09:42:22.681Z</time>
      </trkpt>
      <trkpt lat="46.97711" lon="8.78256">
        <ele>661</ele>
        <time>2021-08-04T09:42:23.682Z</time>
      </trkpt>
      <trkpt lat="46.9771" lon="8.78255">
        <ele>661</ele>
        <time>2021-08-04T09:42:24.682Z</time>
      </trkpt>
      <trkpt lat="46.9771" lon="8.78254">
        <ele>661</ele>
        <time>2021-08-04T09:42:25.681Z</time>
      </trkpt>
      <trkpt lat="46.97709" lon="8.78253">
        <ele>661</ele>
        <time>2021-08-04T09:42:26.682Z</time>
      </trkpt>
      <trkpt lat="46.97709" lon="8.78252">
        <ele>661</ele>
        <time>2021-08-04T09:42:27.681Z</time>
      </trkpt>
      <trkpt lat="46.97708" lon="8.7825">
        <ele>661</ele>
        <time>2021-08-04T09:42:28.681Z</time>
      </trkpt>
      <trkpt lat="46.97708" lon="8.78248">
        <ele>660</ele>
        <time>2021-08-04T09:42:29.682Z</time>
      </trkpt>
      <trkpt lat="46.97707" lon="8.78246">
        <ele>660</ele>
        <time>2021-08-04T09:42:30.682Z</time>
      </trkpt>
      <trkpt lat="46.97707" lon="8.78244">
        <ele>660</ele>
        <time>2021-08-04T09:42:31.682Z</time>
      </trkpt>
      <trkpt lat="46.97706" lon="8.78242">
        <ele>659</ele>
        <time>2021-08-04T09:42:32.681Z</time>
      </trkpt>
      <trkpt lat="46.97706" lon="8.78239">
        <ele>659</ele>
        <time>2021-08-04T09:42:33.682Z</time>
      </trkpt>
      <trkpt lat="46.97706" lon="8.78236">
        <ele>659</ele>
        <time>2021-08-04T09:42:34.682Z</time>
      </trkpt>
      <trkpt lat="46.97705" lon="8.78234">
        <ele>659</ele>
        <time>2021-08-04T09:42:35.682Z</time>
      </trkpt>
      <trkpt lat="46.97704" lon="8.78232">
        <ele>658</ele>
        <time>2021-08-04T09:42:36.681Z</time>
      </trkpt>
      <trkpt lat="46.97704" lon="8.7823">
        <ele>658</ele>
        <time>2021-08-04T09:42:37.682Z</time>
      </trkpt>
      <trkpt lat="46.97703" lon="8.78228">
        <ele>657</ele>
        <time>2021-08-04T09:42:38.682Z</time>
      </trkpt>
      <trkpt lat="46.97703" lon="8.78226">
        <ele>656</ele>
        <time>2021-08-04T09:42:39.681Z</time>
      </trkpt>
      <trkpt lat="46.97703" lon="8.78224">
        <ele>656</ele>
        <time>2021-08-04T09:42:40.681Z</time>
      </trkpt>
      <trkpt lat="46.97703" lon="8.78223">
        <ele>655</ele>
        <time>2021-08-04T09:42:41.682Z</time>
      </trkpt>
      <trkpt lat="46.97703" lon="8.78221">
        <ele>654</ele>
        <time>2021-08-04T09:42:42.682Z</time>
      </trkpt>
      <trkpt lat="46.97703" lon="8.7822">
        <ele>654</ele>
        <time>2021-08-04T09:42:43.682Z</time>
      </trkpt>
      <trkpt lat="46.97703" lon="8.78218">
        <ele>653</ele>
        <time>2021-08-04T09:42:44.682Z</time>
      </trkpt>
      <trkpt lat="46.97703" lon="8.78217">
        <ele>653</ele>
        <time>2021-08-04T09:42:45.682Z</time>
      </trkpt>
      <trkpt lat="46.97703" lon="8.78216">
        <ele>653</ele>
        <time>2021-08-04T09:42:46.682Z</time>
      </trkpt>
      <trkpt lat="46.97702" lon="8.78214">
        <ele>653</ele>
        <time>2021-08-04T09:42:47.681Z</time>
      </trkpt>
      <trkpt lat="46.97702" lon="8.78213">
        <ele>652</ele>
        <time>2021-08-04T09:42:48.681Z</time>
      </trkpt>
      <trkpt lat="46.97701" lon="8.78213">
        <ele>653</ele>
        <time>2021-08-04T09:42:49.681Z</time>
      </trkpt>
      <trkpt lat="46.97701" lon="8.78211">
        <ele>653</ele>
        <time>2021-08-04T09:42:50.682Z</time>
      </trkpt>
      <trkpt lat="46.97701" lon="8.78209">
        <ele>653</ele>
        <time>2021-08-04T09:42:51.682Z</time>
      </trkpt>
      <trkpt lat="46.97701" lon="8.78208">
        <ele>653</ele>
        <time>2021-08-04T09:42:52.682Z</time>
      </trkpt>
      <trkpt lat="46.977" lon="8.78206">
        <ele>654</ele>
        <time>2021-08-04T09:42:53.682Z</time>
      </trkpt>
      <trkpt lat="46.977" lon="8.78204">
        <ele>654</ele>
        <time>2021-08-04T09:42:54.682Z</time>
      </trkpt>
      <trkpt lat="46.977" lon="8.78203">
        <ele>655</ele>
        <time>2021-08-04T09:42:55.681Z</time>
      </trkpt>
      <trkpt lat="46.97699" lon="8.78201">
        <ele>656</ele>
        <time>2021-08-04T09:42:56.681Z</time>
      </trkpt>
      <trkpt lat="46.97697" lon="8.78199">
        <ele>656</ele>
        <time>2021-08-04T09:42:57.681Z</time>
      </trkpt>
      <trkpt lat="46.97696" lon="8.78198">
        <ele>657</ele>
        <time>2021-08-04T09:42:58.682Z</time>
      </trkpt>
      <trkpt lat="46.97695" lon="8.78196">
        <ele>657</ele>
        <time>2021-08-04T09:42:59.682Z</time>
      </trkpt>
      <trkpt lat="46.97694" lon="8.78194">
        <ele>658</ele>
        <time>2021-08-04T09:43:00.682Z</time>
      </trkpt>
      <trkpt lat="46.97693" lon="8.78191">
        <ele>659</ele>
        <time>2021-08-04T09:43:01.681Z</time>
      </trkpt>
      <trkpt lat="46.97692" lon="8.78189">
        <ele>659</ele>
        <time>2021-08-04T09:43:02.682Z</time>
      </trkpt>
      <trkpt lat="46.97692" lon="8.78187">
        <ele>660</ele>
        <time>2021-08-04T09:43:03.682Z</time>
      </trkpt>
      <trkpt lat="46.97691" lon="8.78185">
        <ele>660</ele>
        <time>2021-08-04T09:43:04.681Z</time>
      </trkpt>
      <trkpt lat="46.9769" lon="8.78183">
        <ele>660</ele>
        <time>2021-08-04T09:43:05.682Z</time>
      </trkpt>
      <trkpt lat="46.9769" lon="8.78181">
        <ele>661</ele>
        <time>2021-08-04T09:43:06.681Z</time>
      </trkpt>
      <trkpt lat="46.97689" lon="8.7818">
        <ele>660</ele>
        <time>2021-08-04T09:43:07.682Z</time>
      </trkpt>
      <trkpt lat="46.97689" lon="8.78178">
        <ele>660</ele>
        <time>2021-08-04T09:43:08.682Z</time>
      </trkpt>
      <trkpt lat="46.97688" lon="8.78176">
        <ele>659</ele>
        <time>2021-08-04T09:43:09.682Z</time>
      </trkpt>
      <trkpt lat="46.97688" lon="8.78175">
        <ele>659</ele>
        <time>2021-08-04T09:43:10.682Z</time>
      </trkpt>
      <trkpt lat="46.97688" lon="8.78174">
        <ele>659</ele>
        <time>2021-08-04T09:43:11.681Z</time>
      </trkpt>
      <trkpt lat="46.97688" lon="8.78171">
        <ele>658</ele>
        <time>2021-08-04T09:43:12.681Z</time>
      </trkpt>
      <trkpt lat="46.97687" lon="8.78169">
        <ele>658</ele>
        <time>2021-08-04T09:43:13.681Z</time>
      </trkpt>
      <trkpt lat="46.97687" lon="8.78167">
        <ele>657</ele>
        <time>2021-08-04T09:43:14.682Z</time>
      </trkpt>
      <trkpt lat="46.97686" lon="8.78165">
        <ele>656</ele>
        <time>2021-08-04T09:43:15.681Z</time>
      </trkpt>
      <trkpt lat="46.97686" lon="8.78164">
        <ele>656</ele>
        <time>2021-08-04T09:43:16.682Z</time>
      </trkpt>
      <trkpt lat="46.97685" lon="8.78163">
        <ele>656</ele>
        <time>2021-08-04T09:43:17.682Z</time>
      </trkpt>
      <trkpt lat="46.97685" lon="8.78162">
        <ele>656</ele>
        <time>2021-08-04T09:43:18.682Z</time>
      </trkpt>
      <trkpt lat="46.97684" lon="8.78161">
        <ele>656</ele>
        <time>2021-08-04T09:43:19.681Z</time>
      </trkpt>
      <trkpt lat="46.97684" lon="8.78159">
        <ele>656</ele>
        <time>2021-08-04T09:43:20.681Z</time>
      </trkpt>
      <trkpt lat="46.97682" lon="8.78156">
        <ele>657</ele>
        <time>2021-08-04T09:43:21.682Z</time>
      </trkpt>
      <trkpt lat="46.97681" lon="8.78155">
        <ele>658</ele>
        <time>2021-08-04T09:43:22.682Z</time>
      </trkpt>
      <trkpt lat="46.9768" lon="8.78153">
        <ele>658</ele>
        <time>2021-08-04T09:43:23.681Z</time>
      </trkpt>
      <trkpt lat="46.97679" lon="8.78151">
        <ele>659</ele>
        <time>2021-08-04T09:43:24.682Z</time>
      </trkpt>
      <trkpt lat="46.97678" lon="8.7815">
        <ele>660</ele>
        <time>2021-08-04T09:43:25.681Z</time>
      </trkpt>
      <trkpt lat="46.97678" lon="8.78149">
        <ele>661</ele>
        <time>2021-08-04T09:43:26.682Z</time>
      </trkpt>
      <trkpt lat="46.97677" lon="8.78147">
        <ele>662</ele>
        <time>2021-08-04T09:43:27.682Z</time>
      </trkpt>
      <trkpt lat="46.97677" lon="8.78146">
        <ele>662</ele>
        <time>2021-08-04T09:43:28.681Z</time>
      </trkpt>
      <trkpt lat="46.97677" lon="8.78145">
        <ele>663</ele>
        <time>2021-08-04T09:43:29.681Z</time>
      </trkpt>
      <trkpt lat="46.97677" lon="8.78144">
        <ele>664</ele>
        <time>2021-08-04T09:43:30.682Z</time>
      </trkpt>
      <trkpt lat="46.97676" lon="8.78143">
        <ele>664</ele>
        <time>2021-08-04T09:43:31.682Z</time>
      </trkpt>
      <trkpt lat="46.97676" lon="8.78142">
        <ele>665</ele>
        <time>2021-08-04T09:43:32.682Z</time>
      </trkpt>
      <trkpt lat="46.97675" lon="8.7814">
        <ele>666</ele>
        <time>2021-08-04T09:43:33.682Z</time>
      </trkpt>
      <trkpt lat="46.97674" lon="8.78139">
        <ele>667</ele>
        <time>2021-08-04T09:43:34.681Z</time>
      </trkpt>
      <trkpt lat="46.97674" lon="8.78137">
        <ele>667</ele>
        <time>2021-08-04T09:43:35.682Z</time>
      </trkpt>
      <trkpt lat="46.97673" lon="8.78135">
        <ele>668</ele>
        <time>2021-08-04T09:43:36.682Z</time>
      </trkpt>
      <trkpt lat="46.97672" lon="8.78134">
        <ele>669</ele>
        <time>2021-08-04T09:43:40.830Z</time>
      </trkpt>
      <trkpt lat="46.97672" lon="8.78132">
        <ele>669</ele>
        <time>2021-08-04T09:43:41.831Z</time>
      </trkpt>
      <trkpt lat="46.97671" lon="8.78131">
        <ele>670</ele>
        <time>2021-08-04T09:43:42.830Z</time>
      </trkpt>
      <trkpt lat="46.9767" lon="8.78129">
        <ele>671</ele>
        <time>2021-08-04T09:43:43.831Z</time>
      </trkpt>
      <trkpt lat="46.97669" lon="8.78128">
        <ele>671</ele>
        <time>2021-08-04T09:43:44.831Z</time>
      </trkpt>
      <trkpt lat="46.97668" lon="8.78125">
        <ele>672</ele>
        <time>2021-08-04T09:43:45.830Z</time>
      </trkpt>
      <trkpt lat="46.97669" lon="8.78124">
        <ele>672</ele>
        <time>2021-08-04T09:43:46.831Z</time>
      </trkpt>
      <trkpt lat="46.97669" lon="8.78123">
        <ele>673</ele>
        <time>2021-08-04T09:43:47.830Z</time>
      </trkpt>
      <trkpt lat="46.97669" lon="8.78122">
        <ele>673</ele>
        <time>2021-08-04T09:43:48.830Z</time>
      </trkpt>
      <trkpt lat="46.97668" lon="8.78122">
        <ele>673</ele>
        <time>2021-08-04T09:43:49.831Z</time>
      </trkpt>
      <trkpt lat="46.97668" lon="8.78121">
        <ele>673</ele>
        <time>2021-08-04T09:43:50.831Z</time>
      </trkpt>
      <trkpt lat="46.97667" lon="8.7812">
        <ele>674</ele>
        <time>2021-08-04T09:43:51.831Z</time>
      </trkpt>
      <trkpt lat="46.97667" lon="8.78118">
        <ele>674</ele>
        <time>2021-08-04T09:43:52.831Z</time>
      </trkpt>
      <trkpt lat="46.97666" lon="8.78118">
        <ele>674</ele>
        <time>2021-08-04T09:43:53.831Z</time>
      </trkpt>
      <trkpt lat="46.97665" lon="8.78115">
        <ele>674</ele>
        <time>2021-08-04T09:43:54.831Z</time>
      </trkpt>
      <trkpt lat="46.97664" lon="8.78113">
        <ele>675</ele>
        <time>2021-08-04T09:43:55.830Z</time>
      </trkpt>
      <trkpt lat="46.97663" lon="8.7811">
        <ele>675</ele>
        <time>2021-08-04T09:43:56.831Z</time>
      </trkpt>
      <trkpt lat="46.97662" lon="8.78109">
        <ele>675</ele>
        <time>2021-08-04T09:43:57.831Z</time>
      </trkpt>
      <trkpt lat="46.97662" lon="8.78108">
        <ele>675</ele>
        <time>2021-08-04T09:43:58.830Z</time>
      </trkpt>
      <trkpt lat="46.97662" lon="8.78106">
        <ele>675</ele>
        <time>2021-08-04T09:43:59.832Z</time>
      </trkpt>
      <trkpt lat="46.97662" lon="8.78106">
        <ele>676</ele>
        <time>2021-08-04T09:44:00.832Z</time>
      </trkpt>
      <trkpt lat="46.97661" lon="8.78104">
        <ele>676</ele>
        <time>2021-08-04T09:44:01.831Z</time>
      </trkpt>
      <trkpt lat="46.9766" lon="8.78103">
        <ele>676</ele>
        <time>2021-08-04T09:44:02.832Z</time>
      </trkpt>
      <trkpt lat="46.9766" lon="8.78101">
        <ele>676</ele>
        <time>2021-08-04T09:44:03.832Z</time>
      </trkpt>
      <trkpt lat="46.9766" lon="8.781">
        <ele>676</ele>
        <time>2021-08-04T09:44:04.832Z</time>
      </trkpt>
      <trkpt lat="46.97659" lon="8.78098">
        <ele>677</ele>
        <time>2021-08-04T09:44:05.832Z</time>
      </trkpt>
      <trkpt lat="46.97659" lon="8.78097">
        <ele>677</ele>
        <time>2021-08-04T09:44:06.831Z</time>
      </trkpt>
      <trkpt lat="46.9766" lon="8.78096">
        <ele>677</ele>
        <time>2021-08-04T09:44:12.913Z</time>
      </trkpt>
      <trkpt lat="46.97659" lon="8.78096">
        <ele>677</ele>
        <time>2021-08-04T09:44:13.913Z</time>
      </trkpt>
      <trkpt lat="46.97659" lon="8.78094">
        <ele>677</ele>
        <time>2021-08-04T09:44:14.913Z</time>
      </trkpt>
      <trkpt lat="46.97658" lon="8.78093">
        <ele>677</ele>
        <time>2021-08-04T09:44:15.912Z</time>
      </trkpt>
      <trkpt lat="46.97658" lon="8.78091">
        <ele>677</ele>
        <time>2021-08-04T09:44:16.913Z</time>
      </trkpt>
      <trkpt lat="46.97657" lon="8.7809">
        <ele>677</ele>
        <time>2021-08-04T09:44:17.913Z</time>
      </trkpt>
      <trkpt lat="46.97657" lon="8.78089">
        <ele>676</ele>
        <time>2021-08-04T09:44:18.913Z</time>
      </trkpt>
      <trkpt lat="46.97656" lon="8.78087">
        <ele>676</ele>
        <time>2021-08-04T09:44:19.913Z</time>
      </trkpt>
      <trkpt lat="46.97655" lon="8.78086">
        <ele>676</ele>
        <time>2021-08-04T09:44:20.913Z</time>
      </trkpt>
      <trkpt lat="46.97655" lon="8.78084">
        <ele>675</ele>
        <time>2021-08-04T09:44:21.913Z</time>
      </trkpt>
      <trkpt lat="46.97654" lon="8.78082">
        <ele>675</ele>
        <time>2021-08-04T09:44:22.913Z</time>
      </trkpt>
      <trkpt lat="46.97654" lon="8.78081">
        <ele>675</ele>
        <time>2021-08-04T09:44:23.912Z</time>
      </trkpt>
      <trkpt lat="46.97653" lon="8.78081">
        <ele>675</ele>
        <time>2021-08-04T09:44:24.913Z</time>
      </trkpt>
      <trkpt lat="46.97653" lon="8.7808">
        <ele>674</ele>
        <time>2021-08-04T09:44:25.913Z</time>
      </trkpt>
      <trkpt lat="46.97653" lon="8.7808">
        <ele>674</ele>
        <time>2021-08-04T09:44:26.913Z</time>
      </trkpt>
      <trkpt lat="46.97653" lon="8.78079">
        <ele>674</ele>
        <time>2021-08-04T09:44:27.912Z</time>
      </trkpt>
      <trkpt lat="46.97653" lon="8.78078">
        <ele>674</ele>
        <time>2021-08-04T09:44:28.913Z</time>
      </trkpt>
      <trkpt lat="46.97653" lon="8.78078">
        <ele>673</ele>
        <time>2021-08-04T09:44:29.913Z</time>
      </trkpt>
      <trkpt lat="46.97653" lon="8.78077">
        <ele>673</ele>
        <time>2021-08-04T09:44:30.912Z</time>
      </trkpt>
      <trkpt lat="46.97653" lon="8.78077">
        <ele>672</ele>
        <time>2021-08-04T09:44:31.912Z</time>
      </trkpt>
      <trkpt lat="46.97652" lon="8.78076">
        <ele>672</ele>
        <time>2021-08-04T09:44:32.913Z</time>
      </trkpt>
      <trkpt lat="46.97651" lon="8.78076">
        <ele>672</ele>
        <time>2021-08-04T09:44:33.913Z</time>
      </trkpt>
      <trkpt lat="46.9765" lon="8.78075">
        <ele>671</ele>
        <time>2021-08-04T09:44:44.939Z</time>
      </trkpt>
      <trkpt lat="46.9765" lon="8.78073">
        <ele>671</ele>
        <time>2021-08-04T09:44:45.940Z</time>
      </trkpt>
      <trkpt lat="46.97651" lon="8.78071">
        <ele>670</ele>
        <time>2021-08-04T09:44:46.939Z</time>
      </trkpt>
      <trkpt lat="46.97651" lon="8.78069">
        <ele>670</ele>
        <time>2021-08-04T09:44:47.940Z</time>
      </trkpt>
      <trkpt lat="46.97651" lon="8.78067">
        <ele>670</ele>
        <time>2021-08-04T09:44:56.077Z</time>
      </trkpt>
      <trkpt lat="46.97651" lon="8.78065">
        <ele>670</ele>
        <time>2021-08-04T09:44:57.077Z</time>
      </trkpt>
      <trkpt lat="46.97652" lon="8.78062">
        <ele>669</ele>
        <time>2021-08-04T09:44:58.077Z</time>
      </trkpt>
      <trkpt lat="46.97652" lon="8.7806">
        <ele>669</ele>
        <time>2021-08-04T09:44:59.077Z</time>
      </trkpt>
      <trkpt lat="46.97651" lon="8.78059">
        <ele>669</ele>
        <time>2021-08-04T09:45:00.076Z</time>
      </trkpt>
      <trkpt lat="46.97649" lon="8.78058">
        <ele>668</ele>
        <time>2021-08-04T09:45:01.077Z</time>
      </trkpt>
      <trkpt lat="46.97648" lon="8.78058">
        <ele>667</ele>
        <time>2021-08-04T09:45:02.077Z</time>
      </trkpt>
      <trkpt lat="46.97647" lon="8.78057">
        <ele>666</ele>
        <time>2021-08-04T09:45:03.077Z</time>
      </trkpt>
      <trkpt lat="46.97647" lon="8.78057">
        <ele>665</ele>
        <time>2021-08-04T09:45:04.077Z</time>
      </trkpt>
      <trkpt lat="46.97647" lon="8.78056">
        <ele>664</ele>
        <time>2021-08-04T09:45:05.076Z</time>
      </trkpt>
      <trkpt lat="46.97646" lon="8.78054">
        <ele>663</ele>
        <time>2021-08-04T09:45:06.077Z</time>
      </trkpt>
      <trkpt lat="46.97646" lon="8.78053">
        <ele>662</ele>
        <time>2021-08-04T09:45:07.076Z</time>
      </trkpt>
      <trkpt lat="46.97645" lon="8.78052">
        <ele>662</ele>
        <time>2021-08-04T09:45:08.077Z</time>
      </trkpt>
      <trkpt lat="46.97644" lon="8.78051">
        <ele>661</ele>
        <time>2021-08-04T09:45:09.077Z</time>
      </trkpt>
      <trkpt lat="46.97644" lon="8.7805">
        <ele>661</ele>
        <time>2021-08-04T09:45:10.077Z</time>
      </trkpt>
      <trkpt lat="46.97643" lon="8.78048">
        <ele>660</ele>
        <time>2021-08-04T09:45:11.077Z</time>
      </trkpt>
      <trkpt lat="46.97642" lon="8.78047">
        <ele>660</ele>
        <time>2021-08-04T09:45:12.076Z</time>
      </trkpt>
      <trkpt lat="46.97642" lon="8.78046">
        <ele>660</ele>
        <time>2021-08-04T09:45:13.077Z</time>
      </trkpt>
      <trkpt lat="46.97641" lon="8.78045">
        <ele>659</ele>
        <time>2021-08-04T09:45:14.077Z</time>
      </trkpt>
      <trkpt lat="46.97641" lon="8.78044">
        <ele>659</ele>
        <time>2021-08-04T09:45:15.077Z</time>
      </trkpt>
      <trkpt lat="46.97641" lon="8.78041">
        <ele>659</ele>
        <time>2021-08-04T09:45:16.077Z</time>
      </trkpt>
      <trkpt lat="46.97641" lon="8.78038">
        <ele>659</ele>
        <time>2021-08-04T09:45:17.076Z</time>
      </trkpt>
      <trkpt lat="46.97641" lon="8.78036">
        <ele>659</ele>
        <time>2021-08-04T09:45:18.076Z</time>
      </trkpt>
      <trkpt lat="46.9764" lon="8.78034">
        <ele>658</ele>
        <time>2021-08-04T09:45:19.077Z</time>
      </trkpt>
      <trkpt lat="46.9764" lon="8.78032">
        <ele>658</ele>
        <time>2021-08-04T09:45:20.076Z</time>
      </trkpt>
      <trkpt lat="46.97639" lon="8.78031">
        <ele>658</ele>
        <time>2021-08-04T09:45:21.077Z</time>
      </trkpt>
      <trkpt lat="46.97637" lon="8.7803">
        <ele>658</ele>
        <time>2021-08-04T09:45:22.077Z</time>
      </trkpt>
      <trkpt lat="46.97637" lon="8.78029">
        <ele>658</ele>
        <time>2021-08-04T09:45:23.076Z</time>
      </trkpt>
      <trkpt lat="46.97636" lon="8.78028">
        <ele>659</ele>
        <time>2021-08-04T09:45:24.077Z</time>
      </trkpt>
      <trkpt lat="46.97636" lon="8.78027">
        <ele>659</ele>
        <time>2021-08-04T09:45:25.077Z</time>
      </trkpt>
      <trkpt lat="46.97635" lon="8.78026">
        <ele>659</ele>
        <time>2021-08-04T09:45:26.077Z</time>
      </trkpt>
      <trkpt lat="46.97635" lon="8.78025">
        <ele>660</ele>
        <time>2021-08-04T09:45:27.077Z</time>
      </trkpt>
      <trkpt lat="46.97635" lon="8.78024">
        <ele>660</ele>
        <time>2021-08-04T09:45:28.077Z</time>
      </trkpt>
      <trkpt lat="46.97634" lon="8.78022">
        <ele>661</ele>
        <time>2021-08-04T09:45:29.077Z</time>
      </trkpt>
      <trkpt lat="46.97633" lon="8.78021">
        <ele>661</ele>
        <time>2021-08-04T09:45:30.076Z</time>
      </trkpt>
      <trkpt lat="46.97632" lon="8.78019">
        <ele>661</ele>
        <time>2021-08-04T09:45:31.076Z</time>
      </trkpt>
      <trkpt lat="46.97632" lon="8.78018">
        <ele>661</ele>
        <time>2021-08-04T09:45:32.077Z</time>
      </trkpt>
      <trkpt lat="46.97631" lon="8.78016">
        <ele>662</ele>
        <time>2021-08-04T09:45:33.077Z</time>
      </trkpt>
      <trkpt lat="46.9763" lon="8.78015">
        <ele>662</ele>
        <time>2021-08-04T09:45:34.076Z</time>
      </trkpt>
      <trkpt lat="46.9763" lon="8.78014">
        <ele>662</ele>
        <time>2021-08-04T09:45:35.077Z</time>
      </trkpt>
      <trkpt lat="46.9763" lon="8.78012">
        <ele>663</ele>
        <time>2021-08-04T09:45:36.077Z</time>
      </trkpt>
      <trkpt lat="46.97629" lon="8.78011">
        <ele>663</ele>
        <time>2021-08-04T09:45:37.076Z</time>
      </trkpt>
      <trkpt lat="46.97629" lon="8.78009">
        <ele>662</ele>
        <time>2021-08-04T09:45:38.077Z</time>
      </trkpt>
      <trkpt lat="46.97628" lon="8.78008">
        <ele>662</ele>
        <time>2021-08-04T09:45:39.077Z</time>
      </trkpt>
      <trkpt lat="46.97628" lon="8.78007">
        <ele>662</ele>
        <time>2021-08-04T09:45:40.076Z</time>
      </trkpt>
      <trkpt lat="46.97628" lon="8.78006">
        <ele>662</ele>
        <time>2021-08-04T09:45:41.076Z</time>
      </trkpt>
      <trkpt lat="46.97627" lon="8.78004">
        <ele>662</ele>
        <time>2021-08-04T09:45:42.076Z</time>
      </trkpt>
      <trkpt lat="46.97627" lon="8.78003">
        <ele>662</ele>
        <time>2021-08-04T09:45:43.076Z</time>
      </trkpt>
      <trkpt lat="46.97627" lon="8.78002">
        <ele>662</ele>
        <time>2021-08-04T09:45:44.076Z</time>
      </trkpt>
      <trkpt lat="46.97626" lon="8.78001">
        <ele>662</ele>
        <time>2021-08-04T09:45:45.077Z</time>
      </trkpt>
      <trkpt lat="46.97626" lon="8.77999">
        <ele>661</ele>
        <time>2021-08-04T09:45:46.076Z</time>
      </trkpt>
      <trkpt lat="46.97625" lon="8.77997">
        <ele>661</ele>
        <time>2021-08-04T09:45:47.077Z</time>
      </trkpt>
      <trkpt lat="46.97624" lon="8.77995">
        <ele>661</ele>
        <time>2021-08-04T09:45:48.077Z</time>
      </trkpt>
      <trkpt lat="46.97623" lon="8.77993">
        <ele>661</ele>
        <time>2021-08-04T09:45:49.077Z</time>
      </trkpt>
      <trkpt lat="46.97622" lon="8.77991">
        <ele>661</ele>
        <time>2021-08-04T09:45:50.076Z</time>
      </trkpt>
      <trkpt lat="46.97621" lon="8.77988">
        <ele>661</ele>
        <time>2021-08-04T09:45:51.076Z</time>
      </trkpt>
      <trkpt lat="46.97621" lon="8.77987">
        <ele>661</ele>
        <time>2021-08-04T09:45:52.077Z</time>
      </trkpt>
      <trkpt lat="46.9762" lon="8.77985">
        <ele>661</ele>
        <time>2021-08-04T09:45:53.077Z</time>
      </trkpt>
      <trkpt lat="46.97619" lon="8.77983">
        <ele>661</ele>
        <time>2021-08-04T09:45:54.077Z</time>
      </trkpt>
      <trkpt lat="46.97619" lon="8.77981">
        <ele>661</ele>
        <time>2021-08-04T09:45:55.077Z</time>
      </trkpt>
      <trkpt lat="46.97618" lon="8.7798">
        <ele>660</ele>
        <time>2021-08-04T09:45:56.076Z</time>
      </trkpt>
      <trkpt lat="46.97618" lon="8.77978">
        <ele>660</ele>
        <time>2021-08-04T09:45:57.076Z</time>
      </trkpt>
      <trkpt lat="46.97618" lon="8.77977">
        <ele>660</ele>
        <time>2021-08-04T09:45:58.077Z</time>
      </trkpt>
      <trkpt lat="46.97617" lon="8.77975">
        <ele>660</ele>
        <time>2021-08-04T09:45:59.076Z</time>
      </trkpt>
      <trkpt lat="46.97617" lon="8.77973">
        <ele>659</ele>
        <time>2021-08-04T09:46:00.076Z</time>
      </trkpt>
      <trkpt lat="46.97617" lon="8.77972">
        <ele>659</ele>
        <time>2021-08-04T09:46:01.076Z</time>
      </trkpt>
      <trkpt lat="46.97617" lon="8.77971">
        <ele>659</ele>
        <time>2021-08-04T09:46:02.077Z</time>
      </trkpt>
      <trkpt lat="46.97616" lon="8.7797">
        <ele>659</ele>
        <time>2021-08-04T09:46:03.077Z</time>
      </trkpt>
      <trkpt lat="46.97615" lon="8.77968">
        <ele>659</ele>
        <time>2021-08-04T09:46:04.076Z</time>
      </trkpt>
      <trkpt lat="46.97614" lon="8.77967">
        <ele>660</ele>
        <time>2021-08-04T09:46:05.077Z</time>
      </trkpt>
      <trkpt lat="46.97613" lon="8.77965">
        <ele>660</ele>
        <time>2021-08-04T09:46:06.077Z</time>
      </trkpt>
      <trkpt lat="46.97611" lon="8.77963">
        <ele>660</ele>
        <time>2021-08-04T09:46:07.077Z</time>
      </trkpt>
      <trkpt lat="46.9761" lon="8.77961">
        <ele>660</ele>
        <time>2021-08-04T09:46:08.077Z</time>
      </trkpt>
      <trkpt lat="46.97609" lon="8.77959">
        <ele>660</ele>
        <time>2021-08-04T09:46:09.077Z</time>
      </trkpt>
      <trkpt lat="46.97609" lon="8.77956">
        <ele>660</ele>
        <time>2021-08-04T09:46:10.077Z</time>
      </trkpt>
      <trkpt lat="46.97608" lon="8.77955">
        <ele>659</ele>
        <time>2021-08-04T09:46:11.077Z</time>
      </trkpt>
      <trkpt lat="46.97607" lon="8.77954">
        <ele>660</ele>
        <time>2021-08-04T09:46:12.076Z</time>
      </trkpt>
      <trkpt lat="46.97607" lon="8.77953">
        <ele>660</ele>
        <time>2021-08-04T09:46:13.077Z</time>
      </trkpt>
      <trkpt lat="46.97606" lon="8.77952">
        <ele>660</ele>
        <time>2021-08-04T09:46:14.077Z</time>
      </trkpt>
      <trkpt lat="46.97606" lon="8.7795">
        <ele>660</ele>
        <time>2021-08-04T09:46:15.077Z</time>
      </trkpt>
      <trkpt lat="46.97606" lon="8.77949">
        <ele>661</ele>
        <time>2021-08-04T09:46:16.076Z</time>
      </trkpt>
      <trkpt lat="46.97605" lon="8.77947">
        <ele>661</ele>
        <time>2021-08-04T09:46:17.076Z</time>
      </trkpt>
      <trkpt lat="46.97605" lon="8.77946">
        <ele>661</ele>
        <time>2021-08-04T09:46:18.077Z</time>
      </trkpt>
      <trkpt lat="46.97604" lon="8.77944">
        <ele>660</ele>
        <time>2021-08-04T09:46:19.077Z</time>
      </trkpt>
      <trkpt lat="46.97603" lon="8.77943">
        <ele>660</ele>
        <time>2021-08-04T09:46:20.076Z</time>
      </trkpt>
      <trkpt lat="46.97603" lon="8.77942">
        <ele>660</ele>
        <time>2021-08-04T09:46:21.077Z</time>
      </trkpt>
      <trkpt lat="46.97602" lon="8.7794">
        <ele>659</ele>
        <time>2021-08-04T09:46:22.077Z</time>
      </trkpt>
      <trkpt lat="46.97601" lon="8.77939">
        <ele>659</ele>
        <time>2021-08-04T09:46:23.077Z</time>
      </trkpt>
      <trkpt lat="46.97601" lon="8.77937">
        <ele>658</ele>
        <time>2021-08-04T09:46:24.077Z</time>
      </trkpt>
      <trkpt lat="46.976" lon="8.77935">
        <ele>658</ele>
        <time>2021-08-04T09:46:25.077Z</time>
      </trkpt>
      <trkpt lat="46.976" lon="8.77934">
        <ele>658</ele>
        <time>2021-08-04T09:46:26.077Z</time>
      </trkpt>
      <trkpt lat="46.97599" lon="8.77932">
        <ele>658</ele>
        <time>2021-08-04T09:46:27.076Z</time>
      </trkpt>
      <trkpt lat="46.97599" lon="8.77931">
        <ele>658</ele>
        <time>2021-08-04T09:46:28.077Z</time>
      </trkpt>
      <trkpt lat="46.97599" lon="8.7793">
        <ele>658</ele>
        <time>2021-08-04T09:46:29.076Z</time>
      </trkpt>
      <trkpt lat="46.97599" lon="8.77928">
        <ele>658</ele>
        <time>2021-08-04T09:46:30.077Z</time>
      </trkpt>
      <trkpt lat="46.97598" lon="8.77927">
        <ele>658</ele>
        <time>2021-08-04T09:46:31.076Z</time>
      </trkpt>
      <trkpt lat="46.97597" lon="8.77925">
        <ele>658</ele>
        <time>2021-08-04T09:46:32.077Z</time>
      </trkpt>
      <trkpt lat="46.97597" lon="8.77924">
        <ele>657</ele>
        <time>2021-08-04T09:46:33.077Z</time>
      </trkpt>
      <trkpt lat="46.97596" lon="8.77922">
        <ele>657</ele>
        <time>2021-08-04T09:46:34.077Z</time>
      </trkpt>
      <trkpt lat="46.97595" lon="8.7792">
        <ele>658</ele>
        <time>2021-08-04T09:46:35.077Z</time>
      </trkpt>
      <trkpt lat="46.97594" lon="8.77919">
        <ele>658</ele>
        <time>2021-08-04T09:46:36.076Z</time>
      </trkpt>
      <trkpt lat="46.97593" lon="8.77917">
        <ele>658</ele>
        <time>2021-08-04T09:46:37.077Z</time>
      </trkpt>
      <trkpt lat="46.97593" lon="8.77916">
        <ele>658</ele>
        <time>2021-08-04T09:46:38.077Z</time>
      </trkpt>
      <trkpt lat="46.97592" lon="8.77915">
        <ele>658</ele>
        <time>2021-08-04T09:46:39.077Z</time>
      </trkpt>
      <trkpt lat="46.97591" lon="8.77913">
        <ele>658</ele>
        <time>2021-08-04T09:46:40.077Z</time>
      </trkpt>
      <trkpt lat="46.9759" lon="8.77912">
        <ele>657</ele>
        <time>2021-08-04T09:46:41.076Z</time>
      </trkpt>
      <trkpt lat="46.9759" lon="8.77911">
        <ele>657</ele>
        <time>2021-08-04T09:46:42.077Z</time>
      </trkpt>
      <trkpt lat="46.97589" lon="8.77909">
        <ele>657</ele>
        <time>2021-08-04T09:46:43.077Z</time>
      </trkpt>
      <trkpt lat="46.97588" lon="8.77908">
        <ele>658</ele>
        <time>2021-08-04T09:46:44.077Z</time>
      </trkpt>
      <trkpt lat="46.97587" lon="8.77906">
        <ele>658</ele>
        <time>2021-08-04T09:46:45.077Z</time>
      </trkpt>
      <trkpt lat="46.97587" lon="8.77905">
        <ele>658</ele>
        <time>2021-08-04T09:46:46.077Z</time>
      </trkpt>
      <trkpt lat="46.97586" lon="8.77903">
        <ele>659</ele>
        <time>2021-08-04T09:46:47.076Z</time>
      </trkpt>
      <trkpt lat="46.97586" lon="8.77902">
        <ele>659</ele>
        <time>2021-08-04T09:46:48.077Z</time>
      </trkpt>
      <trkpt lat="46.97586" lon="8.77901">
        <ele>659</ele>
        <time>2021-08-04T09:46:49.077Z</time>
      </trkpt>
      <trkpt lat="46.97585" lon="8.77899">
        <ele>659</ele>
        <time>2021-08-04T09:46:50.077Z</time>
      </trkpt>
      <trkpt lat="46.97585" lon="8.77898">
        <ele>659</ele>
        <time>2021-08-04T09:46:51.076Z</time>
      </trkpt>
      <trkpt lat="46.97584" lon="8.77896">
        <ele>659</ele>
        <time>2021-08-04T09:46:52.077Z</time>
      </trkpt>
      <trkpt lat="46.97584" lon="8.77895">
        <ele>659</ele>
        <time>2021-08-04T09:46:53.077Z</time>
      </trkpt>
      <trkpt lat="46.97583" lon="8.77893">
        <ele>658</ele>
        <time>2021-08-04T09:46:54.077Z</time>
      </trkpt>
      <trkpt lat="46.97583" lon="8.77892">
        <ele>658</ele>
        <time>2021-08-04T09:46:55.077Z</time>
      </trkpt>
      <trkpt lat="46.97582" lon="8.7789">
        <ele>658</ele>
        <time>2021-08-04T09:46:56.076Z</time>
      </trkpt>
      <trkpt lat="46.97581" lon="8.77889">
        <ele>658</ele>
        <time>2021-08-04T09:46:57.077Z</time>
      </trkpt>
      <trkpt lat="46.9758" lon="8.77888">
        <ele>658</ele>
        <time>2021-08-04T09:46:58.076Z</time>
      </trkpt>
      <trkpt lat="46.9758" lon="8.77887">
        <ele>657</ele>
        <time>2021-08-04T09:46:59.076Z</time>
      </trkpt>
      <trkpt lat="46.9758" lon="8.77885">
        <ele>657</ele>
        <time>2021-08-04T09:47:00.077Z</time>
      </trkpt>
      <trkpt lat="46.97579" lon="8.77884">
        <ele>656</ele>
        <time>2021-08-04T09:47:01.077Z</time>
      </trkpt>
      <trkpt lat="46.97579" lon="8.77883">
        <ele>656</ele>
        <time>2021-08-04T09:47:02.077Z</time>
      </trkpt>
      <trkpt lat="46.97578" lon="8.77882">
        <ele>656</ele>
        <time>2021-08-04T09:47:03.077Z</time>
      </trkpt>
      <trkpt lat="46.97577" lon="8.77881">
        <ele>655</ele>
        <time>2021-08-04T09:47:04.077Z</time>
      </trkpt>
      <trkpt lat="46.97576" lon="8.77879">
        <ele>655</ele>
        <time>2021-08-04T09:47:05.077Z</time>
      </trkpt>
      <trkpt lat="46.97576" lon="8.77878">
        <ele>655</ele>
        <time>2021-08-04T09:47:06.077Z</time>
      </trkpt>
      <trkpt lat="46.97575" lon="8.77877">
        <ele>656</ele>
        <time>2021-08-04T09:47:07.077Z</time>
      </trkpt>
      <trkpt lat="46.97575" lon="8.77876">
        <ele>656</ele>
        <time>2021-08-04T09:47:08.077Z</time>
      </trkpt>
      <trkpt lat="46.97574" lon="8.77874">
        <ele>656</ele>
        <time>2021-08-04T09:47:09.077Z</time>
      </trkpt>
      <trkpt lat="46.97574" lon="8.77873">
        <ele>656</ele>
        <time>2021-08-04T09:47:10.077Z</time>
      </trkpt>
      <trkpt lat="46.97574" lon="8.77872">
        <ele>656</ele>
        <time>2021-08-04T09:47:11.077Z</time>
      </trkpt>
      <trkpt lat="46.97573" lon="8.77871">
        <ele>656</ele>
        <time>2021-08-04T09:47:12.076Z</time>
      </trkpt>
      <trkpt lat="46.97572" lon="8.7787">
        <ele>656</ele>
        <time>2021-08-04T09:47:13.077Z</time>
      </trkpt>
      <trkpt lat="46.97571" lon="8.77869">
        <ele>656</ele>
        <time>2021-08-04T09:47:14.076Z</time>
      </trkpt>
      <trkpt lat="46.97571" lon="8.77867">
        <ele>656</ele>
        <time>2021-08-04T09:47:15.076Z</time>
      </trkpt>
      <trkpt lat="46.97571" lon="8.77866">
        <ele>656</ele>
        <time>2021-08-04T09:47:16.077Z</time>
      </trkpt>
      <trkpt lat="46.9757" lon="8.77865">
        <ele>656</ele>
        <time>2021-08-04T09:47:17.076Z</time>
      </trkpt>
      <trkpt lat="46.97569" lon="8.77863">
        <ele>655</ele>
        <time>2021-08-04T09:47:18.077Z</time>
      </trkpt>
      <trkpt lat="46.97569" lon="8.77862">
        <ele>655</ele>
        <time>2021-08-04T09:47:19.076Z</time>
      </trkpt>
      <trkpt lat="46.97569" lon="8.77861">
        <ele>655</ele>
        <time>2021-08-04T09:47:20.077Z</time>
      </trkpt>
      <trkpt lat="46.97568" lon="8.77859">
        <ele>654</ele>
        <time>2021-08-04T09:47:21.076Z</time>
      </trkpt>
      <trkpt lat="46.97567" lon="8.77858">
        <ele>654</ele>
        <time>2021-08-04T09:47:22.076Z</time>
      </trkpt>
      <trkpt lat="46.97566" lon="8.77857">
        <ele>655</ele>
        <time>2021-08-04T09:47:23.077Z</time>
      </trkpt>
      <trkpt lat="46.97566" lon="8.77855">
        <ele>655</ele>
        <time>2021-08-04T09:47:24.076Z</time>
      </trkpt>
      <trkpt lat="46.97565" lon="8.77854">
        <ele>655</ele>
        <time>2021-08-04T09:47:25.077Z</time>
      </trkpt>
      <trkpt lat="46.97564" lon="8.77852">
        <ele>655</ele>
        <time>2021-08-04T09:47:26.077Z</time>
      </trkpt>
      <trkpt lat="46.97563" lon="8.77851">
        <ele>655</ele>
        <time>2021-08-04T09:47:27.076Z</time>
      </trkpt>
      <trkpt lat="46.97563" lon="8.7785">
        <ele>655</ele>
        <time>2021-08-04T09:47:28.077Z</time>
      </trkpt>
      <trkpt lat="46.97562" lon="8.77848">
        <ele>655</ele>
        <time>2021-08-04T09:47:29.077Z</time>
      </trkpt>
      <trkpt lat="46.97561" lon="8.77846">
        <ele>655</ele>
        <time>2021-08-04T09:47:30.076Z</time>
      </trkpt>
      <trkpt lat="46.97561" lon="8.77845">
        <ele>655</ele>
        <time>2021-08-04T09:47:31.077Z</time>
      </trkpt>
      <trkpt lat="46.97561" lon="8.77844">
        <ele>655</ele>
        <time>2021-08-04T09:47:32.077Z</time>
      </trkpt>
      <trkpt lat="46.9756" lon="8.77843">
        <ele>655</ele>
        <time>2021-08-04T09:47:33.076Z</time>
      </trkpt>
      <trkpt lat="46.97559" lon="8.77841">
        <ele>655</ele>
        <time>2021-08-04T09:47:34.077Z</time>
      </trkpt>
      <trkpt lat="46.97559" lon="8.7784">
        <ele>655</ele>
        <time>2021-08-04T09:47:35.077Z</time>
      </trkpt>
      <trkpt lat="46.97558" lon="8.77838">
        <ele>655</ele>
        <time>2021-08-04T09:47:36.076Z</time>
      </trkpt>
      <trkpt lat="46.97557" lon="8.77837">
        <ele>655</ele>
        <time>2021-08-04T09:47:37.077Z</time>
      </trkpt>
      <trkpt lat="46.97557" lon="8.77835">
        <ele>655</ele>
        <time>2021-08-04T09:47:38.077Z</time>
      </trkpt>
      <trkpt lat="46.97556" lon="8.77834">
        <ele>655</ele>
        <time>2021-08-04T09:47:39.077Z</time>
      </trkpt>
      <trkpt lat="46.97556" lon="8.77833">
        <ele>655</ele>
        <time>2021-08-04T09:47:40.077Z</time>
      </trkpt>
      <trkpt lat="46.97555" lon="8.77832">
        <ele>655</ele>
        <time>2021-08-04T09:47:41.076Z</time>
      </trkpt>
      <trkpt lat="46.97554" lon="8.77831">
        <ele>655</ele>
        <time>2021-08-04T09:47:42.076Z</time>
      </trkpt>
      <trkpt lat="46.97553" lon="8.77829">
        <ele>655</ele>
        <time>2021-08-04T09:47:43.077Z</time>
      </trkpt>
      <trkpt lat="46.97552" lon="8.77828">
        <ele>655</ele>
        <time>2021-08-04T09:47:44.077Z</time>
      </trkpt>
      <trkpt lat="46.97551" lon="8.77826">
        <ele>655</ele>
        <time>2021-08-04T09:47:45.076Z</time>
      </trkpt>
      <trkpt lat="46.97551" lon="8.77824">
        <ele>655</ele>
        <time>2021-08-04T09:47:46.077Z</time>
      </trkpt>
      <trkpt lat="46.9755" lon="8.77822">
        <ele>654</ele>
        <time>2021-08-04T09:47:47.077Z</time>
      </trkpt>
      <trkpt lat="46.97549" lon="8.77821">
        <ele>654</ele>
        <time>2021-08-04T09:47:48.076Z</time>
      </trkpt>
      <trkpt lat="46.97549" lon="8.77819">
        <ele>654</ele>
        <time>2021-08-04T09:47:49.077Z</time>
      </trkpt>
      <trkpt lat="46.97548" lon="8.77816">
        <ele>654</ele>
        <time>2021-08-04T09:47:50.077Z</time>
      </trkpt>
      <trkpt lat="46.97547" lon="8.77815">
        <ele>654</ele>
        <time>2021-08-04T09:47:51.076Z</time>
      </trkpt>
      <trkpt lat="46.97546" lon="8.77814">
        <ele>654</ele>
        <time>2021-08-04T09:47:52.077Z</time>
      </trkpt>
      <trkpt lat="46.97545" lon="8.77813">
        <ele>654</ele>
        <time>2021-08-04T09:47:53.076Z</time>
      </trkpt>
      <trkpt lat="46.97544" lon="8.77811">
        <ele>655</ele>
        <time>2021-08-04T09:47:54.076Z</time>
      </trkpt>
      <trkpt lat="46.97544" lon="8.77809">
        <ele>655</ele>
        <time>2021-08-04T09:47:55.076Z</time>
      </trkpt>
      <trkpt lat="46.97543" lon="8.77808">
        <ele>656</ele>
        <time>2021-08-04T09:47:56.077Z</time>
      </trkpt>
      <trkpt lat="46.97543" lon="8.77806">
        <ele>656</ele>
        <time>2021-08-04T09:47:57.077Z</time>
      </trkpt>
      <trkpt lat="46.97543" lon="8.77804">
        <ele>655</ele>
        <time>2021-08-04T09:47:58.077Z</time>
      </trkpt>
      <trkpt lat="46.97542" lon="8.77803">
        <ele>655</ele>
        <time>2021-08-04T09:47:59.076Z</time>
      </trkpt>
      <trkpt lat="46.97541" lon="8.77801">
        <ele>654</ele>
        <time>2021-08-04T09:48:00.076Z</time>
      </trkpt>
      <trkpt lat="46.9754" lon="8.778">
        <ele>654</ele>
        <time>2021-08-04T09:48:01.077Z</time>
      </trkpt>
      <trkpt lat="46.97539" lon="8.77799">
        <ele>653</ele>
        <time>2021-08-04T09:48:02.077Z</time>
      </trkpt>
      <trkpt lat="46.97539" lon="8.77797">
        <ele>653</ele>
        <time>2021-08-04T09:48:03.077Z</time>
      </trkpt>
      <trkpt lat="46.97538" lon="8.77796">
        <ele>653</ele>
        <time>2021-08-04T09:48:04.077Z</time>
      </trkpt>
      <trkpt lat="46.97537" lon="8.77795">
        <ele>653</ele>
        <time>2021-08-04T09:48:05.077Z</time>
      </trkpt>
      <trkpt lat="46.97536" lon="8.77794">
        <ele>653</ele>
        <time>2021-08-04T09:48:06.077Z</time>
      </trkpt>
      <trkpt lat="46.97536" lon="8.77792">
        <ele>653</ele>
        <time>2021-08-04T09:48:07.076Z</time>
      </trkpt>
      <trkpt lat="46.97535" lon="8.7779">
        <ele>653</ele>
        <time>2021-08-04T09:48:08.077Z</time>
      </trkpt>
      <trkpt lat="46.97534" lon="8.77789">
        <ele>653</ele>
        <time>2021-08-04T09:48:09.077Z</time>
      </trkpt>
      <trkpt lat="46.97533" lon="8.77787">
        <ele>653</ele>
        <time>2021-08-04T09:48:10.077Z</time>
      </trkpt>
      <trkpt lat="46.97532" lon="8.77786">
        <ele>653</ele>
        <time>2021-08-04T09:48:11.077Z</time>
      </trkpt>
      <trkpt lat="46.97531" lon="8.77784">
        <ele>653</ele>
        <time>2021-08-04T09:48:12.076Z</time>
      </trkpt>
      <trkpt lat="46.9753" lon="8.77783">
        <ele>653</ele>
        <time>2021-08-04T09:48:13.077Z</time>
      </trkpt>
      <trkpt lat="46.97529" lon="8.77781">
        <ele>653</ele>
        <time>2021-08-04T09:48:14.077Z</time>
      </trkpt>
      <trkpt lat="46.97528" lon="8.77779">
        <ele>653</ele>
        <time>2021-08-04T09:48:15.076Z</time>
      </trkpt>
      <trkpt lat="46.97528" lon="8.77778">
        <ele>653</ele>
        <time>2021-08-04T09:48:16.076Z</time>
      </trkpt>
      <trkpt lat="46.97527" lon="8.77776">
        <ele>653</ele>
        <time>2021-08-04T09:48:17.077Z</time>
      </trkpt>
      <trkpt lat="46.97526" lon="8.77775">
        <ele>653</ele>
        <time>2021-08-04T09:48:18.077Z</time>
      </trkpt>
      <trkpt lat="46.97526" lon="8.77774">
        <ele>653</ele>
        <time>2021-08-04T09:48:19.077Z</time>
      </trkpt>
      <trkpt lat="46.97525" lon="8.77773">
        <ele>653</ele>
        <time>2021-08-04T09:48:20.077Z</time>
      </trkpt>
      <trkpt lat="46.97524" lon="8.77772">
        <ele>653</ele>
        <time>2021-08-04T09:48:21.077Z</time>
      </trkpt>
      <trkpt lat="46.97523" lon="8.77771">
        <ele>654</ele>
        <time>2021-08-04T09:48:22.076Z</time>
      </trkpt>
      <trkpt lat="46.97522" lon="8.7777">
        <ele>654</ele>
        <time>2021-08-04T09:48:23.076Z</time>
      </trkpt>
      <trkpt lat="46.97521" lon="8.77768">
        <ele>654</ele>
        <time>2021-08-04T09:48:24.077Z</time>
      </trkpt>
      <trkpt lat="46.9752" lon="8.77767">
        <ele>654</ele>
        <time>2021-08-04T09:48:25.077Z</time>
      </trkpt>
      <trkpt lat="46.97519" lon="8.77766">
        <ele>654</ele>
        <time>2021-08-04T09:48:26.076Z</time>
      </trkpt>
      <trkpt lat="46.97518" lon="8.77765">
        <ele>654</ele>
        <time>2021-08-04T09:48:27.077Z</time>
      </trkpt>
      <trkpt lat="46.97517" lon="8.77764">
        <ele>655</ele>
        <time>2021-08-04T09:48:28.077Z</time>
      </trkpt>
      <trkpt lat="46.97517" lon="8.77763">
        <ele>655</ele>
        <time>2021-08-04T09:48:29.077Z</time>
      </trkpt>
      <trkpt lat="46.97516" lon="8.77762">
        <ele>656</ele>
        <time>2021-08-04T09:48:30.077Z</time>
      </trkpt>
      <trkpt lat="46.97515" lon="8.77761">
        <ele>656</ele>
        <time>2021-08-04T09:48:31.077Z</time>
      </trkpt>
      <trkpt lat="46.97514" lon="8.77759">
        <ele>657</ele>
        <time>2021-08-04T09:48:32.077Z</time>
      </trkpt>
      <trkpt lat="46.97513" lon="8.77758">
        <ele>657</ele>
        <time>2021-08-04T09:48:33.076Z</time>
      </trkpt>
      <trkpt lat="46.97513" lon="8.77757">
        <ele>658</ele>
        <time>2021-08-04T09:48:34.077Z</time>
      </trkpt>
      <trkpt lat="46.97512" lon="8.77756">
        <ele>658</ele>
        <time>2021-08-04T09:48:35.077Z</time>
      </trkpt>
      <trkpt lat="46.97511" lon="8.77755">
        <ele>658</ele>
        <time>2021-08-04T09:48:36.077Z</time>
      </trkpt>
      <trkpt lat="46.9751" lon="8.77754">
        <ele>658</ele>
        <time>2021-08-04T09:48:37.077Z</time>
      </trkpt>
      <trkpt lat="46.97509" lon="8.77754">
        <ele>658</ele>
        <time>2021-08-04T09:48:38.077Z</time>
      </trkpt>
      <trkpt lat="46.97508" lon="8.77753">
        <ele>658</ele>
        <time>2021-08-04T09:48:39.076Z</time>
      </trkpt>
      <trkpt lat="46.97508" lon="8.77752">
        <ele>658</ele>
        <time>2021-08-04T09:48:40.077Z</time>
      </trkpt>
      <trkpt lat="46.97507" lon="8.7775">
        <ele>658</ele>
        <time>2021-08-04T09:48:41.077Z</time>
      </trkpt>
      <trkpt lat="46.97507" lon="8.77749">
        <ele>658</ele>
        <time>2021-08-04T09:48:42.077Z</time>
      </trkpt>
      <trkpt lat="46.97506" lon="8.77748">
        <ele>657</ele>
        <time>2021-08-04T09:48:43.077Z</time>
      </trkpt>
      <trkpt lat="46.97505" lon="8.77747">
        <ele>657</ele>
        <time>2021-08-04T09:48:44.077Z</time>
      </trkpt>
      <trkpt lat="46.97505" lon="8.77746">
        <ele>657</ele>
        <time>2021-08-04T09:48:45.077Z</time>
      </trkpt>
      <trkpt lat="46.97504" lon="8.77744">
        <ele>656</ele>
        <time>2021-08-04T09:48:46.077Z</time>
      </trkpt>
      <trkpt lat="46.97504" lon="8.77743">
        <ele>656</ele>
        <time>2021-08-04T09:48:47.076Z</time>
      </trkpt>
      <trkpt lat="46.97503" lon="8.77742">
        <ele>656</ele>
        <time>2021-08-04T09:48:48.076Z</time>
      </trkpt>
      <trkpt lat="46.97503" lon="8.7774">
        <ele>656</ele>
        <time>2021-08-04T09:48:49.077Z</time>
      </trkpt>
      <trkpt lat="46.97503" lon="8.77739">
        <ele>656</ele>
        <time>2021-08-04T09:48:50.076Z</time>
      </trkpt>
      <trkpt lat="46.97502" lon="8.77737">
        <ele>655</ele>
        <time>2021-08-04T09:48:51.077Z</time>
      </trkpt>
      <trkpt lat="46.97502" lon="8.77736">
        <ele>654</ele>
        <time>2021-08-04T09:48:52.076Z</time>
      </trkpt>
      <trkpt lat="46.97501" lon="8.77735">
        <ele>653</ele>
        <time>2021-08-04T09:48:53.077Z</time>
      </trkpt>
      <trkpt lat="46.975" lon="8.77733">
        <ele>653</ele>
        <time>2021-08-04T09:48:54.076Z</time>
      </trkpt>
      <trkpt lat="46.97499" lon="8.77731">
        <ele>652</ele>
        <time>2021-08-04T09:48:55.077Z</time>
      </trkpt>
      <trkpt lat="46.97499" lon="8.7773">
        <ele>651</ele>
        <time>2021-08-04T09:48:56.077Z</time>
      </trkpt>
      <trkpt lat="46.97498" lon="8.77728">
        <ele>651</ele>
        <time>2021-08-04T09:48:57.076Z</time>
      </trkpt>
      <trkpt lat="46.97497" lon="8.77727">
        <ele>651</ele>
        <time>2021-08-04T09:48:58.077Z</time>
      </trkpt>
      <trkpt lat="46.97496" lon="8.77725">
        <ele>652</ele>
        <time>2021-08-04T09:48:59.077Z</time>
      </trkpt>
      <trkpt lat="46.97495" lon="8.77724">
        <ele>652</ele>
        <time>2021-08-04T09:49:00.077Z</time>
      </trkpt>
      <trkpt lat="46.97495" lon="8.77723">
        <ele>652</ele>
        <time>2021-08-04T09:49:01.077Z</time>
      </trkpt>
      <trkpt lat="46.97494" lon="8.77722">
        <ele>651</ele>
        <time>2021-08-04T09:49:02.077Z</time>
      </trkpt>
      <trkpt lat="46.97493" lon="8.7772">
        <ele>651</ele>
        <time>2021-08-04T09:49:03.077Z</time>
      </trkpt>
      <trkpt lat="46.97492" lon="8.77719">
        <ele>651</ele>
        <time>2021-08-04T09:49:04.077Z</time>
      </trkpt>
      <trkpt lat="46.97491" lon="8.77717">
        <ele>651</ele>
        <time>2021-08-04T09:49:05.077Z</time>
      </trkpt>
      <trkpt lat="46.9749" lon="8.77716">
        <ele>651</ele>
        <time>2021-08-04T09:49:06.077Z</time>
      </trkpt>
      <trkpt lat="46.97489" lon="8.77715">
        <ele>651</ele>
        <time>2021-08-04T09:49:07.077Z</time>
      </trkpt>
      <trkpt lat="46.97488" lon="8.77714">
        <ele>651</ele>
        <time>2021-08-04T09:49:08.076Z</time>
      </trkpt>
      <trkpt lat="46.97487" lon="8.77713">
        <ele>652</ele>
        <time>2021-08-04T09:49:09.077Z</time>
      </trkpt>
      <trkpt lat="46.97487" lon="8.77712">
        <ele>652</ele>
        <time>2021-08-04T09:49:10.077Z</time>
      </trkpt>
      <trkpt lat="46.97486" lon="8.77711">
        <ele>652</ele>
        <time>2021-08-04T09:49:11.076Z</time>
      </trkpt>
      <trkpt lat="46.97485" lon="8.77711">
        <ele>652</ele>
        <time>2021-08-04T09:49:12.076Z</time>
      </trkpt>
      <trkpt lat="46.97484" lon="8.7771">
        <ele>652</ele>
        <time>2021-08-04T09:49:13.076Z</time>
      </trkpt>
      <trkpt lat="46.97483" lon="8.77709">
        <ele>653</ele>
        <time>2021-08-04T09:49:14.076Z</time>
      </trkpt>
      <trkpt lat="46.97482" lon="8.77707">
        <ele>653</ele>
        <time>2021-08-04T09:49:15.076Z</time>
      </trkpt>
      <trkpt lat="46.97482" lon="8.77706">
        <ele>653</ele>
        <time>2021-08-04T09:49:16.077Z</time>
      </trkpt>
      <trkpt lat="46.97481" lon="8.77705">
        <ele>653</ele>
        <time>2021-08-04T09:49:17.077Z</time>
      </trkpt>
      <trkpt lat="46.97479" lon="8.77705">
        <ele>653</ele>
        <time>2021-08-04T09:49:18.076Z</time>
      </trkpt>
      <trkpt lat="46.97478" lon="8.77704">
        <ele>653</ele>
        <time>2021-08-04T09:49:19.076Z</time>
      </trkpt>
      <trkpt lat="46.97477" lon="8.77704">
        <ele>653</ele>
        <time>2021-08-04T09:49:20.076Z</time>
      </trkpt>
      <trkpt lat="46.97476" lon="8.77704">
        <ele>652</ele>
        <time>2021-08-04T09:49:21.076Z</time>
      </trkpt>
      <trkpt lat="46.97475" lon="8.77704">
        <ele>651</ele>
        <time>2021-08-04T09:49:22.077Z</time>
      </trkpt>
      <trkpt lat="46.97474" lon="8.77704">
        <ele>651</ele>
        <time>2021-08-04T09:49:23.077Z</time>
      </trkpt>
      <trkpt lat="46.97473" lon="8.77704">
        <ele>650</ele>
        <time>2021-08-04T09:49:24.077Z</time>
      </trkpt>
      <trkpt lat="46.97472" lon="8.77704">
        <ele>649</ele>
        <time>2021-08-04T09:49:25.076Z</time>
      </trkpt>
      <trkpt lat="46.9747" lon="8.77703">
        <ele>648</ele>
        <time>2021-08-04T09:49:26.077Z</time>
      </trkpt>
      <trkpt lat="46.97469" lon="8.77702">
        <ele>648</ele>
        <time>2021-08-04T09:49:27.077Z</time>
      </trkpt>
      <trkpt lat="46.97468" lon="8.77702">
        <ele>647</ele>
        <time>2021-08-04T09:49:28.077Z</time>
      </trkpt>
      <trkpt lat="46.97467" lon="8.77702">
        <ele>647</ele>
        <time>2021-08-04T09:49:29.077Z</time>
      </trkpt>
      <trkpt lat="46.97466" lon="8.77702">
        <ele>647</ele>
        <time>2021-08-04T09:49:30.076Z</time>
      </trkpt>
      <trkpt lat="46.97465" lon="8.77701">
        <ele>647</ele>
        <time>2021-08-04T09:49:31.077Z</time>
      </trkpt>
      <trkpt lat="46.97464" lon="8.77701">
        <ele>647</ele>
        <time>2021-08-04T09:49:32.077Z</time>
      </trkpt>
      <trkpt lat="46.97464" lon="8.77701">
        <ele>647</ele>
        <time>2021-08-04T09:49:33.077Z</time>
      </trkpt>
      <trkpt lat="46.97463" lon="8.777">
        <ele>647</ele>
        <time>2021-08-04T09:49:34.077Z</time>
      </trkpt>
      <trkpt lat="46.97461" lon="8.777">
        <ele>647</ele>
        <time>2021-08-04T09:49:35.077Z</time>
      </trkpt>
      <trkpt lat="46.9746" lon="8.777">
        <ele>647</ele>
        <time>2021-08-04T09:49:36.077Z</time>
      </trkpt>
      <trkpt lat="46.97459" lon="8.77701">
        <ele>647</ele>
        <time>2021-08-04T09:49:37.077Z</time>
      </trkpt>
      <trkpt lat="46.97457" lon="8.77702">
        <ele>646</ele>
        <time>2021-08-04T09:49:38.077Z</time>
      </trkpt>
      <trkpt lat="46.97456" lon="8.77702">
        <ele>646</ele>
        <time>2021-08-04T09:49:39.077Z</time>
      </trkpt>
      <trkpt lat="46.97454" lon="8.77701">
        <ele>646</ele>
        <time>2021-08-04T09:49:40.077Z</time>
      </trkpt>
      <trkpt lat="46.97453" lon="8.777">
        <ele>646</ele>
        <time>2021-08-04T09:49:41.077Z</time>
      </trkpt>
      <trkpt lat="46.97452" lon="8.77698">
        <ele>645</ele>
        <time>2021-08-04T09:49:42.077Z</time>
      </trkpt>
      <trkpt lat="46.9745" lon="8.77698">
        <ele>645</ele>
        <time>2021-08-04T09:49:43.077Z</time>
      </trkpt>
      <trkpt lat="46.97449" lon="8.77697">
        <ele>645</ele>
        <time>2021-08-04T09:49:44.076Z</time>
      </trkpt>
      <trkpt lat="46.97448" lon="8.77696">
        <ele>644</ele>
        <time>2021-08-04T09:49:45.076Z</time>
      </trkpt>
      <trkpt lat="46.97447" lon="8.77694">
        <ele>644</ele>
        <time>2021-08-04T09:49:46.076Z</time>
      </trkpt>
      <trkpt lat="46.97446" lon="8.77693">
        <ele>643</ele>
        <time>2021-08-04T09:49:47.076Z</time>
      </trkpt>
      <trkpt lat="46.97444" lon="8.77692">
        <ele>643</ele>
        <time>2021-08-04T09:49:48.076Z</time>
      </trkpt>
      <trkpt lat="46.97443" lon="8.77691">
        <ele>642</ele>
        <time>2021-08-04T09:49:49.077Z</time>
      </trkpt>
      <trkpt lat="46.97442" lon="8.7769">
        <ele>642</ele>
        <time>2021-08-04T09:49:50.077Z</time>
      </trkpt>
      <trkpt lat="46.97441" lon="8.77689">
        <ele>641</ele>
        <time>2021-08-04T09:49:51.077Z</time>
      </trkpt>
      <trkpt lat="46.97441" lon="8.77687">
        <ele>641</ele>
        <time>2021-08-04T09:49:52.077Z</time>
      </trkpt>
      <trkpt lat="46.9744" lon="8.77686">
        <ele>640</ele>
        <time>2021-08-04T09:49:53.077Z</time>
      </trkpt>
      <trkpt lat="46.97439" lon="8.77686">
        <ele>639</ele>
        <time>2021-08-04T09:49:54.076Z</time>
      </trkpt>
      <trkpt lat="46.97438" lon="8.77685">
        <ele>638</ele>
        <time>2021-08-04T09:49:55.076Z</time>
      </trkpt>
      <trkpt lat="46.97437" lon="8.77683">
        <ele>638</ele>
        <time>2021-08-04T09:49:56.077Z</time>
      </trkpt>
      <trkpt lat="46.97435" lon="8.77682">
        <ele>637</ele>
        <time>2021-08-04T09:49:57.076Z</time>
      </trkpt>
      <trkpt lat="46.97434" lon="8.7768">
        <ele>637</ele>
        <time>2021-08-04T09:49:58.076Z</time>
      </trkpt>
      <trkpt lat="46.97432" lon="8.77679">
        <ele>637</ele>
        <time>2021-08-04T09:49:59.076Z</time>
      </trkpt>
      <trkpt lat="46.97431" lon="8.77678">
        <ele>636</ele>
        <time>2021-08-04T09:50:00.077Z</time>
      </trkpt>
      <trkpt lat="46.9743" lon="8.77677">
        <ele>636</ele>
        <time>2021-08-04T09:50:01.077Z</time>
      </trkpt>
      <trkpt lat="46.97429" lon="8.77676">
        <ele>635</ele>
        <time>2021-08-04T09:50:02.076Z</time>
      </trkpt>
      <trkpt lat="46.97428" lon="8.77675">
        <ele>635</ele>
        <time>2021-08-04T09:50:03.077Z</time>
      </trkpt>
      <trkpt lat="46.97427" lon="8.77674">
        <ele>634</ele>
        <time>2021-08-04T09:50:04.077Z</time>
      </trkpt>
      <trkpt lat="46.97426" lon="8.77673">
        <ele>634</ele>
        <time>2021-08-04T09:50:05.077Z</time>
      </trkpt>
      <trkpt lat="46.97424" lon="8.77672">
        <ele>634</ele>
        <time>2021-08-04T09:50:06.076Z</time>
      </trkpt>
      <trkpt lat="46.97423" lon="8.7767">
        <ele>635</ele>
        <time>2021-08-04T09:50:07.077Z</time>
      </trkpt>
      <trkpt lat="46.97422" lon="8.77668">
        <ele>635</ele>
        <time>2021-08-04T09:50:08.077Z</time>
      </trkpt>
      <trkpt lat="46.97421" lon="8.77666">
        <ele>635</ele>
        <time>2021-08-04T09:50:09.077Z</time>
      </trkpt>
      <trkpt lat="46.97421" lon="8.77665">
        <ele>636</ele>
        <time>2021-08-04T09:50:10.077Z</time>
      </trkpt>
      <trkpt lat="46.9742" lon="8.77663">
        <ele>636</ele>
        <time>2021-08-04T09:50:11.076Z</time>
      </trkpt>
      <trkpt lat="46.9742" lon="8.77662">
        <ele>635</ele>
        <time>2021-08-04T09:50:12.077Z</time>
      </trkpt>
      <trkpt lat="46.97419" lon="8.7766">
        <ele>635</ele>
        <time>2021-08-04T09:50:13.076Z</time>
      </trkpt>
      <trkpt lat="46.97419" lon="8.77659">
        <ele>635</ele>
        <time>2021-08-04T09:50:14.077Z</time>
      </trkpt>
      <trkpt lat="46.97418" lon="8.77657">
        <ele>634</ele>
        <time>2021-08-04T09:50:15.076Z</time>
      </trkpt>
      <trkpt lat="46.97417" lon="8.77656">
        <ele>634</ele>
        <time>2021-08-04T09:50:16.077Z</time>
      </trkpt>
      <trkpt lat="46.97417" lon="8.77654">
        <ele>633</ele>
        <time>2021-08-04T09:50:17.077Z</time>
      </trkpt>
      <trkpt lat="46.97417" lon="8.77653">
        <ele>632</ele>
        <time>2021-08-04T09:50:18.077Z</time>
      </trkpt>
      <trkpt lat="46.97416" lon="8.77651">
        <ele>632</ele>
        <time>2021-08-04T09:50:19.076Z</time>
      </trkpt>
      <trkpt lat="46.97416" lon="8.77649">
        <ele>633</ele>
        <time>2021-08-04T09:50:20.077Z</time>
      </trkpt>
      <trkpt lat="46.97415" lon="8.77647">
        <ele>633</ele>
        <time>2021-08-04T09:50:21.077Z</time>
      </trkpt>
      <trkpt lat="46.97414" lon="8.77645">
        <ele>633</ele>
        <time>2021-08-04T09:50:22.077Z</time>
      </trkpt>
      <trkpt lat="46.97414" lon="8.77643">
        <ele>633</ele>
        <time>2021-08-04T09:50:23.077Z</time>
      </trkpt>
      <trkpt lat="46.97414" lon="8.77641">
        <ele>633</ele>
        <time>2021-08-04T09:50:24.076Z</time>
      </trkpt>
      <trkpt lat="46.97413" lon="8.77639">
        <ele>633</ele>
        <time>2021-08-04T09:50:25.077Z</time>
      </trkpt>
      <trkpt lat="46.97413" lon="8.77637">
        <ele>633</ele>
        <time>2021-08-04T09:50:26.076Z</time>
      </trkpt>
      <trkpt lat="46.97413" lon="8.77635">
        <ele>633</ele>
        <time>2021-08-04T09:50:27.077Z</time>
      </trkpt>
      <trkpt lat="46.97412" lon="8.77633">
        <ele>633</ele>
        <time>2021-08-04T09:50:28.077Z</time>
      </trkpt>
      <trkpt lat="46.97412" lon="8.77632">
        <ele>633</ele>
        <time>2021-08-04T09:50:59.175Z</time>
      </trkpt>
      <trkpt lat="46.97412" lon="8.7763">
        <ele>633</ele>
        <time>2021-08-04T09:51:00.175Z</time>
      </trkpt>
      <trkpt lat="46.97411" lon="8.77628">
        <ele>632</ele>
        <time>2021-08-04T09:51:01.174Z</time>
      </trkpt>
      <trkpt lat="46.97411" lon="8.77626">
        <ele>632</ele>
        <time>2021-08-04T09:51:02.175Z</time>
      </trkpt>
      <trkpt lat="46.97411" lon="8.77624">
        <ele>632</ele>
        <time>2021-08-04T09:51:03.174Z</time>
      </trkpt>
      <trkpt lat="46.97411" lon="8.77623">
        <ele>631</ele>
        <time>2021-08-04T09:51:04.174Z</time>
      </trkpt>
      <trkpt lat="46.97411" lon="8.7762">
        <ele>631</ele>
        <time>2021-08-04T09:51:05.175Z</time>
      </trkpt>
      <trkpt lat="46.97411" lon="8.77619">
        <ele>631</ele>
        <time>2021-08-04T09:51:06.174Z</time>
      </trkpt>
      <trkpt lat="46.97411" lon="8.77617">
        <ele>630</ele>
        <time>2021-08-04T09:51:07.175Z</time>
      </trkpt>
      <trkpt lat="46.97411" lon="8.77616">
        <ele>630</ele>
        <time>2021-08-04T09:51:08.174Z</time>
      </trkpt>
      <trkpt lat="46.97411" lon="8.77615">
        <ele>630</ele>
        <time>2021-08-04T09:51:09.174Z</time>
      </trkpt>
      <trkpt lat="46.97411" lon="8.77614">
        <ele>630</ele>
        <time>2021-08-04T09:51:10.175Z</time>
      </trkpt>
      <trkpt lat="46.97411" lon="8.77613">
        <ele>630</ele>
        <time>2021-08-04T09:51:11.174Z</time>
      </trkpt>
      <trkpt lat="46.97412" lon="8.77611">
        <ele>629</ele>
        <time>2021-08-04T09:51:12.174Z</time>
      </trkpt>
      <trkpt lat="46.97412" lon="8.77611">
        <ele>629</ele>
        <time>2021-08-04T09:51:13.174Z</time>
      </trkpt>
      <trkpt lat="46.97412" lon="8.77609">
        <ele>629</ele>
        <time>2021-08-04T09:51:14.174Z</time>
      </trkpt>
      <trkpt lat="46.97412" lon="8.77607">
        <ele>628</ele>
        <time>2021-08-04T09:51:15.174Z</time>
      </trkpt>
      <trkpt lat="46.97413" lon="8.77606">
        <ele>628</ele>
        <time>2021-08-04T09:51:16.174Z</time>
      </trkpt>
      <trkpt lat="46.97413" lon="8.77604">
        <ele>628</ele>
        <time>2021-08-04T09:51:17.174Z</time>
      </trkpt>
      <trkpt lat="46.97414" lon="8.77602">
        <ele>628</ele>
        <time>2021-08-04T09:51:28.286Z</time>
      </trkpt>
      <trkpt lat="46.97415" lon="8.776">
        <ele>628</ele>
        <time>2021-08-04T09:51:29.286Z</time>
      </trkpt>
      <trkpt lat="46.97415" lon="8.77599">
        <ele>628</ele>
        <time>2021-08-04T09:51:30.285Z</time>
      </trkpt>
      <trkpt lat="46.97416" lon="8.77598">
        <ele>627</ele>
        <time>2021-08-04T09:51:49.056Z</time>
      </trkpt>
      <trkpt lat="46.97417" lon="8.77596">
        <ele>627</ele>
        <time>2021-08-04T09:51:50.056Z</time>
      </trkpt>
      <trkpt lat="46.97417" lon="8.77594">
        <ele>627</ele>
        <time>2021-08-04T09:51:51.056Z</time>
      </trkpt>
      <trkpt lat="46.97417" lon="8.77592">
        <ele>626</ele>
        <time>2021-08-04T09:51:52.056Z</time>
      </trkpt>
      <trkpt lat="46.97418" lon="8.7759">
        <ele>626</ele>
        <time>2021-08-04T09:51:53.056Z</time>
      </trkpt>
      <trkpt lat="46.97418" lon="8.77589">
        <ele>625</ele>
        <time>2021-08-04T09:51:54.056Z</time>
      </trkpt>
      <trkpt lat="46.97418" lon="8.77587">
        <ele>625</ele>
        <time>2021-08-04T09:51:57.009Z</time>
      </trkpt>
      <trkpt lat="46.97418" lon="8.77585">
        <ele>624</ele>
        <time>2021-08-04T09:51:58.010Z</time>
      </trkpt>
      <trkpt lat="46.97418" lon="8.77584">
        <ele>624</ele>
        <time>2021-08-04T09:51:59.009Z</time>
      </trkpt>
      <trkpt lat="46.97418" lon="8.77582">
        <ele>624</ele>
        <time>2021-08-04T09:52:00.009Z</time>
      </trkpt>
      <trkpt lat="46.97418" lon="8.77581">
        <ele>624</ele>
        <time>2021-08-04T09:52:01.009Z</time>
      </trkpt>
      <trkpt lat="46.97418" lon="8.77579">
        <ele>624</ele>
        <time>2021-08-04T09:52:02.009Z</time>
      </trkpt>
      <trkpt lat="46.97418" lon="8.77577">
        <ele>624</ele>
        <time>2021-08-04T09:52:03.010Z</time>
      </trkpt>
      <trkpt lat="46.97418" lon="8.77576">
        <ele>624</ele>
        <time>2021-08-04T09:52:04.009Z</time>
      </trkpt>
      <trkpt lat="46.97418" lon="8.77574">
        <ele>624</ele>
        <time>2021-08-04T09:52:05.009Z</time>
      </trkpt>
      <trkpt lat="46.97418" lon="8.77572">
        <ele>624</ele>
        <time>2021-08-04T09:52:11.060Z</time>
      </trkpt>
      <trkpt lat="46.97418" lon="8.7757">
        <ele>623</ele>
        <time>2021-08-04T09:52:12.060Z</time>
      </trkpt>
      <trkpt lat="46.97419" lon="8.77568">
        <ele>623</ele>
        <time>2021-08-04T09:52:13.060Z</time>
      </trkpt>
      <trkpt lat="46.97419" lon="8.77567">
        <ele>623</ele>
        <time>2021-08-04T09:52:14.060Z</time>
      </trkpt>
      <trkpt lat="46.97419" lon="8.77565">
        <ele>623</ele>
        <time>2021-08-04T09:52:15.061Z</time>
      </trkpt>
      <trkpt lat="46.97418" lon="8.77563">
        <ele>623</ele>
        <time>2021-08-04T09:52:16.061Z</time>
      </trkpt>
      <trkpt lat="46.97418" lon="8.77562">
        <ele>624</ele>
        <time>2021-08-04T09:52:17.061Z</time>
      </trkpt>
      <trkpt lat="46.97418" lon="8.7756">
        <ele>625</ele>
        <time>2021-08-04T09:52:18.061Z</time>
      </trkpt>
      <trkpt lat="46.97418" lon="8.77558">
        <ele>625</ele>
        <time>2021-08-04T09:52:19.061Z</time>
      </trkpt>
      <trkpt lat="46.97417" lon="8.77557">
        <ele>625</ele>
        <time>2021-08-04T09:52:20.060Z</time>
      </trkpt>
      <trkpt lat="46.97417" lon="8.77555">
        <ele>626</ele>
        <time>2021-08-04T09:52:21.061Z</time>
      </trkpt>
      <trkpt lat="46.97417" lon="8.77554">
        <ele>626</ele>
        <time>2021-08-04T09:52:22.060Z</time>
      </trkpt>
      <trkpt lat="46.97416" lon="8.77552">
        <ele>626</ele>
        <time>2021-08-04T09:52:28.167Z</time>
      </trkpt>
      <trkpt lat="46.97416" lon="8.77551">
        <ele>627</ele>
        <time>2021-08-04T09:52:29.167Z</time>
      </trkpt>
      <trkpt lat="46.97415" lon="8.7755">
        <ele>627</ele>
        <time>2021-08-04T09:52:36.059Z</time>
      </trkpt>
      <trkpt lat="46.97415" lon="8.77548">
        <ele>627</ele>
        <time>2021-08-04T09:52:37.059Z</time>
      </trkpt>
      <trkpt lat="46.97414" lon="8.77546">
        <ele>626</ele>
        <time>2021-08-04T09:52:38.060Z</time>
      </trkpt>
      <trkpt lat="46.97414" lon="8.77545">
        <ele>626</ele>
        <time>2021-08-04T09:52:39.059Z</time>
      </trkpt>
      <trkpt lat="46.97413" lon="8.77543">
        <ele>626</ele>
        <time>2021-08-04T09:52:57.143Z</time>
      </trkpt>
      <trkpt lat="46.97413" lon="8.77541">
        <ele>626</ele>
        <time>2021-08-04T09:53:05.043Z</time>
      </trkpt>
      <trkpt lat="46.97412" lon="8.7754">
        <ele>626</ele>
        <time>2021-08-04T09:53:06.042Z</time>
      </trkpt>
      <trkpt lat="46.97412" lon="8.77538">
        <ele>626</ele>
        <time>2021-08-04T09:53:07.042Z</time>
      </trkpt>
      <trkpt lat="46.97411" lon="8.77536">
        <ele>626</ele>
        <time>2021-08-04T09:53:08.043Z</time>
      </trkpt>
      <trkpt lat="46.9741" lon="8.77535">
        <ele>627</ele>
        <time>2021-08-04T09:53:09.042Z</time>
      </trkpt>
      <trkpt lat="46.9741" lon="8.77533">
        <ele>627</ele>
        <time>2021-08-04T09:53:10.043Z</time>
      </trkpt>
      <trkpt lat="46.97409" lon="8.77531">
        <ele>627</ele>
        <time>2021-08-04T09:53:11.043Z</time>
      </trkpt>
      <trkpt lat="46.97408" lon="8.77529">
        <ele>628</ele>
        <time>2021-08-04T09:53:12.043Z</time>
      </trkpt>
      <trkpt lat="46.97408" lon="8.77528">
        <ele>628</ele>
        <time>2021-08-04T09:53:13.042Z</time>
      </trkpt>
      <trkpt lat="46.97407" lon="8.77526">
        <ele>628</ele>
        <time>2021-08-04T09:53:14.043Z</time>
      </trkpt>
      <trkpt lat="46.97407" lon="8.77525">
        <ele>628</ele>
        <time>2021-08-04T09:53:17.124Z</time>
      </trkpt>
      <trkpt lat="46.97406" lon="8.77523">
        <ele>628</ele>
        <time>2021-08-04T09:53:21.055Z</time>
      </trkpt>
      <trkpt lat="46.97405" lon="8.77521">
        <ele>628</ele>
        <time>2021-08-04T09:53:22.055Z</time>
      </trkpt>
      <trkpt lat="46.97405" lon="8.77519">
        <ele>628</ele>
        <time>2021-08-04T09:53:23.055Z</time>
      </trkpt>
      <trkpt lat="46.97404" lon="8.77518">
        <ele>627</ele>
        <time>2021-08-04T09:53:24.055Z</time>
      </trkpt>
      <trkpt lat="46.97403" lon="8.77516">
        <ele>627</ele>
        <time>2021-08-04T09:53:25.055Z</time>
      </trkpt>
      <trkpt lat="46.97403" lon="8.77514">
        <ele>627</ele>
        <time>2021-08-04T09:53:26.054Z</time>
      </trkpt>
      <trkpt lat="46.97402" lon="8.77512">
        <ele>627</ele>
        <time>2021-08-04T09:53:27.054Z</time>
      </trkpt>
      <trkpt lat="46.97402" lon="8.7751">
        <ele>628</ele>
        <time>2021-08-04T09:53:28.054Z</time>
      </trkpt>
      <trkpt lat="46.97401" lon="8.77509">
        <ele>628</ele>
        <time>2021-08-04T09:53:29.054Z</time>
      </trkpt>
      <trkpt lat="46.974" lon="8.77507">
        <ele>628</ele>
        <time>2021-08-04T09:53:30.055Z</time>
      </trkpt>
      <trkpt lat="46.974" lon="8.77506">
        <ele>628</ele>
        <time>2021-08-04T09:53:31.055Z</time>
      </trkpt>
      <trkpt lat="46.974" lon="8.77504">
        <ele>628</ele>
        <time>2021-08-04T09:53:32.055Z</time>
      </trkpt>
      <trkpt lat="46.97399" lon="8.77503">
        <ele>628</ele>
        <time>2021-08-04T09:53:33.055Z</time>
      </trkpt>
      <trkpt lat="46.97398" lon="8.77501">
        <ele>628</ele>
        <time>2021-08-04T09:53:34.055Z</time>
      </trkpt>
      <trkpt lat="46.97398" lon="8.77499">
        <ele>628</ele>
        <time>2021-08-04T09:53:35.054Z</time>
      </trkpt>
      <trkpt lat="46.97397" lon="8.77498">
        <ele>628</ele>
        <time>2021-08-04T09:53:36.055Z</time>
      </trkpt>
      <trkpt lat="46.97397" lon="8.77495">
        <ele>629</ele>
        <time>2021-08-04T09:53:37.055Z</time>
      </trkpt>
      <trkpt lat="46.97396" lon="8.77493">
        <ele>629</ele>
        <time>2021-08-04T09:53:38.055Z</time>
      </trkpt>
      <trkpt lat="46.97395" lon="8.77491">
        <ele>630</ele>
        <time>2021-08-04T09:53:39.054Z</time>
      </trkpt>
      <trkpt lat="46.97395" lon="8.7749">
        <ele>630</ele>
        <time>2021-08-04T09:53:40.054Z</time>
      </trkpt>
      <trkpt lat="46.97395" lon="8.77488">
        <ele>631</ele>
        <time>2021-08-04T09:53:41.055Z</time>
      </trkpt>
      <trkpt lat="46.97394" lon="8.77487">
        <ele>631</ele>
        <time>2021-08-04T09:53:42.054Z</time>
      </trkpt>
      <trkpt lat="46.97394" lon="8.77486">
        <ele>631</ele>
        <time>2021-08-04T09:53:43.054Z</time>
      </trkpt>
      <trkpt lat="46.97394" lon="8.77485">
        <ele>631</ele>
        <time>2021-08-04T09:53:44.054Z</time>
      </trkpt>
      <trkpt lat="46.97393" lon="8.77484">
        <ele>631</ele>
        <time>2021-08-04T09:53:45.054Z</time>
      </trkpt>
      <trkpt lat="46.97392" lon="8.77482">
        <ele>631</ele>
        <time>2021-08-04T09:53:46.054Z</time>
      </trkpt>
      <trkpt lat="46.97391" lon="8.7748">
        <ele>631</ele>
        <time>2021-08-04T09:53:47.055Z</time>
      </trkpt>
      <trkpt lat="46.9739" lon="8.77478">
        <ele>630</ele>
        <time>2021-08-04T09:53:48.055Z</time>
      </trkpt>
      <trkpt lat="46.97389" lon="8.77477">
        <ele>629</ele>
        <time>2021-08-04T09:53:49.054Z</time>
      </trkpt>
      <trkpt lat="46.97388" lon="8.77476">
        <ele>629</ele>
        <time>2021-08-04T09:53:50.054Z</time>
      </trkpt>
      <trkpt lat="46.97386" lon="8.77475">
        <ele>628</ele>
        <time>2021-08-04T09:53:51.055Z</time>
      </trkpt>
      <trkpt lat="46.97385" lon="8.77474">
        <ele>628</ele>
        <time>2021-08-04T09:53:52.055Z</time>
      </trkpt>
      <trkpt lat="46.97384" lon="8.77472">
        <ele>628</ele>
        <time>2021-08-04T09:53:53.055Z</time>
      </trkpt>
      <trkpt lat="46.97383" lon="8.77471">
        <ele>628</ele>
        <time>2021-08-04T09:53:54.055Z</time>
      </trkpt>
      <trkpt lat="46.97382" lon="8.77469">
        <ele>629</ele>
        <time>2021-08-04T09:53:55.055Z</time>
      </trkpt>
      <trkpt lat="46.97381" lon="8.77468">
        <ele>629</ele>
        <time>2021-08-04T09:53:56.054Z</time>
      </trkpt>
      <trkpt lat="46.97381" lon="8.77467">
        <ele>629</ele>
        <time>2021-08-04T09:53:57.055Z</time>
      </trkpt>
      <trkpt lat="46.9738" lon="8.77466">
        <ele>629</ele>
        <time>2021-08-04T09:53:58.055Z</time>
      </trkpt>
      <trkpt lat="46.97379" lon="8.77465">
        <ele>628</ele>
        <time>2021-08-04T09:53:59.055Z</time>
      </trkpt>
      <trkpt lat="46.97379" lon="8.77464">
        <ele>628</ele>
        <time>2021-08-04T09:54:00.054Z</time>
      </trkpt>
      <trkpt lat="46.97378" lon="8.77462">
        <ele>628</ele>
        <time>2021-08-04T09:54:01.055Z</time>
      </trkpt>
      <trkpt lat="46.97378" lon="8.77461">
        <ele>628</ele>
        <time>2021-08-04T09:54:02.054Z</time>
      </trkpt>
      <trkpt lat="46.97377" lon="8.77459">
        <ele>628</ele>
        <time>2021-08-04T09:54:03.054Z</time>
      </trkpt>
      <trkpt lat="46.97377" lon="8.77458">
        <ele>628</ele>
        <time>2021-08-04T09:54:04.054Z</time>
      </trkpt>
      <trkpt lat="46.97376" lon="8.77457">
        <ele>628</ele>
        <time>2021-08-04T09:54:05.054Z</time>
      </trkpt>
      <trkpt lat="46.97376" lon="8.77455">
        <ele>628</ele>
        <time>2021-08-04T09:54:06.054Z</time>
      </trkpt>
      <trkpt lat="46.97375" lon="8.77453">
        <ele>628</ele>
        <time>2021-08-04T09:54:07.055Z</time>
      </trkpt>
      <trkpt lat="46.97375" lon="8.77451">
        <ele>628</ele>
        <time>2021-08-04T09:54:08.054Z</time>
      </trkpt>
      <trkpt lat="46.97374" lon="8.7745">
        <ele>628</ele>
        <time>2021-08-04T09:54:09.054Z</time>
      </trkpt>
      <trkpt lat="46.97374" lon="8.77448">
        <ele>627</ele>
        <time>2021-08-04T09:54:10.055Z</time>
      </trkpt>
      <trkpt lat="46.97373" lon="8.77447">
        <ele>627</ele>
        <time>2021-08-04T09:54:11.055Z</time>
      </trkpt>
      <trkpt lat="46.97373" lon="8.77445">
        <ele>627</ele>
        <time>2021-08-04T09:54:12.054Z</time>
      </trkpt>
      <trkpt lat="46.97372" lon="8.77443">
        <ele>627</ele>
        <time>2021-08-04T09:54:13.054Z</time>
      </trkpt>
      <trkpt lat="46.97372" lon="8.77441">
        <ele>627</ele>
        <time>2021-08-04T09:54:14.055Z</time>
      </trkpt>
      <trkpt lat="46.97371" lon="8.77439">
        <ele>627</ele>
        <time>2021-08-04T09:54:15.054Z</time>
      </trkpt>
      <trkpt lat="46.97371" lon="8.77437">
        <ele>627</ele>
        <time>2021-08-04T09:54:16.055Z</time>
      </trkpt>
      <trkpt lat="46.9737" lon="8.77436">
        <ele>627</ele>
        <time>2021-08-04T09:54:17.054Z</time>
      </trkpt>
      <trkpt lat="46.9737" lon="8.77435">
        <ele>627</ele>
        <time>2021-08-04T09:54:18.055Z</time>
      </trkpt>
      <trkpt lat="46.97369" lon="8.77433">
        <ele>627</ele>
        <time>2021-08-04T09:54:19.054Z</time>
      </trkpt>
      <trkpt lat="46.97368" lon="8.77432">
        <ele>627</ele>
        <time>2021-08-04T09:54:20.055Z</time>
      </trkpt>
      <trkpt lat="46.97368" lon="8.7743">
        <ele>627</ele>
        <time>2021-08-04T09:54:21.054Z</time>
      </trkpt>
      <trkpt lat="46.97368" lon="8.77428">
        <ele>627</ele>
        <time>2021-08-04T09:54:22.055Z</time>
      </trkpt>
      <trkpt lat="46.97368" lon="8.77426">
        <ele>628</ele>
        <time>2021-08-04T09:54:23.055Z</time>
      </trkpt>
      <trkpt lat="46.97367" lon="8.77424">
        <ele>628</ele>
        <time>2021-08-04T09:54:24.055Z</time>
      </trkpt>
      <trkpt lat="46.97367" lon="8.77423">
        <ele>628</ele>
        <time>2021-08-04T09:54:25.054Z</time>
      </trkpt>
      <trkpt lat="46.97366" lon="8.77421">
        <ele>628</ele>
        <time>2021-08-04T09:54:26.054Z</time>
      </trkpt>
      <trkpt lat="46.97365" lon="8.7742">
        <ele>628</ele>
        <time>2021-08-04T09:54:27.055Z</time>
      </trkpt>
      <trkpt lat="46.97365" lon="8.77418">
        <ele>629</ele>
        <time>2021-08-04T09:54:28.055Z</time>
      </trkpt>
      <trkpt lat="46.97365" lon="8.77416">
        <ele>629</ele>
        <time>2021-08-04T09:54:29.054Z</time>
      </trkpt>
      <trkpt lat="46.97364" lon="8.77415">
        <ele>629</ele>
        <time>2021-08-04T09:54:30.054Z</time>
      </trkpt>
      <trkpt lat="46.97363" lon="8.77413">
        <ele>629</ele>
        <time>2021-08-04T09:54:31.054Z</time>
      </trkpt>
      <trkpt lat="46.97362" lon="8.77412">
        <ele>629</ele>
        <time>2021-08-04T09:54:32.055Z</time>
      </trkpt>
      <trkpt lat="46.97362" lon="8.7741">
        <ele>629</ele>
        <time>2021-08-04T09:54:33.055Z</time>
      </trkpt>
      <trkpt lat="46.97362" lon="8.77408">
        <ele>629</ele>
        <time>2021-08-04T09:54:34.054Z</time>
      </trkpt>
      <trkpt lat="46.97361" lon="8.77406">
        <ele>629</ele>
        <time>2021-08-04T09:54:35.055Z</time>
      </trkpt>
      <trkpt lat="46.97361" lon="8.77404">
        <ele>629</ele>
        <time>2021-08-04T09:54:36.054Z</time>
      </trkpt>
      <trkpt lat="46.97361" lon="8.77402">
        <ele>630</ele>
        <time>2021-08-04T09:54:37.055Z</time>
      </trkpt>
      <trkpt lat="46.97361" lon="8.77399">
        <ele>630</ele>
        <time>2021-08-04T09:54:38.055Z</time>
      </trkpt>
      <trkpt lat="46.9736" lon="8.77397">
        <ele>630</ele>
        <time>2021-08-04T09:54:39.054Z</time>
      </trkpt>
      <trkpt lat="46.9736" lon="8.77395">
        <ele>631</ele>
        <time>2021-08-04T09:54:40.055Z</time>
      </trkpt>
      <trkpt lat="46.97359" lon="8.77394">
        <ele>631</ele>
        <time>2021-08-04T09:54:41.055Z</time>
      </trkpt>
      <trkpt lat="46.97359" lon="8.77391">
        <ele>631</ele>
        <time>2021-08-04T09:54:42.054Z</time>
      </trkpt>
      <trkpt lat="46.97359" lon="8.7739">
        <ele>631</ele>
        <time>2021-08-04T09:54:43.055Z</time>
      </trkpt>
      <trkpt lat="46.97358" lon="8.77388">
        <ele>630</ele>
        <time>2021-08-04T09:54:44.054Z</time>
      </trkpt>
      <trkpt lat="46.97358" lon="8.77386">
        <ele>630</ele>
        <time>2021-08-04T09:54:45.055Z</time>
      </trkpt>
      <trkpt lat="46.97357" lon="8.77384">
        <ele>629</ele>
        <time>2021-08-04T09:54:46.054Z</time>
      </trkpt>
      <trkpt lat="46.97357" lon="8.77382">
        <ele>629</ele>
        <time>2021-08-04T09:54:47.055Z</time>
      </trkpt>
      <trkpt lat="46.97357" lon="8.7738">
        <ele>629</ele>
        <time>2021-08-04T09:54:48.055Z</time>
      </trkpt>
      <trkpt lat="46.97357" lon="8.77378">
        <ele>629</ele>
        <time>2021-08-04T09:54:49.055Z</time>
      </trkpt>
      <trkpt lat="46.97356" lon="8.77377">
        <ele>629</ele>
        <time>2021-08-04T09:54:50.054Z</time>
      </trkpt>
      <trkpt lat="46.97355" lon="8.77374">
        <ele>629</ele>
        <time>2021-08-04T09:54:51.055Z</time>
      </trkpt>
      <trkpt lat="46.97355" lon="8.77373">
        <ele>629</ele>
        <time>2021-08-04T09:54:52.055Z</time>
      </trkpt>
      <trkpt lat="46.97354" lon="8.77371">
        <ele>629</ele>
        <time>2021-08-04T09:54:53.055Z</time>
      </trkpt>
      <trkpt lat="46.97353" lon="8.7737">
        <ele>629</ele>
        <time>2021-08-04T09:54:54.054Z</time>
      </trkpt>
      <trkpt lat="46.97353" lon="8.77368">
        <ele>629</ele>
        <time>2021-08-04T09:54:55.055Z</time>
      </trkpt>
      <trkpt lat="46.97353" lon="8.77366">
        <ele>628</ele>
        <time>2021-08-04T09:54:56.055Z</time>
      </trkpt>
      <trkpt lat="46.97353" lon="8.77364">
        <ele>628</ele>
        <time>2021-08-04T09:54:57.054Z</time>
      </trkpt>
      <trkpt lat="46.97353" lon="8.77362">
        <ele>628</ele>
        <time>2021-08-04T09:54:58.055Z</time>
      </trkpt>
      <trkpt lat="46.97353" lon="8.7736">
        <ele>628</ele>
        <time>2021-08-04T09:54:59.054Z</time>
      </trkpt>
      <trkpt lat="46.97353" lon="8.77359">
        <ele>628</ele>
        <time>2021-08-04T09:55:00.055Z</time>
      </trkpt>
      <trkpt lat="46.97353" lon="8.77357">
        <ele>629</ele>
        <time>2021-08-04T09:55:01.055Z</time>
      </trkpt>
      <trkpt lat="46.97353" lon="8.77355">
        <ele>629</ele>
        <time>2021-08-04T09:55:02.055Z</time>
      </trkpt>
      <trkpt lat="46.97352" lon="8.77353">
        <ele>629</ele>
        <time>2021-08-04T09:55:03.054Z</time>
      </trkpt>
      <trkpt lat="46.97352" lon="8.7735">
        <ele>629</ele>
        <time>2021-08-04T09:55:04.054Z</time>
      </trkpt>
      <trkpt lat="46.97351" lon="8.77348">
        <ele>629</ele>
        <time>2021-08-04T09:55:05.054Z</time>
      </trkpt>
      <trkpt lat="46.9735" lon="8.77347">
        <ele>629</ele>
        <time>2021-08-04T09:55:06.054Z</time>
      </trkpt>
      <trkpt lat="46.97349" lon="8.77345">
        <ele>629</ele>
        <time>2021-08-04T09:55:07.054Z</time>
      </trkpt>
      <trkpt lat="46.97349" lon="8.77344">
        <ele>629</ele>
        <time>2021-08-04T09:55:08.054Z</time>
      </trkpt>
      <trkpt lat="46.97347" lon="8.77344">
        <ele>628</ele>
        <time>2021-08-04T09:55:09.055Z</time>
      </trkpt>
      <trkpt lat="46.97346" lon="8.77343">
        <ele>627</ele>
        <time>2021-08-04T09:55:10.055Z</time>
      </trkpt>
      <trkpt lat="46.97345" lon="8.77342">
        <ele>627</ele>
        <time>2021-08-04T09:55:11.055Z</time>
      </trkpt>
      <trkpt lat="46.97343" lon="8.77341">
        <ele>627</ele>
        <time>2021-08-04T09:55:12.055Z</time>
      </trkpt>
      <trkpt lat="46.97342" lon="8.7734">
        <ele>626</ele>
        <time>2021-08-04T09:55:13.055Z</time>
      </trkpt>
      <trkpt lat="46.97341" lon="8.77339">
        <ele>626</ele>
        <time>2021-08-04T09:55:14.054Z</time>
      </trkpt>
      <trkpt lat="46.9734" lon="8.77339">
        <ele>626</ele>
        <time>2021-08-04T09:55:15.055Z</time>
      </trkpt>
      <trkpt lat="46.97338" lon="8.77339">
        <ele>626</ele>
        <time>2021-08-04T09:55:16.055Z</time>
      </trkpt>
      <trkpt lat="46.97337" lon="8.77339">
        <ele>627</ele>
        <time>2021-08-04T09:55:17.055Z</time>
      </trkpt>
      <trkpt lat="46.97336" lon="8.77338">
        <ele>627</ele>
        <time>2021-08-04T09:55:18.055Z</time>
      </trkpt>
      <trkpt lat="46.97334" lon="8.77338">
        <ele>628</ele>
        <time>2021-08-04T09:55:19.055Z</time>
      </trkpt>
      <trkpt lat="46.97333" lon="8.77338">
        <ele>629</ele>
        <time>2021-08-04T09:55:20.055Z</time>
      </trkpt>
      <trkpt lat="46.97331" lon="8.77338">
        <ele>628</ele>
        <time>2021-08-04T09:55:21.055Z</time>
      </trkpt>
      <trkpt lat="46.9733" lon="8.77338">
        <ele>628</ele>
        <time>2021-08-04T09:55:22.055Z</time>
      </trkpt>
      <trkpt lat="46.97329" lon="8.77338">
        <ele>628</ele>
        <time>2021-08-04T09:55:23.055Z</time>
      </trkpt>
      <trkpt lat="46.97327" lon="8.77338">
        <ele>627</ele>
        <time>2021-08-04T09:55:24.054Z</time>
      </trkpt>
      <trkpt lat="46.97326" lon="8.77337">
        <ele>627</ele>
        <time>2021-08-04T09:55:25.055Z</time>
      </trkpt>
      <trkpt lat="46.97325" lon="8.77337">
        <ele>627</ele>
        <time>2021-08-04T09:55:26.054Z</time>
      </trkpt>
      <trkpt lat="46.97323" lon="8.77336">
        <ele>627</ele>
        <time>2021-08-04T09:55:27.055Z</time>
      </trkpt>
      <trkpt lat="46.97322" lon="8.77336">
        <ele>626</ele>
        <time>2021-08-04T09:55:28.055Z</time>
      </trkpt>
      <trkpt lat="46.97321" lon="8.77336">
        <ele>626</ele>
        <time>2021-08-04T09:55:29.055Z</time>
      </trkpt>
      <trkpt lat="46.9732" lon="8.77336">
        <ele>626</ele>
        <time>2021-08-04T09:55:30.054Z</time>
      </trkpt>
      <trkpt lat="46.97319" lon="8.77337">
        <ele>626</ele>
        <time>2021-08-04T09:55:31.054Z</time>
      </trkpt>
      <trkpt lat="46.97318" lon="8.77338">
        <ele>626</ele>
        <time>2021-08-04T09:55:32.054Z</time>
      </trkpt>
      <trkpt lat="46.97316" lon="8.77338">
        <ele>626</ele>
        <time>2021-08-04T09:55:33.055Z</time>
      </trkpt>
      <trkpt lat="46.97315" lon="8.77338">
        <ele>627</ele>
        <time>2021-08-04T09:55:34.055Z</time>
      </trkpt>
      <trkpt lat="46.97313" lon="8.77338">
        <ele>627</ele>
        <time>2021-08-04T09:55:35.055Z</time>
      </trkpt>
      <trkpt lat="46.97312" lon="8.77338">
        <ele>628</ele>
        <time>2021-08-04T09:55:36.055Z</time>
      </trkpt>
      <trkpt lat="46.97311" lon="8.77338">
        <ele>629</ele>
        <time>2021-08-04T09:55:37.054Z</time>
      </trkpt>
      <trkpt lat="46.9731" lon="8.77338">
        <ele>629</ele>
        <time>2021-08-04T09:55:38.055Z</time>
      </trkpt>
      <trkpt lat="46.97309" lon="8.77337">
        <ele>629</ele>
        <time>2021-08-04T09:55:39.055Z</time>
      </trkpt>
      <trkpt lat="46.97308" lon="8.77337">
        <ele>630</ele>
        <time>2021-08-04T09:55:40.054Z</time>
      </trkpt>
      <trkpt lat="46.97307" lon="8.77337">
        <ele>630</ele>
        <time>2021-08-04T09:55:41.055Z</time>
      </trkpt>
      <trkpt lat="46.97305" lon="8.77337">
        <ele>630</ele>
        <time>2021-08-04T09:55:42.055Z</time>
      </trkpt>
      <trkpt lat="46.97304" lon="8.77338">
        <ele>629</ele>
        <time>2021-08-04T09:55:43.055Z</time>
      </trkpt>
      <trkpt lat="46.97304" lon="8.77338">
        <ele>629</ele>
        <time>2021-08-04T09:55:44.055Z</time>
      </trkpt>
      <trkpt lat="46.97303" lon="8.77338">
        <ele>629</ele>
        <time>2021-08-04T09:55:45.055Z</time>
      </trkpt>
      <trkpt lat="46.97302" lon="8.77338">
        <ele>629</ele>
        <time>2021-08-04T09:55:46.054Z</time>
      </trkpt>
      <trkpt lat="46.97301" lon="8.77338">
        <ele>628</ele>
        <time>2021-08-04T09:55:47.055Z</time>
      </trkpt>
      <trkpt lat="46.973" lon="8.77337">
        <ele>628</ele>
        <time>2021-08-04T09:55:48.055Z</time>
      </trkpt>
      <trkpt lat="46.97299" lon="8.77336">
        <ele>628</ele>
        <time>2021-08-04T09:55:49.055Z</time>
      </trkpt>
      <trkpt lat="46.97298" lon="8.77335">
        <ele>628</ele>
        <time>2021-08-04T09:55:50.055Z</time>
      </trkpt>
      <trkpt lat="46.97298" lon="8.77333">
        <ele>628</ele>
        <time>2021-08-04T09:55:51.055Z</time>
      </trkpt>
      <trkpt lat="46.97298" lon="8.77332">
        <ele>628</ele>
        <time>2021-08-04T09:55:52.055Z</time>
      </trkpt>
      <trkpt lat="46.97298" lon="8.7733">
        <ele>628</ele>
        <time>2021-08-04T09:55:53.054Z</time>
      </trkpt>
      <trkpt lat="46.97297" lon="8.77329">
        <ele>627</ele>
        <time>2021-08-04T09:55:54.055Z</time>
      </trkpt>
      <trkpt lat="46.97297" lon="8.77327">
        <ele>627</ele>
        <time>2021-08-04T09:55:55.055Z</time>
      </trkpt>
      <trkpt lat="46.97297" lon="8.77325">
        <ele>627</ele>
        <time>2021-08-04T09:55:56.055Z</time>
      </trkpt>
      <trkpt lat="46.97297" lon="8.77323">
        <ele>627</ele>
        <time>2021-08-04T09:55:57.055Z</time>
      </trkpt>
      <trkpt lat="46.97297" lon="8.77321">
        <ele>626</ele>
        <time>2021-08-04T09:55:58.055Z</time>
      </trkpt>
      <trkpt lat="46.97297" lon="8.77319">
        <ele>626</ele>
        <time>2021-08-04T09:55:59.055Z</time>
      </trkpt>
      <trkpt lat="46.97296" lon="8.77317">
        <ele>627</ele>
        <time>2021-08-04T09:56:00.055Z</time>
      </trkpt>
      <trkpt lat="46.97295" lon="8.77316">
        <ele>627</ele>
        <time>2021-08-04T09:56:01.054Z</time>
      </trkpt>
      <trkpt lat="46.97293" lon="8.77315">
        <ele>627</ele>
        <time>2021-08-04T09:56:02.054Z</time>
      </trkpt>
      <trkpt lat="46.97293" lon="8.77314">
        <ele>626</ele>
        <time>2021-08-04T09:56:03.055Z</time>
      </trkpt>
      <trkpt lat="46.97292" lon="8.77313">
        <ele>626</ele>
        <time>2021-08-04T09:56:04.055Z</time>
      </trkpt>
      <trkpt lat="46.97291" lon="8.77312">
        <ele>626</ele>
        <time>2021-08-04T09:56:05.054Z</time>
      </trkpt>
      <trkpt lat="46.9729" lon="8.77311">
        <ele>626</ele>
        <time>2021-08-04T09:56:06.055Z</time>
      </trkpt>
      <trkpt lat="46.97289" lon="8.77309">
        <ele>626</ele>
        <time>2021-08-04T09:56:07.055Z</time>
      </trkpt>
      <trkpt lat="46.97289" lon="8.77308">
        <ele>626</ele>
        <time>2021-08-04T09:56:08.055Z</time>
      </trkpt>
      <trkpt lat="46.97289" lon="8.77306">
        <ele>626</ele>
        <time>2021-08-04T09:56:09.054Z</time>
      </trkpt>
      <trkpt lat="46.97288" lon="8.77305">
        <ele>625</ele>
        <time>2021-08-04T09:56:10.055Z</time>
      </trkpt>
      <trkpt lat="46.97288" lon="8.77303">
        <ele>626</ele>
        <time>2021-08-04T09:56:11.055Z</time>
      </trkpt>
      <trkpt lat="46.97287" lon="8.77301">
        <ele>626</ele>
        <time>2021-08-04T09:56:12.055Z</time>
      </trkpt>
      <trkpt lat="46.97287" lon="8.773">
        <ele>626</ele>
        <time>2021-08-04T09:56:13.054Z</time>
      </trkpt>
      <trkpt lat="46.97286" lon="8.77299">
        <ele>626</ele>
        <time>2021-08-04T09:56:14.055Z</time>
      </trkpt>
      <trkpt lat="46.97286" lon="8.77298">
        <ele>626</ele>
        <time>2021-08-04T09:56:15.055Z</time>
      </trkpt>
      <trkpt lat="46.97286" lon="8.77297">
        <ele>626</ele>
        <time>2021-08-04T09:56:16.055Z</time>
      </trkpt>
      <trkpt lat="46.97287" lon="8.77295">
        <ele>627</ele>
        <time>2021-08-04T09:56:17.054Z</time>
      </trkpt>
      <trkpt lat="46.97287" lon="8.77294">
        <ele>627</ele>
        <time>2021-08-04T09:56:18.055Z</time>
      </trkpt>
      <trkpt lat="46.97288" lon="8.77293">
        <ele>627</ele>
        <time>2021-08-04T09:56:19.055Z</time>
      </trkpt>
      <trkpt lat="46.97288" lon="8.77292">
        <ele>627</ele>
        <time>2021-08-04T09:56:20.054Z</time>
      </trkpt>
      <trkpt lat="46.97289" lon="8.77291">
        <ele>628</ele>
        <time>2021-08-04T09:56:21.055Z</time>
      </trkpt>
      <trkpt lat="46.97289" lon="8.7729">
        <ele>628</ele>
        <time>2021-08-04T09:56:22.055Z</time>
      </trkpt>
      <trkpt lat="46.97289" lon="8.7729">
        <ele>628</ele>
        <time>2021-08-04T09:56:23.055Z</time>
      </trkpt>
      <trkpt lat="46.97288" lon="8.7729">
        <ele>628</ele>
        <time>2021-08-04T09:56:24.055Z</time>
      </trkpt>
      <trkpt lat="46.97288" lon="8.7729">
        <ele>628</ele>
        <time>2021-08-04T09:56:25.054Z</time>
      </trkpt>
      <trkpt lat="46.97288" lon="8.7729">
        <ele>628</ele>
        <time>2021-08-04T09:56:28.025Z</time>
      </trkpt>
      <trkpt lat="46.97289" lon="8.77292">
        <ele>632</ele>
        <time>2021-08-04T09:56:29.025Z</time>
      </trkpt>
      <trkpt lat="46.97289" lon="8.77294">
        <ele>632</ele>
        <time>2021-08-04T09:56:30.024Z</time>
      </trkpt>
      <trkpt lat="46.97289" lon="8.77294">
        <ele>633</ele>
        <time>2021-08-04T09:56:31.024Z</time>
      </trkpt>
      <trkpt lat="46.97289" lon="8.77294">
        <ele>633</ele>
        <time>2021-08-04T09:56:44.143Z</time>
      </trkpt>
      <trkpt lat="46.9729" lon="8.77294">
        <ele>635</ele>
        <time>2021-08-04T09:56:45.144Z</time>
      </trkpt>
      <trkpt lat="46.9729" lon="8.77295">
        <ele>635</ele>
        <time>2021-08-04T09:56:46.143Z</time>
      </trkpt>
      <trkpt lat="46.9729" lon="8.77295">
        <ele>635</ele>
        <time>2021-08-04T09:56:47.143Z</time>
      </trkpt>
      <trkpt lat="46.9729" lon="8.77296">
        <ele>635</ele>
        <time>2021-08-04T09:56:48.143Z</time>
      </trkpt>
      <trkpt lat="46.97289" lon="8.77297">
        <ele>634</ele>
        <time>2021-08-04T09:56:49.144Z</time>
      </trkpt>
      <trkpt lat="46.97288" lon="8.77298">
        <ele>634</ele>
        <time>2021-08-04T09:56:50.144Z</time>
      </trkpt>
      <trkpt lat="46.97288" lon="8.77299">
        <ele>634</ele>
        <time>2021-08-04T09:56:51.144Z</time>
      </trkpt>
      <trkpt lat="46.97287" lon="8.77299">
        <ele>634</ele>
        <time>2021-08-04T09:56:52.143Z</time>
      </trkpt>
      <trkpt lat="46.97288" lon="8.773">
        <ele>634</ele>
        <time>2021-08-04T09:57:09.164Z</time>
      </trkpt>
      <trkpt lat="46.97283" lon="8.77302">
        <ele>636</ele>
        <time>2021-08-04T09:57:10.163Z</time>
      </trkpt>
      <trkpt lat="46.97283" lon="8.77302">
        <ele>635</ele>
        <time>2021-08-04T09:57:36.280Z</time>
      </trkpt>
      <trkpt lat="46.97283" lon="8.77302">
        <ele>635</ele>
        <time>2021-08-04T09:57:37.279Z</time>
      </trkpt>
      <trkpt lat="46.97283" lon="8.77302">
        <ele>635</ele>
        <time>2021-08-04T09:57:38.280Z</time>
      </trkpt>
      <trkpt lat="46.97281" lon="8.77302">
        <ele>632</ele>
        <time>2021-08-04T09:57:57.435Z</time>
      </trkpt>
      <trkpt lat="46.97281" lon="8.77302">
        <ele>632</ele>
        <time>2021-08-04T09:57:58.435Z</time>
      </trkpt>
      <trkpt lat="46.9728" lon="8.77306">
        <ele>638</ele>
        <time>2021-08-04T09:57:59.435Z</time>
      </trkpt>
      <trkpt lat="46.97279" lon="8.77308">
        <ele>639</ele>
        <time>2021-08-04T09:58:09.509Z</time>
      </trkpt>
      <trkpt lat="46.97279" lon="8.77309">
        <ele>646</ele>
        <time>2021-08-04T09:58:10.510Z</time>
      </trkpt>
      <trkpt lat="46.97278" lon="8.77311">
        <ele>647</ele>
        <time>2021-08-04T09:58:11.511Z</time>
      </trkpt>
      <trkpt lat="46.97278" lon="8.7731">
        <ele>648</ele>
        <time>2021-08-04T09:58:12.511Z</time>
      </trkpt>
      <trkpt lat="46.97278" lon="8.77309">
        <ele>648</ele>
        <time>2021-08-04T09:58:13.511Z</time>
      </trkpt>
      <trkpt lat="46.97278" lon="8.77308">
        <ele>648</ele>
        <time>2021-08-04T09:58:14.510Z</time>
      </trkpt>
      <trkpt lat="46.97278" lon="8.77308">
        <ele>648</ele>
        <time>2021-08-04T09:58:15.511Z</time>
      </trkpt>
      <trkpt lat="46.97278" lon="8.77309">
        <ele>648</ele>
        <time>2021-08-04T09:58:16.510Z</time>
      </trkpt>
      <trkpt lat="46.97277" lon="8.77309">
        <ele>648</ele>
        <time>2021-08-04T09:58:17.510Z</time>
      </trkpt>
      <trkpt lat="46.97276" lon="8.7731">
        <ele>648</ele>
        <time>2021-08-04T09:58:18.511Z</time>
      </trkpt>
      <trkpt lat="46.97276" lon="8.77308">
        <ele>648</ele>
        <time>2021-08-04T09:58:19.511Z</time>
      </trkpt>
      <trkpt lat="46.97275" lon="8.77308">
        <ele>648</ele>
        <time>2021-08-04T09:58:20.511Z</time>
      </trkpt>
      <trkpt lat="46.97275" lon="8.77309">
        <ele>648</ele>
        <time>2021-08-04T09:58:21.511Z</time>
      </trkpt>
      <trkpt lat="46.97272" lon="8.77305">
        <ele>648</ele>
        <time>2021-08-04T09:58:23.511Z</time>
      </trkpt>
      <trkpt lat="46.97271" lon="8.77304">
        <ele>648</ele>
        <time>2021-08-04T09:58:24.511Z</time>
      </trkpt>
      <trkpt lat="46.9727" lon="8.77303">
        <ele>648</ele>
        <time>2021-08-04T09:58:25.512Z</time>
      </trkpt>
      <trkpt lat="46.9727" lon="8.77298">
        <ele>647</ele>
        <time>2021-08-04T09:58:26.512Z</time>
      </trkpt>
      <trkpt lat="46.97271" lon="8.77295">
        <ele>647</ele>
        <time>2021-08-04T09:58:27.512Z</time>
      </trkpt>
      <trkpt lat="46.97271" lon="8.77294">
        <ele>647</ele>
        <time>2021-08-04T09:58:28.511Z</time>
      </trkpt>
      <trkpt lat="46.97271" lon="8.77294">
        <ele>646</ele>
        <time>2021-08-04T09:58:29.512Z</time>
      </trkpt>
      <trkpt lat="46.97272" lon="8.77293">
        <ele>646</ele>
        <time>2021-08-04T09:58:30.511Z</time>
      </trkpt>
      <trkpt lat="46.97273" lon="8.77291">
        <ele>646</ele>
        <time>2021-08-04T09:58:31.512Z</time>
      </trkpt>
      <trkpt lat="46.97273" lon="8.7729">
        <ele>646</ele>
        <time>2021-08-04T09:58:32.511Z</time>
      </trkpt>
      <trkpt lat="46.97273" lon="8.77289">
        <ele>646</ele>
        <time>2021-08-04T09:58:33.512Z</time>
      </trkpt>
      <trkpt lat="46.97274" lon="8.77289">
        <ele>646</ele>
        <time>2021-08-04T09:58:34.512Z</time>
      </trkpt>
      <trkpt lat="46.97275" lon="8.77289">
        <ele>645</ele>
        <time>2021-08-04T09:58:35.512Z</time>
      </trkpt>
      <trkpt lat="46.97275" lon="8.77288">
        <ele>645</ele>
        <time>2021-08-04T09:58:36.512Z</time>
      </trkpt>
      <trkpt lat="46.97275" lon="8.77288">
        <ele>645</ele>
        <time>2021-08-04T09:58:37.511Z</time>
      </trkpt>
      <trkpt lat="46.97275" lon="8.77287">
        <ele>644</ele>
        <time>2021-08-04T09:58:38.512Z</time>
      </trkpt>
      <trkpt lat="46.97275" lon="8.77288">
        <ele>644</ele>
        <time>2021-08-04T09:58:39.512Z</time>
      </trkpt>
      <trkpt lat="46.97275" lon="8.77288">
        <ele>643</ele>
        <time>2021-08-04T09:58:40.511Z</time>
      </trkpt>
      <trkpt lat="46.97275" lon="8.77288">
        <ele>642</ele>
        <time>2021-08-04T09:58:41.512Z</time>
      </trkpt>
      <trkpt lat="46.97275" lon="8.77287">
        <ele>642</ele>
        <time>2021-08-04T09:58:42.511Z</time>
      </trkpt>
      <trkpt lat="46.97276" lon="8.77287">
        <ele>641</ele>
        <time>2021-08-04T09:58:43.512Z</time>
      </trkpt>
      <trkpt lat="46.97281" lon="8.77288">
        <ele>637</ele>
        <time>2021-08-04T09:58:44.512Z</time>
      </trkpt>
      <trkpt lat="46.97282" lon="8.77288">
        <ele>637</ele>
        <time>2021-08-04T09:58:45.512Z</time>
      </trkpt>
      <trkpt lat="46.97283" lon="8.77291">
        <ele>634</ele>
        <time>2021-08-04T09:58:46.512Z</time>
      </trkpt>
      <trkpt lat="46.97282" lon="8.77293">
        <ele>634</ele>
        <time>2021-08-04T09:58:47.512Z</time>
      </trkpt>
      <trkpt lat="46.97282" lon="8.77294">
        <ele>633</ele>
        <time>2021-08-04T09:58:48.512Z</time>
      </trkpt>
      <trkpt lat="46.97282" lon="8.77293">
        <ele>633</ele>
        <time>2021-08-04T09:58:49.512Z</time>
      </trkpt>
      <trkpt lat="46.97282" lon="8.77292">
        <ele>632</ele>
        <time>2021-08-04T09:58:50.513Z</time>
      </trkpt>
      <trkpt lat="46.97282" lon="8.77292">
        <ele>632</ele>
        <time>2021-08-04T09:58:51.512Z</time>
      </trkpt>
      <trkpt lat="46.97281" lon="8.77292">
        <ele>630</ele>
        <time>2021-08-04T09:58:52.512Z</time>
      </trkpt>
      <trkpt lat="46.97281" lon="8.77291">
        <ele>630</ele>
        <time>2021-08-04T09:58:53.513Z</time>
      </trkpt>
      <trkpt lat="46.97281" lon="8.77291">
        <ele>630</ele>
        <time>2021-08-04T09:58:54.512Z</time>
      </trkpt>
      <trkpt lat="46.97281" lon="8.7729">
        <ele>629</ele>
        <time>2021-08-04T09:58:55.512Z</time>
      </trkpt>
      <trkpt lat="46.97281" lon="8.77289">
        <ele>629</ele>
        <time>2021-08-04T09:58:56.512Z</time>
      </trkpt>
      <trkpt lat="46.97281" lon="8.77288">
        <ele>629</ele>
        <time>2021-08-04T09:58:57.512Z</time>
      </trkpt>
      <trkpt lat="46.97281" lon="8.77286">
        <ele>629</ele>
        <time>2021-08-04T09:59:06.673Z</time>
      </trkpt>
      <trkpt lat="46.97281" lon="8.77285">
        <ele>629</ele>
        <time>2021-08-04T09:59:16.560Z</time>
      </trkpt>
      <trkpt lat="46.97281" lon="8.77284">
        <ele>630</ele>
        <time>2021-08-04T09:59:17.559Z</time>
      </trkpt>
      <trkpt lat="46.9728" lon="8.77283">
        <ele>630</ele>
        <time>2021-08-04T09:59:24.397Z</time>
      </trkpt>
      <trkpt lat="46.97278" lon="8.77283">
        <ele>630</ele>
        <time>2021-08-04T09:59:41.307Z</time>
      </trkpt>
      <trkpt lat="46.97277" lon="8.77283">
        <ele>631</ele>
        <time>2021-08-04T09:59:42.307Z</time>
      </trkpt>
      <trkpt lat="46.97276" lon="8.77284">
        <ele>631</ele>
        <time>2021-08-04T09:59:43.308Z</time>
      </trkpt>
      <trkpt lat="46.97274" lon="8.77285">
        <ele>631</ele>
        <time>2021-08-04T09:59:44.307Z</time>
      </trkpt>
      <trkpt lat="46.97272" lon="8.77286">
        <ele>632</ele>
        <time>2021-08-04T09:59:45.307Z</time>
      </trkpt>
      <trkpt lat="46.97271" lon="8.77286">
        <ele>632</ele>
        <time>2021-08-04T09:59:46.307Z</time>
      </trkpt>
      <trkpt lat="46.97269" lon="8.77286">
        <ele>632</ele>
        <time>2021-08-04T09:59:47.307Z</time>
      </trkpt>
      <trkpt lat="46.97268" lon="8.77284">
        <ele>632</ele>
        <time>2021-08-04T09:59:48.307Z</time>
      </trkpt>
      <trkpt lat="46.97267" lon="8.77282">
        <ele>632</ele>
        <time>2021-08-04T09:59:49.308Z</time>
      </trkpt>
      <trkpt lat="46.97266" lon="8.77279">
        <ele>632</ele>
        <time>2021-08-04T09:59:50.307Z</time>
      </trkpt>
      <trkpt lat="46.97266" lon="8.77276">
        <ele>632</ele>
        <time>2021-08-04T09:59:51.308Z</time>
      </trkpt>
      <trkpt lat="46.97266" lon="8.77273">
        <ele>632</ele>
        <time>2021-08-04T09:59:52.307Z</time>
      </trkpt>
      <trkpt lat="46.97266" lon="8.77271">
        <ele>632</ele>
        <time>2021-08-04T09:59:53.307Z</time>
      </trkpt>
      <trkpt lat="46.97266" lon="8.77269">
        <ele>632</ele>
        <time>2021-08-04T09:59:54.307Z</time>
      </trkpt>
      <trkpt lat="46.97266" lon="8.77268">
        <ele>632</ele>
        <time>2021-08-04T09:59:55.308Z</time>
      </trkpt>
      <trkpt lat="46.97264" lon="8.77266">
        <ele>632</ele>
        <time>2021-08-04T09:59:56.308Z</time>
      </trkpt>
      <trkpt lat="46.97266" lon="8.77264">
        <ele>632</ele>
        <time>2021-08-04T09:59:57.308Z</time>
      </trkpt>
      <trkpt lat="46.97265" lon="8.77262">
        <ele>632</ele>
        <time>2021-08-04T09:59:58.307Z</time>
      </trkpt>
      <trkpt lat="46.97265" lon="8.77259">
        <ele>632</ele>
        <time>2021-08-04T09:59:59.307Z</time>
      </trkpt>
      <trkpt lat="46.97265" lon="8.77258">
        <ele>632</ele>
        <time>2021-08-04T10:00:00.308Z</time>
      </trkpt>
      <trkpt lat="46.97265" lon="8.77258">
        <ele>632</ele>
        <time>2021-08-04T10:00:01.307Z</time>
      </trkpt>
      <trkpt lat="46.97265" lon="8.77259">
        <ele>632</ele>
        <time>2021-08-04T10:00:02.308Z</time>
      </trkpt>
      <trkpt lat="46.97266" lon="8.77259">
        <ele>632</ele>
        <time>2021-08-04T10:00:03.307Z</time>
      </trkpt>
      <trkpt lat="46.97266" lon="8.7726">
        <ele>632</ele>
        <time>2021-08-04T10:00:04.308Z</time>
      </trkpt>
      <trkpt lat="46.97266" lon="8.7726">
        <ele>632</ele>
        <time>2021-08-04T10:00:05.307Z</time>
      </trkpt>
      <trkpt lat="46.97267" lon="8.7726">
        <ele>632</ele>
        <time>2021-08-04T10:00:06.308Z</time>
      </trkpt>
      <trkpt lat="46.97267" lon="8.77261">
        <ele>632</ele>
        <time>2021-08-04T10:00:07.308Z</time>
      </trkpt>
      <trkpt lat="46.97267" lon="8.77262">
        <ele>632</ele>
        <time>2021-08-04T10:00:08.308Z</time>
      </trkpt>
      <trkpt lat="46.97265" lon="8.77261">
        <ele>632</ele>
        <time>2021-08-04T10:00:09.308Z</time>
      </trkpt>
      <trkpt lat="46.97262" lon="8.77258">
        <ele>632</ele>
        <time>2021-08-04T10:00:10.308Z</time>
      </trkpt>
      <trkpt lat="46.97261" lon="8.77255">
        <ele>632</ele>
        <time>2021-08-04T10:00:11.308Z</time>
      </trkpt>
      <trkpt lat="46.9726" lon="8.77252">
        <ele>632</ele>
        <time>2021-08-04T10:00:12.308Z</time>
      </trkpt>
      <trkpt lat="46.97261" lon="8.77249">
        <ele>632</ele>
        <time>2021-08-04T10:00:13.307Z</time>
      </trkpt>
      <trkpt lat="46.97261" lon="8.77247">
        <ele>632</ele>
        <time>2021-08-04T10:00:14.308Z</time>
      </trkpt>
      <trkpt lat="46.97261" lon="8.77244">
        <ele>632</ele>
        <time>2021-08-04T10:00:15.307Z</time>
      </trkpt>
      <trkpt lat="46.9726" lon="8.77242">
        <ele>633</ele>
        <time>2021-08-04T10:00:16.307Z</time>
      </trkpt>
      <trkpt lat="46.97261" lon="8.7724">
        <ele>633</ele>
        <time>2021-08-04T10:00:17.308Z</time>
      </trkpt>
      <trkpt lat="46.97261" lon="8.77237">
        <ele>633</ele>
        <time>2021-08-04T10:00:18.308Z</time>
      </trkpt>
      <trkpt lat="46.97261" lon="8.77235">
        <ele>633</ele>
        <time>2021-08-04T10:00:19.307Z</time>
      </trkpt>
      <trkpt lat="46.97261" lon="8.77233">
        <ele>633</ele>
        <time>2021-08-04T10:00:20.308Z</time>
      </trkpt>
      <trkpt lat="46.97262" lon="8.77232">
        <ele>633</ele>
        <time>2021-08-04T10:00:21.308Z</time>
      </trkpt>
      <trkpt lat="46.97264" lon="8.77231">
        <ele>634</ele>
        <time>2021-08-04T10:00:22.308Z</time>
      </trkpt>
      <trkpt lat="46.97265" lon="8.7723">
        <ele>634</ele>
        <time>2021-08-04T10:00:23.307Z</time>
      </trkpt>
      <trkpt lat="46.97266" lon="8.7723">
        <ele>634</ele>
        <time>2021-08-04T10:00:24.307Z</time>
      </trkpt>
      <trkpt lat="46.97267" lon="8.77229">
        <ele>634</ele>
        <time>2021-08-04T10:00:25.308Z</time>
      </trkpt>
      <trkpt lat="46.97268" lon="8.77228">
        <ele>634</ele>
        <time>2021-08-04T10:00:26.308Z</time>
      </trkpt>
      <trkpt lat="46.97267" lon="8.77227">
        <ele>635</ele>
        <time>2021-08-04T10:00:27.308Z</time>
      </trkpt>
      <trkpt lat="46.97267" lon="8.77226">
        <ele>635</ele>
        <time>2021-08-04T10:00:28.307Z</time>
      </trkpt>
      <trkpt lat="46.97266" lon="8.77224">
        <ele>635</ele>
        <time>2021-08-04T10:00:29.308Z</time>
      </trkpt>
      <trkpt lat="46.97265" lon="8.77222">
        <ele>635</ele>
        <time>2021-08-04T10:00:30.308Z</time>
      </trkpt>
      <trkpt lat="46.97264" lon="8.7722">
        <ele>635</ele>
        <time>2021-08-04T10:00:31.308Z</time>
      </trkpt>
      <trkpt lat="46.97263" lon="8.77217">
        <ele>636</ele>
        <time>2021-08-04T10:00:32.308Z</time>
      </trkpt>
      <trkpt lat="46.97261" lon="8.77215">
        <ele>636</ele>
        <time>2021-08-04T10:00:33.307Z</time>
      </trkpt>
      <trkpt lat="46.9726" lon="8.77213">
        <ele>636</ele>
        <time>2021-08-04T10:00:34.308Z</time>
      </trkpt>
      <trkpt lat="46.97258" lon="8.77212">
        <ele>636</ele>
        <time>2021-08-04T10:00:35.308Z</time>
      </trkpt>
      <trkpt lat="46.97256" lon="8.77211">
        <ele>636</ele>
        <time>2021-08-04T10:00:36.308Z</time>
      </trkpt>
      <trkpt lat="46.97255" lon="8.77211">
        <ele>636</ele>
        <time>2021-08-04T10:00:37.308Z</time>
      </trkpt>
      <trkpt lat="46.97253" lon="8.7721">
        <ele>636</ele>
        <time>2021-08-04T10:00:38.308Z</time>
      </trkpt>
      <trkpt lat="46.97253" lon="8.77208">
        <ele>636</ele>
        <time>2021-08-04T10:00:39.308Z</time>
      </trkpt>
      <trkpt lat="46.97253" lon="8.77206">
        <ele>637</ele>
        <time>2021-08-04T10:00:40.307Z</time>
      </trkpt>
      <trkpt lat="46.97253" lon="8.77203">
        <ele>637</ele>
        <time>2021-08-04T10:00:41.308Z</time>
      </trkpt>
      <trkpt lat="46.97252" lon="8.77202">
        <ele>637</ele>
        <time>2021-08-04T10:00:42.308Z</time>
      </trkpt>
      <trkpt lat="46.97249" lon="8.772">
        <ele>637</ele>
        <time>2021-08-04T10:00:43.308Z</time>
      </trkpt>
      <trkpt lat="46.97246" lon="8.77199">
        <ele>638</ele>
        <time>2021-08-04T10:00:44.307Z</time>
      </trkpt>
      <trkpt lat="46.97245" lon="8.77197">
        <ele>638</ele>
        <time>2021-08-04T10:00:45.307Z</time>
      </trkpt>
      <trkpt lat="46.97245" lon="8.77194">
        <ele>638</ele>
        <time>2021-08-04T10:00:46.308Z</time>
      </trkpt>
      <trkpt lat="46.97245" lon="8.77191">
        <ele>638</ele>
        <time>2021-08-04T10:00:47.307Z</time>
      </trkpt>
      <trkpt lat="46.97245" lon="8.77188">
        <ele>638</ele>
        <time>2021-08-04T10:00:48.308Z</time>
      </trkpt>
      <trkpt lat="46.97247" lon="8.77185">
        <ele>637</ele>
        <time>2021-08-04T10:00:49.308Z</time>
      </trkpt>
      <trkpt lat="46.97247" lon="8.77183">
        <ele>637</ele>
        <time>2021-08-04T10:00:50.308Z</time>
      </trkpt>
      <trkpt lat="46.97246" lon="8.77182">
        <ele>637</ele>
        <time>2021-08-04T10:00:51.307Z</time>
      </trkpt>
      <trkpt lat="46.97245" lon="8.77181">
        <ele>637</ele>
        <time>2021-08-04T10:00:52.308Z</time>
      </trkpt>
      <trkpt lat="46.97243" lon="8.77179">
        <ele>637</ele>
        <time>2021-08-04T10:00:53.308Z</time>
      </trkpt>
      <trkpt lat="46.97243" lon="8.77178">
        <ele>637</ele>
        <time>2021-08-04T10:00:54.307Z</time>
      </trkpt>
      <trkpt lat="46.97243" lon="8.77176">
        <ele>637</ele>
        <time>2021-08-04T10:00:55.308Z</time>
      </trkpt>
      <trkpt lat="46.97242" lon="8.77173">
        <ele>637</ele>
        <time>2021-08-04T10:00:56.308Z</time>
      </trkpt>
      <trkpt lat="46.97242" lon="8.77172">
        <ele>637</ele>
        <time>2021-08-04T10:00:57.308Z</time>
      </trkpt>
      <trkpt lat="46.97241" lon="8.7717">
        <ele>637</ele>
        <time>2021-08-04T10:00:58.307Z</time>
      </trkpt>
      <trkpt lat="46.9724" lon="8.77168">
        <ele>637</ele>
        <time>2021-08-04T10:00:59.307Z</time>
      </trkpt>
      <trkpt lat="46.97239" lon="8.77166">
        <ele>637</ele>
        <time>2021-08-04T10:01:00.308Z</time>
      </trkpt>
      <trkpt lat="46.9724" lon="8.77165">
        <ele>636</ele>
        <time>2021-08-04T10:01:01.307Z</time>
      </trkpt>
      <trkpt lat="46.9724" lon="8.77163">
        <ele>636</ele>
        <time>2021-08-04T10:01:02.307Z</time>
      </trkpt>
      <trkpt lat="46.97239" lon="8.77161">
        <ele>636</ele>
        <time>2021-08-04T10:01:03.307Z</time>
      </trkpt>
      <trkpt lat="46.9724" lon="8.77159">
        <ele>636</ele>
        <time>2021-08-04T10:01:04.307Z</time>
      </trkpt>
      <trkpt lat="46.97241" lon="8.77158">
        <ele>636</ele>
        <time>2021-08-04T10:01:05.308Z</time>
      </trkpt>
      <trkpt lat="46.97241" lon="8.77157">
        <ele>635</ele>
        <time>2021-08-04T10:01:06.307Z</time>
      </trkpt>
      <trkpt lat="46.9724" lon="8.77156">
        <ele>635</ele>
        <time>2021-08-04T10:01:07.308Z</time>
      </trkpt>
      <trkpt lat="46.97239" lon="8.77155">
        <ele>635</ele>
        <time>2021-08-04T10:01:08.308Z</time>
      </trkpt>
      <trkpt lat="46.97239" lon="8.77153">
        <ele>635</ele>
        <time>2021-08-04T10:01:09.308Z</time>
      </trkpt>
      <trkpt lat="46.97238" lon="8.77151">
        <ele>634</ele>
        <time>2021-08-04T10:01:10.308Z</time>
      </trkpt>
      <trkpt lat="46.97238" lon="8.77149">
        <ele>634</ele>
        <time>2021-08-04T10:01:11.307Z</time>
      </trkpt>
      <trkpt lat="46.97237" lon="8.77147">
        <ele>634</ele>
        <time>2021-08-04T10:01:12.308Z</time>
      </trkpt>
      <trkpt lat="46.97234" lon="8.77146">
        <ele>633</ele>
        <time>2021-08-04T10:01:13.307Z</time>
      </trkpt>
      <trkpt lat="46.97233" lon="8.77145">
        <ele>633</ele>
        <time>2021-08-04T10:01:14.308Z</time>
      </trkpt>
      <trkpt lat="46.97233" lon="8.77145">
        <ele>632</ele>
        <time>2021-08-04T10:01:15.308Z</time>
      </trkpt>
      <trkpt lat="46.97231" lon="8.77145">
        <ele>632</ele>
        <time>2021-08-04T10:01:16.308Z</time>
      </trkpt>
      <trkpt lat="46.97232" lon="8.77143">
        <ele>631</ele>
        <time>2021-08-04T10:01:17.308Z</time>
      </trkpt>
      <trkpt lat="46.97232" lon="8.7714">
        <ele>631</ele>
        <time>2021-08-04T10:01:18.308Z</time>
      </trkpt>
      <trkpt lat="46.97231" lon="8.77139">
        <ele>631</ele>
        <time>2021-08-04T10:01:19.307Z</time>
      </trkpt>
      <trkpt lat="46.9723" lon="8.77138">
        <ele>630</ele>
        <time>2021-08-04T10:01:20.308Z</time>
      </trkpt>
      <trkpt lat="46.97228" lon="8.77137">
        <ele>630</ele>
        <time>2021-08-04T10:01:21.307Z</time>
      </trkpt>
      <trkpt lat="46.97227" lon="8.77136">
        <ele>630</ele>
        <time>2021-08-04T10:01:22.308Z</time>
      </trkpt>
      <trkpt lat="46.97225" lon="8.77136">
        <ele>629</ele>
        <time>2021-08-04T10:01:23.307Z</time>
      </trkpt>
      <trkpt lat="46.97223" lon="8.77136">
        <ele>629</ele>
        <time>2021-08-04T10:01:24.307Z</time>
      </trkpt>
      <trkpt lat="46.97221" lon="8.77136">
        <ele>629</ele>
        <time>2021-08-04T10:01:25.308Z</time>
      </trkpt>
      <trkpt lat="46.97218" lon="8.77137">
        <ele>629</ele>
        <time>2021-08-04T10:01:26.308Z</time>
      </trkpt>
      <trkpt lat="46.97216" lon="8.77137">
        <ele>629</ele>
        <time>2021-08-04T10:01:27.308Z</time>
      </trkpt>
      <trkpt lat="46.97214" lon="8.77137">
        <ele>628</ele>
        <time>2021-08-04T10:01:28.308Z</time>
      </trkpt>
      <trkpt lat="46.97214" lon="8.77137">
        <ele>628</ele>
        <time>2021-08-04T10:01:29.308Z</time>
      </trkpt>
      <trkpt lat="46.97215" lon="8.77136">
        <ele>628</ele>
        <time>2021-08-04T10:01:30.308Z</time>
      </trkpt>
      <trkpt lat="46.97215" lon="8.77135">
        <ele>627</ele>
        <time>2021-08-04T10:01:31.308Z</time>
      </trkpt>
      <trkpt lat="46.97216" lon="8.77134">
        <ele>627</ele>
        <time>2021-08-04T10:01:32.308Z</time>
      </trkpt>
      <trkpt lat="46.97217" lon="8.77133">
        <ele>626</ele>
        <time>2021-08-04T10:01:33.307Z</time>
      </trkpt>
      <trkpt lat="46.97217" lon="8.77132">
        <ele>626</ele>
        <time>2021-08-04T10:01:34.308Z</time>
      </trkpt>
      <trkpt lat="46.97217" lon="8.77131">
        <ele>625</ele>
        <time>2021-08-04T10:01:35.308Z</time>
      </trkpt>
      <trkpt lat="46.97217" lon="8.7713">
        <ele>624</ele>
        <time>2021-08-04T10:01:36.307Z</time>
      </trkpt>
      <trkpt lat="46.97218" lon="8.7713">
        <ele>624</ele>
        <time>2021-08-04T10:01:37.307Z</time>
      </trkpt>
      <trkpt lat="46.97218" lon="8.7713">
        <ele>623</ele>
        <time>2021-08-04T10:01:38.308Z</time>
      </trkpt>
      <trkpt lat="46.97218" lon="8.77129">
        <ele>623</ele>
        <time>2021-08-04T10:01:39.307Z</time>
      </trkpt>
      <trkpt lat="46.97222" lon="8.77131">
        <ele>626</ele>
        <time>2021-08-04T10:01:44.433Z</time>
      </trkpt>
      <trkpt lat="46.97222" lon="8.77131">
        <ele>626</ele>
        <time>2021-08-04T10:01:45.432Z</time>
      </trkpt>
      <trkpt lat="46.97222" lon="8.7713">
        <ele>626</ele>
        <time>2021-08-04T10:01:46.432Z</time>
      </trkpt>
      <trkpt lat="46.97222" lon="8.77129">
        <ele>626</ele>
        <time>2021-08-04T10:01:47.433Z</time>
      </trkpt>
      <trkpt lat="46.97221" lon="8.77127">
        <ele>626</ele>
        <time>2021-08-04T10:01:48.432Z</time>
      </trkpt>
      <trkpt lat="46.97222" lon="8.77127">
        <ele>626</ele>
        <time>2021-08-04T10:01:49.433Z</time>
      </trkpt>
      <trkpt lat="46.97222" lon="8.77127">
        <ele>627</ele>
        <time>2021-08-04T10:01:50.433Z</time>
      </trkpt>
      <trkpt lat="46.97221" lon="8.77126">
        <ele>627</ele>
        <time>2021-08-04T10:01:51.432Z</time>
      </trkpt>
      <trkpt lat="46.9722" lon="8.77125">
        <ele>627</ele>
        <time>2021-08-04T10:01:52.432Z</time>
      </trkpt>
      <trkpt lat="46.9722" lon="8.77124">
        <ele>626</ele>
        <time>2021-08-04T10:01:53.432Z</time>
      </trkpt>
      <trkpt lat="46.97219" lon="8.77123">
        <ele>627</ele>
        <time>2021-08-04T10:01:54.432Z</time>
      </trkpt>
      <trkpt lat="46.97218" lon="8.77123">
        <ele>627</ele>
        <time>2021-08-04T10:01:55.432Z</time>
      </trkpt>
      <trkpt lat="46.97218" lon="8.77123">
        <ele>627</ele>
        <time>2021-08-04T10:01:56.432Z</time>
      </trkpt>
      <trkpt lat="46.97217" lon="8.77123">
        <ele>627</ele>
        <time>2021-08-04T10:01:57.432Z</time>
      </trkpt>
      <trkpt lat="46.97216" lon="8.77123">
        <ele>627</ele>
        <time>2021-08-04T10:01:58.432Z</time>
      </trkpt>
      <trkpt lat="46.97216" lon="8.77122">
        <ele>627</ele>
        <time>2021-08-04T10:01:59.432Z</time>
      </trkpt>
      <trkpt lat="46.97216" lon="8.77122">
        <ele>627</ele>
        <time>2021-08-04T10:02:00.432Z</time>
      </trkpt>
      <trkpt lat="46.97216" lon="8.77122">
        <ele>628</ele>
        <time>2021-08-04T10:02:01.432Z</time>
      </trkpt>
      <trkpt lat="46.97216" lon="8.77122">
        <ele>628</ele>
        <time>2021-08-04T10:02:02.433Z</time>
      </trkpt>
      <trkpt lat="46.97217" lon="8.77121">
        <ele>631</ele>
        <time>2021-08-04T10:02:03.433Z</time>
      </trkpt>
      <trkpt lat="46.97217" lon="8.77121">
        <ele>631</ele>
        <time>2021-08-04T10:02:04.433Z</time>
      </trkpt>
      <trkpt lat="46.97217" lon="8.77121">
        <ele>632</ele>
        <time>2021-08-04T10:02:05.432Z</time>
      </trkpt>
      <trkpt lat="46.97218" lon="8.77121">
        <ele>632</ele>
        <time>2021-08-04T10:02:29.559Z</time>
      </trkpt>
      <trkpt lat="46.97218" lon="8.7712">
        <ele>633</ele>
        <time>2021-08-04T10:02:30.559Z</time>
      </trkpt>
      <trkpt lat="46.97219" lon="8.7712">
        <ele>633</ele>
        <time>2021-08-04T10:02:31.559Z</time>
      </trkpt>
      <trkpt lat="46.9722" lon="8.77119">
        <ele>633</ele>
        <time>2021-08-04T10:02:32.558Z</time>
      </trkpt>
      <trkpt lat="46.97221" lon="8.77119">
        <ele>633</ele>
        <time>2021-08-04T10:02:33.559Z</time>
      </trkpt>
      <trkpt lat="46.97222" lon="8.77118">
        <ele>633</ele>
        <time>2021-08-04T10:02:34.559Z</time>
      </trkpt>
      <trkpt lat="46.97222" lon="8.77118">
        <ele>633</ele>
        <time>2021-08-04T10:02:35.559Z</time>
      </trkpt>
      <trkpt lat="46.97222" lon="8.77117">
        <ele>633</ele>
        <time>2021-08-04T10:02:36.559Z</time>
      </trkpt>
      <trkpt lat="46.97222" lon="8.77118">
        <ele>633</ele>
        <time>2021-08-04T10:02:37.558Z</time>
      </trkpt>
      <trkpt lat="46.97224" lon="8.77117">
        <ele>632</ele>
        <time>2021-08-04T10:02:38.559Z</time>
      </trkpt>
      <trkpt lat="46.97224" lon="8.77117">
        <ele>632</ele>
        <time>2021-08-04T10:02:39.559Z</time>
      </trkpt>
      <trkpt lat="46.97224" lon="8.77116">
        <ele>632</ele>
        <time>2021-08-04T10:02:40.559Z</time>
      </trkpt>
      <trkpt lat="46.97224" lon="8.77116">
        <ele>632</ele>
        <time>2021-08-04T10:02:41.558Z</time>
      </trkpt>
      <trkpt lat="46.97223" lon="8.77116">
        <ele>632</ele>
        <time>2021-08-04T10:02:42.559Z</time>
      </trkpt>
      <trkpt lat="46.97223" lon="8.77115">
        <ele>632</ele>
        <time>2021-08-04T10:02:43.558Z</time>
      </trkpt>
      <trkpt lat="46.9722" lon="8.7711">
        <ele>637</ele>
        <time>2021-08-04T10:02:44.559Z</time>
      </trkpt>
      <trkpt lat="46.97219" lon="8.77109">
        <ele>637</ele>
        <time>2021-08-04T10:02:45.560Z</time>
      </trkpt>
      <trkpt lat="46.9722" lon="8.77109">
        <ele>637</ele>
        <time>2021-08-04T10:02:46.559Z</time>
      </trkpt>
      <trkpt lat="46.97222" lon="8.77105">
        <ele>638</ele>
        <time>2021-08-04T10:02:47.561Z</time>
      </trkpt>
      <trkpt lat="46.97222" lon="8.77105">
        <ele>638</ele>
        <time>2021-08-04T10:02:48.561Z</time>
      </trkpt>
      <trkpt lat="46.97223" lon="8.77105">
        <ele>639</ele>
        <time>2021-08-04T10:02:49.560Z</time>
      </trkpt>
      <trkpt lat="46.97223" lon="8.77105">
        <ele>639</ele>
        <time>2021-08-04T10:02:50.560Z</time>
      </trkpt>
      <trkpt lat="46.97223" lon="8.77106">
        <ele>639</ele>
        <time>2021-08-04T10:02:51.561Z</time>
      </trkpt>
      <trkpt lat="46.97222" lon="8.77105">
        <ele>637</ele>
        <time>2021-08-04T10:02:52.561Z</time>
      </trkpt>
      <trkpt lat="46.97223" lon="8.77105">
        <ele>637</ele>
        <time>2021-08-04T10:02:53.562Z</time>
      </trkpt>
      <trkpt lat="46.97223" lon="8.77104">
        <ele>636</ele>
        <time>2021-08-04T10:02:54.562Z</time>
      </trkpt>
      <trkpt lat="46.97224" lon="8.77104">
        <ele>636</ele>
        <time>2021-08-04T10:02:55.562Z</time>
      </trkpt>
      <trkpt lat="46.97224" lon="8.77102">
        <ele>635</ele>
        <time>2021-08-04T10:02:56.561Z</time>
      </trkpt>
      <trkpt lat="46.97224" lon="8.77101">
        <ele>635</ele>
        <time>2021-08-04T10:02:57.562Z</time>
      </trkpt>
      <trkpt lat="46.97224" lon="8.771">
        <ele>634</ele>
        <time>2021-08-04T10:02:58.562Z</time>
      </trkpt>
      <trkpt lat="46.97225" lon="8.77099">
        <ele>634</ele>
        <time>2021-08-04T10:02:59.561Z</time>
      </trkpt>
      <trkpt lat="46.97226" lon="8.77098">
        <ele>634</ele>
        <time>2021-08-04T10:03:00.562Z</time>
      </trkpt>
      <trkpt lat="46.97227" lon="8.77097">
        <ele>634</ele>
        <time>2021-08-04T10:03:01.562Z</time>
      </trkpt>
      <trkpt lat="46.97227" lon="8.77097">
        <ele>634</ele>
        <time>2021-08-04T10:03:02.562Z</time>
      </trkpt>
      <trkpt lat="46.97228" lon="8.77096">
        <ele>634</ele>
        <time>2021-08-04T10:03:03.562Z</time>
      </trkpt>
      <trkpt lat="46.97229" lon="8.77095">
        <ele>634</ele>
        <time>2021-08-04T10:03:04.562Z</time>
      </trkpt>
      <trkpt lat="46.97229" lon="8.77094">
        <ele>634</ele>
        <time>2021-08-04T10:03:05.562Z</time>
      </trkpt>
      <trkpt lat="46.9723" lon="8.77093">
        <ele>634</ele>
        <time>2021-08-04T10:03:06.562Z</time>
      </trkpt>
      <trkpt lat="46.97231" lon="8.77091">
        <ele>634</ele>
        <time>2021-08-04T10:03:09.674Z</time>
      </trkpt>
      <trkpt lat="46.97231" lon="8.7709">
        <ele>633</ele>
        <time>2021-08-04T10:03:10.674Z</time>
      </trkpt>
      <trkpt lat="46.97231" lon="8.77088">
        <ele>633</ele>
        <time>2021-08-04T10:03:11.673Z</time>
      </trkpt>
      <trkpt lat="46.97231" lon="8.77086">
        <ele>633</ele>
        <time>2021-08-04T10:03:12.674Z</time>
      </trkpt>
      <trkpt lat="46.97231" lon="8.77084">
        <ele>633</ele>
        <time>2021-08-04T10:03:13.674Z</time>
      </trkpt>
      <trkpt lat="46.97231" lon="8.77083">
        <ele>632</ele>
        <time>2021-08-04T10:03:14.674Z</time>
      </trkpt>
      <trkpt lat="46.97231" lon="8.77082">
        <ele>632</ele>
        <time>2021-08-04T10:03:15.673Z</time>
      </trkpt>
      <trkpt lat="46.97231" lon="8.77081">
        <ele>632</ele>
        <time>2021-08-04T10:03:16.673Z</time>
      </trkpt>
      <trkpt lat="46.9723" lon="8.7708">
        <ele>631</ele>
        <time>2021-08-04T10:03:17.674Z</time>
      </trkpt>
      <trkpt lat="46.9723" lon="8.77081">
        <ele>631</ele>
        <time>2021-08-04T10:03:18.674Z</time>
      </trkpt>
      <trkpt lat="46.9723" lon="8.77082">
        <ele>631</ele>
        <time>2021-08-04T10:03:19.673Z</time>
      </trkpt>
      <trkpt lat="46.9723" lon="8.77082">
        <ele>631</ele>
        <time>2021-08-04T10:03:20.674Z</time>
      </trkpt>
      <trkpt lat="46.97229" lon="8.77083">
        <ele>630</ele>
        <time>2021-08-04T10:03:21.674Z</time>
      </trkpt>
      <trkpt lat="46.97229" lon="8.77083">
        <ele>630</ele>
        <time>2021-08-04T10:03:22.673Z</time>
      </trkpt>
      <trkpt lat="46.97229" lon="8.77082">
        <ele>631</ele>
        <time>2021-08-04T10:03:23.674Z</time>
      </trkpt>
      <trkpt lat="46.97229" lon="8.7708">
        <ele>631</ele>
        <time>2021-08-04T10:03:24.673Z</time>
      </trkpt>
      <trkpt lat="46.97228" lon="8.77078">
        <ele>631</ele>
        <time>2021-08-04T10:03:25.674Z</time>
      </trkpt>
      <trkpt lat="46.97227" lon="8.77077">
        <ele>631</ele>
        <time>2021-08-04T10:03:26.674Z</time>
      </trkpt>
      <trkpt lat="46.97227" lon="8.77075">
        <ele>631</ele>
        <time>2021-08-04T10:03:27.674Z</time>
      </trkpt>
      <trkpt lat="46.97227" lon="8.77073">
        <ele>632</ele>
        <time>2021-08-04T10:03:28.674Z</time>
      </trkpt>
      <trkpt lat="46.97228" lon="8.77071">
        <ele>632</ele>
        <time>2021-08-04T10:03:29.673Z</time>
      </trkpt>
      <trkpt lat="46.97227" lon="8.7707">
        <ele>632</ele>
        <time>2021-08-04T10:03:30.674Z</time>
      </trkpt>
      <trkpt lat="46.97227" lon="8.77068">
        <ele>632</ele>
        <time>2021-08-04T10:03:31.673Z</time>
      </trkpt>
      <trkpt lat="46.97227" lon="8.77067">
        <ele>632</ele>
        <time>2021-08-04T10:03:32.674Z</time>
      </trkpt>
      <trkpt lat="46.97227" lon="8.77065">
        <ele>631</ele>
        <time>2021-08-04T10:03:33.674Z</time>
      </trkpt>
      <trkpt lat="46.97228" lon="8.77063">
        <ele>631</ele>
        <time>2021-08-04T10:03:34.674Z</time>
      </trkpt>
      <trkpt lat="46.97227" lon="8.77062">
        <ele>631</ele>
        <time>2021-08-04T10:03:35.673Z</time>
      </trkpt>
      <trkpt lat="46.97228" lon="8.7706">
        <ele>631</ele>
        <time>2021-08-04T10:03:36.674Z</time>
      </trkpt>
      <trkpt lat="46.97227" lon="8.77059">
        <ele>631</ele>
        <time>2021-08-04T10:03:37.674Z</time>
      </trkpt>
      <trkpt lat="46.97227" lon="8.77057">
        <ele>631</ele>
        <time>2021-08-04T10:03:38.674Z</time>
      </trkpt>
      <trkpt lat="46.97226" lon="8.77055">
        <ele>631</ele>
        <time>2021-08-04T10:03:39.674Z</time>
      </trkpt>
      <trkpt lat="46.97226" lon="8.77054">
        <ele>630</ele>
        <time>2021-08-04T10:03:40.674Z</time>
      </trkpt>
      <trkpt lat="46.97226" lon="8.77052">
        <ele>630</ele>
        <time>2021-08-04T10:03:41.674Z</time>
      </trkpt>
      <trkpt lat="46.97226" lon="8.7705">
        <ele>630</ele>
        <time>2021-08-04T10:03:42.674Z</time>
      </trkpt>
      <trkpt lat="46.97226" lon="8.77048">
        <ele>630</ele>
        <time>2021-08-04T10:03:43.673Z</time>
      </trkpt>
      <trkpt lat="46.97226" lon="8.77046">
        <ele>630</ele>
        <time>2021-08-04T10:03:44.674Z</time>
      </trkpt>
      <trkpt lat="46.97226" lon="8.77044">
        <ele>631</ele>
        <time>2021-08-04T10:03:45.674Z</time>
      </trkpt>
      <trkpt lat="46.97227" lon="8.77041">
        <ele>631</ele>
        <time>2021-08-04T10:03:46.674Z</time>
      </trkpt>
      <trkpt lat="46.97228" lon="8.77039">
        <ele>631</ele>
        <time>2021-08-04T10:03:47.674Z</time>
      </trkpt>
      <trkpt lat="46.97229" lon="8.77038">
        <ele>631</ele>
        <time>2021-08-04T10:03:48.673Z</time>
      </trkpt>
      <trkpt lat="46.97229" lon="8.77036">
        <ele>631</ele>
        <time>2021-08-04T10:03:49.673Z</time>
      </trkpt>
      <trkpt lat="46.97229" lon="8.77035">
        <ele>630</ele>
        <time>2021-08-04T10:03:50.673Z</time>
      </trkpt>
      <trkpt lat="46.97229" lon="8.77033">
        <ele>630</ele>
        <time>2021-08-04T10:03:51.673Z</time>
      </trkpt>
      <trkpt lat="46.97229" lon="8.77032">
        <ele>630</ele>
        <time>2021-08-04T10:03:52.674Z</time>
      </trkpt>
      <trkpt lat="46.97229" lon="8.77031">
        <ele>629</ele>
        <time>2021-08-04T10:03:53.673Z</time>
      </trkpt>
      <trkpt lat="46.97229" lon="8.77029">
        <ele>628</ele>
        <time>2021-08-04T10:03:54.673Z</time>
      </trkpt>
      <trkpt lat="46.97229" lon="8.77027">
        <ele>628</ele>
        <time>2021-08-04T10:03:55.673Z</time>
      </trkpt>
      <trkpt lat="46.97229" lon="8.77026">
        <ele>627</ele>
        <time>2021-08-04T10:03:56.673Z</time>
      </trkpt>
      <trkpt lat="46.9723" lon="8.77024">
        <ele>627</ele>
        <time>2021-08-04T10:03:57.673Z</time>
      </trkpt>
      <trkpt lat="46.9723" lon="8.77022">
        <ele>627</ele>
        <time>2021-08-04T10:03:58.673Z</time>
      </trkpt>
      <trkpt lat="46.9723" lon="8.7702">
        <ele>627</ele>
        <time>2021-08-04T10:03:59.674Z</time>
      </trkpt>
      <trkpt lat="46.9723" lon="8.77018">
        <ele>627</ele>
        <time>2021-08-04T10:04:00.674Z</time>
      </trkpt>
      <trkpt lat="46.9723" lon="8.77017">
        <ele>626</ele>
        <time>2021-08-04T10:04:01.674Z</time>
      </trkpt>
      <trkpt lat="46.9723" lon="8.77015">
        <ele>626</ele>
        <time>2021-08-04T10:04:02.674Z</time>
      </trkpt>
      <trkpt lat="46.97231" lon="8.77013">
        <ele>626</ele>
        <time>2021-08-04T10:04:03.673Z</time>
      </trkpt>
      <trkpt lat="46.9723" lon="8.77012">
        <ele>626</ele>
        <time>2021-08-04T10:04:04.673Z</time>
      </trkpt>
      <trkpt lat="46.9723" lon="8.7701">
        <ele>625</ele>
        <time>2021-08-04T10:04:05.673Z</time>
      </trkpt>
      <trkpt lat="46.97231" lon="8.77008">
        <ele>625</ele>
        <time>2021-08-04T10:04:06.673Z</time>
      </trkpt>
      <trkpt lat="46.97231" lon="8.77005">
        <ele>625</ele>
        <time>2021-08-04T10:04:07.673Z</time>
      </trkpt>
      <trkpt lat="46.97231" lon="8.77004">
        <ele>625</ele>
        <time>2021-08-04T10:04:08.673Z</time>
      </trkpt>
      <trkpt lat="46.97231" lon="8.77003">
        <ele>625</ele>
        <time>2021-08-04T10:04:09.673Z</time>
      </trkpt>
      <trkpt lat="46.97231" lon="8.77001">
        <ele>625</ele>
        <time>2021-08-04T10:04:10.673Z</time>
      </trkpt>
      <trkpt lat="46.97231" lon="8.76999">
        <ele>625</ele>
        <time>2021-08-04T10:04:11.673Z</time>
      </trkpt>
      <trkpt lat="46.97231" lon="8.76997">
        <ele>625</ele>
        <time>2021-08-04T10:04:12.673Z</time>
      </trkpt>
      <trkpt lat="46.9723" lon="8.76995">
        <ele>625</ele>
        <time>2021-08-04T10:04:13.673Z</time>
      </trkpt>
      <trkpt lat="46.9723" lon="8.76993">
        <ele>625</ele>
        <time>2021-08-04T10:04:14.673Z</time>
      </trkpt>
      <trkpt lat="46.97229" lon="8.76992">
        <ele>625</ele>
        <time>2021-08-04T10:04:15.673Z</time>
      </trkpt>
      <trkpt lat="46.97228" lon="8.7699">
        <ele>625</ele>
        <time>2021-08-04T10:04:16.674Z</time>
      </trkpt>
      <trkpt lat="46.97228" lon="8.76988">
        <ele>625</ele>
        <time>2021-08-04T10:04:17.674Z</time>
      </trkpt>
      <trkpt lat="46.97229" lon="8.76987">
        <ele>624</ele>
        <time>2021-08-04T10:04:18.673Z</time>
      </trkpt>
      <trkpt lat="46.97229" lon="8.76985">
        <ele>624</ele>
        <time>2021-08-04T10:04:19.674Z</time>
      </trkpt>
      <trkpt lat="46.9723" lon="8.76982">
        <ele>624</ele>
        <time>2021-08-04T10:04:20.674Z</time>
      </trkpt>
      <trkpt lat="46.9723" lon="8.7698">
        <ele>624</ele>
        <time>2021-08-04T10:04:21.674Z</time>
      </trkpt>
      <trkpt lat="46.97231" lon="8.76979">
        <ele>624</ele>
        <time>2021-08-04T10:04:22.674Z</time>
      </trkpt>
      <trkpt lat="46.97231" lon="8.76977">
        <ele>624</ele>
        <time>2021-08-04T10:04:23.674Z</time>
      </trkpt>
      <trkpt lat="46.97231" lon="8.76975">
        <ele>624</ele>
        <time>2021-08-04T10:04:24.674Z</time>
      </trkpt>
      <trkpt lat="46.97232" lon="8.76973">
        <ele>624</ele>
        <time>2021-08-04T10:04:25.674Z</time>
      </trkpt>
      <trkpt lat="46.97232" lon="8.76972">
        <ele>625</ele>
        <time>2021-08-04T10:04:26.674Z</time>
      </trkpt>
      <trkpt lat="46.97231" lon="8.7697">
        <ele>625</ele>
        <time>2021-08-04T10:04:27.674Z</time>
      </trkpt>
      <trkpt lat="46.97231" lon="8.76969">
        <ele>625</ele>
        <time>2021-08-04T10:04:28.673Z</time>
      </trkpt>
      <trkpt lat="46.9723" lon="8.76967">
        <ele>626</ele>
        <time>2021-08-04T10:04:29.674Z</time>
      </trkpt>
      <trkpt lat="46.9723" lon="8.76966">
        <ele>626</ele>
        <time>2021-08-04T10:04:30.673Z</time>
      </trkpt>
      <trkpt lat="46.9723" lon="8.76964">
        <ele>626</ele>
        <time>2021-08-04T10:04:31.674Z</time>
      </trkpt>
      <trkpt lat="46.9723" lon="8.76962">
        <ele>626</ele>
        <time>2021-08-04T10:04:32.674Z</time>
      </trkpt>
      <trkpt lat="46.9723" lon="8.76961">
        <ele>626</ele>
        <time>2021-08-04T10:04:33.673Z</time>
      </trkpt>
      <trkpt lat="46.9723" lon="8.76959">
        <ele>627</ele>
        <time>2021-08-04T10:04:34.673Z</time>
      </trkpt>
      <trkpt lat="46.97231" lon="8.76957">
        <ele>627</ele>
        <time>2021-08-04T10:04:35.674Z</time>
      </trkpt>
      <trkpt lat="46.97231" lon="8.76955">
        <ele>627</ele>
        <time>2021-08-04T10:04:36.674Z</time>
      </trkpt>
      <trkpt lat="46.97231" lon="8.76953">
        <ele>627</ele>
        <time>2021-08-04T10:04:37.674Z</time>
      </trkpt>
      <trkpt lat="46.97231" lon="8.76952">
        <ele>627</ele>
        <time>2021-08-04T10:04:38.674Z</time>
      </trkpt>
      <trkpt lat="46.97231" lon="8.7695">
        <ele>628</ele>
        <time>2021-08-04T10:04:39.674Z</time>
      </trkpt>
      <trkpt lat="46.97231" lon="8.76949">
        <ele>628</ele>
        <time>2021-08-04T10:04:40.674Z</time>
      </trkpt>
      <trkpt lat="46.97231" lon="8.76947">
        <ele>627</ele>
        <time>2021-08-04T10:04:41.673Z</time>
      </trkpt>
      <trkpt lat="46.97232" lon="8.76945">
        <ele>627</ele>
        <time>2021-08-04T10:04:42.674Z</time>
      </trkpt>
      <trkpt lat="46.97232" lon="8.76942">
        <ele>627</ele>
        <time>2021-08-04T10:04:43.674Z</time>
      </trkpt>
      <trkpt lat="46.97232" lon="8.7694">
        <ele>627</ele>
        <time>2021-08-04T10:04:44.673Z</time>
      </trkpt>
      <trkpt lat="46.97233" lon="8.76937">
        <ele>627</ele>
        <time>2021-08-04T10:04:45.674Z</time>
      </trkpt>
      <trkpt lat="46.97234" lon="8.76935">
        <ele>627</ele>
        <time>2021-08-04T10:04:46.673Z</time>
      </trkpt>
      <trkpt lat="46.97234" lon="8.76933">
        <ele>626</ele>
        <time>2021-08-04T10:04:47.674Z</time>
      </trkpt>
      <trkpt lat="46.97233" lon="8.76932">
        <ele>626</ele>
        <time>2021-08-04T10:04:48.673Z</time>
      </trkpt>
      <trkpt lat="46.97234" lon="8.7693">
        <ele>626</ele>
        <time>2021-08-04T10:04:49.674Z</time>
      </trkpt>
      <trkpt lat="46.97234" lon="8.76928">
        <ele>626</ele>
        <time>2021-08-04T10:04:50.673Z</time>
      </trkpt>
      <trkpt lat="46.97234" lon="8.76926">
        <ele>626</ele>
        <time>2021-08-04T10:04:51.673Z</time>
      </trkpt>
      <trkpt lat="46.97235" lon="8.76924">
        <ele>626</ele>
        <time>2021-08-04T10:04:52.674Z</time>
      </trkpt>
      <trkpt lat="46.97235" lon="8.76922">
        <ele>626</ele>
        <time>2021-08-04T10:04:53.673Z</time>
      </trkpt>
      <trkpt lat="46.97235" lon="8.7692">
        <ele>626</ele>
        <time>2021-08-04T10:04:54.674Z</time>
      </trkpt>
      <trkpt lat="46.97235" lon="8.76918">
        <ele>626</ele>
        <time>2021-08-04T10:04:55.673Z</time>
      </trkpt>
      <trkpt lat="46.97236" lon="8.76916">
        <ele>626</ele>
        <time>2021-08-04T10:04:56.673Z</time>
      </trkpt>
      <trkpt lat="46.97238" lon="8.76914">
        <ele>626</ele>
        <time>2021-08-04T10:04:57.674Z</time>
      </trkpt>
      <trkpt lat="46.97238" lon="8.76911">
        <ele>626</ele>
        <time>2021-08-04T10:04:58.673Z</time>
      </trkpt>
      <trkpt lat="46.97238" lon="8.76909">
        <ele>625</ele>
        <time>2021-08-04T10:04:59.674Z</time>
      </trkpt>
      <trkpt lat="46.97237" lon="8.76907">
        <ele>625</ele>
        <time>2021-08-04T10:05:00.674Z</time>
      </trkpt>
      <trkpt lat="46.97237" lon="8.76906">
        <ele>624</ele>
        <time>2021-08-04T10:05:01.674Z</time>
      </trkpt>
      <trkpt lat="46.97237" lon="8.76904">
        <ele>624</ele>
        <time>2021-08-04T10:05:02.673Z</time>
      </trkpt>
      <trkpt lat="46.97237" lon="8.76901">
        <ele>624</ele>
        <time>2021-08-04T10:05:03.674Z</time>
      </trkpt>
      <trkpt lat="46.97238" lon="8.76899">
        <ele>624</ele>
        <time>2021-08-04T10:05:04.674Z</time>
      </trkpt>
      <trkpt lat="46.97238" lon="8.76897">
        <ele>623</ele>
        <time>2021-08-04T10:05:05.674Z</time>
      </trkpt>
      <trkpt lat="46.97238" lon="8.76895">
        <ele>623</ele>
        <time>2021-08-04T10:05:06.674Z</time>
      </trkpt>
      <trkpt lat="46.97238" lon="8.76893">
        <ele>623</ele>
        <time>2021-08-04T10:05:07.674Z</time>
      </trkpt>
      <trkpt lat="46.97238" lon="8.76891">
        <ele>623</ele>
        <time>2021-08-04T10:05:08.673Z</time>
      </trkpt>
      <trkpt lat="46.97238" lon="8.76889">
        <ele>622</ele>
        <time>2021-08-04T10:05:09.673Z</time>
      </trkpt>
      <trkpt lat="46.97238" lon="8.76887">
        <ele>622</ele>
        <time>2021-08-04T10:05:10.674Z</time>
      </trkpt>
      <trkpt lat="46.97238" lon="8.76885">
        <ele>622</ele>
        <time>2021-08-04T10:05:11.674Z</time>
      </trkpt>
      <trkpt lat="46.97238" lon="8.76883">
        <ele>622</ele>
        <time>2021-08-04T10:05:12.674Z</time>
      </trkpt>
      <trkpt lat="46.97239" lon="8.76882">
        <ele>621</ele>
        <time>2021-08-04T10:05:13.673Z</time>
      </trkpt>
      <trkpt lat="46.97239" lon="8.7688">
        <ele>621</ele>
        <time>2021-08-04T10:05:14.674Z</time>
      </trkpt>
      <trkpt lat="46.97239" lon="8.76878">
        <ele>621</ele>
        <time>2021-08-04T10:05:15.674Z</time>
      </trkpt>
      <trkpt lat="46.97239" lon="8.76876">
        <ele>621</ele>
        <time>2021-08-04T10:05:16.673Z</time>
      </trkpt>
      <trkpt lat="46.9724" lon="8.76874">
        <ele>621</ele>
        <time>2021-08-04T10:05:17.673Z</time>
      </trkpt>
      <trkpt lat="46.9724" lon="8.76873">
        <ele>621</ele>
        <time>2021-08-04T10:05:18.674Z</time>
      </trkpt>
      <trkpt lat="46.9724" lon="8.76871">
        <ele>621</ele>
        <time>2021-08-04T10:05:19.674Z</time>
      </trkpt>
      <trkpt lat="46.97239" lon="8.76869">
        <ele>621</ele>
        <time>2021-08-04T10:05:20.674Z</time>
      </trkpt>
      <trkpt lat="46.97239" lon="8.76867">
        <ele>621</ele>
        <time>2021-08-04T10:05:21.673Z</time>
      </trkpt>
      <trkpt lat="46.97239" lon="8.76865">
        <ele>620</ele>
        <time>2021-08-04T10:05:22.674Z</time>
      </trkpt>
      <trkpt lat="46.97239" lon="8.76863">
        <ele>620</ele>
        <time>2021-08-04T10:05:23.674Z</time>
      </trkpt>
      <trkpt lat="46.97238" lon="8.76861">
        <ele>620</ele>
        <time>2021-08-04T10:05:24.673Z</time>
      </trkpt>
      <trkpt lat="46.97238" lon="8.76859">
        <ele>621</ele>
        <time>2021-08-04T10:05:25.673Z</time>
      </trkpt>
      <trkpt lat="46.97238" lon="8.76857">
        <ele>621</ele>
        <time>2021-08-04T10:05:26.674Z</time>
      </trkpt>
      <trkpt lat="46.97237" lon="8.76855">
        <ele>621</ele>
        <time>2021-08-04T10:05:27.673Z</time>
      </trkpt>
      <trkpt lat="46.97236" lon="8.76853">
        <ele>621</ele>
        <time>2021-08-04T10:05:28.673Z</time>
      </trkpt>
      <trkpt lat="46.97236" lon="8.76852">
        <ele>622</ele>
        <time>2021-08-04T10:05:29.673Z</time>
      </trkpt>
      <trkpt lat="46.97236" lon="8.76851">
        <ele>622</ele>
        <time>2021-08-04T10:05:30.673Z</time>
      </trkpt>
      <trkpt lat="46.97236" lon="8.7685">
        <ele>622</ele>
        <time>2021-08-04T10:05:31.674Z</time>
      </trkpt>
      <trkpt lat="46.97236" lon="8.76848">
        <ele>622</ele>
        <time>2021-08-04T10:05:32.673Z</time>
      </trkpt>
      <trkpt lat="46.97236" lon="8.76846">
        <ele>622</ele>
        <time>2021-08-04T10:05:33.673Z</time>
      </trkpt>
      <trkpt lat="46.97236" lon="8.76844">
        <ele>622</ele>
        <time>2021-08-04T10:05:34.673Z</time>
      </trkpt>
      <trkpt lat="46.97237" lon="8.76842">
        <ele>622</ele>
        <time>2021-08-04T10:05:35.673Z</time>
      </trkpt>
      <trkpt lat="46.97237" lon="8.76841">
        <ele>622</ele>
        <time>2021-08-04T10:05:36.674Z</time>
      </trkpt>
      <trkpt lat="46.97237" lon="8.76839">
        <ele>622</ele>
        <time>2021-08-04T10:05:37.674Z</time>
      </trkpt>
      <trkpt lat="46.97237" lon="8.76837">
        <ele>621</ele>
        <time>2021-08-04T10:05:38.673Z</time>
      </trkpt>
      <trkpt lat="46.97237" lon="8.76834">
        <ele>621</ele>
        <time>2021-08-04T10:05:39.674Z</time>
      </trkpt>
      <trkpt lat="46.97237" lon="8.76832">
        <ele>621</ele>
        <time>2021-08-04T10:05:40.674Z</time>
      </trkpt>
      <trkpt lat="46.97237" lon="8.7683">
        <ele>620</ele>
        <time>2021-08-04T10:05:41.673Z</time>
      </trkpt>
      <trkpt lat="46.97237" lon="8.76829">
        <ele>620</ele>
        <time>2021-08-04T10:05:42.674Z</time>
      </trkpt>
      <trkpt lat="46.97238" lon="8.76827">
        <ele>620</ele>
        <time>2021-08-04T10:05:43.673Z</time>
      </trkpt>
      <trkpt lat="46.97238" lon="8.76825">
        <ele>620</ele>
        <time>2021-08-04T10:05:44.674Z</time>
      </trkpt>
      <trkpt lat="46.97239" lon="8.76823">
        <ele>620</ele>
        <time>2021-08-04T10:05:45.674Z</time>
      </trkpt>
      <trkpt lat="46.97239" lon="8.76821">
        <ele>620</ele>
        <time>2021-08-04T10:05:46.674Z</time>
      </trkpt>
      <trkpt lat="46.97239" lon="8.7682">
        <ele>620</ele>
        <time>2021-08-04T10:05:47.674Z</time>
      </trkpt>
      <trkpt lat="46.97239" lon="8.76818">
        <ele>620</ele>
        <time>2021-08-04T10:05:48.674Z</time>
      </trkpt>
      <trkpt lat="46.9724" lon="8.76816">
        <ele>620</ele>
        <time>2021-08-04T10:05:49.674Z</time>
      </trkpt>
      <trkpt lat="46.97241" lon="8.76814">
        <ele>620</ele>
        <time>2021-08-04T10:05:50.673Z</time>
      </trkpt>
      <trkpt lat="46.97241" lon="8.76811">
        <ele>620</ele>
        <time>2021-08-04T10:05:51.673Z</time>
      </trkpt>
      <trkpt lat="46.97242" lon="8.76809">
        <ele>620</ele>
        <time>2021-08-04T10:05:52.674Z</time>
      </trkpt>
      <trkpt lat="46.97242" lon="8.76807">
        <ele>621</ele>
        <time>2021-08-04T10:05:53.674Z</time>
      </trkpt>
      <trkpt lat="46.97243" lon="8.76806">
        <ele>621</ele>
        <time>2021-08-04T10:05:54.674Z</time>
      </trkpt>
      <trkpt lat="46.97243" lon="8.76804">
        <ele>621</ele>
        <time>2021-08-04T10:05:55.674Z</time>
      </trkpt>
      <trkpt lat="46.97243" lon="8.76802">
        <ele>621</ele>
        <time>2021-08-04T10:05:56.674Z</time>
      </trkpt>
      <trkpt lat="46.97243" lon="8.768">
        <ele>622</ele>
        <time>2021-08-04T10:05:57.673Z</time>
      </trkpt>
      <trkpt lat="46.97243" lon="8.76798">
        <ele>622</ele>
        <time>2021-08-04T10:05:58.674Z</time>
      </trkpt>
      <trkpt lat="46.97242" lon="8.76797">
        <ele>622</ele>
        <time>2021-08-04T10:05:59.674Z</time>
      </trkpt>
      <trkpt lat="46.97242" lon="8.76795">
        <ele>622</ele>
        <time>2021-08-04T10:06:00.674Z</time>
      </trkpt>
      <trkpt lat="46.97242" lon="8.76793">
        <ele>623</ele>
        <time>2021-08-04T10:06:01.674Z</time>
      </trkpt>
      <trkpt lat="46.97241" lon="8.76791">
        <ele>623</ele>
        <time>2021-08-04T10:06:02.674Z</time>
      </trkpt>
      <trkpt lat="46.97241" lon="8.76789">
        <ele>623</ele>
        <time>2021-08-04T10:06:03.673Z</time>
      </trkpt>
      <trkpt lat="46.97241" lon="8.76786">
        <ele>623</ele>
        <time>2021-08-04T10:06:04.674Z</time>
      </trkpt>
      <trkpt lat="46.97241" lon="8.76784">
        <ele>623</ele>
        <time>2021-08-04T10:06:05.673Z</time>
      </trkpt>
      <trkpt lat="46.97241" lon="8.76782">
        <ele>623</ele>
        <time>2021-08-04T10:06:06.674Z</time>
      </trkpt>
      <trkpt lat="46.97242" lon="8.76779">
        <ele>623</ele>
        <time>2021-08-04T10:06:07.674Z</time>
      </trkpt>
      <trkpt lat="46.97242" lon="8.76777">
        <ele>624</ele>
        <time>2021-08-04T10:06:08.674Z</time>
      </trkpt>
      <trkpt lat="46.97243" lon="8.76775">
        <ele>624</ele>
        <time>2021-08-04T10:06:09.674Z</time>
      </trkpt>
      <trkpt lat="46.97243" lon="8.76773">
        <ele>624</ele>
        <time>2021-08-04T10:06:10.673Z</time>
      </trkpt>
      <trkpt lat="46.97244" lon="8.76771">
        <ele>624</ele>
        <time>2021-08-04T10:06:11.673Z</time>
      </trkpt>
      <trkpt lat="46.97244" lon="8.7677">
        <ele>624</ele>
        <time>2021-08-04T10:06:12.674Z</time>
      </trkpt>
      <trkpt lat="46.97244" lon="8.76768">
        <ele>624</ele>
        <time>2021-08-04T10:06:13.674Z</time>
      </trkpt>
      <trkpt lat="46.97244" lon="8.76766">
        <ele>624</ele>
        <time>2021-08-04T10:06:14.674Z</time>
      </trkpt>
      <trkpt lat="46.97244" lon="8.76765">
        <ele>624</ele>
        <time>2021-08-04T10:06:15.674Z</time>
      </trkpt>
      <trkpt lat="46.97244" lon="8.76763">
        <ele>625</ele>
        <time>2021-08-04T10:06:16.673Z</time>
      </trkpt>
      <trkpt lat="46.97244" lon="8.76762">
        <ele>625</ele>
        <time>2021-08-04T10:06:17.673Z</time>
      </trkpt>
      <trkpt lat="46.97244" lon="8.7676">
        <ele>625</ele>
        <time>2021-08-04T10:06:18.673Z</time>
      </trkpt>
      <trkpt lat="46.97245" lon="8.76759">
        <ele>625</ele>
        <time>2021-08-04T10:06:19.674Z</time>
      </trkpt>
      <trkpt lat="46.97244" lon="8.76757">
        <ele>624</ele>
        <time>2021-08-04T10:06:20.674Z</time>
      </trkpt>
      <trkpt lat="46.97244" lon="8.76754">
        <ele>624</ele>
        <time>2021-08-04T10:06:21.674Z</time>
      </trkpt>
      <trkpt lat="46.97244" lon="8.76752">
        <ele>624</ele>
        <time>2021-08-04T10:06:22.674Z</time>
      </trkpt>
      <trkpt lat="46.97244" lon="8.76749">
        <ele>624</ele>
        <time>2021-08-04T10:06:23.673Z</time>
      </trkpt>
      <trkpt lat="46.97244" lon="8.76746">
        <ele>625</ele>
        <time>2021-08-04T10:06:24.673Z</time>
      </trkpt>
      <trkpt lat="46.97244" lon="8.76744">
        <ele>625</ele>
        <time>2021-08-04T10:06:25.674Z</time>
      </trkpt>
      <trkpt lat="46.97244" lon="8.76742">
        <ele>625</ele>
        <time>2021-08-04T10:06:26.674Z</time>
      </trkpt>
      <trkpt lat="46.97245" lon="8.76741">
        <ele>624</ele>
        <time>2021-08-04T10:06:27.674Z</time>
      </trkpt>
      <trkpt lat="46.97245" lon="8.76739">
        <ele>624</ele>
        <time>2021-08-04T10:06:28.674Z</time>
      </trkpt>
      <trkpt lat="46.97245" lon="8.76737">
        <ele>624</ele>
        <time>2021-08-04T10:06:29.674Z</time>
      </trkpt>
      <trkpt lat="46.97245" lon="8.76735">
        <ele>624</ele>
        <time>2021-08-04T10:06:30.674Z</time>
      </trkpt>
      <trkpt lat="46.97245" lon="8.76734">
        <ele>624</ele>
        <time>2021-08-04T10:06:31.674Z</time>
      </trkpt>
      <trkpt lat="46.97246" lon="8.76732">
        <ele>625</ele>
        <time>2021-08-04T10:06:32.674Z</time>
      </trkpt>
      <trkpt lat="46.97246" lon="8.7673">
        <ele>625</ele>
        <time>2021-08-04T10:06:33.674Z</time>
      </trkpt>
      <trkpt lat="46.97247" lon="8.76728">
        <ele>625</ele>
        <time>2021-08-04T10:06:34.674Z</time>
      </trkpt>
      <trkpt lat="46.97247" lon="8.76727">
        <ele>625</ele>
        <time>2021-08-04T10:06:35.674Z</time>
      </trkpt>
      <trkpt lat="46.97247" lon="8.76725">
        <ele>625</ele>
        <time>2021-08-04T10:06:36.674Z</time>
      </trkpt>
      <trkpt lat="46.97247" lon="8.76723">
        <ele>625</ele>
        <time>2021-08-04T10:06:37.673Z</time>
      </trkpt>
      <trkpt lat="46.97247" lon="8.76721">
        <ele>625</ele>
        <time>2021-08-04T10:06:38.674Z</time>
      </trkpt>
      <trkpt lat="46.97247" lon="8.7672">
        <ele>625</ele>
        <time>2021-08-04T10:06:39.673Z</time>
      </trkpt>
      <trkpt lat="46.97248" lon="8.76718">
        <ele>625</ele>
        <time>2021-08-04T10:06:40.674Z</time>
      </trkpt>
      <trkpt lat="46.97248" lon="8.76716">
        <ele>625</ele>
        <time>2021-08-04T10:06:41.674Z</time>
      </trkpt>
      <trkpt lat="46.97248" lon="8.76714">
        <ele>624</ele>
        <time>2021-08-04T10:06:51.809Z</time>
      </trkpt>
      <trkpt lat="46.97248" lon="8.76712">
        <ele>625</ele>
        <time>2021-08-04T10:06:52.809Z</time>
      </trkpt>
      <trkpt lat="46.97248" lon="8.7671">
        <ele>624</ele>
        <time>2021-08-04T10:06:53.809Z</time>
      </trkpt>
      <trkpt lat="46.97247" lon="8.76709">
        <ele>624</ele>
        <time>2021-08-04T10:06:55.902Z</time>
      </trkpt>
      <trkpt lat="46.97247" lon="8.76708">
        <ele>624</ele>
        <time>2021-08-04T10:06:56.903Z</time>
      </trkpt>
      <trkpt lat="46.97247" lon="8.76706">
        <ele>624</ele>
        <time>2021-08-04T10:06:57.903Z</time>
      </trkpt>
      <trkpt lat="46.97246" lon="8.76705">
        <ele>624</ele>
        <time>2021-08-04T10:06:58.903Z</time>
      </trkpt>
      <trkpt lat="46.97245" lon="8.76704">
        <ele>623</ele>
        <time>2021-08-04T10:06:59.903Z</time>
      </trkpt>
      <trkpt lat="46.97245" lon="8.76702">
        <ele>624</ele>
        <time>2021-08-04T10:07:00.902Z</time>
      </trkpt>
      <trkpt lat="46.97245" lon="8.767">
        <ele>624</ele>
        <time>2021-08-04T10:07:01.903Z</time>
      </trkpt>
      <trkpt lat="46.97246" lon="8.767">
        <ele>624</ele>
        <time>2021-08-04T10:07:02.903Z</time>
      </trkpt>
      <trkpt lat="46.97246" lon="8.76698">
        <ele>624</ele>
        <time>2021-08-04T10:07:03.903Z</time>
      </trkpt>
      <trkpt lat="46.97248" lon="8.76697">
        <ele>624</ele>
        <time>2021-08-04T10:07:04.903Z</time>
      </trkpt>
      <trkpt lat="46.97249" lon="8.76696">
        <ele>624</ele>
        <time>2021-08-04T10:07:05.903Z</time>
      </trkpt>
      <trkpt lat="46.9725" lon="8.76694">
        <ele>623</ele>
        <time>2021-08-04T10:07:06.903Z</time>
      </trkpt>
      <trkpt lat="46.9725" lon="8.76693">
        <ele>623</ele>
        <time>2021-08-04T10:07:07.902Z</time>
      </trkpt>
      <trkpt lat="46.97251" lon="8.76692">
        <ele>623</ele>
        <time>2021-08-04T10:07:08.903Z</time>
      </trkpt>
      <trkpt lat="46.97251" lon="8.7669">
        <ele>623</ele>
        <time>2021-08-04T10:07:09.903Z</time>
      </trkpt>
      <trkpt lat="46.97251" lon="8.7669">
        <ele>622</ele>
        <time>2021-08-04T10:07:10.902Z</time>
      </trkpt>
      <trkpt lat="46.97251" lon="8.76689">
        <ele>622</ele>
        <time>2021-08-04T10:07:11.903Z</time>
      </trkpt>
      <trkpt lat="46.97251" lon="8.76687">
        <ele>621</ele>
        <time>2021-08-04T10:07:12.903Z</time>
      </trkpt>
      <trkpt lat="46.97251" lon="8.76686">
        <ele>621</ele>
        <time>2021-08-04T10:07:13.903Z</time>
      </trkpt>
      <trkpt lat="46.97251" lon="8.76685">
        <ele>621</ele>
        <time>2021-08-04T10:07:14.903Z</time>
      </trkpt>
      <trkpt lat="46.97251" lon="8.76683">
        <ele>620</ele>
        <time>2021-08-04T10:07:15.903Z</time>
      </trkpt>
      <trkpt lat="46.97251" lon="8.76682">
        <ele>620</ele>
        <time>2021-08-04T10:07:16.902Z</time>
      </trkpt>
      <trkpt lat="46.9725" lon="8.7668">
        <ele>620</ele>
        <time>2021-08-04T10:07:17.903Z</time>
      </trkpt>
      <trkpt lat="46.9725" lon="8.76677">
        <ele>620</ele>
        <time>2021-08-04T10:07:18.902Z</time>
      </trkpt>
      <trkpt lat="46.97248" lon="8.76675">
        <ele>620</ele>
        <time>2021-08-04T10:07:19.903Z</time>
      </trkpt>
      <trkpt lat="46.97247" lon="8.76674">
        <ele>620</ele>
        <time>2021-08-04T10:07:20.903Z</time>
      </trkpt>
      <trkpt lat="46.97245" lon="8.76673">
        <ele>621</ele>
        <time>2021-08-04T10:07:21.903Z</time>
      </trkpt>
      <trkpt lat="46.97244" lon="8.76673">
        <ele>621</ele>
        <time>2021-08-04T10:07:22.903Z</time>
      </trkpt>
      <trkpt lat="46.97242" lon="8.76672">
        <ele>621</ele>
        <time>2021-08-04T10:07:23.903Z</time>
      </trkpt>
      <trkpt lat="46.97241" lon="8.76671">
        <ele>621</ele>
        <time>2021-08-04T10:07:24.902Z</time>
      </trkpt>
      <trkpt lat="46.97239" lon="8.7667">
        <ele>621</ele>
        <time>2021-08-04T10:07:25.902Z</time>
      </trkpt>
      <trkpt lat="46.97238" lon="8.76669">
        <ele>621</ele>
        <time>2021-08-04T10:07:26.903Z</time>
      </trkpt>
      <trkpt lat="46.97236" lon="8.76667">
        <ele>621</ele>
        <time>2021-08-04T10:07:27.903Z</time>
      </trkpt>
      <trkpt lat="46.97234" lon="8.76666">
        <ele>621</ele>
        <time>2021-08-04T10:07:28.903Z</time>
      </trkpt>
      <trkpt lat="46.97233" lon="8.76665">
        <ele>621</ele>
        <time>2021-08-04T10:07:29.902Z</time>
      </trkpt>
      <trkpt lat="46.97232" lon="8.76664">
        <ele>622</ele>
        <time>2021-08-04T10:07:30.903Z</time>
      </trkpt>
      <trkpt lat="46.97232" lon="8.76663">
        <ele>622</ele>
        <time>2021-08-04T10:07:31.903Z</time>
      </trkpt>
      <trkpt lat="46.97232" lon="8.76663">
        <ele>623</ele>
        <time>2021-08-04T10:07:32.903Z</time>
      </trkpt>
      <trkpt lat="46.97232" lon="8.76662">
        <ele>623</ele>
        <time>2021-08-04T10:07:33.903Z</time>
      </trkpt>
      <trkpt lat="46.97232" lon="8.76661">
        <ele>624</ele>
        <time>2021-08-04T10:07:34.903Z</time>
      </trkpt>
      <trkpt lat="46.97233" lon="8.76659">
        <ele>625</ele>
        <time>2021-08-04T10:07:35.903Z</time>
      </trkpt>
      <trkpt lat="46.97234" lon="8.76658">
        <ele>626</ele>
        <time>2021-08-04T10:07:36.903Z</time>
      </trkpt>
      <trkpt lat="46.97234" lon="8.76657">
        <ele>627</ele>
        <time>2021-08-04T10:07:37.902Z</time>
      </trkpt>
      <trkpt lat="46.97235" lon="8.76657">
        <ele>627</ele>
        <time>2021-08-04T10:07:38.903Z</time>
      </trkpt>
      <trkpt lat="46.97236" lon="8.76657">
        <ele>628</ele>
        <time>2021-08-04T10:07:39.903Z</time>
      </trkpt>
      <trkpt lat="46.97237" lon="8.76657">
        <ele>629</ele>
        <time>2021-08-04T10:07:40.903Z</time>
      </trkpt>
      <trkpt lat="46.97239" lon="8.76658">
        <ele>629</ele>
        <time>2021-08-04T10:07:41.902Z</time>
      </trkpt>
      <trkpt lat="46.9724" lon="8.76658">
        <ele>630</ele>
        <time>2021-08-04T10:07:42.902Z</time>
      </trkpt>
      <trkpt lat="46.97242" lon="8.76658">
        <ele>631</ele>
        <time>2021-08-04T10:07:43.903Z</time>
      </trkpt>
      <trkpt lat="46.97243" lon="8.76659">
        <ele>632</ele>
        <time>2021-08-04T10:07:44.902Z</time>
      </trkpt>
      <trkpt lat="46.97244" lon="8.76658">
        <ele>633</ele>
        <time>2021-08-04T10:07:45.903Z</time>
      </trkpt>
      <trkpt lat="46.97246" lon="8.76658">
        <ele>634</ele>
        <time>2021-08-04T10:07:46.903Z</time>
      </trkpt>
      <trkpt lat="46.97247" lon="8.76658">
        <ele>635</ele>
        <time>2021-08-04T10:07:47.902Z</time>
      </trkpt>
      <trkpt lat="46.97249" lon="8.76658">
        <ele>636</ele>
        <time>2021-08-04T10:07:48.903Z</time>
      </trkpt>
      <trkpt lat="46.97251" lon="8.76657">
        <ele>637</ele>
        <time>2021-08-04T10:07:49.903Z</time>
      </trkpt>
      <trkpt lat="46.97252" lon="8.76656">
        <ele>637</ele>
        <time>2021-08-04T10:07:50.903Z</time>
      </trkpt>
      <trkpt lat="46.97252" lon="8.76655">
        <ele>638</ele>
        <time>2021-08-04T10:07:51.902Z</time>
      </trkpt>
      <trkpt lat="46.97253" lon="8.76652">
        <ele>639</ele>
        <time>2021-08-04T10:07:52.902Z</time>
      </trkpt>
      <trkpt lat="46.97254" lon="8.7665">
        <ele>639</ele>
        <time>2021-08-04T10:07:53.903Z</time>
      </trkpt>
      <trkpt lat="46.97255" lon="8.76649">
        <ele>640</ele>
        <time>2021-08-04T10:07:54.903Z</time>
      </trkpt>
      <trkpt lat="46.97256" lon="8.76648">
        <ele>640</ele>
        <time>2021-08-04T10:07:55.902Z</time>
      </trkpt>
      <trkpt lat="46.97257" lon="8.76648">
        <ele>641</ele>
        <time>2021-08-04T10:07:56.903Z</time>
      </trkpt>
      <trkpt lat="46.97257" lon="8.76647">
        <ele>641</ele>
        <time>2021-08-04T10:07:57.903Z</time>
      </trkpt>
      <trkpt lat="46.97258" lon="8.76647">
        <ele>641</ele>
        <time>2021-08-04T10:07:58.903Z</time>
      </trkpt>
      <trkpt lat="46.97259" lon="8.76647">
        <ele>641</ele>
        <time>2021-08-04T10:07:59.903Z</time>
      </trkpt>
      <trkpt lat="46.9726" lon="8.76648">
        <ele>641</ele>
        <time>2021-08-04T10:08:00.902Z</time>
      </trkpt>
      <trkpt lat="46.9726" lon="8.76648">
        <ele>641</ele>
        <time>2021-08-04T10:08:01.903Z</time>
      </trkpt>
      <trkpt lat="46.9726" lon="8.76648">
        <ele>642</ele>
        <time>2021-08-04T10:08:02.903Z</time>
      </trkpt>
      <trkpt lat="46.97259" lon="8.76649">
        <ele>642</ele>
        <time>2021-08-04T10:08:03.779Z</time>
      </trkpt>
      <trkpt lat="46.97259" lon="8.76649">
        <ele>642</ele>
        <time>2021-08-04T10:08:04.779Z</time>
      </trkpt>
      <trkpt lat="46.9726" lon="8.7665">
        <ele>642</ele>
        <time>2021-08-04T10:08:05.904Z</time>
      </trkpt>
      <trkpt lat="46.97261" lon="8.76649">
        <ele>642</ele>
        <time>2021-08-04T10:08:06.779Z</time>
      </trkpt>
      <trkpt lat="46.97261" lon="8.76649">
        <ele>642</ele>
        <time>2021-08-04T10:08:07.779Z</time>
      </trkpt>
      <trkpt lat="46.97262" lon="8.76649">
        <ele>642</ele>
        <time>2021-08-04T10:08:08.903Z</time>
      </trkpt>
      <trkpt lat="46.97262" lon="8.76649">
        <ele>642</ele>
        <time>2021-08-04T10:08:09.779Z</time>
      </trkpt>
      <trkpt lat="46.97261" lon="8.76648">
        <ele>642</ele>
        <time>2021-08-04T10:08:10.904Z</time>
      </trkpt>
      <trkpt lat="46.97261" lon="8.76647">
        <ele>642</ele>
        <time>2021-08-04T10:08:11.779Z</time>
      </trkpt>
      <trkpt lat="46.97261" lon="8.76645">
        <ele>642</ele>
        <time>2021-08-04T10:08:12.779Z</time>
      </trkpt>
      <trkpt lat="46.97261" lon="8.76645">
        <ele>642</ele>
        <time>2021-08-04T10:08:13.779Z</time>
      </trkpt>
      <trkpt lat="46.97261" lon="8.76646">
        <ele>642</ele>
        <time>2021-08-04T10:08:14.779Z</time>
      </trkpt>
      <trkpt lat="46.97262" lon="8.76646">
        <ele>642</ele>
        <time>2021-08-04T10:08:15.904Z</time>
      </trkpt>
      <trkpt lat="46.97261" lon="8.76646">
        <ele>642</ele>
        <time>2021-08-04T10:08:16.903Z</time>
      </trkpt>
      <trkpt lat="46.97263" lon="8.76646">
        <ele>642</ele>
        <time>2021-08-04T10:08:17.779Z</time>
      </trkpt>
      <trkpt lat="46.97264" lon="8.76646">
        <ele>642</ele>
        <time>2021-08-04T10:08:18.779Z</time>
      </trkpt>
      <trkpt lat="46.97266" lon="8.76646">
        <ele>643</ele>
        <time>2021-08-04T10:08:19.779Z</time>
      </trkpt>
      <trkpt lat="46.97267" lon="8.76645">
        <ele>643</ele>
        <time>2021-08-04T10:08:20.779Z</time>
      </trkpt>
      <trkpt lat="46.97268" lon="8.76644">
        <ele>644</ele>
        <time>2021-08-04T10:08:21.904Z</time>
      </trkpt>
      <trkpt lat="46.97269" lon="8.76643">
        <ele>645</ele>
        <time>2021-08-04T10:08:22.904Z</time>
      </trkpt>
      <trkpt lat="46.97271" lon="8.76642">
        <ele>649</ele>
        <time>2021-08-04T10:08:23.903Z</time>
      </trkpt>
      <trkpt lat="46.97269" lon="8.7664">
        <ele>650</ele>
        <time>2021-08-04T10:08:24.779Z</time>
      </trkpt>
      <trkpt lat="46.97268" lon="8.76639">
        <ele>651</ele>
        <time>2021-08-04T10:08:25.779Z</time>
      </trkpt>
      <trkpt lat="46.97266" lon="8.76638">
        <ele>652</ele>
        <time>2021-08-04T10:08:26.779Z</time>
      </trkpt>
      <trkpt lat="46.97267" lon="8.76638">
        <ele>655</ele>
        <time>2021-08-04T10:08:27.781Z</time>
      </trkpt>
      <trkpt lat="46.97268" lon="8.76638">
        <ele>655</ele>
        <time>2021-08-04T10:08:28.780Z</time>
      </trkpt>
      <trkpt lat="46.97267" lon="8.76638">
        <ele>656</ele>
        <time>2021-08-04T10:08:29.780Z</time>
      </trkpt>
      <trkpt lat="46.97266" lon="8.76636">
        <ele>657</ele>
        <time>2021-08-04T10:08:30.782Z</time>
      </trkpt>
      <trkpt lat="46.97266" lon="8.76636">
        <ele>658</ele>
        <time>2021-08-04T10:08:31.782Z</time>
      </trkpt>
      <trkpt lat="46.97266" lon="8.76636">
        <ele>658</ele>
        <time>2021-08-04T10:08:32.782Z</time>
      </trkpt>
      <trkpt lat="46.97267" lon="8.76636">
        <ele>658</ele>
        <time>2021-08-04T10:08:33.782Z</time>
      </trkpt>
      <trkpt lat="46.97269" lon="8.76636">
        <ele>658</ele>
        <time>2021-08-04T10:08:34.782Z</time>
      </trkpt>
      <trkpt lat="46.97272" lon="8.76638">
        <ele>657</ele>
        <time>2021-08-04T10:08:35.782Z</time>
      </trkpt>
      <trkpt lat="46.97273" lon="8.7664">
        <ele>656</ele>
        <time>2021-08-04T10:08:36.782Z</time>
      </trkpt>
      <trkpt lat="46.97274" lon="8.7664">
        <ele>655</ele>
        <time>2021-08-04T10:08:37.782Z</time>
      </trkpt>
      <trkpt lat="46.97275" lon="8.7664">
        <ele>653</ele>
        <time>2021-08-04T10:08:38.782Z</time>
      </trkpt>
      <trkpt lat="46.97276" lon="8.7664">
        <ele>651</ele>
        <time>2021-08-04T10:08:39.782Z</time>
      </trkpt>
      <trkpt lat="46.97277" lon="8.76639">
        <ele>649</ele>
        <time>2021-08-04T10:08:40.782Z</time>
      </trkpt>
      <trkpt lat="46.97278" lon="8.76639">
        <ele>647</ele>
        <time>2021-08-04T10:08:41.782Z</time>
      </trkpt>
      <trkpt lat="46.97279" lon="8.76639">
        <ele>645</ele>
        <time>2021-08-04T10:08:42.782Z</time>
      </trkpt>
      <trkpt lat="46.9728" lon="8.76638">
        <ele>644</ele>
        <time>2021-08-04T10:08:43.782Z</time>
      </trkpt>
      <trkpt lat="46.9728" lon="8.76638">
        <ele>642</ele>
        <time>2021-08-04T10:08:44.782Z</time>
      </trkpt>
      <trkpt lat="46.97281" lon="8.76638">
        <ele>640</ele>
        <time>2021-08-04T10:08:45.782Z</time>
      </trkpt>
      <trkpt lat="46.97282" lon="8.76638">
        <ele>639</ele>
        <time>2021-08-04T10:08:46.782Z</time>
      </trkpt>
      <trkpt lat="46.97283" lon="8.76638">
        <ele>638</ele>
        <time>2021-08-04T10:08:47.782Z</time>
      </trkpt>
      <trkpt lat="46.97284" lon="8.76637">
        <ele>636</ele>
        <time>2021-08-04T10:08:48.782Z</time>
      </trkpt>
      <trkpt lat="46.97286" lon="8.76638">
        <ele>635</ele>
        <time>2021-08-04T10:08:49.782Z</time>
      </trkpt>
      <trkpt lat="46.97287" lon="8.76639">
        <ele>634</ele>
        <time>2021-08-04T10:08:50.782Z</time>
      </trkpt>
      <trkpt lat="46.97288" lon="8.7664">
        <ele>634</ele>
        <time>2021-08-04T10:08:51.782Z</time>
      </trkpt>
      <trkpt lat="46.97289" lon="8.7664">
        <ele>633</ele>
        <time>2021-08-04T10:08:52.782Z</time>
      </trkpt>
      <trkpt lat="46.9729" lon="8.7664">
        <ele>633</ele>
        <time>2021-08-04T10:08:53.782Z</time>
      </trkpt>
      <trkpt lat="46.97291" lon="8.7664">
        <ele>632</ele>
        <time>2021-08-04T10:08:54.782Z</time>
      </trkpt>
      <trkpt lat="46.97292" lon="8.76639">
        <ele>631</ele>
        <time>2021-08-04T10:08:55.782Z</time>
      </trkpt>
      <trkpt lat="46.97293" lon="8.76639">
        <ele>630</ele>
        <time>2021-08-04T10:08:56.782Z</time>
      </trkpt>
      <trkpt lat="46.97293" lon="8.76639">
        <ele>630</ele>
        <time>2021-08-04T10:08:57.782Z</time>
      </trkpt>
      <trkpt lat="46.97294" lon="8.76638">
        <ele>629</ele>
        <time>2021-08-04T10:08:58.782Z</time>
      </trkpt>
      <trkpt lat="46.97295" lon="8.76638">
        <ele>628</ele>
        <time>2021-08-04T10:08:59.782Z</time>
      </trkpt>
      <trkpt lat="46.97296" lon="8.76638">
        <ele>627</ele>
        <time>2021-08-04T10:09:00.782Z</time>
      </trkpt>
      <trkpt lat="46.97296" lon="8.76638">
        <ele>626</ele>
        <time>2021-08-04T10:09:01.782Z</time>
      </trkpt>
      <trkpt lat="46.97296" lon="8.76637">
        <ele>626</ele>
        <time>2021-08-04T10:09:02.782Z</time>
      </trkpt>
      <trkpt lat="46.97297" lon="8.76636">
        <ele>625</ele>
        <time>2021-08-04T10:09:03.782Z</time>
      </trkpt>
      <trkpt lat="46.97297" lon="8.76636">
        <ele>625</ele>
        <time>2021-08-04T10:09:04.782Z</time>
      </trkpt>
      <trkpt lat="46.97298" lon="8.76635">
        <ele>624</ele>
        <time>2021-08-04T10:09:05.782Z</time>
      </trkpt>
      <trkpt lat="46.97298" lon="8.76634">
        <ele>624</ele>
        <time>2021-08-04T10:09:06.782Z</time>
      </trkpt>
      <trkpt lat="46.97298" lon="8.76633">
        <ele>623</ele>
        <time>2021-08-04T10:09:07.782Z</time>
      </trkpt>
      <trkpt lat="46.97298" lon="8.76632">
        <ele>623</ele>
        <time>2021-08-04T10:09:08.782Z</time>
      </trkpt>
      <trkpt lat="46.97299" lon="8.7663">
        <ele>623</ele>
        <time>2021-08-04T10:09:09.782Z</time>
      </trkpt>
      <trkpt lat="46.97299" lon="8.76629">
        <ele>623</ele>
        <time>2021-08-04T10:09:10.782Z</time>
      </trkpt>
      <trkpt lat="46.97299" lon="8.76627">
        <ele>623</ele>
        <time>2021-08-04T10:09:11.782Z</time>
      </trkpt>
      <trkpt lat="46.973" lon="8.76625">
        <ele>623</ele>
        <time>2021-08-04T10:09:12.782Z</time>
      </trkpt>
      <trkpt lat="46.973" lon="8.76624">
        <ele>623</ele>
        <time>2021-08-04T10:09:13.782Z</time>
      </trkpt>
      <trkpt lat="46.973" lon="8.76623">
        <ele>623</ele>
        <time>2021-08-04T10:09:14.782Z</time>
      </trkpt>
      <trkpt lat="46.973" lon="8.76622">
        <ele>623</ele>
        <time>2021-08-04T10:09:15.782Z</time>
      </trkpt>
      <trkpt lat="46.97301" lon="8.76621">
        <ele>623</ele>
        <time>2021-08-04T10:09:16.782Z</time>
      </trkpt>
      <trkpt lat="46.97302" lon="8.76619">
        <ele>622</ele>
        <time>2021-08-04T10:09:17.782Z</time>
      </trkpt>
      <trkpt lat="46.97303" lon="8.76618">
        <ele>622</ele>
        <time>2021-08-04T10:09:18.782Z</time>
      </trkpt>
      <trkpt lat="46.97304" lon="8.76616">
        <ele>622</ele>
        <time>2021-08-04T10:09:19.782Z</time>
      </trkpt>
      <trkpt lat="46.97305" lon="8.76615">
        <ele>621</ele>
        <time>2021-08-04T10:09:20.782Z</time>
      </trkpt>
      <trkpt lat="46.97305" lon="8.76614">
        <ele>621</ele>
        <time>2021-08-04T10:09:21.782Z</time>
      </trkpt>
      <trkpt lat="46.97305" lon="8.76613">
        <ele>621</ele>
        <time>2021-08-04T10:09:22.782Z</time>
      </trkpt>
      <trkpt lat="46.97306" lon="8.76611">
        <ele>621</ele>
        <time>2021-08-04T10:09:23.782Z</time>
      </trkpt>
      <trkpt lat="46.97306" lon="8.7661">
        <ele>620</ele>
        <time>2021-08-04T10:09:24.782Z</time>
      </trkpt>
      <trkpt lat="46.97307" lon="8.76608">
        <ele>620</ele>
        <time>2021-08-04T10:09:25.782Z</time>
      </trkpt>
      <trkpt lat="46.97308" lon="8.76607">
        <ele>620</ele>
        <time>2021-08-04T10:09:26.782Z</time>
      </trkpt>
      <trkpt lat="46.97309" lon="8.76605">
        <ele>620</ele>
        <time>2021-08-04T10:09:27.782Z</time>
      </trkpt>
      <trkpt lat="46.97309" lon="8.76603">
        <ele>620</ele>
        <time>2021-08-04T10:09:28.782Z</time>
      </trkpt>
      <trkpt lat="46.9731" lon="8.76601">
        <ele>620</ele>
        <time>2021-08-04T10:09:29.782Z</time>
      </trkpt>
      <trkpt lat="46.9731" lon="8.766">
        <ele>620</ele>
        <time>2021-08-04T10:09:30.782Z</time>
      </trkpt>
      <trkpt lat="46.97311" lon="8.76598">
        <ele>620</ele>
        <time>2021-08-04T10:09:31.782Z</time>
      </trkpt>
      <trkpt lat="46.97311" lon="8.76597">
        <ele>619</ele>
        <time>2021-08-04T10:09:32.782Z</time>
      </trkpt>
      <trkpt lat="46.97311" lon="8.76595">
        <ele>619</ele>
        <time>2021-08-04T10:09:33.782Z</time>
      </trkpt>
      <trkpt lat="46.97312" lon="8.76593">
        <ele>619</ele>
        <time>2021-08-04T10:09:34.782Z</time>
      </trkpt>
      <trkpt lat="46.97312" lon="8.76592">
        <ele>619</ele>
        <time>2021-08-04T10:09:35.782Z</time>
      </trkpt>
      <trkpt lat="46.97313" lon="8.7659">
        <ele>619</ele>
        <time>2021-08-04T10:09:36.782Z</time>
      </trkpt>
      <trkpt lat="46.97313" lon="8.76589">
        <ele>619</ele>
        <time>2021-08-04T10:09:37.782Z</time>
      </trkpt>
      <trkpt lat="46.97314" lon="8.76587">
        <ele>619</ele>
        <time>2021-08-04T10:09:38.782Z</time>
      </trkpt>
      <trkpt lat="46.97314" lon="8.76585">
        <ele>618</ele>
        <time>2021-08-04T10:09:39.782Z</time>
      </trkpt>
      <trkpt lat="46.97315" lon="8.76583">
        <ele>619</ele>
        <time>2021-08-04T10:09:40.782Z</time>
      </trkpt>
      <trkpt lat="46.97316" lon="8.76581">
        <ele>619</ele>
        <time>2021-08-04T10:09:41.782Z</time>
      </trkpt>
      <trkpt lat="46.97316" lon="8.7658">
        <ele>619</ele>
        <time>2021-08-04T10:09:42.782Z</time>
      </trkpt>
      <trkpt lat="46.97317" lon="8.76578">
        <ele>619</ele>
        <time>2021-08-04T10:09:43.782Z</time>
      </trkpt>
      <trkpt lat="46.97317" lon="8.76577">
        <ele>620</ele>
        <time>2021-08-04T10:09:44.782Z</time>
      </trkpt>
      <trkpt lat="46.97318" lon="8.76575">
        <ele>620</ele>
        <time>2021-08-04T10:09:45.782Z</time>
      </trkpt>
      <trkpt lat="46.97318" lon="8.76573">
        <ele>620</ele>
        <time>2021-08-04T10:09:46.782Z</time>
      </trkpt>
      <trkpt lat="46.97319" lon="8.76571">
        <ele>621</ele>
        <time>2021-08-04T10:09:47.782Z</time>
      </trkpt>
      <trkpt lat="46.97319" lon="8.7657">
        <ele>621</ele>
        <time>2021-08-04T10:09:48.782Z</time>
      </trkpt>
      <trkpt lat="46.9732" lon="8.76568">
        <ele>621</ele>
        <time>2021-08-04T10:09:49.782Z</time>
      </trkpt>
      <trkpt lat="46.9732" lon="8.76566">
        <ele>621</ele>
        <time>2021-08-04T10:09:50.782Z</time>
      </trkpt>
      <trkpt lat="46.97321" lon="8.76565">
        <ele>621</ele>
        <time>2021-08-04T10:09:51.782Z</time>
      </trkpt>
      <trkpt lat="46.97322" lon="8.76563">
        <ele>621</ele>
        <time>2021-08-04T10:09:52.782Z</time>
      </trkpt>
      <trkpt lat="46.97322" lon="8.76561">
        <ele>621</ele>
        <time>2021-08-04T10:09:53.782Z</time>
      </trkpt>
      <trkpt lat="46.97322" lon="8.76559">
        <ele>620</ele>
        <time>2021-08-04T10:09:54.782Z</time>
      </trkpt>
      <trkpt lat="46.97323" lon="8.76557">
        <ele>620</ele>
        <time>2021-08-04T10:09:55.782Z</time>
      </trkpt>
      <trkpt lat="46.97323" lon="8.76555">
        <ele>620</ele>
        <time>2021-08-04T10:09:56.782Z</time>
      </trkpt>
      <trkpt lat="46.97323" lon="8.76553">
        <ele>620</ele>
        <time>2021-08-04T10:09:57.782Z</time>
      </trkpt>
      <trkpt lat="46.97324" lon="8.76551">
        <ele>619</ele>
        <time>2021-08-04T10:09:58.782Z</time>
      </trkpt>
      <trkpt lat="46.97325" lon="8.76549">
        <ele>620</ele>
        <time>2021-08-04T10:09:59.782Z</time>
      </trkpt>
      <trkpt lat="46.97325" lon="8.76547">
        <ele>620</ele>
        <time>2021-08-04T10:10:00.782Z</time>
      </trkpt>
      <trkpt lat="46.97326" lon="8.76545">
        <ele>620</ele>
        <time>2021-08-04T10:10:01.782Z</time>
      </trkpt>
      <trkpt lat="46.97327" lon="8.76543">
        <ele>620</ele>
        <time>2021-08-04T10:10:02.782Z</time>
      </trkpt>
      <trkpt lat="46.97328" lon="8.76541">
        <ele>621</ele>
        <time>2021-08-04T10:10:03.782Z</time>
      </trkpt>
      <trkpt lat="46.97329" lon="8.7654">
        <ele>621</ele>
        <time>2021-08-04T10:10:04.782Z</time>
      </trkpt>
      <trkpt lat="46.97329" lon="8.76538">
        <ele>621</ele>
        <time>2021-08-04T10:10:05.782Z</time>
      </trkpt>
      <trkpt lat="46.9733" lon="8.76537">
        <ele>622</ele>
        <time>2021-08-04T10:10:06.782Z</time>
      </trkpt>
      <trkpt lat="46.9733" lon="8.76536">
        <ele>622</ele>
        <time>2021-08-04T10:10:07.782Z</time>
      </trkpt>
      <trkpt lat="46.97331" lon="8.76534">
        <ele>622</ele>
        <time>2021-08-04T10:10:08.782Z</time>
      </trkpt>
      <trkpt lat="46.97331" lon="8.76532">
        <ele>622</ele>
        <time>2021-08-04T10:10:09.782Z</time>
      </trkpt>
      <trkpt lat="46.97332" lon="8.76531">
        <ele>622</ele>
        <time>2021-08-04T10:10:10.782Z</time>
      </trkpt>
      <trkpt lat="46.97332" lon="8.76529">
        <ele>622</ele>
        <time>2021-08-04T10:10:11.782Z</time>
      </trkpt>
      <trkpt lat="46.97332" lon="8.76528">
        <ele>622</ele>
        <time>2021-08-04T10:10:12.782Z</time>
      </trkpt>
      <trkpt lat="46.97332" lon="8.76527">
        <ele>622</ele>
        <time>2021-08-04T10:10:13.782Z</time>
      </trkpt>
      <trkpt lat="46.97333" lon="8.76525">
        <ele>622</ele>
        <time>2021-08-04T10:10:14.782Z</time>
      </trkpt>
      <trkpt lat="46.97333" lon="8.76523">
        <ele>622</ele>
        <time>2021-08-04T10:10:15.782Z</time>
      </trkpt>
      <trkpt lat="46.97333" lon="8.76521">
        <ele>622</ele>
        <time>2021-08-04T10:10:16.782Z</time>
      </trkpt>
      <trkpt lat="46.97334" lon="8.76519">
        <ele>622</ele>
        <time>2021-08-04T10:10:17.782Z</time>
      </trkpt>
      <trkpt lat="46.97334" lon="8.76518">
        <ele>622</ele>
        <time>2021-08-04T10:10:18.782Z</time>
      </trkpt>
      <trkpt lat="46.97334" lon="8.76516">
        <ele>622</ele>
        <time>2021-08-04T10:10:19.782Z</time>
      </trkpt>
      <trkpt lat="46.97334" lon="8.76515">
        <ele>621</ele>
        <time>2021-08-04T10:10:20.782Z</time>
      </trkpt>
      <trkpt lat="46.97335" lon="8.76513">
        <ele>621</ele>
        <time>2021-08-04T10:10:21.782Z</time>
      </trkpt>
      <trkpt lat="46.97336" lon="8.76511">
        <ele>620</ele>
        <time>2021-08-04T10:10:22.782Z</time>
      </trkpt>
      <trkpt lat="46.97336" lon="8.7651">
        <ele>620</ele>
        <time>2021-08-04T10:10:23.782Z</time>
      </trkpt>
      <trkpt lat="46.97337" lon="8.76507">
        <ele>619</ele>
        <time>2021-08-04T10:10:24.782Z</time>
      </trkpt>
      <trkpt lat="46.97337" lon="8.76506">
        <ele>618</ele>
        <time>2021-08-04T10:10:25.782Z</time>
      </trkpt>
      <trkpt lat="46.97337" lon="8.76505">
        <ele>618</ele>
        <time>2021-08-04T10:10:26.782Z</time>
      </trkpt>
      <trkpt lat="46.97337" lon="8.76503">
        <ele>617</ele>
        <time>2021-08-04T10:10:27.782Z</time>
      </trkpt>
      <trkpt lat="46.97337" lon="8.76501">
        <ele>617</ele>
        <time>2021-08-04T10:10:28.782Z</time>
      </trkpt>
      <trkpt lat="46.97338" lon="8.765">
        <ele>616</ele>
        <time>2021-08-04T10:10:29.782Z</time>
      </trkpt>
      <trkpt lat="46.97339" lon="8.76498">
        <ele>616</ele>
        <time>2021-08-04T10:10:30.782Z</time>
      </trkpt>
      <trkpt lat="46.97339" lon="8.76496">
        <ele>615</ele>
        <time>2021-08-04T10:10:31.782Z</time>
      </trkpt>
      <trkpt lat="46.9734" lon="8.76495">
        <ele>615</ele>
        <time>2021-08-04T10:10:32.782Z</time>
      </trkpt>
      <trkpt lat="46.9734" lon="8.76493">
        <ele>614</ele>
        <time>2021-08-04T10:10:33.782Z</time>
      </trkpt>
      <trkpt lat="46.97341" lon="8.76491">
        <ele>614</ele>
        <time>2021-08-04T10:10:34.782Z</time>
      </trkpt>
      <trkpt lat="46.97341" lon="8.7649">
        <ele>614</ele>
        <time>2021-08-04T10:10:35.782Z</time>
      </trkpt>
      <trkpt lat="46.97342" lon="8.76488">
        <ele>614</ele>
        <time>2021-08-04T10:10:36.782Z</time>
      </trkpt>
      <trkpt lat="46.97342" lon="8.76486">
        <ele>613</ele>
        <time>2021-08-04T10:10:37.782Z</time>
      </trkpt>
      <trkpt lat="46.97343" lon="8.76485">
        <ele>613</ele>
        <time>2021-08-04T10:10:38.782Z</time>
      </trkpt>
      <trkpt lat="46.97343" lon="8.76483">
        <ele>614</ele>
        <time>2021-08-04T10:10:39.782Z</time>
      </trkpt>
      <trkpt lat="46.97343" lon="8.76482">
        <ele>614</ele>
        <time>2021-08-04T10:10:40.782Z</time>
      </trkpt>
      <trkpt lat="46.97344" lon="8.76481">
        <ele>614</ele>
        <time>2021-08-04T10:10:41.782Z</time>
      </trkpt>
      <trkpt lat="46.97344" lon="8.76479">
        <ele>615</ele>
        <time>2021-08-04T10:10:42.782Z</time>
      </trkpt>
      <trkpt lat="46.97344" lon="8.76477">
        <ele>615</ele>
        <time>2021-08-04T10:10:43.782Z</time>
      </trkpt>
      <trkpt lat="46.97344" lon="8.76476">
        <ele>615</ele>
        <time>2021-08-04T10:10:44.782Z</time>
      </trkpt>
      <trkpt lat="46.97345" lon="8.76474">
        <ele>615</ele>
        <time>2021-08-04T10:10:45.782Z</time>
      </trkpt>
      <trkpt lat="46.97345" lon="8.76472">
        <ele>616</ele>
        <time>2021-08-04T10:10:46.782Z</time>
      </trkpt>
      <trkpt lat="46.97346" lon="8.76471">
        <ele>616</ele>
        <time>2021-08-04T10:10:47.782Z</time>
      </trkpt>
      <trkpt lat="46.97346" lon="8.7647">
        <ele>616</ele>
        <time>2021-08-04T10:10:48.782Z</time>
      </trkpt>
      <trkpt lat="46.97346" lon="8.76469">
        <ele>616</ele>
        <time>2021-08-04T10:10:49.782Z</time>
      </trkpt>
      <trkpt lat="46.97345" lon="8.76469">
        <ele>616</ele>
        <time>2021-08-04T10:10:50.782Z</time>
      </trkpt>
      <trkpt lat="46.97345" lon="8.76468">
        <ele>616</ele>
        <time>2021-08-04T10:10:51.782Z</time>
      </trkpt>
      <trkpt lat="46.97342" lon="8.76465">
        <ele>617</ele>
        <time>2021-08-04T10:10:52.784Z</time>
      </trkpt>
      <trkpt lat="46.97342" lon="8.76465">
        <ele>617</ele>
        <time>2021-08-04T10:10:53.784Z</time>
      </trkpt>
      <trkpt lat="46.97341" lon="8.76465">
        <ele>617</ele>
        <time>2021-08-04T10:10:54.783Z</time>
      </trkpt>
      <trkpt lat="46.97341" lon="8.76464">
        <ele>617</ele>
        <time>2021-08-04T10:10:55.783Z</time>
      </trkpt>
      <trkpt lat="46.97341" lon="8.76463">
        <ele>617</ele>
        <time>2021-08-04T10:10:56.784Z</time>
      </trkpt>
      <trkpt lat="46.97342" lon="8.76463">
        <ele>618</ele>
        <time>2021-08-04T10:10:57.784Z</time>
      </trkpt>
      <trkpt lat="46.97342" lon="8.76462">
        <ele>618</ele>
        <time>2021-08-04T10:10:58.784Z</time>
      </trkpt>
      <trkpt lat="46.97343" lon="8.76462">
        <ele>619</ele>
        <time>2021-08-04T10:10:59.784Z</time>
      </trkpt>
      <trkpt lat="46.97344" lon="8.76461">
        <ele>620</ele>
        <time>2021-08-04T10:11:00.783Z</time>
      </trkpt>
      <trkpt lat="46.97345" lon="8.7646">
        <ele>621</ele>
        <time>2021-08-04T10:11:01.784Z</time>
      </trkpt>
      <trkpt lat="46.97345" lon="8.76459">
        <ele>621</ele>
        <time>2021-08-04T10:11:02.783Z</time>
      </trkpt>
      <trkpt lat="46.97345" lon="8.76458">
        <ele>621</ele>
        <time>2021-08-04T10:11:03.784Z</time>
      </trkpt>
      <trkpt lat="46.97345" lon="8.76457">
        <ele>621</ele>
        <time>2021-08-04T10:11:04.783Z</time>
      </trkpt>
      <trkpt lat="46.97346" lon="8.76456">
        <ele>622</ele>
        <time>2021-08-04T10:11:05.784Z</time>
      </trkpt>
      <trkpt lat="46.97347" lon="8.76454">
        <ele>622</ele>
        <time>2021-08-04T10:11:06.783Z</time>
      </trkpt>
      <trkpt lat="46.97347" lon="8.76453">
        <ele>622</ele>
        <time>2021-08-04T10:11:07.784Z</time>
      </trkpt>
      <trkpt lat="46.97348" lon="8.76452">
        <ele>622</ele>
        <time>2021-08-04T10:11:08.784Z</time>
      </trkpt>
      <trkpt lat="46.97348" lon="8.7645">
        <ele>622</ele>
        <time>2021-08-04T10:11:09.784Z</time>
      </trkpt>
      <trkpt lat="46.97349" lon="8.76449">
        <ele>621</ele>
        <time>2021-08-04T10:11:10.783Z</time>
      </trkpt>
      <trkpt lat="46.9735" lon="8.76448">
        <ele>621</ele>
        <time>2021-08-04T10:11:11.784Z</time>
      </trkpt>
      <trkpt lat="46.97351" lon="8.76446">
        <ele>621</ele>
        <time>2021-08-04T10:11:12.783Z</time>
      </trkpt>
      <trkpt lat="46.97351" lon="8.76445">
        <ele>621</ele>
        <time>2021-08-04T10:11:13.784Z</time>
      </trkpt>
      <trkpt lat="46.97352" lon="8.76443">
        <ele>621</ele>
        <time>2021-08-04T10:11:14.784Z</time>
      </trkpt>
      <trkpt lat="46.97353" lon="8.76442">
        <ele>621</ele>
        <time>2021-08-04T10:11:15.784Z</time>
      </trkpt>
      <trkpt lat="46.97354" lon="8.7644">
        <ele>621</ele>
        <time>2021-08-04T10:11:16.784Z</time>
      </trkpt>
      <trkpt lat="46.97355" lon="8.76439">
        <ele>621</ele>
        <time>2021-08-04T10:11:17.783Z</time>
      </trkpt>
      <trkpt lat="46.97355" lon="8.76437">
        <ele>621</ele>
        <time>2021-08-04T10:11:18.784Z</time>
      </trkpt>
      <trkpt lat="46.97356" lon="8.76435">
        <ele>622</ele>
        <time>2021-08-04T10:11:19.784Z</time>
      </trkpt>
      <trkpt lat="46.97356" lon="8.76434">
        <ele>623</ele>
        <time>2021-08-04T10:11:20.784Z</time>
      </trkpt>
      <trkpt lat="46.97356" lon="8.76432">
        <ele>623</ele>
        <time>2021-08-04T10:11:21.784Z</time>
      </trkpt>
      <trkpt lat="46.97356" lon="8.76431">
        <ele>623</ele>
        <time>2021-08-04T10:11:22.784Z</time>
      </trkpt>
      <trkpt lat="46.97357" lon="8.76429">
        <ele>623</ele>
        <time>2021-08-04T10:11:23.783Z</time>
      </trkpt>
      <trkpt lat="46.97358" lon="8.76428">
        <ele>623</ele>
        <time>2021-08-04T10:11:24.784Z</time>
      </trkpt>
      <trkpt lat="46.97358" lon="8.76426">
        <ele>623</ele>
        <time>2021-08-04T10:11:25.784Z</time>
      </trkpt>
      <trkpt lat="46.97359" lon="8.76424">
        <ele>623</ele>
        <time>2021-08-04T10:11:26.784Z</time>
      </trkpt>
      <trkpt lat="46.9736" lon="8.76422">
        <ele>624</ele>
        <time>2021-08-04T10:11:27.784Z</time>
      </trkpt>
      <trkpt lat="46.9736" lon="8.76421">
        <ele>624</ele>
        <time>2021-08-04T10:11:28.784Z</time>
      </trkpt>
      <trkpt lat="46.97361" lon="8.76419">
        <ele>624</ele>
        <time>2021-08-04T10:11:29.783Z</time>
      </trkpt>
      <trkpt lat="46.97361" lon="8.76418">
        <ele>623</ele>
        <time>2021-08-04T10:11:30.784Z</time>
      </trkpt>
      <trkpt lat="46.97361" lon="8.76416">
        <ele>623</ele>
        <time>2021-08-04T10:11:31.783Z</time>
      </trkpt>
      <trkpt lat="46.97362" lon="8.76415">
        <ele>623</ele>
        <time>2021-08-04T10:11:32.784Z</time>
      </trkpt>
      <trkpt lat="46.97362" lon="8.76413">
        <ele>623</ele>
        <time>2021-08-04T10:11:33.783Z</time>
      </trkpt>
      <trkpt lat="46.97363" lon="8.76412">
        <ele>622</ele>
        <time>2021-08-04T10:11:34.784Z</time>
      </trkpt>
      <trkpt lat="46.97364" lon="8.76411">
        <ele>622</ele>
        <time>2021-08-04T10:11:35.783Z</time>
      </trkpt>
      <trkpt lat="46.97364" lon="8.76409">
        <ele>621</ele>
        <time>2021-08-04T10:11:36.784Z</time>
      </trkpt>
      <trkpt lat="46.97364" lon="8.76407">
        <ele>621</ele>
        <time>2021-08-04T10:11:37.783Z</time>
      </trkpt>
      <trkpt lat="46.97364" lon="8.76406">
        <ele>621</ele>
        <time>2021-08-04T10:11:38.783Z</time>
      </trkpt>
      <trkpt lat="46.97365" lon="8.76404">
        <ele>621</ele>
        <time>2021-08-04T10:11:39.784Z</time>
      </trkpt>
      <trkpt lat="46.97365" lon="8.76403">
        <ele>620</ele>
        <time>2021-08-04T10:11:40.784Z</time>
      </trkpt>
      <trkpt lat="46.97366" lon="8.76401">
        <ele>620</ele>
        <time>2021-08-04T10:11:41.784Z</time>
      </trkpt>
      <trkpt lat="46.97367" lon="8.764">
        <ele>620</ele>
        <time>2021-08-04T10:11:42.784Z</time>
      </trkpt>
      <trkpt lat="46.97368" lon="8.76398">
        <ele>620</ele>
        <time>2021-08-04T10:11:43.783Z</time>
      </trkpt>
      <trkpt lat="46.97368" lon="8.76396">
        <ele>619</ele>
        <time>2021-08-04T10:11:44.784Z</time>
      </trkpt>
      <trkpt lat="46.97369" lon="8.76395">
        <ele>619</ele>
        <time>2021-08-04T10:11:45.783Z</time>
      </trkpt>
      <trkpt lat="46.97369" lon="8.76394">
        <ele>619</ele>
        <time>2021-08-04T10:11:46.784Z</time>
      </trkpt>
      <trkpt lat="46.9737" lon="8.76392">
        <ele>619</ele>
        <time>2021-08-04T10:11:47.783Z</time>
      </trkpt>
      <trkpt lat="46.97371" lon="8.7639">
        <ele>618</ele>
        <time>2021-08-04T10:11:48.784Z</time>
      </trkpt>
      <trkpt lat="46.97372" lon="8.76389">
        <ele>618</ele>
        <time>2021-08-04T10:11:49.783Z</time>
      </trkpt>
      <trkpt lat="46.97372" lon="8.76387">
        <ele>618</ele>
        <time>2021-08-04T10:11:50.784Z</time>
      </trkpt>
      <trkpt lat="46.97372" lon="8.76385">
        <ele>618</ele>
        <time>2021-08-04T10:11:51.784Z</time>
      </trkpt>
      <trkpt lat="46.97372" lon="8.76383">
        <ele>617</ele>
        <time>2021-08-04T10:11:52.784Z</time>
      </trkpt>
      <trkpt lat="46.97372" lon="8.76381">
        <ele>617</ele>
        <time>2021-08-04T10:11:53.783Z</time>
      </trkpt>
      <trkpt lat="46.97372" lon="8.76379">
        <ele>617</ele>
        <time>2021-08-04T10:11:54.784Z</time>
      </trkpt>
      <trkpt lat="46.97373" lon="8.76377">
        <ele>616</ele>
        <time>2021-08-04T10:11:55.783Z</time>
      </trkpt>
      <trkpt lat="46.97373" lon="8.76376">
        <ele>616</ele>
        <time>2021-08-04T10:11:56.783Z</time>
      </trkpt>
      <trkpt lat="46.97373" lon="8.76374">
        <ele>616</ele>
        <time>2021-08-04T10:11:57.783Z</time>
      </trkpt>
      <trkpt lat="46.97374" lon="8.76373">
        <ele>616</ele>
        <time>2021-08-04T10:11:58.784Z</time>
      </trkpt>
      <trkpt lat="46.97375" lon="8.76371">
        <ele>616</ele>
        <time>2021-08-04T10:11:59.784Z</time>
      </trkpt>
      <trkpt lat="46.97375" lon="8.76369">
        <ele>616</ele>
        <time>2021-08-04T10:12:00.784Z</time>
      </trkpt>
      <trkpt lat="46.97376" lon="8.76367">
        <ele>616</ele>
        <time>2021-08-04T10:12:01.784Z</time>
      </trkpt>
      <trkpt lat="46.97376" lon="8.76366">
        <ele>616</ele>
        <time>2021-08-04T10:12:02.784Z</time>
      </trkpt>
      <trkpt lat="46.97377" lon="8.76364">
        <ele>616</ele>
        <time>2021-08-04T10:12:03.784Z</time>
      </trkpt>
      <trkpt lat="46.97378" lon="8.76363">
        <ele>617</ele>
        <time>2021-08-04T10:12:04.784Z</time>
      </trkpt>
      <trkpt lat="46.97379" lon="8.76361">
        <ele>617</ele>
        <time>2021-08-04T10:12:05.783Z</time>
      </trkpt>
      <trkpt lat="46.9738" lon="8.76359">
        <ele>617</ele>
        <time>2021-08-04T10:12:06.783Z</time>
      </trkpt>
      <trkpt lat="46.97381" lon="8.76357">
        <ele>617</ele>
        <time>2021-08-04T10:12:07.784Z</time>
      </trkpt>
      <trkpt lat="46.97381" lon="8.76355">
        <ele>618</ele>
        <time>2021-08-04T10:12:08.783Z</time>
      </trkpt>
      <trkpt lat="46.97382" lon="8.76354">
        <ele>618</ele>
        <time>2021-08-04T10:12:09.783Z</time>
      </trkpt>
      <trkpt lat="46.97382" lon="8.76352">
        <ele>618</ele>
        <time>2021-08-04T10:12:10.783Z</time>
      </trkpt>
      <trkpt lat="46.97383" lon="8.7635">
        <ele>619</ele>
        <time>2021-08-04T10:12:11.783Z</time>
      </trkpt>
      <trkpt lat="46.97383" lon="8.76349">
        <ele>619</ele>
        <time>2021-08-04T10:12:12.784Z</time>
      </trkpt>
      <trkpt lat="46.97383" lon="8.76347">
        <ele>619</ele>
        <time>2021-08-04T10:12:13.784Z</time>
      </trkpt>
      <trkpt lat="46.97384" lon="8.76345">
        <ele>619</ele>
        <time>2021-08-04T10:12:14.784Z</time>
      </trkpt>
      <trkpt lat="46.97384" lon="8.76344">
        <ele>619</ele>
        <time>2021-08-04T10:12:15.784Z</time>
      </trkpt>
      <trkpt lat="46.97384" lon="8.76342">
        <ele>619</ele>
        <time>2021-08-04T10:12:16.783Z</time>
      </trkpt>
      <trkpt lat="46.97385" lon="8.76341">
        <ele>619</ele>
        <time>2021-08-04T10:12:17.784Z</time>
      </trkpt>
      <trkpt lat="46.97385" lon="8.76339">
        <ele>618</ele>
        <time>2021-08-04T10:12:18.783Z</time>
      </trkpt>
      <trkpt lat="46.97387" lon="8.76338">
        <ele>618</ele>
        <time>2021-08-04T10:12:19.784Z</time>
      </trkpt>
      <trkpt lat="46.97388" lon="8.76336">
        <ele>618</ele>
        <time>2021-08-04T10:12:20.784Z</time>
      </trkpt>
      <trkpt lat="46.97389" lon="8.76334">
        <ele>619</ele>
        <time>2021-08-04T10:12:21.783Z</time>
      </trkpt>
      <trkpt lat="46.97389" lon="8.76333">
        <ele>619</ele>
        <time>2021-08-04T10:12:22.783Z</time>
      </trkpt>
      <trkpt lat="46.97389" lon="8.76331">
        <ele>619</ele>
        <time>2021-08-04T10:12:23.784Z</time>
      </trkpt>
      <trkpt lat="46.97389" lon="8.76329">
        <ele>619</ele>
        <time>2021-08-04T10:12:24.784Z</time>
      </trkpt>
      <trkpt lat="46.97389" lon="8.76327">
        <ele>619</ele>
        <time>2021-08-04T10:12:25.783Z</time>
      </trkpt>
      <trkpt lat="46.97389" lon="8.76325">
        <ele>620</ele>
        <time>2021-08-04T10:12:26.784Z</time>
      </trkpt>
      <trkpt lat="46.97389" lon="8.76323">
        <ele>620</ele>
        <time>2021-08-04T10:12:27.784Z</time>
      </trkpt>
      <trkpt lat="46.9739" lon="8.76322">
        <ele>620</ele>
        <time>2021-08-04T10:12:28.783Z</time>
      </trkpt>
      <trkpt lat="46.97391" lon="8.7632">
        <ele>620</ele>
        <time>2021-08-04T10:12:29.784Z</time>
      </trkpt>
      <trkpt lat="46.97393" lon="8.76318">
        <ele>621</ele>
        <time>2021-08-04T10:12:30.784Z</time>
      </trkpt>
      <trkpt lat="46.97394" lon="8.76316">
        <ele>621</ele>
        <time>2021-08-04T10:12:31.783Z</time>
      </trkpt>
      <trkpt lat="46.97395" lon="8.76314">
        <ele>621</ele>
        <time>2021-08-04T10:12:32.783Z</time>
      </trkpt>
      <trkpt lat="46.97395" lon="8.76313">
        <ele>621</ele>
        <time>2021-08-04T10:12:33.783Z</time>
      </trkpt>
      <trkpt lat="46.97395" lon="8.76311">
        <ele>621</ele>
        <time>2021-08-04T10:12:34.783Z</time>
      </trkpt>
      <trkpt lat="46.97395" lon="8.76309">
        <ele>621</ele>
        <time>2021-08-04T10:12:35.784Z</time>
      </trkpt>
      <trkpt lat="46.97395" lon="8.76308">
        <ele>621</ele>
        <time>2021-08-04T10:12:36.784Z</time>
      </trkpt>
      <trkpt lat="46.97396" lon="8.76306">
        <ele>620</ele>
        <time>2021-08-04T10:12:37.783Z</time>
      </trkpt>
      <trkpt lat="46.97396" lon="8.76304">
        <ele>620</ele>
        <time>2021-08-04T10:12:38.783Z</time>
      </trkpt>
      <trkpt lat="46.97396" lon="8.76302">
        <ele>620</ele>
        <time>2021-08-04T10:12:39.784Z</time>
      </trkpt>
      <trkpt lat="46.97397" lon="8.76301">
        <ele>619</ele>
        <time>2021-08-04T10:12:40.783Z</time>
      </trkpt>
      <trkpt lat="46.97397" lon="8.76299">
        <ele>619</ele>
        <time>2021-08-04T10:12:41.784Z</time>
      </trkpt>
      <trkpt lat="46.97397" lon="8.76297">
        <ele>619</ele>
        <time>2021-08-04T10:12:42.784Z</time>
      </trkpt>
      <trkpt lat="46.97398" lon="8.76294">
        <ele>619</ele>
        <time>2021-08-04T10:12:43.784Z</time>
      </trkpt>
      <trkpt lat="46.97398" lon="8.76292">
        <ele>620</ele>
        <time>2021-08-04T10:12:44.783Z</time>
      </trkpt>
      <trkpt lat="46.97399" lon="8.7629">
        <ele>620</ele>
        <time>2021-08-04T10:12:45.784Z</time>
      </trkpt>
      <trkpt lat="46.97399" lon="8.76288">
        <ele>620</ele>
        <time>2021-08-04T10:12:46.784Z</time>
      </trkpt>
      <trkpt lat="46.97399" lon="8.76286">
        <ele>620</ele>
        <time>2021-08-04T10:12:47.784Z</time>
      </trkpt>
      <trkpt lat="46.97399" lon="8.76285">
        <ele>621</ele>
        <time>2021-08-04T10:12:48.784Z</time>
      </trkpt>
      <trkpt lat="46.97399" lon="8.76283">
        <ele>621</ele>
        <time>2021-08-04T10:12:49.783Z</time>
      </trkpt>
      <trkpt lat="46.97399" lon="8.76282">
        <ele>621</ele>
        <time>2021-08-04T10:12:50.783Z</time>
      </trkpt>
      <trkpt lat="46.97399" lon="8.76281">
        <ele>621</ele>
        <time>2021-08-04T10:12:51.784Z</time>
      </trkpt>
      <trkpt lat="46.974" lon="8.76279">
        <ele>622</ele>
        <time>2021-08-04T10:12:52.784Z</time>
      </trkpt>
      <trkpt lat="46.974" lon="8.76277">
        <ele>622</ele>
        <time>2021-08-04T10:12:53.783Z</time>
      </trkpt>
      <trkpt lat="46.974" lon="8.76276">
        <ele>622</ele>
        <time>2021-08-04T10:12:54.784Z</time>
      </trkpt>
      <trkpt lat="46.97401" lon="8.76275">
        <ele>622</ele>
        <time>2021-08-04T10:12:55.784Z</time>
      </trkpt>
      <trkpt lat="46.97402" lon="8.76273">
        <ele>622</ele>
        <time>2021-08-04T10:12:56.783Z</time>
      </trkpt>
      <trkpt lat="46.97403" lon="8.76271">
        <ele>622</ele>
        <time>2021-08-04T10:12:57.784Z</time>
      </trkpt>
      <trkpt lat="46.97404" lon="8.76269">
        <ele>622</ele>
        <time>2021-08-04T10:12:58.784Z</time>
      </trkpt>
      <trkpt lat="46.97405" lon="8.76267">
        <ele>622</ele>
        <time>2021-08-04T10:12:59.784Z</time>
      </trkpt>
      <trkpt lat="46.97405" lon="8.76265">
        <ele>622</ele>
        <time>2021-08-04T10:13:00.784Z</time>
      </trkpt>
      <trkpt lat="46.97406" lon="8.76264">
        <ele>622</ele>
        <time>2021-08-04T10:13:01.784Z</time>
      </trkpt>
      <trkpt lat="46.97406" lon="8.76262">
        <ele>622</ele>
        <time>2021-08-04T10:13:02.783Z</time>
      </trkpt>
      <trkpt lat="46.97407" lon="8.7626">
        <ele>622</ele>
        <time>2021-08-04T10:13:03.784Z</time>
      </trkpt>
      <trkpt lat="46.97407" lon="8.76258">
        <ele>621</ele>
        <time>2021-08-04T10:13:04.783Z</time>
      </trkpt>
      <trkpt lat="46.97408" lon="8.76257">
        <ele>621</ele>
        <time>2021-08-04T10:13:05.784Z</time>
      </trkpt>
      <trkpt lat="46.97408" lon="8.76255">
        <ele>621</ele>
        <time>2021-08-04T10:13:06.783Z</time>
      </trkpt>
      <trkpt lat="46.97409" lon="8.76254">
        <ele>621</ele>
        <time>2021-08-04T10:13:07.784Z</time>
      </trkpt>
      <trkpt lat="46.97408" lon="8.76252">
        <ele>621</ele>
        <time>2021-08-04T10:13:08.784Z</time>
      </trkpt>
      <trkpt lat="46.97408" lon="8.76251">
        <ele>621</ele>
        <time>2021-08-04T10:13:09.784Z</time>
      </trkpt>
      <trkpt lat="46.97408" lon="8.7625">
        <ele>620</ele>
        <time>2021-08-04T10:13:10.784Z</time>
      </trkpt>
      <trkpt lat="46.97409" lon="8.76249">
        <ele>620</ele>
        <time>2021-08-04T10:13:11.784Z</time>
      </trkpt>
      <trkpt lat="46.97409" lon="8.76247">
        <ele>620</ele>
        <time>2021-08-04T10:13:12.783Z</time>
      </trkpt>
      <trkpt lat="46.9741" lon="8.76246">
        <ele>620</ele>
        <time>2021-08-04T10:13:13.783Z</time>
      </trkpt>
      <trkpt lat="46.9741" lon="8.76244">
        <ele>620</ele>
        <time>2021-08-04T10:13:14.783Z</time>
      </trkpt>
      <trkpt lat="46.9741" lon="8.76243">
        <ele>619</ele>
        <time>2021-08-04T10:13:15.784Z</time>
      </trkpt>
      <trkpt lat="46.9741" lon="8.76241">
        <ele>619</ele>
        <time>2021-08-04T10:13:16.784Z</time>
      </trkpt>
      <trkpt lat="46.9741" lon="8.76239">
        <ele>619</ele>
        <time>2021-08-04T10:13:17.784Z</time>
      </trkpt>
      <trkpt lat="46.97411" lon="8.76237">
        <ele>619</ele>
        <time>2021-08-04T10:13:18.783Z</time>
      </trkpt>
      <trkpt lat="46.97411" lon="8.76235">
        <ele>619</ele>
        <time>2021-08-04T10:13:19.783Z</time>
      </trkpt>
      <trkpt lat="46.97412" lon="8.76233">
        <ele>618</ele>
        <time>2021-08-04T10:13:20.784Z</time>
      </trkpt>
      <trkpt lat="46.97412" lon="8.76232">
        <ele>618</ele>
        <time>2021-08-04T10:13:21.784Z</time>
      </trkpt>
      <trkpt lat="46.97412" lon="8.7623">
        <ele>618</ele>
        <time>2021-08-04T10:13:22.784Z</time>
      </trkpt>
      <trkpt lat="46.97412" lon="8.76228">
        <ele>618</ele>
        <time>2021-08-04T10:13:23.784Z</time>
      </trkpt>
      <trkpt lat="46.97413" lon="8.76226">
        <ele>618</ele>
        <time>2021-08-04T10:13:24.784Z</time>
      </trkpt>
      <trkpt lat="46.97413" lon="8.76225">
        <ele>618</ele>
        <time>2021-08-04T10:13:25.784Z</time>
      </trkpt>
      <trkpt lat="46.97414" lon="8.76223">
        <ele>618</ele>
        <time>2021-08-04T10:13:26.784Z</time>
      </trkpt>
      <trkpt lat="46.97414" lon="8.76221">
        <ele>617</ele>
        <time>2021-08-04T10:13:27.783Z</time>
      </trkpt>
      <trkpt lat="46.97414" lon="8.7622">
        <ele>617</ele>
        <time>2021-08-04T10:13:28.783Z</time>
      </trkpt>
      <trkpt lat="46.97415" lon="8.76218">
        <ele>617</ele>
        <time>2021-08-04T10:13:29.784Z</time>
      </trkpt>
      <trkpt lat="46.97415" lon="8.76217">
        <ele>617</ele>
        <time>2021-08-04T10:13:30.784Z</time>
      </trkpt>
      <trkpt lat="46.97416" lon="8.76215">
        <ele>617</ele>
        <time>2021-08-04T10:13:31.784Z</time>
      </trkpt>
      <trkpt lat="46.97416" lon="8.76213">
        <ele>617</ele>
        <time>2021-08-04T10:13:32.784Z</time>
      </trkpt>
      <trkpt lat="46.97416" lon="8.76211">
        <ele>617</ele>
        <time>2021-08-04T10:13:33.784Z</time>
      </trkpt>
      <trkpt lat="46.97417" lon="8.7621">
        <ele>617</ele>
        <time>2021-08-04T10:13:34.783Z</time>
      </trkpt>
      <trkpt lat="46.97417" lon="8.76209">
        <ele>618</ele>
        <time>2021-08-04T10:13:35.784Z</time>
      </trkpt>
      <trkpt lat="46.97417" lon="8.76207">
        <ele>618</ele>
        <time>2021-08-04T10:13:36.783Z</time>
      </trkpt>
      <trkpt lat="46.97417" lon="8.76206">
        <ele>619</ele>
        <time>2021-08-04T10:13:37.784Z</time>
      </trkpt>
      <trkpt lat="46.97417" lon="8.76205">
        <ele>619</ele>
        <time>2021-08-04T10:13:38.783Z</time>
      </trkpt>
      <trkpt lat="46.97418" lon="8.76204">
        <ele>619</ele>
        <time>2021-08-04T10:13:39.784Z</time>
      </trkpt>
      <trkpt lat="46.97418" lon="8.76203">
        <ele>620</ele>
        <time>2021-08-04T10:13:40.784Z</time>
      </trkpt>
      <trkpt lat="46.9742" lon="8.76201">
        <ele>620</ele>
        <time>2021-08-04T10:13:41.783Z</time>
      </trkpt>
      <trkpt lat="46.97422" lon="8.76199">
        <ele>619</ele>
        <time>2021-08-04T10:13:42.784Z</time>
      </trkpt>
      <trkpt lat="46.97423" lon="8.76198">
        <ele>619</ele>
        <time>2021-08-04T10:13:43.784Z</time>
      </trkpt>
      <trkpt lat="46.97423" lon="8.76196">
        <ele>619</ele>
        <time>2021-08-04T10:13:44.784Z</time>
      </trkpt>
      <trkpt lat="46.97424" lon="8.76194">
        <ele>618</ele>
        <time>2021-08-04T10:13:45.784Z</time>
      </trkpt>
      <trkpt lat="46.97424" lon="8.76192">
        <ele>618</ele>
        <time>2021-08-04T10:13:46.784Z</time>
      </trkpt>
      <trkpt lat="46.97424" lon="8.76191">
        <ele>618</ele>
        <time>2021-08-04T10:13:47.784Z</time>
      </trkpt>
      <trkpt lat="46.97425" lon="8.76189">
        <ele>618</ele>
        <time>2021-08-04T10:13:48.783Z</time>
      </trkpt>
      <trkpt lat="46.97426" lon="8.76188">
        <ele>618</ele>
        <time>2021-08-04T10:13:49.784Z</time>
      </trkpt>
      <trkpt lat="46.97426" lon="8.76187">
        <ele>618</ele>
        <time>2021-08-04T10:13:50.784Z</time>
      </trkpt>
      <trkpt lat="46.97427" lon="8.76185">
        <ele>618</ele>
        <time>2021-08-04T10:13:51.784Z</time>
      </trkpt>
      <trkpt lat="46.97427" lon="8.76184">
        <ele>618</ele>
        <time>2021-08-04T10:13:52.784Z</time>
      </trkpt>
      <trkpt lat="46.97427" lon="8.76183">
        <ele>618</ele>
        <time>2021-08-04T10:13:53.784Z</time>
      </trkpt>
      <trkpt lat="46.97427" lon="8.76182">
        <ele>618</ele>
        <time>2021-08-04T10:13:54.784Z</time>
      </trkpt>
      <trkpt lat="46.97427" lon="8.76181">
        <ele>618</ele>
        <time>2021-08-04T10:13:55.784Z</time>
      </trkpt>
      <trkpt lat="46.97426" lon="8.7618">
        <ele>618</ele>
        <time>2021-08-04T10:13:56.783Z</time>
      </trkpt>
      <trkpt lat="46.97427" lon="8.76179">
        <ele>618</ele>
        <time>2021-08-04T10:13:57.783Z</time>
      </trkpt>
      <trkpt lat="46.97427" lon="8.76178">
        <ele>617</ele>
        <time>2021-08-04T10:13:58.784Z</time>
      </trkpt>
      <trkpt lat="46.97428" lon="8.76177">
        <ele>617</ele>
        <time>2021-08-04T10:13:59.784Z</time>
      </trkpt>
      <trkpt lat="46.97428" lon="8.76175">
        <ele>617</ele>
        <time>2021-08-04T10:14:00.784Z</time>
      </trkpt>
      <trkpt lat="46.97427" lon="8.76172">
        <ele>617</ele>
        <time>2021-08-04T10:14:01.784Z</time>
      </trkpt>
      <trkpt lat="46.97427" lon="8.7617">
        <ele>618</ele>
        <time>2021-08-04T10:14:02.784Z</time>
      </trkpt>
      <trkpt lat="46.97427" lon="8.76169">
        <ele>618</ele>
        <time>2021-08-04T10:14:03.784Z</time>
      </trkpt>
      <trkpt lat="46.97428" lon="8.76168">
        <ele>618</ele>
        <time>2021-08-04T10:14:04.784Z</time>
      </trkpt>
      <trkpt lat="46.97429" lon="8.76166">
        <ele>618</ele>
        <time>2021-08-04T10:14:05.784Z</time>
      </trkpt>
      <trkpt lat="46.9743" lon="8.76164">
        <ele>619</ele>
        <time>2021-08-04T10:14:06.784Z</time>
      </trkpt>
      <trkpt lat="46.9743" lon="8.76163">
        <ele>619</ele>
        <time>2021-08-04T10:14:07.784Z</time>
      </trkpt>
      <trkpt lat="46.97431" lon="8.76161">
        <ele>619</ele>
        <time>2021-08-04T10:14:08.784Z</time>
      </trkpt>
      <trkpt lat="46.97431" lon="8.7616">
        <ele>619</ele>
        <time>2021-08-04T10:14:09.783Z</time>
      </trkpt>
      <trkpt lat="46.97431" lon="8.76158">
        <ele>619</ele>
        <time>2021-08-04T10:14:10.784Z</time>
      </trkpt>
      <trkpt lat="46.97432" lon="8.76157">
        <ele>619</ele>
        <time>2021-08-04T10:14:11.783Z</time>
      </trkpt>
      <trkpt lat="46.97432" lon="8.76155">
        <ele>619</ele>
        <time>2021-08-04T10:14:12.783Z</time>
      </trkpt>
      <trkpt lat="46.97432" lon="8.76154">
        <ele>619</ele>
        <time>2021-08-04T10:14:13.784Z</time>
      </trkpt>
      <trkpt lat="46.97431" lon="8.76152">
        <ele>619</ele>
        <time>2021-08-04T10:14:14.784Z</time>
      </trkpt>
      <trkpt lat="46.97431" lon="8.7615">
        <ele>619</ele>
        <time>2021-08-04T10:14:15.784Z</time>
      </trkpt>
      <trkpt lat="46.97431" lon="8.76149">
        <ele>619</ele>
        <time>2021-08-04T10:14:16.784Z</time>
      </trkpt>
      <trkpt lat="46.97432" lon="8.76147">
        <ele>619</ele>
        <time>2021-08-04T10:14:17.783Z</time>
      </trkpt>
      <trkpt lat="46.97433" lon="8.76145">
        <ele>620</ele>
        <time>2021-08-04T10:14:18.783Z</time>
      </trkpt>
      <trkpt lat="46.97433" lon="8.76143">
        <ele>620</ele>
        <time>2021-08-04T10:14:19.784Z</time>
      </trkpt>
      <trkpt lat="46.97434" lon="8.76141">
        <ele>620</ele>
        <time>2021-08-04T10:14:20.784Z</time>
      </trkpt>
      <trkpt lat="46.97434" lon="8.7614">
        <ele>621</ele>
        <time>2021-08-04T10:14:21.784Z</time>
      </trkpt>
      <trkpt lat="46.97435" lon="8.76138">
        <ele>621</ele>
        <time>2021-08-04T10:14:22.784Z</time>
      </trkpt>
      <trkpt lat="46.97436" lon="8.76136">
        <ele>621</ele>
        <time>2021-08-04T10:14:23.783Z</time>
      </trkpt>
      <trkpt lat="46.97437" lon="8.76134">
        <ele>621</ele>
        <time>2021-08-04T10:14:24.784Z</time>
      </trkpt>
      <trkpt lat="46.97438" lon="8.76133">
        <ele>621</ele>
        <time>2021-08-04T10:14:25.783Z</time>
      </trkpt>
      <trkpt lat="46.97439" lon="8.76131">
        <ele>621</ele>
        <time>2021-08-04T10:14:26.784Z</time>
      </trkpt>
      <trkpt lat="46.97439" lon="8.76129">
        <ele>621</ele>
        <time>2021-08-04T10:14:27.784Z</time>
      </trkpt>
      <trkpt lat="46.97439" lon="8.76127">
        <ele>621</ele>
        <time>2021-08-04T10:14:28.784Z</time>
      </trkpt>
      <trkpt lat="46.97439" lon="8.76125">
        <ele>620</ele>
        <time>2021-08-04T10:14:29.784Z</time>
      </trkpt>
      <trkpt lat="46.97439" lon="8.76123">
        <ele>621</ele>
        <time>2021-08-04T10:14:30.784Z</time>
      </trkpt>
      <trkpt lat="46.97439" lon="8.76122">
        <ele>621</ele>
        <time>2021-08-04T10:14:31.783Z</time>
      </trkpt>
      <trkpt lat="46.9744" lon="8.76119">
        <ele>621</ele>
        <time>2021-08-04T10:14:32.783Z</time>
      </trkpt>
      <trkpt lat="46.97439" lon="8.76117">
        <ele>621</ele>
        <time>2021-08-04T10:14:33.783Z</time>
      </trkpt>
      <trkpt lat="46.97439" lon="8.76114">
        <ele>621</ele>
        <time>2021-08-04T10:14:34.784Z</time>
      </trkpt>
      <trkpt lat="46.9744" lon="8.76111">
        <ele>621</ele>
        <time>2021-08-04T10:14:35.784Z</time>
      </trkpt>
      <trkpt lat="46.9744" lon="8.76109">
        <ele>621</ele>
        <time>2021-08-04T10:14:36.784Z</time>
      </trkpt>
      <trkpt lat="46.9744" lon="8.76106">
        <ele>621</ele>
        <time>2021-08-04T10:14:37.784Z</time>
      </trkpt>
      <trkpt lat="46.97441" lon="8.76104">
        <ele>621</ele>
        <time>2021-08-04T10:14:38.784Z</time>
      </trkpt>
      <trkpt lat="46.97441" lon="8.76102">
        <ele>622</ele>
        <time>2021-08-04T10:14:39.783Z</time>
      </trkpt>
      <trkpt lat="46.97442" lon="8.76101">
        <ele>622</ele>
        <time>2021-08-04T10:14:40.783Z</time>
      </trkpt>
      <trkpt lat="46.97442" lon="8.76099">
        <ele>622</ele>
        <time>2021-08-04T10:14:41.783Z</time>
      </trkpt>
      <trkpt lat="46.97442" lon="8.76098">
        <ele>622</ele>
        <time>2021-08-04T10:14:42.784Z</time>
      </trkpt>
      <trkpt lat="46.97443" lon="8.76097">
        <ele>622</ele>
        <time>2021-08-04T10:14:43.784Z</time>
      </trkpt>
      <trkpt lat="46.97444" lon="8.76096">
        <ele>622</ele>
        <time>2021-08-04T10:14:44.784Z</time>
      </trkpt>
      <trkpt lat="46.97445" lon="8.76095">
        <ele>622</ele>
        <time>2021-08-04T10:14:45.783Z</time>
      </trkpt>
      <trkpt lat="46.97445" lon="8.76094">
        <ele>623</ele>
        <time>2021-08-04T10:14:46.784Z</time>
      </trkpt>
      <trkpt lat="46.97446" lon="8.76093">
        <ele>623</ele>
        <time>2021-08-04T10:14:47.784Z</time>
      </trkpt>
      <trkpt lat="46.97447" lon="8.76091">
        <ele>623</ele>
        <time>2021-08-04T10:14:48.784Z</time>
      </trkpt>
      <trkpt lat="46.97447" lon="8.7609">
        <ele>623</ele>
        <time>2021-08-04T10:14:49.783Z</time>
      </trkpt>
      <trkpt lat="46.97448" lon="8.76088">
        <ele>622</ele>
        <time>2021-08-04T10:14:50.783Z</time>
      </trkpt>
      <trkpt lat="46.97448" lon="8.76087">
        <ele>622</ele>
        <time>2021-08-04T10:14:51.784Z</time>
      </trkpt>
      <trkpt lat="46.97449" lon="8.76086">
        <ele>621</ele>
        <time>2021-08-04T10:14:52.784Z</time>
      </trkpt>
      <trkpt lat="46.97449" lon="8.76084">
        <ele>621</ele>
        <time>2021-08-04T10:14:53.784Z</time>
      </trkpt>
      <trkpt lat="46.9745" lon="8.76082">
        <ele>621</ele>
        <time>2021-08-04T10:14:54.784Z</time>
      </trkpt>
      <trkpt lat="46.9745" lon="8.7608">
        <ele>620</ele>
        <time>2021-08-04T10:14:55.784Z</time>
      </trkpt>
      <trkpt lat="46.9745" lon="8.76078">
        <ele>620</ele>
        <time>2021-08-04T10:14:56.784Z</time>
      </trkpt>
      <trkpt lat="46.9745" lon="8.76076">
        <ele>619</ele>
        <time>2021-08-04T10:14:57.783Z</time>
      </trkpt>
      <trkpt lat="46.97451" lon="8.76075">
        <ele>619</ele>
        <time>2021-08-04T10:14:58.783Z</time>
      </trkpt>
      <trkpt lat="46.97452" lon="8.76073">
        <ele>619</ele>
        <time>2021-08-04T10:14:59.783Z</time>
      </trkpt>
      <trkpt lat="46.97452" lon="8.76071">
        <ele>619</ele>
        <time>2021-08-04T10:15:00.783Z</time>
      </trkpt>
      <trkpt lat="46.97453" lon="8.76069">
        <ele>619</ele>
        <time>2021-08-04T10:15:01.784Z</time>
      </trkpt>
      <trkpt lat="46.97453" lon="8.76068">
        <ele>619</ele>
        <time>2021-08-04T10:15:02.784Z</time>
      </trkpt>
      <trkpt lat="46.97454" lon="8.76066">
        <ele>619</ele>
        <time>2021-08-04T10:15:03.784Z</time>
      </trkpt>
      <trkpt lat="46.97455" lon="8.76066">
        <ele>619</ele>
        <time>2021-08-04T10:15:04.784Z</time>
      </trkpt>
      <trkpt lat="46.97455" lon="8.76064">
        <ele>618</ele>
        <time>2021-08-04T10:15:05.784Z</time>
      </trkpt>
      <trkpt lat="46.97456" lon="8.76062">
        <ele>618</ele>
        <time>2021-08-04T10:15:06.783Z</time>
      </trkpt>
      <trkpt lat="46.97457" lon="8.7606">
        <ele>618</ele>
        <time>2021-08-04T10:15:07.784Z</time>
      </trkpt>
      <trkpt lat="46.97458" lon="8.76059">
        <ele>618</ele>
        <time>2021-08-04T10:15:08.783Z</time>
      </trkpt>
      <trkpt lat="46.97458" lon="8.76057">
        <ele>618</ele>
        <time>2021-08-04T10:15:09.783Z</time>
      </trkpt>
      <trkpt lat="46.9746" lon="8.76056">
        <ele>617</ele>
        <time>2021-08-04T10:15:10.784Z</time>
      </trkpt>
      <trkpt lat="46.9746" lon="8.76054">
        <ele>617</ele>
        <time>2021-08-04T10:15:11.783Z</time>
      </trkpt>
      <trkpt lat="46.97461" lon="8.76052">
        <ele>617</ele>
        <time>2021-08-04T10:15:12.783Z</time>
      </trkpt>
      <trkpt lat="46.9746" lon="8.76049">
        <ele>617</ele>
        <time>2021-08-04T10:15:13.783Z</time>
      </trkpt>
      <trkpt lat="46.97461" lon="8.76047">
        <ele>617</ele>
        <time>2021-08-04T10:15:14.784Z</time>
      </trkpt>
      <trkpt lat="46.97462" lon="8.76045">
        <ele>617</ele>
        <time>2021-08-04T10:15:15.784Z</time>
      </trkpt>
      <trkpt lat="46.97463" lon="8.76044">
        <ele>617</ele>
        <time>2021-08-04T10:15:16.784Z</time>
      </trkpt>
      <trkpt lat="46.97463" lon="8.76043">
        <ele>617</ele>
        <time>2021-08-04T10:15:17.784Z</time>
      </trkpt>
      <trkpt lat="46.97465" lon="8.76041">
        <ele>617</ele>
        <time>2021-08-04T10:15:18.783Z</time>
      </trkpt>
      <trkpt lat="46.97466" lon="8.7604">
        <ele>617</ele>
        <time>2021-08-04T10:15:19.784Z</time>
      </trkpt>
      <trkpt lat="46.97466" lon="8.76038">
        <ele>617</ele>
        <time>2021-08-04T10:15:20.783Z</time>
      </trkpt>
      <trkpt lat="46.97466" lon="8.76036">
        <ele>617</ele>
        <time>2021-08-04T10:15:21.783Z</time>
      </trkpt>
      <trkpt lat="46.97467" lon="8.76034">
        <ele>617</ele>
        <time>2021-08-04T10:15:22.784Z</time>
      </trkpt>
      <trkpt lat="46.97467" lon="8.76032">
        <ele>617</ele>
        <time>2021-08-04T10:15:23.784Z</time>
      </trkpt>
      <trkpt lat="46.97468" lon="8.7603">
        <ele>617</ele>
        <time>2021-08-04T10:15:24.784Z</time>
      </trkpt>
      <trkpt lat="46.97468" lon="8.76029">
        <ele>617</ele>
        <time>2021-08-04T10:15:25.783Z</time>
      </trkpt>
      <trkpt lat="46.97468" lon="8.76028">
        <ele>617</ele>
        <time>2021-08-04T10:15:26.783Z</time>
      </trkpt>
      <trkpt lat="46.97469" lon="8.76026">
        <ele>618</ele>
        <time>2021-08-04T10:15:27.783Z</time>
      </trkpt>
      <trkpt lat="46.97469" lon="8.76024">
        <ele>618</ele>
        <time>2021-08-04T10:15:28.784Z</time>
      </trkpt>
      <trkpt lat="46.9747" lon="8.76023">
        <ele>618</ele>
        <time>2021-08-04T10:15:29.784Z</time>
      </trkpt>
      <trkpt lat="46.9747" lon="8.76021">
        <ele>618</ele>
        <time>2021-08-04T10:15:30.784Z</time>
      </trkpt>
      <trkpt lat="46.97471" lon="8.7602">
        <ele>618</ele>
        <time>2021-08-04T10:15:31.784Z</time>
      </trkpt>
      <trkpt lat="46.97472" lon="8.76018">
        <ele>618</ele>
        <time>2021-08-04T10:15:32.783Z</time>
      </trkpt>
      <trkpt lat="46.97473" lon="8.76017">
        <ele>618</ele>
        <time>2021-08-04T10:15:33.784Z</time>
      </trkpt>
      <trkpt lat="46.97474" lon="8.76015">
        <ele>618</ele>
        <time>2021-08-04T10:15:34.783Z</time>
      </trkpt>
      <trkpt lat="46.97474" lon="8.76013">
        <ele>618</ele>
        <time>2021-08-04T10:15:35.783Z</time>
      </trkpt>
      <trkpt lat="46.97475" lon="8.76011">
        <ele>618</ele>
        <time>2021-08-04T10:15:36.783Z</time>
      </trkpt>
      <trkpt lat="46.97476" lon="8.7601">
        <ele>618</ele>
        <time>2021-08-04T10:15:37.784Z</time>
      </trkpt>
      <trkpt lat="46.97476" lon="8.76008">
        <ele>618</ele>
        <time>2021-08-04T10:15:38.784Z</time>
      </trkpt>
      <trkpt lat="46.97477" lon="8.76007">
        <ele>618</ele>
        <time>2021-08-04T10:15:39.784Z</time>
      </trkpt>
      <trkpt lat="46.97477" lon="8.76005">
        <ele>617</ele>
        <time>2021-08-04T10:15:40.784Z</time>
      </trkpt>
      <trkpt lat="46.97478" lon="8.76004">
        <ele>617</ele>
        <time>2021-08-04T10:15:41.783Z</time>
      </trkpt>
      <trkpt lat="46.97479" lon="8.76003">
        <ele>616</ele>
        <time>2021-08-04T10:15:42.784Z</time>
      </trkpt>
      <trkpt lat="46.97479" lon="8.76001">
        <ele>616</ele>
        <time>2021-08-04T10:15:43.783Z</time>
      </trkpt>
      <trkpt lat="46.97479" lon="8.75999">
        <ele>616</ele>
        <time>2021-08-04T10:15:44.783Z</time>
      </trkpt>
      <trkpt lat="46.97479" lon="8.75997">
        <ele>616</ele>
        <time>2021-08-04T10:15:45.784Z</time>
      </trkpt>
      <trkpt lat="46.9748" lon="8.75995">
        <ele>616</ele>
        <time>2021-08-04T10:15:46.784Z</time>
      </trkpt>
      <trkpt lat="46.97481" lon="8.75993">
        <ele>616</ele>
        <time>2021-08-04T10:15:47.784Z</time>
      </trkpt>
      <trkpt lat="46.97481" lon="8.75991">
        <ele>616</ele>
        <time>2021-08-04T10:15:48.784Z</time>
      </trkpt>
      <trkpt lat="46.97482" lon="8.75989">
        <ele>616</ele>
        <time>2021-08-04T10:15:49.784Z</time>
      </trkpt>
      <trkpt lat="46.97482" lon="8.75987">
        <ele>616</ele>
        <time>2021-08-04T10:15:50.784Z</time>
      </trkpt>
      <trkpt lat="46.97483" lon="8.75986">
        <ele>616</ele>
        <time>2021-08-04T10:15:51.784Z</time>
      </trkpt>
      <trkpt lat="46.97483" lon="8.75984">
        <ele>615</ele>
        <time>2021-08-04T10:15:52.783Z</time>
      </trkpt>
      <trkpt lat="46.97483" lon="8.75982">
        <ele>615</ele>
        <time>2021-08-04T10:15:53.784Z</time>
      </trkpt>
      <trkpt lat="46.97482" lon="8.7598">
        <ele>615</ele>
        <time>2021-08-04T10:15:54.784Z</time>
      </trkpt>
      <trkpt lat="46.97482" lon="8.75979">
        <ele>615</ele>
        <time>2021-08-04T10:15:55.783Z</time>
      </trkpt>
      <trkpt lat="46.97482" lon="8.75977">
        <ele>615</ele>
        <time>2021-08-04T10:15:56.784Z</time>
      </trkpt>
      <trkpt lat="46.97482" lon="8.75975">
        <ele>615</ele>
        <time>2021-08-04T10:15:57.784Z</time>
      </trkpt>
      <trkpt lat="46.97483" lon="8.75973">
        <ele>615</ele>
        <time>2021-08-04T10:15:58.784Z</time>
      </trkpt>
      <trkpt lat="46.97483" lon="8.7597">
        <ele>615</ele>
        <time>2021-08-04T10:15:59.784Z</time>
      </trkpt>
      <trkpt lat="46.97483" lon="8.75968">
        <ele>615</ele>
        <time>2021-08-04T10:16:00.784Z</time>
      </trkpt>
      <trkpt lat="46.97484" lon="8.75966">
        <ele>615</ele>
        <time>2021-08-04T10:16:01.783Z</time>
      </trkpt>
      <trkpt lat="46.97485" lon="8.75964">
        <ele>615</ele>
        <time>2021-08-04T10:16:02.784Z</time>
      </trkpt>
      <trkpt lat="46.97486" lon="8.75963">
        <ele>615</ele>
        <time>2021-08-04T10:16:03.784Z</time>
      </trkpt>
      <trkpt lat="46.97486" lon="8.75961">
        <ele>615</ele>
        <time>2021-08-04T10:16:04.784Z</time>
      </trkpt>
      <trkpt lat="46.97486" lon="8.7596">
        <ele>615</ele>
        <time>2021-08-04T10:16:07.899Z</time>
      </trkpt>
      <trkpt lat="46.97486" lon="8.75958">
        <ele>615</ele>
        <time>2021-08-04T10:16:08.899Z</time>
      </trkpt>
      <trkpt lat="46.97486" lon="8.75956">
        <ele>615</ele>
        <time>2021-08-04T10:16:11.797Z</time>
      </trkpt>
      <trkpt lat="46.97487" lon="8.75954">
        <ele>615</ele>
        <time>2021-08-04T10:16:12.797Z</time>
      </trkpt>
      <trkpt lat="46.97488" lon="8.75951">
        <ele>615</ele>
        <time>2021-08-04T10:16:13.798Z</time>
      </trkpt>
      <trkpt lat="46.97489" lon="8.75949">
        <ele>615</ele>
        <time>2021-08-04T10:16:14.797Z</time>
      </trkpt>
      <trkpt lat="46.9749" lon="8.75947">
        <ele>615</ele>
        <time>2021-08-04T10:16:15.798Z</time>
      </trkpt>
      <trkpt lat="46.97491" lon="8.75945">
        <ele>615</ele>
        <time>2021-08-04T10:16:16.797Z</time>
      </trkpt>
      <trkpt lat="46.97493" lon="8.75943">
        <ele>615</ele>
        <time>2021-08-04T10:16:17.798Z</time>
      </trkpt>
      <trkpt lat="46.97493" lon="8.75941">
        <ele>615</ele>
        <time>2021-08-04T10:16:18.798Z</time>
      </trkpt>
      <trkpt lat="46.97493" lon="8.75939">
        <ele>615</ele>
        <time>2021-08-04T10:16:19.797Z</time>
      </trkpt>
      <trkpt lat="46.97494" lon="8.75936">
        <ele>615</ele>
        <time>2021-08-04T10:16:20.798Z</time>
      </trkpt>
      <trkpt lat="46.97495" lon="8.75934">
        <ele>615</ele>
        <time>2021-08-04T10:16:21.797Z</time>
      </trkpt>
      <trkpt lat="46.97497" lon="8.75932">
        <ele>615</ele>
        <time>2021-08-04T10:16:22.797Z</time>
      </trkpt>
      <trkpt lat="46.97498" lon="8.75929">
        <ele>615</ele>
        <time>2021-08-04T10:16:23.797Z</time>
      </trkpt>
      <trkpt lat="46.975" lon="8.75927">
        <ele>615</ele>
        <time>2021-08-04T10:16:24.798Z</time>
      </trkpt>
      <trkpt lat="46.975" lon="8.75925">
        <ele>615</ele>
        <time>2021-08-04T10:16:25.797Z</time>
      </trkpt>
      <trkpt lat="46.975" lon="8.75923">
        <ele>614</ele>
        <time>2021-08-04T10:16:26.798Z</time>
      </trkpt>
      <trkpt lat="46.975" lon="8.75921">
        <ele>614</ele>
        <time>2021-08-04T10:16:27.797Z</time>
      </trkpt>
      <trkpt lat="46.975" lon="8.7592">
        <ele>614</ele>
        <time>2021-08-04T10:16:28.798Z</time>
      </trkpt>
      <trkpt lat="46.975" lon="8.75919">
        <ele>615</ele>
        <time>2021-08-04T10:16:29.798Z</time>
      </trkpt>
      <trkpt lat="46.97501" lon="8.75918">
        <ele>614</ele>
        <time>2021-08-04T10:16:30.797Z</time>
      </trkpt>
      <trkpt lat="46.97501" lon="8.75916">
        <ele>614</ele>
        <time>2021-08-04T10:16:31.797Z</time>
      </trkpt>
      <trkpt lat="46.97502" lon="8.75915">
        <ele>614</ele>
        <time>2021-08-04T10:16:32.797Z</time>
      </trkpt>
      <trkpt lat="46.97502" lon="8.75913">
        <ele>614</ele>
        <time>2021-08-04T10:16:33.797Z</time>
      </trkpt>
      <trkpt lat="46.97502" lon="8.75912">
        <ele>614</ele>
        <time>2021-08-04T10:16:34.797Z</time>
      </trkpt>
      <trkpt lat="46.97503" lon="8.7591">
        <ele>614</ele>
        <time>2021-08-04T10:16:35.798Z</time>
      </trkpt>
      <trkpt lat="46.97503" lon="8.75908">
        <ele>614</ele>
        <time>2021-08-04T10:16:36.797Z</time>
      </trkpt>
      <trkpt lat="46.97503" lon="8.75907">
        <ele>613</ele>
        <time>2021-08-04T10:16:37.797Z</time>
      </trkpt>
      <trkpt lat="46.97504" lon="8.75905">
        <ele>613</ele>
        <time>2021-08-04T10:16:38.798Z</time>
      </trkpt>
      <trkpt lat="46.97504" lon="8.75903">
        <ele>613</ele>
        <time>2021-08-04T10:16:39.798Z</time>
      </trkpt>
      <trkpt lat="46.97504" lon="8.75902">
        <ele>613</ele>
        <time>2021-08-04T10:16:40.797Z</time>
      </trkpt>
      <trkpt lat="46.97503" lon="8.759">
        <ele>613</ele>
        <time>2021-08-04T10:16:46.816Z</time>
      </trkpt>
      <trkpt lat="46.97503" lon="8.75897">
        <ele>613</ele>
        <time>2021-08-04T10:16:47.817Z</time>
      </trkpt>
      <trkpt lat="46.97503" lon="8.75895">
        <ele>613</ele>
        <time>2021-08-04T10:16:48.817Z</time>
      </trkpt>
      <trkpt lat="46.97503" lon="8.75893">
        <ele>613</ele>
        <time>2021-08-04T10:16:49.817Z</time>
      </trkpt>
      <trkpt lat="46.97504" lon="8.75891">
        <ele>613</ele>
        <time>2021-08-04T10:16:50.817Z</time>
      </trkpt>
      <trkpt lat="46.97504" lon="8.7589">
        <ele>612</ele>
        <time>2021-08-04T10:16:51.816Z</time>
      </trkpt>
      <trkpt lat="46.97505" lon="8.75888">
        <ele>612</ele>
        <time>2021-08-04T10:16:52.816Z</time>
      </trkpt>
      <trkpt lat="46.97506" lon="8.75886">
        <ele>612</ele>
        <time>2021-08-04T10:16:53.817Z</time>
      </trkpt>
      <trkpt lat="46.97506" lon="8.75885">
        <ele>612</ele>
        <time>2021-08-04T10:16:54.816Z</time>
      </trkpt>
      <trkpt lat="46.97506" lon="8.75883">
        <ele>612</ele>
        <time>2021-08-04T10:16:55.816Z</time>
      </trkpt>
      <trkpt lat="46.97506" lon="8.75881">
        <ele>612</ele>
        <time>2021-08-04T10:16:56.816Z</time>
      </trkpt>
      <trkpt lat="46.97506" lon="8.7588">
        <ele>612</ele>
        <time>2021-08-04T10:16:57.816Z</time>
      </trkpt>
      <trkpt lat="46.97506" lon="8.75878">
        <ele>612</ele>
        <time>2021-08-04T10:16:58.817Z</time>
      </trkpt>
      <trkpt lat="46.97506" lon="8.75877">
        <ele>612</ele>
        <time>2021-08-04T10:16:59.817Z</time>
      </trkpt>
      <trkpt lat="46.97506" lon="8.75876">
        <ele>612</ele>
        <time>2021-08-04T10:17:00.817Z</time>
      </trkpt>
      <trkpt lat="46.97507" lon="8.75875">
        <ele>612</ele>
        <time>2021-08-04T10:17:01.816Z</time>
      </trkpt>
      <trkpt lat="46.97508" lon="8.75873">
        <ele>613</ele>
        <time>2021-08-04T10:17:02.817Z</time>
      </trkpt>
      <trkpt lat="46.97508" lon="8.75871">
        <ele>613</ele>
        <time>2021-08-04T10:17:03.817Z</time>
      </trkpt>
      <trkpt lat="46.97509" lon="8.7587">
        <ele>613</ele>
        <time>2021-08-04T10:17:04.816Z</time>
      </trkpt>
      <trkpt lat="46.97509" lon="8.75868">
        <ele>613</ele>
        <time>2021-08-04T10:17:05.816Z</time>
      </trkpt>
      <trkpt lat="46.9751" lon="8.75867">
        <ele>613</ele>
        <time>2021-08-04T10:17:06.816Z</time>
      </trkpt>
      <trkpt lat="46.9751" lon="8.75865">
        <ele>613</ele>
        <time>2021-08-04T10:17:07.816Z</time>
      </trkpt>
      <trkpt lat="46.9751" lon="8.75864">
        <ele>613</ele>
        <time>2021-08-04T10:17:08.816Z</time>
      </trkpt>
      <trkpt lat="46.97511" lon="8.75862">
        <ele>614</ele>
        <time>2021-08-04T10:17:09.817Z</time>
      </trkpt>
      <trkpt lat="46.97511" lon="8.75861">
        <ele>614</ele>
        <time>2021-08-04T10:17:10.817Z</time>
      </trkpt>
      <trkpt lat="46.97511" lon="8.75857">
        <ele>614</ele>
        <time>2021-08-04T10:17:11.816Z</time>
      </trkpt>
      <trkpt lat="46.97512" lon="8.75854">
        <ele>614</ele>
        <time>2021-08-04T10:17:12.817Z</time>
      </trkpt>
      <trkpt lat="46.97512" lon="8.75853">
        <ele>614</ele>
        <time>2021-08-04T10:17:13.816Z</time>
      </trkpt>
      <trkpt lat="46.97513" lon="8.75851">
        <ele>614</ele>
        <time>2021-08-04T10:17:14.817Z</time>
      </trkpt>
      <trkpt lat="46.97514" lon="8.75849">
        <ele>614</ele>
        <time>2021-08-04T10:17:15.817Z</time>
      </trkpt>
      <trkpt lat="46.97515" lon="8.75848">
        <ele>614</ele>
        <time>2021-08-04T10:17:16.817Z</time>
      </trkpt>
      <trkpt lat="46.97516" lon="8.75846">
        <ele>614</ele>
        <time>2021-08-04T10:17:17.817Z</time>
      </trkpt>
      <trkpt lat="46.97516" lon="8.75845">
        <ele>614</ele>
        <time>2021-08-04T10:17:18.816Z</time>
      </trkpt>
      <trkpt lat="46.97516" lon="8.75843">
        <ele>614</ele>
        <time>2021-08-04T10:17:19.816Z</time>
      </trkpt>
      <trkpt lat="46.97517" lon="8.75842">
        <ele>613</ele>
        <time>2021-08-04T10:17:20.817Z</time>
      </trkpt>
      <trkpt lat="46.97517" lon="8.7584">
        <ele>613</ele>
        <time>2021-08-04T10:17:21.816Z</time>
      </trkpt>
      <trkpt lat="46.97517" lon="8.75839">
        <ele>613</ele>
        <time>2021-08-04T10:17:22.816Z</time>
      </trkpt>
      <trkpt lat="46.97517" lon="8.75837">
        <ele>613</ele>
        <time>2021-08-04T10:17:23.816Z</time>
      </trkpt>
      <trkpt lat="46.97517" lon="8.75835">
        <ele>613</ele>
        <time>2021-08-04T10:17:24.816Z</time>
      </trkpt>
      <trkpt lat="46.97517" lon="8.75833">
        <ele>613</ele>
        <time>2021-08-04T10:17:25.816Z</time>
      </trkpt>
      <trkpt lat="46.97517" lon="8.75832">
        <ele>614</ele>
        <time>2021-08-04T10:17:26.816Z</time>
      </trkpt>
      <trkpt lat="46.97518" lon="8.7583">
        <ele>614</ele>
        <time>2021-08-04T10:17:27.817Z</time>
      </trkpt>
      <trkpt lat="46.97519" lon="8.75829">
        <ele>615</ele>
        <time>2021-08-04T10:17:28.817Z</time>
      </trkpt>
      <trkpt lat="46.9752" lon="8.75827">
        <ele>615</ele>
        <time>2021-08-04T10:17:29.816Z</time>
      </trkpt>
      <trkpt lat="46.97521" lon="8.75826">
        <ele>615</ele>
        <time>2021-08-04T10:17:30.816Z</time>
      </trkpt>
      <trkpt lat="46.97522" lon="8.75824">
        <ele>615</ele>
        <time>2021-08-04T10:17:31.816Z</time>
      </trkpt>
      <trkpt lat="46.97523" lon="8.75823">
        <ele>616</ele>
        <time>2021-08-04T10:17:32.816Z</time>
      </trkpt>
      <trkpt lat="46.97523" lon="8.75821">
        <ele>615</ele>
        <time>2021-08-04T10:17:33.817Z</time>
      </trkpt>
      <trkpt lat="46.97524" lon="8.75819">
        <ele>615</ele>
        <time>2021-08-04T10:17:34.816Z</time>
      </trkpt>
      <trkpt lat="46.97524" lon="8.75817">
        <ele>615</ele>
        <time>2021-08-04T10:17:35.816Z</time>
      </trkpt>
      <trkpt lat="46.97525" lon="8.75816">
        <ele>614</ele>
        <time>2021-08-04T10:17:36.816Z</time>
      </trkpt>
      <trkpt lat="46.97526" lon="8.75813">
        <ele>614</ele>
        <time>2021-08-04T10:17:37.817Z</time>
      </trkpt>
      <trkpt lat="46.97527" lon="8.75811">
        <ele>614</ele>
        <time>2021-08-04T10:17:38.817Z</time>
      </trkpt>
      <trkpt lat="46.97528" lon="8.7581">
        <ele>614</ele>
        <time>2021-08-04T10:17:39.816Z</time>
      </trkpt>
      <trkpt lat="46.97528" lon="8.75808">
        <ele>615</ele>
        <time>2021-08-04T10:17:40.816Z</time>
      </trkpt>
      <trkpt lat="46.97528" lon="8.75807">
        <ele>615</ele>
        <time>2021-08-04T10:17:41.816Z</time>
      </trkpt>
      <trkpt lat="46.97528" lon="8.75805">
        <ele>615</ele>
        <time>2021-08-04T10:17:42.816Z</time>
      </trkpt>
      <trkpt lat="46.97529" lon="8.75804">
        <ele>616</ele>
        <time>2021-08-04T10:17:43.816Z</time>
      </trkpt>
      <trkpt lat="46.9753" lon="8.75803">
        <ele>616</ele>
        <time>2021-08-04T10:17:44.817Z</time>
      </trkpt>
      <trkpt lat="46.97532" lon="8.75802">
        <ele>616</ele>
        <time>2021-08-04T10:17:45.816Z</time>
      </trkpt>
      <trkpt lat="46.97533" lon="8.758">
        <ele>617</ele>
        <time>2021-08-04T10:17:46.816Z</time>
      </trkpt>
      <trkpt lat="46.97534" lon="8.75798">
        <ele>617</ele>
        <time>2021-08-04T10:17:47.817Z</time>
      </trkpt>
      <trkpt lat="46.97534" lon="8.75796">
        <ele>616</ele>
        <time>2021-08-04T10:17:48.817Z</time>
      </trkpt>
      <trkpt lat="46.97534" lon="8.75794">
        <ele>616</ele>
        <time>2021-08-04T10:17:49.816Z</time>
      </trkpt>
      <trkpt lat="46.97534" lon="8.75792">
        <ele>616</ele>
        <time>2021-08-04T10:17:50.816Z</time>
      </trkpt>
      <trkpt lat="46.97534" lon="8.7579">
        <ele>616</ele>
        <time>2021-08-04T10:17:51.816Z</time>
      </trkpt>
      <trkpt lat="46.97534" lon="8.75788">
        <ele>616</ele>
        <time>2021-08-04T10:17:52.817Z</time>
      </trkpt>
      <trkpt lat="46.97534" lon="8.75786">
        <ele>616</ele>
        <time>2021-08-04T10:17:53.816Z</time>
      </trkpt>
      <trkpt lat="46.97534" lon="8.75784">
        <ele>616</ele>
        <time>2021-08-04T10:17:54.816Z</time>
      </trkpt>
      <trkpt lat="46.97535" lon="8.75782">
        <ele>616</ele>
        <time>2021-08-04T10:17:55.816Z</time>
      </trkpt>
      <trkpt lat="46.97535" lon="8.7578">
        <ele>615</ele>
        <time>2021-08-04T10:17:56.816Z</time>
      </trkpt>
      <trkpt lat="46.97535" lon="8.75778">
        <ele>615</ele>
        <time>2021-08-04T10:17:57.817Z</time>
      </trkpt>
      <trkpt lat="46.97535" lon="8.75777">
        <ele>616</ele>
        <time>2021-08-04T10:17:58.817Z</time>
      </trkpt>
      <trkpt lat="46.97535" lon="8.75775">
        <ele>616</ele>
        <time>2021-08-04T10:17:59.816Z</time>
      </trkpt>
      <trkpt lat="46.97536" lon="8.75774">
        <ele>616</ele>
        <time>2021-08-04T10:18:00.816Z</time>
      </trkpt>
      <trkpt lat="46.97536" lon="8.75772">
        <ele>615</ele>
        <time>2021-08-04T10:18:01.816Z</time>
      </trkpt>
      <trkpt lat="46.97536" lon="8.75771">
        <ele>615</ele>
        <time>2021-08-04T10:18:02.817Z</time>
      </trkpt>
      <trkpt lat="46.97536" lon="8.75769">
        <ele>614</ele>
        <time>2021-08-04T10:18:03.816Z</time>
      </trkpt>
      <trkpt lat="46.97536" lon="8.75767">
        <ele>614</ele>
        <time>2021-08-04T10:18:04.816Z</time>
      </trkpt>
      <trkpt lat="46.97536" lon="8.75764">
        <ele>614</ele>
        <time>2021-08-04T10:18:05.816Z</time>
      </trkpt>
      <trkpt lat="46.97536" lon="8.75762">
        <ele>614</ele>
        <time>2021-08-04T10:18:06.816Z</time>
      </trkpt>
      <trkpt lat="46.97536" lon="8.75761">
        <ele>614</ele>
        <time>2021-08-04T10:18:07.816Z</time>
      </trkpt>
      <trkpt lat="46.97536" lon="8.75758">
        <ele>614</ele>
        <time>2021-08-04T10:18:08.816Z</time>
      </trkpt>
      <trkpt lat="46.97537" lon="8.75757">
        <ele>614</ele>
        <time>2021-08-04T10:18:09.816Z</time>
      </trkpt>
      <trkpt lat="46.97536" lon="8.75756">
        <ele>615</ele>
        <time>2021-08-04T10:18:10.816Z</time>
      </trkpt>
      <trkpt lat="46.97537" lon="8.75754">
        <ele>615</ele>
        <time>2021-08-04T10:18:11.816Z</time>
      </trkpt>
      <trkpt lat="46.97538" lon="8.75753">
        <ele>615</ele>
        <time>2021-08-04T10:18:12.817Z</time>
      </trkpt>
      <trkpt lat="46.97539" lon="8.75751">
        <ele>616</ele>
        <time>2021-08-04T10:18:13.816Z</time>
      </trkpt>
      <trkpt lat="46.97539" lon="8.7575">
        <ele>617</ele>
        <time>2021-08-04T10:18:14.816Z</time>
      </trkpt>
      <trkpt lat="46.9754" lon="8.75748">
        <ele>617</ele>
        <time>2021-08-04T10:18:15.816Z</time>
      </trkpt>
      <trkpt lat="46.97541" lon="8.75746">
        <ele>617</ele>
        <time>2021-08-04T10:18:16.816Z</time>
      </trkpt>
      <trkpt lat="46.97542" lon="8.75744">
        <ele>617</ele>
        <time>2021-08-04T10:18:17.816Z</time>
      </trkpt>
      <trkpt lat="46.97544" lon="8.75742">
        <ele>617</ele>
        <time>2021-08-04T10:18:18.816Z</time>
      </trkpt>
      <trkpt lat="46.97544" lon="8.75739">
        <ele>617</ele>
        <time>2021-08-04T10:18:19.816Z</time>
      </trkpt>
      <trkpt lat="46.97543" lon="8.75737">
        <ele>617</ele>
        <time>2021-08-04T10:18:20.816Z</time>
      </trkpt>
      <trkpt lat="46.97543" lon="8.75734">
        <ele>617</ele>
        <time>2021-08-04T10:18:21.816Z</time>
      </trkpt>
      <trkpt lat="46.97542" lon="8.75732">
        <ele>617</ele>
        <time>2021-08-04T10:18:22.816Z</time>
      </trkpt>
      <trkpt lat="46.97542" lon="8.7573">
        <ele>617</ele>
        <time>2021-08-04T10:18:23.817Z</time>
      </trkpt>
      <trkpt lat="46.97542" lon="8.75728">
        <ele>617</ele>
        <time>2021-08-04T10:18:24.817Z</time>
      </trkpt>
      <trkpt lat="46.97542" lon="8.75726">
        <ele>618</ele>
        <time>2021-08-04T10:18:25.817Z</time>
      </trkpt>
      <trkpt lat="46.97543" lon="8.75725">
        <ele>618</ele>
        <time>2021-08-04T10:18:26.817Z</time>
      </trkpt>
      <trkpt lat="46.97543" lon="8.75723">
        <ele>618</ele>
        <time>2021-08-04T10:18:27.817Z</time>
      </trkpt>
      <trkpt lat="46.97544" lon="8.75722">
        <ele>618</ele>
        <time>2021-08-04T10:18:28.817Z</time>
      </trkpt>
      <trkpt lat="46.97545" lon="8.75721">
        <ele>618</ele>
        <time>2021-08-04T10:18:29.817Z</time>
      </trkpt>
      <trkpt lat="46.97546" lon="8.7572">
        <ele>617</ele>
        <time>2021-08-04T10:18:30.816Z</time>
      </trkpt>
      <trkpt lat="46.97546" lon="8.75718">
        <ele>617</ele>
        <time>2021-08-04T10:18:31.816Z</time>
      </trkpt>
      <trkpt lat="46.97547" lon="8.75716">
        <ele>617</ele>
        <time>2021-08-04T10:18:32.816Z</time>
      </trkpt>
      <trkpt lat="46.97547" lon="8.75715">
        <ele>617</ele>
        <time>2021-08-04T10:18:33.817Z</time>
      </trkpt>
      <trkpt lat="46.97547" lon="8.75714">
        <ele>617</ele>
        <time>2021-08-04T10:18:34.817Z</time>
      </trkpt>
      <trkpt lat="46.97547" lon="8.75713">
        <ele>617</ele>
        <time>2021-08-04T10:18:35.816Z</time>
      </trkpt>
      <trkpt lat="46.97548" lon="8.75712">
        <ele>618</ele>
        <time>2021-08-04T10:18:36.817Z</time>
      </trkpt>
      <trkpt lat="46.97548" lon="8.75711">
        <ele>618</ele>
        <time>2021-08-04T10:18:37.816Z</time>
      </trkpt>
      <trkpt lat="46.97549" lon="8.75709">
        <ele>618</ele>
        <time>2021-08-04T10:18:38.816Z</time>
      </trkpt>
      <trkpt lat="46.9755" lon="8.75708">
        <ele>618</ele>
        <time>2021-08-04T10:18:39.817Z</time>
      </trkpt>
      <trkpt lat="46.97551" lon="8.75707">
        <ele>619</ele>
        <time>2021-08-04T10:18:40.817Z</time>
      </trkpt>
      <trkpt lat="46.97551" lon="8.75705">
        <ele>619</ele>
        <time>2021-08-04T10:18:41.817Z</time>
      </trkpt>
      <trkpt lat="46.97552" lon="8.75704">
        <ele>619</ele>
        <time>2021-08-04T10:18:42.817Z</time>
      </trkpt>
      <trkpt lat="46.97552" lon="8.75703">
        <ele>620</ele>
        <time>2021-08-04T10:18:43.817Z</time>
      </trkpt>
      <trkpt lat="46.97553" lon="8.757">
        <ele>620</ele>
        <time>2021-08-04T10:18:44.816Z</time>
      </trkpt>
      <trkpt lat="46.97554" lon="8.75698">
        <ele>620</ele>
        <time>2021-08-04T10:18:45.817Z</time>
      </trkpt>
      <trkpt lat="46.97553" lon="8.75696">
        <ele>620</ele>
        <time>2021-08-04T10:18:46.817Z</time>
      </trkpt>
      <trkpt lat="46.97553" lon="8.75693">
        <ele>620</ele>
        <time>2021-08-04T10:18:47.817Z</time>
      </trkpt>
      <trkpt lat="46.97553" lon="8.75691">
        <ele>620</ele>
        <time>2021-08-04T10:18:48.816Z</time>
      </trkpt>
      <trkpt lat="46.97554" lon="8.75688">
        <ele>620</ele>
        <time>2021-08-04T10:18:49.817Z</time>
      </trkpt>
      <trkpt lat="46.97554" lon="8.75685">
        <ele>620</ele>
        <time>2021-08-04T10:18:50.817Z</time>
      </trkpt>
      <trkpt lat="46.97554" lon="8.75682">
        <ele>620</ele>
        <time>2021-08-04T10:18:51.816Z</time>
      </trkpt>
      <trkpt lat="46.97554" lon="8.7568">
        <ele>620</ele>
        <time>2021-08-04T10:18:52.816Z</time>
      </trkpt>
      <trkpt lat="46.97554" lon="8.75678">
        <ele>620</ele>
        <time>2021-08-04T10:18:53.817Z</time>
      </trkpt>
      <trkpt lat="46.97554" lon="8.75676">
        <ele>620</ele>
        <time>2021-08-04T10:18:54.816Z</time>
      </trkpt>
      <trkpt lat="46.97554" lon="8.75673">
        <ele>620</ele>
        <time>2021-08-04T10:18:55.816Z</time>
      </trkpt>
      <trkpt lat="46.97555" lon="8.75672">
        <ele>620</ele>
        <time>2021-08-04T10:18:56.816Z</time>
      </trkpt>
      <trkpt lat="46.97556" lon="8.75671">
        <ele>619</ele>
        <time>2021-08-04T10:18:57.817Z</time>
      </trkpt>
      <trkpt lat="46.97556" lon="8.7567">
        <ele>619</ele>
        <time>2021-08-04T10:18:58.816Z</time>
      </trkpt>
      <trkpt lat="46.97556" lon="8.7567">
        <ele>619</ele>
        <time>2021-08-04T10:18:59.816Z</time>
      </trkpt>
      <trkpt lat="46.97557" lon="8.7567">
        <ele>619</ele>
        <time>2021-08-04T10:19:00.816Z</time>
      </trkpt>
      <trkpt lat="46.97557" lon="8.75669">
        <ele>620</ele>
        <time>2021-08-04T10:19:01.817Z</time>
      </trkpt>
      <trkpt lat="46.97558" lon="8.75669">
        <ele>620</ele>
        <time>2021-08-04T10:19:02.816Z</time>
      </trkpt>
      <trkpt lat="46.97557" lon="8.75669">
        <ele>621</ele>
        <time>2021-08-04T10:19:03.816Z</time>
      </trkpt>
      <trkpt lat="46.97557" lon="8.75669">
        <ele>621</ele>
        <time>2021-08-04T10:19:04.816Z</time>
      </trkpt>
      <trkpt lat="46.97556" lon="8.75669">
        <ele>622</ele>
        <time>2021-08-04T10:19:05.816Z</time>
      </trkpt>
      <trkpt lat="46.97555" lon="8.75669">
        <ele>623</ele>
        <time>2021-08-04T10:19:06.816Z</time>
      </trkpt>
      <trkpt lat="46.97554" lon="8.7567">
        <ele>627</ele>
        <time>2021-08-04T10:19:07.816Z</time>
      </trkpt>
      <trkpt lat="46.97553" lon="8.75671">
        <ele>628</ele>
        <time>2021-08-04T10:19:08.816Z</time>
      </trkpt>
      <trkpt lat="46.97553" lon="8.7567">
        <ele>629</ele>
        <time>2021-08-04T10:19:09.816Z</time>
      </trkpt>
      <trkpt lat="46.97552" lon="8.7567">
        <ele>630</ele>
        <time>2021-08-04T10:19:10.816Z</time>
      </trkpt>
      <trkpt lat="46.97552" lon="8.7567">
        <ele>630</ele>
        <time>2021-08-04T10:19:11.817Z</time>
      </trkpt>
      <trkpt lat="46.97551" lon="8.75669">
        <ele>631</ele>
        <time>2021-08-04T10:19:12.816Z</time>
      </trkpt>
      <trkpt lat="46.97551" lon="8.75669">
        <ele>632</ele>
        <time>2021-08-04T10:19:13.816Z</time>
      </trkpt>
      <trkpt lat="46.97552" lon="8.75669">
        <ele>633</ele>
        <time>2021-08-04T10:19:14.816Z</time>
      </trkpt>
      <trkpt lat="46.97552" lon="8.7567">
        <ele>634</ele>
        <time>2021-08-04T10:19:15.816Z</time>
      </trkpt>
      <trkpt lat="46.97552" lon="8.7567">
        <ele>634</ele>
        <time>2021-08-04T10:19:16.817Z</time>
      </trkpt>
      <trkpt lat="46.97553" lon="8.7567">
        <ele>635</ele>
        <time>2021-08-04T10:19:17.816Z</time>
      </trkpt>
      <trkpt lat="46.97553" lon="8.7567">
        <ele>635</ele>
        <time>2021-08-04T10:19:18.817Z</time>
      </trkpt>
      <trkpt lat="46.97554" lon="8.7567">
        <ele>636</ele>
        <time>2021-08-04T10:19:19.817Z</time>
      </trkpt>
      <trkpt lat="46.97554" lon="8.7567">
        <ele>636</ele>
        <time>2021-08-04T10:19:20.817Z</time>
      </trkpt>
      <trkpt lat="46.97555" lon="8.7567">
        <ele>636</ele>
        <time>2021-08-04T10:19:21.816Z</time>
      </trkpt>
      <trkpt lat="46.97556" lon="8.75669">
        <ele>636</ele>
        <time>2021-08-04T10:19:22.817Z</time>
      </trkpt>
      <trkpt lat="46.97556" lon="8.7567">
        <ele>636</ele>
        <time>2021-08-04T10:19:23.816Z</time>
      </trkpt>
      <trkpt lat="46.97557" lon="8.75669">
        <ele>636</ele>
        <time>2021-08-04T10:19:24.816Z</time>
      </trkpt>
      <trkpt lat="46.97564" lon="8.75704">
        <ele>636</ele>
        <time>2021-08-04T10:24:57.286Z</time>
      </trkpt>
      <trkpt lat="46.97554" lon="8.75703">
        <ele>636</ele>
        <time>2021-08-04T10:24:58.285Z</time>
      </trkpt>
      <trkpt lat="46.97555" lon="8.75686">
        <ele>635</ele>
        <time>2021-08-04T10:24:59.286Z</time>
      </trkpt>
      <trkpt lat="46.97556" lon="8.75679">
        <ele>635</ele>
        <time>2021-08-04T10:25:02.413Z</time>
      </trkpt>
      <trkpt lat="46.97556" lon="8.75672">
        <ele>635</ele>
        <time>2021-08-04T10:25:03.414Z</time>
      </trkpt>
      <trkpt lat="46.97556" lon="8.75677">
        <ele>634</ele>
        <time>2021-08-04T10:25:04.413Z</time>
      </trkpt>
      <trkpt lat="46.97553" lon="8.7568">
        <ele>634</ele>
        <time>2021-08-04T10:25:05.414Z</time>
      </trkpt>
      <trkpt lat="46.97552" lon="8.75681">
        <ele>634</ele>
        <time>2021-08-04T10:25:06.414Z</time>
      </trkpt>
      <trkpt lat="46.97551" lon="8.75683">
        <ele>635</ele>
        <time>2021-08-04T10:25:07.413Z</time>
      </trkpt>
      <trkpt lat="46.9755" lon="8.75684">
        <ele>635</ele>
        <time>2021-08-04T10:25:08.414Z</time>
      </trkpt>
      <trkpt lat="46.9755" lon="8.75686">
        <ele>635</ele>
        <time>2021-08-04T10:25:09.414Z</time>
      </trkpt>
      <trkpt lat="46.9755" lon="8.75688">
        <ele>636</ele>
        <time>2021-08-04T10:25:10.414Z</time>
      </trkpt>
      <trkpt lat="46.9755" lon="8.7569">
        <ele>637</ele>
        <time>2021-08-04T10:25:11.413Z</time>
      </trkpt>
      <trkpt lat="46.9755" lon="8.75689">
        <ele>638</ele>
        <time>2021-08-04T10:25:12.414Z</time>
      </trkpt>
      <trkpt lat="46.9755" lon="8.75688">
        <ele>639</ele>
        <time>2021-08-04T10:25:13.414Z</time>
      </trkpt>
      <trkpt lat="46.97551" lon="8.75687">
        <ele>639</ele>
        <time>2021-08-04T10:25:14.413Z</time>
      </trkpt>
      <trkpt lat="46.97447" lon="8.75734">
        <ele>621</ele>
        <time>2021-08-04T10:26:06.415Z</time>
      </trkpt>
      <trkpt lat="46.97447" lon="8.75733">
        <ele>621</ele>
        <time>2021-08-04T10:26:07.414Z</time>
      </trkpt>
      <trkpt lat="46.97447" lon="8.75733">
        <ele>621</ele>
        <time>2021-08-04T10:26:08.415Z</time>
      </trkpt>
      <trkpt lat="46.97447" lon="8.75734">
        <ele>620</ele>
        <time>2021-08-04T10:26:09.414Z</time>
      </trkpt>
      <trkpt lat="46.97447" lon="8.75734">
        <ele>620</ele>
        <time>2021-08-04T10:26:10.414Z</time>
      </trkpt>
      <trkpt lat="46.97447" lon="8.75735">
        <ele>620</ele>
        <time>2021-08-04T10:26:11.415Z</time>
      </trkpt>
      <trkpt lat="46.97447" lon="8.75735">
        <ele>619</ele>
        <time>2021-08-04T10:26:12.415Z</time>
      </trkpt>
      <trkpt lat="46.97447" lon="8.75735">
        <ele>619</ele>
        <time>2021-08-04T10:26:13.415Z</time>
      </trkpt>
      <trkpt lat="46.97446" lon="8.75735">
        <ele>619</ele>
        <time>2021-08-04T10:26:14.415Z</time>
      </trkpt>
      <trkpt lat="46.97446" lon="8.75735">
        <ele>620</ele>
        <time>2021-08-04T10:26:15.415Z</time>
      </trkpt>
      <trkpt lat="46.97446" lon="8.75736">
        <ele>620</ele>
        <time>2021-08-04T10:26:16.414Z</time>
      </trkpt>
      <trkpt lat="46.97446" lon="8.75737">
        <ele>620</ele>
        <time>2021-08-04T10:26:17.415Z</time>
      </trkpt>
      <trkpt lat="46.97446" lon="8.75738">
        <ele>619</ele>
        <time>2021-08-04T10:26:18.414Z</time>
      </trkpt>
      <trkpt lat="46.97445" lon="8.75738">
        <ele>619</ele>
        <time>2021-08-04T10:26:19.415Z</time>
      </trkpt>
      <trkpt lat="46.97445" lon="8.75738">
        <ele>618</ele>
        <time>2021-08-04T10:26:20.415Z</time>
      </trkpt>
      <trkpt lat="46.97445" lon="8.75737">
        <ele>617</ele>
        <time>2021-08-04T10:26:21.414Z</time>
      </trkpt>
      <trkpt lat="46.97445" lon="8.75737">
        <ele>616</ele>
        <time>2021-08-04T10:26:22.414Z</time>
      </trkpt>
      <trkpt lat="46.97445" lon="8.75737">
        <ele>616</ele>
        <time>2021-08-04T10:26:23.415Z</time>
      </trkpt>
      <trkpt lat="46.97444" lon="8.75738">
        <ele>616</ele>
        <time>2021-08-04T10:26:24.415Z</time>
      </trkpt>
      <trkpt lat="46.97444" lon="8.75737">
        <ele>616</ele>
        <time>2021-08-04T10:26:25.415Z</time>
      </trkpt>
      <trkpt lat="46.97444" lon="8.75737">
        <ele>616</ele>
        <time>2021-08-04T10:26:26.415Z</time>
      </trkpt>
      <trkpt lat="46.97443" lon="8.75737">
        <ele>616</ele>
        <time>2021-08-04T10:26:27.414Z</time>
      </trkpt>
      <trkpt lat="46.97442" lon="8.75737">
        <ele>616</ele>
        <time>2021-08-04T10:26:28.414Z</time>
      </trkpt>
      <trkpt lat="46.97442" lon="8.75737">
        <ele>616</ele>
        <time>2021-08-04T10:26:29.415Z</time>
      </trkpt>
      <trkpt lat="46.97442" lon="8.75737">
        <ele>617</ele>
        <time>2021-08-04T10:26:30.414Z</time>
      </trkpt>
      <trkpt lat="46.97441" lon="8.75737">
        <ele>617</ele>
        <time>2021-08-04T10:26:31.415Z</time>
      </trkpt>
      <trkpt lat="46.97441" lon="8.75737">
        <ele>618</ele>
        <time>2021-08-04T10:26:32.415Z</time>
      </trkpt>
      <trkpt lat="46.97441" lon="8.75737">
        <ele>619</ele>
        <time>2021-08-04T10:26:33.415Z</time>
      </trkpt>
      <trkpt lat="46.9744" lon="8.75737">
        <ele>620</ele>
        <time>2021-08-04T10:26:34.415Z</time>
      </trkpt>
      <trkpt lat="46.97441" lon="8.75737">
        <ele>621</ele>
        <time>2021-08-04T10:26:35.414Z</time>
      </trkpt>
      <trkpt lat="46.97441" lon="8.75737">
        <ele>622</ele>
        <time>2021-08-04T10:26:36.415Z</time>
      </trkpt>
      <trkpt lat="46.97441" lon="8.75737">
        <ele>623</ele>
        <time>2021-08-04T10:26:37.415Z</time>
      </trkpt>
      <trkpt lat="46.9744" lon="8.75737">
        <ele>624</ele>
        <time>2021-08-04T10:26:38.415Z</time>
      </trkpt>
      <trkpt lat="46.9744" lon="8.75738">
        <ele>624</ele>
        <time>2021-08-04T10:26:39.415Z</time>
      </trkpt>
      <trkpt lat="46.9744" lon="8.75738">
        <ele>625</ele>
        <time>2021-08-04T10:26:40.415Z</time>
      </trkpt>
      <trkpt lat="46.97439" lon="8.75737">
        <ele>626</ele>
        <time>2021-08-04T10:26:41.415Z</time>
      </trkpt>
      <trkpt lat="46.97439" lon="8.75737">
        <ele>626</ele>
        <time>2021-08-04T10:26:42.414Z</time>
      </trkpt>
      <trkpt lat="46.97439" lon="8.75737">
        <ele>627</ele>
        <time>2021-08-04T10:26:43.415Z</time>
      </trkpt>
      <trkpt lat="46.97439" lon="8.75736">
        <ele>627</ele>
        <time>2021-08-04T10:26:44.415Z</time>
      </trkpt>
      <trkpt lat="46.97438" lon="8.75737">
        <ele>628</ele>
        <time>2021-08-04T10:26:45.414Z</time>
      </trkpt>
      <trkpt lat="46.97437" lon="8.75736">
        <ele>628</ele>
        <time>2021-08-04T10:26:46.415Z</time>
      </trkpt>
      <trkpt lat="46.97437" lon="8.75736">
        <ele>629</ele>
        <time>2021-08-04T10:26:47.415Z</time>
      </trkpt>
      <trkpt lat="46.97438" lon="8.75735">
        <ele>629</ele>
        <time>2021-08-04T10:26:48.415Z</time>
      </trkpt>
      <trkpt lat="46.9744" lon="8.75733">
        <ele>630</ele>
        <time>2021-08-04T10:26:49.414Z</time>
      </trkpt>
      <trkpt lat="46.97439" lon="8.75733">
        <ele>630</ele>
        <time>2021-08-04T10:26:50.415Z</time>
      </trkpt>
      <trkpt lat="46.97439" lon="8.75734">
        <ele>631</ele>
        <time>2021-08-04T10:26:51.414Z</time>
      </trkpt>
      <trkpt lat="46.97438" lon="8.75733">
        <ele>631</ele>
        <time>2021-08-04T10:26:52.415Z</time>
      </trkpt>
      <trkpt lat="46.97442" lon="8.75735">
        <ele>631</ele>
        <time>2021-08-04T10:26:53.415Z</time>
      </trkpt>
      <trkpt lat="46.97443" lon="8.75736">
        <ele>631</ele>
        <time>2021-08-04T10:26:54.415Z</time>
      </trkpt>
      <trkpt lat="46.97443" lon="8.75738">
        <ele>630</ele>
        <time>2021-08-04T10:26:55.414Z</time>
      </trkpt>
      <trkpt lat="46.97443" lon="8.7574">
        <ele>630</ele>
        <time>2021-08-04T10:26:56.415Z</time>
      </trkpt>
      <trkpt lat="46.97442" lon="8.75742">
        <ele>630</ele>
        <time>2021-08-04T10:26:57.415Z</time>
      </trkpt>
      <trkpt lat="46.97443" lon="8.75743">
        <ele>630</ele>
        <time>2021-08-04T10:26:58.415Z</time>
      </trkpt>
      <trkpt lat="46.97443" lon="8.75745">
        <ele>630</ele>
        <time>2021-08-04T10:26:59.415Z</time>
      </trkpt>
      <trkpt lat="46.97445" lon="8.75746">
        <ele>630</ele>
        <time>2021-08-04T10:27:00.415Z</time>
      </trkpt>
      <trkpt lat="46.97446" lon="8.75749">
        <ele>629</ele>
        <time>2021-08-04T10:27:01.415Z</time>
      </trkpt>
      <trkpt lat="46.97447" lon="8.75751">
        <ele>629</ele>
        <time>2021-08-04T10:27:02.414Z</time>
      </trkpt>
      <trkpt lat="46.97448" lon="8.75753">
        <ele>629</ele>
        <time>2021-08-04T10:27:03.415Z</time>
      </trkpt>
      <trkpt lat="46.97448" lon="8.75756">
        <ele>629</ele>
        <time>2021-08-04T10:27:04.415Z</time>
      </trkpt>
      <trkpt lat="46.97449" lon="8.75758">
        <ele>629</ele>
        <time>2021-08-04T10:27:05.415Z</time>
      </trkpt>
      <trkpt lat="46.97449" lon="8.75758">
        <ele>629</ele>
        <time>2021-08-04T10:27:08.514Z</time>
      </trkpt>
      <trkpt lat="46.97449" lon="8.75758">
        <ele>629</ele>
        <time>2021-08-04T10:27:09.514Z</time>
      </trkpt>
      <trkpt lat="46.9745" lon="8.7576">
        <ele>630</ele>
        <time>2021-08-04T10:27:10.513Z</time>
      </trkpt>
      <trkpt lat="46.97451" lon="8.7576">
        <ele>630</ele>
        <time>2021-08-04T10:27:11.514Z</time>
      </trkpt>
      <trkpt lat="46.97451" lon="8.75761">
        <ele>630</ele>
        <time>2021-08-04T10:27:12.513Z</time>
      </trkpt>
      <trkpt lat="46.97452" lon="8.75762">
        <ele>631</ele>
        <time>2021-08-04T10:27:13.514Z</time>
      </trkpt>
      <trkpt lat="46.97453" lon="8.75765">
        <ele>631</ele>
        <time>2021-08-04T10:27:14.514Z</time>
      </trkpt>
      <trkpt lat="46.97454" lon="8.75768">
        <ele>631</ele>
        <time>2021-08-04T10:27:15.513Z</time>
      </trkpt>
      <trkpt lat="46.97454" lon="8.75769">
        <ele>632</ele>
        <time>2021-08-04T10:27:16.514Z</time>
      </trkpt>
      <trkpt lat="46.97455" lon="8.7577">
        <ele>632</ele>
        <time>2021-08-04T10:27:17.514Z</time>
      </trkpt>
      <trkpt lat="46.97454" lon="8.75771">
        <ele>632</ele>
        <time>2021-08-04T10:27:18.514Z</time>
      </trkpt>
      <trkpt lat="46.97453" lon="8.75775">
        <ele>632</ele>
        <time>2021-08-04T10:27:19.514Z</time>
      </trkpt>
      <trkpt lat="46.97455" lon="8.75777">
        <ele>634</ele>
        <time>2021-08-04T10:27:20.514Z</time>
      </trkpt>
      <trkpt lat="46.97455" lon="8.75778">
        <ele>634</ele>
        <time>2021-08-04T10:27:21.513Z</time>
      </trkpt>
      <trkpt lat="46.97453" lon="8.75781">
        <ele>635</ele>
        <time>2021-08-04T10:27:22.514Z</time>
      </trkpt>
      <trkpt lat="46.97453" lon="8.75781">
        <ele>635</ele>
        <time>2021-08-04T10:27:23.514Z</time>
      </trkpt>
      <trkpt lat="46.97452" lon="8.75781">
        <ele>635</ele>
        <time>2021-08-04T10:27:24.513Z</time>
      </trkpt>
      <trkpt lat="46.97451" lon="8.75783">
        <ele>636</ele>
        <time>2021-08-04T10:27:25.514Z</time>
      </trkpt>
      <trkpt lat="46.97451" lon="8.75783">
        <ele>636</ele>
        <time>2021-08-04T10:27:26.514Z</time>
      </trkpt>
      <trkpt lat="46.97451" lon="8.75783">
        <ele>636</ele>
        <time>2021-08-04T10:27:27.513Z</time>
      </trkpt>
      <trkpt lat="46.97451" lon="8.75786">
        <ele>637</ele>
        <time>2021-08-04T10:27:28.514Z</time>
      </trkpt>
      <trkpt lat="46.97451" lon="8.75796">
        <ele>636</ele>
        <time>2021-08-04T10:27:29.515Z</time>
      </trkpt>
      <trkpt lat="46.97451" lon="8.75795">
        <ele>636</ele>
        <time>2021-08-04T10:27:30.514Z</time>
      </trkpt>
      <trkpt lat="46.97452" lon="8.75794">
        <ele>635</ele>
        <time>2021-08-04T10:27:31.514Z</time>
      </trkpt>
      <trkpt lat="46.97452" lon="8.75794">
        <ele>635</ele>
        <time>2021-08-04T10:27:32.515Z</time>
      </trkpt>
      <trkpt lat="46.97451" lon="8.75792">
        <ele>629</ele>
        <time>2021-08-04T10:27:33.515Z</time>
      </trkpt>
      <trkpt lat="46.97451" lon="8.75793">
        <ele>629</ele>
        <time>2021-08-04T10:27:34.515Z</time>
      </trkpt>
      <trkpt lat="46.97451" lon="8.75794">
        <ele>628</ele>
        <time>2021-08-04T10:27:35.514Z</time>
      </trkpt>
      <trkpt lat="46.97451" lon="8.75795">
        <ele>628</ele>
        <time>2021-08-04T10:27:36.515Z</time>
      </trkpt>
      <trkpt lat="46.97451" lon="8.75795">
        <ele>627</ele>
        <time>2021-08-04T10:27:37.514Z</time>
      </trkpt>
      <trkpt lat="46.97452" lon="8.75794">
        <ele>627</ele>
        <time>2021-08-04T10:27:38.515Z</time>
      </trkpt>
      <trkpt lat="46.97452" lon="8.75795">
        <ele>627</ele>
        <time>2021-08-04T10:27:39.515Z</time>
      </trkpt>
      <trkpt lat="46.97452" lon="8.75795">
        <ele>626</ele>
        <time>2021-08-04T10:27:40.514Z</time>
      </trkpt>
      <trkpt lat="46.97452" lon="8.75795">
        <ele>626</ele>
        <time>2021-08-04T10:27:41.514Z</time>
      </trkpt>
      <trkpt lat="46.97452" lon="8.75795">
        <ele>626</ele>
        <time>2021-08-04T10:27:42.514Z</time>
      </trkpt>
      <trkpt lat="46.97452" lon="8.75794">
        <ele>626</ele>
        <time>2021-08-04T10:27:43.515Z</time>
      </trkpt>
      <trkpt lat="46.97452" lon="8.75794">
        <ele>626</ele>
        <time>2021-08-04T10:27:44.515Z</time>
      </trkpt>
      <trkpt lat="46.97453" lon="8.75793">
        <ele>626</ele>
        <time>2021-08-04T10:27:45.514Z</time>
      </trkpt>
      <trkpt lat="46.97453" lon="8.75793">
        <ele>625</ele>
        <time>2021-08-04T10:27:46.514Z</time>
      </trkpt>
      <trkpt lat="46.97453" lon="8.75793">
        <ele>625</ele>
        <time>2021-08-04T10:27:47.514Z</time>
      </trkpt>
      <trkpt lat="46.97453" lon="8.75792">
        <ele>625</ele>
        <time>2021-08-04T10:27:48.515Z</time>
      </trkpt>
      <trkpt lat="46.97453" lon="8.7579">
        <ele>625</ele>
        <time>2021-08-04T10:27:49.514Z</time>
      </trkpt>
      <trkpt lat="46.97452" lon="8.75789">
        <ele>624</ele>
        <time>2021-08-04T10:27:50.514Z</time>
      </trkpt>
      <trkpt lat="46.97452" lon="8.75787">
        <ele>624</ele>
        <time>2021-08-04T10:27:51.515Z</time>
      </trkpt>
      <trkpt lat="46.97451" lon="8.75786">
        <ele>623</ele>
        <time>2021-08-04T10:27:52.515Z</time>
      </trkpt>
      <trkpt lat="46.97451" lon="8.75785">
        <ele>623</ele>
        <time>2021-08-04T10:27:53.515Z</time>
      </trkpt>
      <trkpt lat="46.97451" lon="8.75784">
        <ele>623</ele>
        <time>2021-08-04T10:27:54.515Z</time>
      </trkpt>
      <trkpt lat="46.97452" lon="8.75784">
        <ele>623</ele>
        <time>2021-08-04T10:27:55.515Z</time>
      </trkpt>
      <trkpt lat="46.97452" lon="8.75783">
        <ele>624</ele>
        <time>2021-08-04T10:27:56.515Z</time>
      </trkpt>
      <trkpt lat="46.97453" lon="8.75782">
        <ele>624</ele>
        <time>2021-08-04T10:27:57.514Z</time>
      </trkpt>
      <trkpt lat="46.97454" lon="8.7578">
        <ele>625</ele>
        <time>2021-08-04T10:27:58.515Z</time>
      </trkpt>
      <trkpt lat="46.97454" lon="8.75779">
        <ele>625</ele>
        <time>2021-08-04T10:27:59.514Z</time>
      </trkpt>
      <trkpt lat="46.97453" lon="8.75779">
        <ele>626</ele>
        <time>2021-08-04T10:28:00.515Z</time>
      </trkpt>
      <trkpt lat="46.97453" lon="8.75778">
        <ele>626</ele>
        <time>2021-08-04T10:28:01.514Z</time>
      </trkpt>
      <trkpt lat="46.97453" lon="8.75777">
        <ele>626</ele>
        <time>2021-08-04T10:28:02.514Z</time>
      </trkpt>
      <trkpt lat="46.97452" lon="8.75776">
        <ele>627</ele>
        <time>2021-08-04T10:28:03.515Z</time>
      </trkpt>
      <trkpt lat="46.97452" lon="8.75775">
        <ele>627</ele>
        <time>2021-08-04T10:28:04.515Z</time>
      </trkpt>
      <trkpt lat="46.97451" lon="8.75775">
        <ele>627</ele>
        <time>2021-08-04T10:28:05.515Z</time>
      </trkpt>
      <trkpt lat="46.9745" lon="8.75775">
        <ele>627</ele>
        <time>2021-08-04T10:28:06.515Z</time>
      </trkpt>
      <trkpt lat="46.9745" lon="8.75774">
        <ele>628</ele>
        <time>2021-08-04T10:28:07.515Z</time>
      </trkpt>
      <trkpt lat="46.9745" lon="8.75773">
        <ele>628</ele>
        <time>2021-08-04T10:28:08.515Z</time>
      </trkpt>
      <trkpt lat="46.97449" lon="8.75771">
        <ele>628</ele>
        <time>2021-08-04T10:28:09.514Z</time>
      </trkpt>
      <trkpt lat="46.97447" lon="8.75771">
        <ele>628</ele>
        <time>2021-08-04T10:28:10.515Z</time>
      </trkpt>
      <trkpt lat="46.97446" lon="8.75771">
        <ele>628</ele>
        <time>2021-08-04T10:28:11.515Z</time>
      </trkpt>
      <trkpt lat="46.97445" lon="8.7577">
        <ele>628</ele>
        <time>2021-08-04T10:28:12.515Z</time>
      </trkpt>
      <trkpt lat="46.97444" lon="8.75769">
        <ele>627</ele>
        <time>2021-08-04T10:28:13.515Z</time>
      </trkpt>
      <trkpt lat="46.97442" lon="8.75768">
        <ele>627</ele>
        <time>2021-08-04T10:28:14.515Z</time>
      </trkpt>
      <trkpt lat="46.97442" lon="8.75767">
        <ele>626</ele>
        <time>2021-08-04T10:28:15.514Z</time>
      </trkpt>
      <trkpt lat="46.97441" lon="8.75764">
        <ele>626</ele>
        <time>2021-08-04T10:28:16.515Z</time>
      </trkpt>
      <trkpt lat="46.97441" lon="8.75762">
        <ele>625</ele>
        <time>2021-08-04T10:28:17.515Z</time>
      </trkpt>
      <trkpt lat="46.97441" lon="8.75759">
        <ele>625</ele>
        <time>2021-08-04T10:28:18.515Z</time>
      </trkpt>
      <trkpt lat="46.97441" lon="8.75756">
        <ele>626</ele>
        <time>2021-08-04T10:28:19.514Z</time>
      </trkpt>
      <trkpt lat="46.97441" lon="8.75754">
        <ele>626</ele>
        <time>2021-08-04T10:28:20.515Z</time>
      </trkpt>
      <trkpt lat="46.97442" lon="8.75752">
        <ele>626</ele>
        <time>2021-08-04T10:28:21.515Z</time>
      </trkpt>
      <trkpt lat="46.97443" lon="8.75749">
        <ele>627</ele>
        <time>2021-08-04T10:28:22.515Z</time>
      </trkpt>
      <trkpt lat="46.97442" lon="8.75748">
        <ele>627</ele>
        <time>2021-08-04T10:28:23.515Z</time>
      </trkpt>
      <trkpt lat="46.97441" lon="8.75747">
        <ele>627</ele>
        <time>2021-08-04T10:28:24.515Z</time>
      </trkpt>
      <trkpt lat="46.97441" lon="8.75746">
        <ele>627</ele>
        <time>2021-08-04T10:28:25.515Z</time>
      </trkpt>
      <trkpt lat="46.97441" lon="8.75744">
        <ele>627</ele>
        <time>2021-08-04T10:28:26.515Z</time>
      </trkpt>
      <trkpt lat="46.97442" lon="8.75743">
        <ele>626</ele>
        <time>2021-08-04T10:28:27.515Z</time>
      </trkpt>
      <trkpt lat="46.97442" lon="8.75742">
        <ele>626</ele>
        <time>2021-08-04T10:28:28.515Z</time>
      </trkpt>
      <trkpt lat="46.97441" lon="8.75741">
        <ele>626</ele>
        <time>2021-08-04T10:28:29.515Z</time>
      </trkpt>
      <trkpt lat="46.97441" lon="8.75741">
        <ele>626</ele>
        <time>2021-08-04T10:28:30.515Z</time>
      </trkpt>
      <trkpt lat="46.97442" lon="8.75741">
        <ele>626</ele>
        <time>2021-08-04T10:28:31.515Z</time>
      </trkpt>
      <trkpt lat="46.97442" lon="8.75741">
        <ele>626</ele>
        <time>2021-08-04T10:28:32.515Z</time>
      </trkpt>
      <trkpt lat="46.97443" lon="8.7574">
        <ele>626</ele>
        <time>2021-08-04T10:28:33.515Z</time>
      </trkpt>
      <trkpt lat="46.97443" lon="8.7574">
        <ele>626</ele>
        <time>2021-08-04T10:28:34.514Z</time>
      </trkpt>
      <trkpt lat="46.97443" lon="8.7574">
        <ele>626</ele>
        <time>2021-08-04T10:28:35.515Z</time>
      </trkpt>
      <trkpt lat="46.97443" lon="8.75738">
        <ele>626</ele>
        <time>2021-08-04T10:28:36.515Z</time>
      </trkpt>
      <trkpt lat="46.97443" lon="8.75737">
        <ele>626</ele>
        <time>2021-08-04T10:28:37.515Z</time>
      </trkpt>
      <trkpt lat="46.97443" lon="8.75737">
        <ele>626</ele>
        <time>2021-08-04T10:28:38.514Z</time>
      </trkpt>
      <trkpt lat="46.97443" lon="8.75736">
        <ele>626</ele>
        <time>2021-08-04T10:28:39.515Z</time>
      </trkpt>
      <trkpt lat="46.97444" lon="8.75735">
        <ele>626</ele>
        <time>2021-08-04T10:28:40.514Z</time>
      </trkpt>
      <trkpt lat="46.97444" lon="8.75735">
        <ele>626</ele>
        <time>2021-08-04T10:28:41.515Z</time>
      </trkpt>
      <trkpt lat="46.9744" lon="8.75726">
        <ele>631</ele>
        <time>2021-08-04T10:28:42.514Z</time>
      </trkpt>
      <trkpt lat="46.97439" lon="8.75726">
        <ele>631</ele>
        <time>2021-08-04T10:28:43.515Z</time>
      </trkpt>
      <trkpt lat="46.97439" lon="8.75726">
        <ele>631</ele>
        <time>2021-08-04T10:28:44.514Z</time>
      </trkpt>
      <trkpt lat="46.9744" lon="8.75726">
        <ele>637</ele>
        <time>2021-08-04T10:28:45.514Z</time>
      </trkpt>
      <trkpt lat="46.97439" lon="8.75725">
        <ele>637</ele>
        <time>2021-08-04T10:28:46.515Z</time>
      </trkpt>
      <trkpt lat="46.97439" lon="8.75726">
        <ele>637</ele>
        <time>2021-08-04T10:28:47.514Z</time>
      </trkpt>
      <trkpt lat="46.9744" lon="8.75726">
        <ele>630</ele>
        <time>2021-08-04T10:28:48.515Z</time>
      </trkpt>
      <trkpt lat="46.97439" lon="8.75726">
        <ele>629</ele>
        <time>2021-08-04T10:28:49.515Z</time>
      </trkpt>
      <trkpt lat="46.97437" lon="8.75729">
        <ele>628</ele>
        <time>2021-08-04T10:28:50.514Z</time>
      </trkpt>
      <trkpt lat="46.97437" lon="8.75729">
        <ele>628</ele>
        <time>2021-08-04T10:28:51.514Z</time>
      </trkpt>
      <trkpt lat="46.97435" lon="8.7573">
        <ele>630</ele>
        <time>2021-08-04T10:28:52.516Z</time>
      </trkpt>
      <trkpt lat="46.97435" lon="8.75731">
        <ele>629</ele>
        <time>2021-08-04T10:28:53.516Z</time>
      </trkpt>
      <trkpt lat="46.97435" lon="8.75731">
        <ele>629</ele>
        <time>2021-08-04T10:28:54.516Z</time>
      </trkpt>
      <trkpt lat="46.97435" lon="8.75732">
        <ele>628</ele>
        <time>2021-08-04T10:28:55.516Z</time>
      </trkpt>
      <trkpt lat="46.97435" lon="8.75732">
        <ele>627</ele>
        <time>2021-08-04T10:28:56.516Z</time>
      </trkpt>
      <trkpt lat="46.97436" lon="8.75733">
        <ele>626</ele>
        <time>2021-08-04T10:28:57.516Z</time>
      </trkpt>
      <trkpt lat="46.97438" lon="8.75733">
        <ele>619</ele>
        <time>2021-08-04T10:28:58.515Z</time>
      </trkpt>
      <trkpt lat="46.97438" lon="8.75733">
        <ele>620</ele>
        <time>2021-08-04T10:28:59.515Z</time>
      </trkpt>
      <trkpt lat="46.97438" lon="8.75733">
        <ele>621</ele>
        <time>2021-08-04T10:29:00.515Z</time>
      </trkpt>
      <trkpt lat="46.97438" lon="8.75733">
        <ele>621</ele>
        <time>2021-08-04T10:29:01.516Z</time>
      </trkpt>
      <trkpt lat="46.97438" lon="8.75733">
        <ele>622</ele>
        <time>2021-08-04T10:29:02.516Z</time>
      </trkpt>
      <trkpt lat="46.97438" lon="8.75733">
        <ele>622</ele>
        <time>2021-08-04T10:29:03.516Z</time>
      </trkpt>
      <trkpt lat="46.9744" lon="8.75734">
        <ele>625</ele>
        <time>2021-08-04T10:29:04.516Z</time>
      </trkpt>
      <trkpt lat="46.9744" lon="8.75735">
        <ele>625</ele>
        <time>2021-08-04T10:29:05.516Z</time>
      </trkpt>
      <trkpt lat="46.9744" lon="8.75735">
        <ele>625</ele>
        <time>2021-08-04T10:29:06.516Z</time>
      </trkpt>
      <trkpt lat="46.9744" lon="8.75737">
        <ele>623</ele>
        <time>2021-08-04T10:29:07.517Z</time>
      </trkpt>
      <trkpt lat="46.97439" lon="8.75738">
        <ele>623</ele>
        <time>2021-08-04T10:29:08.518Z</time>
      </trkpt>
      <trkpt lat="46.97439" lon="8.75739">
        <ele>622</ele>
        <time>2021-08-04T10:29:09.517Z</time>
      </trkpt>
      <trkpt lat="46.97439" lon="8.7574">
        <ele>622</ele>
        <time>2021-08-04T10:29:10.517Z</time>
      </trkpt>
      <trkpt lat="46.97439" lon="8.75741">
        <ele>621</ele>
        <time>2021-08-04T10:29:11.518Z</time>
      </trkpt>
      <trkpt lat="46.97438" lon="8.75741">
        <ele>621</ele>
        <time>2021-08-04T10:29:12.518Z</time>
      </trkpt>
      <trkpt lat="46.97438" lon="8.75742">
        <ele>619</ele>
        <time>2021-08-04T10:29:13.518Z</time>
      </trkpt>
      <trkpt lat="46.97438" lon="8.75742">
        <ele>619</ele>
        <time>2021-08-04T10:29:14.518Z</time>
      </trkpt>
      <trkpt lat="46.97438" lon="8.75742">
        <ele>618</ele>
        <time>2021-08-04T10:29:15.518Z</time>
      </trkpt>
      <trkpt lat="46.97439" lon="8.75741">
        <ele>618</ele>
        <time>2021-08-04T10:29:16.518Z</time>
      </trkpt>
      <trkpt lat="46.97439" lon="8.75742">
        <ele>617</ele>
        <time>2021-08-04T10:29:17.518Z</time>
      </trkpt>
      <trkpt lat="46.97441" lon="8.75744">
        <ele>616</ele>
        <time>2021-08-04T10:29:18.519Z</time>
      </trkpt>
      <trkpt lat="46.97442" lon="8.75742">
        <ele>616</ele>
        <time>2021-08-04T10:29:19.518Z</time>
      </trkpt>
      <trkpt lat="46.97444" lon="8.7574">
        <ele>616</ele>
        <time>2021-08-04T10:29:20.518Z</time>
      </trkpt>
      <trkpt lat="46.97445" lon="8.75737">
        <ele>616</ele>
        <time>2021-08-04T10:29:21.519Z</time>
      </trkpt>
      <trkpt lat="46.97447" lon="8.75732">
        <ele>616</ele>
        <time>2021-08-04T10:29:22.519Z</time>
      </trkpt>
      <trkpt lat="46.9745" lon="8.75726">
        <ele>616</ele>
        <time>2021-08-04T10:29:23.519Z</time>
      </trkpt>
      <trkpt lat="46.97453" lon="8.75721">
        <ele>616</ele>
        <time>2021-08-04T10:29:24.519Z</time>
      </trkpt>
      <trkpt lat="46.97457" lon="8.75714">
        <ele>616</ele>
        <time>2021-08-04T10:29:25.518Z</time>
      </trkpt>
      <trkpt lat="46.97461" lon="8.75705">
        <ele>616</ele>
        <time>2021-08-04T10:29:26.519Z</time>
      </trkpt>
      <trkpt lat="46.97464" lon="8.75698">
        <ele>616</ele>
        <time>2021-08-04T10:29:27.518Z</time>
      </trkpt>
      <trkpt lat="46.97468" lon="8.75685">
        <ele>616</ele>
        <time>2021-08-04T10:29:28.518Z</time>
      </trkpt>
      <trkpt lat="46.97472" lon="8.75674">
        <ele>616</ele>
        <time>2021-08-04T10:29:29.518Z</time>
      </trkpt>
      <trkpt lat="46.97477" lon="8.75661">
        <ele>616</ele>
        <time>2021-08-04T10:29:30.519Z</time>
      </trkpt>
      <trkpt lat="46.97482" lon="8.75648">
        <ele>616</ele>
        <time>2021-08-04T10:29:31.519Z</time>
      </trkpt>
      <trkpt lat="46.97488" lon="8.75634">
        <ele>616</ele>
        <time>2021-08-04T10:29:32.518Z</time>
      </trkpt>
      <trkpt lat="46.97493" lon="8.75619">
        <ele>616</ele>
        <time>2021-08-04T10:29:33.519Z</time>
      </trkpt>
      <trkpt lat="46.97498" lon="8.75605">
        <ele>615</ele>
        <time>2021-08-04T10:29:34.518Z</time>
      </trkpt>
      <trkpt lat="46.97503" lon="8.75591">
        <ele>615</ele>
        <time>2021-08-04T10:29:35.518Z</time>
      </trkpt>
      <trkpt lat="46.97509" lon="8.75575">
        <ele>614</ele>
        <time>2021-08-04T10:29:36.518Z</time>
      </trkpt>
      <trkpt lat="46.97514" lon="8.75559">
        <ele>614</ele>
        <time>2021-08-04T10:29:37.519Z</time>
      </trkpt>
      <trkpt lat="46.97519" lon="8.75542">
        <ele>613</ele>
        <time>2021-08-04T10:29:38.518Z</time>
      </trkpt>
      <trkpt lat="46.97524" lon="8.75525">
        <ele>613</ele>
        <time>2021-08-04T10:29:39.519Z</time>
      </trkpt>
      <trkpt lat="46.97529" lon="8.75509">
        <ele>613</ele>
        <time>2021-08-04T10:29:40.519Z</time>
      </trkpt>
      <trkpt lat="46.97533" lon="8.75492">
        <ele>613</ele>
        <time>2021-08-04T10:29:41.519Z</time>
      </trkpt>
      <trkpt lat="46.97537" lon="8.75475">
        <ele>612</ele>
        <time>2021-08-04T10:29:42.519Z</time>
      </trkpt>
      <trkpt lat="46.9754" lon="8.75458">
        <ele>612</ele>
        <time>2021-08-04T10:29:43.519Z</time>
      </trkpt>
      <trkpt lat="46.97542" lon="8.75442">
        <ele>611</ele>
        <time>2021-08-04T10:29:44.519Z</time>
      </trkpt>
      <trkpt lat="46.97545" lon="8.75426">
        <ele>611</ele>
        <time>2021-08-04T10:29:45.518Z</time>
      </trkpt>
      <trkpt lat="46.97548" lon="8.75412">
        <ele>610</ele>
        <time>2021-08-04T10:29:46.518Z</time>
      </trkpt>
      <trkpt lat="46.97551" lon="8.75397">
        <ele>609</ele>
        <time>2021-08-04T10:29:47.519Z</time>
      </trkpt>
      <trkpt lat="46.97554" lon="8.75383">
        <ele>607</ele>
        <time>2021-08-04T10:29:48.519Z</time>
      </trkpt>
      <trkpt lat="46.97557" lon="8.7537">
        <ele>606</ele>
        <time>2021-08-04T10:29:49.518Z</time>
      </trkpt>
      <trkpt lat="46.9756" lon="8.75357">
        <ele>605</ele>
        <time>2021-08-04T10:29:54.668Z</time>
      </trkpt>
      <trkpt lat="46.97563" lon="8.75346">
        <ele>604</ele>
        <time>2021-08-04T10:29:55.668Z</time>
      </trkpt>
      <trkpt lat="46.97566" lon="8.75336">
        <ele>603</ele>
        <time>2021-08-04T10:29:56.668Z</time>
      </trkpt>
      <trkpt lat="46.97569" lon="8.75326">
        <ele>603</ele>
        <time>2021-08-04T10:29:57.667Z</time>
      </trkpt>
      <trkpt lat="46.97572" lon="8.75315">
        <ele>603</ele>
        <time>2021-08-04T10:30:03.694Z</time>
      </trkpt>
      <trkpt lat="46.97575" lon="8.75304">
        <ele>603</ele>
        <time>2021-08-04T10:30:04.694Z</time>
      </trkpt>
      <trkpt lat="46.97577" lon="8.75292">
        <ele>604</ele>
        <time>2021-08-04T10:30:05.694Z</time>
      </trkpt>
      <trkpt lat="46.97579" lon="8.75279">
        <ele>604</ele>
        <time>2021-08-04T10:30:06.693Z</time>
      </trkpt>
      <trkpt lat="46.97578" lon="8.75265">
        <ele>605</ele>
        <time>2021-08-04T10:30:07.694Z</time>
      </trkpt>
      <trkpt lat="46.97579" lon="8.75254">
        <ele>605</ele>
        <time>2021-08-04T10:30:08.694Z</time>
      </trkpt>
      <trkpt lat="46.97578" lon="8.75236">
        <ele>605</ele>
        <time>2021-08-04T10:30:09.694Z</time>
      </trkpt>
      <trkpt lat="46.97578" lon="8.75221">
        <ele>606</ele>
        <time>2021-08-04T10:30:11.778Z</time>
      </trkpt>
      <trkpt lat="46.97578" lon="8.75205">
        <ele>606</ele>
        <time>2021-08-04T10:30:19.671Z</time>
      </trkpt>
      <trkpt lat="46.97579" lon="8.75189">
        <ele>607</ele>
        <time>2021-08-04T10:30:20.671Z</time>
      </trkpt>
      <trkpt lat="46.97579" lon="8.75174">
        <ele>608</ele>
        <time>2021-08-04T10:30:21.671Z</time>
      </trkpt>
      <trkpt lat="46.97579" lon="8.75159">
        <ele>608</ele>
        <time>2021-08-04T10:30:22.671Z</time>
      </trkpt>
      <trkpt lat="46.9758" lon="8.75144">
        <ele>608</ele>
        <time>2021-08-04T10:30:23.671Z</time>
      </trkpt>
      <trkpt lat="46.9758" lon="8.75131">
        <ele>609</ele>
        <time>2021-08-04T10:30:24.671Z</time>
      </trkpt>
      <trkpt lat="46.9758" lon="8.7512">
        <ele>609</ele>
        <time>2021-08-04T10:30:25.671Z</time>
      </trkpt>
      <trkpt lat="46.97581" lon="8.75111">
        <ele>609</ele>
        <time>2021-08-04T10:30:26.671Z</time>
      </trkpt>
      <trkpt lat="46.97581" lon="8.75103">
        <ele>609</ele>
        <time>2021-08-04T10:30:27.670Z</time>
      </trkpt>
      <trkpt lat="46.97582" lon="8.75096">
        <ele>609</ele>
        <time>2021-08-04T10:30:28.671Z</time>
      </trkpt>
      <trkpt lat="46.97582" lon="8.7509">
        <ele>609</ele>
        <time>2021-08-04T10:30:29.671Z</time>
      </trkpt>
      <trkpt lat="46.97581" lon="8.75085">
        <ele>609</ele>
        <time>2021-08-04T10:30:33.787Z</time>
      </trkpt>
      <trkpt lat="46.97581" lon="8.75082">
        <ele>609</ele>
        <time>2021-08-04T10:30:34.786Z</time>
      </trkpt>
      <trkpt lat="46.9758" lon="8.75081">
        <ele>609</ele>
        <time>2021-08-04T10:30:35.786Z</time>
      </trkpt>
      <trkpt lat="46.9758" lon="8.75081">
        <ele>609</ele>
        <time>2021-08-04T10:30:36.786Z</time>
      </trkpt>
      <trkpt lat="46.9758" lon="8.75081">
        <ele>609</ele>
        <time>2021-08-04T10:30:37.786Z</time>
      </trkpt>
      <trkpt lat="46.97579" lon="8.75081">
        <ele>608</ele>
        <time>2021-08-04T10:30:38.786Z</time>
      </trkpt>
      <trkpt lat="46.97583" lon="8.75084">
        <ele>605</ele>
        <time>2021-08-04T10:30:39.788Z</time>
      </trkpt>
      <trkpt lat="46.97583" lon="8.75085">
        <ele>605</ele>
        <time>2021-08-04T10:30:40.788Z</time>
      </trkpt>
      <trkpt lat="46.97584" lon="8.75086">
        <ele>605</ele>
        <time>2021-08-04T10:30:41.787Z</time>
      </trkpt>
      <trkpt lat="46.97584" lon="8.75087">
        <ele>605</ele>
        <time>2021-08-04T10:30:42.787Z</time>
      </trkpt>
      <trkpt lat="46.97584" lon="8.75086">
        <ele>605</ele>
        <time>2021-08-04T10:30:43.787Z</time>
      </trkpt>
      <trkpt lat="46.97584" lon="8.75083">
        <ele>605</ele>
        <time>2021-08-04T10:30:44.788Z</time>
      </trkpt>
      <trkpt lat="46.97583" lon="8.75079">
        <ele>605</ele>
        <time>2021-08-04T10:30:45.788Z</time>
      </trkpt>
      <trkpt lat="46.97583" lon="8.75073">
        <ele>605</ele>
        <time>2021-08-04T10:30:46.787Z</time>
      </trkpt>
      <trkpt lat="46.97582" lon="8.75066">
        <ele>605</ele>
        <time>2021-08-04T10:30:47.788Z</time>
      </trkpt>
      <trkpt lat="46.97581" lon="8.75057">
        <ele>605</ele>
        <time>2021-08-04T10:30:48.788Z</time>
      </trkpt>
      <trkpt lat="46.97581" lon="8.75047">
        <ele>605</ele>
        <time>2021-08-04T10:30:49.788Z</time>
      </trkpt>
      <trkpt lat="46.97581" lon="8.75034">
        <ele>605</ele>
        <time>2021-08-04T10:30:50.788Z</time>
      </trkpt>
      <trkpt lat="46.97581" lon="8.7502">
        <ele>605</ele>
        <time>2021-08-04T10:30:51.788Z</time>
      </trkpt>
      <trkpt lat="46.97581" lon="8.75005">
        <ele>606</ele>
        <time>2021-08-04T10:30:52.788Z</time>
      </trkpt>
      <trkpt lat="46.97581" lon="8.74989">
        <ele>606</ele>
        <time>2021-08-04T10:30:53.788Z</time>
      </trkpt>
      <trkpt lat="46.97581" lon="8.74972">
        <ele>607</ele>
        <time>2021-08-04T10:30:54.788Z</time>
      </trkpt>
      <trkpt lat="46.97581" lon="8.74954">
        <ele>607</ele>
        <time>2021-08-04T10:30:55.787Z</time>
      </trkpt>
      <trkpt lat="46.9758" lon="8.74934">
        <ele>607</ele>
        <time>2021-08-04T10:30:56.788Z</time>
      </trkpt>
      <trkpt lat="46.9758" lon="8.74914">
        <ele>607</ele>
        <time>2021-08-04T10:30:57.788Z</time>
      </trkpt>
      <trkpt lat="46.97579" lon="8.74893">
        <ele>607</ele>
        <time>2021-08-04T10:30:58.788Z</time>
      </trkpt>
      <trkpt lat="46.97579" lon="8.74872">
        <ele>607</ele>
        <time>2021-08-04T10:30:59.788Z</time>
      </trkpt>
      <trkpt lat="46.97578" lon="8.7485">
        <ele>607</ele>
        <time>2021-08-04T10:31:00.788Z</time>
      </trkpt>
      <trkpt lat="46.97577" lon="8.74831">
        <ele>607</ele>
        <time>2021-08-04T10:31:01.787Z</time>
      </trkpt>
      <trkpt lat="46.97577" lon="8.74805">
        <ele>607</ele>
        <time>2021-08-04T10:31:02.788Z</time>
      </trkpt>
      <trkpt lat="46.97577" lon="8.74782">
        <ele>607</ele>
        <time>2021-08-04T10:31:03.788Z</time>
      </trkpt>
      <trkpt lat="46.97577" lon="8.7476">
        <ele>607</ele>
        <time>2021-08-04T10:31:04.788Z</time>
      </trkpt>
      <trkpt lat="46.97576" lon="8.74737">
        <ele>607</ele>
        <time>2021-08-04T10:31:05.788Z</time>
      </trkpt>
      <trkpt lat="46.97576" lon="8.74715">
        <ele>607</ele>
        <time>2021-08-04T10:31:06.788Z</time>
      </trkpt>
      <trkpt lat="46.97576" lon="8.74693">
        <ele>607</ele>
        <time>2021-08-04T10:31:07.788Z</time>
      </trkpt>
      <trkpt lat="46.97576" lon="8.7467">
        <ele>607</ele>
        <time>2021-08-04T10:31:08.787Z</time>
      </trkpt>
      <trkpt lat="46.97576" lon="8.74648">
        <ele>606</ele>
        <time>2021-08-04T10:31:09.788Z</time>
      </trkpt>
      <trkpt lat="46.97576" lon="8.7463">
        <ele>606</ele>
        <time>2021-08-04T10:31:10.788Z</time>
      </trkpt>
      <trkpt lat="46.97575" lon="8.74604">
        <ele>607</ele>
        <time>2021-08-04T10:31:14.788Z</time>
      </trkpt>
      <trkpt lat="46.97575" lon="8.74582">
        <ele>607</ele>
        <time>2021-08-04T10:31:15.788Z</time>
      </trkpt>
      <trkpt lat="46.97574" lon="8.7456">
        <ele>607</ele>
        <time>2021-08-04T10:31:16.788Z</time>
      </trkpt>
      <trkpt lat="46.97573" lon="8.74542">
        <ele>606</ele>
        <time>2021-08-04T10:31:17.788Z</time>
      </trkpt>
      <trkpt lat="46.97573" lon="8.74515">
        <ele>606</ele>
        <time>2021-08-04T10:31:18.787Z</time>
      </trkpt>
      <trkpt lat="46.97573" lon="8.74493">
        <ele>606</ele>
        <time>2021-08-04T10:31:19.787Z</time>
      </trkpt>
      <trkpt lat="46.97572" lon="8.7447">
        <ele>606</ele>
        <time>2021-08-04T10:31:20.788Z</time>
      </trkpt>
      <trkpt lat="46.97572" lon="8.74451">
        <ele>606</ele>
        <time>2021-08-04T10:31:21.788Z</time>
      </trkpt>
      <trkpt lat="46.97572" lon="8.74428">
        <ele>606</ele>
        <time>2021-08-04T10:31:22.788Z</time>
      </trkpt>
      <trkpt lat="46.97573" lon="8.74404">
        <ele>606</ele>
        <time>2021-08-04T10:31:23.788Z</time>
      </trkpt>
      <trkpt lat="46.97573" lon="8.74375">
        <ele>606</ele>
        <time>2021-08-04T10:31:24.788Z</time>
      </trkpt>
      <trkpt lat="46.97573" lon="8.74351">
        <ele>606</ele>
        <time>2021-08-04T10:31:25.788Z</time>
      </trkpt>
      <trkpt lat="46.97573" lon="8.74326">
        <ele>606</ele>
        <time>2021-08-04T10:31:26.788Z</time>
      </trkpt>
      <trkpt lat="46.97573" lon="8.74306">
        <ele>606</ele>
        <time>2021-08-04T10:31:27.787Z</time>
      </trkpt>
      <trkpt lat="46.97572" lon="8.74277">
        <ele>606</ele>
        <time>2021-08-04T10:31:28.788Z</time>
      </trkpt>
      <trkpt lat="46.97572" lon="8.74252">
        <ele>606</ele>
        <time>2021-08-04T10:31:29.788Z</time>
      </trkpt>
      <trkpt lat="46.97571" lon="8.74233">
        <ele>606</ele>
        <time>2021-08-04T10:31:30.788Z</time>
      </trkpt>
      <trkpt lat="46.97571" lon="8.74208">
        <ele>606</ele>
        <time>2021-08-04T10:31:31.787Z</time>
      </trkpt>
      <trkpt lat="46.97571" lon="8.74184">
        <ele>605</ele>
        <time>2021-08-04T10:31:32.788Z</time>
      </trkpt>
      <trkpt lat="46.97571" lon="8.74155">
        <ele>605</ele>
        <time>2021-08-04T10:31:33.787Z</time>
      </trkpt>
      <trkpt lat="46.97572" lon="8.74132">
        <ele>604</ele>
        <time>2021-08-04T10:31:34.788Z</time>
      </trkpt>
      <trkpt lat="46.97573" lon="8.74112">
        <ele>604</ele>
        <time>2021-08-04T10:31:35.788Z</time>
      </trkpt>
      <trkpt lat="46.97574" lon="8.74089">
        <ele>603</ele>
        <time>2021-08-04T10:31:36.788Z</time>
      </trkpt>
      <trkpt lat="46.97577" lon="8.74066">
        <ele>602</ele>
        <time>2021-08-04T10:31:37.787Z</time>
      </trkpt>
      <trkpt lat="46.97582" lon="8.74039">
        <ele>602</ele>
        <time>2021-08-04T10:31:38.788Z</time>
      </trkpt>
      <trkpt lat="46.97586" lon="8.74017">
        <ele>602</ele>
        <time>2021-08-04T10:31:39.788Z</time>
      </trkpt>
      <trkpt lat="46.97592" lon="8.73995">
        <ele>601</ele>
        <time>2021-08-04T10:31:40.788Z</time>
      </trkpt>
      <trkpt lat="46.97596" lon="8.73978">
        <ele>601</ele>
        <time>2021-08-04T10:31:41.788Z</time>
      </trkpt>
      <trkpt lat="46.97601" lon="8.73956">
        <ele>601</ele>
        <time>2021-08-04T10:31:42.788Z</time>
      </trkpt>
      <trkpt lat="46.97607" lon="8.73935">
        <ele>601</ele>
        <time>2021-08-04T10:31:43.787Z</time>
      </trkpt>
      <trkpt lat="46.97612" lon="8.73913">
        <ele>601</ele>
        <time>2021-08-04T10:31:44.788Z</time>
      </trkpt>
      <trkpt lat="46.97617" lon="8.73891">
        <ele>601</ele>
        <time>2021-08-04T10:31:45.787Z</time>
      </trkpt>
      <trkpt lat="46.97622" lon="8.7387">
        <ele>601</ele>
        <time>2021-08-04T10:31:46.788Z</time>
      </trkpt>
      <trkpt lat="46.97628" lon="8.73844">
        <ele>600</ele>
        <time>2021-08-04T10:31:47.787Z</time>
      </trkpt>
      <trkpt lat="46.97634" lon="8.73822">
        <ele>599</ele>
        <time>2021-08-04T10:31:48.788Z</time>
      </trkpt>
      <trkpt lat="46.97638" lon="8.73805">
        <ele>599</ele>
        <time>2021-08-04T10:31:49.788Z</time>
      </trkpt>
      <trkpt lat="46.97643" lon="8.73784">
        <ele>598</ele>
        <time>2021-08-04T10:31:50.787Z</time>
      </trkpt>
      <trkpt lat="46.97648" lon="8.73763">
        <ele>597</ele>
        <time>2021-08-04T10:31:51.788Z</time>
      </trkpt>
      <trkpt lat="46.97655" lon="8.73737">
        <ele>597</ele>
        <time>2021-08-04T10:31:52.788Z</time>
      </trkpt>
      <trkpt lat="46.97659" lon="8.73719">
        <ele>597</ele>
        <time>2021-08-04T10:31:53.788Z</time>
      </trkpt>
      <trkpt lat="46.97665" lon="8.73698">
        <ele>597</ele>
        <time>2021-08-04T10:31:54.787Z</time>
      </trkpt>
      <trkpt lat="46.9767" lon="8.73677">
        <ele>597</ele>
        <time>2021-08-04T10:31:55.787Z</time>
      </trkpt>
      <trkpt lat="46.97675" lon="8.73655">
        <ele>598</ele>
        <time>2021-08-04T10:31:56.787Z</time>
      </trkpt>
      <trkpt lat="46.97681" lon="8.73634">
        <ele>598</ele>
        <time>2021-08-04T10:31:57.788Z</time>
      </trkpt>
      <trkpt lat="46.97686" lon="8.73613">
        <ele>598</ele>
        <time>2021-08-04T10:31:58.788Z</time>
      </trkpt>
      <trkpt lat="46.97693" lon="8.73587">
        <ele>599</ele>
        <time>2021-08-04T10:31:59.787Z</time>
      </trkpt>
      <trkpt lat="46.97697" lon="8.7357">
        <ele>599</ele>
        <time>2021-08-04T10:32:00.788Z</time>
      </trkpt>
      <trkpt lat="46.97703" lon="8.73545">
        <ele>599</ele>
        <time>2021-08-04T10:32:01.788Z</time>
      </trkpt>
      <trkpt lat="46.97707" lon="8.73529">
        <ele>599</ele>
        <time>2021-08-04T10:32:02.788Z</time>
      </trkpt>
      <trkpt lat="46.97712" lon="8.7351">
        <ele>599</ele>
        <time>2021-08-04T10:32:03.787Z</time>
      </trkpt>
      <trkpt lat="46.9772" lon="8.73489">
        <ele>599</ele>
        <time>2021-08-04T10:32:04.788Z</time>
      </trkpt>
      <trkpt lat="46.97726" lon="8.73476">
        <ele>598</ele>
        <time>2021-08-04T10:32:05.788Z</time>
      </trkpt>
      <trkpt lat="46.97734" lon="8.73459">
        <ele>598</ele>
        <time>2021-08-04T10:32:06.787Z</time>
      </trkpt>
      <trkpt lat="46.97743" lon="8.73445">
        <ele>598</ele>
        <time>2021-08-04T10:32:07.788Z</time>
      </trkpt>
      <trkpt lat="46.97752" lon="8.73432">
        <ele>597</ele>
        <time>2021-08-04T10:32:08.788Z</time>
      </trkpt>
      <trkpt lat="46.97761" lon="8.7342">
        <ele>597</ele>
        <time>2021-08-04T10:32:09.788Z</time>
      </trkpt>
      <trkpt lat="46.9777" lon="8.73408">
        <ele>597</ele>
        <time>2021-08-04T10:32:10.788Z</time>
      </trkpt>
      <trkpt lat="46.97778" lon="8.73395">
        <ele>596</ele>
        <time>2021-08-04T10:32:11.788Z</time>
      </trkpt>
      <trkpt lat="46.97786" lon="8.73381">
        <ele>596</ele>
        <time>2021-08-04T10:32:12.788Z</time>
      </trkpt>
      <trkpt lat="46.97794" lon="8.73365">
        <ele>595</ele>
        <time>2021-08-04T10:32:13.787Z</time>
      </trkpt>
      <trkpt lat="46.97801" lon="8.73349">
        <ele>594</ele>
        <time>2021-08-04T10:32:14.788Z</time>
      </trkpt>
      <trkpt lat="46.97808" lon="8.73333">
        <ele>594</ele>
        <time>2021-08-04T10:32:15.788Z</time>
      </trkpt>
      <trkpt lat="46.97816" lon="8.73315">
        <ele>593</ele>
        <time>2021-08-04T10:32:16.788Z</time>
      </trkpt>
      <trkpt lat="46.97823" lon="8.73298">
        <ele>592</ele>
        <time>2021-08-04T10:32:17.788Z</time>
      </trkpt>
      <trkpt lat="46.97831" lon="8.73279">
        <ele>591</ele>
        <time>2021-08-04T10:32:18.788Z</time>
      </trkpt>
      <trkpt lat="46.97839" lon="8.73261">
        <ele>591</ele>
        <time>2021-08-04T10:32:19.788Z</time>
      </trkpt>
      <trkpt lat="46.97847" lon="8.73242">
        <ele>590</ele>
        <time>2021-08-04T10:32:20.788Z</time>
      </trkpt>
      <trkpt lat="46.97855" lon="8.73222">
        <ele>589</ele>
        <time>2021-08-04T10:32:21.787Z</time>
      </trkpt>
      <trkpt lat="46.97862" lon="8.73203">
        <ele>588</ele>
        <time>2021-08-04T10:32:22.787Z</time>
      </trkpt>
      <trkpt lat="46.97871" lon="8.73182">
        <ele>588</ele>
        <time>2021-08-04T10:32:23.787Z</time>
      </trkpt>
      <trkpt lat="46.97877" lon="8.73169">
        <ele>587</ele>
        <time>2021-08-04T10:32:24.788Z</time>
      </trkpt>
      <trkpt lat="46.97885" lon="8.73154">
        <ele>586</ele>
        <time>2021-08-04T10:32:25.787Z</time>
      </trkpt>
      <trkpt lat="46.97892" lon="8.73136">
        <ele>586</ele>
        <time>2021-08-04T10:32:26.788Z</time>
      </trkpt>
      <trkpt lat="46.979" lon="8.73119">
        <ele>585</ele>
        <time>2021-08-04T10:32:27.787Z</time>
      </trkpt>
      <trkpt lat="46.97909" lon="8.73102">
        <ele>585</ele>
        <time>2021-08-04T10:32:28.788Z</time>
      </trkpt>
      <trkpt lat="46.97919" lon="8.73082">
        <ele>584</ele>
        <time>2021-08-04T10:32:29.788Z</time>
      </trkpt>
      <trkpt lat="46.97926" lon="8.73068">
        <ele>584</ele>
        <time>2021-08-04T10:32:30.788Z</time>
      </trkpt>
      <trkpt lat="46.97932" lon="8.73058">
        <ele>583</ele>
        <time>2021-08-04T10:32:31.788Z</time>
      </trkpt>
      <trkpt lat="46.97941" lon="8.73044">
        <ele>583</ele>
        <time>2021-08-04T10:32:32.788Z</time>
      </trkpt>
      <trkpt lat="46.97953" lon="8.73027">
        <ele>582</ele>
        <time>2021-08-04T10:32:33.787Z</time>
      </trkpt>
      <trkpt lat="46.97962" lon="8.73013">
        <ele>582</ele>
        <time>2021-08-04T10:32:34.788Z</time>
      </trkpt>
      <trkpt lat="46.97971" lon="8.72999">
        <ele>581</ele>
        <time>2021-08-04T10:32:35.787Z</time>
      </trkpt>
      <trkpt lat="46.97978" lon="8.72989">
        <ele>581</ele>
        <time>2021-08-04T10:32:36.787Z</time>
      </trkpt>
      <trkpt lat="46.97989" lon="8.72974">
        <ele>581</ele>
        <time>2021-08-04T10:32:37.787Z</time>
      </trkpt>
      <trkpt lat="46.97998" lon="8.72961">
        <ele>580</ele>
        <time>2021-08-04T10:32:38.788Z</time>
      </trkpt>
      <trkpt lat="46.98008" lon="8.72949">
        <ele>580</ele>
        <time>2021-08-04T10:32:39.788Z</time>
      </trkpt>
      <trkpt lat="46.98017" lon="8.72937">
        <ele>580</ele>
        <time>2021-08-04T10:32:40.787Z</time>
      </trkpt>
      <trkpt lat="46.98028" lon="8.72925">
        <ele>579</ele>
        <time>2021-08-04T10:32:41.787Z</time>
      </trkpt>
      <trkpt lat="46.98038" lon="8.72912">
        <ele>579</ele>
        <time>2021-08-04T10:32:42.788Z</time>
      </trkpt>
      <trkpt lat="46.98049" lon="8.72899">
        <ele>578</ele>
        <time>2021-08-04T10:32:43.787Z</time>
      </trkpt>
      <trkpt lat="46.98057" lon="8.72889">
        <ele>578</ele>
        <time>2021-08-04T10:32:44.788Z</time>
      </trkpt>
      <trkpt lat="46.98066" lon="8.72876">
        <ele>578</ele>
        <time>2021-08-04T10:32:45.788Z</time>
      </trkpt>
      <trkpt lat="46.98079" lon="8.7286">
        <ele>577</ele>
        <time>2021-08-04T10:32:46.787Z</time>
      </trkpt>
      <trkpt lat="46.98088" lon="8.72849">
        <ele>577</ele>
        <time>2021-08-04T10:32:47.788Z</time>
      </trkpt>
      <trkpt lat="46.98099" lon="8.72835">
        <ele>576</ele>
        <time>2021-08-04T10:32:48.788Z</time>
      </trkpt>
      <trkpt lat="46.98113" lon="8.72818">
        <ele>576</ele>
        <time>2021-08-04T10:32:49.788Z</time>
      </trkpt>
      <trkpt lat="46.98124" lon="8.72804">
        <ele>576</ele>
        <time>2021-08-04T10:32:50.787Z</time>
      </trkpt>
      <trkpt lat="46.98135" lon="8.7279">
        <ele>576</ele>
        <time>2021-08-04T10:32:51.788Z</time>
      </trkpt>
      <trkpt lat="46.98147" lon="8.72776">
        <ele>576</ele>
        <time>2021-08-04T10:32:52.787Z</time>
      </trkpt>
      <trkpt lat="46.98157" lon="8.72763">
        <ele>576</ele>
        <time>2021-08-04T10:32:53.788Z</time>
      </trkpt>
      <trkpt lat="46.98165" lon="8.72752">
        <ele>575</ele>
        <time>2021-08-04T10:32:54.788Z</time>
      </trkpt>
      <trkpt lat="46.98176" lon="8.72737">
        <ele>575</ele>
        <time>2021-08-04T10:32:55.787Z</time>
      </trkpt>
      <trkpt lat="46.98185" lon="8.72725">
        <ele>575</ele>
        <time>2021-08-04T10:32:56.787Z</time>
      </trkpt>
      <trkpt lat="46.98195" lon="8.72712">
        <ele>575</ele>
        <time>2021-08-04T10:32:57.788Z</time>
      </trkpt>
      <trkpt lat="46.98203" lon="8.72703">
        <ele>575</ele>
        <time>2021-08-04T10:32:58.788Z</time>
      </trkpt>
      <trkpt lat="46.98212" lon="8.72691">
        <ele>575</ele>
        <time>2021-08-04T10:32:59.787Z</time>
      </trkpt>
      <trkpt lat="46.98223" lon="8.72677">
        <ele>574</ele>
        <time>2021-08-04T10:33:00.788Z</time>
      </trkpt>
      <trkpt lat="46.98232" lon="8.72665">
        <ele>574</ele>
        <time>2021-08-04T10:33:01.787Z</time>
      </trkpt>
      <trkpt lat="46.98241" lon="8.72653">
        <ele>574</ele>
        <time>2021-08-04T10:33:02.788Z</time>
      </trkpt>
      <trkpt lat="46.98249" lon="8.72642">
        <ele>574</ele>
        <time>2021-08-04T10:33:03.788Z</time>
      </trkpt>
      <trkpt lat="46.98261" lon="8.72627">
        <ele>574</ele>
        <time>2021-08-04T10:33:04.788Z</time>
      </trkpt>
      <trkpt lat="46.9827" lon="8.72615">
        <ele>574</ele>
        <time>2021-08-04T10:33:05.788Z</time>
      </trkpt>
      <trkpt lat="46.98279" lon="8.72603">
        <ele>574</ele>
        <time>2021-08-04T10:33:06.787Z</time>
      </trkpt>
      <trkpt lat="46.98288" lon="8.72591">
        <ele>575</ele>
        <time>2021-08-04T10:33:07.788Z</time>
      </trkpt>
      <trkpt lat="46.98295" lon="8.72581">
        <ele>575</ele>
        <time>2021-08-04T10:33:08.788Z</time>
      </trkpt>
      <trkpt lat="46.98307" lon="8.72566">
        <ele>575</ele>
        <time>2021-08-04T10:33:09.788Z</time>
      </trkpt>
      <trkpt lat="46.98316" lon="8.72554">
        <ele>575</ele>
        <time>2021-08-04T10:33:10.788Z</time>
      </trkpt>
      <trkpt lat="46.98325" lon="8.72542">
        <ele>575</ele>
        <time>2021-08-04T10:33:11.788Z</time>
      </trkpt>
      <trkpt lat="46.98334" lon="8.72528">
        <ele>575</ele>
        <time>2021-08-04T10:33:12.787Z</time>
      </trkpt>
      <trkpt lat="46.98342" lon="8.72515">
        <ele>575</ele>
        <time>2021-08-04T10:33:13.788Z</time>
      </trkpt>
      <trkpt lat="46.9835" lon="8.72502">
        <ele>575</ele>
        <time>2021-08-04T10:33:14.788Z</time>
      </trkpt>
      <trkpt lat="46.98357" lon="8.72489">
        <ele>575</ele>
        <time>2021-08-04T10:33:15.788Z</time>
      </trkpt>
      <trkpt lat="46.98364" lon="8.72476">
        <ele>575</ele>
        <time>2021-08-04T10:33:16.788Z</time>
      </trkpt>
      <trkpt lat="46.98369" lon="8.72463">
        <ele>575</ele>
        <time>2021-08-04T10:33:17.787Z</time>
      </trkpt>
      <trkpt lat="46.98374" lon="8.72451">
        <ele>575</ele>
        <time>2021-08-04T10:33:18.787Z</time>
      </trkpt>
      <trkpt lat="46.98379" lon="8.7244">
        <ele>574</ele>
        <time>2021-08-04T10:33:19.788Z</time>
      </trkpt>
      <trkpt lat="46.98385" lon="8.7243">
        <ele>574</ele>
        <time>2021-08-04T10:33:20.787Z</time>
      </trkpt>
      <trkpt lat="46.98389" lon="8.72421">
        <ele>574</ele>
        <time>2021-08-04T10:33:21.788Z</time>
      </trkpt>
      <trkpt lat="46.98393" lon="8.72413">
        <ele>574</ele>
        <time>2021-08-04T10:33:22.787Z</time>
      </trkpt>
      <trkpt lat="46.98395" lon="8.72408">
        <ele>573</ele>
        <time>2021-08-04T10:33:23.787Z</time>
      </trkpt>
      <trkpt lat="46.98398" lon="8.72402">
        <ele>573</ele>
        <time>2021-08-04T10:33:24.787Z</time>
      </trkpt>
      <trkpt lat="46.98401" lon="8.72397">
        <ele>573</ele>
        <time>2021-08-04T10:33:25.788Z</time>
      </trkpt>
      <trkpt lat="46.98403" lon="8.72394">
        <ele>573</ele>
        <time>2021-08-04T10:33:26.788Z</time>
      </trkpt>
      <trkpt lat="46.98405" lon="8.7239">
        <ele>573</ele>
        <time>2021-08-04T10:33:27.788Z</time>
      </trkpt>
      <trkpt lat="46.98406" lon="8.72387">
        <ele>574</ele>
        <time>2021-08-04T10:33:28.788Z</time>
      </trkpt>
      <trkpt lat="46.98405" lon="8.72389">
        <ele>574</ele>
        <time>2021-08-04T10:33:36.939Z</time>
      </trkpt>
      <trkpt lat="46.98401" lon="8.72393">
        <ele>574</ele>
        <time>2021-08-04T10:33:37.939Z</time>
      </trkpt>
      <trkpt lat="46.98401" lon="8.72395">
        <ele>575</ele>
        <time>2021-08-04T10:33:38.938Z</time>
      </trkpt>
      <trkpt lat="46.984" lon="8.72396">
        <ele>575</ele>
        <time>2021-08-04T10:33:39.939Z</time>
      </trkpt>
      <trkpt lat="46.98398" lon="8.72397">
        <ele>576</ele>
        <time>2021-08-04T10:33:40.939Z</time>
      </trkpt>
      <trkpt lat="46.98397" lon="8.72398">
        <ele>576</ele>
        <time>2021-08-04T10:33:41.938Z</time>
      </trkpt>
      <trkpt lat="46.98393" lon="8.72402">
        <ele>576</ele>
        <time>2021-08-04T10:33:42.940Z</time>
      </trkpt>
      <trkpt lat="46.98393" lon="8.72404">
        <ele>576</ele>
        <time>2021-08-04T10:33:43.940Z</time>
      </trkpt>
      <trkpt lat="46.98391" lon="8.72406">
        <ele>577</ele>
        <time>2021-08-04T10:33:44.939Z</time>
      </trkpt>
      <trkpt lat="46.9839" lon="8.72407">
        <ele>577</ele>
        <time>2021-08-04T10:33:45.940Z</time>
      </trkpt>
      <trkpt lat="46.98387" lon="8.72407">
        <ele>578</ele>
        <time>2021-08-04T10:33:46.941Z</time>
      </trkpt>
      <trkpt lat="46.98388" lon="8.72405">
        <ele>578</ele>
        <time>2021-08-04T10:33:47.941Z</time>
      </trkpt>
      <trkpt lat="46.98389" lon="8.72403">
        <ele>578</ele>
        <time>2021-08-04T10:33:48.941Z</time>
      </trkpt>
      <trkpt lat="46.98389" lon="8.724">
        <ele>578</ele>
        <time>2021-08-04T10:33:49.940Z</time>
      </trkpt>
      <trkpt lat="46.98391" lon="8.72395">
        <ele>578</ele>
        <time>2021-08-04T10:33:50.941Z</time>
      </trkpt>
      <trkpt lat="46.98392" lon="8.72388">
        <ele>578</ele>
        <time>2021-08-04T10:33:51.940Z</time>
      </trkpt>
      <trkpt lat="46.98395" lon="8.7238">
        <ele>578</ele>
        <time>2021-08-04T10:33:52.941Z</time>
      </trkpt>
      <trkpt lat="46.98398" lon="8.72372">
        <ele>578</ele>
        <time>2021-08-04T10:33:53.941Z</time>
      </trkpt>
      <trkpt lat="46.98402" lon="8.72361">
        <ele>578</ele>
        <time>2021-08-04T10:33:54.941Z</time>
      </trkpt>
      <trkpt lat="46.98407" lon="8.7235">
        <ele>578</ele>
        <time>2021-08-04T10:33:55.941Z</time>
      </trkpt>
      <trkpt lat="46.98412" lon="8.72337">
        <ele>578</ele>
        <time>2021-08-04T10:33:56.941Z</time>
      </trkpt>
      <trkpt lat="46.98417" lon="8.72324">
        <ele>578</ele>
        <time>2021-08-04T10:33:57.940Z</time>
      </trkpt>
      <trkpt lat="46.98422" lon="8.72312">
        <ele>578</ele>
        <time>2021-08-04T10:33:58.941Z</time>
      </trkpt>
      <trkpt lat="46.98429" lon="8.72294">
        <ele>577</ele>
        <time>2021-08-04T10:33:59.941Z</time>
      </trkpt>
      <trkpt lat="46.98435" lon="8.72278">
        <ele>577</ele>
        <time>2021-08-04T10:34:00.941Z</time>
      </trkpt>
      <trkpt lat="46.98442" lon="8.72262">
        <ele>576</ele>
        <time>2021-08-04T10:34:01.940Z</time>
      </trkpt>
      <trkpt lat="46.98448" lon="8.72248">
        <ele>575</ele>
        <time>2021-08-04T10:34:02.941Z</time>
      </trkpt>
      <trkpt lat="46.98456" lon="8.72231">
        <ele>575</ele>
        <time>2021-08-04T10:34:03.941Z</time>
      </trkpt>
      <trkpt lat="46.98465" lon="8.72209">
        <ele>574</ele>
        <time>2021-08-04T10:34:04.940Z</time>
      </trkpt>
      <trkpt lat="46.98473" lon="8.72189">
        <ele>574</ele>
        <time>2021-08-04T10:34:05.941Z</time>
      </trkpt>
      <trkpt lat="46.98481" lon="8.72171">
        <ele>573</ele>
        <time>2021-08-04T10:34:06.940Z</time>
      </trkpt>
      <trkpt lat="46.98487" lon="8.72154">
        <ele>573</ele>
        <time>2021-08-04T10:34:07.941Z</time>
      </trkpt>
      <trkpt lat="46.98493" lon="8.72136">
        <ele>572</ele>
        <time>2021-08-04T10:34:08.940Z</time>
      </trkpt>
      <trkpt lat="46.98499" lon="8.72119">
        <ele>572</ele>
        <time>2021-08-04T10:34:09.941Z</time>
      </trkpt>
      <trkpt lat="46.98506" lon="8.72102">
        <ele>572</ele>
        <time>2021-08-04T10:34:10.941Z</time>
      </trkpt>
      <trkpt lat="46.98512" lon="8.72085">
        <ele>571</ele>
        <time>2021-08-04T10:34:11.941Z</time>
      </trkpt>
      <trkpt lat="46.98519" lon="8.72069">
        <ele>572</ele>
        <time>2021-08-04T10:34:12.941Z</time>
      </trkpt>
      <trkpt lat="46.98526" lon="8.72053">
        <ele>572</ele>
        <time>2021-08-04T10:34:13.941Z</time>
      </trkpt>
      <trkpt lat="46.98532" lon="8.72038">
        <ele>572</ele>
        <time>2021-08-04T10:34:14.940Z</time>
      </trkpt>
      <trkpt lat="46.98538" lon="8.72022">
        <ele>572</ele>
        <time>2021-08-04T10:34:15.941Z</time>
      </trkpt>
      <trkpt lat="46.98543" lon="8.72008">
        <ele>572</ele>
        <time>2021-08-04T10:34:16.941Z</time>
      </trkpt>
      <trkpt lat="46.98548" lon="8.71993">
        <ele>573</ele>
        <time>2021-08-04T10:34:17.941Z</time>
      </trkpt>
      <trkpt lat="46.98552" lon="8.71978">
        <ele>574</ele>
        <time>2021-08-04T10:34:18.940Z</time>
      </trkpt>
      <trkpt lat="46.98556" lon="8.71964">
        <ele>575</ele>
        <time>2021-08-04T10:34:19.941Z</time>
      </trkpt>
      <trkpt lat="46.98559" lon="8.71949">
        <ele>576</ele>
        <time>2021-08-04T10:34:20.941Z</time>
      </trkpt>
      <trkpt lat="46.98562" lon="8.71938">
        <ele>577</ele>
        <time>2021-08-04T10:34:21.941Z</time>
      </trkpt>
      <trkpt lat="46.98566" lon="8.71919">
        <ele>577</ele>
        <time>2021-08-04T10:34:22.941Z</time>
      </trkpt>
      <trkpt lat="46.9857" lon="8.71903">
        <ele>578</ele>
        <time>2021-08-04T10:34:23.940Z</time>
      </trkpt>
      <trkpt lat="46.98574" lon="8.71888">
        <ele>578</ele>
        <time>2021-08-04T10:34:24.941Z</time>
      </trkpt>
      <trkpt lat="46.98577" lon="8.71871">
        <ele>579</ele>
        <time>2021-08-04T10:34:25.941Z</time>
      </trkpt>
      <trkpt lat="46.9858" lon="8.71858">
        <ele>579</ele>
        <time>2021-08-04T10:34:26.941Z</time>
      </trkpt>
      <trkpt lat="46.98585" lon="8.71838">
        <ele>579</ele>
        <time>2021-08-04T10:34:27.941Z</time>
      </trkpt>
      <trkpt lat="46.98589" lon="8.71821">
        <ele>579</ele>
        <time>2021-08-04T10:34:28.941Z</time>
      </trkpt>
      <trkpt lat="46.98593" lon="8.71803">
        <ele>578</ele>
        <time>2021-08-04T10:34:29.940Z</time>
      </trkpt>
      <trkpt lat="46.98598" lon="8.71785">
        <ele>578</ele>
        <time>2021-08-04T10:34:30.941Z</time>
      </trkpt>
      <trkpt lat="46.98601" lon="8.71768">
        <ele>577</ele>
        <time>2021-08-04T10:34:31.941Z</time>
      </trkpt>
      <trkpt lat="46.98606" lon="8.71751">
        <ele>577</ele>
        <time>2021-08-04T10:34:32.941Z</time>
      </trkpt>
      <trkpt lat="46.9861" lon="8.71732">
        <ele>577</ele>
        <time>2021-08-04T10:34:33.941Z</time>
      </trkpt>
      <trkpt lat="46.98614" lon="8.71714">
        <ele>576</ele>
        <time>2021-08-04T10:34:34.940Z</time>
      </trkpt>
      <trkpt lat="46.98618" lon="8.71701">
        <ele>576</ele>
        <time>2021-08-04T10:34:35.940Z</time>
      </trkpt>
      <trkpt lat="46.98622" lon="8.7168">
        <ele>576</ele>
        <time>2021-08-04T10:34:36.941Z</time>
      </trkpt>
      <trkpt lat="46.98625" lon="8.71663">
        <ele>575</ele>
        <time>2021-08-04T10:34:37.941Z</time>
      </trkpt>
      <trkpt lat="46.98629" lon="8.71645">
        <ele>575</ele>
        <time>2021-08-04T10:34:38.940Z</time>
      </trkpt>
      <trkpt lat="46.98632" lon="8.71627">
        <ele>575</ele>
        <time>2021-08-04T10:34:39.940Z</time>
      </trkpt>
      <trkpt lat="46.98634" lon="8.7161">
        <ele>575</ele>
        <time>2021-08-04T10:34:40.941Z</time>
      </trkpt>
      <trkpt lat="46.98635" lon="8.71597">
        <ele>574</ele>
        <time>2021-08-04T10:34:41.941Z</time>
      </trkpt>
      <trkpt lat="46.98637" lon="8.71579">
        <ele>574</ele>
        <time>2021-08-04T10:34:42.941Z</time>
      </trkpt>
      <trkpt lat="46.98639" lon="8.71567">
        <ele>574</ele>
        <time>2021-08-04T10:34:43.940Z</time>
      </trkpt>
      <trkpt lat="46.98641" lon="8.71552">
        <ele>573</ele>
        <time>2021-08-04T10:34:44.941Z</time>
      </trkpt>
      <trkpt lat="46.98643" lon="8.71536">
        <ele>573</ele>
        <time>2021-08-04T10:34:45.941Z</time>
      </trkpt>
      <trkpt lat="46.98645" lon="8.71524">
        <ele>572</ele>
        <time>2021-08-04T10:34:46.941Z</time>
      </trkpt>
      <trkpt lat="46.98646" lon="8.71512">
        <ele>572</ele>
        <time>2021-08-04T10:34:47.941Z</time>
      </trkpt>
      <trkpt lat="46.98647" lon="8.71505">
        <ele>571</ele>
        <time>2021-08-04T10:34:48.941Z</time>
      </trkpt>
      <trkpt lat="46.98648" lon="8.71497">
        <ele>571</ele>
        <time>2021-08-04T10:34:49.940Z</time>
      </trkpt>
      <trkpt lat="46.98649" lon="8.71489">
        <ele>571</ele>
        <time>2021-08-04T10:34:50.941Z</time>
      </trkpt>
      <trkpt lat="46.9865" lon="8.71485">
        <ele>571</ele>
        <time>2021-08-04T10:34:51.941Z</time>
      </trkpt>
      <trkpt lat="46.9865" lon="8.71478">
        <ele>571</ele>
        <time>2021-08-04T10:34:52.940Z</time>
      </trkpt>
      <trkpt lat="46.98653" lon="8.71473">
        <ele>571</ele>
        <time>2021-08-04T10:34:53.941Z</time>
      </trkpt>
      <trkpt lat="46.98653" lon="8.71471">
        <ele>571</ele>
        <time>2021-08-04T10:34:54.941Z</time>
      </trkpt>
      <trkpt lat="46.98653" lon="8.7147">
        <ele>572</ele>
        <time>2021-08-04T10:34:55.941Z</time>
      </trkpt>
      <trkpt lat="46.98651" lon="8.7147">
        <ele>572</ele>
        <time>2021-08-04T10:34:56.940Z</time>
      </trkpt>
      <trkpt lat="46.98652" lon="8.71467">
        <ele>573</ele>
        <time>2021-08-04T10:34:57.941Z</time>
      </trkpt>
      <trkpt lat="46.98652" lon="8.71463">
        <ele>573</ele>
        <time>2021-08-04T10:34:58.940Z</time>
      </trkpt>
      <trkpt lat="46.98653" lon="8.7146">
        <ele>573</ele>
        <time>2021-08-04T10:34:59.941Z</time>
      </trkpt>
      <trkpt lat="46.98653" lon="8.71458">
        <ele>574</ele>
        <time>2021-08-04T10:35:00.941Z</time>
      </trkpt>
      <trkpt lat="46.98653" lon="8.71456">
        <ele>574</ele>
        <time>2021-08-04T10:35:01.940Z</time>
      </trkpt>
      <trkpt lat="46.98653" lon="8.71455">
        <ele>574</ele>
        <time>2021-08-04T10:35:02.941Z</time>
      </trkpt>
      <trkpt lat="46.98654" lon="8.71454">
        <ele>575</ele>
        <time>2021-08-04T10:35:03.941Z</time>
      </trkpt>
      <trkpt lat="46.98654" lon="8.71453">
        <ele>575</ele>
        <time>2021-08-04T10:35:04.941Z</time>
      </trkpt>
      <trkpt lat="46.98654" lon="8.71452">
        <ele>576</ele>
        <time>2021-08-04T10:35:05.941Z</time>
      </trkpt>
      <trkpt lat="46.98654" lon="8.7145">
        <ele>577</ele>
        <time>2021-08-04T10:35:06.941Z</time>
      </trkpt>
      <trkpt lat="46.98655" lon="8.71448">
        <ele>577</ele>
        <time>2021-08-04T10:35:07.941Z</time>
      </trkpt>
      <trkpt lat="46.98655" lon="8.71445">
        <ele>578</ele>
        <time>2021-08-04T10:35:08.940Z</time>
      </trkpt>
      <trkpt lat="46.98655" lon="8.7144">
        <ele>578</ele>
        <time>2021-08-04T10:35:09.940Z</time>
      </trkpt>
      <trkpt lat="46.98656" lon="8.71436">
        <ele>579</ele>
        <time>2021-08-04T10:35:10.941Z</time>
      </trkpt>
      <trkpt lat="46.98657" lon="8.71431">
        <ele>579</ele>
        <time>2021-08-04T10:35:11.941Z</time>
      </trkpt>
      <trkpt lat="46.98658" lon="8.71426">
        <ele>579</ele>
        <time>2021-08-04T10:35:12.940Z</time>
      </trkpt>
      <trkpt lat="46.98659" lon="8.71419">
        <ele>579</ele>
        <time>2021-08-04T10:35:13.940Z</time>
      </trkpt>
      <trkpt lat="46.9866" lon="8.71411">
        <ele>579</ele>
        <time>2021-08-04T10:35:14.941Z</time>
      </trkpt>
      <trkpt lat="46.98662" lon="8.71401">
        <ele>579</ele>
        <time>2021-08-04T10:35:15.941Z</time>
      </trkpt>
      <trkpt lat="46.98663" lon="8.71394">
        <ele>579</ele>
        <time>2021-08-04T10:35:16.941Z</time>
      </trkpt>
      <trkpt lat="46.98665" lon="8.71384">
        <ele>579</ele>
        <time>2021-08-04T10:35:17.941Z</time>
      </trkpt>
      <trkpt lat="46.98666" lon="8.71375">
        <ele>579</ele>
        <time>2021-08-04T10:35:18.941Z</time>
      </trkpt>
      <trkpt lat="46.98666" lon="8.71369">
        <ele>579</ele>
        <time>2021-08-04T10:35:19.940Z</time>
      </trkpt>
      <trkpt lat="46.98667" lon="8.71362">
        <ele>579</ele>
        <time>2021-08-04T10:35:20.941Z</time>
      </trkpt>
      <trkpt lat="46.98668" lon="8.71355">
        <ele>579</ele>
        <time>2021-08-04T10:35:21.941Z</time>
      </trkpt>
      <trkpt lat="46.98668" lon="8.71347">
        <ele>579</ele>
        <time>2021-08-04T10:35:22.941Z</time>
      </trkpt>
      <trkpt lat="46.98669" lon="8.7134">
        <ele>579</ele>
        <time>2021-08-04T10:35:23.940Z</time>
      </trkpt>
      <trkpt lat="46.9867" lon="8.71334">
        <ele>578</ele>
        <time>2021-08-04T10:35:24.940Z</time>
      </trkpt>
      <trkpt lat="46.9867" lon="8.7133">
        <ele>578</ele>
        <time>2021-08-04T10:35:25.941Z</time>
      </trkpt>
      <trkpt lat="46.9867" lon="8.71325">
        <ele>578</ele>
        <time>2021-08-04T10:35:26.941Z</time>
      </trkpt>
      <trkpt lat="46.9867" lon="8.71321">
        <ele>577</ele>
        <time>2021-08-04T10:35:27.940Z</time>
      </trkpt>
      <trkpt lat="46.98671" lon="8.71318">
        <ele>577</ele>
        <time>2021-08-04T10:35:28.941Z</time>
      </trkpt>
      <trkpt lat="46.98671" lon="8.71314">
        <ele>577</ele>
        <time>2021-08-04T10:35:29.941Z</time>
      </trkpt>
      <trkpt lat="46.98671" lon="8.71311">
        <ele>577</ele>
        <time>2021-08-04T10:35:30.940Z</time>
      </trkpt>
      <trkpt lat="46.98671" lon="8.71306">
        <ele>577</ele>
        <time>2021-08-04T10:35:31.940Z</time>
      </trkpt>
      <trkpt lat="46.98672" lon="8.71302">
        <ele>577</ele>
        <time>2021-08-04T10:35:32.941Z</time>
      </trkpt>
      <trkpt lat="46.98672" lon="8.71297">
        <ele>577</ele>
        <time>2021-08-04T10:35:33.940Z</time>
      </trkpt>
      <trkpt lat="46.98672" lon="8.71292">
        <ele>577</ele>
        <time>2021-08-04T10:35:34.941Z</time>
      </trkpt>
      <trkpt lat="46.98672" lon="8.71288">
        <ele>577</ele>
        <time>2021-08-04T10:35:35.941Z</time>
      </trkpt>
      <trkpt lat="46.98673" lon="8.71283">
        <ele>577</ele>
        <time>2021-08-04T10:35:36.941Z</time>
      </trkpt>
      <trkpt lat="46.98673" lon="8.71276">
        <ele>577</ele>
        <time>2021-08-04T10:35:37.940Z</time>
      </trkpt>
      <trkpt lat="46.98673" lon="8.7127">
        <ele>576</ele>
        <time>2021-08-04T10:35:38.941Z</time>
      </trkpt>
      <trkpt lat="46.98673" lon="8.71264">
        <ele>576</ele>
        <time>2021-08-04T10:35:39.941Z</time>
      </trkpt>
      <trkpt lat="46.98673" lon="8.71258">
        <ele>576</ele>
        <time>2021-08-04T10:35:40.941Z</time>
      </trkpt>
      <trkpt lat="46.98674" lon="8.71254">
        <ele>576</ele>
        <time>2021-08-04T10:35:41.941Z</time>
      </trkpt>
      <trkpt lat="46.98674" lon="8.71249">
        <ele>576</ele>
        <time>2021-08-04T10:35:42.940Z</time>
      </trkpt>
      <trkpt lat="46.98675" lon="8.71243">
        <ele>576</ele>
        <time>2021-08-04T10:35:43.941Z</time>
      </trkpt>
      <trkpt lat="46.98677" lon="8.71236">
        <ele>576</ele>
        <time>2021-08-04T10:35:44.941Z</time>
      </trkpt>
      <trkpt lat="46.98678" lon="8.71231">
        <ele>575</ele>
        <time>2021-08-04T10:35:45.941Z</time>
      </trkpt>
      <trkpt lat="46.98679" lon="8.71226">
        <ele>575</ele>
        <time>2021-08-04T10:35:46.941Z</time>
      </trkpt>
      <trkpt lat="46.9868" lon="8.71222">
        <ele>573</ele>
        <time>2021-08-04T10:35:47.940Z</time>
      </trkpt>
      <trkpt lat="46.98682" lon="8.71216">
        <ele>572</ele>
        <time>2021-08-04T10:35:48.941Z</time>
      </trkpt>
      <trkpt lat="46.98684" lon="8.71208">
        <ele>572</ele>
        <time>2021-08-04T10:35:49.941Z</time>
      </trkpt>
      <trkpt lat="46.98687" lon="8.71199">
        <ele>571</ele>
        <time>2021-08-04T10:35:50.941Z</time>
      </trkpt>
      <trkpt lat="46.98689" lon="8.71189">
        <ele>570</ele>
        <time>2021-08-04T10:35:51.941Z</time>
      </trkpt>
      <trkpt lat="46.98693" lon="8.71178">
        <ele>570</ele>
        <time>2021-08-04T10:35:52.941Z</time>
      </trkpt>
      <trkpt lat="46.98697" lon="8.71166">
        <ele>569</ele>
        <time>2021-08-04T10:35:53.940Z</time>
      </trkpt>
      <trkpt lat="46.987" lon="8.71156">
        <ele>569</ele>
        <time>2021-08-04T10:35:54.941Z</time>
      </trkpt>
      <trkpt lat="46.98704" lon="8.7114">
        <ele>568</ele>
        <time>2021-08-04T10:35:55.940Z</time>
      </trkpt>
      <trkpt lat="46.98709" lon="8.71125">
        <ele>568</ele>
        <time>2021-08-04T10:35:56.941Z</time>
      </trkpt>
      <trkpt lat="46.98713" lon="8.71112">
        <ele>567</ele>
        <time>2021-08-04T10:35:57.940Z</time>
      </trkpt>
      <trkpt lat="46.98719" lon="8.71092">
        <ele>566</ele>
        <time>2021-08-04T10:35:58.941Z</time>
      </trkpt>
      <trkpt lat="46.98724" lon="8.71075">
        <ele>566</ele>
        <time>2021-08-04T10:35:59.941Z</time>
      </trkpt>
      <trkpt lat="46.98729" lon="8.71058">
        <ele>565</ele>
        <time>2021-08-04T10:36:00.941Z</time>
      </trkpt>
      <trkpt lat="46.98733" lon="8.71044">
        <ele>565</ele>
        <time>2021-08-04T10:36:01.940Z</time>
      </trkpt>
      <trkpt lat="46.98739" lon="8.71023">
        <ele>564</ele>
        <time>2021-08-04T10:36:02.941Z</time>
      </trkpt>
      <trkpt lat="46.98744" lon="8.71005">
        <ele>564</ele>
        <time>2021-08-04T10:36:03.941Z</time>
      </trkpt>
      <trkpt lat="46.98749" lon="8.70988">
        <ele>564</ele>
        <time>2021-08-04T10:36:04.940Z</time>
      </trkpt>
      <trkpt lat="46.98755" lon="8.7097">
        <ele>564</ele>
        <time>2021-08-04T10:36:05.941Z</time>
      </trkpt>
      <trkpt lat="46.98759" lon="8.70956">
        <ele>563</ele>
        <time>2021-08-04T10:36:06.941Z</time>
      </trkpt>
      <trkpt lat="46.98766" lon="8.70934">
        <ele>563</ele>
        <time>2021-08-04T10:36:07.941Z</time>
      </trkpt>
      <trkpt lat="46.98772" lon="8.70916">
        <ele>563</ele>
        <time>2021-08-04T10:36:08.941Z</time>
      </trkpt>
      <trkpt lat="46.98778" lon="8.70898">
        <ele>563</ele>
        <time>2021-08-04T10:36:09.941Z</time>
      </trkpt>
      <trkpt lat="46.98784" lon="8.7088">
        <ele>563</ele>
        <time>2021-08-04T10:36:10.941Z</time>
      </trkpt>
      <trkpt lat="46.9879" lon="8.70861">
        <ele>562</ele>
        <time>2021-08-04T10:36:11.940Z</time>
      </trkpt>
      <trkpt lat="46.98796" lon="8.70842">
        <ele>562</ele>
        <time>2021-08-04T10:36:12.941Z</time>
      </trkpt>
      <trkpt lat="46.98802" lon="8.70823">
        <ele>562</ele>
        <time>2021-08-04T10:36:13.940Z</time>
      </trkpt>
      <trkpt lat="46.98807" lon="8.70805">
        <ele>562</ele>
        <time>2021-08-04T10:36:14.940Z</time>
      </trkpt>
      <trkpt lat="46.98812" lon="8.70785">
        <ele>561</ele>
        <time>2021-08-04T10:36:15.941Z</time>
      </trkpt>
      <trkpt lat="46.98817" lon="8.70767">
        <ele>561</ele>
        <time>2021-08-04T10:36:16.941Z</time>
      </trkpt>
      <trkpt lat="46.98822" lon="8.70747">
        <ele>561</ele>
        <time>2021-08-04T10:36:17.940Z</time>
      </trkpt>
      <trkpt lat="46.98827" lon="8.70728">
        <ele>561</ele>
        <time>2021-08-04T10:36:18.941Z</time>
      </trkpt>
      <trkpt lat="46.98833" lon="8.70709">
        <ele>561</ele>
        <time>2021-08-04T10:36:19.941Z</time>
      </trkpt>
      <trkpt lat="46.98837" lon="8.70693">
        <ele>561</ele>
        <time>2021-08-04T10:36:20.940Z</time>
      </trkpt>
      <trkpt lat="46.98844" lon="8.7067">
        <ele>560</ele>
        <time>2021-08-04T10:36:21.941Z</time>
      </trkpt>
      <trkpt lat="46.98848" lon="8.70651">
        <ele>560</ele>
        <time>2021-08-04T10:36:22.941Z</time>
      </trkpt>
      <trkpt lat="46.98853" lon="8.70632">
        <ele>560</ele>
        <time>2021-08-04T10:36:23.941Z</time>
      </trkpt>
      <trkpt lat="46.98858" lon="8.70617">
        <ele>559</ele>
        <time>2021-08-04T10:36:24.941Z</time>
      </trkpt>
      <trkpt lat="46.98864" lon="8.70595">
        <ele>559</ele>
        <time>2021-08-04T10:36:25.941Z</time>
      </trkpt>
      <trkpt lat="46.9887" lon="8.70577">
        <ele>558</ele>
        <time>2021-08-04T10:36:26.940Z</time>
      </trkpt>
      <trkpt lat="46.98874" lon="8.70559">
        <ele>558</ele>
        <time>2021-08-04T10:36:27.940Z</time>
      </trkpt>
      <trkpt lat="46.98879" lon="8.70542">
        <ele>557</ele>
        <time>2021-08-04T10:36:28.941Z</time>
      </trkpt>
      <trkpt lat="46.98882" lon="8.70525">
        <ele>557</ele>
        <time>2021-08-04T10:36:29.940Z</time>
      </trkpt>
      <trkpt lat="46.98886" lon="8.70508">
        <ele>557</ele>
        <time>2021-08-04T10:36:30.941Z</time>
      </trkpt>
      <trkpt lat="46.9889" lon="8.70491">
        <ele>557</ele>
        <time>2021-08-04T10:36:31.941Z</time>
      </trkpt>
      <trkpt lat="46.98894" lon="8.70474">
        <ele>557</ele>
        <time>2021-08-04T10:36:32.940Z</time>
      </trkpt>
      <trkpt lat="46.98898" lon="8.70456">
        <ele>556</ele>
        <time>2021-08-04T10:36:33.940Z</time>
      </trkpt>
      <trkpt lat="46.98901" lon="8.70442">
        <ele>556</ele>
        <time>2021-08-04T10:36:34.941Z</time>
      </trkpt>
      <trkpt lat="46.98906" lon="8.70423">
        <ele>555</ele>
        <time>2021-08-04T10:36:35.940Z</time>
      </trkpt>
      <trkpt lat="46.9891" lon="8.70406">
        <ele>555</ele>
        <time>2021-08-04T10:36:36.941Z</time>
      </trkpt>
      <trkpt lat="46.98914" lon="8.7039">
        <ele>555</ele>
        <time>2021-08-04T10:36:37.941Z</time>
      </trkpt>
      <trkpt lat="46.98919" lon="8.70373">
        <ele>555</ele>
        <time>2021-08-04T10:36:38.941Z</time>
      </trkpt>
      <trkpt lat="46.98923" lon="8.70357">
        <ele>555</ele>
        <time>2021-08-04T10:36:39.941Z</time>
      </trkpt>
      <trkpt lat="46.98927" lon="8.7034">
        <ele>555</ele>
        <time>2021-08-04T10:36:40.940Z</time>
      </trkpt>
      <trkpt lat="46.98932" lon="8.70324">
        <ele>555</ele>
        <time>2021-08-04T10:36:41.940Z</time>
      </trkpt>
      <trkpt lat="46.98936" lon="8.70307">
        <ele>556</ele>
        <time>2021-08-04T10:36:42.941Z</time>
      </trkpt>
      <trkpt lat="46.9894" lon="8.7029">
        <ele>556</ele>
        <time>2021-08-04T10:36:43.941Z</time>
      </trkpt>
      <trkpt lat="46.98944" lon="8.70274">
        <ele>557</ele>
        <time>2021-08-04T10:36:44.941Z</time>
      </trkpt>
      <trkpt lat="46.98948" lon="8.70255">
        <ele>557</ele>
        <time>2021-08-04T10:36:45.941Z</time>
      </trkpt>
      <trkpt lat="46.98951" lon="8.70236">
        <ele>557</ele>
        <time>2021-08-04T10:36:46.940Z</time>
      </trkpt>
      <trkpt lat="46.98954" lon="8.70217">
        <ele>556</ele>
        <time>2021-08-04T10:36:47.940Z</time>
      </trkpt>
      <trkpt lat="46.98958" lon="8.70198">
        <ele>556</ele>
        <time>2021-08-04T10:36:48.941Z</time>
      </trkpt>
      <trkpt lat="46.98961" lon="8.70179">
        <ele>556</ele>
        <time>2021-08-04T10:36:49.941Z</time>
      </trkpt>
      <trkpt lat="46.98964" lon="8.7016">
        <ele>556</ele>
        <time>2021-08-04T10:36:50.940Z</time>
      </trkpt>
      <trkpt lat="46.98967" lon="8.70142">
        <ele>556</ele>
        <time>2021-08-04T10:36:51.941Z</time>
      </trkpt>
      <trkpt lat="46.98969" lon="8.70122">
        <ele>556</ele>
        <time>2021-08-04T10:36:52.941Z</time>
      </trkpt>
      <trkpt lat="46.98972" lon="8.70102">
        <ele>556</ele>
        <time>2021-08-04T10:36:53.941Z</time>
      </trkpt>
      <trkpt lat="46.98975" lon="8.70082">
        <ele>556</ele>
        <time>2021-08-04T10:36:54.941Z</time>
      </trkpt>
      <trkpt lat="46.98978" lon="8.70062">
        <ele>555</ele>
        <time>2021-08-04T10:36:55.941Z</time>
      </trkpt>
      <trkpt lat="46.98981" lon="8.70042">
        <ele>556</ele>
        <time>2021-08-04T10:36:56.941Z</time>
      </trkpt>
      <trkpt lat="46.98985" lon="8.70022">
        <ele>556</ele>
        <time>2021-08-04T10:36:57.940Z</time>
      </trkpt>
      <trkpt lat="46.98988" lon="8.70002">
        <ele>556</ele>
        <time>2021-08-04T10:36:58.941Z</time>
      </trkpt>
      <trkpt lat="46.98992" lon="8.69982">
        <ele>556</ele>
        <time>2021-08-04T10:36:59.941Z</time>
      </trkpt>
      <trkpt lat="46.98996" lon="8.69963">
        <ele>556</ele>
        <time>2021-08-04T10:37:00.941Z</time>
      </trkpt>
      <trkpt lat="46.99" lon="8.69944">
        <ele>557</ele>
        <time>2021-08-04T10:37:01.941Z</time>
      </trkpt>
      <trkpt lat="46.99005" lon="8.69925">
        <ele>557</ele>
        <time>2021-08-04T10:37:02.941Z</time>
      </trkpt>
      <trkpt lat="46.9901" lon="8.69905">
        <ele>557</ele>
        <time>2021-08-04T10:37:03.941Z</time>
      </trkpt>
      <trkpt lat="46.99017" lon="8.69886">
        <ele>557</ele>
        <time>2021-08-04T10:37:04.941Z</time>
      </trkpt>
      <trkpt lat="46.99023" lon="8.69867">
        <ele>558</ele>
        <time>2021-08-04T10:37:05.941Z</time>
      </trkpt>
      <trkpt lat="46.99029" lon="8.69852">
        <ele>558</ele>
        <time>2021-08-04T10:37:06.941Z</time>
      </trkpt>
      <trkpt lat="46.99036" lon="8.69829">
        <ele>558</ele>
        <time>2021-08-04T10:37:07.940Z</time>
      </trkpt>
      <trkpt lat="46.99042" lon="8.6981">
        <ele>558</ele>
        <time>2021-08-04T10:37:08.941Z</time>
      </trkpt>
      <trkpt lat="46.99048" lon="8.69792">
        <ele>558</ele>
        <time>2021-08-04T10:37:09.940Z</time>
      </trkpt>
      <trkpt lat="46.99054" lon="8.69773">
        <ele>558</ele>
        <time>2021-08-04T10:37:10.940Z</time>
      </trkpt>
      <trkpt lat="46.9906" lon="8.69753">
        <ele>558</ele>
        <time>2021-08-04T10:37:11.941Z</time>
      </trkpt>
      <trkpt lat="46.99066" lon="8.69734">
        <ele>559</ele>
        <time>2021-08-04T10:37:12.940Z</time>
      </trkpt>
      <trkpt lat="46.99072" lon="8.69715">
        <ele>559</ele>
        <time>2021-08-04T10:37:13.941Z</time>
      </trkpt>
      <trkpt lat="46.99078" lon="8.69696">
        <ele>559</ele>
        <time>2021-08-04T10:37:14.941Z</time>
      </trkpt>
      <trkpt lat="46.99084" lon="8.69679">
        <ele>560</ele>
        <time>2021-08-04T10:37:15.941Z</time>
      </trkpt>
      <trkpt lat="46.99091" lon="8.6966">
        <ele>560</ele>
        <time>2021-08-04T10:37:16.940Z</time>
      </trkpt>
      <trkpt lat="46.99096" lon="8.69642">
        <ele>560</ele>
        <time>2021-08-04T10:37:17.941Z</time>
      </trkpt>
      <trkpt lat="46.99101" lon="8.69625">
        <ele>561</ele>
        <time>2021-08-04T10:37:18.941Z</time>
      </trkpt>
      <trkpt lat="46.99107" lon="8.69607">
        <ele>561</ele>
        <time>2021-08-04T10:37:19.941Z</time>
      </trkpt>
      <trkpt lat="46.99113" lon="8.69589">
        <ele>562</ele>
        <time>2021-08-04T10:37:20.941Z</time>
      </trkpt>
      <trkpt lat="46.99118" lon="8.69571">
        <ele>562</ele>
        <time>2021-08-04T10:37:21.941Z</time>
      </trkpt>
      <trkpt lat="46.99124" lon="8.69553">
        <ele>563</ele>
        <time>2021-08-04T10:37:22.940Z</time>
      </trkpt>
      <trkpt lat="46.99129" lon="8.69536">
        <ele>563</ele>
        <time>2021-08-04T10:37:23.941Z</time>
      </trkpt>
      <trkpt lat="46.99135" lon="8.69519">
        <ele>564</ele>
        <time>2021-08-04T10:37:24.941Z</time>
      </trkpt>
      <trkpt lat="46.9914" lon="8.69501">
        <ele>564</ele>
        <time>2021-08-04T10:37:25.941Z</time>
      </trkpt>
      <trkpt lat="46.99145" lon="8.69484">
        <ele>565</ele>
        <time>2021-08-04T10:37:26.940Z</time>
      </trkpt>
      <trkpt lat="46.99151" lon="8.69466">
        <ele>565</ele>
        <time>2021-08-04T10:37:27.940Z</time>
      </trkpt>
      <trkpt lat="46.99157" lon="8.69449">
        <ele>566</ele>
        <time>2021-08-04T10:37:28.940Z</time>
      </trkpt>
      <trkpt lat="46.99162" lon="8.69431">
        <ele>567</ele>
        <time>2021-08-04T10:37:29.940Z</time>
      </trkpt>
      <trkpt lat="46.99168" lon="8.69414">
        <ele>567</ele>
        <time>2021-08-04T10:37:30.941Z</time>
      </trkpt>
      <trkpt lat="46.99174" lon="8.69397">
        <ele>568</ele>
        <time>2021-08-04T10:37:31.940Z</time>
      </trkpt>
      <trkpt lat="46.99179" lon="8.69379">
        <ele>569</ele>
        <time>2021-08-04T10:37:32.941Z</time>
      </trkpt>
      <trkpt lat="46.99183" lon="8.69361">
        <ele>569</ele>
        <time>2021-08-04T10:37:33.940Z</time>
      </trkpt>
      <trkpt lat="46.99188" lon="8.69342">
        <ele>570</ele>
        <time>2021-08-04T10:37:34.940Z</time>
      </trkpt>
      <trkpt lat="46.99192" lon="8.69323">
        <ele>571</ele>
        <time>2021-08-04T10:37:35.940Z</time>
      </trkpt>
      <trkpt lat="46.99197" lon="8.69304">
        <ele>571</ele>
        <time>2021-08-04T10:37:36.941Z</time>
      </trkpt>
      <trkpt lat="46.992" lon="8.69284">
        <ele>572</ele>
        <time>2021-08-04T10:37:37.941Z</time>
      </trkpt>
      <trkpt lat="46.99202" lon="8.69262">
        <ele>572</ele>
        <time>2021-08-04T10:37:38.940Z</time>
      </trkpt>
      <trkpt lat="46.99204" lon="8.6924">
        <ele>572</ele>
        <time>2021-08-04T10:37:39.940Z</time>
      </trkpt>
      <trkpt lat="46.99206" lon="8.69218">
        <ele>573</ele>
        <time>2021-08-04T10:37:40.941Z</time>
      </trkpt>
      <trkpt lat="46.99208" lon="8.69196">
        <ele>573</ele>
        <time>2021-08-04T10:37:46.041Z</time>
      </trkpt>
      <trkpt lat="46.9921" lon="8.69175">
        <ele>573</ele>
        <time>2021-08-04T10:37:47.041Z</time>
      </trkpt>
      <trkpt lat="46.99212" lon="8.69153">
        <ele>573</ele>
        <time>2021-08-04T10:37:48.040Z</time>
      </trkpt>
      <trkpt lat="46.99213" lon="8.69132">
        <ele>573</ele>
        <time>2021-08-04T10:37:49.041Z</time>
      </trkpt>
      <trkpt lat="46.99215" lon="8.69109">
        <ele>573</ele>
        <time>2021-08-04T10:37:50.040Z</time>
      </trkpt>
      <trkpt lat="46.99215" lon="8.69087">
        <ele>573</ele>
        <time>2021-08-04T10:37:51.041Z</time>
      </trkpt>
      <trkpt lat="46.99216" lon="8.69065">
        <ele>573</ele>
        <time>2021-08-04T10:37:52.041Z</time>
      </trkpt>
      <trkpt lat="46.99217" lon="8.69044">
        <ele>573</ele>
        <time>2021-08-04T10:37:53.041Z</time>
      </trkpt>
      <trkpt lat="46.99217" lon="8.69023">
        <ele>573</ele>
        <time>2021-08-04T10:37:54.040Z</time>
      </trkpt>
      <trkpt lat="46.99218" lon="8.69003">
        <ele>573</ele>
        <time>2021-08-04T10:37:55.041Z</time>
      </trkpt>
      <trkpt lat="46.9922" lon="8.68983">
        <ele>573</ele>
        <time>2021-08-04T10:37:56.041Z</time>
      </trkpt>
      <trkpt lat="46.99221" lon="8.68963">
        <ele>574</ele>
        <time>2021-08-04T10:37:57.041Z</time>
      </trkpt>
      <trkpt lat="46.99221" lon="8.68944">
        <ele>574</ele>
        <time>2021-08-04T10:37:58.041Z</time>
      </trkpt>
      <trkpt lat="46.99222" lon="8.68926">
        <ele>574</ele>
        <time>2021-08-04T10:37:59.041Z</time>
      </trkpt>
      <trkpt lat="46.99222" lon="8.6891">
        <ele>573</ele>
        <time>2021-08-04T10:38:00.041Z</time>
      </trkpt>
      <trkpt lat="46.99222" lon="8.68894">
        <ele>573</ele>
        <time>2021-08-04T10:38:01.040Z</time>
      </trkpt>
      <trkpt lat="46.99224" lon="8.68877">
        <ele>573</ele>
        <time>2021-08-04T10:38:02.041Z</time>
      </trkpt>
      <trkpt lat="46.99226" lon="8.68859">
        <ele>573</ele>
        <time>2021-08-04T10:38:03.040Z</time>
      </trkpt>
      <trkpt lat="46.99228" lon="8.68842">
        <ele>573</ele>
        <time>2021-08-04T10:38:04.041Z</time>
      </trkpt>
      <trkpt lat="46.9923" lon="8.68823">
        <ele>573</ele>
        <time>2021-08-04T10:38:05.040Z</time>
      </trkpt>
      <trkpt lat="46.99232" lon="8.68805">
        <ele>573</ele>
        <time>2021-08-04T10:38:06.040Z</time>
      </trkpt>
      <trkpt lat="46.99235" lon="8.68787">
        <ele>572</ele>
        <time>2021-08-04T10:38:07.041Z</time>
      </trkpt>
      <trkpt lat="46.99238" lon="8.68768">
        <ele>572</ele>
        <time>2021-08-04T10:38:08.041Z</time>
      </trkpt>
      <trkpt lat="46.99241" lon="8.6875">
        <ele>572</ele>
        <time>2021-08-04T10:38:09.041Z</time>
      </trkpt>
      <trkpt lat="46.99243" lon="8.68731">
        <ele>572</ele>
        <time>2021-08-04T10:38:10.041Z</time>
      </trkpt>
      <trkpt lat="46.99245" lon="8.68712">
        <ele>571</ele>
        <time>2021-08-04T10:38:11.041Z</time>
      </trkpt>
      <trkpt lat="46.99247" lon="8.68694">
        <ele>571</ele>
        <time>2021-08-04T10:38:12.041Z</time>
      </trkpt>
      <trkpt lat="46.99248" lon="8.68675">
        <ele>571</ele>
        <time>2021-08-04T10:38:13.040Z</time>
      </trkpt>
      <trkpt lat="46.99248" lon="8.68658">
        <ele>570</ele>
        <time>2021-08-04T10:38:14.040Z</time>
      </trkpt>
      <trkpt lat="46.99247" lon="8.68639">
        <ele>570</ele>
        <time>2021-08-04T10:38:15.041Z</time>
      </trkpt>
      <trkpt lat="46.99244" lon="8.6862">
        <ele>570</ele>
        <time>2021-08-04T10:38:16.041Z</time>
      </trkpt>
      <trkpt lat="46.99241" lon="8.68601">
        <ele>570</ele>
        <time>2021-08-04T10:38:17.041Z</time>
      </trkpt>
      <trkpt lat="46.99238" lon="8.68583">
        <ele>569</ele>
        <time>2021-08-04T10:38:18.041Z</time>
      </trkpt>
      <trkpt lat="46.99234" lon="8.68566">
        <ele>569</ele>
        <time>2021-08-04T10:38:19.040Z</time>
      </trkpt>
      <trkpt lat="46.99231" lon="8.68549">
        <ele>569</ele>
        <time>2021-08-04T10:38:20.041Z</time>
      </trkpt>
      <trkpt lat="46.99226" lon="8.68532">
        <ele>569</ele>
        <time>2021-08-04T10:38:21.040Z</time>
      </trkpt>
      <trkpt lat="46.99222" lon="8.68512">
        <ele>568</ele>
        <time>2021-08-04T10:38:22.041Z</time>
      </trkpt>
      <trkpt lat="46.9922" lon="8.68492">
        <ele>568</ele>
        <time>2021-08-04T10:38:23.041Z</time>
      </trkpt>
      <trkpt lat="46.99219" lon="8.68476">
        <ele>568</ele>
        <time>2021-08-04T10:38:24.040Z</time>
      </trkpt>
      <trkpt lat="46.99219" lon="8.68451">
        <ele>567</ele>
        <time>2021-08-04T10:38:25.040Z</time>
      </trkpt>
      <trkpt lat="46.9922" lon="8.68431">
        <ele>567</ele>
        <time>2021-08-04T10:38:26.041Z</time>
      </trkpt>
      <trkpt lat="46.99221" lon="8.68409">
        <ele>566</ele>
        <time>2021-08-04T10:38:27.041Z</time>
      </trkpt>
      <trkpt lat="46.99222" lon="8.68388">
        <ele>565</ele>
        <time>2021-08-04T10:38:28.041Z</time>
      </trkpt>
      <trkpt lat="46.99223" lon="8.68371">
        <ele>564</ele>
        <time>2021-08-04T10:38:29.041Z</time>
      </trkpt>
      <trkpt lat="46.99224" lon="8.68346">
        <ele>564</ele>
        <time>2021-08-04T10:38:30.040Z</time>
      </trkpt>
      <trkpt lat="46.99226" lon="8.68324">
        <ele>563</ele>
        <time>2021-08-04T10:38:31.040Z</time>
      </trkpt>
      <trkpt lat="46.99227" lon="8.68303">
        <ele>562</ele>
        <time>2021-08-04T10:38:32.040Z</time>
      </trkpt>
      <trkpt lat="46.99228" lon="8.68282">
        <ele>562</ele>
        <time>2021-08-04T10:38:33.041Z</time>
      </trkpt>
      <trkpt lat="46.9923" lon="8.68261">
        <ele>561</ele>
        <time>2021-08-04T10:38:34.040Z</time>
      </trkpt>
      <trkpt lat="46.99231" lon="8.68239">
        <ele>560</ele>
        <time>2021-08-04T10:38:35.041Z</time>
      </trkpt>
      <trkpt lat="46.99232" lon="8.68216">
        <ele>560</ele>
        <time>2021-08-04T10:38:36.040Z</time>
      </trkpt>
      <trkpt lat="46.99232" lon="8.68198">
        <ele>559</ele>
        <time>2021-08-04T10:38:37.041Z</time>
      </trkpt>
      <trkpt lat="46.99233" lon="8.68176">
        <ele>559</ele>
        <time>2021-08-04T10:38:38.040Z</time>
      </trkpt>
      <trkpt lat="46.99234" lon="8.68149">
        <ele>558</ele>
        <time>2021-08-04T10:38:39.040Z</time>
      </trkpt>
      <trkpt lat="46.99234" lon="8.68127">
        <ele>558</ele>
        <time>2021-08-04T10:38:40.041Z</time>
      </trkpt>
      <trkpt lat="46.99234" lon="8.68105">
        <ele>558</ele>
        <time>2021-08-04T10:38:41.040Z</time>
      </trkpt>
      <trkpt lat="46.99234" lon="8.68088">
        <ele>558</ele>
        <time>2021-08-04T10:38:42.041Z</time>
      </trkpt>
      <trkpt lat="46.99235" lon="8.68068">
        <ele>557</ele>
        <time>2021-08-04T10:38:43.040Z</time>
      </trkpt>
      <trkpt lat="46.99236" lon="8.68045">
        <ele>557</ele>
        <time>2021-08-04T10:38:44.041Z</time>
      </trkpt>
      <trkpt lat="46.99237" lon="8.68027">
        <ele>557</ele>
        <time>2021-08-04T10:38:45.041Z</time>
      </trkpt>
      <trkpt lat="46.99237" lon="8.6801">
        <ele>557</ele>
        <time>2021-08-04T10:38:46.041Z</time>
      </trkpt>
      <trkpt lat="46.99237" lon="8.67996">
        <ele>557</ele>
        <time>2021-08-04T10:38:47.041Z</time>
      </trkpt>
      <trkpt lat="46.99238" lon="8.67983">
        <ele>557</ele>
        <time>2021-08-04T10:38:48.041Z</time>
      </trkpt>
      <trkpt lat="46.99239" lon="8.67972">
        <ele>557</ele>
        <time>2021-08-04T10:38:49.040Z</time>
      </trkpt>
      <trkpt lat="46.9924" lon="8.67962">
        <ele>556</ele>
        <time>2021-08-04T10:38:50.040Z</time>
      </trkpt>
      <trkpt lat="46.99241" lon="8.67956">
        <ele>556</ele>
        <time>2021-08-04T10:38:51.041Z</time>
      </trkpt>
      <trkpt lat="46.99242" lon="8.6795">
        <ele>556</ele>
        <time>2021-08-04T10:38:52.041Z</time>
      </trkpt>
      <trkpt lat="46.99242" lon="8.67945">
        <ele>556</ele>
        <time>2021-08-04T10:38:53.040Z</time>
      </trkpt>
      <trkpt lat="46.99243" lon="8.67942">
        <ele>556</ele>
        <time>2021-08-04T10:38:54.041Z</time>
      </trkpt>
      <trkpt lat="46.99243" lon="8.67941">
        <ele>555</ele>
        <time>2021-08-04T10:38:55.040Z</time>
      </trkpt>
      <trkpt lat="46.99243" lon="8.6794">
        <ele>555</ele>
        <time>2021-08-04T10:38:56.040Z</time>
      </trkpt>
      <trkpt lat="46.99243" lon="8.67939">
        <ele>555</ele>
        <time>2021-08-04T10:38:57.040Z</time>
      </trkpt>
      <trkpt lat="46.99243" lon="8.6794">
        <ele>555</ele>
        <time>2021-08-04T10:38:58.040Z</time>
      </trkpt>
      <trkpt lat="46.99243" lon="8.67939">
        <ele>554</ele>
        <time>2021-08-04T10:38:59.040Z</time>
      </trkpt>
      <trkpt lat="46.99243" lon="8.67941">
        <ele>554</ele>
        <time>2021-08-04T10:39:00.040Z</time>
      </trkpt>
      <trkpt lat="46.99244" lon="8.67943">
        <ele>554</ele>
        <time>2021-08-04T10:39:01.041Z</time>
      </trkpt>
      <trkpt lat="46.99244" lon="8.67945">
        <ele>553</ele>
        <time>2021-08-04T10:39:02.040Z</time>
      </trkpt>
      <trkpt lat="46.99244" lon="8.67944">
        <ele>553</ele>
        <time>2021-08-04T10:39:03.042Z</time>
      </trkpt>
      <trkpt lat="46.99244" lon="8.67942">
        <ele>553</ele>
        <time>2021-08-04T10:39:04.042Z</time>
      </trkpt>
      <trkpt lat="46.99243" lon="8.6794">
        <ele>553</ele>
        <time>2021-08-04T10:39:05.042Z</time>
      </trkpt>
      <trkpt lat="46.99244" lon="8.67935">
        <ele>553</ele>
        <time>2021-08-04T10:39:06.042Z</time>
      </trkpt>
      <trkpt lat="46.99244" lon="8.67929">
        <ele>553</ele>
        <time>2021-08-04T10:39:07.042Z</time>
      </trkpt>
      <trkpt lat="46.99245" lon="8.67922">
        <ele>553</ele>
        <time>2021-08-04T10:39:08.041Z</time>
      </trkpt>
      <trkpt lat="46.99245" lon="8.67912">
        <ele>554</ele>
        <time>2021-08-04T10:39:09.042Z</time>
      </trkpt>
      <trkpt lat="46.99245" lon="8.67902">
        <ele>554</ele>
        <time>2021-08-04T10:39:10.042Z</time>
      </trkpt>
      <trkpt lat="46.99245" lon="8.67892">
        <ele>554</ele>
        <time>2021-08-04T10:39:11.042Z</time>
      </trkpt>
      <trkpt lat="46.99245" lon="8.67883">
        <ele>554</ele>
        <time>2021-08-04T10:39:12.042Z</time>
      </trkpt>
      <trkpt lat="46.99246" lon="8.67867">
        <ele>555</ele>
        <time>2021-08-04T10:39:13.041Z</time>
      </trkpt>
      <trkpt lat="46.99246" lon="8.67853">
        <ele>555</ele>
        <time>2021-08-04T10:39:14.041Z</time>
      </trkpt>
      <trkpt lat="46.99246" lon="8.67837">
        <ele>555</ele>
        <time>2021-08-04T10:39:15.042Z</time>
      </trkpt>
      <trkpt lat="46.99246" lon="8.6782">
        <ele>555</ele>
        <time>2021-08-04T10:39:16.041Z</time>
      </trkpt>
      <trkpt lat="46.99245" lon="8.67804">
        <ele>555</ele>
        <time>2021-08-04T10:39:17.042Z</time>
      </trkpt>
      <trkpt lat="46.99243" lon="8.67789">
        <ele>555</ele>
        <time>2021-08-04T10:39:18.042Z</time>
      </trkpt>
      <trkpt lat="46.9924" lon="8.67772">
        <ele>555</ele>
        <time>2021-08-04T10:39:19.042Z</time>
      </trkpt>
      <trkpt lat="46.99237" lon="8.67755">
        <ele>555</ele>
        <time>2021-08-04T10:39:20.042Z</time>
      </trkpt>
      <trkpt lat="46.99235" lon="8.67739">
        <ele>555</ele>
        <time>2021-08-04T10:39:21.041Z</time>
      </trkpt>
      <trkpt lat="46.99232" lon="8.67724">
        <ele>555</ele>
        <time>2021-08-04T10:39:22.042Z</time>
      </trkpt>
      <trkpt lat="46.99229" lon="8.67709">
        <ele>555</ele>
        <time>2021-08-04T10:39:23.042Z</time>
      </trkpt>
      <trkpt lat="46.99226" lon="8.67694">
        <ele>555</ele>
        <time>2021-08-04T10:39:24.042Z</time>
      </trkpt>
      <trkpt lat="46.99222" lon="8.6768">
        <ele>556</ele>
        <time>2021-08-04T10:39:25.041Z</time>
      </trkpt>
      <trkpt lat="46.99219" lon="8.67665">
        <ele>556</ele>
        <time>2021-08-04T10:39:26.042Z</time>
      </trkpt>
      <trkpt lat="46.99217" lon="8.67651">
        <ele>557</ele>
        <time>2021-08-04T10:39:27.042Z</time>
      </trkpt>
      <trkpt lat="46.99215" lon="8.67637">
        <ele>557</ele>
        <time>2021-08-04T10:39:28.041Z</time>
      </trkpt>
      <trkpt lat="46.99214" lon="8.67624">
        <ele>557</ele>
        <time>2021-08-04T10:39:29.042Z</time>
      </trkpt>
      <trkpt lat="46.99213" lon="8.6761">
        <ele>557</ele>
        <time>2021-08-04T10:39:30.042Z</time>
      </trkpt>
      <trkpt lat="46.99214" lon="8.67596">
        <ele>557</ele>
        <time>2021-08-04T10:39:31.042Z</time>
      </trkpt>
      <trkpt lat="46.99215" lon="8.67581">
        <ele>558</ele>
        <time>2021-08-04T10:39:32.041Z</time>
      </trkpt>
      <trkpt lat="46.99218" lon="8.67568">
        <ele>558</ele>
        <time>2021-08-04T10:39:33.041Z</time>
      </trkpt>
      <trkpt lat="46.99222" lon="8.67555">
        <ele>558</ele>
        <time>2021-08-04T10:39:34.042Z</time>
      </trkpt>
      <trkpt lat="46.99226" lon="8.67542">
        <ele>558</ele>
        <time>2021-08-04T10:39:35.041Z</time>
      </trkpt>
      <trkpt lat="46.99231" lon="8.67529">
        <ele>558</ele>
        <time>2021-08-04T10:39:36.041Z</time>
      </trkpt>
      <trkpt lat="46.99236" lon="8.67515">
        <ele>558</ele>
        <time>2021-08-04T10:39:37.042Z</time>
      </trkpt>
      <trkpt lat="46.99241" lon="8.67502">
        <ele>558</ele>
        <time>2021-08-04T10:39:38.042Z</time>
      </trkpt>
      <trkpt lat="46.99245" lon="8.67489">
        <ele>559</ele>
        <time>2021-08-04T10:39:39.042Z</time>
      </trkpt>
      <trkpt lat="46.99248" lon="8.67477">
        <ele>559</ele>
        <time>2021-08-04T10:39:40.042Z</time>
      </trkpt>
      <trkpt lat="46.99252" lon="8.67463">
        <ele>559</ele>
        <time>2021-08-04T10:39:41.042Z</time>
      </trkpt>
      <trkpt lat="46.99255" lon="8.67449">
        <ele>560</ele>
        <time>2021-08-04T10:39:42.042Z</time>
      </trkpt>
      <trkpt lat="46.99257" lon="8.67432">
        <ele>560</ele>
        <time>2021-08-04T10:39:43.042Z</time>
      </trkpt>
      <trkpt lat="46.99256" lon="8.67416">
        <ele>560</ele>
        <time>2021-08-04T10:39:44.042Z</time>
      </trkpt>
      <trkpt lat="46.99254" lon="8.67399">
        <ele>560</ele>
        <time>2021-08-04T10:39:45.041Z</time>
      </trkpt>
      <trkpt lat="46.9925" lon="8.67382">
        <ele>560</ele>
        <time>2021-08-04T10:39:46.042Z</time>
      </trkpt>
      <trkpt lat="46.99244" lon="8.67366">
        <ele>560</ele>
        <time>2021-08-04T10:39:47.042Z</time>
      </trkpt>
      <trkpt lat="46.99237" lon="8.67353">
        <ele>560</ele>
        <time>2021-08-04T10:39:48.041Z</time>
      </trkpt>
      <trkpt lat="46.9923" lon="8.67342">
        <ele>560</ele>
        <time>2021-08-04T10:39:49.042Z</time>
      </trkpt>
      <trkpt lat="46.99223" lon="8.67335">
        <ele>560</ele>
        <time>2021-08-04T10:39:50.041Z</time>
      </trkpt>
      <trkpt lat="46.99213" lon="8.67326">
        <ele>560</ele>
        <time>2021-08-04T10:39:51.042Z</time>
      </trkpt>
      <trkpt lat="46.99204" lon="8.6732">
        <ele>559</ele>
        <time>2021-08-04T10:39:52.041Z</time>
      </trkpt>
      <trkpt lat="46.99195" lon="8.67315">
        <ele>559</ele>
        <time>2021-08-04T10:39:53.042Z</time>
      </trkpt>
      <trkpt lat="46.99187" lon="8.67309">
        <ele>560</ele>
        <time>2021-08-04T10:39:54.042Z</time>
      </trkpt>
      <trkpt lat="46.99181" lon="8.67305">
        <ele>560</ele>
        <time>2021-08-04T10:39:55.042Z</time>
      </trkpt>
      <trkpt lat="46.99175" lon="8.673">
        <ele>560</ele>
        <time>2021-08-04T10:39:56.041Z</time>
      </trkpt>
      <trkpt lat="46.99169" lon="8.67294">
        <ele>560</ele>
        <time>2021-08-04T10:39:57.042Z</time>
      </trkpt>
      <trkpt lat="46.99165" lon="8.67289">
        <ele>561</ele>
        <time>2021-08-04T10:39:58.042Z</time>
      </trkpt>
      <trkpt lat="46.99162" lon="8.67284">
        <ele>561</ele>
        <time>2021-08-04T10:39:59.041Z</time>
      </trkpt>
      <trkpt lat="46.99159" lon="8.67278">
        <ele>561</ele>
        <time>2021-08-04T10:40:00.041Z</time>
      </trkpt>
      <trkpt lat="46.99157" lon="8.67273">
        <ele>561</ele>
        <time>2021-08-04T10:40:01.041Z</time>
      </trkpt>
      <trkpt lat="46.99155" lon="8.67268">
        <ele>561</ele>
        <time>2021-08-04T10:40:02.041Z</time>
      </trkpt>
      <trkpt lat="46.99154" lon="8.67266">
        <ele>562</ele>
        <time>2021-08-04T10:40:03.041Z</time>
      </trkpt>
      <trkpt lat="46.99153" lon="8.67264">
        <ele>562</ele>
        <time>2021-08-04T10:40:04.042Z</time>
      </trkpt>
      <trkpt lat="46.99152" lon="8.67264">
        <ele>561</ele>
        <time>2021-08-04T10:40:05.041Z</time>
      </trkpt>
      <trkpt lat="46.99152" lon="8.67265">
        <ele>561</ele>
        <time>2021-08-04T10:40:06.042Z</time>
      </trkpt>
      <trkpt lat="46.99152" lon="8.67265">
        <ele>561</ele>
        <time>2021-08-04T10:40:07.041Z</time>
      </trkpt>
      <trkpt lat="46.9916" lon="8.67273">
        <ele>556</ele>
        <time>2021-08-04T10:40:09.043Z</time>
      </trkpt>
      <trkpt lat="46.9916" lon="8.67275">
        <ele>556</ele>
        <time>2021-08-04T10:40:10.044Z</time>
      </trkpt>
      <trkpt lat="46.9916" lon="8.67276">
        <ele>557</ele>
        <time>2021-08-04T10:40:11.044Z</time>
      </trkpt>
      <trkpt lat="46.9916" lon="8.67277">
        <ele>557</ele>
        <time>2021-08-04T10:40:12.044Z</time>
      </trkpt>
      <trkpt lat="46.99159" lon="8.67278">
        <ele>557</ele>
        <time>2021-08-04T10:40:13.043Z</time>
      </trkpt>
      <trkpt lat="46.99156" lon="8.67278">
        <ele>557</ele>
        <time>2021-08-04T10:40:14.044Z</time>
      </trkpt>
      <trkpt lat="46.99156" lon="8.67279">
        <ele>557</ele>
        <time>2021-08-04T10:40:15.043Z</time>
      </trkpt>
      <trkpt lat="46.99156" lon="8.67281">
        <ele>556</ele>
        <time>2021-08-04T10:40:16.043Z</time>
      </trkpt>
      <trkpt lat="46.99157" lon="8.67283">
        <ele>556</ele>
        <time>2021-08-04T10:40:17.044Z</time>
      </trkpt>
      <trkpt lat="46.99157" lon="8.67285">
        <ele>555</ele>
        <time>2021-08-04T10:40:18.044Z</time>
      </trkpt>
      <trkpt lat="46.99158" lon="8.67287">
        <ele>554</ele>
        <time>2021-08-04T10:40:19.043Z</time>
      </trkpt>
      <trkpt lat="46.99158" lon="8.67289">
        <ele>554</ele>
        <time>2021-08-04T10:40:20.043Z</time>
      </trkpt>
      <trkpt lat="46.99158" lon="8.6729">
        <ele>553</ele>
        <time>2021-08-04T10:40:21.043Z</time>
      </trkpt>
      <trkpt lat="46.99159" lon="8.67292">
        <ele>553</ele>
        <time>2021-08-04T10:40:22.044Z</time>
      </trkpt>
      <trkpt lat="46.99159" lon="8.67294">
        <ele>552</ele>
        <time>2021-08-04T10:40:23.044Z</time>
      </trkpt>
      <trkpt lat="46.9916" lon="8.67295">
        <ele>552</ele>
        <time>2021-08-04T10:40:24.043Z</time>
      </trkpt>
      <trkpt lat="46.9916" lon="8.67297">
        <ele>551</ele>
        <time>2021-08-04T10:40:25.044Z</time>
      </trkpt>
      <trkpt lat="46.99161" lon="8.67298">
        <ele>550</ele>
        <time>2021-08-04T10:40:26.043Z</time>
      </trkpt>
      <trkpt lat="46.99162" lon="8.673">
        <ele>550</ele>
        <time>2021-08-04T10:40:27.044Z</time>
      </trkpt>
      <trkpt lat="46.99162" lon="8.67302">
        <ele>549</ele>
        <time>2021-08-04T10:40:28.043Z</time>
      </trkpt>
      <trkpt lat="46.99163" lon="8.67304">
        <ele>548</ele>
        <time>2021-08-04T10:40:29.043Z</time>
      </trkpt>
      <trkpt lat="46.99164" lon="8.67305">
        <ele>547</ele>
        <time>2021-08-04T10:40:30.043Z</time>
      </trkpt>
      <trkpt lat="46.99164" lon="8.67308">
        <ele>547</ele>
        <time>2021-08-04T10:40:31.043Z</time>
      </trkpt>
      <trkpt lat="46.99164" lon="8.6731">
        <ele>546</ele>
        <time>2021-08-04T10:40:32.043Z</time>
      </trkpt>
      <trkpt lat="46.99165" lon="8.67312">
        <ele>546</ele>
        <time>2021-08-04T10:40:33.043Z</time>
      </trkpt>
      <trkpt lat="46.99166" lon="8.67312">
        <ele>546</ele>
        <time>2021-08-04T10:40:34.043Z</time>
      </trkpt>
      <trkpt lat="46.99166" lon="8.67312">
        <ele>545</ele>
        <time>2021-08-04T10:40:35.044Z</time>
      </trkpt>
      <trkpt lat="46.99167" lon="8.67311">
        <ele>545</ele>
        <time>2021-08-04T10:40:36.043Z</time>
      </trkpt>
      <trkpt lat="46.99167" lon="8.6731">
        <ele>544</ele>
        <time>2021-08-04T10:40:37.043Z</time>
      </trkpt>
      <trkpt lat="46.99168" lon="8.67308">
        <ele>544</ele>
        <time>2021-08-04T10:40:38.044Z</time>
      </trkpt>
      <trkpt lat="46.99168" lon="8.67307">
        <ele>544</ele>
        <time>2021-08-04T10:40:39.043Z</time>
      </trkpt>
      <trkpt lat="46.99169" lon="8.67307">
        <ele>544</ele>
        <time>2021-08-04T10:40:40.043Z</time>
      </trkpt>
      <trkpt lat="46.99169" lon="8.67306">
        <ele>544</ele>
        <time>2021-08-04T10:40:41.044Z</time>
      </trkpt>
      <trkpt lat="46.9917" lon="8.67305">
        <ele>544</ele>
        <time>2021-08-04T10:40:42.044Z</time>
      </trkpt>
      <trkpt lat="46.9917" lon="8.67305">
        <ele>545</ele>
        <time>2021-08-04T10:40:43.043Z</time>
      </trkpt>
      <trkpt lat="46.9917" lon="8.67306">
        <ele>545</ele>
        <time>2021-08-04T10:40:44.044Z</time>
      </trkpt>
      <trkpt lat="46.99171" lon="8.67306">
        <ele>545</ele>
        <time>2021-08-04T10:40:45.043Z</time>
      </trkpt>
      <trkpt lat="46.99171" lon="8.67306">
        <ele>544</ele>
        <time>2021-08-04T10:40:46.043Z</time>
      </trkpt>
      <trkpt lat="46.9917" lon="8.67307">
        <ele>544</ele>
        <time>2021-08-04T10:40:47.043Z</time>
      </trkpt>
      <trkpt lat="46.9917" lon="8.67308">
        <ele>544</ele>
        <time>2021-08-04T10:40:48.044Z</time>
      </trkpt>
      <trkpt lat="46.99169" lon="8.67309">
        <ele>545</ele>
        <time>2021-08-04T10:40:49.043Z</time>
      </trkpt>
      <trkpt lat="46.99169" lon="8.6731">
        <ele>544</ele>
        <time>2021-08-04T10:40:50.043Z</time>
      </trkpt>
      <trkpt lat="46.99168" lon="8.67311">
        <ele>544</ele>
        <time>2021-08-04T10:40:51.043Z</time>
      </trkpt>
      <trkpt lat="46.99167" lon="8.67311">
        <ele>544</ele>
        <time>2021-08-04T10:40:52.043Z</time>
      </trkpt>
      <trkpt lat="46.99166" lon="8.67312">
        <ele>544</ele>
        <time>2021-08-04T10:40:53.043Z</time>
      </trkpt>
      <trkpt lat="46.99165" lon="8.67313">
        <ele>543</ele>
        <time>2021-08-04T10:40:54.044Z</time>
      </trkpt>
      <trkpt lat="46.99164" lon="8.67314">
        <ele>543</ele>
        <time>2021-08-04T10:40:55.043Z</time>
      </trkpt>
      <trkpt lat="46.99164" lon="8.67315">
        <ele>543</ele>
        <time>2021-08-04T10:40:56.044Z</time>
      </trkpt>
      <trkpt lat="46.99164" lon="8.67317">
        <ele>544</ele>
        <time>2021-08-04T10:40:57.043Z</time>
      </trkpt>
      <trkpt lat="46.99163" lon="8.67318">
        <ele>544</ele>
        <time>2021-08-04T10:40:58.043Z</time>
      </trkpt>
      <trkpt lat="46.99162" lon="8.6732">
        <ele>545</ele>
        <time>2021-08-04T10:40:59.043Z</time>
      </trkpt>
      <trkpt lat="46.9916" lon="8.67321">
        <ele>546</ele>
        <time>2021-08-04T10:41:00.043Z</time>
      </trkpt>
      <trkpt lat="46.99158" lon="8.67322">
        <ele>547</ele>
        <time>2021-08-04T10:41:01.043Z</time>
      </trkpt>
      <trkpt lat="46.99157" lon="8.67323">
        <ele>548</ele>
        <time>2021-08-04T10:41:02.043Z</time>
      </trkpt>
      <trkpt lat="46.99155" lon="8.67324">
        <ele>548</ele>
        <time>2021-08-04T10:41:04.144Z</time>
      </trkpt>
      <trkpt lat="46.99155" lon="8.67325">
        <ele>549</ele>
        <time>2021-08-04T10:41:05.143Z</time>
      </trkpt>
      <trkpt lat="46.99154" lon="8.67326">
        <ele>550</ele>
        <time>2021-08-04T10:41:06.143Z</time>
      </trkpt>
      <trkpt lat="46.99154" lon="8.67327">
        <ele>550</ele>
        <time>2021-08-04T10:41:07.144Z</time>
      </trkpt>
      <trkpt lat="46.99153" lon="8.67328">
        <ele>550</ele>
        <time>2021-08-04T10:41:08.144Z</time>
      </trkpt>
      <trkpt lat="46.99153" lon="8.67329">
        <ele>551</ele>
        <time>2021-08-04T10:41:09.143Z</time>
      </trkpt>
      <trkpt lat="46.99153" lon="8.67331">
        <ele>551</ele>
        <time>2021-08-04T10:41:10.144Z</time>
      </trkpt>
      <trkpt lat="46.99153" lon="8.67333">
        <ele>551</ele>
        <time>2021-08-04T10:41:11.143Z</time>
      </trkpt>
      <trkpt lat="46.99153" lon="8.67334">
        <ele>552</ele>
        <time>2021-08-04T10:41:12.144Z</time>
      </trkpt>
      <trkpt lat="46.99153" lon="8.67335">
        <ele>552</ele>
        <time>2021-08-04T10:41:13.143Z</time>
      </trkpt>
      <trkpt lat="46.99153" lon="8.67335">
        <ele>552</ele>
        <time>2021-08-04T10:41:14.144Z</time>
      </trkpt>
      <trkpt lat="46.99152" lon="8.67336">
        <ele>552</ele>
        <time>2021-08-04T10:41:15.143Z</time>
      </trkpt>
      <trkpt lat="46.99151" lon="8.67336">
        <ele>552</ele>
        <time>2021-08-04T10:41:16.143Z</time>
      </trkpt>
      <trkpt lat="46.99151" lon="8.67335">
        <ele>552</ele>
        <time>2021-08-04T10:41:17.143Z</time>
      </trkpt>
      <trkpt lat="46.9915" lon="8.67335">
        <ele>552</ele>
        <time>2021-08-04T10:41:18.143Z</time>
      </trkpt>
      <trkpt lat="46.99149" lon="8.67335">
        <ele>553</ele>
        <time>2021-08-04T10:41:19.144Z</time>
      </trkpt>
      <trkpt lat="46.99148" lon="8.67335">
        <ele>553</ele>
        <time>2021-08-04T10:41:20.143Z</time>
      </trkpt>
      <trkpt lat="46.99148" lon="8.67335">
        <ele>553</ele>
        <time>2021-08-04T10:41:21.143Z</time>
      </trkpt>
      <trkpt lat="46.99148" lon="8.67334">
        <ele>553</ele>
        <time>2021-08-04T10:41:22.143Z</time>
      </trkpt>
      <trkpt lat="46.99148" lon="8.67334">
        <ele>554</ele>
        <time>2021-08-04T10:41:23.143Z</time>
      </trkpt>
      <trkpt lat="46.99149" lon="8.67335">
        <ele>554</ele>
        <time>2021-08-04T10:41:24.143Z</time>
      </trkpt>
      <trkpt lat="46.99149" lon="8.67335">
        <ele>554</ele>
        <time>2021-08-04T10:41:25.143Z</time>
      </trkpt>
      <trkpt lat="46.99149" lon="8.67337">
        <ele>554</ele>
        <time>2021-08-04T10:41:26.144Z</time>
      </trkpt>
      <trkpt lat="46.99149" lon="8.67337">
        <ele>554</ele>
        <time>2021-08-04T10:41:29.168Z</time>
      </trkpt>
      <trkpt lat="46.99149" lon="8.67338">
        <ele>554</ele>
        <time>2021-08-04T10:41:30.169Z</time>
      </trkpt>
      <trkpt lat="46.99149" lon="8.67338">
        <ele>555</ele>
        <time>2021-08-04T10:41:31.168Z</time>
      </trkpt>
      <trkpt lat="46.99149" lon="8.67338">
        <ele>555</ele>
        <time>2021-08-04T10:41:32.168Z</time>
      </trkpt>
      <trkpt lat="46.9915" lon="8.67341">
        <ele>556</ele>
        <time>2021-08-04T10:41:33.168Z</time>
      </trkpt>
      <trkpt lat="46.99149" lon="8.67341">
        <ele>556</ele>
        <time>2021-08-04T10:41:34.168Z</time>
      </trkpt>
      <trkpt lat="46.99149" lon="8.67341">
        <ele>557</ele>
        <time>2021-08-04T10:41:35.168Z</time>
      </trkpt>
      <trkpt lat="46.99149" lon="8.6734">
        <ele>557</ele>
        <time>2021-08-04T10:41:36.168Z</time>
      </trkpt>
      <trkpt lat="46.99149" lon="8.6734">
        <ele>557</ele>
        <time>2021-08-04T10:41:37.168Z</time>
      </trkpt>
      <trkpt lat="46.9915" lon="8.67339">
        <ele>557</ele>
        <time>2021-08-04T10:41:38.169Z</time>
      </trkpt>
      <trkpt lat="46.9915" lon="8.67338">
        <ele>558</ele>
        <time>2021-08-04T10:41:39.168Z</time>
      </trkpt>
      <trkpt lat="46.9915" lon="8.67335">
        <ele>558</ele>
        <time>2021-08-04T10:41:40.169Z</time>
      </trkpt>
      <trkpt lat="46.9915" lon="8.67333">
        <ele>558</ele>
        <time>2021-08-04T10:41:41.169Z</time>
      </trkpt>
      <trkpt lat="46.99151" lon="8.6733">
        <ele>558</ele>
        <time>2021-08-04T10:41:42.169Z</time>
      </trkpt>
      <trkpt lat="46.99151" lon="8.67328">
        <ele>558</ele>
        <time>2021-08-04T10:41:43.168Z</time>
      </trkpt>
      <trkpt lat="46.99152" lon="8.67325">
        <ele>558</ele>
        <time>2021-08-04T10:41:44.169Z</time>
      </trkpt>
      <trkpt lat="46.99153" lon="8.67322">
        <ele>559</ele>
        <time>2021-08-04T10:41:45.169Z</time>
      </trkpt>
      <trkpt lat="46.99154" lon="8.67319">
        <ele>559</ele>
        <time>2021-08-04T10:41:46.168Z</time>
      </trkpt>
      <trkpt lat="46.99153" lon="8.67318">
        <ele>559</ele>
        <time>2021-08-04T10:41:47.169Z</time>
      </trkpt>
      <trkpt lat="46.99153" lon="8.67316">
        <ele>559</ele>
        <time>2021-08-04T10:41:48.168Z</time>
      </trkpt>
      <trkpt lat="46.99152" lon="8.67314">
        <ele>559</ele>
        <time>2021-08-04T10:41:50.168Z</time>
      </trkpt>
      <trkpt lat="46.99175" lon="8.67317">
        <ele>560</ele>
        <time>2021-08-04T10:41:51.169Z</time>
      </trkpt>
      <trkpt lat="46.99175" lon="8.67317">
        <ele>560</ele>
        <time>2021-08-04T10:41:52.169Z</time>
      </trkpt>
      <trkpt lat="46.99176" lon="8.67317">
        <ele>560</ele>
        <time>2021-08-04T10:41:53.168Z</time>
      </trkpt>
      <trkpt lat="46.99177" lon="8.67316">
        <ele>560</ele>
        <time>2021-08-04T10:41:54.168Z</time>
      </trkpt>
      <trkpt lat="46.99179" lon="8.67316">
        <ele>560</ele>
        <time>2021-08-04T10:41:57.169Z</time>
      </trkpt>
      <trkpt lat="46.99179" lon="8.67317">
        <ele>560</ele>
        <time>2021-08-04T10:41:58.169Z</time>
      </trkpt>
      <trkpt lat="46.9918" lon="8.67318">
        <ele>560</ele>
        <time>2021-08-04T10:41:59.168Z</time>
      </trkpt>
      <trkpt lat="46.99181" lon="8.67319">
        <ele>560</ele>
        <time>2021-08-04T10:42:00.169Z</time>
      </trkpt>
      <trkpt lat="46.99182" lon="8.67319">
        <ele>560</ele>
        <time>2021-08-04T10:42:01.168Z</time>
      </trkpt>
      <trkpt lat="46.99183" lon="8.67319">
        <ele>560</ele>
        <time>2021-08-04T10:42:02.168Z</time>
      </trkpt>
      <trkpt lat="46.99184" lon="8.67318">
        <ele>560</ele>
        <time>2021-08-04T10:42:03.168Z</time>
      </trkpt>
      <trkpt lat="46.99184" lon="8.67318">
        <ele>560</ele>
        <time>2021-08-04T10:42:04.169Z</time>
      </trkpt>
      <trkpt lat="46.99185" lon="8.67318">
        <ele>560</ele>
        <time>2021-08-04T10:42:05.169Z</time>
      </trkpt>
      <trkpt lat="46.99186" lon="8.67317">
        <ele>561</ele>
        <time>2021-08-04T10:42:06.169Z</time>
      </trkpt>
      <trkpt lat="46.99109" lon="8.67302">
        <ele>563</ele>
        <time>2021-08-04T10:46:20.025Z</time>
      </trkpt>
      <trkpt lat="46.9911" lon="8.67317">
        <ele>565</ele>
        <time>2021-08-04T10:46:21.025Z</time>
      </trkpt>
      <trkpt lat="46.99113" lon="8.67328">
        <ele>565</ele>
        <time>2021-08-04T10:46:22.024Z</time>
      </trkpt>
      <trkpt lat="46.99116" lon="8.67332">
        <ele>565</ele>
        <time>2021-08-04T10:46:23.025Z</time>
      </trkpt>
      <trkpt lat="46.99113" lon="8.67334">
        <ele>565</ele>
        <time>2021-08-04T10:46:24.025Z</time>
      </trkpt>
      <trkpt lat="46.99113" lon="8.6734">
        <ele>565</ele>
        <time>2021-08-04T10:46:25.025Z</time>
      </trkpt>
      <trkpt lat="46.99111" lon="8.67346">
        <ele>565</ele>
        <time>2021-08-04T10:46:26.024Z</time>
      </trkpt>
      <trkpt lat="46.9911" lon="8.67348">
        <ele>564</ele>
        <time>2021-08-04T10:46:27.025Z</time>
      </trkpt>
      <trkpt lat="46.99109" lon="8.67349">
        <ele>564</ele>
        <time>2021-08-04T10:46:28.025Z</time>
      </trkpt>
      <trkpt lat="46.99109" lon="8.67348">
        <ele>563</ele>
        <time>2021-08-04T10:46:29.024Z</time>
      </trkpt>
      <trkpt lat="46.99109" lon="8.67346">
        <ele>562</ele>
        <time>2021-08-04T10:46:30.025Z</time>
      </trkpt>
      <trkpt lat="46.99108" lon="8.67345">
        <ele>562</ele>
        <time>2021-08-04T10:46:31.024Z</time>
      </trkpt>
      <trkpt lat="46.99108" lon="8.67344">
        <ele>561</ele>
        <time>2021-08-04T10:46:32.025Z</time>
      </trkpt>
      <trkpt lat="46.99107" lon="8.67343">
        <ele>560</ele>
        <time>2021-08-04T10:46:33.025Z</time>
      </trkpt>
      <trkpt lat="46.99107" lon="8.67342">
        <ele>560</ele>
        <time>2021-08-04T10:46:34.024Z</time>
      </trkpt>
      <trkpt lat="46.99106" lon="8.67342">
        <ele>560</ele>
        <time>2021-08-04T10:46:35.025Z</time>
      </trkpt>
      <trkpt lat="46.99106" lon="8.67342">
        <ele>559</ele>
        <time>2021-08-04T10:46:36.025Z</time>
      </trkpt>
      <trkpt lat="46.99106" lon="8.67341">
        <ele>559</ele>
        <time>2021-08-04T10:46:37.025Z</time>
      </trkpt>
      <trkpt lat="46.99108" lon="8.67339">
        <ele>558</ele>
        <time>2021-08-04T10:46:38.025Z</time>
      </trkpt>
      <trkpt lat="46.99116" lon="8.67332">
        <ele>558</ele>
        <time>2021-08-04T10:46:39.025Z</time>
      </trkpt>
      <trkpt lat="46.99121" lon="8.67328">
        <ele>558</ele>
        <time>2021-08-04T10:46:40.025Z</time>
      </trkpt>
      <trkpt lat="46.99123" lon="8.67326">
        <ele>557</ele>
        <time>2021-08-04T10:46:41.024Z</time>
      </trkpt>
      <trkpt lat="46.99124" lon="8.67325">
        <ele>557</ele>
        <time>2021-08-04T10:46:42.025Z</time>
      </trkpt>
      <trkpt lat="46.99123" lon="8.67324">
        <ele>557</ele>
        <time>2021-08-04T10:46:43.024Z</time>
      </trkpt>
      <trkpt lat="46.99122" lon="8.67325">
        <ele>557</ele>
        <time>2021-08-04T10:46:44.025Z</time>
      </trkpt>
      <trkpt lat="46.99121" lon="8.67326">
        <ele>557</ele>
        <time>2021-08-04T10:46:45.025Z</time>
      </trkpt>
      <trkpt lat="46.99121" lon="8.67327">
        <ele>556</ele>
        <time>2021-08-04T10:46:46.025Z</time>
      </trkpt>
      <trkpt lat="46.99121" lon="8.67327">
        <ele>556</ele>
        <time>2021-08-04T10:46:47.025Z</time>
      </trkpt>
      <trkpt lat="46.99121" lon="8.67327">
        <ele>555</ele>
        <time>2021-08-04T10:46:48.025Z</time>
      </trkpt>
      <trkpt lat="46.99121" lon="8.67327">
        <ele>555</ele>
        <time>2021-08-04T10:46:57.142Z</time>
      </trkpt>
      <trkpt lat="46.99121" lon="8.67329">
        <ele>555</ele>
        <time>2021-08-04T10:46:58.142Z</time>
      </trkpt>
      <trkpt lat="46.99121" lon="8.67329">
        <ele>556</ele>
        <time>2021-08-04T10:46:59.143Z</time>
      </trkpt>
      <trkpt lat="46.99121" lon="8.67329">
        <ele>556</ele>
        <time>2021-08-04T10:47:22.278Z</time>
      </trkpt>
      <trkpt lat="46.99121" lon="8.67329">
        <ele>556</ele>
        <time>2021-08-04T10:47:23.279Z</time>
      </trkpt>
      <trkpt lat="46.99122" lon="8.67329">
        <ele>557</ele>
        <time>2021-08-04T10:47:24.279Z</time>
      </trkpt>
      <trkpt lat="46.99121" lon="8.6733">
        <ele>558</ele>
        <time>2021-08-04T10:47:25.279Z</time>
      </trkpt>
      <trkpt lat="46.99121" lon="8.6733">
        <ele>559</ele>
        <time>2021-08-04T10:47:40.405Z</time>
      </trkpt>
      <trkpt lat="46.99121" lon="8.67331">
        <ele>560</ele>
        <time>2021-08-04T10:47:41.405Z</time>
      </trkpt>
      <trkpt lat="46.99121" lon="8.67331">
        <ele>560</ele>
        <time>2021-08-04T10:47:47.159Z</time>
      </trkpt>
      <trkpt lat="46.9912" lon="8.67332">
        <ele>561</ele>
        <time>2021-08-04T10:47:48.160Z</time>
      </trkpt>
      <trkpt lat="46.9912" lon="8.67332">
        <ele>562</ele>
        <time>2021-08-04T10:47:49.159Z</time>
      </trkpt>
      <trkpt lat="46.9912" lon="8.67332">
        <ele>563</ele>
        <time>2021-08-04T10:47:50.159Z</time>
      </trkpt>
      <trkpt lat="46.99116" lon="8.67336">
        <ele>566</ele>
        <time>2021-08-04T10:47:51.159Z</time>
      </trkpt>
      <trkpt lat="46.99115" lon="8.67337">
        <ele>567</ele>
        <time>2021-08-04T10:47:52.159Z</time>
      </trkpt>
      <trkpt lat="46.99114" lon="8.67338">
        <ele>568</ele>
        <time>2021-08-04T10:47:55.251Z</time>
      </trkpt>
      <trkpt lat="46.99114" lon="8.67339">
        <ele>568</ele>
        <time>2021-08-04T10:47:56.251Z</time>
      </trkpt>
      <trkpt lat="46.99114" lon="8.67339">
        <ele>568</ele>
        <time>2021-08-04T10:47:57.252Z</time>
      </trkpt>
      <trkpt lat="46.99115" lon="8.67338">
        <ele>569</ele>
        <time>2021-08-04T10:47:58.252Z</time>
      </trkpt>
      <trkpt lat="46.99115" lon="8.67337">
        <ele>569</ele>
        <time>2021-08-04T10:47:59.251Z</time>
      </trkpt>
      <trkpt lat="46.99114" lon="8.67339">
        <ele>569</ele>
        <time>2021-08-04T10:48:00.252Z</time>
      </trkpt>
      <trkpt lat="46.99114" lon="8.67339">
        <ele>570</ele>
        <time>2021-08-04T10:48:01.252Z</time>
      </trkpt>
      <trkpt lat="46.99115" lon="8.67339">
        <ele>570</ele>
        <time>2021-08-04T10:48:02.251Z</time>
      </trkpt>
      <trkpt lat="46.99115" lon="8.67339">
        <ele>571</ele>
        <time>2021-08-04T10:48:03.252Z</time>
      </trkpt>
      <trkpt lat="46.99117" lon="8.6734">
        <ele>573</ele>
        <time>2021-08-04T10:48:04.252Z</time>
      </trkpt>
      <trkpt lat="46.99116" lon="8.67339">
        <ele>572</ele>
        <time>2021-08-04T10:48:05.252Z</time>
      </trkpt>
      <trkpt lat="46.99116" lon="8.67339">
        <ele>572</ele>
        <time>2021-08-04T10:48:06.252Z</time>
      </trkpt>
      <trkpt lat="46.99115" lon="8.67339">
        <ele>572</ele>
        <time>2021-08-04T10:48:07.251Z</time>
      </trkpt>
      <trkpt lat="46.99115" lon="8.67339">
        <ele>571</ele>
        <time>2021-08-04T10:48:08.252Z</time>
      </trkpt>
      <trkpt lat="46.99115" lon="8.67341">
        <ele>570</ele>
        <time>2021-08-04T10:48:09.253Z</time>
      </trkpt>
      <trkpt lat="46.99115" lon="8.67342">
        <ele>570</ele>
        <time>2021-08-04T10:48:10.252Z</time>
      </trkpt>
      <trkpt lat="46.99115" lon="8.67344">
        <ele>570</ele>
        <time>2021-08-04T10:48:11.252Z</time>
      </trkpt>
      <trkpt lat="46.99114" lon="8.67345">
        <ele>571</ele>
        <time>2021-08-04T10:48:12.253Z</time>
      </trkpt>
      <trkpt lat="46.99113" lon="8.67346">
        <ele>571</ele>
        <time>2021-08-04T10:48:13.252Z</time>
      </trkpt>
      <trkpt lat="46.99112" lon="8.67345">
        <ele>571</ele>
        <time>2021-08-04T10:48:14.252Z</time>
      </trkpt>
      <trkpt lat="46.99112" lon="8.67345">
        <ele>571</ele>
        <time>2021-08-04T10:48:15.252Z</time>
      </trkpt>
      <trkpt lat="46.99114" lon="8.67341">
        <ele>572</ele>
        <time>2021-08-04T10:48:16.252Z</time>
      </trkpt>
      <trkpt lat="46.99116" lon="8.67339">
        <ele>572</ele>
        <time>2021-08-04T10:48:17.253Z</time>
      </trkpt>
      <trkpt lat="46.99116" lon="8.67339">
        <ele>573</ele>
        <time>2021-08-04T10:48:18.253Z</time>
      </trkpt>
      <trkpt lat="46.99116" lon="8.67339">
        <ele>574</ele>
        <time>2021-08-04T10:48:19.253Z</time>
      </trkpt>
      <trkpt lat="46.99116" lon="8.6734">
        <ele>574</ele>
        <time>2021-08-04T10:48:20.253Z</time>
      </trkpt>
      <trkpt lat="46.99117" lon="8.67339">
        <ele>574</ele>
        <time>2021-08-04T10:48:21.253Z</time>
      </trkpt>
      <trkpt lat="46.99117" lon="8.67339">
        <ele>575</ele>
        <time>2021-08-04T10:48:22.253Z</time>
      </trkpt>
      <trkpt lat="46.99118" lon="8.67339">
        <ele>575</ele>
        <time>2021-08-04T10:48:39.264Z</time>
      </trkpt>
      <trkpt lat="46.99118" lon="8.67339">
        <ele>575</ele>
        <time>2021-08-04T10:48:40.265Z</time>
      </trkpt>
      <trkpt lat="46.99119" lon="8.67339">
        <ele>575</ele>
        <time>2021-08-04T10:48:41.264Z</time>
      </trkpt>
      <trkpt lat="46.99119" lon="8.67339">
        <ele>576</ele>
        <time>2021-08-04T10:48:51.433Z</time>
      </trkpt>
      <trkpt lat="46.99119" lon="8.6734">
        <ele>576</ele>
        <time>2021-08-04T10:48:52.433Z</time>
      </trkpt>
      <trkpt lat="46.99118" lon="8.6734">
        <ele>576</ele>
        <time>2021-08-04T10:48:53.433Z</time>
      </trkpt>
      <trkpt lat="46.99118" lon="8.67339">
        <ele>576</ele>
        <time>2021-08-04T10:48:54.433Z</time>
      </trkpt>
      <trkpt lat="46.99118" lon="8.67339">
        <ele>577</ele>
        <time>2021-08-04T10:48:55.433Z</time>
      </trkpt>
      <trkpt lat="46.99118" lon="8.67339">
        <ele>577</ele>
        <time>2021-08-04T10:48:56.432Z</time>
      </trkpt>
      <trkpt lat="46.99118" lon="8.6734">
        <ele>577</ele>
        <time>2021-08-04T10:48:57.432Z</time>
      </trkpt>
      <trkpt lat="46.99118" lon="8.67338">
        <ele>576</ele>
        <time>2021-08-04T10:48:58.433Z</time>
      </trkpt>
      <trkpt lat="46.99118" lon="8.67339">
        <ele>575</ele>
        <time>2021-08-04T10:48:59.434Z</time>
      </trkpt>
      <trkpt lat="46.99117" lon="8.67338">
        <ele>575</ele>
        <time>2021-08-04T10:49:00.434Z</time>
      </trkpt>
      <trkpt lat="46.99117" lon="8.67338">
        <ele>575</ele>
        <time>2021-08-04T10:49:01.434Z</time>
      </trkpt>
      <trkpt lat="46.99117" lon="8.67339">
        <ele>575</ele>
        <time>2021-08-04T10:49:02.433Z</time>
      </trkpt>
      <trkpt lat="46.99116" lon="8.67339">
        <ele>574</ele>
        <time>2021-08-04T10:49:03.433Z</time>
      </trkpt>
      <trkpt lat="46.99116" lon="8.67343">
        <ele>571</ele>
        <time>2021-08-04T10:49:24.558Z</time>
      </trkpt>
      <trkpt lat="46.99116" lon="8.67344">
        <ele>571</ele>
        <time>2021-08-04T10:49:25.559Z</time>
      </trkpt>
      <trkpt lat="46.99117" lon="8.67343">
        <ele>572</ele>
        <time>2021-08-04T10:49:26.558Z</time>
      </trkpt>
      <trkpt lat="46.99118" lon="8.67343">
        <ele>572</ele>
        <time>2021-08-04T10:49:27.559Z</time>
      </trkpt>
      <trkpt lat="46.99118" lon="8.67343">
        <ele>573</ele>
        <time>2021-08-04T10:49:28.559Z</time>
      </trkpt>
      <trkpt lat="46.99119" lon="8.67342">
        <ele>573</ele>
        <time>2021-08-04T10:49:29.558Z</time>
      </trkpt>
      <trkpt lat="46.99119" lon="8.67341">
        <ele>573</ele>
        <time>2021-08-04T10:49:30.559Z</time>
      </trkpt>
      <trkpt lat="46.9912" lon="8.67341">
        <ele>573</ele>
        <time>2021-08-04T10:49:31.558Z</time>
      </trkpt>
      <trkpt lat="46.9912" lon="8.67341">
        <ele>573</ele>
        <time>2021-08-04T10:49:32.558Z</time>
      </trkpt>
      <trkpt lat="46.9912" lon="8.67341">
        <ele>574</ele>
        <time>2021-08-04T10:49:33.559Z</time>
      </trkpt>
      <trkpt lat="46.99119" lon="8.67342">
        <ele>574</ele>
        <time>2021-08-04T10:49:34.559Z</time>
      </trkpt>
      <trkpt lat="46.99119" lon="8.67343">
        <ele>575</ele>
        <time>2021-08-04T10:49:35.559Z</time>
      </trkpt>
      <trkpt lat="46.99118" lon="8.67346">
        <ele>575</ele>
        <time>2021-08-04T10:49:36.558Z</time>
      </trkpt>
      <trkpt lat="46.99118" lon="8.67346">
        <ele>576</ele>
        <time>2021-08-04T10:49:37.558Z</time>
      </trkpt>
      <trkpt lat="46.99119" lon="8.67345">
        <ele>576</ele>
        <time>2021-08-04T10:49:38.558Z</time>
      </trkpt>
      <trkpt lat="46.99119" lon="8.67343">
        <ele>576</ele>
        <time>2021-08-04T10:49:39.559Z</time>
      </trkpt>
      <trkpt lat="46.99119" lon="8.67343">
        <ele>576</ele>
        <time>2021-08-04T10:49:40.559Z</time>
      </trkpt>
      <trkpt lat="46.99115" lon="8.67338">
        <ele>578</ele>
        <time>2021-08-04T10:49:41.560Z</time>
      </trkpt>
      <trkpt lat="46.99111" lon="8.67333">
        <ele>584</ele>
        <time>2021-08-04T10:49:42.559Z</time>
      </trkpt>
      <trkpt lat="46.99112" lon="8.67332">
        <ele>584</ele>
        <time>2021-08-04T10:49:43.560Z</time>
      </trkpt>
      <trkpt lat="46.99112" lon="8.67331">
        <ele>585</ele>
        <time>2021-08-04T10:49:44.559Z</time>
      </trkpt>
      <trkpt lat="46.99113" lon="8.6733">
        <ele>585</ele>
        <time>2021-08-04T10:49:45.560Z</time>
      </trkpt>
      <trkpt lat="46.99113" lon="8.6733">
        <ele>586</ele>
        <time>2021-08-04T10:49:46.560Z</time>
      </trkpt>
      <trkpt lat="46.99113" lon="8.6733">
        <ele>586</ele>
        <time>2021-08-04T10:49:47.560Z</time>
      </trkpt>
      <trkpt lat="46.99113" lon="8.6733">
        <ele>587</ele>
        <time>2021-08-04T10:49:48.560Z</time>
      </trkpt>
      <trkpt lat="46.99113" lon="8.67329">
        <ele>587</ele>
        <time>2021-08-04T10:49:49.561Z</time>
      </trkpt>
      <trkpt lat="46.99116" lon="8.67327">
        <ele>592</ele>
        <time>2021-08-04T10:49:50.561Z</time>
      </trkpt>
      <trkpt lat="46.99116" lon="8.67327">
        <ele>592</ele>
        <time>2021-08-04T10:49:51.561Z</time>
      </trkpt>
      <trkpt lat="46.99116" lon="8.67326">
        <ele>593</ele>
        <time>2021-08-04T10:49:52.560Z</time>
      </trkpt>
      <trkpt lat="46.99119" lon="8.67322">
        <ele>597</ele>
        <time>2021-08-04T10:49:53.561Z</time>
      </trkpt>
      <trkpt lat="46.9912" lon="8.67323">
        <ele>597</ele>
        <time>2021-08-04T10:49:54.561Z</time>
      </trkpt>
      <trkpt lat="46.9912" lon="8.67323">
        <ele>598</ele>
        <time>2021-08-04T10:49:55.560Z</time>
      </trkpt>
      <trkpt lat="46.9912" lon="8.67323">
        <ele>598</ele>
        <time>2021-08-04T10:49:56.560Z</time>
      </trkpt>
      <trkpt lat="46.9912" lon="8.67323">
        <ele>598</ele>
        <time>2021-08-04T10:49:57.560Z</time>
      </trkpt>
      <trkpt lat="46.99121" lon="8.67324">
        <ele>598</ele>
        <time>2021-08-04T10:49:58.561Z</time>
      </trkpt>
      <trkpt lat="46.99122" lon="8.67324">
        <ele>598</ele>
        <time>2021-08-04T10:49:59.560Z</time>
      </trkpt>
      <trkpt lat="46.99122" lon="8.67324">
        <ele>598</ele>
        <time>2021-08-04T10:50:00.561Z</time>
      </trkpt>
      <trkpt lat="46.99121" lon="8.67325">
        <ele>598</ele>
        <time>2021-08-04T10:50:01.560Z</time>
      </trkpt>
      <trkpt lat="46.99122" lon="8.67325">
        <ele>599</ele>
        <time>2021-08-04T10:50:02.560Z</time>
      </trkpt>
      <trkpt lat="46.99122" lon="8.67325">
        <ele>599</ele>
        <time>2021-08-04T10:50:03.560Z</time>
      </trkpt>
      <trkpt lat="46.99122" lon="8.67326">
        <ele>599</ele>
        <time>2021-08-04T10:50:04.560Z</time>
      </trkpt>
      <trkpt lat="46.99121" lon="8.67326">
        <ele>599</ele>
        <time>2021-08-04T10:50:05.560Z</time>
      </trkpt>
      <trkpt lat="46.99121" lon="8.67327">
        <ele>599</ele>
        <time>2021-08-04T10:50:06.560Z</time>
      </trkpt>
      <trkpt lat="46.99122" lon="8.67327">
        <ele>598</ele>
        <time>2021-08-04T10:50:07.560Z</time>
      </trkpt>
      <trkpt lat="46.99124" lon="8.67326">
        <ele>598</ele>
        <time>2021-08-04T10:50:08.561Z</time>
      </trkpt>
      <trkpt lat="46.99124" lon="8.67326">
        <ele>598</ele>
        <time>2021-08-04T10:50:09.561Z</time>
      </trkpt>
      <trkpt lat="46.99124" lon="8.67326">
        <ele>598</ele>
        <time>2021-08-04T10:50:10.561Z</time>
      </trkpt>
      <trkpt lat="46.99125" lon="8.67326">
        <ele>597</ele>
        <time>2021-08-04T10:50:11.561Z</time>
      </trkpt>
      <trkpt lat="46.99125" lon="8.67327">
        <ele>597</ele>
        <time>2021-08-04T10:50:12.561Z</time>
      </trkpt>
      <trkpt lat="46.99123" lon="8.67334">
        <ele>595</ele>
        <time>2021-08-04T10:50:13.562Z</time>
      </trkpt>
      <trkpt lat="46.99123" lon="8.67334">
        <ele>595</ele>
        <time>2021-08-04T10:50:14.561Z</time>
      </trkpt>
      <trkpt lat="46.99122" lon="8.67335">
        <ele>595</ele>
        <time>2021-08-04T10:50:15.561Z</time>
      </trkpt>
      <trkpt lat="46.99122" lon="8.67336">
        <ele>595</ele>
        <time>2021-08-04T10:50:16.561Z</time>
      </trkpt>
      <trkpt lat="46.99121" lon="8.67336">
        <ele>596</ele>
        <time>2021-08-04T10:50:17.562Z</time>
      </trkpt>
      <trkpt lat="46.99121" lon="8.67337">
        <ele>596</ele>
        <time>2021-08-04T10:50:18.562Z</time>
      </trkpt>
      <trkpt lat="46.99121" lon="8.67338">
        <ele>597</ele>
        <time>2021-08-04T10:50:19.562Z</time>
      </trkpt>
      <trkpt lat="46.99121" lon="8.67339">
        <ele>597</ele>
        <time>2021-08-04T10:50:20.562Z</time>
      </trkpt>
      <trkpt lat="46.99121" lon="8.6734">
        <ele>597</ele>
        <time>2021-08-04T10:50:21.562Z</time>
      </trkpt>
      <trkpt lat="46.99121" lon="8.6734">
        <ele>598</ele>
        <time>2021-08-04T10:50:22.562Z</time>
      </trkpt>
      <trkpt lat="46.99119" lon="8.67344">
        <ele>600</ele>
        <time>2021-08-04T10:50:23.563Z</time>
      </trkpt>
      <trkpt lat="46.99119" lon="8.67344">
        <ele>600</ele>
        <time>2021-08-04T10:50:24.563Z</time>
      </trkpt>
      <trkpt lat="46.9912" lon="8.67344">
        <ele>600</ele>
        <time>2021-08-04T10:50:25.563Z</time>
      </trkpt>
      <trkpt lat="46.9912" lon="8.67344">
        <ele>600</ele>
        <time>2021-08-04T10:50:26.563Z</time>
      </trkpt>
      <trkpt lat="46.9912" lon="8.67344">
        <ele>601</ele>
        <time>2021-08-04T10:50:27.563Z</time>
      </trkpt>
      <trkpt lat="46.99119" lon="8.67344">
        <ele>601</ele>
        <time>2021-08-04T10:50:28.563Z</time>
      </trkpt>
      <trkpt lat="46.9912" lon="8.67343">
        <ele>601</ele>
        <time>2021-08-04T10:50:29.563Z</time>
      </trkpt>
      <trkpt lat="46.9912" lon="8.67343">
        <ele>600</ele>
        <time>2021-08-04T10:50:30.563Z</time>
      </trkpt>
      <trkpt lat="46.9912" lon="8.67343">
        <ele>599</ele>
        <time>2021-08-04T10:50:31.564Z</time>
      </trkpt>
      <trkpt lat="46.99121" lon="8.67341">
        <ele>593</ele>
        <time>2021-08-04T10:50:32.564Z</time>
      </trkpt>
      <trkpt lat="46.99121" lon="8.67341">
        <ele>592</ele>
        <time>2021-08-04T10:50:33.564Z</time>
      </trkpt>
      <trkpt lat="46.99121" lon="8.67341">
        <ele>590</ele>
        <time>2021-08-04T10:50:34.563Z</time>
      </trkpt>
      <trkpt lat="46.99121" lon="8.67341">
        <ele>589</ele>
        <time>2021-08-04T10:50:35.563Z</time>
      </trkpt>
      <trkpt lat="46.9912" lon="8.67341">
        <ele>587</ele>
        <time>2021-08-04T10:50:36.564Z</time>
      </trkpt>
      <trkpt lat="46.99117" lon="8.67341">
        <ele>579</ele>
        <time>2021-08-04T10:50:37.564Z</time>
      </trkpt>
      <trkpt lat="46.99117" lon="8.67341">
        <ele>579</ele>
        <time>2021-08-04T10:50:38.564Z</time>
      </trkpt>
      <trkpt lat="46.99117" lon="8.6734">
        <ele>579</ele>
        <time>2021-08-04T10:50:39.563Z</time>
      </trkpt>
      <trkpt lat="46.99118" lon="8.6734">
        <ele>579</ele>
        <time>2021-08-04T10:50:40.564Z</time>
      </trkpt>
      <trkpt lat="46.99118" lon="8.67339">
        <ele>579</ele>
        <time>2021-08-04T10:50:41.563Z</time>
      </trkpt>
      <trkpt lat="46.99118" lon="8.67339">
        <ele>579</ele>
        <time>2021-08-04T10:50:42.564Z</time>
      </trkpt>
      <trkpt lat="46.99118" lon="8.67339">
        <ele>578</ele>
        <time>2021-08-04T10:50:43.564Z</time>
      </trkpt>
      <trkpt lat="46.99118" lon="8.6734">
        <ele>578</ele>
        <time>2021-08-04T10:50:44.564Z</time>
      </trkpt>
      <trkpt lat="46.99118" lon="8.6734">
        <ele>578</ele>
        <time>2021-08-04T10:50:45.563Z</time>
      </trkpt>
      <trkpt lat="46.99118" lon="8.6734">
        <ele>578</ele>
        <time>2021-08-04T10:50:46.563Z</time>
      </trkpt>
      <trkpt lat="46.99118" lon="8.6734">
        <ele>578</ele>
        <time>2021-08-04T10:50:47.564Z</time>
      </trkpt>
      <trkpt lat="46.99118" lon="8.67341">
        <ele>578</ele>
        <time>2021-08-04T10:50:48.564Z</time>
      </trkpt>
      <trkpt lat="46.99118" lon="8.67342">
        <ele>579</ele>
        <time>2021-08-04T10:50:49.564Z</time>
      </trkpt>
      <trkpt lat="46.99118" lon="8.67342">
        <ele>580</ele>
        <time>2021-08-04T10:50:50.564Z</time>
      </trkpt>
      <trkpt lat="46.99118" lon="8.67343">
        <ele>580</ele>
        <time>2021-08-04T10:50:51.564Z</time>
      </trkpt>
      <trkpt lat="46.99119" lon="8.67343">
        <ele>581</ele>
        <time>2021-08-04T10:50:52.563Z</time>
      </trkpt>
      <trkpt lat="46.99119" lon="8.67344">
        <ele>581</ele>
        <time>2021-08-04T10:50:53.564Z</time>
      </trkpt>
      <trkpt lat="46.9912" lon="8.67343">
        <ele>582</ele>
        <time>2021-08-04T10:50:54.564Z</time>
      </trkpt>
      <trkpt lat="46.99119" lon="8.67342">
        <ele>581</ele>
        <time>2021-08-04T10:50:56.563Z</time>
      </trkpt>
      <trkpt lat="46.99119" lon="8.67342">
        <ele>581</ele>
        <time>2021-08-04T10:50:57.563Z</time>
      </trkpt>
      <trkpt lat="46.99119" lon="8.67342">
        <ele>582</ele>
        <time>2021-08-04T10:50:58.563Z</time>
      </trkpt>
      <trkpt lat="46.99119" lon="8.67343">
        <ele>582</ele>
        <time>2021-08-04T10:50:59.563Z</time>
      </trkpt>
      <trkpt lat="46.99119" lon="8.67344">
        <ele>582</ele>
        <time>2021-08-04T10:51:00.563Z</time>
      </trkpt>
      <trkpt lat="46.99118" lon="8.67345">
        <ele>581</ele>
        <time>2021-08-04T10:51:01.564Z</time>
      </trkpt>
      <trkpt lat="46.99117" lon="8.67345">
        <ele>581</ele>
        <time>2021-08-04T10:51:02.564Z</time>
      </trkpt>
      <trkpt lat="46.99117" lon="8.67345">
        <ele>581</ele>
        <time>2021-08-04T10:51:03.563Z</time>
      </trkpt>
      <trkpt lat="46.99116" lon="8.67346">
        <ele>581</ele>
        <time>2021-08-04T10:51:04.563Z</time>
      </trkpt>
      <trkpt lat="46.99115" lon="8.67345">
        <ele>580</ele>
        <time>2021-08-04T10:51:05.564Z</time>
      </trkpt>
      <trkpt lat="46.99114" lon="8.67345">
        <ele>580</ele>
        <time>2021-08-04T10:51:06.564Z</time>
      </trkpt>
      <trkpt lat="46.99112" lon="8.67343">
        <ele>580</ele>
        <time>2021-08-04T10:51:07.564Z</time>
      </trkpt>
      <trkpt lat="46.9911" lon="8.67341">
        <ele>580</ele>
        <time>2021-08-04T10:51:08.564Z</time>
      </trkpt>
      <trkpt lat="46.99107" lon="8.67339">
        <ele>580</ele>
        <time>2021-08-04T10:51:09.564Z</time>
      </trkpt>
      <trkpt lat="46.99105" lon="8.67337">
        <ele>581</ele>
        <time>2021-08-04T10:51:10.563Z</time>
      </trkpt>
      <trkpt lat="46.99101" lon="8.67335">
        <ele>581</ele>
        <time>2021-08-04T10:51:11.564Z</time>
      </trkpt>
      <trkpt lat="46.99097" lon="8.67334">
        <ele>582</ele>
        <time>2021-08-04T10:51:12.564Z</time>
      </trkpt>
      <trkpt lat="46.99093" lon="8.67332">
        <ele>582</ele>
        <time>2021-08-04T10:51:13.564Z</time>
      </trkpt>
      <trkpt lat="46.9909" lon="8.6733">
        <ele>583</ele>
        <time>2021-08-04T10:51:14.563Z</time>
      </trkpt>
      <trkpt lat="46.99085" lon="8.67328">
        <ele>583</ele>
        <time>2021-08-04T10:51:15.564Z</time>
      </trkpt>
      <trkpt lat="46.9908" lon="8.67326">
        <ele>583</ele>
        <time>2021-08-04T10:51:16.563Z</time>
      </trkpt>
      <trkpt lat="46.99076" lon="8.67323">
        <ele>582</ele>
        <time>2021-08-04T10:51:17.564Z</time>
      </trkpt>
      <trkpt lat="46.99071" lon="8.67321">
        <ele>582</ele>
        <time>2021-08-04T10:51:18.563Z</time>
      </trkpt>
      <trkpt lat="46.99067" lon="8.67319">
        <ele>581</ele>
        <time>2021-08-04T10:51:19.564Z</time>
      </trkpt>
      <trkpt lat="46.99063" lon="8.67317">
        <ele>581</ele>
        <time>2021-08-04T10:51:20.564Z</time>
      </trkpt>
      <trkpt lat="46.99059" lon="8.67315">
        <ele>581</ele>
        <time>2021-08-04T10:51:21.563Z</time>
      </trkpt>
      <trkpt lat="46.99055" lon="8.67313">
        <ele>580</ele>
        <time>2021-08-04T10:51:22.563Z</time>
      </trkpt>
      <trkpt lat="46.99051" lon="8.67312">
        <ele>580</ele>
        <time>2021-08-04T10:51:23.564Z</time>
      </trkpt>
      <trkpt lat="46.99047" lon="8.67311">
        <ele>581</ele>
        <time>2021-08-04T10:51:24.564Z</time>
      </trkpt>
      <trkpt lat="46.99043" lon="8.67309">
        <ele>581</ele>
        <time>2021-08-04T10:51:27.672Z</time>
      </trkpt>
      <trkpt lat="46.99039" lon="8.67307">
        <ele>581</ele>
        <time>2021-08-04T10:51:28.671Z</time>
      </trkpt>
      <trkpt lat="46.99034" lon="8.67306">
        <ele>582</ele>
        <time>2021-08-04T10:51:29.672Z</time>
      </trkpt>
      <trkpt lat="46.9903" lon="8.67304">
        <ele>582</ele>
        <time>2021-08-04T10:51:30.672Z</time>
      </trkpt>
      <trkpt lat="46.99026" lon="8.67302">
        <ele>582</ele>
        <time>2021-08-04T10:51:31.672Z</time>
      </trkpt>
      <trkpt lat="46.99022" lon="8.67301">
        <ele>584</ele>
        <time>2021-08-04T10:51:32.671Z</time>
      </trkpt>
      <trkpt lat="46.99018" lon="8.673">
        <ele>585</ele>
        <time>2021-08-04T10:51:33.672Z</time>
      </trkpt>
      <trkpt lat="46.99014" lon="8.67298">
        <ele>587</ele>
        <time>2021-08-04T10:51:34.672Z</time>
      </trkpt>
      <trkpt lat="46.99011" lon="8.67296">
        <ele>589</ele>
        <time>2021-08-04T10:51:35.671Z</time>
      </trkpt>
      <trkpt lat="46.99007" lon="8.67293">
        <ele>591</ele>
        <time>2021-08-04T10:51:36.672Z</time>
      </trkpt>
      <trkpt lat="46.99002" lon="8.67291">
        <ele>592</ele>
        <time>2021-08-04T10:51:37.671Z</time>
      </trkpt>
      <trkpt lat="46.98998" lon="8.6729">
        <ele>593</ele>
        <time>2021-08-04T10:51:38.672Z</time>
      </trkpt>
      <trkpt lat="46.98995" lon="8.67288">
        <ele>594</ele>
        <time>2021-08-04T10:51:39.671Z</time>
      </trkpt>
      <trkpt lat="46.98991" lon="8.67285">
        <ele>595</ele>
        <time>2021-08-04T10:51:40.671Z</time>
      </trkpt>
      <trkpt lat="46.98986" lon="8.67284">
        <ele>596</ele>
        <time>2021-08-04T10:51:41.672Z</time>
      </trkpt>
      <trkpt lat="46.98981" lon="8.67282">
        <ele>597</ele>
        <time>2021-08-04T10:51:42.671Z</time>
      </trkpt>
      <trkpt lat="46.98978" lon="8.67281">
        <ele>598</ele>
        <time>2021-08-04T10:51:43.672Z</time>
      </trkpt>
      <trkpt lat="46.98973" lon="8.67279">
        <ele>599</ele>
        <time>2021-08-04T10:51:44.671Z</time>
      </trkpt>
      <trkpt lat="46.98969" lon="8.67278">
        <ele>601</ele>
        <time>2021-08-04T10:51:45.672Z</time>
      </trkpt>
      <trkpt lat="46.98965" lon="8.67276">
        <ele>602</ele>
        <time>2021-08-04T10:51:46.672Z</time>
      </trkpt>
      <trkpt lat="46.98961" lon="8.67276">
        <ele>604</ele>
        <time>2021-08-04T10:51:47.672Z</time>
      </trkpt>
      <trkpt lat="46.98958" lon="8.67274">
        <ele>605</ele>
        <time>2021-08-04T10:51:48.671Z</time>
      </trkpt>
      <trkpt lat="46.98954" lon="8.67272">
        <ele>607</ele>
        <time>2021-08-04T10:51:49.672Z</time>
      </trkpt>
      <trkpt lat="46.98951" lon="8.6727">
        <ele>609</ele>
        <time>2021-08-04T10:51:50.672Z</time>
      </trkpt>
      <trkpt lat="46.98947" lon="8.67269">
        <ele>611</ele>
        <time>2021-08-04T10:51:51.672Z</time>
      </trkpt>
      <trkpt lat="46.98944" lon="8.67267">
        <ele>613</ele>
        <time>2021-08-04T10:51:52.671Z</time>
      </trkpt>
      <trkpt lat="46.98939" lon="8.67266">
        <ele>615</ele>
        <time>2021-08-04T10:51:53.671Z</time>
      </trkpt>
      <trkpt lat="46.98936" lon="8.67265">
        <ele>617</ele>
        <time>2021-08-04T10:51:54.671Z</time>
      </trkpt>
      <trkpt lat="46.98932" lon="8.67264">
        <ele>619</ele>
        <time>2021-08-04T10:51:55.672Z</time>
      </trkpt>
      <trkpt lat="46.98928" lon="8.67263">
        <ele>621</ele>
        <time>2021-08-04T10:51:56.672Z</time>
      </trkpt>
      <trkpt lat="46.98924" lon="8.67261">
        <ele>623</ele>
        <time>2021-08-04T10:51:57.672Z</time>
      </trkpt>
      <trkpt lat="46.9892" lon="8.6726">
        <ele>625</ele>
        <time>2021-08-04T10:51:58.671Z</time>
      </trkpt>
      <trkpt lat="46.98916" lon="8.6726">
        <ele>627</ele>
        <time>2021-08-04T10:51:59.672Z</time>
      </trkpt>
      <trkpt lat="46.98911" lon="8.67259">
        <ele>630</ele>
        <time>2021-08-04T10:52:00.672Z</time>
      </trkpt>
      <trkpt lat="46.98908" lon="8.67257">
        <ele>632</ele>
        <time>2021-08-04T10:52:01.672Z</time>
      </trkpt>
      <trkpt lat="46.98904" lon="8.67255">
        <ele>634</ele>
        <time>2021-08-04T10:52:02.672Z</time>
      </trkpt>
      <trkpt lat="46.98901" lon="8.67253">
        <ele>636</ele>
        <time>2021-08-04T10:52:03.672Z</time>
      </trkpt>
      <trkpt lat="46.98898" lon="8.67251">
        <ele>638</ele>
        <time>2021-08-04T10:52:04.672Z</time>
      </trkpt>
      <trkpt lat="46.98895" lon="8.67249">
        <ele>639</ele>
        <time>2021-08-04T10:52:05.671Z</time>
      </trkpt>
      <trkpt lat="46.98892" lon="8.67248">
        <ele>641</ele>
        <time>2021-08-04T10:52:06.672Z</time>
      </trkpt>
      <trkpt lat="46.98889" lon="8.67246">
        <ele>643</ele>
        <time>2021-08-04T10:52:07.671Z</time>
      </trkpt>
      <trkpt lat="46.98887" lon="8.67245">
        <ele>646</ele>
        <time>2021-08-04T10:52:08.671Z</time>
      </trkpt>
      <trkpt lat="46.98886" lon="8.67243">
        <ele>648</ele>
        <time>2021-08-04T10:52:09.672Z</time>
      </trkpt>
      <trkpt lat="46.98883" lon="8.67242">
        <ele>650</ele>
        <time>2021-08-04T10:52:10.672Z</time>
      </trkpt>
      <trkpt lat="46.9888" lon="8.67241">
        <ele>652</ele>
        <time>2021-08-04T10:52:11.672Z</time>
      </trkpt>
      <trkpt lat="46.98878" lon="8.67238">
        <ele>654</ele>
        <time>2021-08-04T10:52:12.672Z</time>
      </trkpt>
      <trkpt lat="46.98875" lon="8.67236">
        <ele>656</ele>
        <time>2021-08-04T10:52:13.671Z</time>
      </trkpt>
      <trkpt lat="46.98871" lon="8.67233">
        <ele>658</ele>
        <time>2021-08-04T10:52:14.672Z</time>
      </trkpt>
      <trkpt lat="46.98869" lon="8.67231">
        <ele>659</ele>
        <time>2021-08-04T10:52:15.672Z</time>
      </trkpt>
      <trkpt lat="46.98865" lon="8.6723">
        <ele>661</ele>
        <time>2021-08-04T10:52:16.671Z</time>
      </trkpt>
      <trkpt lat="46.98861" lon="8.67229">
        <ele>663</ele>
        <time>2021-08-04T10:52:17.671Z</time>
      </trkpt>
      <trkpt lat="46.98858" lon="8.67227">
        <ele>665</ele>
        <time>2021-08-04T10:52:18.671Z</time>
      </trkpt>
      <trkpt lat="46.98856" lon="8.67226">
        <ele>667</ele>
        <time>2021-08-04T10:52:19.672Z</time>
      </trkpt>
      <trkpt lat="46.98854" lon="8.67224">
        <ele>669</ele>
        <time>2021-08-04T10:52:20.672Z</time>
      </trkpt>
      <trkpt lat="46.9885" lon="8.67222">
        <ele>670</ele>
        <time>2021-08-04T10:52:21.671Z</time>
      </trkpt>
      <trkpt lat="46.98847" lon="8.6722">
        <ele>672</ele>
        <time>2021-08-04T10:52:22.671Z</time>
      </trkpt>
      <trkpt lat="46.98842" lon="8.67218">
        <ele>673</ele>
        <time>2021-08-04T10:52:23.671Z</time>
      </trkpt>
      <trkpt lat="46.98275" lon="8.67149">
        <ele>676</ele>
        <time>2021-08-04T10:54:16.662Z</time>
      </trkpt>
      <trkpt lat="46.98255" lon="8.67154">
        <ele>678</ele>
        <time>2021-08-04T10:54:17.662Z</time>
      </trkpt>
      <trkpt lat="46.98276" lon="8.67136">
        <ele>680</ele>
        <time>2021-08-04T10:54:18.661Z</time>
      </trkpt>
      <trkpt lat="46.98308" lon="8.67129">
        <ele>682</ele>
        <time>2021-08-04T10:54:19.662Z</time>
      </trkpt>
      <trkpt lat="46.9833" lon="8.67122">
        <ele>684</ele>
        <time>2021-08-04T10:54:26.804Z</time>
      </trkpt>
      <trkpt lat="46.98349" lon="8.67118">
        <ele>685</ele>
        <time>2021-08-04T10:54:27.804Z</time>
      </trkpt>
      <trkpt lat="46.98363" lon="8.67114">
        <ele>686</ele>
        <time>2021-08-04T10:54:33.661Z</time>
      </trkpt>
      <trkpt lat="46.98375" lon="8.67111">
        <ele>688</ele>
        <time>2021-08-04T10:54:34.661Z</time>
      </trkpt>
      <trkpt lat="46.98383" lon="8.67107">
        <ele>689</ele>
        <time>2021-08-04T10:54:35.660Z</time>
      </trkpt>
      <trkpt lat="46.98388" lon="8.67102">
        <ele>690</ele>
        <time>2021-08-04T10:54:36.660Z</time>
      </trkpt>
      <trkpt lat="46.98392" lon="8.67099">
        <ele>690</ele>
        <time>2021-08-04T10:54:37.661Z</time>
      </trkpt>
      <trkpt lat="46.98396" lon="8.67095">
        <ele>691</ele>
        <time>2021-08-04T10:54:38.660Z</time>
      </trkpt>
      <trkpt lat="46.98397" lon="8.67092">
        <ele>732</ele>
        <time>2021-08-04T10:54:39.660Z</time>
      </trkpt>
      <trkpt lat="46.98398" lon="8.6709">
        <ele>769</ele>
        <time>2021-08-04T10:54:40.660Z</time>
      </trkpt>
      <trkpt lat="46.98304" lon="8.66986">
        <ele>810</ele>
        <time>2021-08-04T10:56:59.885Z</time>
      </trkpt>
      <trkpt lat="46.98301" lon="8.66987">
        <ele>848</ele>
        <time>2021-08-04T10:57:00.885Z</time>
      </trkpt>
      <trkpt lat="46.98298" lon="8.66986">
        <ele>882</ele>
        <time>2021-08-04T10:57:01.885Z</time>
      </trkpt>
      <trkpt lat="46.98292" lon="8.66982">
        <ele>914</ele>
        <time>2021-08-04T10:57:02.885Z</time>
      </trkpt>
      <trkpt lat="46.98286" lon="8.66975">
        <ele>942</ele>
        <time>2021-08-04T10:57:03.884Z</time>
      </trkpt>
      <trkpt lat="46.98283" lon="8.66973">
        <ele>968</ele>
        <time>2021-08-04T10:57:04.885Z</time>
      </trkpt>
      <trkpt lat="46.98277" lon="8.66969">
        <ele>992</ele>
        <time>2021-08-04T10:57:05.885Z</time>
      </trkpt>
      <trkpt lat="46.98273" lon="8.66967">
        <ele>1013</ele>
        <time>2021-08-04T10:57:07.875Z</time>
      </trkpt>
      <trkpt lat="46.98268" lon="8.66965">
        <ele>1033</ele>
        <time>2021-08-04T10:57:08.876Z</time>
      </trkpt>
      <trkpt lat="46.98264" lon="8.66963">
        <ele>1051</ele>
        <time>2021-08-04T10:57:09.876Z</time>
      </trkpt>
      <trkpt lat="46.9826" lon="8.6696">
        <ele>1067</ele>
        <time>2021-08-04T10:57:15.890Z</time>
      </trkpt>
      <trkpt lat="46.98255" lon="8.66957">
        <ele>1082</ele>
        <time>2021-08-04T10:57:16.890Z</time>
      </trkpt>
      <trkpt lat="46.9825" lon="8.66955">
        <ele>1096</ele>
        <time>2021-08-04T10:57:17.891Z</time>
      </trkpt>
      <trkpt lat="46.98246" lon="8.66954">
        <ele>1108</ele>
        <time>2021-08-04T10:57:18.891Z</time>
      </trkpt>
      <trkpt lat="46.98243" lon="8.66953">
        <ele>1119</ele>
        <time>2021-08-04T10:57:19.890Z</time>
      </trkpt>
      <trkpt lat="46.98239" lon="8.66952">
        <ele>1130</ele>
        <time>2021-08-04T10:57:20.890Z</time>
      </trkpt>
      <trkpt lat="46.98234" lon="8.66951">
        <ele>1140</ele>
        <time>2021-08-04T10:57:21.890Z</time>
      </trkpt>
      <trkpt lat="46.98229" lon="8.66948">
        <ele>1149</ele>
        <time>2021-08-04T10:57:22.891Z</time>
      </trkpt>
      <trkpt lat="46.98224" lon="8.66946">
        <ele>1158</ele>
        <time>2021-08-04T10:57:23.891Z</time>
      </trkpt>
      <trkpt lat="46.98219" lon="8.66945">
        <ele>1166</ele>
        <time>2021-08-04T10:57:24.890Z</time>
      </trkpt>
      <trkpt lat="46.98213" lon="8.66943">
        <ele>1173</ele>
        <time>2021-08-04T10:57:25.890Z</time>
      </trkpt>
      <trkpt lat="46.98209" lon="8.66941">
        <ele>1180</ele>
        <time>2021-08-04T10:57:26.891Z</time>
      </trkpt>
      <trkpt lat="46.98205" lon="8.66939">
        <ele>1186</ele>
        <time>2021-08-04T10:57:27.891Z</time>
      </trkpt>
      <trkpt lat="46.98201" lon="8.66937">
        <ele>1191</ele>
        <time>2021-08-04T10:57:28.891Z</time>
      </trkpt>
      <trkpt lat="46.98197" lon="8.66936">
        <ele>1196</ele>
        <time>2021-08-04T10:57:29.890Z</time>
      </trkpt>
      <trkpt lat="46.98193" lon="8.66934">
        <ele>1200</ele>
        <time>2021-08-04T10:57:30.891Z</time>
      </trkpt>
      <trkpt lat="46.98188" lon="8.66932">
        <ele>1204</ele>
        <time>2021-08-04T10:57:31.891Z</time>
      </trkpt>
      <trkpt lat="46.98184" lon="8.6693">
        <ele>1208</ele>
        <time>2021-08-04T10:57:32.891Z</time>
      </trkpt>
      <trkpt lat="46.9818" lon="8.66928">
        <ele>1211</ele>
        <time>2021-08-04T10:57:33.891Z</time>
      </trkpt>
      <trkpt lat="46.98175" lon="8.66926">
        <ele>1215</ele>
        <time>2021-08-04T10:57:34.890Z</time>
      </trkpt>
      <trkpt lat="46.9817" lon="8.66925">
        <ele>1218</ele>
        <time>2021-08-04T10:57:35.890Z</time>
      </trkpt>
      <trkpt lat="46.98166" lon="8.66923">
        <ele>1221</ele>
        <time>2021-08-04T10:57:36.890Z</time>
      </trkpt>
      <trkpt lat="46.98161" lon="8.66921">
        <ele>1223</ele>
        <time>2021-08-04T10:57:37.891Z</time>
      </trkpt>
      <trkpt lat="46.98156" lon="8.6692">
        <ele>1226</ele>
        <time>2021-08-04T10:57:38.890Z</time>
      </trkpt>
      <trkpt lat="46.98152" lon="8.66918">
        <ele>1228</ele>
        <time>2021-08-04T10:57:39.891Z</time>
      </trkpt>
      <trkpt lat="46.98148" lon="8.66915">
        <ele>1230</ele>
        <time>2021-08-04T10:57:40.891Z</time>
      </trkpt>
      <trkpt lat="46.98144" lon="8.66914">
        <ele>1232</ele>
        <time>2021-08-04T10:57:41.891Z</time>
      </trkpt>
      <trkpt lat="46.98139" lon="8.66912">
        <ele>1233</ele>
        <time>2021-08-04T10:57:42.890Z</time>
      </trkpt>
      <trkpt lat="46.98135" lon="8.6691">
        <ele>1234</ele>
        <time>2021-08-04T10:57:43.891Z</time>
      </trkpt>
      <trkpt lat="46.98131" lon="8.66908">
        <ele>1235</ele>
        <time>2021-08-04T10:57:44.891Z</time>
      </trkpt>
      <trkpt lat="46.98127" lon="8.66907">
        <ele>1237</ele>
        <time>2021-08-04T10:57:45.890Z</time>
      </trkpt>
      <trkpt lat="46.98123" lon="8.66905">
        <ele>1238</ele>
        <time>2021-08-04T10:57:46.891Z</time>
      </trkpt>
      <trkpt lat="46.98118" lon="8.66903">
        <ele>1239</ele>
        <time>2021-08-04T10:57:47.891Z</time>
      </trkpt>
      <trkpt lat="46.98114" lon="8.66901">
        <ele>1240</ele>
        <time>2021-08-04T10:57:48.891Z</time>
      </trkpt>
      <trkpt lat="46.98109" lon="8.66899">
        <ele>1241</ele>
        <time>2021-08-04T10:57:49.891Z</time>
      </trkpt>
      <trkpt lat="46.98105" lon="8.66897">
        <ele>1242</ele>
        <time>2021-08-04T10:57:50.890Z</time>
      </trkpt>
      <trkpt lat="46.98101" lon="8.66894">
        <ele>1243</ele>
        <time>2021-08-04T10:57:51.891Z</time>
      </trkpt>
      <trkpt lat="46.98097" lon="8.66892">
        <ele>1244</ele>
        <time>2021-08-04T10:57:52.891Z</time>
      </trkpt>
      <trkpt lat="46.98093" lon="8.66891">
        <ele>1246</ele>
        <time>2021-08-04T10:57:53.891Z</time>
      </trkpt>
      <trkpt lat="46.98089" lon="8.66889">
        <ele>1248</ele>
        <time>2021-08-04T10:57:54.890Z</time>
      </trkpt>
      <trkpt lat="46.98085" lon="8.66888">
        <ele>1249</ele>
        <time>2021-08-04T10:57:55.891Z</time>
      </trkpt>
      <trkpt lat="46.98081" lon="8.66886">
        <ele>1250</ele>
        <time>2021-08-04T10:57:56.891Z</time>
      </trkpt>
      <trkpt lat="46.98077" lon="8.66884">
        <ele>1251</ele>
        <time>2021-08-04T10:57:57.890Z</time>
      </trkpt>
      <trkpt lat="46.98073" lon="8.66882">
        <ele>1252</ele>
        <time>2021-08-04T10:57:58.890Z</time>
      </trkpt>
      <trkpt lat="46.98069" lon="8.6688">
        <ele>1253</ele>
        <time>2021-08-04T10:57:59.891Z</time>
      </trkpt>
      <trkpt lat="46.98065" lon="8.66879">
        <ele>1253</ele>
        <time>2021-08-04T10:58:00.891Z</time>
      </trkpt>
      <trkpt lat="46.98061" lon="8.66878">
        <ele>1254</ele>
        <time>2021-08-04T10:58:01.891Z</time>
      </trkpt>
      <trkpt lat="46.98057" lon="8.66876">
        <ele>1255</ele>
        <time>2021-08-04T10:58:02.891Z</time>
      </trkpt>
      <trkpt lat="46.98052" lon="8.66874">
        <ele>1255</ele>
        <time>2021-08-04T10:58:03.891Z</time>
      </trkpt>
      <trkpt lat="46.98048" lon="8.66873">
        <ele>1256</ele>
        <time>2021-08-04T10:58:04.890Z</time>
      </trkpt>
      <trkpt lat="46.98043" lon="8.66871">
        <ele>1257</ele>
        <time>2021-08-04T10:58:05.891Z</time>
      </trkpt>
      <trkpt lat="46.98038" lon="8.66869">
        <ele>1258</ele>
        <time>2021-08-04T10:58:06.891Z</time>
      </trkpt>
      <trkpt lat="46.98034" lon="8.66867">
        <ele>1259</ele>
        <time>2021-08-04T10:58:07.891Z</time>
      </trkpt>
      <trkpt lat="46.98029" lon="8.66865">
        <ele>1260</ele>
        <time>2021-08-04T10:58:08.891Z</time>
      </trkpt>
      <trkpt lat="46.98025" lon="8.66863">
        <ele>1261</ele>
        <time>2021-08-04T10:58:09.891Z</time>
      </trkpt>
      <trkpt lat="46.98021" lon="8.66861">
        <ele>1261</ele>
        <time>2021-08-04T10:58:10.890Z</time>
      </trkpt>
      <trkpt lat="46.98017" lon="8.66859">
        <ele>1262</ele>
        <time>2021-08-04T10:58:11.890Z</time>
      </trkpt>
      <trkpt lat="46.98013" lon="8.66857">
        <ele>1262</ele>
        <time>2021-08-04T10:58:12.891Z</time>
      </trkpt>
      <trkpt lat="46.98009" lon="8.66855">
        <ele>1262</ele>
        <time>2021-08-04T10:58:13.891Z</time>
      </trkpt>
      <trkpt lat="46.98005" lon="8.66854">
        <ele>1262</ele>
        <time>2021-08-04T10:58:14.890Z</time>
      </trkpt>
      <trkpt lat="46.98001" lon="8.66853">
        <ele>1263</ele>
        <time>2021-08-04T10:58:15.891Z</time>
      </trkpt>
      <trkpt lat="46.97998" lon="8.66852">
        <ele>1264</ele>
        <time>2021-08-04T10:58:16.891Z</time>
      </trkpt>
      <trkpt lat="46.97994" lon="8.66851">
        <ele>1265</ele>
        <time>2021-08-04T10:58:17.890Z</time>
      </trkpt>
      <trkpt lat="46.97989" lon="8.66849">
        <ele>1266</ele>
        <time>2021-08-04T10:58:18.891Z</time>
      </trkpt>
      <trkpt lat="46.97985" lon="8.66847">
        <ele>1267</ele>
        <time>2021-08-04T10:58:19.890Z</time>
      </trkpt>
      <trkpt lat="46.9798" lon="8.66844">
        <ele>1267</ele>
        <time>2021-08-04T10:58:20.891Z</time>
      </trkpt>
      <trkpt lat="46.97976" lon="8.66842">
        <ele>1268</ele>
        <time>2021-08-04T10:58:21.890Z</time>
      </trkpt>
      <trkpt lat="46.97972" lon="8.66839">
        <ele>1269</ele>
        <time>2021-08-04T10:58:22.890Z</time>
      </trkpt>
      <trkpt lat="46.97968" lon="8.66837">
        <ele>1270</ele>
        <time>2021-08-04T10:58:23.891Z</time>
      </trkpt>
      <trkpt lat="46.97964" lon="8.66835">
        <ele>1270</ele>
        <time>2021-08-04T10:58:24.890Z</time>
      </trkpt>
      <trkpt lat="46.9796" lon="8.66833">
        <ele>1270</ele>
        <time>2021-08-04T10:58:25.891Z</time>
      </trkpt>
      <trkpt lat="46.97956" lon="8.66831">
        <ele>1270</ele>
        <time>2021-08-04T10:58:26.891Z</time>
      </trkpt>
      <trkpt lat="46.97951" lon="8.6683">
        <ele>1270</ele>
        <time>2021-08-04T10:58:27.891Z</time>
      </trkpt>
      <trkpt lat="46.97947" lon="8.66828">
        <ele>1270</ele>
        <time>2021-08-04T10:58:28.891Z</time>
      </trkpt>
      <trkpt lat="46.97944" lon="8.66826">
        <ele>1270</ele>
        <time>2021-08-04T10:58:29.891Z</time>
      </trkpt>
      <trkpt lat="46.97939" lon="8.66824">
        <ele>1270</ele>
        <time>2021-08-04T10:58:30.890Z</time>
      </trkpt>
      <trkpt lat="46.97935" lon="8.66823">
        <ele>1270</ele>
        <time>2021-08-04T10:58:31.890Z</time>
      </trkpt>
      <trkpt lat="46.97931" lon="8.66821">
        <ele>1270</ele>
        <time>2021-08-04T10:58:32.891Z</time>
      </trkpt>
      <trkpt lat="46.97927" lon="8.66819">
        <ele>1270</ele>
        <time>2021-08-04T10:58:33.890Z</time>
      </trkpt>
      <trkpt lat="46.97922" lon="8.66817">
        <ele>1270</ele>
        <time>2021-08-04T10:58:34.890Z</time>
      </trkpt>
      <trkpt lat="46.97918" lon="8.66816">
        <ele>1271</ele>
        <time>2021-08-04T10:58:35.891Z</time>
      </trkpt>
      <trkpt lat="46.97914" lon="8.66814">
        <ele>1272</ele>
        <time>2021-08-04T10:58:36.891Z</time>
      </trkpt>
      <trkpt lat="46.9791" lon="8.66812">
        <ele>1273</ele>
        <time>2021-08-04T10:58:37.890Z</time>
      </trkpt>
      <trkpt lat="46.97906" lon="8.6681">
        <ele>1274</ele>
        <time>2021-08-04T10:58:38.891Z</time>
      </trkpt>
      <trkpt lat="46.97902" lon="8.66809">
        <ele>1275</ele>
        <time>2021-08-04T10:58:39.891Z</time>
      </trkpt>
      <trkpt lat="46.97898" lon="8.66807">
        <ele>1276</ele>
        <time>2021-08-04T10:58:40.890Z</time>
      </trkpt>
      <trkpt lat="46.97894" lon="8.66805">
        <ele>1277</ele>
        <time>2021-08-04T10:58:41.891Z</time>
      </trkpt>
      <trkpt lat="46.97889" lon="8.66803">
        <ele>1278</ele>
        <time>2021-08-04T10:58:42.890Z</time>
      </trkpt>
      <trkpt lat="46.97885" lon="8.66801">
        <ele>1280</ele>
        <time>2021-08-04T10:58:43.890Z</time>
      </trkpt>
      <trkpt lat="46.97881" lon="8.668">
        <ele>1281</ele>
        <time>2021-08-04T10:58:44.890Z</time>
      </trkpt>
      <trkpt lat="46.97877" lon="8.66798">
        <ele>1282</ele>
        <time>2021-08-04T10:58:45.891Z</time>
      </trkpt>
      <trkpt lat="46.97873" lon="8.66796">
        <ele>1283</ele>
        <time>2021-08-04T10:58:46.891Z</time>
      </trkpt>
      <trkpt lat="46.97869" lon="8.66795">
        <ele>1284</ele>
        <time>2021-08-04T10:58:47.891Z</time>
      </trkpt>
      <trkpt lat="46.97866" lon="8.66793">
        <ele>1284</ele>
        <time>2021-08-04T10:58:48.890Z</time>
      </trkpt>
      <trkpt lat="46.97863" lon="8.66792">
        <ele>1285</ele>
        <time>2021-08-04T10:58:49.890Z</time>
      </trkpt>
      <trkpt lat="46.9786" lon="8.66791">
        <ele>1285</ele>
        <time>2021-08-04T10:58:50.891Z</time>
      </trkpt>
      <trkpt lat="46.97858" lon="8.66789">
        <ele>1285</ele>
        <time>2021-08-04T10:58:51.890Z</time>
      </trkpt>
      <trkpt lat="46.97856" lon="8.66789">
        <ele>1286</ele>
        <time>2021-08-04T10:58:52.890Z</time>
      </trkpt>
      <trkpt lat="46.97854" lon="8.66788">
        <ele>1286</ele>
        <time>2021-08-04T10:58:53.890Z</time>
      </trkpt>
      <trkpt lat="46.97852" lon="8.66787">
        <ele>1287</ele>
        <time>2021-08-04T10:58:54.890Z</time>
      </trkpt>
      <trkpt lat="46.97851" lon="8.66786">
        <ele>1288</ele>
        <time>2021-08-04T10:58:55.891Z</time>
      </trkpt>
      <trkpt lat="46.9785" lon="8.66786">
        <ele>1289</ele>
        <time>2021-08-04T10:58:56.891Z</time>
      </trkpt>
      <trkpt lat="46.97849" lon="8.66785">
        <ele>1290</ele>
        <time>2021-08-04T10:58:57.891Z</time>
      </trkpt>
      <trkpt lat="46.97848" lon="8.66785">
        <ele>1291</ele>
        <time>2021-08-04T10:58:58.891Z</time>
      </trkpt>
      <trkpt lat="46.97847" lon="8.66785">
        <ele>1291</ele>
        <time>2021-08-04T10:58:59.891Z</time>
      </trkpt>
      <trkpt lat="46.97847" lon="8.66785">
        <ele>1292</ele>
        <time>2021-08-04T10:59:00.890Z</time>
      </trkpt>
      <trkpt lat="46.97845" lon="8.66785">
        <ele>1293</ele>
        <time>2021-08-04T10:59:01.891Z</time>
      </trkpt>
      <trkpt lat="46.97844" lon="8.66785">
        <ele>1294</ele>
        <time>2021-08-04T10:59:02.890Z</time>
      </trkpt>
      <trkpt lat="46.97843" lon="8.66785">
        <ele>1295</ele>
        <time>2021-08-04T10:59:03.891Z</time>
      </trkpt>
      <trkpt lat="46.97842" lon="8.66786">
        <ele>1296</ele>
        <time>2021-08-04T10:59:04.890Z</time>
      </trkpt>
      <trkpt lat="46.97841" lon="8.66786">
        <ele>1297</ele>
        <time>2021-08-04T10:59:05.891Z</time>
      </trkpt>
      <trkpt lat="46.97841" lon="8.66785">
        <ele>1298</ele>
        <time>2021-08-04T10:59:06.891Z</time>
      </trkpt>
      <trkpt lat="46.97841" lon="8.66785">
        <ele>1299</ele>
        <time>2021-08-04T10:59:07.890Z</time>
      </trkpt>
      <trkpt lat="46.9784" lon="8.66785">
        <ele>1300</ele>
        <time>2021-08-04T10:59:08.891Z</time>
      </trkpt>
      <trkpt lat="46.97839" lon="8.66784">
        <ele>1300</ele>
        <time>2021-08-04T10:59:09.891Z</time>
      </trkpt>
      <trkpt lat="46.97839" lon="8.66784">
        <ele>1301</ele>
        <time>2021-08-04T10:59:10.891Z</time>
      </trkpt>
      <trkpt lat="46.97839" lon="8.66783">
        <ele>1301</ele>
        <time>2021-08-04T10:59:11.890Z</time>
      </trkpt>
      <trkpt lat="46.97838" lon="8.66783">
        <ele>1302</ele>
        <time>2021-08-04T10:59:12.890Z</time>
      </trkpt>
      <trkpt lat="46.97838" lon="8.66783">
        <ele>1302</ele>
        <time>2021-08-04T10:59:13.890Z</time>
      </trkpt>
      <trkpt lat="46.97838" lon="8.66783">
        <ele>1303</ele>
        <time>2021-08-04T10:59:14.891Z</time>
      </trkpt>
      <trkpt lat="46.97837" lon="8.66783">
        <ele>1303</ele>
        <time>2021-08-04T10:59:15.890Z</time>
      </trkpt>
      <trkpt lat="46.97837" lon="8.66782">
        <ele>1304</ele>
        <time>2021-08-04T10:59:16.890Z</time>
      </trkpt>
      <trkpt lat="46.97838" lon="8.66782">
        <ele>1304</ele>
        <time>2021-08-04T10:59:17.890Z</time>
      </trkpt>
      <trkpt lat="46.97838" lon="8.66782">
        <ele>1305</ele>
        <time>2021-08-04T10:59:18.891Z</time>
      </trkpt>
      <trkpt lat="46.97838" lon="8.66781">
        <ele>1306</ele>
        <time>2021-08-04T10:59:19.891Z</time>
      </trkpt>
      <trkpt lat="46.97838" lon="8.6678">
        <ele>1306</ele>
        <time>2021-08-04T10:59:20.890Z</time>
      </trkpt>
      <trkpt lat="46.97839" lon="8.6678">
        <ele>1307</ele>
        <time>2021-08-04T10:59:21.891Z</time>
      </trkpt>
      <trkpt lat="46.9784" lon="8.6678">
        <ele>1307</ele>
        <time>2021-08-04T10:59:22.891Z</time>
      </trkpt>
      <trkpt lat="46.97841" lon="8.66779">
        <ele>1307</ele>
        <time>2021-08-04T10:59:23.890Z</time>
      </trkpt>
      <trkpt lat="46.9784" lon="8.66779">
        <ele>1308</ele>
        <time>2021-08-04T10:59:24.891Z</time>
      </trkpt>
      <trkpt lat="46.97839" lon="8.66779">
        <ele>1308</ele>
        <time>2021-08-04T10:59:25.890Z</time>
      </trkpt>
      <trkpt lat="46.97838" lon="8.66781">
        <ele>1309</ele>
        <time>2021-08-04T10:59:30.891Z</time>
      </trkpt>
      <trkpt lat="46.97837" lon="8.66781">
        <ele>1309</ele>
        <time>2021-08-04T10:59:31.891Z</time>
      </trkpt>
      <trkpt lat="46.97836" lon="8.66779">
        <ele>1309</ele>
        <time>2021-08-04T10:59:32.891Z</time>
      </trkpt>
      <trkpt lat="46.97835" lon="8.66779">
        <ele>1309</ele>
        <time>2021-08-04T10:59:33.891Z</time>
      </trkpt>
      <trkpt lat="46.97834" lon="8.66779">
        <ele>1309</ele>
        <time>2021-08-04T10:59:34.891Z</time>
      </trkpt>
      <trkpt lat="46.97834" lon="8.6678">
        <ele>1309</ele>
        <time>2021-08-04T10:59:35.890Z</time>
      </trkpt>
      <trkpt lat="46.97834" lon="8.6678">
        <ele>1309</ele>
        <time>2021-08-04T10:59:36.891Z</time>
      </trkpt>
      <trkpt lat="46.97833" lon="8.66781">
        <ele>1309</ele>
        <time>2021-08-04T10:59:37.891Z</time>
      </trkpt>
      <trkpt lat="46.97833" lon="8.66782">
        <ele>1309</ele>
        <time>2021-08-04T10:59:38.891Z</time>
      </trkpt>
      <trkpt lat="46.97833" lon="8.66782">
        <ele>1309</ele>
        <time>2021-08-04T10:59:39.891Z</time>
      </trkpt>
      <trkpt lat="46.97832" lon="8.66782">
        <ele>1308</ele>
        <time>2021-08-04T10:59:40.890Z</time>
      </trkpt>
      <trkpt lat="46.97829" lon="8.66785">
        <ele>1304</ele>
        <time>2021-08-04T10:59:41.891Z</time>
      </trkpt>
      <trkpt lat="46.97829" lon="8.66786">
        <ele>1303</ele>
        <time>2021-08-04T10:59:42.891Z</time>
      </trkpt>
      <trkpt lat="46.97829" lon="8.66787">
        <ele>1301</ele>
        <time>2021-08-04T10:59:43.890Z</time>
      </trkpt>
      <trkpt lat="46.9783" lon="8.66788">
        <ele>1300</ele>
        <time>2021-08-04T10:59:44.891Z</time>
      </trkpt>
      <trkpt lat="46.9783" lon="8.66788">
        <ele>1299</ele>
        <time>2021-08-04T10:59:45.890Z</time>
      </trkpt>
      <trkpt lat="46.97829" lon="8.66788">
        <ele>1297</ele>
        <time>2021-08-04T10:59:46.890Z</time>
      </trkpt>
      <trkpt lat="46.97829" lon="8.66787">
        <ele>1296</ele>
        <time>2021-08-04T10:59:47.890Z</time>
      </trkpt>
      <trkpt lat="46.97828" lon="8.66786">
        <ele>1295</ele>
        <time>2021-08-04T10:59:48.890Z</time>
      </trkpt>
      <trkpt lat="46.97828" lon="8.66786">
        <ele>1294</ele>
        <time>2021-08-04T10:59:49.890Z</time>
      </trkpt>
      <trkpt lat="46.97827" lon="8.66786">
        <ele>1293</ele>
        <time>2021-08-04T10:59:50.890Z</time>
      </trkpt>
      <trkpt lat="46.97827" lon="8.66786">
        <ele>1292</ele>
        <time>2021-08-04T10:59:51.890Z</time>
      </trkpt>
      <trkpt lat="46.97827" lon="8.66785">
        <ele>1291</ele>
        <time>2021-08-04T10:59:52.891Z</time>
      </trkpt>
      <trkpt lat="46.97826" lon="8.66785">
        <ele>1291</ele>
        <time>2021-08-04T10:59:53.891Z</time>
      </trkpt>
      <trkpt lat="46.97826" lon="8.66784">
        <ele>1291</ele>
        <time>2021-08-04T10:59:54.891Z</time>
      </trkpt>
      <trkpt lat="46.97825" lon="8.66783">
        <ele>1290</ele>
        <time>2021-08-04T10:59:55.891Z</time>
      </trkpt>
      <trkpt lat="46.97824" lon="8.66784">
        <ele>1290</ele>
        <time>2021-08-04T11:00:00.054Z</time>
      </trkpt>
      <trkpt lat="46.97823" lon="8.66786">
        <ele>1291</ele>
        <time>2021-08-04T11:00:01.053Z</time>
      </trkpt>
      <trkpt lat="46.97823" lon="8.66789">
        <ele>1291</ele>
        <time>2021-08-04T11:00:02.053Z</time>
      </trkpt>
      <trkpt lat="46.97822" lon="8.6679">
        <ele>1291</ele>
        <time>2021-08-04T11:00:03.053Z</time>
      </trkpt>
      <trkpt lat="46.97822" lon="8.66792">
        <ele>1291</ele>
        <time>2021-08-04T11:00:04.054Z</time>
      </trkpt>
      <trkpt lat="46.97821" lon="8.66793">
        <ele>1291</ele>
        <time>2021-08-04T11:00:05.054Z</time>
      </trkpt>
      <trkpt lat="46.9782" lon="8.66794">
        <ele>1291</ele>
        <time>2021-08-04T11:00:06.053Z</time>
      </trkpt>
      <trkpt lat="46.9782" lon="8.66794">
        <ele>1292</ele>
        <time>2021-08-04T11:00:07.054Z</time>
      </trkpt>
      <trkpt lat="46.97819" lon="8.66794">
        <ele>1292</ele>
        <time>2021-08-04T11:00:08.054Z</time>
      </trkpt>
      <trkpt lat="46.97818" lon="8.66795">
        <ele>1292</ele>
        <time>2021-08-04T11:00:09.054Z</time>
      </trkpt>
      <trkpt lat="46.97817" lon="8.66794">
        <ele>1292</ele>
        <time>2021-08-04T11:00:10.054Z</time>
      </trkpt>
      <trkpt lat="46.97816" lon="8.66793">
        <ele>1292</ele>
        <time>2021-08-04T11:00:11.054Z</time>
      </trkpt>
      <trkpt lat="46.97816" lon="8.66792">
        <ele>1293</ele>
        <time>2021-08-04T11:00:12.054Z</time>
      </trkpt>
      <trkpt lat="46.97815" lon="8.66791">
        <ele>1293</ele>
        <time>2021-08-04T11:00:13.054Z</time>
      </trkpt>
      <trkpt lat="46.97814" lon="8.6679">
        <ele>1293</ele>
        <time>2021-08-04T11:00:14.054Z</time>
      </trkpt>
      <trkpt lat="46.97809" lon="8.66785">
        <ele>1293</ele>
        <time>2021-08-04T11:00:15.053Z</time>
      </trkpt>
      <trkpt lat="46.97808" lon="8.66785">
        <ele>1293</ele>
        <time>2021-08-04T11:00:16.053Z</time>
      </trkpt>
      <trkpt lat="46.97807" lon="8.66785">
        <ele>1294</ele>
        <time>2021-08-04T11:00:17.053Z</time>
      </trkpt>
      <trkpt lat="46.97806" lon="8.66784">
        <ele>1295</ele>
        <time>2021-08-04T11:00:20.164Z</time>
      </trkpt>
      <trkpt lat="46.97805" lon="8.66784">
        <ele>1295</ele>
        <time>2021-08-04T11:00:21.164Z</time>
      </trkpt>
      <trkpt lat="46.97805" lon="8.66784">
        <ele>1296</ele>
        <time>2021-08-04T11:00:38.053Z</time>
      </trkpt>
      <trkpt lat="46.97804" lon="8.66784">
        <ele>1297</ele>
        <time>2021-08-04T11:00:39.052Z</time>
      </trkpt>
      <trkpt lat="46.97803" lon="8.66784">
        <ele>1297</ele>
        <time>2021-08-04T11:00:40.052Z</time>
      </trkpt>
      <trkpt lat="46.97802" lon="8.66785">
        <ele>1298</ele>
        <time>2021-08-04T11:00:41.053Z</time>
      </trkpt>
      <trkpt lat="46.97801" lon="8.66785">
        <ele>1299</ele>
        <time>2021-08-04T11:00:42.052Z</time>
      </trkpt>
      <trkpt lat="46.978" lon="8.66785">
        <ele>1299</ele>
        <time>2021-08-04T11:00:43.053Z</time>
      </trkpt>
      <trkpt lat="46.97799" lon="8.66784">
        <ele>1299</ele>
        <time>2021-08-04T11:00:44.053Z</time>
      </trkpt>
      <trkpt lat="46.97798" lon="8.66784">
        <ele>1299</ele>
        <time>2021-08-04T11:00:45.053Z</time>
      </trkpt>
      <trkpt lat="46.97797" lon="8.66783">
        <ele>1300</ele>
        <time>2021-08-04T11:00:46.053Z</time>
      </trkpt>
      <trkpt lat="46.97796" lon="8.66782">
        <ele>1300</ele>
        <time>2021-08-04T11:00:47.053Z</time>
      </trkpt>
      <trkpt lat="46.97794" lon="8.66781">
        <ele>1300</ele>
        <time>2021-08-04T11:00:48.052Z</time>
      </trkpt>
      <trkpt lat="46.97793" lon="8.6678">
        <ele>1300</ele>
        <time>2021-08-04T11:00:49.053Z</time>
      </trkpt>
      <trkpt lat="46.97792" lon="8.66779">
        <ele>1300</ele>
        <time>2021-08-04T11:00:50.052Z</time>
      </trkpt>
      <trkpt lat="46.9779" lon="8.66778">
        <ele>1301</ele>
        <time>2021-08-04T11:00:51.053Z</time>
      </trkpt>
      <trkpt lat="46.97789" lon="8.66778">
        <ele>1301</ele>
        <time>2021-08-04T11:00:52.052Z</time>
      </trkpt>
      <trkpt lat="46.97787" lon="8.66777">
        <ele>1302</ele>
        <time>2021-08-04T11:00:53.052Z</time>
      </trkpt>
      <trkpt lat="46.97786" lon="8.66776">
        <ele>1302</ele>
        <time>2021-08-04T11:00:54.053Z</time>
      </trkpt>
      <trkpt lat="46.97784" lon="8.66777">
        <ele>1303</ele>
        <time>2021-08-04T11:00:55.052Z</time>
      </trkpt>
      <trkpt lat="46.97783" lon="8.66778">
        <ele>1303</ele>
        <time>2021-08-04T11:00:56.053Z</time>
      </trkpt>
      <trkpt lat="46.97782" lon="8.66777">
        <ele>1304</ele>
        <time>2021-08-04T11:00:57.053Z</time>
      </trkpt>
      <trkpt lat="46.97781" lon="8.66774">
        <ele>1304</ele>
        <time>2021-08-04T11:00:58.053Z</time>
      </trkpt>
      <trkpt lat="46.97781" lon="8.66771">
        <ele>1305</ele>
        <time>2021-08-04T11:00:59.052Z</time>
      </trkpt>
      <trkpt lat="46.97781" lon="8.66769">
        <ele>1305</ele>
        <time>2021-08-04T11:01:00.053Z</time>
      </trkpt>
      <trkpt lat="46.97781" lon="8.66767">
        <ele>1305</ele>
        <time>2021-08-04T11:01:01.053Z</time>
      </trkpt>
      <trkpt lat="46.9778" lon="8.66765">
        <ele>1305</ele>
        <time>2021-08-04T11:01:02.052Z</time>
      </trkpt>
      <trkpt lat="46.9778" lon="8.66763">
        <ele>1306</ele>
        <time>2021-08-04T11:01:03.053Z</time>
      </trkpt>
      <trkpt lat="46.9778" lon="8.66762">
        <ele>1306</ele>
        <time>2021-08-04T11:01:04.053Z</time>
      </trkpt>
      <trkpt lat="46.97779" lon="8.66761">
        <ele>1306</ele>
        <time>2021-08-04T11:01:05.052Z</time>
      </trkpt>
      <trkpt lat="46.97779" lon="8.6676">
        <ele>1307</ele>
        <time>2021-08-04T11:01:06.053Z</time>
      </trkpt>
      <trkpt lat="46.97777" lon="8.6676">
        <ele>1307</ele>
        <time>2021-08-04T11:01:07.052Z</time>
      </trkpt>
      <trkpt lat="46.97776" lon="8.66759">
        <ele>1306</ele>
        <time>2021-08-04T11:01:08.053Z</time>
      </trkpt>
      <trkpt lat="46.97775" lon="8.66758">
        <ele>1306</ele>
        <time>2021-08-04T11:01:09.053Z</time>
      </trkpt>
      <trkpt lat="46.97774" lon="8.66757">
        <ele>1306</ele>
        <time>2021-08-04T11:01:10.052Z</time>
      </trkpt>
      <trkpt lat="46.97773" lon="8.66757">
        <ele>1306</ele>
        <time>2021-08-04T11:01:11.053Z</time>
      </trkpt>
      <trkpt lat="46.97772" lon="8.66756">
        <ele>1306</ele>
        <time>2021-08-04T11:01:12.053Z</time>
      </trkpt>
      <trkpt lat="46.97771" lon="8.66756">
        <ele>1306</ele>
        <time>2021-08-04T11:01:13.053Z</time>
      </trkpt>
      <trkpt lat="46.9777" lon="8.66755">
        <ele>1306</ele>
        <time>2021-08-04T11:01:14.053Z</time>
      </trkpt>
      <trkpt lat="46.9777" lon="8.66754">
        <ele>1306</ele>
        <time>2021-08-04T11:01:15.053Z</time>
      </trkpt>
      <trkpt lat="46.97769" lon="8.66753">
        <ele>1305</ele>
        <time>2021-08-04T11:01:16.052Z</time>
      </trkpt>
      <trkpt lat="46.97768" lon="8.66752">
        <ele>1305</ele>
        <time>2021-08-04T11:01:17.052Z</time>
      </trkpt>
      <trkpt lat="46.97768" lon="8.66751">
        <ele>1305</ele>
        <time>2021-08-04T11:01:18.052Z</time>
      </trkpt>
      <trkpt lat="46.97767" lon="8.6675">
        <ele>1305</ele>
        <time>2021-08-04T11:01:19.053Z</time>
      </trkpt>
      <trkpt lat="46.97766" lon="8.66749">
        <ele>1305</ele>
        <time>2021-08-04T11:01:20.052Z</time>
      </trkpt>
      <trkpt lat="46.97765" lon="8.66749">
        <ele>1306</ele>
        <time>2021-08-04T11:01:21.053Z</time>
      </trkpt>
      <trkpt lat="46.97764" lon="8.66748">
        <ele>1306</ele>
        <time>2021-08-04T11:01:22.052Z</time>
      </trkpt>
      <trkpt lat="46.97763" lon="8.66746">
        <ele>1307</ele>
        <time>2021-08-04T11:01:23.053Z</time>
      </trkpt>
      <trkpt lat="46.97763" lon="8.66745">
        <ele>1307</ele>
        <time>2021-08-04T11:01:24.052Z</time>
      </trkpt>
      <trkpt lat="46.97762" lon="8.66744">
        <ele>1307</ele>
        <time>2021-08-04T11:01:25.053Z</time>
      </trkpt>
      <trkpt lat="46.97762" lon="8.66743">
        <ele>1307</ele>
        <time>2021-08-04T11:01:26.052Z</time>
      </trkpt>
      <trkpt lat="46.97761" lon="8.6674">
        <ele>1307</ele>
        <time>2021-08-04T11:01:27.053Z</time>
      </trkpt>
      <trkpt lat="46.97761" lon="8.66739">
        <ele>1307</ele>
        <time>2021-08-04T11:01:28.053Z</time>
      </trkpt>
      <trkpt lat="46.97759" lon="8.66738">
        <ele>1307</ele>
        <time>2021-08-04T11:01:29.052Z</time>
      </trkpt>
      <trkpt lat="46.97758" lon="8.66737">
        <ele>1307</ele>
        <time>2021-08-04T11:01:30.053Z</time>
      </trkpt>
      <trkpt lat="46.97757" lon="8.66736">
        <ele>1307</ele>
        <time>2021-08-04T11:01:31.053Z</time>
      </trkpt>
      <trkpt lat="46.97756" lon="8.66735">
        <ele>1307</ele>
        <time>2021-08-04T11:01:32.053Z</time>
      </trkpt>
      <trkpt lat="46.97756" lon="8.66735">
        <ele>1307</ele>
        <time>2021-08-04T11:01:33.052Z</time>
      </trkpt>
      <trkpt lat="46.97755" lon="8.66735">
        <ele>1307</ele>
        <time>2021-08-04T11:01:34.053Z</time>
      </trkpt>
      <trkpt lat="46.97754" lon="8.66735">
        <ele>1307</ele>
        <time>2021-08-04T11:01:35.053Z</time>
      </trkpt>
      <trkpt lat="46.97753" lon="8.66735">
        <ele>1307</ele>
        <time>2021-08-04T11:01:36.053Z</time>
      </trkpt>
      <trkpt lat="46.97753" lon="8.66735">
        <ele>1308</ele>
        <time>2021-08-04T11:01:37.053Z</time>
      </trkpt>
      <trkpt lat="46.97752" lon="8.66734">
        <ele>1308</ele>
        <time>2021-08-04T11:01:38.053Z</time>
      </trkpt>
      <trkpt lat="46.97751" lon="8.66733">
        <ele>1308</ele>
        <time>2021-08-04T11:01:39.053Z</time>
      </trkpt>
      <trkpt lat="46.97751" lon="8.66731">
        <ele>1307</ele>
        <time>2021-08-04T11:01:40.052Z</time>
      </trkpt>
      <trkpt lat="46.97751" lon="8.66731">
        <ele>1307</ele>
        <time>2021-08-04T11:01:41.053Z</time>
      </trkpt>
      <trkpt lat="46.9775" lon="8.6673">
        <ele>1307</ele>
        <time>2021-08-04T11:01:42.052Z</time>
      </trkpt>
      <trkpt lat="46.9775" lon="8.66728">
        <ele>1307</ele>
        <time>2021-08-04T11:01:43.053Z</time>
      </trkpt>
      <trkpt lat="46.9775" lon="8.66727">
        <ele>1307</ele>
        <time>2021-08-04T11:01:44.053Z</time>
      </trkpt>
      <trkpt lat="46.9775" lon="8.66725">
        <ele>1307</ele>
        <time>2021-08-04T11:01:45.052Z</time>
      </trkpt>
      <trkpt lat="46.9775" lon="8.66724">
        <ele>1307</ele>
        <time>2021-08-04T11:01:46.053Z</time>
      </trkpt>
      <trkpt lat="46.9775" lon="8.66723">
        <ele>1307</ele>
        <time>2021-08-04T11:01:47.053Z</time>
      </trkpt>
      <trkpt lat="46.9775" lon="8.66721">
        <ele>1308</ele>
        <time>2021-08-04T11:01:48.052Z</time>
      </trkpt>
      <trkpt lat="46.9775" lon="8.6672">
        <ele>1308</ele>
        <time>2021-08-04T11:01:49.052Z</time>
      </trkpt>
      <trkpt lat="46.9775" lon="8.66719">
        <ele>1308</ele>
        <time>2021-08-04T11:01:50.053Z</time>
      </trkpt>
      <trkpt lat="46.9775" lon="8.66718">
        <ele>1308</ele>
        <time>2021-08-04T11:01:51.053Z</time>
      </trkpt>
      <trkpt lat="46.9775" lon="8.66715">
        <ele>1308</ele>
        <time>2021-08-04T11:01:52.053Z</time>
      </trkpt>
      <trkpt lat="46.9775" lon="8.66714">
        <ele>1308</ele>
        <time>2021-08-04T11:01:53.053Z</time>
      </trkpt>
      <trkpt lat="46.9775" lon="8.66713">
        <ele>1308</ele>
        <time>2021-08-04T11:01:54.053Z</time>
      </trkpt>
      <trkpt lat="46.9775" lon="8.66711">
        <ele>1307</ele>
        <time>2021-08-04T11:01:55.053Z</time>
      </trkpt>
      <trkpt lat="46.9775" lon="8.66711">
        <ele>1307</ele>
        <time>2021-08-04T11:01:56.053Z</time>
      </trkpt>
      <trkpt lat="46.9775" lon="8.6671">
        <ele>1307</ele>
        <time>2021-08-04T11:01:57.052Z</time>
      </trkpt>
      <trkpt lat="46.97751" lon="8.66709">
        <ele>1307</ele>
        <time>2021-08-04T11:01:58.053Z</time>
      </trkpt>
      <trkpt lat="46.97751" lon="8.66707">
        <ele>1307</ele>
        <time>2021-08-04T11:01:59.052Z</time>
      </trkpt>
      <trkpt lat="46.97751" lon="8.66706">
        <ele>1307</ele>
        <time>2021-08-04T11:02:00.052Z</time>
      </trkpt>
      <trkpt lat="46.97751" lon="8.66705">
        <ele>1307</ele>
        <time>2021-08-04T11:02:01.053Z</time>
      </trkpt>
      <trkpt lat="46.97752" lon="8.66704">
        <ele>1307</ele>
        <time>2021-08-04T11:02:02.052Z</time>
      </trkpt>
      <trkpt lat="46.97752" lon="8.66703">
        <ele>1307</ele>
        <time>2021-08-04T11:02:03.053Z</time>
      </trkpt>
      <trkpt lat="46.97752" lon="8.66702">
        <ele>1307</ele>
        <time>2021-08-04T11:02:04.053Z</time>
      </trkpt>
      <trkpt lat="46.97752" lon="8.66701">
        <ele>1307</ele>
        <time>2021-08-04T11:02:05.053Z</time>
      </trkpt>
      <trkpt lat="46.97752" lon="8.66699">
        <ele>1307</ele>
        <time>2021-08-04T11:02:06.053Z</time>
      </trkpt>
      <trkpt lat="46.97753" lon="8.66698">
        <ele>1307</ele>
        <time>2021-08-04T11:02:07.053Z</time>
      </trkpt>
      <trkpt lat="46.97753" lon="8.66696">
        <ele>1307</ele>
        <time>2021-08-04T11:02:08.053Z</time>
      </trkpt>
      <trkpt lat="46.97753" lon="8.66695">
        <ele>1307</ele>
        <time>2021-08-04T11:02:09.052Z</time>
      </trkpt>
      <trkpt lat="46.97754" lon="8.66694">
        <ele>1307</ele>
        <time>2021-08-04T11:02:10.053Z</time>
      </trkpt>
      <trkpt lat="46.97753" lon="8.66692">
        <ele>1306</ele>
        <time>2021-08-04T11:02:11.052Z</time>
      </trkpt>
      <trkpt lat="46.97753" lon="8.66691">
        <ele>1306</ele>
        <time>2021-08-04T11:02:12.052Z</time>
      </trkpt>
      <trkpt lat="46.97753" lon="8.6669">
        <ele>1305</ele>
        <time>2021-08-04T11:02:13.053Z</time>
      </trkpt>
      <trkpt lat="46.97754" lon="8.66689">
        <ele>1304</ele>
        <time>2021-08-04T11:02:14.052Z</time>
      </trkpt>
      <trkpt lat="46.97754" lon="8.66688">
        <ele>1304</ele>
        <time>2021-08-04T11:02:15.053Z</time>
      </trkpt>
      <trkpt lat="46.97755" lon="8.66688">
        <ele>1303</ele>
        <time>2021-08-04T11:02:16.053Z</time>
      </trkpt>
      <trkpt lat="46.97755" lon="8.66686">
        <ele>1303</ele>
        <time>2021-08-04T11:02:17.053Z</time>
      </trkpt>
      <trkpt lat="46.97753" lon="8.66681">
        <ele>1303</ele>
        <time>2021-08-04T11:02:18.053Z</time>
      </trkpt>
      <trkpt lat="46.97753" lon="8.66677">
        <ele>1303</ele>
        <time>2021-08-04T11:02:19.053Z</time>
      </trkpt>
      <trkpt lat="46.97754" lon="8.66673">
        <ele>1302</ele>
        <time>2021-08-04T11:02:20.052Z</time>
      </trkpt>
      <trkpt lat="46.97754" lon="8.66671">
        <ele>1302</ele>
        <time>2021-08-04T11:02:21.053Z</time>
      </trkpt>
      <trkpt lat="46.97754" lon="8.66669">
        <ele>1302</ele>
        <time>2021-08-04T11:02:22.053Z</time>
      </trkpt>
      <trkpt lat="46.97754" lon="8.66668">
        <ele>1302</ele>
        <time>2021-08-04T11:02:23.053Z</time>
      </trkpt>
      <trkpt lat="46.97755" lon="8.66667">
        <ele>1302</ele>
        <time>2021-08-04T11:02:24.052Z</time>
      </trkpt>
      <trkpt lat="46.97755" lon="8.66666">
        <ele>1302</ele>
        <time>2021-08-04T11:02:25.052Z</time>
      </trkpt>
      <trkpt lat="46.97755" lon="8.66665">
        <ele>1302</ele>
        <time>2021-08-04T11:02:26.052Z</time>
      </trkpt>
      <trkpt lat="46.97755" lon="8.66664">
        <ele>1301</ele>
        <time>2021-08-04T11:02:27.053Z</time>
      </trkpt>
      <trkpt lat="46.97755" lon="8.66663">
        <ele>1301</ele>
        <time>2021-08-04T11:02:28.052Z</time>
      </trkpt>
      <trkpt lat="46.97756" lon="8.66661">
        <ele>1301</ele>
        <time>2021-08-04T11:02:29.053Z</time>
      </trkpt>
      <trkpt lat="46.97756" lon="8.6666">
        <ele>1301</ele>
        <time>2021-08-04T11:02:30.052Z</time>
      </trkpt>
      <trkpt lat="46.97757" lon="8.66659">
        <ele>1301</ele>
        <time>2021-08-04T11:02:31.053Z</time>
      </trkpt>
      <trkpt lat="46.97758" lon="8.66658">
        <ele>1301</ele>
        <time>2021-08-04T11:02:32.053Z</time>
      </trkpt>
      <trkpt lat="46.97759" lon="8.66657">
        <ele>1302</ele>
        <time>2021-08-04T11:02:33.053Z</time>
      </trkpt>
      <trkpt lat="46.9776" lon="8.66657">
        <ele>1302</ele>
        <time>2021-08-04T11:02:34.052Z</time>
      </trkpt>
      <trkpt lat="46.9776" lon="8.66656">
        <ele>1302</ele>
        <time>2021-08-04T11:02:35.053Z</time>
      </trkpt>
      <trkpt lat="46.9776" lon="8.66653">
        <ele>1302</ele>
        <time>2021-08-04T11:02:36.053Z</time>
      </trkpt>
      <trkpt lat="46.9776" lon="8.66652">
        <ele>1302</ele>
        <time>2021-08-04T11:02:37.053Z</time>
      </trkpt>
      <trkpt lat="46.97753" lon="8.66658">
        <ele>1301</ele>
        <time>2021-08-04T11:02:38.053Z</time>
      </trkpt>
      <trkpt lat="46.97754" lon="8.66659">
        <ele>1302</ele>
        <time>2021-08-04T11:02:39.052Z</time>
      </trkpt>
      <trkpt lat="46.97754" lon="8.66659">
        <ele>1302</ele>
        <time>2021-08-04T11:02:40.053Z</time>
      </trkpt>
      <trkpt lat="46.97755" lon="8.66658">
        <ele>1303</ele>
        <time>2021-08-04T11:02:41.053Z</time>
      </trkpt>
      <trkpt lat="46.97756" lon="8.66657">
        <ele>1303</ele>
        <time>2021-08-04T11:02:42.053Z</time>
      </trkpt>
      <trkpt lat="46.97757" lon="8.66656">
        <ele>1303</ele>
        <time>2021-08-04T11:02:43.053Z</time>
      </trkpt>
      <trkpt lat="46.97757" lon="8.66655">
        <ele>1302</ele>
        <time>2021-08-04T11:02:44.052Z</time>
      </trkpt>
      <trkpt lat="46.97756" lon="8.66655">
        <ele>1302</ele>
        <time>2021-08-04T11:02:45.052Z</time>
      </trkpt>
      <trkpt lat="46.97756" lon="8.66655">
        <ele>1302</ele>
        <time>2021-08-04T11:02:46.053Z</time>
      </trkpt>
      <trkpt lat="46.97752" lon="8.66649">
        <ele>1306</ele>
        <time>2021-08-04T11:02:47.053Z</time>
      </trkpt>
      <trkpt lat="46.97756" lon="8.66647">
        <ele>1300</ele>
        <time>2021-08-04T11:02:48.053Z</time>
      </trkpt>
      <trkpt lat="46.97756" lon="8.66649">
        <ele>1300</ele>
        <time>2021-08-04T11:02:49.053Z</time>
      </trkpt>
      <trkpt lat="46.97756" lon="8.66648">
        <ele>1300</ele>
        <time>2021-08-04T11:02:50.052Z</time>
      </trkpt>
      <trkpt lat="46.97756" lon="8.66648">
        <ele>1300</ele>
        <time>2021-08-04T11:02:51.052Z</time>
      </trkpt>
      <trkpt lat="46.97755" lon="8.66649">
        <ele>1304</ele>
        <time>2021-08-04T11:02:52.053Z</time>
      </trkpt>
      <trkpt lat="46.97753" lon="8.66648">
        <ele>1304</ele>
        <time>2021-08-04T11:02:53.053Z</time>
      </trkpt>
      <trkpt lat="46.97751" lon="8.66646">
        <ele>1304</ele>
        <time>2021-08-04T11:02:54.053Z</time>
      </trkpt>
      <trkpt lat="46.9775" lon="8.66646">
        <ele>1304</ele>
        <time>2021-08-04T11:02:55.054Z</time>
      </trkpt>
      <trkpt lat="46.97749" lon="8.66645">
        <ele>1304</ele>
        <time>2021-08-04T11:02:56.054Z</time>
      </trkpt>
      <trkpt lat="46.97748" lon="8.66644">
        <ele>1304</ele>
        <time>2021-08-04T11:02:57.054Z</time>
      </trkpt>
      <trkpt lat="46.97746" lon="8.66643">
        <ele>1304</ele>
        <time>2021-08-04T11:02:58.054Z</time>
      </trkpt>
      <trkpt lat="46.97745" lon="8.66643">
        <ele>1304</ele>
        <time>2021-08-04T11:02:59.054Z</time>
      </trkpt>
      <trkpt lat="46.97744" lon="8.66642">
        <ele>1304</ele>
        <time>2021-08-04T11:03:00.054Z</time>
      </trkpt>
      <trkpt lat="46.97743" lon="8.66642">
        <ele>1305</ele>
        <time>2021-08-04T11:03:01.053Z</time>
      </trkpt>
      <trkpt lat="46.97742" lon="8.66641">
        <ele>1306</ele>
        <time>2021-08-04T11:03:02.053Z</time>
      </trkpt>
      <trkpt lat="46.9774" lon="8.6664">
        <ele>1306</ele>
        <time>2021-08-04T11:03:03.053Z</time>
      </trkpt>
      <trkpt lat="46.97739" lon="8.6664">
        <ele>1307</ele>
        <time>2021-08-04T11:03:04.054Z</time>
      </trkpt>
      <trkpt lat="46.97737" lon="8.66639">
        <ele>1307</ele>
        <time>2021-08-04T11:03:05.054Z</time>
      </trkpt>
      <trkpt lat="46.97736" lon="8.66637">
        <ele>1308</ele>
        <time>2021-08-04T11:03:06.054Z</time>
      </trkpt>
      <trkpt lat="46.97735" lon="8.66636">
        <ele>1309</ele>
        <time>2021-08-04T11:03:07.053Z</time>
      </trkpt>
      <trkpt lat="46.97734" lon="8.66635">
        <ele>1309</ele>
        <time>2021-08-04T11:03:08.054Z</time>
      </trkpt>
      <trkpt lat="46.97733" lon="8.66634">
        <ele>1310</ele>
        <time>2021-08-04T11:03:09.053Z</time>
      </trkpt>
      <trkpt lat="46.97731" lon="8.66634">
        <ele>1310</ele>
        <time>2021-08-04T11:03:10.053Z</time>
      </trkpt>
      <trkpt lat="46.9773" lon="8.66633">
        <ele>1310</ele>
        <time>2021-08-04T11:03:11.053Z</time>
      </trkpt>
      <trkpt lat="46.97729" lon="8.66632">
        <ele>1311</ele>
        <time>2021-08-04T11:03:12.053Z</time>
      </trkpt>
      <trkpt lat="46.97728" lon="8.66632">
        <ele>1311</ele>
        <time>2021-08-04T11:03:13.054Z</time>
      </trkpt>
      <trkpt lat="46.97727" lon="8.66631">
        <ele>1311</ele>
        <time>2021-08-04T11:03:14.054Z</time>
      </trkpt>
      <trkpt lat="46.97725" lon="8.66631">
        <ele>1312</ele>
        <time>2021-08-04T11:03:15.053Z</time>
      </trkpt>
      <trkpt lat="46.97724" lon="8.6663">
        <ele>1312</ele>
        <time>2021-08-04T11:03:16.053Z</time>
      </trkpt>
      <trkpt lat="46.97723" lon="8.66629">
        <ele>1313</ele>
        <time>2021-08-04T11:03:17.054Z</time>
      </trkpt>
      <trkpt lat="46.97722" lon="8.66628">
        <ele>1312</ele>
        <time>2021-08-04T11:03:18.053Z</time>
      </trkpt>
      <trkpt lat="46.97721" lon="8.66627">
        <ele>1311</ele>
        <time>2021-08-04T11:03:19.054Z</time>
      </trkpt>
      <trkpt lat="46.9772" lon="8.66626">
        <ele>1310</ele>
        <time>2021-08-04T11:03:20.053Z</time>
      </trkpt>
      <trkpt lat="46.97719" lon="8.66626">
        <ele>1309</ele>
        <time>2021-08-04T11:03:21.053Z</time>
      </trkpt>
      <trkpt lat="46.97718" lon="8.66625">
        <ele>1308</ele>
        <time>2021-08-04T11:03:22.053Z</time>
      </trkpt>
      <trkpt lat="46.97717" lon="8.66624">
        <ele>1307</ele>
        <time>2021-08-04T11:03:23.054Z</time>
      </trkpt>
      <trkpt lat="46.97716" lon="8.66624">
        <ele>1307</ele>
        <time>2021-08-04T11:03:24.054Z</time>
      </trkpt>
      <trkpt lat="46.97715" lon="8.66624">
        <ele>1306</ele>
        <time>2021-08-04T11:03:25.054Z</time>
      </trkpt>
      <trkpt lat="46.97713" lon="8.66623">
        <ele>1306</ele>
        <time>2021-08-04T11:03:26.054Z</time>
      </trkpt>
      <trkpt lat="46.97712" lon="8.66623">
        <ele>1306</ele>
        <time>2021-08-04T11:03:27.054Z</time>
      </trkpt>
      <trkpt lat="46.97711" lon="8.66622">
        <ele>1307</ele>
        <time>2021-08-04T11:03:28.053Z</time>
      </trkpt>
      <trkpt lat="46.9771" lon="8.66622">
        <ele>1307</ele>
        <time>2021-08-04T11:03:29.054Z</time>
      </trkpt>
      <trkpt lat="46.97709" lon="8.6662">
        <ele>1308</ele>
        <time>2021-08-04T11:03:30.053Z</time>
      </trkpt>
      <trkpt lat="46.97708" lon="8.66619">
        <ele>1308</ele>
        <time>2021-08-04T11:03:31.054Z</time>
      </trkpt>
      <trkpt lat="46.97707" lon="8.66619">
        <ele>1308</ele>
        <time>2021-08-04T11:03:32.053Z</time>
      </trkpt>
      <trkpt lat="46.97706" lon="8.66618">
        <ele>1308</ele>
        <time>2021-08-04T11:03:33.054Z</time>
      </trkpt>
      <trkpt lat="46.97705" lon="8.66617">
        <ele>1308</ele>
        <time>2021-08-04T11:03:34.053Z</time>
      </trkpt>
      <trkpt lat="46.97705" lon="8.66617">
        <ele>1309</ele>
        <time>2021-08-04T11:03:35.054Z</time>
      </trkpt>
      <trkpt lat="46.97704" lon="8.66616">
        <ele>1309</ele>
        <time>2021-08-04T11:03:36.054Z</time>
      </trkpt>
      <trkpt lat="46.97704" lon="8.66616">
        <ele>1310</ele>
        <time>2021-08-04T11:03:37.054Z</time>
      </trkpt>
      <trkpt lat="46.97703" lon="8.66615">
        <ele>1310</ele>
        <time>2021-08-04T11:03:39.164Z</time>
      </trkpt>
      <trkpt lat="46.97703" lon="8.66615">
        <ele>1311</ele>
        <time>2021-08-04T11:03:40.165Z</time>
      </trkpt>
      <trkpt lat="46.97701" lon="8.66616">
        <ele>1311</ele>
        <time>2021-08-04T11:03:41.165Z</time>
      </trkpt>
      <trkpt lat="46.97699" lon="8.66615">
        <ele>1312</ele>
        <time>2021-08-04T11:03:42.165Z</time>
      </trkpt>
      <trkpt lat="46.97698" lon="8.66614">
        <ele>1313</ele>
        <time>2021-08-04T11:03:43.165Z</time>
      </trkpt>
      <trkpt lat="46.97697" lon="8.66613">
        <ele>1314</ele>
        <time>2021-08-04T11:03:44.165Z</time>
      </trkpt>
      <trkpt lat="46.97695" lon="8.66612">
        <ele>1315</ele>
        <time>2021-08-04T11:03:45.164Z</time>
      </trkpt>
      <trkpt lat="46.97694" lon="8.66611">
        <ele>1316</ele>
        <time>2021-08-04T11:03:46.165Z</time>
      </trkpt>
      <trkpt lat="46.97692" lon="8.6661">
        <ele>1316</ele>
        <time>2021-08-04T11:03:54.269Z</time>
      </trkpt>
      <trkpt lat="46.97691" lon="8.6661">
        <ele>1317</ele>
        <time>2021-08-04T11:03:55.269Z</time>
      </trkpt>
      <trkpt lat="46.9769" lon="8.66609">
        <ele>1317</ele>
        <time>2021-08-04T11:03:56.268Z</time>
      </trkpt>
      <trkpt lat="46.97689" lon="8.66608">
        <ele>1316</ele>
        <time>2021-08-04T11:03:57.268Z</time>
      </trkpt>
      <trkpt lat="46.97688" lon="8.66607">
        <ele>1316</ele>
        <time>2021-08-04T11:04:00.380Z</time>
      </trkpt>
      <trkpt lat="46.97687" lon="8.66606">
        <ele>1316</ele>
        <time>2021-08-04T11:04:01.380Z</time>
      </trkpt>
      <trkpt lat="46.97685" lon="8.66604">
        <ele>1315</ele>
        <time>2021-08-04T11:04:02.380Z</time>
      </trkpt>
      <trkpt lat="46.97684" lon="8.66604">
        <ele>1314</ele>
        <time>2021-08-04T11:04:03.379Z</time>
      </trkpt>
      <trkpt lat="46.97683" lon="8.66604">
        <ele>1314</ele>
        <time>2021-08-04T11:04:04.380Z</time>
      </trkpt>
      <trkpt lat="46.97683" lon="8.66605">
        <ele>1313</ele>
        <time>2021-08-04T11:04:05.380Z</time>
      </trkpt>
      <trkpt lat="46.97682" lon="8.66604">
        <ele>1313</ele>
        <time>2021-08-04T11:04:06.380Z</time>
      </trkpt>
      <trkpt lat="46.97681" lon="8.66604">
        <ele>1313</ele>
        <time>2021-08-04T11:04:07.379Z</time>
      </trkpt>
      <trkpt lat="46.9768" lon="8.66603">
        <ele>1313</ele>
        <time>2021-08-04T11:04:08.379Z</time>
      </trkpt>
      <trkpt lat="46.97678" lon="8.66603">
        <ele>1313</ele>
        <time>2021-08-04T11:04:09.379Z</time>
      </trkpt>
      <trkpt lat="46.97677" lon="8.66601">
        <ele>1313</ele>
        <time>2021-08-04T11:04:10.380Z</time>
      </trkpt>
      <trkpt lat="46.97676" lon="8.66601">
        <ele>1313</ele>
        <time>2021-08-04T11:04:11.379Z</time>
      </trkpt>
      <trkpt lat="46.97675" lon="8.66601">
        <ele>1313</ele>
        <time>2021-08-04T11:04:12.380Z</time>
      </trkpt>
      <trkpt lat="46.97674" lon="8.66601">
        <ele>1313</ele>
        <time>2021-08-04T11:04:13.379Z</time>
      </trkpt>
      <trkpt lat="46.97673" lon="8.66601">
        <ele>1313</ele>
        <time>2021-08-04T11:04:14.380Z</time>
      </trkpt>
      <trkpt lat="46.97671" lon="8.666">
        <ele>1314</ele>
        <time>2021-08-04T11:04:15.379Z</time>
      </trkpt>
      <trkpt lat="46.9767" lon="8.666">
        <ele>1314</ele>
        <time>2021-08-04T11:04:16.380Z</time>
      </trkpt>
      <trkpt lat="46.97669" lon="8.666">
        <ele>1314</ele>
        <time>2021-08-04T11:04:17.379Z</time>
      </trkpt>
      <trkpt lat="46.97668" lon="8.666">
        <ele>1314</ele>
        <time>2021-08-04T11:04:18.380Z</time>
      </trkpt>
      <trkpt lat="46.97667" lon="8.666">
        <ele>1314</ele>
        <time>2021-08-04T11:04:19.380Z</time>
      </trkpt>
      <trkpt lat="46.97666" lon="8.666">
        <ele>1313</ele>
        <time>2021-08-04T11:04:20.380Z</time>
      </trkpt>
      <trkpt lat="46.97665" lon="8.666">
        <ele>1313</ele>
        <time>2021-08-04T11:04:21.380Z</time>
      </trkpt>
      <trkpt lat="46.97664" lon="8.66599">
        <ele>1312</ele>
        <time>2021-08-04T11:04:22.380Z</time>
      </trkpt>
      <trkpt lat="46.97663" lon="8.66599">
        <ele>1312</ele>
        <time>2021-08-04T11:04:23.379Z</time>
      </trkpt>
      <trkpt lat="46.97663" lon="8.66599">
        <ele>1311</ele>
        <time>2021-08-04T11:04:24.379Z</time>
      </trkpt>
      <trkpt lat="46.97662" lon="8.66598">
        <ele>1310</ele>
        <time>2021-08-04T11:04:25.379Z</time>
      </trkpt>
      <trkpt lat="46.97662" lon="8.66598">
        <ele>1310</ele>
        <time>2021-08-04T11:04:26.379Z</time>
      </trkpt>
      <trkpt lat="46.97661" lon="8.66598">
        <ele>1309</ele>
        <time>2021-08-04T11:04:27.379Z</time>
      </trkpt>
      <trkpt lat="46.97661" lon="8.66599">
        <ele>1309</ele>
        <time>2021-08-04T11:04:28.379Z</time>
      </trkpt>
      <trkpt lat="46.97661" lon="8.666">
        <ele>1309</ele>
        <time>2021-08-04T11:04:29.380Z</time>
      </trkpt>
      <trkpt lat="46.9766" lon="8.66601">
        <ele>1309</ele>
        <time>2021-08-04T11:04:30.379Z</time>
      </trkpt>
      <trkpt lat="46.97659" lon="8.66601">
        <ele>1308</ele>
        <time>2021-08-04T11:04:33.398Z</time>
      </trkpt>
      <trkpt lat="46.97658" lon="8.66602">
        <ele>1308</ele>
        <time>2021-08-04T11:04:34.398Z</time>
      </trkpt>
      <trkpt lat="46.97658" lon="8.66603">
        <ele>1308</ele>
        <time>2021-08-04T11:04:35.398Z</time>
      </trkpt>
      <trkpt lat="46.97657" lon="8.66602">
        <ele>1308</ele>
        <time>2021-08-04T11:04:36.399Z</time>
      </trkpt>
      <trkpt lat="46.97656" lon="8.66601">
        <ele>1308</ele>
        <time>2021-08-04T11:04:37.399Z</time>
      </trkpt>
      <trkpt lat="46.97655" lon="8.66601">
        <ele>1308</ele>
        <time>2021-08-04T11:04:38.398Z</time>
      </trkpt>
      <trkpt lat="46.97654" lon="8.66602">
        <ele>1307</ele>
        <time>2021-08-04T11:04:39.398Z</time>
      </trkpt>
      <trkpt lat="46.97653" lon="8.66602">
        <ele>1307</ele>
        <time>2021-08-04T11:04:40.398Z</time>
      </trkpt>
      <trkpt lat="46.97652" lon="8.66602">
        <ele>1307</ele>
        <time>2021-08-04T11:04:41.399Z</time>
      </trkpt>
      <trkpt lat="46.97651" lon="8.66602">
        <ele>1307</ele>
        <time>2021-08-04T11:04:42.399Z</time>
      </trkpt>
      <trkpt lat="46.9765" lon="8.66603">
        <ele>1307</ele>
        <time>2021-08-04T11:04:43.399Z</time>
      </trkpt>
      <trkpt lat="46.9765" lon="8.66602">
        <ele>1307</ele>
        <time>2021-08-04T11:04:44.398Z</time>
      </trkpt>
      <trkpt lat="46.97648" lon="8.66603">
        <ele>1307</ele>
        <time>2021-08-04T11:04:45.399Z</time>
      </trkpt>
      <trkpt lat="46.97647" lon="8.66602">
        <ele>1307</ele>
        <time>2021-08-04T11:04:46.399Z</time>
      </trkpt>
      <trkpt lat="46.97647" lon="8.66602">
        <ele>1307</ele>
        <time>2021-08-04T11:04:47.399Z</time>
      </trkpt>
      <trkpt lat="46.97646" lon="8.66602">
        <ele>1307</ele>
        <time>2021-08-04T11:04:48.399Z</time>
      </trkpt>
      <trkpt lat="46.97645" lon="8.66601">
        <ele>1307</ele>
        <time>2021-08-04T11:04:49.399Z</time>
      </trkpt>
      <trkpt lat="46.97644" lon="8.666">
        <ele>1307</ele>
        <time>2021-08-04T11:04:50.399Z</time>
      </trkpt>
      <trkpt lat="46.97643" lon="8.66599">
        <ele>1307</ele>
        <time>2021-08-04T11:04:51.398Z</time>
      </trkpt>
      <trkpt lat="46.97641" lon="8.66599">
        <ele>1307</ele>
        <time>2021-08-04T11:04:52.399Z</time>
      </trkpt>
      <trkpt lat="46.9764" lon="8.66598">
        <ele>1307</ele>
        <time>2021-08-04T11:04:53.399Z</time>
      </trkpt>
      <trkpt lat="46.97639" lon="8.66598">
        <ele>1307</ele>
        <time>2021-08-04T11:04:54.399Z</time>
      </trkpt>
      <trkpt lat="46.97638" lon="8.66598">
        <ele>1307</ele>
        <time>2021-08-04T11:04:55.398Z</time>
      </trkpt>
      <trkpt lat="46.97637" lon="8.66598">
        <ele>1307</ele>
        <time>2021-08-04T11:04:56.398Z</time>
      </trkpt>
      <trkpt lat="46.97636" lon="8.66597">
        <ele>1307</ele>
        <time>2021-08-04T11:04:57.399Z</time>
      </trkpt>
      <trkpt lat="46.97636" lon="8.66596">
        <ele>1307</ele>
        <time>2021-08-04T11:04:58.399Z</time>
      </trkpt>
      <trkpt lat="46.97635" lon="8.66595">
        <ele>1307</ele>
        <time>2021-08-04T11:04:59.398Z</time>
      </trkpt>
      <trkpt lat="46.97635" lon="8.66594">
        <ele>1307</ele>
        <time>2021-08-04T11:05:00.399Z</time>
      </trkpt>
      <trkpt lat="46.97635" lon="8.66593">
        <ele>1307</ele>
        <time>2021-08-04T11:05:01.398Z</time>
      </trkpt>
      <trkpt lat="46.97635" lon="8.66592">
        <ele>1306</ele>
        <time>2021-08-04T11:05:02.398Z</time>
      </trkpt>
      <trkpt lat="46.97635" lon="8.66591">
        <ele>1306</ele>
        <time>2021-08-04T11:05:03.398Z</time>
      </trkpt>
      <trkpt lat="46.97636" lon="8.66589">
        <ele>1306</ele>
        <time>2021-08-04T11:05:04.398Z</time>
      </trkpt>
      <trkpt lat="46.97636" lon="8.66588">
        <ele>1306</ele>
        <time>2021-08-04T11:05:05.398Z</time>
      </trkpt>
      <trkpt lat="46.97636" lon="8.66586">
        <ele>1307</ele>
        <time>2021-08-04T11:05:06.398Z</time>
      </trkpt>
      <trkpt lat="46.97636" lon="8.66585">
        <ele>1307</ele>
        <time>2021-08-04T11:05:07.399Z</time>
      </trkpt>
      <trkpt lat="46.97636" lon="8.66584">
        <ele>1307</ele>
        <time>2021-08-04T11:05:08.399Z</time>
      </trkpt>
      <trkpt lat="46.97636" lon="8.66583">
        <ele>1308</ele>
        <time>2021-08-04T11:05:09.399Z</time>
      </trkpt>
      <trkpt lat="46.97637" lon="8.66581">
        <ele>1308</ele>
        <time>2021-08-04T11:05:10.398Z</time>
      </trkpt>
      <trkpt lat="46.97637" lon="8.6658">
        <ele>1308</ele>
        <time>2021-08-04T11:05:11.398Z</time>
      </trkpt>
      <trkpt lat="46.97637" lon="8.66579">
        <ele>1309</ele>
        <time>2021-08-04T11:05:12.398Z</time>
      </trkpt>
      <trkpt lat="46.97638" lon="8.66578">
        <ele>1309</ele>
        <time>2021-08-04T11:05:13.398Z</time>
      </trkpt>
      <trkpt lat="46.97639" lon="8.66576">
        <ele>1309</ele>
        <time>2021-08-04T11:05:14.398Z</time>
      </trkpt>
      <trkpt lat="46.97641" lon="8.66574">
        <ele>1310</ele>
        <time>2021-08-04T11:05:15.398Z</time>
      </trkpt>
      <trkpt lat="46.97641" lon="8.66573">
        <ele>1310</ele>
        <time>2021-08-04T11:05:16.399Z</time>
      </trkpt>
      <trkpt lat="46.97642" lon="8.66572">
        <ele>1311</ele>
        <time>2021-08-04T11:05:17.399Z</time>
      </trkpt>
      <trkpt lat="46.97642" lon="8.66572">
        <ele>1311</ele>
        <time>2021-08-04T11:05:18.399Z</time>
      </trkpt>
      <trkpt lat="46.97642" lon="8.66571">
        <ele>1311</ele>
        <time>2021-08-04T11:05:19.398Z</time>
      </trkpt>
      <trkpt lat="46.97642" lon="8.6657">
        <ele>1311</ele>
        <time>2021-08-04T11:05:20.398Z</time>
      </trkpt>
      <trkpt lat="46.97643" lon="8.66569">
        <ele>1311</ele>
        <time>2021-08-04T11:05:21.399Z</time>
      </trkpt>
      <trkpt lat="46.97643" lon="8.66568">
        <ele>1312</ele>
        <time>2021-08-04T11:05:22.398Z</time>
      </trkpt>
      <trkpt lat="46.97644" lon="8.66567">
        <ele>1313</ele>
        <time>2021-08-04T11:05:23.399Z</time>
      </trkpt>
      <trkpt lat="46.97645" lon="8.66566">
        <ele>1313</ele>
        <time>2021-08-04T11:05:24.399Z</time>
      </trkpt>
      <trkpt lat="46.97645" lon="8.66565">
        <ele>1314</ele>
        <time>2021-08-04T11:05:25.399Z</time>
      </trkpt>
      <trkpt lat="46.97645" lon="8.66563">
        <ele>1315</ele>
        <time>2021-08-04T11:05:26.398Z</time>
      </trkpt>
      <trkpt lat="46.97646" lon="8.66562">
        <ele>1315</ele>
        <time>2021-08-04T11:05:27.399Z</time>
      </trkpt>
      <trkpt lat="46.97646" lon="8.6656">
        <ele>1316</ele>
        <time>2021-08-04T11:05:28.399Z</time>
      </trkpt>
      <trkpt lat="46.97647" lon="8.66559">
        <ele>1316</ele>
        <time>2021-08-04T11:05:29.398Z</time>
      </trkpt>
      <trkpt lat="46.97646" lon="8.66558">
        <ele>1317</ele>
        <time>2021-08-04T11:05:30.398Z</time>
      </trkpt>
      <trkpt lat="46.97646" lon="8.66557">
        <ele>1317</ele>
        <time>2021-08-04T11:05:31.399Z</time>
      </trkpt>
      <trkpt lat="46.97647" lon="8.66556">
        <ele>1318</ele>
        <time>2021-08-04T11:05:32.399Z</time>
      </trkpt>
      <trkpt lat="46.97647" lon="8.66555">
        <ele>1318</ele>
        <time>2021-08-04T11:05:33.398Z</time>
      </trkpt>
      <trkpt lat="46.97647" lon="8.66556">
        <ele>1318</ele>
        <time>2021-08-04T11:05:34.398Z</time>
      </trkpt>
      <trkpt lat="46.97648" lon="8.66555">
        <ele>1319</ele>
        <time>2021-08-04T11:05:35.398Z</time>
      </trkpt>
      <trkpt lat="46.97648" lon="8.66554">
        <ele>1319</ele>
        <time>2021-08-04T11:05:36.398Z</time>
      </trkpt>
      <trkpt lat="46.97649" lon="8.66554">
        <ele>1319</ele>
        <time>2021-08-04T11:05:37.398Z</time>
      </trkpt>
      <trkpt lat="46.97649" lon="8.66552">
        <ele>1320</ele>
        <time>2021-08-04T11:05:38.398Z</time>
      </trkpt>
      <trkpt lat="46.97649" lon="8.66551">
        <ele>1320</ele>
        <time>2021-08-04T11:05:39.398Z</time>
      </trkpt>
      <trkpt lat="46.97649" lon="8.66549">
        <ele>1321</ele>
        <time>2021-08-04T11:05:40.398Z</time>
      </trkpt>
      <trkpt lat="46.97649" lon="8.66547">
        <ele>1321</ele>
        <time>2021-08-04T11:05:41.398Z</time>
      </trkpt>
      <trkpt lat="46.97649" lon="8.66546">
        <ele>1321</ele>
        <time>2021-08-04T11:05:42.399Z</time>
      </trkpt>
      <trkpt lat="46.97649" lon="8.66544">
        <ele>1321</ele>
        <time>2021-08-04T11:05:43.399Z</time>
      </trkpt>
      <trkpt lat="46.97649" lon="8.66544">
        <ele>1321</ele>
        <time>2021-08-04T11:05:44.399Z</time>
      </trkpt>
      <trkpt lat="46.9765" lon="8.66543">
        <ele>1321</ele>
        <time>2021-08-04T11:05:45.399Z</time>
      </trkpt>
      <trkpt lat="46.9765" lon="8.66542">
        <ele>1321</ele>
        <time>2021-08-04T11:05:46.398Z</time>
      </trkpt>
      <trkpt lat="46.97651" lon="8.66541">
        <ele>1321</ele>
        <time>2021-08-04T11:05:47.398Z</time>
      </trkpt>
      <trkpt lat="46.9765" lon="8.6654">
        <ele>1322</ele>
        <time>2021-08-04T11:05:48.399Z</time>
      </trkpt>
      <trkpt lat="46.9765" lon="8.66539">
        <ele>1322</ele>
        <time>2021-08-04T11:05:49.398Z</time>
      </trkpt>
      <trkpt lat="46.9765" lon="8.66538">
        <ele>1322</ele>
        <time>2021-08-04T11:05:50.398Z</time>
      </trkpt>
      <trkpt lat="46.9765" lon="8.66536">
        <ele>1322</ele>
        <time>2021-08-04T11:05:51.398Z</time>
      </trkpt>
      <trkpt lat="46.97649" lon="8.66535">
        <ele>1322</ele>
        <time>2021-08-04T11:05:52.399Z</time>
      </trkpt>
      <trkpt lat="46.97648" lon="8.66534">
        <ele>1322</ele>
        <time>2021-08-04T11:05:53.398Z</time>
      </trkpt>
      <trkpt lat="46.97647" lon="8.66533">
        <ele>1321</ele>
        <time>2021-08-04T11:05:54.398Z</time>
      </trkpt>
      <trkpt lat="46.97647" lon="8.66533">
        <ele>1321</ele>
        <time>2021-08-04T11:05:55.399Z</time>
      </trkpt>
      <trkpt lat="46.97646" lon="8.66532">
        <ele>1321</ele>
        <time>2021-08-04T11:05:56.398Z</time>
      </trkpt>
      <trkpt lat="46.97646" lon="8.66531">
        <ele>1321</ele>
        <time>2021-08-04T11:05:57.398Z</time>
      </trkpt>
      <trkpt lat="46.97646" lon="8.6653">
        <ele>1321</ele>
        <time>2021-08-04T11:05:58.398Z</time>
      </trkpt>
      <trkpt lat="46.97646" lon="8.66529">
        <ele>1321</ele>
        <time>2021-08-04T11:05:59.398Z</time>
      </trkpt>
      <trkpt lat="46.97645" lon="8.66527">
        <ele>1321</ele>
        <time>2021-08-04T11:06:00.399Z</time>
      </trkpt>
      <trkpt lat="46.97645" lon="8.66526">
        <ele>1320</ele>
        <time>2021-08-04T11:06:01.398Z</time>
      </trkpt>
      <trkpt lat="46.97644" lon="8.66525">
        <ele>1320</ele>
        <time>2021-08-04T11:06:02.398Z</time>
      </trkpt>
      <trkpt lat="46.97644" lon="8.66524">
        <ele>1320</ele>
        <time>2021-08-04T11:06:03.398Z</time>
      </trkpt>
      <trkpt lat="46.97644" lon="8.66523">
        <ele>1320</ele>
        <time>2021-08-04T11:06:04.399Z</time>
      </trkpt>
      <trkpt lat="46.97643" lon="8.66521">
        <ele>1320</ele>
        <time>2021-08-04T11:06:05.398Z</time>
      </trkpt>
      <trkpt lat="46.97642" lon="8.66519">
        <ele>1320</ele>
        <time>2021-08-04T11:06:06.399Z</time>
      </trkpt>
      <trkpt lat="46.97642" lon="8.66517">
        <ele>1320</ele>
        <time>2021-08-04T11:06:07.399Z</time>
      </trkpt>
      <trkpt lat="46.97642" lon="8.66516">
        <ele>1320</ele>
        <time>2021-08-04T11:06:08.399Z</time>
      </trkpt>
      <trkpt lat="46.97642" lon="8.66514">
        <ele>1320</ele>
        <time>2021-08-04T11:06:09.398Z</time>
      </trkpt>
      <trkpt lat="46.97641" lon="8.66511">
        <ele>1320</ele>
        <time>2021-08-04T11:06:10.398Z</time>
      </trkpt>
      <trkpt lat="46.97641" lon="8.66508">
        <ele>1320</ele>
        <time>2021-08-04T11:06:11.399Z</time>
      </trkpt>
      <trkpt lat="46.97642" lon="8.66506">
        <ele>1320</ele>
        <time>2021-08-04T11:06:12.399Z</time>
      </trkpt>
      <trkpt lat="46.97641" lon="8.66505">
        <ele>1320</ele>
        <time>2021-08-04T11:06:13.399Z</time>
      </trkpt>
      <trkpt lat="46.97641" lon="8.66502">
        <ele>1320</ele>
        <time>2021-08-04T11:06:14.398Z</time>
      </trkpt>
      <trkpt lat="46.9764" lon="8.66499">
        <ele>1320</ele>
        <time>2021-08-04T11:06:15.399Z</time>
      </trkpt>
      <trkpt lat="46.9764" lon="8.66497">
        <ele>1320</ele>
        <time>2021-08-04T11:06:16.398Z</time>
      </trkpt>
      <trkpt lat="46.9764" lon="8.66496">
        <ele>1320</ele>
        <time>2021-08-04T11:06:17.399Z</time>
      </trkpt>
      <trkpt lat="46.97639" lon="8.66494">
        <ele>1320</ele>
        <time>2021-08-04T11:06:18.399Z</time>
      </trkpt>
      <trkpt lat="46.97638" lon="8.66493">
        <ele>1320</ele>
        <time>2021-08-04T11:06:19.399Z</time>
      </trkpt>
      <trkpt lat="46.97638" lon="8.66493">
        <ele>1320</ele>
        <time>2021-08-04T11:06:20.398Z</time>
      </trkpt>
      <trkpt lat="46.97637" lon="8.66493">
        <ele>1320</ele>
        <time>2021-08-04T11:06:21.399Z</time>
      </trkpt>
      <trkpt lat="46.97637" lon="8.66493">
        <ele>1320</ele>
        <time>2021-08-04T11:06:22.398Z</time>
      </trkpt>
      <trkpt lat="46.97637" lon="8.66492">
        <ele>1320</ele>
        <time>2021-08-04T11:06:23.399Z</time>
      </trkpt>
      <trkpt lat="46.97637" lon="8.66491">
        <ele>1320</ele>
        <time>2021-08-04T11:06:24.399Z</time>
      </trkpt>
      <trkpt lat="46.97637" lon="8.66491">
        <ele>1320</ele>
        <time>2021-08-04T11:06:25.398Z</time>
      </trkpt>
      <trkpt lat="46.97637" lon="8.6649">
        <ele>1320</ele>
        <time>2021-08-04T11:06:26.398Z</time>
      </trkpt>
      <trkpt lat="46.97637" lon="8.66489">
        <ele>1320</ele>
        <time>2021-08-04T11:06:27.399Z</time>
      </trkpt>
      <trkpt lat="46.97637" lon="8.66488">
        <ele>1320</ele>
        <time>2021-08-04T11:06:28.399Z</time>
      </trkpt>
      <trkpt lat="46.97637" lon="8.66487">
        <ele>1319</ele>
        <time>2021-08-04T11:06:29.399Z</time>
      </trkpt>
      <trkpt lat="46.97637" lon="8.66485">
        <ele>1319</ele>
        <time>2021-08-04T11:06:30.398Z</time>
      </trkpt>
      <trkpt lat="46.97636" lon="8.66484">
        <ele>1319</ele>
        <time>2021-08-04T11:06:31.399Z</time>
      </trkpt>
      <trkpt lat="46.97636" lon="8.66483">
        <ele>1319</ele>
        <time>2021-08-04T11:06:32.398Z</time>
      </trkpt>
      <trkpt lat="46.97636" lon="8.66483">
        <ele>1319</ele>
        <time>2021-08-04T11:06:33.399Z</time>
      </trkpt>
      <trkpt lat="46.97636" lon="8.6648">
        <ele>1319</ele>
        <time>2021-08-04T11:06:34.399Z</time>
      </trkpt>
      <trkpt lat="46.97636" lon="8.66477">
        <ele>1319</ele>
        <time>2021-08-04T11:06:35.399Z</time>
      </trkpt>
      <trkpt lat="46.97636" lon="8.66474">
        <ele>1319</ele>
        <time>2021-08-04T11:06:36.399Z</time>
      </trkpt>
      <trkpt lat="46.97636" lon="8.66473">
        <ele>1319</ele>
        <time>2021-08-04T11:06:37.400Z</time>
      </trkpt>
      <trkpt lat="46.97637" lon="8.66471">
        <ele>1319</ele>
        <time>2021-08-04T11:06:38.400Z</time>
      </trkpt>
      <trkpt lat="46.97637" lon="8.6647">
        <ele>1319</ele>
        <time>2021-08-04T11:06:39.399Z</time>
      </trkpt>
      <trkpt lat="46.97638" lon="8.66468">
        <ele>1319</ele>
        <time>2021-08-04T11:06:40.400Z</time>
      </trkpt>
      <trkpt lat="46.97638" lon="8.66467">
        <ele>1319</ele>
        <time>2021-08-04T11:06:41.400Z</time>
      </trkpt>
      <trkpt lat="46.97639" lon="8.66465">
        <ele>1319</ele>
        <time>2021-08-04T11:06:42.400Z</time>
      </trkpt>
      <trkpt lat="46.97639" lon="8.66464">
        <ele>1319</ele>
        <time>2021-08-04T11:06:43.399Z</time>
      </trkpt>
      <trkpt lat="46.9764" lon="8.66463">
        <ele>1319</ele>
        <time>2021-08-04T11:06:44.399Z</time>
      </trkpt>
      <trkpt lat="46.9764" lon="8.66462">
        <ele>1319</ele>
        <time>2021-08-04T11:06:45.400Z</time>
      </trkpt>
      <trkpt lat="46.97641" lon="8.66462">
        <ele>1319</ele>
        <time>2021-08-04T11:06:46.400Z</time>
      </trkpt>
      <trkpt lat="46.97642" lon="8.6646">
        <ele>1319</ele>
        <time>2021-08-04T11:06:47.399Z</time>
      </trkpt>
      <trkpt lat="46.97643" lon="8.66458">
        <ele>1319</ele>
        <time>2021-08-04T11:06:48.399Z</time>
      </trkpt>
      <trkpt lat="46.97644" lon="8.66456">
        <ele>1319</ele>
        <time>2021-08-04T11:06:49.400Z</time>
      </trkpt>
      <trkpt lat="46.97644" lon="8.66454">
        <ele>1319</ele>
        <time>2021-08-04T11:06:50.400Z</time>
      </trkpt>
      <trkpt lat="46.97644" lon="8.66451">
        <ele>1320</ele>
        <time>2021-08-04T11:06:51.400Z</time>
      </trkpt>
      <trkpt lat="46.97644" lon="8.6645">
        <ele>1320</ele>
        <time>2021-08-04T11:06:52.399Z</time>
      </trkpt>
      <trkpt lat="46.97644" lon="8.66449">
        <ele>1320</ele>
        <time>2021-08-04T11:06:53.399Z</time>
      </trkpt>
      <trkpt lat="46.97644" lon="8.66449">
        <ele>1320</ele>
        <time>2021-08-04T11:06:54.399Z</time>
      </trkpt>
      <trkpt lat="46.97645" lon="8.66448">
        <ele>1321</ele>
        <time>2021-08-04T11:06:55.399Z</time>
      </trkpt>
      <trkpt lat="46.97645" lon="8.66448">
        <ele>1321</ele>
        <time>2021-08-04T11:06:56.400Z</time>
      </trkpt>
      <trkpt lat="46.97645" lon="8.66448">
        <ele>1321</ele>
        <time>2021-08-04T11:06:57.400Z</time>
      </trkpt>
      <trkpt lat="46.97645" lon="8.66447">
        <ele>1321</ele>
        <time>2021-08-04T11:06:58.400Z</time>
      </trkpt>
      <trkpt lat="46.97645" lon="8.66445">
        <ele>1321</ele>
        <time>2021-08-04T11:06:59.400Z</time>
      </trkpt>
      <trkpt lat="46.97645" lon="8.66444">
        <ele>1321</ele>
        <time>2021-08-04T11:07:00.400Z</time>
      </trkpt>
      <trkpt lat="46.97645" lon="8.66443">
        <ele>1322</ele>
        <time>2021-08-04T11:07:01.400Z</time>
      </trkpt>
      <trkpt lat="46.97645" lon="8.66442">
        <ele>1322</ele>
        <time>2021-08-04T11:07:02.400Z</time>
      </trkpt>
      <trkpt lat="46.97645" lon="8.66441">
        <ele>1323</ele>
        <time>2021-08-04T11:07:03.399Z</time>
      </trkpt>
      <trkpt lat="46.97645" lon="8.6644">
        <ele>1324</ele>
        <time>2021-08-04T11:07:04.400Z</time>
      </trkpt>
      <trkpt lat="46.97645" lon="8.66439">
        <ele>1324</ele>
        <time>2021-08-04T11:07:05.400Z</time>
      </trkpt>
      <trkpt lat="46.97645" lon="8.66438">
        <ele>1324</ele>
        <time>2021-08-04T11:07:06.399Z</time>
      </trkpt>
      <trkpt lat="46.97645" lon="8.66437">
        <ele>1324</ele>
        <time>2021-08-04T11:07:07.400Z</time>
      </trkpt>
      <trkpt lat="46.97645" lon="8.66436">
        <ele>1323</ele>
        <time>2021-08-04T11:07:08.400Z</time>
      </trkpt>
      <trkpt lat="46.97644" lon="8.66434">
        <ele>1322</ele>
        <time>2021-08-04T11:07:09.400Z</time>
      </trkpt>
      <trkpt lat="46.97645" lon="8.66433">
        <ele>1322</ele>
        <time>2021-08-04T11:07:10.399Z</time>
      </trkpt>
      <trkpt lat="46.97645" lon="8.66431">
        <ele>1321</ele>
        <time>2021-08-04T11:07:11.399Z</time>
      </trkpt>
      <trkpt lat="46.97644" lon="8.66429">
        <ele>1321</ele>
        <time>2021-08-04T11:07:12.400Z</time>
      </trkpt>
      <trkpt lat="46.97644" lon="8.66427">
        <ele>1320</ele>
        <time>2021-08-04T11:07:13.399Z</time>
      </trkpt>
      <trkpt lat="46.97644" lon="8.66426">
        <ele>1320</ele>
        <time>2021-08-04T11:07:14.400Z</time>
      </trkpt>
      <trkpt lat="46.97643" lon="8.66425">
        <ele>1319</ele>
        <time>2021-08-04T11:07:15.399Z</time>
      </trkpt>
      <trkpt lat="46.97643" lon="8.66423">
        <ele>1319</ele>
        <time>2021-08-04T11:07:16.400Z</time>
      </trkpt>
      <trkpt lat="46.97643" lon="8.66421">
        <ele>1319</ele>
        <time>2021-08-04T11:07:17.400Z</time>
      </trkpt>
      <trkpt lat="46.97641" lon="8.66417">
        <ele>1318</ele>
        <time>2021-08-04T11:07:18.400Z</time>
      </trkpt>
      <trkpt lat="46.9764" lon="8.66415">
        <ele>1318</ele>
        <time>2021-08-04T11:07:19.400Z</time>
      </trkpt>
      <trkpt lat="46.9764" lon="8.66414">
        <ele>1317</ele>
        <time>2021-08-04T11:07:20.399Z</time>
      </trkpt>
      <trkpt lat="46.9764" lon="8.66413">
        <ele>1316</ele>
        <time>2021-08-04T11:07:21.400Z</time>
      </trkpt>
      <trkpt lat="46.9764" lon="8.66412">
        <ele>1316</ele>
        <time>2021-08-04T11:07:22.400Z</time>
      </trkpt>
      <trkpt lat="46.97639" lon="8.66411">
        <ele>1316</ele>
        <time>2021-08-04T11:07:23.400Z</time>
      </trkpt>
      <trkpt lat="46.97639" lon="8.6641">
        <ele>1315</ele>
        <time>2021-08-04T11:07:24.399Z</time>
      </trkpt>
      <trkpt lat="46.97638" lon="8.66408">
        <ele>1315</ele>
        <time>2021-08-04T11:07:25.400Z</time>
      </trkpt>
      <trkpt lat="46.97638" lon="8.66407">
        <ele>1314</ele>
        <time>2021-08-04T11:07:26.400Z</time>
      </trkpt>
      <trkpt lat="46.97637" lon="8.66406">
        <ele>1314</ele>
        <time>2021-08-04T11:07:27.400Z</time>
      </trkpt>
      <trkpt lat="46.97637" lon="8.66405">
        <ele>1313</ele>
        <time>2021-08-04T11:07:28.400Z</time>
      </trkpt>
      <trkpt lat="46.97636" lon="8.66404">
        <ele>1313</ele>
        <time>2021-08-04T11:07:29.400Z</time>
      </trkpt>
      <trkpt lat="46.97636" lon="8.66402">
        <ele>1313</ele>
        <time>2021-08-04T11:07:30.400Z</time>
      </trkpt>
      <trkpt lat="46.97635" lon="8.664">
        <ele>1313</ele>
        <time>2021-08-04T11:07:31.400Z</time>
      </trkpt>
      <trkpt lat="46.97634" lon="8.66398">
        <ele>1313</ele>
        <time>2021-08-04T11:07:32.400Z</time>
      </trkpt>
      <trkpt lat="46.97633" lon="8.66397">
        <ele>1313</ele>
        <time>2021-08-04T11:07:33.399Z</time>
      </trkpt>
      <trkpt lat="46.97632" lon="8.66397">
        <ele>1313</ele>
        <time>2021-08-04T11:07:34.399Z</time>
      </trkpt>
      <trkpt lat="46.97632" lon="8.66397">
        <ele>1314</ele>
        <time>2021-08-04T11:07:35.399Z</time>
      </trkpt>
      <trkpt lat="46.97632" lon="8.66396">
        <ele>1314</ele>
        <time>2021-08-04T11:07:36.399Z</time>
      </trkpt>
      <trkpt lat="46.97631" lon="8.66394">
        <ele>1315</ele>
        <time>2021-08-04T11:07:37.400Z</time>
      </trkpt>
      <trkpt lat="46.97631" lon="8.66393">
        <ele>1315</ele>
        <time>2021-08-04T11:07:38.400Z</time>
      </trkpt>
      <trkpt lat="46.9763" lon="8.66392">
        <ele>1315</ele>
        <time>2021-08-04T11:07:39.399Z</time>
      </trkpt>
      <trkpt lat="46.97629" lon="8.66391">
        <ele>1315</ele>
        <time>2021-08-04T11:07:40.400Z</time>
      </trkpt>
      <trkpt lat="46.97629" lon="8.66389">
        <ele>1316</ele>
        <time>2021-08-04T11:07:41.399Z</time>
      </trkpt>
      <trkpt lat="46.97628" lon="8.66388">
        <ele>1316</ele>
        <time>2021-08-04T11:07:42.400Z</time>
      </trkpt>
      <trkpt lat="46.97627" lon="8.66386">
        <ele>1316</ele>
        <time>2021-08-04T11:07:43.399Z</time>
      </trkpt>
      <trkpt lat="46.97626" lon="8.66385">
        <ele>1317</ele>
        <time>2021-08-04T11:07:44.400Z</time>
      </trkpt>
      <trkpt lat="46.97625" lon="8.66383">
        <ele>1318</ele>
        <time>2021-08-04T11:07:45.400Z</time>
      </trkpt>
      <trkpt lat="46.97625" lon="8.66381">
        <ele>1318</ele>
        <time>2021-08-04T11:07:46.399Z</time>
      </trkpt>
      <trkpt lat="46.97624" lon="8.6638">
        <ele>1318</ele>
        <time>2021-08-04T11:07:47.400Z</time>
      </trkpt>
      <trkpt lat="46.97623" lon="8.66378">
        <ele>1318</ele>
        <time>2021-08-04T11:07:48.400Z</time>
      </trkpt>
      <trkpt lat="46.97622" lon="8.66377">
        <ele>1318</ele>
        <time>2021-08-04T11:07:49.399Z</time>
      </trkpt>
      <trkpt lat="46.97622" lon="8.66376">
        <ele>1318</ele>
        <time>2021-08-04T11:07:50.399Z</time>
      </trkpt>
      <trkpt lat="46.97621" lon="8.66375">
        <ele>1317</ele>
        <time>2021-08-04T11:07:51.400Z</time>
      </trkpt>
      <trkpt lat="46.97621" lon="8.66373">
        <ele>1317</ele>
        <time>2021-08-04T11:07:52.400Z</time>
      </trkpt>
      <trkpt lat="46.9762" lon="8.66372">
        <ele>1316</ele>
        <time>2021-08-04T11:07:53.400Z</time>
      </trkpt>
      <trkpt lat="46.97619" lon="8.66371">
        <ele>1316</ele>
        <time>2021-08-04T11:07:54.400Z</time>
      </trkpt>
      <trkpt lat="46.97618" lon="8.66369">
        <ele>1316</ele>
        <time>2021-08-04T11:07:55.399Z</time>
      </trkpt>
      <trkpt lat="46.97618" lon="8.66367">
        <ele>1315</ele>
        <time>2021-08-04T11:07:56.400Z</time>
      </trkpt>
      <trkpt lat="46.97617" lon="8.66365">
        <ele>1315</ele>
        <time>2021-08-04T11:07:57.400Z</time>
      </trkpt>
      <trkpt lat="46.97617" lon="8.66364">
        <ele>1315</ele>
        <time>2021-08-04T11:07:58.400Z</time>
      </trkpt>
      <trkpt lat="46.97617" lon="8.66363">
        <ele>1315</ele>
        <time>2021-08-04T11:07:59.400Z</time>
      </trkpt>
      <trkpt lat="46.97617" lon="8.66361">
        <ele>1314</ele>
        <time>2021-08-04T11:08:00.400Z</time>
      </trkpt>
      <trkpt lat="46.97616" lon="8.66359">
        <ele>1315</ele>
        <time>2021-08-04T11:08:01.400Z</time>
      </trkpt>
      <trkpt lat="46.97617" lon="8.66358">
        <ele>1315</ele>
        <time>2021-08-04T11:08:02.399Z</time>
      </trkpt>
      <trkpt lat="46.97617" lon="8.66357">
        <ele>1315</ele>
        <time>2021-08-04T11:08:03.400Z</time>
      </trkpt>
      <trkpt lat="46.97619" lon="8.66355">
        <ele>1315</ele>
        <time>2021-08-04T11:08:04.399Z</time>
      </trkpt>
      <trkpt lat="46.97619" lon="8.66355">
        <ele>1316</ele>
        <time>2021-08-04T11:08:05.400Z</time>
      </trkpt>
      <trkpt lat="46.9762" lon="8.66355">
        <ele>1316</ele>
        <time>2021-08-04T11:08:06.400Z</time>
      </trkpt>
      <trkpt lat="46.9762" lon="8.66354">
        <ele>1317</ele>
        <time>2021-08-04T11:08:07.399Z</time>
      </trkpt>
      <trkpt lat="46.9762" lon="8.66353">
        <ele>1316</ele>
        <time>2021-08-04T11:08:08.399Z</time>
      </trkpt>
      <trkpt lat="46.9762" lon="8.66352">
        <ele>1316</ele>
        <time>2021-08-04T11:08:09.399Z</time>
      </trkpt>
      <trkpt lat="46.9762" lon="8.66351">
        <ele>1315</ele>
        <time>2021-08-04T11:08:10.399Z</time>
      </trkpt>
      <trkpt lat="46.97621" lon="8.6635">
        <ele>1315</ele>
        <time>2021-08-04T11:08:11.400Z</time>
      </trkpt>
      <trkpt lat="46.97621" lon="8.66348">
        <ele>1314</ele>
        <time>2021-08-04T11:08:12.400Z</time>
      </trkpt>
      <trkpt lat="46.97621" lon="8.66348">
        <ele>1314</ele>
        <time>2021-08-04T11:08:13.400Z</time>
      </trkpt>
      <trkpt lat="46.97622" lon="8.66346">
        <ele>1314</ele>
        <time>2021-08-04T11:08:14.400Z</time>
      </trkpt>
      <trkpt lat="46.97622" lon="8.66345">
        <ele>1314</ele>
        <time>2021-08-04T11:08:15.400Z</time>
      </trkpt>
      <trkpt lat="46.97622" lon="8.66345">
        <ele>1314</ele>
        <time>2021-08-04T11:08:16.399Z</time>
      </trkpt>
      <trkpt lat="46.97623" lon="8.66344">
        <ele>1315</ele>
        <time>2021-08-04T11:08:17.400Z</time>
      </trkpt>
      <trkpt lat="46.97623" lon="8.66344">
        <ele>1315</ele>
        <time>2021-08-04T11:08:18.400Z</time>
      </trkpt>
      <trkpt lat="46.97624" lon="8.66343">
        <ele>1315</ele>
        <time>2021-08-04T11:08:19.400Z</time>
      </trkpt>
      <trkpt lat="46.97626" lon="8.66342">
        <ele>1317</ele>
        <time>2021-08-04T11:08:20.400Z</time>
      </trkpt>
      <trkpt lat="46.97626" lon="8.66342">
        <ele>1317</ele>
        <time>2021-08-04T11:08:21.401Z</time>
      </trkpt>
      <trkpt lat="46.97627" lon="8.66342">
        <ele>1318</ele>
        <time>2021-08-04T11:08:22.400Z</time>
      </trkpt>
      <trkpt lat="46.97628" lon="8.66341">
        <ele>1318</ele>
        <time>2021-08-04T11:08:23.401Z</time>
      </trkpt>
      <trkpt lat="46.97629" lon="8.66341">
        <ele>1319</ele>
        <time>2021-08-04T11:08:24.400Z</time>
      </trkpt>
      <trkpt lat="46.97629" lon="8.66341">
        <ele>1320</ele>
        <time>2021-08-04T11:08:25.401Z</time>
      </trkpt>
      <trkpt lat="46.97629" lon="8.66342">
        <ele>1320</ele>
        <time>2021-08-04T11:08:26.400Z</time>
      </trkpt>
      <trkpt lat="46.9763" lon="8.66342">
        <ele>1321</ele>
        <time>2021-08-04T11:08:27.401Z</time>
      </trkpt>
      <trkpt lat="46.97629" lon="8.66342">
        <ele>1321</ele>
        <time>2021-08-04T11:08:28.401Z</time>
      </trkpt>
      <trkpt lat="46.9763" lon="8.6634">
        <ele>1322</ele>
        <time>2021-08-04T11:08:29.401Z</time>
      </trkpt>
      <trkpt lat="46.9763" lon="8.66339">
        <ele>1322</ele>
        <time>2021-08-04T11:08:30.401Z</time>
      </trkpt>
      <trkpt lat="46.9763" lon="8.66338">
        <ele>1323</ele>
        <time>2021-08-04T11:08:31.401Z</time>
      </trkpt>
      <trkpt lat="46.9763" lon="8.66337">
        <ele>1323</ele>
        <time>2021-08-04T11:08:32.401Z</time>
      </trkpt>
      <trkpt lat="46.97631" lon="8.66336">
        <ele>1324</ele>
        <time>2021-08-04T11:08:33.400Z</time>
      </trkpt>
      <trkpt lat="46.97631" lon="8.66334">
        <ele>1324</ele>
        <time>2021-08-04T11:08:34.401Z</time>
      </trkpt>
      <trkpt lat="46.97631" lon="8.66333">
        <ele>1324</ele>
        <time>2021-08-04T11:08:35.401Z</time>
      </trkpt>
      <trkpt lat="46.97631" lon="8.66331">
        <ele>1324</ele>
        <time>2021-08-04T11:08:36.401Z</time>
      </trkpt>
      <trkpt lat="46.97631" lon="8.6633">
        <ele>1324</ele>
        <time>2021-08-04T11:08:37.401Z</time>
      </trkpt>
      <trkpt lat="46.97632" lon="8.66328">
        <ele>1324</ele>
        <time>2021-08-04T11:08:38.400Z</time>
      </trkpt>
      <trkpt lat="46.97632" lon="8.66327">
        <ele>1324</ele>
        <time>2021-08-04T11:08:39.400Z</time>
      </trkpt>
      <trkpt lat="46.97632" lon="8.66326">
        <ele>1323</ele>
        <time>2021-08-04T11:08:40.401Z</time>
      </trkpt>
      <trkpt lat="46.97632" lon="8.66325">
        <ele>1322</ele>
        <time>2021-08-04T11:08:41.400Z</time>
      </trkpt>
      <trkpt lat="46.97632" lon="8.66323">
        <ele>1321</ele>
        <time>2021-08-04T11:08:42.401Z</time>
      </trkpt>
      <trkpt lat="46.97633" lon="8.66322">
        <ele>1321</ele>
        <time>2021-08-04T11:08:43.401Z</time>
      </trkpt>
      <trkpt lat="46.97633" lon="8.6632">
        <ele>1321</ele>
        <time>2021-08-04T11:08:44.400Z</time>
      </trkpt>
      <trkpt lat="46.97633" lon="8.66319">
        <ele>1320</ele>
        <time>2021-08-04T11:08:45.401Z</time>
      </trkpt>
      <trkpt lat="46.97633" lon="8.66317">
        <ele>1320</ele>
        <time>2021-08-04T11:08:46.401Z</time>
      </trkpt>
      <trkpt lat="46.97633" lon="8.66316">
        <ele>1320</ele>
        <time>2021-08-04T11:08:47.400Z</time>
      </trkpt>
      <trkpt lat="46.97633" lon="8.66315">
        <ele>1319</ele>
        <time>2021-08-04T11:08:48.401Z</time>
      </trkpt>
      <trkpt lat="46.97634" lon="8.66314">
        <ele>1319</ele>
        <time>2021-08-04T11:08:49.401Z</time>
      </trkpt>
      <trkpt lat="46.97635" lon="8.66313">
        <ele>1319</ele>
        <time>2021-08-04T11:08:50.400Z</time>
      </trkpt>
      <trkpt lat="46.97635" lon="8.66312">
        <ele>1320</ele>
        <time>2021-08-04T11:08:51.401Z</time>
      </trkpt>
      <trkpt lat="46.97636" lon="8.66311">
        <ele>1320</ele>
        <time>2021-08-04T11:08:52.401Z</time>
      </trkpt>
      <trkpt lat="46.97636" lon="8.6631">
        <ele>1321</ele>
        <time>2021-08-04T11:08:53.401Z</time>
      </trkpt>
      <trkpt lat="46.97636" lon="8.66309">
        <ele>1321</ele>
        <time>2021-08-04T11:08:54.400Z</time>
      </trkpt>
      <trkpt lat="46.97636" lon="8.66308">
        <ele>1321</ele>
        <time>2021-08-04T11:08:55.400Z</time>
      </trkpt>
      <trkpt lat="46.97636" lon="8.66307">
        <ele>1321</ele>
        <time>2021-08-04T11:08:56.400Z</time>
      </trkpt>
      <trkpt lat="46.97636" lon="8.66306">
        <ele>1322</ele>
        <time>2021-08-04T11:08:57.401Z</time>
      </trkpt>
      <trkpt lat="46.97636" lon="8.66305">
        <ele>1322</ele>
        <time>2021-08-04T11:08:58.401Z</time>
      </trkpt>
      <trkpt lat="46.97637" lon="8.66304">
        <ele>1322</ele>
        <time>2021-08-04T11:08:59.401Z</time>
      </trkpt>
      <trkpt lat="46.97637" lon="8.66302">
        <ele>1322</ele>
        <time>2021-08-04T11:09:00.401Z</time>
      </trkpt>
      <trkpt lat="46.97637" lon="8.66301">
        <ele>1323</ele>
        <time>2021-08-04T11:09:01.401Z</time>
      </trkpt>
      <trkpt lat="46.97637" lon="8.66299">
        <ele>1323</ele>
        <time>2021-08-04T11:09:02.401Z</time>
      </trkpt>
      <trkpt lat="46.97637" lon="8.66298">
        <ele>1323</ele>
        <time>2021-08-04T11:09:03.400Z</time>
      </trkpt>
      <trkpt lat="46.97637" lon="8.66297">
        <ele>1323</ele>
        <time>2021-08-04T11:09:04.401Z</time>
      </trkpt>
      <trkpt lat="46.97637" lon="8.66295">
        <ele>1323</ele>
        <time>2021-08-04T11:09:05.401Z</time>
      </trkpt>
      <trkpt lat="46.97637" lon="8.66294">
        <ele>1323</ele>
        <time>2021-08-04T11:09:06.401Z</time>
      </trkpt>
      <trkpt lat="46.97637" lon="8.66292">
        <ele>1323</ele>
        <time>2021-08-04T11:09:07.400Z</time>
      </trkpt>
      <trkpt lat="46.97638" lon="8.6629">
        <ele>1323</ele>
        <time>2021-08-04T11:09:08.400Z</time>
      </trkpt>
      <trkpt lat="46.97637" lon="8.66289">
        <ele>1324</ele>
        <time>2021-08-04T11:09:09.401Z</time>
      </trkpt>
      <trkpt lat="46.97637" lon="8.66287">
        <ele>1324</ele>
        <time>2021-08-04T11:09:10.400Z</time>
      </trkpt>
      <trkpt lat="46.97637" lon="8.66286">
        <ele>1324</ele>
        <time>2021-08-04T11:09:11.401Z</time>
      </trkpt>
      <trkpt lat="46.97636" lon="8.66285">
        <ele>1324</ele>
        <time>2021-08-04T11:09:12.401Z</time>
      </trkpt>
      <trkpt lat="46.97636" lon="8.66284">
        <ele>1324</ele>
        <time>2021-08-04T11:09:13.401Z</time>
      </trkpt>
      <trkpt lat="46.97636" lon="8.66282">
        <ele>1324</ele>
        <time>2021-08-04T11:09:14.401Z</time>
      </trkpt>
      <trkpt lat="46.97635" lon="8.66279">
        <ele>1324</ele>
        <time>2021-08-04T11:09:15.400Z</time>
      </trkpt>
      <trkpt lat="46.97635" lon="8.66278">
        <ele>1324</ele>
        <time>2021-08-04T11:09:16.400Z</time>
      </trkpt>
      <trkpt lat="46.97635" lon="8.66276">
        <ele>1324</ele>
        <time>2021-08-04T11:09:17.400Z</time>
      </trkpt>
      <trkpt lat="46.97635" lon="8.66275">
        <ele>1323</ele>
        <time>2021-08-04T11:09:18.401Z</time>
      </trkpt>
      <trkpt lat="46.97634" lon="8.66274">
        <ele>1324</ele>
        <time>2021-08-04T11:09:19.400Z</time>
      </trkpt>
      <trkpt lat="46.97634" lon="8.66272">
        <ele>1323</ele>
        <time>2021-08-04T11:09:20.400Z</time>
      </trkpt>
      <trkpt lat="46.97634" lon="8.66271">
        <ele>1323</ele>
        <time>2021-08-04T11:09:21.401Z</time>
      </trkpt>
      <trkpt lat="46.97633" lon="8.6627">
        <ele>1324</ele>
        <time>2021-08-04T11:09:22.401Z</time>
      </trkpt>
      <trkpt lat="46.97633" lon="8.66269">
        <ele>1324</ele>
        <time>2021-08-04T11:09:23.400Z</time>
      </trkpt>
      <trkpt lat="46.97632" lon="8.66268">
        <ele>1324</ele>
        <time>2021-08-04T11:09:24.400Z</time>
      </trkpt>
      <trkpt lat="46.97632" lon="8.66267">
        <ele>1324</ele>
        <time>2021-08-04T11:09:25.400Z</time>
      </trkpt>
      <trkpt lat="46.97632" lon="8.66265">
        <ele>1324</ele>
        <time>2021-08-04T11:09:26.401Z</time>
      </trkpt>
      <trkpt lat="46.97632" lon="8.66264">
        <ele>1324</ele>
        <time>2021-08-04T11:09:27.401Z</time>
      </trkpt>
      <trkpt lat="46.97632" lon="8.66263">
        <ele>1324</ele>
        <time>2021-08-04T11:09:28.400Z</time>
      </trkpt>
      <trkpt lat="46.97632" lon="8.66262">
        <ele>1324</ele>
        <time>2021-08-04T11:09:29.401Z</time>
      </trkpt>
      <trkpt lat="46.97632" lon="8.66261">
        <ele>1324</ele>
        <time>2021-08-04T11:09:44.533Z</time>
      </trkpt>
      <trkpt lat="46.97632" lon="8.6626">
        <ele>1324</ele>
        <time>2021-08-04T11:09:45.534Z</time>
      </trkpt>
      <trkpt lat="46.97632" lon="8.6626">
        <ele>1324</ele>
        <time>2021-08-04T11:09:53.442Z</time>
      </trkpt>
      <trkpt lat="46.97632" lon="8.66259">
        <ele>1324</ele>
        <time>2021-08-04T11:09:54.441Z</time>
      </trkpt>
      <trkpt lat="46.97632" lon="8.66257">
        <ele>1324</ele>
        <time>2021-08-04T11:10:01.311Z</time>
      </trkpt>
      <trkpt lat="46.97632" lon="8.66255">
        <ele>1324</ele>
        <time>2021-08-04T11:10:02.312Z</time>
      </trkpt>
      <trkpt lat="46.97632" lon="8.66254">
        <ele>1324</ele>
        <time>2021-08-04T11:10:03.311Z</time>
      </trkpt>
      <trkpt lat="46.97632" lon="8.66253">
        <ele>1324</ele>
        <time>2021-08-04T11:10:04.311Z</time>
      </trkpt>
      <trkpt lat="46.97633" lon="8.66252">
        <ele>1325</ele>
        <time>2021-08-04T11:10:05.312Z</time>
      </trkpt>
      <trkpt lat="46.97633" lon="8.66251">
        <ele>1325</ele>
        <time>2021-08-04T11:10:06.311Z</time>
      </trkpt>
      <trkpt lat="46.97634" lon="8.6625">
        <ele>1325</ele>
        <time>2021-08-04T11:10:07.312Z</time>
      </trkpt>
      <trkpt lat="46.97635" lon="8.66249">
        <ele>1325</ele>
        <time>2021-08-04T11:10:08.311Z</time>
      </trkpt>
      <trkpt lat="46.97635" lon="8.66248">
        <ele>1324</ele>
        <time>2021-08-04T11:10:09.312Z</time>
      </trkpt>
      <trkpt lat="46.97635" lon="8.66247">
        <ele>1324</ele>
        <time>2021-08-04T11:10:10.312Z</time>
      </trkpt>
      <trkpt lat="46.97635" lon="8.66247">
        <ele>1323</ele>
        <time>2021-08-04T11:10:11.311Z</time>
      </trkpt>
      <trkpt lat="46.97636" lon="8.66246">
        <ele>1323</ele>
        <time>2021-08-04T11:10:12.311Z</time>
      </trkpt>
      <trkpt lat="46.97636" lon="8.66244">
        <ele>1323</ele>
        <time>2021-08-04T11:10:13.312Z</time>
      </trkpt>
      <trkpt lat="46.97637" lon="8.66243">
        <ele>1323</ele>
        <time>2021-08-04T11:10:14.311Z</time>
      </trkpt>
      <trkpt lat="46.97637" lon="8.66242">
        <ele>1323</ele>
        <time>2021-08-04T11:10:15.312Z</time>
      </trkpt>
      <trkpt lat="46.97638" lon="8.66241">
        <ele>1323</ele>
        <time>2021-08-04T11:10:16.311Z</time>
      </trkpt>
      <trkpt lat="46.97639" lon="8.6624">
        <ele>1323</ele>
        <time>2021-08-04T11:10:17.312Z</time>
      </trkpt>
      <trkpt lat="46.97639" lon="8.66239">
        <ele>1323</ele>
        <time>2021-08-04T11:10:18.311Z</time>
      </trkpt>
      <trkpt lat="46.9764" lon="8.66237">
        <ele>1323</ele>
        <time>2021-08-04T11:10:19.312Z</time>
      </trkpt>
      <trkpt lat="46.97641" lon="8.66236">
        <ele>1323</ele>
        <time>2021-08-04T11:10:20.312Z</time>
      </trkpt>
      <trkpt lat="46.97641" lon="8.66233">
        <ele>1323</ele>
        <time>2021-08-04T11:10:21.312Z</time>
      </trkpt>
      <trkpt lat="46.97641" lon="8.66232">
        <ele>1324</ele>
        <time>2021-08-04T11:10:22.312Z</time>
      </trkpt>
      <trkpt lat="46.9764" lon="8.6623">
        <ele>1324</ele>
        <time>2021-08-04T11:10:23.311Z</time>
      </trkpt>
      <trkpt lat="46.9764" lon="8.66229">
        <ele>1324</ele>
        <time>2021-08-04T11:10:24.312Z</time>
      </trkpt>
      <trkpt lat="46.9764" lon="8.66228">
        <ele>1324</ele>
        <time>2021-08-04T11:10:25.311Z</time>
      </trkpt>
      <trkpt lat="46.9764" lon="8.66228">
        <ele>1324</ele>
        <time>2021-08-04T11:10:26.312Z</time>
      </trkpt>
      <trkpt lat="46.9764" lon="8.66228">
        <ele>1324</ele>
        <time>2021-08-04T11:10:27.311Z</time>
      </trkpt>
      <trkpt lat="46.97641" lon="8.66227">
        <ele>1324</ele>
        <time>2021-08-04T11:10:28.312Z</time>
      </trkpt>
      <trkpt lat="46.97642" lon="8.66227">
        <ele>1324</ele>
        <time>2021-08-04T11:10:29.312Z</time>
      </trkpt>
      <trkpt lat="46.97643" lon="8.66227">
        <ele>1324</ele>
        <time>2021-08-04T11:10:30.312Z</time>
      </trkpt>
      <trkpt lat="46.97643" lon="8.66227">
        <ele>1324</ele>
        <time>2021-08-04T11:10:31.311Z</time>
      </trkpt>
      <trkpt lat="46.97643" lon="8.66228">
        <ele>1325</ele>
        <time>2021-08-04T11:10:32.311Z</time>
      </trkpt>
      <trkpt lat="46.97643" lon="8.66227">
        <ele>1327</ele>
        <time>2021-08-04T11:10:33.312Z</time>
      </trkpt>
      <trkpt lat="46.97644" lon="8.66225">
        <ele>1327</ele>
        <time>2021-08-04T11:10:34.312Z</time>
      </trkpt>
      <trkpt lat="46.97645" lon="8.66224">
        <ele>1328</ele>
        <time>2021-08-04T11:10:35.311Z</time>
      </trkpt>
      <trkpt lat="46.97647" lon="8.66222">
        <ele>1328</ele>
        <time>2021-08-04T11:10:36.312Z</time>
      </trkpt>
      <trkpt lat="46.97648" lon="8.66221">
        <ele>1328</ele>
        <time>2021-08-04T11:10:37.311Z</time>
      </trkpt>
      <trkpt lat="46.97649" lon="8.6622">
        <ele>1328</ele>
        <time>2021-08-04T11:10:38.312Z</time>
      </trkpt>
      <trkpt lat="46.9765" lon="8.66219">
        <ele>1328</ele>
        <time>2021-08-04T11:10:39.311Z</time>
      </trkpt>
      <trkpt lat="46.97651" lon="8.66218">
        <ele>1328</ele>
        <time>2021-08-04T11:10:40.312Z</time>
      </trkpt>
      <trkpt lat="46.97652" lon="8.66217">
        <ele>1328</ele>
        <time>2021-08-04T11:10:43.410Z</time>
      </trkpt>
      <trkpt lat="46.97653" lon="8.66217">
        <ele>1328</ele>
        <time>2021-08-04T11:10:44.410Z</time>
      </trkpt>
      <trkpt lat="46.97653" lon="8.66217">
        <ele>1328</ele>
        <time>2021-08-04T11:10:45.411Z</time>
      </trkpt>
      <trkpt lat="46.97654" lon="8.66216">
        <ele>1327</ele>
        <time>2021-08-04T11:11:17.602Z</time>
      </trkpt>
      <trkpt lat="46.97655" lon="8.66215">
        <ele>1327</ele>
        <time>2021-08-04T11:11:18.602Z</time>
      </trkpt>
      <trkpt lat="46.97655" lon="8.66214">
        <ele>1326</ele>
        <time>2021-08-04T11:11:28.436Z</time>
      </trkpt>
      <trkpt lat="46.97656" lon="8.66213">
        <ele>1325</ele>
        <time>2021-08-04T11:11:29.435Z</time>
      </trkpt>
      <trkpt lat="46.97656" lon="8.66213">
        <ele>1324</ele>
        <time>2021-08-04T11:11:30.435Z</time>
      </trkpt>
      <trkpt lat="46.97657" lon="8.66213">
        <ele>1324</ele>
        <time>2021-08-04T11:11:31.435Z</time>
      </trkpt>
      <trkpt lat="46.97658" lon="8.66213">
        <ele>1323</ele>
        <time>2021-08-04T11:11:32.436Z</time>
      </trkpt>
      <trkpt lat="46.97659" lon="8.66213">
        <ele>1323</ele>
        <time>2021-08-04T11:11:33.436Z</time>
      </trkpt>
      <trkpt lat="46.9766" lon="8.66213">
        <ele>1322</ele>
        <time>2021-08-04T11:11:34.436Z</time>
      </trkpt>
      <trkpt lat="46.9766" lon="8.66214">
        <ele>1322</ele>
        <time>2021-08-04T11:11:35.436Z</time>
      </trkpt>
      <trkpt lat="46.9766" lon="8.66215">
        <ele>1321</ele>
        <time>2021-08-04T11:11:36.436Z</time>
      </trkpt>
      <trkpt lat="46.9766" lon="8.66216">
        <ele>1321</ele>
        <time>2021-08-04T11:11:37.435Z</time>
      </trkpt>
      <trkpt lat="46.97661" lon="8.66216">
        <ele>1321</ele>
        <time>2021-08-04T11:11:38.436Z</time>
      </trkpt>
      <trkpt lat="46.97661" lon="8.66217">
        <ele>1320</ele>
        <time>2021-08-04T11:11:39.435Z</time>
      </trkpt>
      <trkpt lat="46.97662" lon="8.66218">
        <ele>1320</ele>
        <time>2021-08-04T11:11:40.435Z</time>
      </trkpt>
      <trkpt lat="46.97662" lon="8.66218">
        <ele>1320</ele>
        <time>2021-08-04T11:11:41.435Z</time>
      </trkpt>
      <trkpt lat="46.97662" lon="8.66219">
        <ele>1320</ele>
        <time>2021-08-04T11:11:42.436Z</time>
      </trkpt>
      <trkpt lat="46.97662" lon="8.6622">
        <ele>1320</ele>
        <time>2021-08-04T11:11:43.436Z</time>
      </trkpt>
      <trkpt lat="46.97662" lon="8.66221">
        <ele>1321</ele>
        <time>2021-08-04T11:11:44.436Z</time>
      </trkpt>
      <trkpt lat="46.97662" lon="8.66222">
        <ele>1321</ele>
        <time>2021-08-04T11:11:45.436Z</time>
      </trkpt>
      <trkpt lat="46.97662" lon="8.66223">
        <ele>1321</ele>
        <time>2021-08-04T11:11:46.435Z</time>
      </trkpt>
      <trkpt lat="46.97663" lon="8.66224">
        <ele>1321</ele>
        <time>2021-08-04T11:11:47.436Z</time>
      </trkpt>
      <trkpt lat="46.97662" lon="8.66225">
        <ele>1321</ele>
        <time>2021-08-04T11:11:48.436Z</time>
      </trkpt>
      <trkpt lat="46.97662" lon="8.66226">
        <ele>1321</ele>
        <time>2021-08-04T11:11:49.435Z</time>
      </trkpt>
      <trkpt lat="46.97662" lon="8.66227">
        <ele>1322</ele>
        <time>2021-08-04T11:11:50.436Z</time>
      </trkpt>
      <trkpt lat="46.97662" lon="8.66229">
        <ele>1322</ele>
        <time>2021-08-04T11:11:51.436Z</time>
      </trkpt>
      <trkpt lat="46.97662" lon="8.6623">
        <ele>1323</ele>
        <time>2021-08-04T11:11:52.436Z</time>
      </trkpt>
      <trkpt lat="46.97663" lon="8.66232">
        <ele>1323</ele>
        <time>2021-08-04T11:11:53.436Z</time>
      </trkpt>
      <trkpt lat="46.97663" lon="8.66233">
        <ele>1323</ele>
        <time>2021-08-04T11:11:54.435Z</time>
      </trkpt>
      <trkpt lat="46.97663" lon="8.66235">
        <ele>1323</ele>
        <time>2021-08-04T11:11:55.436Z</time>
      </trkpt>
      <trkpt lat="46.97663" lon="8.66236">
        <ele>1323</ele>
        <time>2021-08-04T11:11:56.436Z</time>
      </trkpt>
      <trkpt lat="46.97664" lon="8.66238">
        <ele>1323</ele>
        <time>2021-08-04T11:11:57.436Z</time>
      </trkpt>
      <trkpt lat="46.97665" lon="8.66239">
        <ele>1322</ele>
        <time>2021-08-04T11:11:58.436Z</time>
      </trkpt>
      <trkpt lat="46.97665" lon="8.66241">
        <ele>1322</ele>
        <time>2021-08-04T11:11:59.435Z</time>
      </trkpt>
      <trkpt lat="46.97665" lon="8.66241">
        <ele>1322</ele>
        <time>2021-08-04T11:12:00.436Z</time>
      </trkpt>
      <trkpt lat="46.97665" lon="8.66241">
        <ele>1323</ele>
        <time>2021-08-04T11:12:01.436Z</time>
      </trkpt>
      <trkpt lat="46.97665" lon="8.66242">
        <ele>1323</ele>
        <time>2021-08-04T11:12:02.436Z</time>
      </trkpt>
      <trkpt lat="46.97664" lon="8.66243">
        <ele>1324</ele>
        <time>2021-08-04T11:12:03.436Z</time>
      </trkpt>
      <trkpt lat="46.97663" lon="8.66243">
        <ele>1325</ele>
        <time>2021-08-04T11:12:04.435Z</time>
      </trkpt>
      <trkpt lat="46.97662" lon="8.66245">
        <ele>1326</ele>
        <time>2021-08-04T11:12:05.436Z</time>
      </trkpt>
      <trkpt lat="46.97662" lon="8.66246">
        <ele>1327</ele>
        <time>2021-08-04T11:12:06.436Z</time>
      </trkpt>
      <trkpt lat="46.97662" lon="8.66246">
        <ele>1327</ele>
        <time>2021-08-04T11:12:07.435Z</time>
      </trkpt>
      <trkpt lat="46.97662" lon="8.66247">
        <ele>1328</ele>
        <time>2021-08-04T11:12:08.435Z</time>
      </trkpt>
      <trkpt lat="46.97662" lon="8.66248">
        <ele>1328</ele>
        <time>2021-08-04T11:12:09.435Z</time>
      </trkpt>
      <trkpt lat="46.97661" lon="8.66248">
        <ele>1328</ele>
        <time>2021-08-04T11:12:10.435Z</time>
      </trkpt>
      <trkpt lat="46.9766" lon="8.66248">
        <ele>1328</ele>
        <time>2021-08-04T11:12:11.436Z</time>
      </trkpt>
      <trkpt lat="46.9766" lon="8.66248">
        <ele>1328</ele>
        <time>2021-08-04T11:12:12.435Z</time>
      </trkpt>
      <trkpt lat="46.97659" lon="8.66248">
        <ele>1327</ele>
        <time>2021-08-04T11:12:13.436Z</time>
      </trkpt>
      <trkpt lat="46.97659" lon="8.66248">
        <ele>1327</ele>
        <time>2021-08-04T11:12:14.436Z</time>
      </trkpt>
      <trkpt lat="46.97658" lon="8.66247">
        <ele>1328</ele>
        <time>2021-08-04T11:12:15.435Z</time>
      </trkpt>
      <trkpt lat="46.97658" lon="8.66246">
        <ele>1328</ele>
        <time>2021-08-04T11:12:16.436Z</time>
      </trkpt>
      <trkpt lat="46.97658" lon="8.66246">
        <ele>1328</ele>
        <time>2021-08-04T11:12:17.435Z</time>
      </trkpt>
      <trkpt lat="46.97663" lon="8.66255">
        <ele>1327</ele>
        <time>2021-08-04T11:17:50.898Z</time>
      </trkpt>
      <trkpt lat="46.97662" lon="8.66257">
        <ele>1327</ele>
        <time>2021-08-04T11:17:51.899Z</time>
      </trkpt>
      <trkpt lat="46.97666" lon="8.6626">
        <ele>1326</ele>
        <time>2021-08-04T11:17:52.899Z</time>
      </trkpt>
      <trkpt lat="46.97669" lon="8.66262">
        <ele>1326</ele>
        <time>2021-08-04T11:17:53.898Z</time>
      </trkpt>
      <trkpt lat="46.97668" lon="8.66261">
        <ele>1325</ele>
        <time>2021-08-04T11:17:54.898Z</time>
      </trkpt>
      <trkpt lat="46.97668" lon="8.66262">
        <ele>1325</ele>
        <time>2021-08-04T11:17:55.898Z</time>
      </trkpt>
      <trkpt lat="46.97668" lon="8.66261">
        <ele>1324</ele>
        <time>2021-08-04T11:17:56.899Z</time>
      </trkpt>
      <trkpt lat="46.97668" lon="8.66259">
        <ele>1324</ele>
        <time>2021-08-04T11:17:57.899Z</time>
      </trkpt>
      <trkpt lat="46.97667" lon="8.66258">
        <ele>1323</ele>
        <time>2021-08-04T11:17:58.898Z</time>
      </trkpt>
      <trkpt lat="46.97669" lon="8.66257">
        <ele>1323</ele>
        <time>2021-08-04T11:17:59.899Z</time>
      </trkpt>
      <trkpt lat="46.9767" lon="8.66257">
        <ele>1323</ele>
        <time>2021-08-04T11:18:00.899Z</time>
      </trkpt>
      <trkpt lat="46.9767" lon="8.66256">
        <ele>1323</ele>
        <time>2021-08-04T11:18:01.898Z</time>
      </trkpt>
      <trkpt lat="46.97672" lon="8.66256">
        <ele>1323</ele>
        <time>2021-08-04T11:18:02.899Z</time>
      </trkpt>
      <trkpt lat="46.97672" lon="8.66255">
        <ele>1323</ele>
        <time>2021-08-04T11:18:03.899Z</time>
      </trkpt>
      <trkpt lat="46.97674" lon="8.66253">
        <ele>1324</ele>
        <time>2021-08-04T11:18:04.899Z</time>
      </trkpt>
      <trkpt lat="46.97675" lon="8.66252">
        <ele>1324</ele>
        <time>2021-08-04T11:18:05.898Z</time>
      </trkpt>
      <trkpt lat="46.97676" lon="8.66251">
        <ele>1325</ele>
        <time>2021-08-04T11:18:06.898Z</time>
      </trkpt>
      <trkpt lat="46.97677" lon="8.6625">
        <ele>1326</ele>
        <time>2021-08-04T11:18:07.898Z</time>
      </trkpt>
      <trkpt lat="46.97677" lon="8.66249">
        <ele>1327</ele>
        <time>2021-08-04T11:18:08.899Z</time>
      </trkpt>
      <trkpt lat="46.97678" lon="8.66249">
        <ele>1328</ele>
        <time>2021-08-04T11:18:09.899Z</time>
      </trkpt>
      <trkpt lat="46.97679" lon="8.6625">
        <ele>1329</ele>
        <time>2021-08-04T11:18:10.899Z</time>
      </trkpt>
      <trkpt lat="46.97679" lon="8.66251">
        <ele>1330</ele>
        <time>2021-08-04T11:18:11.898Z</time>
      </trkpt>
      <trkpt lat="46.97679" lon="8.66251">
        <ele>1331</ele>
        <time>2021-08-04T11:18:12.898Z</time>
      </trkpt>
      <trkpt lat="46.97678" lon="8.66251">
        <ele>1332</ele>
        <time>2021-08-04T11:18:13.899Z</time>
      </trkpt>
      <trkpt lat="46.97679" lon="8.66251">
        <ele>1333</ele>
        <time>2021-08-04T11:18:14.899Z</time>
      </trkpt>
      <trkpt lat="46.97679" lon="8.66251">
        <ele>1333</ele>
        <time>2021-08-04T11:18:15.898Z</time>
      </trkpt>
      <trkpt lat="46.9768" lon="8.66251">
        <ele>1333</ele>
        <time>2021-08-04T11:18:16.898Z</time>
      </trkpt>
      <trkpt lat="46.97681" lon="8.66252">
        <ele>1333</ele>
        <time>2021-08-04T11:18:17.898Z</time>
      </trkpt>
      <trkpt lat="46.97682" lon="8.66252">
        <ele>1333</ele>
        <time>2021-08-04T11:18:18.899Z</time>
      </trkpt>
      <trkpt lat="46.97683" lon="8.66253">
        <ele>1332</ele>
        <time>2021-08-04T11:18:21.028Z</time>
      </trkpt>
      <trkpt lat="46.97683" lon="8.66254">
        <ele>1332</ele>
        <time>2021-08-04T11:18:22.027Z</time>
      </trkpt>
      <trkpt lat="46.97684" lon="8.66255">
        <ele>1331</ele>
        <time>2021-08-04T11:18:23.028Z</time>
      </trkpt>
      <trkpt lat="46.97685" lon="8.66256">
        <ele>1331</ele>
        <time>2021-08-04T11:18:24.027Z</time>
      </trkpt>
      <trkpt lat="46.97685" lon="8.66257">
        <ele>1330</ele>
        <time>2021-08-04T11:18:25.027Z</time>
      </trkpt>
      <trkpt lat="46.97685" lon="8.66258">
        <ele>1330</ele>
        <time>2021-08-04T11:18:26.027Z</time>
      </trkpt>
      <trkpt lat="46.97685" lon="8.66258">
        <ele>1329</ele>
        <time>2021-08-04T11:18:29.151Z</time>
      </trkpt>
      <trkpt lat="46.97685" lon="8.66256">
        <ele>1325</ele>
        <time>2021-08-04T11:18:30.150Z</time>
      </trkpt>
      <trkpt lat="46.97686" lon="8.66255">
        <ele>1325</ele>
        <time>2021-08-04T11:18:31.151Z</time>
      </trkpt>
      <trkpt lat="46.97687" lon="8.66254">
        <ele>1325</ele>
        <time>2021-08-04T11:18:32.151Z</time>
      </trkpt>
      <trkpt lat="46.97687" lon="8.66252">
        <ele>1326</ele>
        <time>2021-08-04T11:18:33.150Z</time>
      </trkpt>
      <trkpt lat="46.97686" lon="8.66252">
        <ele>1327</ele>
        <time>2021-08-04T11:18:34.150Z</time>
      </trkpt>
      <trkpt lat="46.97685" lon="8.66252">
        <ele>1327</ele>
        <time>2021-08-04T11:18:35.151Z</time>
      </trkpt>
      <trkpt lat="46.97684" lon="8.66252">
        <ele>1327</ele>
        <time>2021-08-04T11:18:36.151Z</time>
      </trkpt>
      <trkpt lat="46.97683" lon="8.66253">
        <ele>1327</ele>
        <time>2021-08-04T11:18:37.150Z</time>
      </trkpt>
      <trkpt lat="46.97682" lon="8.66253">
        <ele>1327</ele>
        <time>2021-08-04T11:18:38.151Z</time>
      </trkpt>
      <trkpt lat="46.97682" lon="8.66253">
        <ele>1327</ele>
        <time>2021-08-04T11:18:39.151Z</time>
      </trkpt>
      <trkpt lat="46.97681" lon="8.66254">
        <ele>1327</ele>
        <time>2021-08-04T11:18:40.151Z</time>
      </trkpt>
      <trkpt lat="46.9768" lon="8.66254">
        <ele>1327</ele>
        <time>2021-08-04T11:18:41.151Z</time>
      </trkpt>
      <trkpt lat="46.97679" lon="8.66254">
        <ele>1327</ele>
        <time>2021-08-04T11:18:42.150Z</time>
      </trkpt>
      <trkpt lat="46.97678" lon="8.66254">
        <ele>1328</ele>
        <time>2021-08-04T11:18:43.151Z</time>
      </trkpt>
      <trkpt lat="46.97678" lon="8.66253">
        <ele>1328</ele>
        <time>2021-08-04T11:18:44.150Z</time>
      </trkpt>
      <trkpt lat="46.97677" lon="8.66253">
        <ele>1328</ele>
        <time>2021-08-04T11:18:45.151Z</time>
      </trkpt>
      <trkpt lat="46.97676" lon="8.66252">
        <ele>1328</ele>
        <time>2021-08-04T11:18:46.151Z</time>
      </trkpt>
      <trkpt lat="46.97675" lon="8.66252">
        <ele>1328</ele>
        <time>2021-08-04T11:18:47.150Z</time>
      </trkpt>
      <trkpt lat="46.97675" lon="8.66251">
        <ele>1328</ele>
        <time>2021-08-04T11:18:48.150Z</time>
      </trkpt>
      <trkpt lat="46.97675" lon="8.66251">
        <ele>1329</ele>
        <time>2021-08-04T11:18:49.151Z</time>
      </trkpt>
      <trkpt lat="46.97674" lon="8.6625">
        <ele>1329</ele>
        <time>2021-08-04T11:18:50.150Z</time>
      </trkpt>
      <trkpt lat="46.97674" lon="8.6625">
        <ele>1329</ele>
        <time>2021-08-04T11:18:51.150Z</time>
      </trkpt>
      <trkpt lat="46.97674" lon="8.6625">
        <ele>1329</ele>
        <time>2021-08-04T11:18:52.151Z</time>
      </trkpt>
      <trkpt lat="46.97673" lon="8.6625">
        <ele>1329</ele>
        <time>2021-08-04T11:18:53.151Z</time>
      </trkpt>
      <trkpt lat="46.97673" lon="8.6625">
        <ele>1329</ele>
        <time>2021-08-04T11:18:54.151Z</time>
      </trkpt>
      <trkpt lat="46.97672" lon="8.66249">
        <ele>1329</ele>
        <time>2021-08-04T11:18:55.150Z</time>
      </trkpt>
      <trkpt lat="46.97672" lon="8.66247">
        <ele>1329</ele>
        <time>2021-08-04T11:18:56.151Z</time>
      </trkpt>
      <trkpt lat="46.97672" lon="8.66245">
        <ele>1329</ele>
        <time>2021-08-04T11:18:57.150Z</time>
      </trkpt>
      <trkpt lat="46.97671" lon="8.66244">
        <ele>1330</ele>
        <time>2021-08-04T11:18:58.151Z</time>
      </trkpt>
      <trkpt lat="46.97671" lon="8.66242">
        <ele>1330</ele>
        <time>2021-08-04T11:18:59.151Z</time>
      </trkpt>
      <trkpt lat="46.97671" lon="8.6624">
        <ele>1329</ele>
        <time>2021-08-04T11:19:03.291Z</time>
      </trkpt>
      <trkpt lat="46.97671" lon="8.66238">
        <ele>1329</ele>
        <time>2021-08-04T11:19:04.291Z</time>
      </trkpt>
      <trkpt lat="46.9767" lon="8.66237">
        <ele>1328</ele>
        <time>2021-08-04T11:19:05.291Z</time>
      </trkpt>
      <trkpt lat="46.9767" lon="8.66236">
        <ele>1328</ele>
        <time>2021-08-04T11:19:06.292Z</time>
      </trkpt>
      <trkpt lat="46.9767" lon="8.66235">
        <ele>1328</ele>
        <time>2021-08-04T11:19:07.291Z</time>
      </trkpt>
      <trkpt lat="46.97669" lon="8.66232">
        <ele>1328</ele>
        <time>2021-08-04T11:19:08.292Z</time>
      </trkpt>
      <trkpt lat="46.97669" lon="8.66231">
        <ele>1328</ele>
        <time>2021-08-04T11:19:09.292Z</time>
      </trkpt>
      <trkpt lat="46.97669" lon="8.66231">
        <ele>1327</ele>
        <time>2021-08-04T11:19:10.292Z</time>
      </trkpt>
      <trkpt lat="46.97669" lon="8.66229">
        <ele>1327</ele>
        <time>2021-08-04T11:19:11.292Z</time>
      </trkpt>
      <trkpt lat="46.97669" lon="8.66228">
        <ele>1327</ele>
        <time>2021-08-04T11:19:12.291Z</time>
      </trkpt>
      <trkpt lat="46.97669" lon="8.66227">
        <ele>1327</ele>
        <time>2021-08-04T11:19:13.292Z</time>
      </trkpt>
      <trkpt lat="46.97669" lon="8.66225">
        <ele>1327</ele>
        <time>2021-08-04T11:19:14.292Z</time>
      </trkpt>
      <trkpt lat="46.97669" lon="8.66223">
        <ele>1327</ele>
        <time>2021-08-04T11:19:15.292Z</time>
      </trkpt>
      <trkpt lat="46.97668" lon="8.66222">
        <ele>1326</ele>
        <time>2021-08-04T11:19:16.291Z</time>
      </trkpt>
      <trkpt lat="46.97668" lon="8.6622">
        <ele>1326</ele>
        <time>2021-08-04T11:19:17.292Z</time>
      </trkpt>
      <trkpt lat="46.97668" lon="8.66218">
        <ele>1325</ele>
        <time>2021-08-04T11:19:18.292Z</time>
      </trkpt>
      <trkpt lat="46.97666" lon="8.66215">
        <ele>1325</ele>
        <time>2021-08-04T11:19:19.292Z</time>
      </trkpt>
      <trkpt lat="46.97666" lon="8.66213">
        <ele>1325</ele>
        <time>2021-08-04T11:19:20.292Z</time>
      </trkpt>
      <trkpt lat="46.97665" lon="8.66212">
        <ele>1325</ele>
        <time>2021-08-04T11:19:21.292Z</time>
      </trkpt>
      <trkpt lat="46.97664" lon="8.6621">
        <ele>1325</ele>
        <time>2021-08-04T11:19:22.291Z</time>
      </trkpt>
      <trkpt lat="46.97663" lon="8.66209">
        <ele>1326</ele>
        <time>2021-08-04T11:19:23.291Z</time>
      </trkpt>
      <trkpt lat="46.97662" lon="8.66209">
        <ele>1326</ele>
        <time>2021-08-04T11:19:24.292Z</time>
      </trkpt>
      <trkpt lat="46.97661" lon="8.66209">
        <ele>1326</ele>
        <time>2021-08-04T11:19:25.291Z</time>
      </trkpt>
      <trkpt lat="46.9766" lon="8.66208">
        <ele>1326</ele>
        <time>2021-08-04T11:19:26.291Z</time>
      </trkpt>
      <trkpt lat="46.97658" lon="8.66208">
        <ele>1326</ele>
        <time>2021-08-04T11:19:27.292Z</time>
      </trkpt>
      <trkpt lat="46.97657" lon="8.66209">
        <ele>1326</ele>
        <time>2021-08-04T11:19:28.292Z</time>
      </trkpt>
      <trkpt lat="46.97656" lon="8.66209">
        <ele>1326</ele>
        <time>2021-08-04T11:19:29.291Z</time>
      </trkpt>
      <trkpt lat="46.97655" lon="8.6621">
        <ele>1326</ele>
        <time>2021-08-04T11:19:30.291Z</time>
      </trkpt>
      <trkpt lat="46.97654" lon="8.66209">
        <ele>1326</ele>
        <time>2021-08-04T11:19:31.292Z</time>
      </trkpt>
      <trkpt lat="46.97653" lon="8.6621">
        <ele>1325</ele>
        <time>2021-08-04T11:19:32.292Z</time>
      </trkpt>
      <trkpt lat="46.97652" lon="8.66211">
        <ele>1325</ele>
        <time>2021-08-04T11:19:33.292Z</time>
      </trkpt>
      <trkpt lat="46.97652" lon="8.66212">
        <ele>1325</ele>
        <time>2021-08-04T11:19:34.291Z</time>
      </trkpt>
      <trkpt lat="46.97652" lon="8.66213">
        <ele>1324</ele>
        <time>2021-08-04T11:19:35.292Z</time>
      </trkpt>
      <trkpt lat="46.97651" lon="8.66213">
        <ele>1324</ele>
        <time>2021-08-04T11:19:36.292Z</time>
      </trkpt>
      <trkpt lat="46.9765" lon="8.66212">
        <ele>1324</ele>
        <time>2021-08-04T11:19:37.292Z</time>
      </trkpt>
      <trkpt lat="46.97649" lon="8.66212">
        <ele>1324</ele>
        <time>2021-08-04T11:19:38.292Z</time>
      </trkpt>
      <trkpt lat="46.97649" lon="8.66212">
        <ele>1325</ele>
        <time>2021-08-04T11:19:39.291Z</time>
      </trkpt>
      <trkpt lat="46.97648" lon="8.66213">
        <ele>1325</ele>
        <time>2021-08-04T11:19:40.291Z</time>
      </trkpt>
      <trkpt lat="46.97647" lon="8.66214">
        <ele>1325</ele>
        <time>2021-08-04T11:19:41.291Z</time>
      </trkpt>
      <trkpt lat="46.97646" lon="8.66215">
        <ele>1326</ele>
        <time>2021-08-04T11:19:42.291Z</time>
      </trkpt>
      <trkpt lat="46.97644" lon="8.66216">
        <ele>1326</ele>
        <time>2021-08-04T11:19:43.292Z</time>
      </trkpt>
      <trkpt lat="46.97643" lon="8.66216">
        <ele>1327</ele>
        <time>2021-08-04T11:19:44.291Z</time>
      </trkpt>
      <trkpt lat="46.97642" lon="8.66217">
        <ele>1327</ele>
        <time>2021-08-04T11:19:45.292Z</time>
      </trkpt>
      <trkpt lat="46.97642" lon="8.66217">
        <ele>1327</ele>
        <time>2021-08-04T11:19:46.292Z</time>
      </trkpt>
      <trkpt lat="46.97641" lon="8.66218">
        <ele>1327</ele>
        <time>2021-08-04T11:19:47.292Z</time>
      </trkpt>
      <trkpt lat="46.97641" lon="8.66218">
        <ele>1327</ele>
        <time>2021-08-04T11:19:48.292Z</time>
      </trkpt>
      <trkpt lat="46.9764" lon="8.66217">
        <ele>1327</ele>
        <time>2021-08-04T11:19:49.292Z</time>
      </trkpt>
      <trkpt lat="46.97639" lon="8.66216">
        <ele>1328</ele>
        <time>2021-08-04T11:19:50.292Z</time>
      </trkpt>
      <trkpt lat="46.97638" lon="8.66215">
        <ele>1329</ele>
        <time>2021-08-04T11:19:51.291Z</time>
      </trkpt>
      <trkpt lat="46.97638" lon="8.66214">
        <ele>1329</ele>
        <time>2021-08-04T11:19:52.292Z</time>
      </trkpt>
      <trkpt lat="46.97637" lon="8.66213">
        <ele>1330</ele>
        <time>2021-08-04T11:19:53.291Z</time>
      </trkpt>
      <trkpt lat="46.97636" lon="8.66213">
        <ele>1330</ele>
        <time>2021-08-04T11:19:54.292Z</time>
      </trkpt>
      <trkpt lat="46.97636" lon="8.66212">
        <ele>1331</ele>
        <time>2021-08-04T11:19:55.292Z</time>
      </trkpt>
      <trkpt lat="46.97635" lon="8.66211">
        <ele>1331</ele>
        <time>2021-08-04T11:19:56.292Z</time>
      </trkpt>
      <trkpt lat="46.97634" lon="8.6621">
        <ele>1331</ele>
        <time>2021-08-04T11:19:57.292Z</time>
      </trkpt>
      <trkpt lat="46.97633" lon="8.6621">
        <ele>1331</ele>
        <time>2021-08-04T11:19:58.292Z</time>
      </trkpt>
      <trkpt lat="46.97632" lon="8.66209">
        <ele>1331</ele>
        <time>2021-08-04T11:19:59.292Z</time>
      </trkpt>
      <trkpt lat="46.97631" lon="8.66208">
        <ele>1330</ele>
        <time>2021-08-04T11:20:00.292Z</time>
      </trkpt>
      <trkpt lat="46.9763" lon="8.66207">
        <ele>1329</ele>
        <time>2021-08-04T11:20:01.292Z</time>
      </trkpt>
      <trkpt lat="46.97629" lon="8.66206">
        <ele>1328</ele>
        <time>2021-08-04T11:20:02.292Z</time>
      </trkpt>
      <trkpt lat="46.97628" lon="8.66205">
        <ele>1328</ele>
        <time>2021-08-04T11:20:03.292Z</time>
      </trkpt>
      <trkpt lat="46.97627" lon="8.66204">
        <ele>1327</ele>
        <time>2021-08-04T11:20:04.292Z</time>
      </trkpt>
      <trkpt lat="46.97626" lon="8.66204">
        <ele>1327</ele>
        <time>2021-08-04T11:20:05.291Z</time>
      </trkpt>
      <trkpt lat="46.97625" lon="8.66204">
        <ele>1327</ele>
        <time>2021-08-04T11:20:06.291Z</time>
      </trkpt>
      <trkpt lat="46.97624" lon="8.66205">
        <ele>1326</ele>
        <time>2021-08-04T11:20:07.291Z</time>
      </trkpt>
      <trkpt lat="46.97623" lon="8.66204">
        <ele>1326</ele>
        <time>2021-08-04T11:20:08.292Z</time>
      </trkpt>
      <trkpt lat="46.97621" lon="8.66203">
        <ele>1325</ele>
        <time>2021-08-04T11:20:09.291Z</time>
      </trkpt>
      <trkpt lat="46.9762" lon="8.66201">
        <ele>1325</ele>
        <time>2021-08-04T11:20:10.291Z</time>
      </trkpt>
      <trkpt lat="46.97619" lon="8.662">
        <ele>1324</ele>
        <time>2021-08-04T11:20:11.292Z</time>
      </trkpt>
      <trkpt lat="46.97618" lon="8.66199">
        <ele>1324</ele>
        <time>2021-08-04T11:20:12.292Z</time>
      </trkpt>
      <trkpt lat="46.97618" lon="8.66198">
        <ele>1323</ele>
        <time>2021-08-04T11:20:13.291Z</time>
      </trkpt>
      <trkpt lat="46.97617" lon="8.66197">
        <ele>1323</ele>
        <time>2021-08-04T11:20:14.292Z</time>
      </trkpt>
      <trkpt lat="46.97616" lon="8.66197">
        <ele>1323</ele>
        <time>2021-08-04T11:20:15.291Z</time>
      </trkpt>
      <trkpt lat="46.97615" lon="8.66196">
        <ele>1323</ele>
        <time>2021-08-04T11:20:16.292Z</time>
      </trkpt>
      <trkpt lat="46.97614" lon="8.66194">
        <ele>1323</ele>
        <time>2021-08-04T11:20:17.291Z</time>
      </trkpt>
      <trkpt lat="46.97613" lon="8.66193">
        <ele>1323</ele>
        <time>2021-08-04T11:20:18.291Z</time>
      </trkpt>
      <trkpt lat="46.97613" lon="8.66193">
        <ele>1323</ele>
        <time>2021-08-04T11:20:19.292Z</time>
      </trkpt>
      <trkpt lat="46.97612" lon="8.66192">
        <ele>1323</ele>
        <time>2021-08-04T11:20:20.292Z</time>
      </trkpt>
      <trkpt lat="46.97611" lon="8.66192">
        <ele>1323</ele>
        <time>2021-08-04T11:20:21.291Z</time>
      </trkpt>
      <trkpt lat="46.9761" lon="8.66191">
        <ele>1323</ele>
        <time>2021-08-04T11:20:22.292Z</time>
      </trkpt>
      <trkpt lat="46.97609" lon="8.6619">
        <ele>1323</ele>
        <time>2021-08-04T11:20:23.292Z</time>
      </trkpt>
      <trkpt lat="46.97608" lon="8.66188">
        <ele>1323</ele>
        <time>2021-08-04T11:20:24.291Z</time>
      </trkpt>
      <trkpt lat="46.97607" lon="8.66188">
        <ele>1323</ele>
        <time>2021-08-04T11:20:25.292Z</time>
      </trkpt>
      <trkpt lat="46.97607" lon="8.66188">
        <ele>1323</ele>
        <time>2021-08-04T11:20:26.292Z</time>
      </trkpt>
      <trkpt lat="46.97607" lon="8.66188">
        <ele>1324</ele>
        <time>2021-08-04T11:20:27.291Z</time>
      </trkpt>
      <trkpt lat="46.97606" lon="8.66188">
        <ele>1323</ele>
        <time>2021-08-04T11:20:28.292Z</time>
      </trkpt>
      <trkpt lat="46.97606" lon="8.66187">
        <ele>1323</ele>
        <time>2021-08-04T11:20:29.291Z</time>
      </trkpt>
      <trkpt lat="46.97605" lon="8.66187">
        <ele>1323</ele>
        <time>2021-08-04T11:20:30.292Z</time>
      </trkpt>
      <trkpt lat="46.97604" lon="8.66186">
        <ele>1323</ele>
        <time>2021-08-04T11:20:31.292Z</time>
      </trkpt>
      <trkpt lat="46.97603" lon="8.66185">
        <ele>1323</ele>
        <time>2021-08-04T11:20:32.292Z</time>
      </trkpt>
      <trkpt lat="46.97603" lon="8.66184">
        <ele>1323</ele>
        <time>2021-08-04T11:20:33.291Z</time>
      </trkpt>
      <trkpt lat="46.97602" lon="8.66183">
        <ele>1323</ele>
        <time>2021-08-04T11:20:34.291Z</time>
      </trkpt>
      <trkpt lat="46.97602" lon="8.66182">
        <ele>1323</ele>
        <time>2021-08-04T11:20:35.292Z</time>
      </trkpt>
      <trkpt lat="46.97601" lon="8.66181">
        <ele>1323</ele>
        <time>2021-08-04T11:20:36.291Z</time>
      </trkpt>
      <trkpt lat="46.976" lon="8.6618">
        <ele>1323</ele>
        <time>2021-08-04T11:20:37.292Z</time>
      </trkpt>
      <trkpt lat="46.976" lon="8.66179">
        <ele>1323</ele>
        <time>2021-08-04T11:20:38.291Z</time>
      </trkpt>
      <trkpt lat="46.97599" lon="8.66178">
        <ele>1322</ele>
        <time>2021-08-04T11:20:39.292Z</time>
      </trkpt>
      <trkpt lat="46.97598" lon="8.66177">
        <ele>1322</ele>
        <time>2021-08-04T11:20:40.292Z</time>
      </trkpt>
      <trkpt lat="46.97598" lon="8.66177">
        <ele>1322</ele>
        <time>2021-08-04T11:20:41.291Z</time>
      </trkpt>
      <trkpt lat="46.97597" lon="8.66176">
        <ele>1323</ele>
        <time>2021-08-04T11:20:42.291Z</time>
      </trkpt>
      <trkpt lat="46.97596" lon="8.66175">
        <ele>1323</ele>
        <time>2021-08-04T11:20:43.292Z</time>
      </trkpt>
      <trkpt lat="46.97596" lon="8.66174">
        <ele>1324</ele>
        <time>2021-08-04T11:20:44.291Z</time>
      </trkpt>
      <trkpt lat="46.97596" lon="8.66173">
        <ele>1324</ele>
        <time>2021-08-04T11:20:45.291Z</time>
      </trkpt>
      <trkpt lat="46.97595" lon="8.66172">
        <ele>1324</ele>
        <time>2021-08-04T11:20:46.292Z</time>
      </trkpt>
      <trkpt lat="46.97594" lon="8.66171">
        <ele>1324</ele>
        <time>2021-08-04T11:20:47.291Z</time>
      </trkpt>
      <trkpt lat="46.97593" lon="8.6617">
        <ele>1324</ele>
        <time>2021-08-04T11:20:48.292Z</time>
      </trkpt>
      <trkpt lat="46.97592" lon="8.66168">
        <ele>1324</ele>
        <time>2021-08-04T11:20:49.291Z</time>
      </trkpt>
      <trkpt lat="46.97591" lon="8.66167">
        <ele>1323</ele>
        <time>2021-08-04T11:20:50.291Z</time>
      </trkpt>
      <trkpt lat="46.9759" lon="8.66165">
        <ele>1323</ele>
        <time>2021-08-04T11:20:51.292Z</time>
      </trkpt>
      <trkpt lat="46.97589" lon="8.66164">
        <ele>1323</ele>
        <time>2021-08-04T11:20:52.291Z</time>
      </trkpt>
      <trkpt lat="46.97588" lon="8.66163">
        <ele>1323</ele>
        <time>2021-08-04T11:20:53.292Z</time>
      </trkpt>
      <trkpt lat="46.97587" lon="8.66162">
        <ele>1322</ele>
        <time>2021-08-04T11:20:54.291Z</time>
      </trkpt>
      <trkpt lat="46.97586" lon="8.66161">
        <ele>1323</ele>
        <time>2021-08-04T11:20:55.291Z</time>
      </trkpt>
      <trkpt lat="46.97586" lon="8.66159">
        <ele>1322</ele>
        <time>2021-08-04T11:20:56.292Z</time>
      </trkpt>
      <trkpt lat="46.97585" lon="8.66158">
        <ele>1322</ele>
        <time>2021-08-04T11:21:02.413Z</time>
      </trkpt>
      <trkpt lat="46.97584" lon="8.66157">
        <ele>1322</ele>
        <time>2021-08-04T11:21:03.414Z</time>
      </trkpt>
      <trkpt lat="46.97583" lon="8.66156">
        <ele>1322</ele>
        <time>2021-08-04T11:21:04.414Z</time>
      </trkpt>
      <trkpt lat="46.97583" lon="8.66155">
        <ele>1323</ele>
        <time>2021-08-04T11:21:05.414Z</time>
      </trkpt>
      <trkpt lat="46.97582" lon="8.66154">
        <ele>1323</ele>
        <time>2021-08-04T11:21:11.520Z</time>
      </trkpt>
      <trkpt lat="46.97581" lon="8.66153">
        <ele>1323</ele>
        <time>2021-08-04T11:21:12.521Z</time>
      </trkpt>
      <trkpt lat="46.9758" lon="8.66153">
        <ele>1323</ele>
        <time>2021-08-04T11:21:13.520Z</time>
      </trkpt>
      <trkpt lat="46.97579" lon="8.66152">
        <ele>1324</ele>
        <time>2021-08-04T11:21:14.521Z</time>
      </trkpt>
      <trkpt lat="46.97578" lon="8.66151">
        <ele>1324</ele>
        <time>2021-08-04T11:21:15.520Z</time>
      </trkpt>
      <trkpt lat="46.97577" lon="8.6615">
        <ele>1324</ele>
        <time>2021-08-04T11:21:16.520Z</time>
      </trkpt>
      <trkpt lat="46.97577" lon="8.6615">
        <ele>1325</ele>
        <time>2021-08-04T11:21:20.632Z</time>
      </trkpt>
      <trkpt lat="46.97576" lon="8.66149">
        <ele>1325</ele>
        <time>2021-08-04T11:21:21.632Z</time>
      </trkpt>
      <trkpt lat="46.97575" lon="8.66148">
        <ele>1326</ele>
        <time>2021-08-04T11:21:22.631Z</time>
      </trkpt>
      <trkpt lat="46.97574" lon="8.66149">
        <ele>1326</ele>
        <time>2021-08-04T11:21:23.632Z</time>
      </trkpt>
      <trkpt lat="46.97573" lon="8.66149">
        <ele>1326</ele>
        <time>2021-08-04T11:21:24.631Z</time>
      </trkpt>
      <trkpt lat="46.97572" lon="8.6615">
        <ele>1326</ele>
        <time>2021-08-04T11:21:25.631Z</time>
      </trkpt>
      <trkpt lat="46.97572" lon="8.66151">
        <ele>1327</ele>
        <time>2021-08-04T11:21:26.632Z</time>
      </trkpt>
      <trkpt lat="46.97571" lon="8.66152">
        <ele>1327</ele>
        <time>2021-08-04T11:21:27.631Z</time>
      </trkpt>
      <trkpt lat="46.97571" lon="8.66155">
        <ele>1328</ele>
        <time>2021-08-04T11:21:28.631Z</time>
      </trkpt>
      <trkpt lat="46.97572" lon="8.66156">
        <ele>1328</ele>
        <time>2021-08-04T11:21:29.632Z</time>
      </trkpt>
      <trkpt lat="46.97572" lon="8.66157">
        <ele>1328</ele>
        <time>2021-08-04T11:21:30.632Z</time>
      </trkpt>
      <trkpt lat="46.97572" lon="8.66158">
        <ele>1327</ele>
        <time>2021-08-04T11:21:31.632Z</time>
      </trkpt>
      <trkpt lat="46.97572" lon="8.66159">
        <ele>1327</ele>
        <time>2021-08-04T11:21:32.631Z</time>
      </trkpt>
      <trkpt lat="46.97572" lon="8.6616">
        <ele>1326</ele>
        <time>2021-08-04T11:21:33.632Z</time>
      </trkpt>
      <trkpt lat="46.97572" lon="8.66161">
        <ele>1326</ele>
        <time>2021-08-04T11:21:37.767Z</time>
      </trkpt>
      <trkpt lat="46.97572" lon="8.66163">
        <ele>1326</ele>
        <time>2021-08-04T11:21:38.767Z</time>
      </trkpt>
      <trkpt lat="46.97572" lon="8.66165">
        <ele>1326</ele>
        <time>2021-08-04T11:21:39.768Z</time>
      </trkpt>
      <trkpt lat="46.97571" lon="8.66167">
        <ele>1326</ele>
        <time>2021-08-04T11:21:40.767Z</time>
      </trkpt>
      <trkpt lat="46.97571" lon="8.66168">
        <ele>1326</ele>
        <time>2021-08-04T11:21:41.768Z</time>
      </trkpt>
      <trkpt lat="46.97571" lon="8.6617">
        <ele>1326</ele>
        <time>2021-08-04T11:21:42.767Z</time>
      </trkpt>
      <trkpt lat="46.97571" lon="8.66171">
        <ele>1327</ele>
        <time>2021-08-04T11:21:43.768Z</time>
      </trkpt>
      <trkpt lat="46.9757" lon="8.66172">
        <ele>1327</ele>
        <time>2021-08-04T11:21:44.768Z</time>
      </trkpt>
      <trkpt lat="46.9757" lon="8.66173">
        <ele>1327</ele>
        <time>2021-08-04T11:21:45.767Z</time>
      </trkpt>
      <trkpt lat="46.97569" lon="8.66174">
        <ele>1327</ele>
        <time>2021-08-04T11:21:46.768Z</time>
      </trkpt>
      <trkpt lat="46.97569" lon="8.66176">
        <ele>1327</ele>
        <time>2021-08-04T11:21:47.767Z</time>
      </trkpt>
      <trkpt lat="46.97569" lon="8.66177">
        <ele>1327</ele>
        <time>2021-08-04T11:21:48.768Z</time>
      </trkpt>
      <trkpt lat="46.97569" lon="8.66178">
        <ele>1327</ele>
        <time>2021-08-04T11:21:49.767Z</time>
      </trkpt>
      <trkpt lat="46.97568" lon="8.6618">
        <ele>1327</ele>
        <time>2021-08-04T11:21:50.767Z</time>
      </trkpt>
      <trkpt lat="46.97567" lon="8.66182">
        <ele>1328</ele>
        <time>2021-08-04T11:21:51.768Z</time>
      </trkpt>
      <trkpt lat="46.97566" lon="8.66183">
        <ele>1328</ele>
        <time>2021-08-04T11:21:52.767Z</time>
      </trkpt>
      <trkpt lat="46.97565" lon="8.66185">
        <ele>1328</ele>
        <time>2021-08-04T11:21:53.767Z</time>
      </trkpt>
      <trkpt lat="46.97565" lon="8.66186">
        <ele>1328</ele>
        <time>2021-08-04T11:21:54.767Z</time>
      </trkpt>
      <trkpt lat="46.97564" lon="8.66188">
        <ele>1328</ele>
        <time>2021-08-04T11:21:55.768Z</time>
      </trkpt>
      <trkpt lat="46.97564" lon="8.66189">
        <ele>1328</ele>
        <time>2021-08-04T11:21:56.768Z</time>
      </trkpt>
      <trkpt lat="46.97563" lon="8.6619">
        <ele>1328</ele>
        <time>2021-08-04T11:21:57.768Z</time>
      </trkpt>
      <trkpt lat="46.97562" lon="8.66192">
        <ele>1328</ele>
        <time>2021-08-04T11:21:58.767Z</time>
      </trkpt>
      <trkpt lat="46.97562" lon="8.66192">
        <ele>1328</ele>
        <time>2021-08-04T11:21:59.767Z</time>
      </trkpt>
      <trkpt lat="46.97561" lon="8.66193">
        <ele>1328</ele>
        <time>2021-08-04T11:22:00.768Z</time>
      </trkpt>
      <trkpt lat="46.9756" lon="8.66195">
        <ele>1328</ele>
        <time>2021-08-04T11:22:01.767Z</time>
      </trkpt>
      <trkpt lat="46.97559" lon="8.66196">
        <ele>1328</ele>
        <time>2021-08-04T11:22:02.768Z</time>
      </trkpt>
      <trkpt lat="46.97559" lon="8.66196">
        <ele>1328</ele>
        <time>2021-08-04T11:22:03.768Z</time>
      </trkpt>
      <trkpt lat="46.97558" lon="8.66197">
        <ele>1328</ele>
        <time>2021-08-04T11:22:04.768Z</time>
      </trkpt>
      <trkpt lat="46.97557" lon="8.66197">
        <ele>1328</ele>
        <time>2021-08-04T11:22:05.767Z</time>
      </trkpt>
      <trkpt lat="46.97556" lon="8.66198">
        <ele>1328</ele>
        <time>2021-08-04T11:22:06.767Z</time>
      </trkpt>
      <trkpt lat="46.97555" lon="8.66198">
        <ele>1328</ele>
        <time>2021-08-04T11:22:07.767Z</time>
      </trkpt>
      <trkpt lat="46.97554" lon="8.66198">
        <ele>1329</ele>
        <time>2021-08-04T11:22:08.767Z</time>
      </trkpt>
      <trkpt lat="46.97553" lon="8.66198">
        <ele>1329</ele>
        <time>2021-08-04T11:22:09.767Z</time>
      </trkpt>
      <trkpt lat="46.97552" lon="8.66199">
        <ele>1329</ele>
        <time>2021-08-04T11:22:10.767Z</time>
      </trkpt>
      <trkpt lat="46.97552" lon="8.66199">
        <ele>1328</ele>
        <time>2021-08-04T11:22:11.768Z</time>
      </trkpt>
      <trkpt lat="46.97552" lon="8.66199">
        <ele>1328</ele>
        <time>2021-08-04T11:22:12.768Z</time>
      </trkpt>
      <trkpt lat="46.97553" lon="8.66199">
        <ele>1328</ele>
        <time>2021-08-04T11:22:13.767Z</time>
      </trkpt>
      <trkpt lat="46.97553" lon="8.66198">
        <ele>1328</ele>
        <time>2021-08-04T11:22:14.768Z</time>
      </trkpt>
      <trkpt lat="46.97553" lon="8.66198">
        <ele>1328</ele>
        <time>2021-08-04T11:22:15.768Z</time>
      </trkpt>
      <trkpt lat="46.97553" lon="8.66197">
        <ele>1328</ele>
        <time>2021-08-04T11:22:16.767Z</time>
      </trkpt>
      <trkpt lat="46.97553" lon="8.66196">
        <ele>1328</ele>
        <time>2021-08-04T11:22:17.768Z</time>
      </trkpt>
      <trkpt lat="46.97553" lon="8.66196">
        <ele>1328</ele>
        <time>2021-08-04T11:22:18.768Z</time>
      </trkpt>
      <trkpt lat="46.97553" lon="8.66195">
        <ele>1328</ele>
        <time>2021-08-04T11:22:19.767Z</time>
      </trkpt>
      <trkpt lat="46.97552" lon="8.66195">
        <ele>1328</ele>
        <time>2021-08-04T11:22:20.767Z</time>
      </trkpt>
      <trkpt lat="46.97552" lon="8.66194">
        <ele>1327</ele>
        <time>2021-08-04T11:22:21.768Z</time>
      </trkpt>
      <trkpt lat="46.97551" lon="8.66191">
        <ele>1326</ele>
        <time>2021-08-04T11:22:22.769Z</time>
      </trkpt>
      <trkpt lat="46.9755" lon="8.6619">
        <ele>1327</ele>
        <time>2021-08-04T11:22:23.769Z</time>
      </trkpt>
      <trkpt lat="46.97548" lon="8.66187">
        <ele>1331</ele>
        <time>2021-08-04T11:22:24.770Z</time>
      </trkpt>
      <trkpt lat="46.97548" lon="8.66188">
        <ele>1331</ele>
        <time>2021-08-04T11:22:25.770Z</time>
      </trkpt>
      <trkpt lat="46.97548" lon="8.66188">
        <ele>1331</ele>
        <time>2021-08-04T11:22:26.771Z</time>
      </trkpt>
      <trkpt lat="46.9755" lon="8.6619">
        <ele>1330</ele>
        <time>2021-08-04T11:22:27.771Z</time>
      </trkpt>
      <trkpt lat="46.9755" lon="8.66192">
        <ele>1330</ele>
        <time>2021-08-04T11:22:28.771Z</time>
      </trkpt>
      <trkpt lat="46.9755" lon="8.66193">
        <ele>1330</ele>
        <time>2021-08-04T11:22:29.770Z</time>
      </trkpt>
      <trkpt lat="46.9755" lon="8.66194">
        <ele>1330</ele>
        <time>2021-08-04T11:22:30.770Z</time>
      </trkpt>
      <trkpt lat="46.97551" lon="8.66195">
        <ele>1330</ele>
        <time>2021-08-04T11:22:31.771Z</time>
      </trkpt>
      <trkpt lat="46.97551" lon="8.66196">
        <ele>1329</ele>
        <time>2021-08-04T11:22:32.770Z</time>
      </trkpt>
      <trkpt lat="46.97551" lon="8.66198">
        <ele>1329</ele>
        <time>2021-08-04T11:22:33.770Z</time>
      </trkpt>
      <trkpt lat="46.97551" lon="8.66199">
        <ele>1328</ele>
        <time>2021-08-04T11:22:34.771Z</time>
      </trkpt>
      <trkpt lat="46.97551" lon="8.662">
        <ele>1328</ele>
        <time>2021-08-04T11:22:35.771Z</time>
      </trkpt>
      <trkpt lat="46.97551" lon="8.66202">
        <ele>1328</ele>
        <time>2021-08-04T11:22:36.770Z</time>
      </trkpt>
      <trkpt lat="46.97551" lon="8.66203">
        <ele>1328</ele>
        <time>2021-08-04T11:22:37.771Z</time>
      </trkpt>
      <trkpt lat="46.97551" lon="8.66204">
        <ele>1328</ele>
        <time>2021-08-04T11:22:38.770Z</time>
      </trkpt>
      <trkpt lat="46.97551" lon="8.66204">
        <ele>1328</ele>
        <time>2021-08-04T11:22:39.770Z</time>
      </trkpt>
      <trkpt lat="46.9755" lon="8.66205">
        <ele>1328</ele>
        <time>2021-08-04T11:22:40.771Z</time>
      </trkpt>
      <trkpt lat="46.97549" lon="8.66205">
        <ele>1328</ele>
        <time>2021-08-04T11:22:41.771Z</time>
      </trkpt>
      <trkpt lat="46.97549" lon="8.66206">
        <ele>1328</ele>
        <time>2021-08-04T11:22:42.770Z</time>
      </trkpt>
      <trkpt lat="46.97547" lon="8.66206">
        <ele>1327</ele>
        <time>2021-08-04T11:22:43.770Z</time>
      </trkpt>
      <trkpt lat="46.97547" lon="8.66206">
        <ele>1327</ele>
        <time>2021-08-04T11:22:44.770Z</time>
      </trkpt>
      <trkpt lat="46.97546" lon="8.66206">
        <ele>1326</ele>
        <time>2021-08-04T11:22:45.770Z</time>
      </trkpt>
      <trkpt lat="46.97545" lon="8.66206">
        <ele>1326</ele>
        <time>2021-08-04T11:22:46.771Z</time>
      </trkpt>
      <trkpt lat="46.97544" lon="8.66207">
        <ele>1325</ele>
        <time>2021-08-04T11:22:47.770Z</time>
      </trkpt>
      <trkpt lat="46.97543" lon="8.66207">
        <ele>1325</ele>
        <time>2021-08-04T11:22:48.770Z</time>
      </trkpt>
      <trkpt lat="46.97542" lon="8.66209">
        <ele>1325</ele>
        <time>2021-08-04T11:22:49.770Z</time>
      </trkpt>
      <trkpt lat="46.97542" lon="8.6621">
        <ele>1325</ele>
        <time>2021-08-04T11:22:50.770Z</time>
      </trkpt>
      <trkpt lat="46.97542" lon="8.66211">
        <ele>1326</ele>
        <time>2021-08-04T11:22:51.771Z</time>
      </trkpt>
      <trkpt lat="46.97541" lon="8.66213">
        <ele>1326</ele>
        <time>2021-08-04T11:22:52.771Z</time>
      </trkpt>
      <trkpt lat="46.97541" lon="8.66215">
        <ele>1327</ele>
        <time>2021-08-04T11:22:53.771Z</time>
      </trkpt>
      <trkpt lat="46.97541" lon="8.66217">
        <ele>1327</ele>
        <time>2021-08-04T11:22:54.771Z</time>
      </trkpt>
      <trkpt lat="46.9754" lon="8.66218">
        <ele>1328</ele>
        <time>2021-08-04T11:22:55.771Z</time>
      </trkpt>
      <trkpt lat="46.9754" lon="8.66219">
        <ele>1328</ele>
        <time>2021-08-04T11:22:56.770Z</time>
      </trkpt>
      <trkpt lat="46.97539" lon="8.66221">
        <ele>1329</ele>
        <time>2021-08-04T11:22:57.771Z</time>
      </trkpt>
      <trkpt lat="46.97538" lon="8.66222">
        <ele>1329</ele>
        <time>2021-08-04T11:22:58.770Z</time>
      </trkpt>
      <trkpt lat="46.97538" lon="8.66223">
        <ele>1329</ele>
        <time>2021-08-04T11:22:59.770Z</time>
      </trkpt>
      <trkpt lat="46.97538" lon="8.66225">
        <ele>1329</ele>
        <time>2021-08-04T11:23:00.771Z</time>
      </trkpt>
      <trkpt lat="46.97537" lon="8.66227">
        <ele>1328</ele>
        <time>2021-08-04T11:23:01.771Z</time>
      </trkpt>
      <trkpt lat="46.97537" lon="8.66229">
        <ele>1328</ele>
        <time>2021-08-04T11:23:02.771Z</time>
      </trkpt>
      <trkpt lat="46.97537" lon="8.6623">
        <ele>1328</ele>
        <time>2021-08-04T11:23:03.770Z</time>
      </trkpt>
      <trkpt lat="46.97536" lon="8.66232">
        <ele>1328</ele>
        <time>2021-08-04T11:23:04.771Z</time>
      </trkpt>
      <trkpt lat="46.97536" lon="8.66234">
        <ele>1328</ele>
        <time>2021-08-04T11:23:05.770Z</time>
      </trkpt>
      <trkpt lat="46.97535" lon="8.66235">
        <ele>1328</ele>
        <time>2021-08-04T11:23:06.771Z</time>
      </trkpt>
      <trkpt lat="46.97534" lon="8.66237">
        <ele>1328</ele>
        <time>2021-08-04T11:23:07.771Z</time>
      </trkpt>
      <trkpt lat="46.97534" lon="8.66238">
        <ele>1328</ele>
        <time>2021-08-04T11:23:08.770Z</time>
      </trkpt>
      <trkpt lat="46.97534" lon="8.6624">
        <ele>1327</ele>
        <time>2021-08-04T11:23:09.770Z</time>
      </trkpt>
      <trkpt lat="46.97534" lon="8.66241">
        <ele>1327</ele>
        <time>2021-08-04T11:23:10.771Z</time>
      </trkpt>
      <trkpt lat="46.97533" lon="8.66243">
        <ele>1327</ele>
        <time>2021-08-04T11:23:11.770Z</time>
      </trkpt>
      <trkpt lat="46.97533" lon="8.66245">
        <ele>1327</ele>
        <time>2021-08-04T11:23:12.770Z</time>
      </trkpt>
      <trkpt lat="46.97533" lon="8.66246">
        <ele>1327</ele>
        <time>2021-08-04T11:23:13.771Z</time>
      </trkpt>
      <trkpt lat="46.97532" lon="8.66248">
        <ele>1328</ele>
        <time>2021-08-04T11:23:14.771Z</time>
      </trkpt>
      <trkpt lat="46.97532" lon="8.6625">
        <ele>1328</ele>
        <time>2021-08-04T11:23:15.771Z</time>
      </trkpt>
      <trkpt lat="46.97532" lon="8.66251">
        <ele>1327</ele>
        <time>2021-08-04T11:23:16.771Z</time>
      </trkpt>
      <trkpt lat="46.97532" lon="8.66254">
        <ele>1327</ele>
        <time>2021-08-04T11:23:17.770Z</time>
      </trkpt>
      <trkpt lat="46.97532" lon="8.66256">
        <ele>1326</ele>
        <time>2021-08-04T11:23:18.771Z</time>
      </trkpt>
      <trkpt lat="46.97532" lon="8.66257">
        <ele>1326</ele>
        <time>2021-08-04T11:23:19.771Z</time>
      </trkpt>
      <trkpt lat="46.97532" lon="8.66258">
        <ele>1326</ele>
        <time>2021-08-04T11:23:20.771Z</time>
      </trkpt>
      <trkpt lat="46.97532" lon="8.6626">
        <ele>1326</ele>
        <time>2021-08-04T11:23:21.771Z</time>
      </trkpt>
      <trkpt lat="46.97532" lon="8.66263">
        <ele>1326</ele>
        <time>2021-08-04T11:23:22.771Z</time>
      </trkpt>
      <trkpt lat="46.97531" lon="8.66264">
        <ele>1326</ele>
        <time>2021-08-04T11:23:23.770Z</time>
      </trkpt>
      <trkpt lat="46.97531" lon="8.66265">
        <ele>1326</ele>
        <time>2021-08-04T11:23:24.770Z</time>
      </trkpt>
      <trkpt lat="46.97531" lon="8.66266">
        <ele>1326</ele>
        <time>2021-08-04T11:23:25.771Z</time>
      </trkpt>
      <trkpt lat="46.97531" lon="8.66268">
        <ele>1326</ele>
        <time>2021-08-04T11:23:26.771Z</time>
      </trkpt>
      <trkpt lat="46.97531" lon="8.66269">
        <ele>1326</ele>
        <time>2021-08-04T11:23:27.771Z</time>
      </trkpt>
      <trkpt lat="46.97531" lon="8.66271">
        <ele>1326</ele>
        <time>2021-08-04T11:23:28.771Z</time>
      </trkpt>
      <trkpt lat="46.97531" lon="8.66272">
        <ele>1326</ele>
        <time>2021-08-04T11:23:29.771Z</time>
      </trkpt>
      <trkpt lat="46.97531" lon="8.66273">
        <ele>1326</ele>
        <time>2021-08-04T11:23:30.771Z</time>
      </trkpt>
      <trkpt lat="46.9753" lon="8.66274">
        <ele>1326</ele>
        <time>2021-08-04T11:23:31.771Z</time>
      </trkpt>
      <trkpt lat="46.9753" lon="8.66275">
        <ele>1327</ele>
        <time>2021-08-04T11:23:32.771Z</time>
      </trkpt>
      <trkpt lat="46.9753" lon="8.66276">
        <ele>1327</ele>
        <time>2021-08-04T11:23:33.771Z</time>
      </trkpt>
      <trkpt lat="46.97529" lon="8.66275">
        <ele>1327</ele>
        <time>2021-08-04T11:23:34.771Z</time>
      </trkpt>
      <trkpt lat="46.97529" lon="8.66275">
        <ele>1328</ele>
        <time>2021-08-04T11:23:35.770Z</time>
      </trkpt>
      <trkpt lat="46.9753" lon="8.66276">
        <ele>1329</ele>
        <time>2021-08-04T11:23:36.770Z</time>
      </trkpt>
      <trkpt lat="46.97528" lon="8.66286">
        <ele>1333</ele>
        <time>2021-08-04T11:23:37.773Z</time>
      </trkpt>
      <trkpt lat="46.97529" lon="8.66293">
        <ele>1331</ele>
        <time>2021-08-04T11:23:38.773Z</time>
      </trkpt>
      <trkpt lat="46.97529" lon="8.66294">
        <ele>1331</ele>
        <time>2021-08-04T11:23:39.772Z</time>
      </trkpt>
      <trkpt lat="46.97529" lon="8.66294">
        <ele>1330</ele>
        <time>2021-08-04T11:23:40.772Z</time>
      </trkpt>
      <trkpt lat="46.97528" lon="8.66292">
        <ele>1331</ele>
        <time>2021-08-04T11:23:41.772Z</time>
      </trkpt>
      <trkpt lat="46.97528" lon="8.66291">
        <ele>1331</ele>
        <time>2021-08-04T11:23:42.773Z</time>
      </trkpt>
      <trkpt lat="46.97527" lon="8.66288">
        <ele>1331</ele>
        <time>2021-08-04T11:23:43.773Z</time>
      </trkpt>
      <trkpt lat="46.97526" lon="8.66287">
        <ele>1331</ele>
        <time>2021-08-04T11:23:44.773Z</time>
      </trkpt>
      <trkpt lat="46.97525" lon="8.66287">
        <ele>1330</ele>
        <time>2021-08-04T11:23:45.772Z</time>
      </trkpt>
      <trkpt lat="46.97524" lon="8.66286">
        <ele>1329</ele>
        <time>2021-08-04T11:23:46.772Z</time>
      </trkpt>
      <trkpt lat="46.97523" lon="8.66285">
        <ele>1328</ele>
        <time>2021-08-04T11:23:47.773Z</time>
      </trkpt>
      <trkpt lat="46.97522" lon="8.66284">
        <ele>1327</ele>
        <time>2021-08-04T11:23:48.773Z</time>
      </trkpt>
      <trkpt lat="46.97521" lon="8.66283">
        <ele>1326</ele>
        <time>2021-08-04T11:23:49.773Z</time>
      </trkpt>
      <trkpt lat="46.9752" lon="8.66282">
        <ele>1326</ele>
        <time>2021-08-04T11:23:50.773Z</time>
      </trkpt>
      <trkpt lat="46.97519" lon="8.66281">
        <ele>1326</ele>
        <time>2021-08-04T11:23:51.772Z</time>
      </trkpt>
      <trkpt lat="46.97518" lon="8.6628">
        <ele>1325</ele>
        <time>2021-08-04T11:23:52.772Z</time>
      </trkpt>
      <trkpt lat="46.97517" lon="8.6628">
        <ele>1325</ele>
        <time>2021-08-04T11:23:53.773Z</time>
      </trkpt>
      <trkpt lat="46.97516" lon="8.6628">
        <ele>1324</ele>
        <time>2021-08-04T11:23:54.773Z</time>
      </trkpt>
      <trkpt lat="46.97515" lon="8.66279">
        <ele>1324</ele>
        <time>2021-08-04T11:23:55.773Z</time>
      </trkpt>
      <trkpt lat="46.97514" lon="8.66279">
        <ele>1324</ele>
        <time>2021-08-04T11:23:56.772Z</time>
      </trkpt>
      <trkpt lat="46.97513" lon="8.66279">
        <ele>1324</ele>
        <time>2021-08-04T11:23:57.772Z</time>
      </trkpt>
      <trkpt lat="46.97512" lon="8.66279">
        <ele>1325</ele>
        <time>2021-08-04T11:23:58.773Z</time>
      </trkpt>
      <trkpt lat="46.97511" lon="8.66279">
        <ele>1325</ele>
        <time>2021-08-04T11:23:59.773Z</time>
      </trkpt>
      <trkpt lat="46.97509" lon="8.66279">
        <ele>1326</ele>
        <time>2021-08-04T11:24:00.772Z</time>
      </trkpt>
      <trkpt lat="46.97509" lon="8.6628">
        <ele>1326</ele>
        <time>2021-08-04T11:24:01.772Z</time>
      </trkpt>
      <trkpt lat="46.97508" lon="8.6628">
        <ele>1326</ele>
        <time>2021-08-04T11:24:02.773Z</time>
      </trkpt>
      <trkpt lat="46.97507" lon="8.66281">
        <ele>1326</ele>
        <time>2021-08-04T11:24:03.773Z</time>
      </trkpt>
      <trkpt lat="46.97507" lon="8.66282">
        <ele>1326</ele>
        <time>2021-08-04T11:24:04.773Z</time>
      </trkpt>
      <trkpt lat="46.97506" lon="8.66283">
        <ele>1326</ele>
        <time>2021-08-04T11:24:05.773Z</time>
      </trkpt>
      <trkpt lat="46.97506" lon="8.66284">
        <ele>1326</ele>
        <time>2021-08-04T11:24:06.772Z</time>
      </trkpt>
      <trkpt lat="46.97505" lon="8.66285">
        <ele>1326</ele>
        <time>2021-08-04T11:24:07.773Z</time>
      </trkpt>
      <trkpt lat="46.97505" lon="8.66287">
        <ele>1326</ele>
        <time>2021-08-04T11:24:08.772Z</time>
      </trkpt>
      <trkpt lat="46.97504" lon="8.66288">
        <ele>1326</ele>
        <time>2021-08-04T11:24:09.773Z</time>
      </trkpt>
      <trkpt lat="46.97504" lon="8.66289">
        <ele>1327</ele>
        <time>2021-08-04T11:24:10.772Z</time>
      </trkpt>
      <trkpt lat="46.97503" lon="8.6629">
        <ele>1327</ele>
        <time>2021-08-04T11:24:11.773Z</time>
      </trkpt>
      <trkpt lat="46.97503" lon="8.66291">
        <ele>1327</ele>
        <time>2021-08-04T11:24:12.772Z</time>
      </trkpt>
      <trkpt lat="46.97502" lon="8.66292">
        <ele>1328</ele>
        <time>2021-08-04T11:24:13.772Z</time>
      </trkpt>
      <trkpt lat="46.97502" lon="8.66293">
        <ele>1328</ele>
        <time>2021-08-04T11:24:14.773Z</time>
      </trkpt>
      <trkpt lat="46.97502" lon="8.66295">
        <ele>1329</ele>
        <time>2021-08-04T11:24:15.773Z</time>
      </trkpt>
      <trkpt lat="46.97502" lon="8.66297">
        <ele>1328</ele>
        <time>2021-08-04T11:24:16.772Z</time>
      </trkpt>
      <trkpt lat="46.97502" lon="8.66298">
        <ele>1328</ele>
        <time>2021-08-04T11:24:17.772Z</time>
      </trkpt>
      <trkpt lat="46.97502" lon="8.663">
        <ele>1329</ele>
        <time>2021-08-04T11:24:18.772Z</time>
      </trkpt>
      <trkpt lat="46.97502" lon="8.66301">
        <ele>1329</ele>
        <time>2021-08-04T11:24:19.772Z</time>
      </trkpt>
      <trkpt lat="46.97502" lon="8.66301">
        <ele>1329</ele>
        <time>2021-08-04T11:24:20.773Z</time>
      </trkpt>
      <trkpt lat="46.97501" lon="8.66302">
        <ele>1329</ele>
        <time>2021-08-04T11:24:21.772Z</time>
      </trkpt>
      <trkpt lat="46.97501" lon="8.66303">
        <ele>1329</ele>
        <time>2021-08-04T11:24:22.772Z</time>
      </trkpt>
      <trkpt lat="46.975" lon="8.66304">
        <ele>1329</ele>
        <time>2021-08-04T11:24:23.773Z</time>
      </trkpt>
      <trkpt lat="46.975" lon="8.66306">
        <ele>1329</ele>
        <time>2021-08-04T11:24:24.772Z</time>
      </trkpt>
      <trkpt lat="46.97499" lon="8.66308">
        <ele>1329</ele>
        <time>2021-08-04T11:24:25.773Z</time>
      </trkpt>
      <trkpt lat="46.97499" lon="8.6631">
        <ele>1329</ele>
        <time>2021-08-04T11:24:26.772Z</time>
      </trkpt>
      <trkpt lat="46.97499" lon="8.66312">
        <ele>1329</ele>
        <time>2021-08-04T11:24:27.773Z</time>
      </trkpt>
      <trkpt lat="46.97499" lon="8.66313">
        <ele>1330</ele>
        <time>2021-08-04T11:24:28.772Z</time>
      </trkpt>
      <trkpt lat="46.97499" lon="8.66314">
        <ele>1330</ele>
        <time>2021-08-04T11:24:29.773Z</time>
      </trkpt>
      <trkpt lat="46.97498" lon="8.66315">
        <ele>1330</ele>
        <time>2021-08-04T11:24:30.773Z</time>
      </trkpt>
      <trkpt lat="46.97498" lon="8.66317">
        <ele>1330</ele>
        <time>2021-08-04T11:24:31.773Z</time>
      </trkpt>
      <trkpt lat="46.97498" lon="8.66318">
        <ele>1330</ele>
        <time>2021-08-04T11:24:32.773Z</time>
      </trkpt>
      <trkpt lat="46.97497" lon="8.66319">
        <ele>1330</ele>
        <time>2021-08-04T11:24:33.773Z</time>
      </trkpt>
      <trkpt lat="46.97497" lon="8.66321">
        <ele>1331</ele>
        <time>2021-08-04T11:24:34.773Z</time>
      </trkpt>
      <trkpt lat="46.97498" lon="8.66321">
        <ele>1331</ele>
        <time>2021-08-04T11:24:35.773Z</time>
      </trkpt>
      <trkpt lat="46.97498" lon="8.66322">
        <ele>1331</ele>
        <time>2021-08-04T11:24:36.773Z</time>
      </trkpt>
      <trkpt lat="46.97498" lon="8.66324">
        <ele>1331</ele>
        <time>2021-08-04T11:24:37.772Z</time>
      </trkpt>
      <trkpt lat="46.97498" lon="8.66325">
        <ele>1331</ele>
        <time>2021-08-04T11:24:38.773Z</time>
      </trkpt>
      <trkpt lat="46.97498" lon="8.66326">
        <ele>1332</ele>
        <time>2021-08-04T11:24:39.773Z</time>
      </trkpt>
      <trkpt lat="46.97498" lon="8.66327">
        <ele>1332</ele>
        <time>2021-08-04T11:24:40.772Z</time>
      </trkpt>
      <trkpt lat="46.97498" lon="8.66328">
        <ele>1332</ele>
        <time>2021-08-04T11:24:41.773Z</time>
      </trkpt>
      <trkpt lat="46.97497" lon="8.6633">
        <ele>1333</ele>
        <time>2021-08-04T11:24:42.772Z</time>
      </trkpt>
      <trkpt lat="46.97497" lon="8.66331">
        <ele>1333</ele>
        <time>2021-08-04T11:24:43.772Z</time>
      </trkpt>
      <trkpt lat="46.97498" lon="8.66332">
        <ele>1333</ele>
        <time>2021-08-04T11:24:44.773Z</time>
      </trkpt>
      <trkpt lat="46.97498" lon="8.66333">
        <ele>1334</ele>
        <time>2021-08-04T11:24:45.773Z</time>
      </trkpt>
      <trkpt lat="46.97498" lon="8.66335">
        <ele>1334</ele>
        <time>2021-08-04T11:24:46.772Z</time>
      </trkpt>
      <trkpt lat="46.97498" lon="8.66336">
        <ele>1334</ele>
        <time>2021-08-04T11:24:47.773Z</time>
      </trkpt>
      <trkpt lat="46.97498" lon="8.66337">
        <ele>1334</ele>
        <time>2021-08-04T11:24:48.773Z</time>
      </trkpt>
      <trkpt lat="46.97499" lon="8.66338">
        <ele>1334</ele>
        <time>2021-08-04T11:24:49.773Z</time>
      </trkpt>
      <trkpt lat="46.97499" lon="8.66339">
        <ele>1334</ele>
        <time>2021-08-04T11:24:50.772Z</time>
      </trkpt>
      <trkpt lat="46.97499" lon="8.6634">
        <ele>1334</ele>
        <time>2021-08-04T11:24:51.772Z</time>
      </trkpt>
      <trkpt lat="46.97499" lon="8.66341">
        <ele>1334</ele>
        <time>2021-08-04T11:24:52.773Z</time>
      </trkpt>
      <trkpt lat="46.97499" lon="8.66343">
        <ele>1334</ele>
        <time>2021-08-04T11:24:53.773Z</time>
      </trkpt>
      <trkpt lat="46.97499" lon="8.66344">
        <ele>1334</ele>
        <time>2021-08-04T11:24:54.773Z</time>
      </trkpt>
      <trkpt lat="46.97499" lon="8.66345">
        <ele>1334</ele>
        <time>2021-08-04T11:24:55.773Z</time>
      </trkpt>
      <trkpt lat="46.97498" lon="8.66346">
        <ele>1334</ele>
        <time>2021-08-04T11:24:56.772Z</time>
      </trkpt>
      <trkpt lat="46.97497" lon="8.66347">
        <ele>1334</ele>
        <time>2021-08-04T11:24:57.772Z</time>
      </trkpt>
      <trkpt lat="46.97497" lon="8.66348">
        <ele>1334</ele>
        <time>2021-08-04T11:24:58.773Z</time>
      </trkpt>
      <trkpt lat="46.97496" lon="8.66349">
        <ele>1334</ele>
        <time>2021-08-04T11:24:59.773Z</time>
      </trkpt>
      <trkpt lat="46.97496" lon="8.6635">
        <ele>1334</ele>
        <time>2021-08-04T11:25:00.773Z</time>
      </trkpt>
      <trkpt lat="46.97496" lon="8.66352">
        <ele>1334</ele>
        <time>2021-08-04T11:25:01.773Z</time>
      </trkpt>
      <trkpt lat="46.97496" lon="8.66354">
        <ele>1334</ele>
        <time>2021-08-04T11:25:02.773Z</time>
      </trkpt>
      <trkpt lat="46.97496" lon="8.66355">
        <ele>1334</ele>
        <time>2021-08-04T11:25:03.773Z</time>
      </trkpt>
      <trkpt lat="46.97496" lon="8.66356">
        <ele>1334</ele>
        <time>2021-08-04T11:25:04.773Z</time>
      </trkpt>
      <trkpt lat="46.97496" lon="8.66358">
        <ele>1333</ele>
        <time>2021-08-04T11:25:05.773Z</time>
      </trkpt>
      <trkpt lat="46.97496" lon="8.66359">
        <ele>1333</ele>
        <time>2021-08-04T11:25:06.773Z</time>
      </trkpt>
      <trkpt lat="46.97496" lon="8.66361">
        <ele>1333</ele>
        <time>2021-08-04T11:25:07.773Z</time>
      </trkpt>
      <trkpt lat="46.97496" lon="8.66362">
        <ele>1333</ele>
        <time>2021-08-04T11:25:08.772Z</time>
      </trkpt>
      <trkpt lat="46.97496" lon="8.66363">
        <ele>1333</ele>
        <time>2021-08-04T11:25:09.772Z</time>
      </trkpt>
      <trkpt lat="46.97495" lon="8.66365">
        <ele>1333</ele>
        <time>2021-08-04T11:25:10.773Z</time>
      </trkpt>
      <trkpt lat="46.97495" lon="8.66366">
        <ele>1333</ele>
        <time>2021-08-04T11:25:11.772Z</time>
      </trkpt>
      <trkpt lat="46.97495" lon="8.66368">
        <ele>1333</ele>
        <time>2021-08-04T11:25:12.773Z</time>
      </trkpt>
      <trkpt lat="46.97495" lon="8.6637">
        <ele>1333</ele>
        <time>2021-08-04T11:25:13.773Z</time>
      </trkpt>
      <trkpt lat="46.97495" lon="8.66371">
        <ele>1333</ele>
        <time>2021-08-04T11:25:14.772Z</time>
      </trkpt>
      <trkpt lat="46.97495" lon="8.66372">
        <ele>1333</ele>
        <time>2021-08-04T11:25:15.773Z</time>
      </trkpt>
      <trkpt lat="46.97495" lon="8.66374">
        <ele>1333</ele>
        <time>2021-08-04T11:25:16.773Z</time>
      </trkpt>
      <trkpt lat="46.97494" lon="8.66375">
        <ele>1333</ele>
        <time>2021-08-04T11:25:17.772Z</time>
      </trkpt>
      <trkpt lat="46.97494" lon="8.66376">
        <ele>1333</ele>
        <time>2021-08-04T11:25:18.772Z</time>
      </trkpt>
      <trkpt lat="46.97494" lon="8.66378">
        <ele>1333</ele>
        <time>2021-08-04T11:25:19.772Z</time>
      </trkpt>
      <trkpt lat="46.97494" lon="8.6638">
        <ele>1333</ele>
        <time>2021-08-04T11:25:20.772Z</time>
      </trkpt>
      <trkpt lat="46.97494" lon="8.66382">
        <ele>1333</ele>
        <time>2021-08-04T11:25:21.773Z</time>
      </trkpt>
      <trkpt lat="46.97493" lon="8.66384">
        <ele>1333</ele>
        <time>2021-08-04T11:25:22.773Z</time>
      </trkpt>
      <trkpt lat="46.97494" lon="8.66386">
        <ele>1333</ele>
        <time>2021-08-04T11:25:23.773Z</time>
      </trkpt>
      <trkpt lat="46.97494" lon="8.66387">
        <ele>1333</ele>
        <time>2021-08-04T11:25:24.773Z</time>
      </trkpt>
      <trkpt lat="46.97494" lon="8.66389">
        <ele>1333</ele>
        <time>2021-08-04T11:25:25.772Z</time>
      </trkpt>
      <trkpt lat="46.97494" lon="8.66392">
        <ele>1333</ele>
        <time>2021-08-04T11:25:26.772Z</time>
      </trkpt>
      <trkpt lat="46.97494" lon="8.66394">
        <ele>1333</ele>
        <time>2021-08-04T11:25:27.773Z</time>
      </trkpt>
      <trkpt lat="46.97494" lon="8.66396">
        <ele>1333</ele>
        <time>2021-08-04T11:25:28.773Z</time>
      </trkpt>
      <trkpt lat="46.97494" lon="8.66398">
        <ele>1333</ele>
        <time>2021-08-04T11:25:29.773Z</time>
      </trkpt>
      <trkpt lat="46.97494" lon="8.66399">
        <ele>1333</ele>
        <time>2021-08-04T11:25:30.773Z</time>
      </trkpt>
      <trkpt lat="46.97494" lon="8.66401">
        <ele>1333</ele>
        <time>2021-08-04T11:25:31.773Z</time>
      </trkpt>
      <trkpt lat="46.97494" lon="8.66402">
        <ele>1333</ele>
        <time>2021-08-04T11:25:32.773Z</time>
      </trkpt>
      <trkpt lat="46.97495" lon="8.66404">
        <ele>1333</ele>
        <time>2021-08-04T11:25:33.772Z</time>
      </trkpt>
      <trkpt lat="46.97495" lon="8.66405">
        <ele>1333</ele>
        <time>2021-08-04T11:25:34.773Z</time>
      </trkpt>
      <trkpt lat="46.97496" lon="8.66406">
        <ele>1333</ele>
        <time>2021-08-04T11:25:35.772Z</time>
      </trkpt>
      <trkpt lat="46.97496" lon="8.66408">
        <ele>1333</ele>
        <time>2021-08-04T11:25:36.773Z</time>
      </trkpt>
      <trkpt lat="46.97496" lon="8.66409">
        <ele>1332</ele>
        <time>2021-08-04T11:25:37.773Z</time>
      </trkpt>
      <trkpt lat="46.97497" lon="8.66411">
        <ele>1332</ele>
        <time>2021-08-04T11:25:38.773Z</time>
      </trkpt>
      <trkpt lat="46.97497" lon="8.66413">
        <ele>1333</ele>
        <time>2021-08-04T11:25:39.773Z</time>
      </trkpt>
      <trkpt lat="46.97497" lon="8.66414">
        <ele>1333</ele>
        <time>2021-08-04T11:25:40.773Z</time>
      </trkpt>
      <trkpt lat="46.97497" lon="8.66415">
        <ele>1333</ele>
        <time>2021-08-04T11:25:41.773Z</time>
      </trkpt>
      <trkpt lat="46.97497" lon="8.66417">
        <ele>1332</ele>
        <time>2021-08-04T11:25:42.773Z</time>
      </trkpt>
      <trkpt lat="46.97497" lon="8.66419">
        <ele>1332</ele>
        <time>2021-08-04T11:25:43.773Z</time>
      </trkpt>
      <trkpt lat="46.97497" lon="8.6642">
        <ele>1332</ele>
        <time>2021-08-04T11:25:44.773Z</time>
      </trkpt>
      <trkpt lat="46.97496" lon="8.66422">
        <ele>1332</ele>
        <time>2021-08-04T11:25:45.773Z</time>
      </trkpt>
      <trkpt lat="46.97496" lon="8.66424">
        <ele>1332</ele>
        <time>2021-08-04T11:25:46.773Z</time>
      </trkpt>
      <trkpt lat="46.97496" lon="8.66426">
        <ele>1332</ele>
        <time>2021-08-04T11:25:47.773Z</time>
      </trkpt>
      <trkpt lat="46.97496" lon="8.66427">
        <ele>1332</ele>
        <time>2021-08-04T11:25:48.773Z</time>
      </trkpt>
      <trkpt lat="46.97496" lon="8.66427">
        <ele>1332</ele>
        <time>2021-08-04T11:25:49.773Z</time>
      </trkpt>
      <trkpt lat="46.97496" lon="8.66428">
        <ele>1332</ele>
        <time>2021-08-04T11:25:50.773Z</time>
      </trkpt>
      <trkpt lat="46.97496" lon="8.66429">
        <ele>1332</ele>
        <time>2021-08-04T11:25:51.773Z</time>
      </trkpt>
      <trkpt lat="46.97496" lon="8.6643">
        <ele>1333</ele>
        <time>2021-08-04T11:25:52.772Z</time>
      </trkpt>
      <trkpt lat="46.97496" lon="8.66432">
        <ele>1333</ele>
        <time>2021-08-04T11:25:53.773Z</time>
      </trkpt>
      <trkpt lat="46.97496" lon="8.66434">
        <ele>1333</ele>
        <time>2021-08-04T11:25:54.772Z</time>
      </trkpt>
      <trkpt lat="46.97496" lon="8.66436">
        <ele>1333</ele>
        <time>2021-08-04T11:25:55.773Z</time>
      </trkpt>
      <trkpt lat="46.97496" lon="8.66438">
        <ele>1334</ele>
        <time>2021-08-04T11:25:56.772Z</time>
      </trkpt>
      <trkpt lat="46.97496" lon="8.66441">
        <ele>1334</ele>
        <time>2021-08-04T11:25:57.773Z</time>
      </trkpt>
      <trkpt lat="46.97497" lon="8.66442">
        <ele>1334</ele>
        <time>2021-08-04T11:25:58.773Z</time>
      </trkpt>
      <trkpt lat="46.97497" lon="8.66444">
        <ele>1334</ele>
        <time>2021-08-04T11:25:59.773Z</time>
      </trkpt>
      <trkpt lat="46.97497" lon="8.66445">
        <ele>1333</ele>
        <time>2021-08-04T11:26:00.772Z</time>
      </trkpt>
      <trkpt lat="46.97497" lon="8.66446">
        <ele>1333</ele>
        <time>2021-08-04T11:26:01.773Z</time>
      </trkpt>
      <trkpt lat="46.97497" lon="8.66447">
        <ele>1333</ele>
        <time>2021-08-04T11:26:02.773Z</time>
      </trkpt>
      <trkpt lat="46.97497" lon="8.66449">
        <ele>1333</ele>
        <time>2021-08-04T11:26:03.773Z</time>
      </trkpt>
      <trkpt lat="46.97497" lon="8.66451">
        <ele>1332</ele>
        <time>2021-08-04T11:26:04.773Z</time>
      </trkpt>
      <trkpt lat="46.97497" lon="8.66452">
        <ele>1332</ele>
        <time>2021-08-04T11:26:05.773Z</time>
      </trkpt>
      <trkpt lat="46.97497" lon="8.66454">
        <ele>1332</ele>
        <time>2021-08-04T11:26:06.773Z</time>
      </trkpt>
      <trkpt lat="46.97497" lon="8.66455">
        <ele>1332</ele>
        <time>2021-08-04T11:26:07.773Z</time>
      </trkpt>
      <trkpt lat="46.97497" lon="8.66456">
        <ele>1331</ele>
        <time>2021-08-04T11:26:08.773Z</time>
      </trkpt>
      <trkpt lat="46.97497" lon="8.66458">
        <ele>1332</ele>
        <time>2021-08-04T11:26:09.773Z</time>
      </trkpt>
      <trkpt lat="46.97497" lon="8.66458">
        <ele>1332</ele>
        <time>2021-08-04T11:26:10.772Z</time>
      </trkpt>
      <trkpt lat="46.97498" lon="8.66458">
        <ele>1332</ele>
        <time>2021-08-04T11:26:11.772Z</time>
      </trkpt>
      <trkpt lat="46.97498" lon="8.66459">
        <ele>1332</ele>
        <time>2021-08-04T11:26:12.772Z</time>
      </trkpt>
      <trkpt lat="46.97499" lon="8.6646">
        <ele>1332</ele>
        <time>2021-08-04T11:26:13.773Z</time>
      </trkpt>
      <trkpt lat="46.97499" lon="8.6646">
        <ele>1332</ele>
        <time>2021-08-04T11:26:14.772Z</time>
      </trkpt>
      <trkpt lat="46.975" lon="8.66461">
        <ele>1332</ele>
        <time>2021-08-04T11:26:15.772Z</time>
      </trkpt>
      <trkpt lat="46.975" lon="8.66461">
        <ele>1332</ele>
        <time>2021-08-04T11:26:16.773Z</time>
      </trkpt>
      <trkpt lat="46.975" lon="8.6646">
        <ele>1332</ele>
        <time>2021-08-04T11:26:17.773Z</time>
      </trkpt>
      <trkpt lat="46.975" lon="8.66459">
        <ele>1332</ele>
        <time>2021-08-04T11:26:18.773Z</time>
      </trkpt>
      <trkpt lat="46.975" lon="8.66461">
        <ele>1329</ele>
        <time>2021-08-04T11:26:19.773Z</time>
      </trkpt>
      <trkpt lat="46.97498" lon="8.66461">
        <ele>1330</ele>
        <time>2021-08-04T11:26:20.773Z</time>
      </trkpt>
      <trkpt lat="46.97498" lon="8.6646">
        <ele>1329</ele>
        <time>2021-08-04T11:26:21.773Z</time>
      </trkpt>
      <trkpt lat="46.97498" lon="8.6646">
        <ele>1329</ele>
        <time>2021-08-04T11:26:22.772Z</time>
      </trkpt>
      <trkpt lat="46.97498" lon="8.66461">
        <ele>1327</ele>
        <time>2021-08-04T11:26:23.772Z</time>
      </trkpt>
      <trkpt lat="46.97498" lon="8.66461">
        <ele>1327</ele>
        <time>2021-08-04T11:26:24.773Z</time>
      </trkpt>
      <trkpt lat="46.97498" lon="8.66462">
        <ele>1327</ele>
        <time>2021-08-04T11:26:25.772Z</time>
      </trkpt>
      <trkpt lat="46.975" lon="8.66461">
        <ele>1328</ele>
        <time>2021-08-04T11:26:26.773Z</time>
      </trkpt>
      <trkpt lat="46.975" lon="8.66461">
        <ele>1329</ele>
        <time>2021-08-04T11:26:27.772Z</time>
      </trkpt>
      <trkpt lat="46.975" lon="8.66461">
        <ele>1330</ele>
        <time>2021-08-04T11:26:28.772Z</time>
      </trkpt>
      <trkpt lat="46.97501" lon="8.66461">
        <ele>1330</ele>
        <time>2021-08-04T11:26:29.773Z</time>
      </trkpt>
      <trkpt lat="46.97501" lon="8.6646">
        <ele>1330</ele>
        <time>2021-08-04T11:26:30.773Z</time>
      </trkpt>
      <trkpt lat="46.97502" lon="8.6646">
        <ele>1331</ele>
        <time>2021-08-04T11:26:31.773Z</time>
      </trkpt>
      <trkpt lat="46.97503" lon="8.6646">
        <ele>1331</ele>
        <time>2021-08-04T11:26:32.772Z</time>
      </trkpt>
      <trkpt lat="46.97505" lon="8.6646">
        <ele>1332</ele>
        <time>2021-08-04T11:26:33.772Z</time>
      </trkpt>
      <trkpt lat="46.97507" lon="8.66459">
        <ele>1332</ele>
        <time>2021-08-04T11:26:34.772Z</time>
      </trkpt>
      <trkpt lat="46.97508" lon="8.66459">
        <ele>1332</ele>
        <time>2021-08-04T11:26:35.772Z</time>
      </trkpt>
      <trkpt lat="46.97509" lon="8.66459">
        <ele>1333</ele>
        <time>2021-08-04T11:26:36.772Z</time>
      </trkpt>
      <trkpt lat="46.9751" lon="8.6646">
        <ele>1333</ele>
        <time>2021-08-04T11:26:37.772Z</time>
      </trkpt>
      <trkpt lat="46.9751" lon="8.6646">
        <ele>1333</ele>
        <time>2021-08-04T11:26:38.772Z</time>
      </trkpt>
      <trkpt lat="46.97514" lon="8.66462">
        <ele>1341</ele>
        <time>2021-08-04T11:26:39.774Z</time>
      </trkpt>
      <trkpt lat="46.97515" lon="8.66462">
        <ele>1341</ele>
        <time>2021-08-04T11:26:40.773Z</time>
      </trkpt>
      <trkpt lat="46.97515" lon="8.66462">
        <ele>1341</ele>
        <time>2021-08-04T11:26:41.773Z</time>
      </trkpt>
      <trkpt lat="46.97516" lon="8.66462">
        <ele>1340</ele>
        <time>2021-08-04T11:26:42.773Z</time>
      </trkpt>
      <trkpt lat="46.97517" lon="8.66461">
        <ele>1340</ele>
        <time>2021-08-04T11:26:43.774Z</time>
      </trkpt>
      <trkpt lat="46.97518" lon="8.6646">
        <ele>1339</ele>
        <time>2021-08-04T11:26:44.773Z</time>
      </trkpt>
      <trkpt lat="46.97518" lon="8.6646">
        <ele>1338</ele>
        <time>2021-08-04T11:26:45.774Z</time>
      </trkpt>
      <trkpt lat="46.9752" lon="8.66459">
        <ele>1338</ele>
        <time>2021-08-04T11:26:46.773Z</time>
      </trkpt>
      <trkpt lat="46.97521" lon="8.66459">
        <ele>1338</ele>
        <time>2021-08-04T11:26:47.773Z</time>
      </trkpt>
      <trkpt lat="46.97522" lon="8.66458">
        <ele>1337</ele>
        <time>2021-08-04T11:26:48.773Z</time>
      </trkpt>
      <trkpt lat="46.97523" lon="8.66458">
        <ele>1337</ele>
        <time>2021-08-04T11:26:49.774Z</time>
      </trkpt>
      <trkpt lat="46.97524" lon="8.66458">
        <ele>1336</ele>
        <time>2021-08-04T11:26:50.773Z</time>
      </trkpt>
      <trkpt lat="46.97524" lon="8.66458">
        <ele>1336</ele>
        <time>2021-08-04T11:26:51.774Z</time>
      </trkpt>
      <trkpt lat="46.97525" lon="8.66457">
        <ele>1336</ele>
        <time>2021-08-04T11:26:52.773Z</time>
      </trkpt>
      <trkpt lat="46.97525" lon="8.66458">
        <ele>1336</ele>
        <time>2021-08-04T11:26:53.773Z</time>
      </trkpt>
      <trkpt lat="46.97525" lon="8.66457">
        <ele>1335</ele>
        <time>2021-08-04T11:26:54.774Z</time>
      </trkpt>
      <trkpt lat="46.97525" lon="8.66457">
        <ele>1335</ele>
        <time>2021-08-04T11:26:55.774Z</time>
      </trkpt>
      <trkpt lat="46.97526" lon="8.66457">
        <ele>1333</ele>
        <time>2021-08-04T11:26:56.773Z</time>
      </trkpt>
      <trkpt lat="46.97527" lon="8.66458">
        <ele>1333</ele>
        <time>2021-08-04T11:26:57.773Z</time>
      </trkpt>
      <trkpt lat="46.97527" lon="8.66458">
        <ele>1333</ele>
        <time>2021-08-04T11:26:58.773Z</time>
      </trkpt>
      <trkpt lat="46.97528" lon="8.66458">
        <ele>1332</ele>
        <time>2021-08-04T11:26:59.774Z</time>
      </trkpt>
      <trkpt lat="46.97529" lon="8.66457">
        <ele>1332</ele>
        <time>2021-08-04T11:27:00.773Z</time>
      </trkpt>
      <trkpt lat="46.9753" lon="8.66457">
        <ele>1332</ele>
        <time>2021-08-04T11:27:01.774Z</time>
      </trkpt>
      <trkpt lat="46.97532" lon="8.66456">
        <ele>1331</ele>
        <time>2021-08-04T11:27:02.773Z</time>
      </trkpt>
      <trkpt lat="46.97534" lon="8.66456">
        <ele>1331</ele>
        <time>2021-08-04T11:27:03.773Z</time>
      </trkpt>
      <trkpt lat="46.97536" lon="8.66456">
        <ele>1331</ele>
        <time>2021-08-04T11:27:04.773Z</time>
      </trkpt>
      <trkpt lat="46.97537" lon="8.66456">
        <ele>1330</ele>
        <time>2021-08-04T11:27:05.773Z</time>
      </trkpt>
      <trkpt lat="46.97538" lon="8.66457">
        <ele>1330</ele>
        <time>2021-08-04T11:27:06.774Z</time>
      </trkpt>
      <trkpt lat="46.9754" lon="8.66457">
        <ele>1329</ele>
        <time>2021-08-04T11:27:07.774Z</time>
      </trkpt>
      <trkpt lat="46.97541" lon="8.66458">
        <ele>1329</ele>
        <time>2021-08-04T11:27:08.774Z</time>
      </trkpt>
      <trkpt lat="46.97542" lon="8.66458">
        <ele>1328</ele>
        <time>2021-08-04T11:27:09.773Z</time>
      </trkpt>
      <trkpt lat="46.97543" lon="8.66459">
        <ele>1328</ele>
        <time>2021-08-04T11:27:10.773Z</time>
      </trkpt>
      <trkpt lat="46.97544" lon="8.66459">
        <ele>1327</ele>
        <time>2021-08-04T11:27:11.774Z</time>
      </trkpt>
      <trkpt lat="46.97545" lon="8.66458">
        <ele>1327</ele>
        <time>2021-08-04T11:27:12.774Z</time>
      </trkpt>
      <trkpt lat="46.97546" lon="8.66458">
        <ele>1327</ele>
        <time>2021-08-04T11:27:13.774Z</time>
      </trkpt>
      <trkpt lat="46.97546" lon="8.66459">
        <ele>1326</ele>
        <time>2021-08-04T11:27:14.774Z</time>
      </trkpt>
      <trkpt lat="46.97547" lon="8.6646">
        <ele>1326</ele>
        <time>2021-08-04T11:27:15.774Z</time>
      </trkpt>
      <trkpt lat="46.97548" lon="8.66461">
        <ele>1326</ele>
        <time>2021-08-04T11:27:16.773Z</time>
      </trkpt>
      <trkpt lat="46.97548" lon="8.66462">
        <ele>1326</ele>
        <time>2021-08-04T11:27:17.773Z</time>
      </trkpt>
      <trkpt lat="46.97548" lon="8.66463">
        <ele>1326</ele>
        <time>2021-08-04T11:27:18.774Z</time>
      </trkpt>
      <trkpt lat="46.97548" lon="8.66464">
        <ele>1326</ele>
        <time>2021-08-04T11:27:19.774Z</time>
      </trkpt>
      <trkpt lat="46.97548" lon="8.66465">
        <ele>1326</ele>
        <time>2021-08-04T11:27:20.774Z</time>
      </trkpt>
      <trkpt lat="46.97549" lon="8.66465">
        <ele>1327</ele>
        <time>2021-08-04T11:27:21.773Z</time>
      </trkpt>
      <trkpt lat="46.97549" lon="8.66465">
        <ele>1327</ele>
        <time>2021-08-04T11:27:22.774Z</time>
      </trkpt>
      <trkpt lat="46.97549" lon="8.66465">
        <ele>1328</ele>
        <time>2021-08-04T11:27:23.774Z</time>
      </trkpt>
      <trkpt lat="46.97549" lon="8.66465">
        <ele>1329</ele>
        <time>2021-08-04T11:27:24.774Z</time>
      </trkpt>
      <trkpt lat="46.97548" lon="8.66465">
        <ele>1330</ele>
        <time>2021-08-04T11:27:25.773Z</time>
      </trkpt>
      <trkpt lat="46.97549" lon="8.66466">
        <ele>1331</ele>
        <time>2021-08-04T11:27:26.773Z</time>
      </trkpt>
      <trkpt lat="46.97549" lon="8.66466">
        <ele>1332</ele>
        <time>2021-08-04T11:27:27.773Z</time>
      </trkpt>
      <trkpt lat="46.97549" lon="8.66467">
        <ele>1333</ele>
        <time>2021-08-04T11:27:28.774Z</time>
      </trkpt>
      <trkpt lat="46.9755" lon="8.66468">
        <ele>1333</ele>
        <time>2021-08-04T11:27:29.773Z</time>
      </trkpt>
      <trkpt lat="46.9755" lon="8.6647">
        <ele>1333</ele>
        <time>2021-08-04T11:27:30.774Z</time>
      </trkpt>
      <trkpt lat="46.9755" lon="8.66471">
        <ele>1333</ele>
        <time>2021-08-04T11:27:31.773Z</time>
      </trkpt>
      <trkpt lat="46.97551" lon="8.66472">
        <ele>1333</ele>
        <time>2021-08-04T11:27:32.774Z</time>
      </trkpt>
      <trkpt lat="46.97552" lon="8.66473">
        <ele>1333</ele>
        <time>2021-08-04T11:27:33.774Z</time>
      </trkpt>
      <trkpt lat="46.97553" lon="8.66473">
        <ele>1333</ele>
        <time>2021-08-04T11:27:34.774Z</time>
      </trkpt>
      <trkpt lat="46.97554" lon="8.66473">
        <ele>1332</ele>
        <time>2021-08-04T11:27:35.773Z</time>
      </trkpt>
      <trkpt lat="46.97555" lon="8.66474">
        <ele>1332</ele>
        <time>2021-08-04T11:27:36.774Z</time>
      </trkpt>
      <trkpt lat="46.97556" lon="8.66474">
        <ele>1331</ele>
        <time>2021-08-04T11:27:37.773Z</time>
      </trkpt>
      <trkpt lat="46.97557" lon="8.66474">
        <ele>1331</ele>
        <time>2021-08-04T11:27:38.774Z</time>
      </trkpt>
      <trkpt lat="46.97558" lon="8.66474">
        <ele>1330</ele>
        <time>2021-08-04T11:27:39.774Z</time>
      </trkpt>
      <trkpt lat="46.97559" lon="8.66473">
        <ele>1330</ele>
        <time>2021-08-04T11:27:40.773Z</time>
      </trkpt>
      <trkpt lat="46.9756" lon="8.66473">
        <ele>1329</ele>
        <time>2021-08-04T11:27:41.774Z</time>
      </trkpt>
      <trkpt lat="46.97561" lon="8.66473">
        <ele>1329</ele>
        <time>2021-08-04T11:27:42.774Z</time>
      </trkpt>
      <trkpt lat="46.97563" lon="8.66473">
        <ele>1329</ele>
        <time>2021-08-04T11:27:43.774Z</time>
      </trkpt>
      <trkpt lat="46.97564" lon="8.66473">
        <ele>1328</ele>
        <time>2021-08-04T11:27:44.774Z</time>
      </trkpt>
      <trkpt lat="46.97564" lon="8.66473">
        <ele>1328</ele>
        <time>2021-08-04T11:27:45.774Z</time>
      </trkpt>
      <trkpt lat="46.97565" lon="8.66473">
        <ele>1328</ele>
        <time>2021-08-04T11:27:46.774Z</time>
      </trkpt>
      <trkpt lat="46.97565" lon="8.66473">
        <ele>1328</ele>
        <time>2021-08-04T11:27:47.774Z</time>
      </trkpt>
      <trkpt lat="46.97566" lon="8.66472">
        <ele>1328</ele>
        <time>2021-08-04T11:27:48.774Z</time>
      </trkpt>
      <trkpt lat="46.97567" lon="8.66471">
        <ele>1328</ele>
        <time>2021-08-04T11:27:49.773Z</time>
      </trkpt>
      <trkpt lat="46.97567" lon="8.6647">
        <ele>1327</ele>
        <time>2021-08-04T11:27:50.774Z</time>
      </trkpt>
      <trkpt lat="46.97568" lon="8.66468">
        <ele>1327</ele>
        <time>2021-08-04T11:27:51.773Z</time>
      </trkpt>
      <trkpt lat="46.97569" lon="8.66467">
        <ele>1327</ele>
        <time>2021-08-04T11:27:52.774Z</time>
      </trkpt>
      <trkpt lat="46.97569" lon="8.66466">
        <ele>1327</ele>
        <time>2021-08-04T11:27:53.773Z</time>
      </trkpt>
      <trkpt lat="46.9757" lon="8.66465">
        <ele>1327</ele>
        <time>2021-08-04T11:27:54.774Z</time>
      </trkpt>
      <trkpt lat="46.9757" lon="8.66464">
        <ele>1328</ele>
        <time>2021-08-04T11:27:55.774Z</time>
      </trkpt>
      <trkpt lat="46.97571" lon="8.66463">
        <ele>1328</ele>
        <time>2021-08-04T11:27:56.773Z</time>
      </trkpt>
      <trkpt lat="46.97572" lon="8.66463">
        <ele>1328</ele>
        <time>2021-08-04T11:27:57.774Z</time>
      </trkpt>
      <trkpt lat="46.97572" lon="8.66463">
        <ele>1328</ele>
        <time>2021-08-04T11:27:58.774Z</time>
      </trkpt>
      <trkpt lat="46.97573" lon="8.66463">
        <ele>1328</ele>
        <time>2021-08-04T11:27:59.773Z</time>
      </trkpt>
      <trkpt lat="46.97573" lon="8.66463">
        <ele>1328</ele>
        <time>2021-08-04T11:28:00.774Z</time>
      </trkpt>
      <trkpt lat="46.97573" lon="8.66463">
        <ele>1328</ele>
        <time>2021-08-04T11:28:01.776Z</time>
      </trkpt>
      <trkpt lat="46.97574" lon="8.66463">
        <ele>1328</ele>
        <time>2021-08-04T11:28:02.776Z</time>
      </trkpt>
      <trkpt lat="46.97575" lon="8.66463">
        <ele>1328</ele>
        <time>2021-08-04T11:28:03.775Z</time>
      </trkpt>
      <trkpt lat="46.97575" lon="8.66464">
        <ele>1328</ele>
        <time>2021-08-04T11:28:04.775Z</time>
      </trkpt>
      <trkpt lat="46.97575" lon="8.66465">
        <ele>1328</ele>
        <time>2021-08-04T11:28:05.775Z</time>
      </trkpt>
      <trkpt lat="46.97575" lon="8.66466">
        <ele>1327</ele>
        <time>2021-08-04T11:28:06.775Z</time>
      </trkpt>
      <trkpt lat="46.97576" lon="8.66468">
        <ele>1328</ele>
        <time>2021-08-04T11:28:07.776Z</time>
      </trkpt>
      <trkpt lat="46.97576" lon="8.66468">
        <ele>1328</ele>
        <time>2021-08-04T11:28:08.776Z</time>
      </trkpt>
      <trkpt lat="46.97577" lon="8.66469">
        <ele>1328</ele>
        <time>2021-08-04T11:28:09.775Z</time>
      </trkpt>
      <trkpt lat="46.97578" lon="8.6647">
        <ele>1328</ele>
        <time>2021-08-04T11:28:10.776Z</time>
      </trkpt>
      <trkpt lat="46.97579" lon="8.6647">
        <ele>1329</ele>
        <time>2021-08-04T11:28:11.775Z</time>
      </trkpt>
      <trkpt lat="46.9758" lon="8.66471">
        <ele>1329</ele>
        <time>2021-08-04T11:28:12.776Z</time>
      </trkpt>
      <trkpt lat="46.97581" lon="8.66473">
        <ele>1329</ele>
        <time>2021-08-04T11:28:13.776Z</time>
      </trkpt>
      <trkpt lat="46.97581" lon="8.66475">
        <ele>1329</ele>
        <time>2021-08-04T11:28:14.775Z</time>
      </trkpt>
      <trkpt lat="46.97582" lon="8.66476">
        <ele>1330</ele>
        <time>2021-08-04T11:28:15.775Z</time>
      </trkpt>
      <trkpt lat="46.97583" lon="8.66477">
        <ele>1330</ele>
        <time>2021-08-04T11:28:16.775Z</time>
      </trkpt>
      <trkpt lat="46.97584" lon="8.66477">
        <ele>1330</ele>
        <time>2021-08-04T11:28:17.775Z</time>
      </trkpt>
      <trkpt lat="46.97584" lon="8.66477">
        <ele>1329</ele>
        <time>2021-08-04T11:28:18.776Z</time>
      </trkpt>
      <trkpt lat="46.97584" lon="8.66477">
        <ele>1329</ele>
        <time>2021-08-04T11:28:19.776Z</time>
      </trkpt>
      <trkpt lat="46.97584" lon="8.66477">
        <ele>1329</ele>
        <time>2021-08-04T11:28:20.776Z</time>
      </trkpt>
      <trkpt lat="46.97584" lon="8.66478">
        <ele>1329</ele>
        <time>2021-08-04T11:28:21.776Z</time>
      </trkpt>
      <trkpt lat="46.97584" lon="8.66479">
        <ele>1329</ele>
        <time>2021-08-04T11:28:22.776Z</time>
      </trkpt>
      <trkpt lat="46.97581" lon="8.6648">
        <ele>1330</ele>
        <time>2021-08-04T11:28:23.775Z</time>
      </trkpt>
      <trkpt lat="46.9758" lon="8.66481">
        <ele>1331</ele>
        <time>2021-08-04T11:28:24.775Z</time>
      </trkpt>
      <trkpt lat="46.9758" lon="8.66481">
        <ele>1331</ele>
        <time>2021-08-04T11:28:25.775Z</time>
      </trkpt>
      <trkpt lat="46.9758" lon="8.66482">
        <ele>1332</ele>
        <time>2021-08-04T11:28:26.776Z</time>
      </trkpt>
      <trkpt lat="46.9758" lon="8.66482">
        <ele>1332</ele>
        <time>2021-08-04T11:28:27.776Z</time>
      </trkpt>
      <trkpt lat="46.9758" lon="8.66482">
        <ele>1333</ele>
        <time>2021-08-04T11:28:28.776Z</time>
      </trkpt>
      <trkpt lat="46.9758" lon="8.66481">
        <ele>1333</ele>
        <time>2021-08-04T11:28:29.776Z</time>
      </trkpt>
      <trkpt lat="46.9758" lon="8.66481">
        <ele>1333</ele>
        <time>2021-08-04T11:28:30.775Z</time>
      </trkpt>
      <trkpt lat="46.9758" lon="8.66481">
        <ele>1333</ele>
        <time>2021-08-04T11:28:31.776Z</time>
      </trkpt>
      <trkpt lat="46.9758" lon="8.6648">
        <ele>1333</ele>
        <time>2021-08-04T11:28:32.775Z</time>
      </trkpt>
      <trkpt lat="46.9758" lon="8.6648">
        <ele>1333</ele>
        <time>2021-08-04T11:28:33.776Z</time>
      </trkpt>
      <trkpt lat="46.9758" lon="8.66479">
        <ele>1333</ele>
        <time>2021-08-04T11:28:34.776Z</time>
      </trkpt>
      <trkpt lat="46.9758" lon="8.66479">
        <ele>1333</ele>
        <time>2021-08-04T11:28:35.775Z</time>
      </trkpt>
      <trkpt lat="46.97581" lon="8.66482">
        <ele>1333</ele>
        <time>2021-08-04T11:28:36.776Z</time>
      </trkpt>
      <trkpt lat="46.97581" lon="8.66482">
        <ele>1333</ele>
        <time>2021-08-04T11:28:37.775Z</time>
      </trkpt>
      <trkpt lat="46.97581" lon="8.66482">
        <ele>1333</ele>
        <time>2021-08-04T11:28:38.775Z</time>
      </trkpt>
      <trkpt lat="46.97582" lon="8.66484">
        <ele>1334</ele>
        <time>2021-08-04T11:28:39.776Z</time>
      </trkpt>
      <trkpt lat="46.97583" lon="8.66485">
        <ele>1334</ele>
        <time>2021-08-04T11:28:40.775Z</time>
      </trkpt>
      <trkpt lat="46.97583" lon="8.66484">
        <ele>1334</ele>
        <time>2021-08-04T11:28:41.775Z</time>
      </trkpt>
      <trkpt lat="46.97585" lon="8.66483">
        <ele>1334</ele>
        <time>2021-08-04T11:28:42.776Z</time>
      </trkpt>
      <trkpt lat="46.97586" lon="8.66482">
        <ele>1334</ele>
        <time>2021-08-04T11:28:43.775Z</time>
      </trkpt>
      <trkpt lat="46.97587" lon="8.66481">
        <ele>1334</ele>
        <time>2021-08-04T11:28:44.775Z</time>
      </trkpt>
      <trkpt lat="46.97588" lon="8.6648">
        <ele>1333</ele>
        <time>2021-08-04T11:28:45.776Z</time>
      </trkpt>
      <trkpt lat="46.97588" lon="8.66478">
        <ele>1333</ele>
        <time>2021-08-04T11:28:46.775Z</time>
      </trkpt>
      <trkpt lat="46.97588" lon="8.66477">
        <ele>1333</ele>
        <time>2021-08-04T11:28:47.776Z</time>
      </trkpt>
      <trkpt lat="46.97588" lon="8.66477">
        <ele>1332</ele>
        <time>2021-08-04T11:28:48.776Z</time>
      </trkpt>
      <trkpt lat="46.97588" lon="8.66477">
        <ele>1331</ele>
        <time>2021-08-04T11:28:49.776Z</time>
      </trkpt>
      <trkpt lat="46.97588" lon="8.6647">
        <ele>1324</ele>
        <time>2021-08-04T11:28:50.775Z</time>
      </trkpt>
      <trkpt lat="46.97588" lon="8.66469">
        <ele>1324</ele>
        <time>2021-08-04T11:28:51.776Z</time>
      </trkpt>
      <trkpt lat="46.97588" lon="8.66469">
        <ele>1325</ele>
        <time>2021-08-04T11:28:52.775Z</time>
      </trkpt>
      <trkpt lat="46.97588" lon="8.66466">
        <ele>1327</ele>
        <time>2021-08-04T11:28:53.775Z</time>
      </trkpt>
      <trkpt lat="46.97587" lon="8.66464">
        <ele>1328</ele>
        <time>2021-08-04T11:28:54.775Z</time>
      </trkpt>
      <trkpt lat="46.97586" lon="8.66463">
        <ele>1328</ele>
        <time>2021-08-04T11:28:55.775Z</time>
      </trkpt>
      <trkpt lat="46.97588" lon="8.66464">
        <ele>1329</ele>
        <time>2021-08-04T11:28:56.775Z</time>
      </trkpt>
      <trkpt lat="46.97589" lon="8.66464">
        <ele>1329</ele>
        <time>2021-08-04T11:28:57.776Z</time>
      </trkpt>
      <trkpt lat="46.9759" lon="8.66464">
        <ele>1329</ele>
        <time>2021-08-04T11:28:58.775Z</time>
      </trkpt>
      <trkpt lat="46.97592" lon="8.66464">
        <ele>1329</ele>
        <time>2021-08-04T11:28:59.775Z</time>
      </trkpt>
      <trkpt lat="46.97592" lon="8.66463">
        <ele>1329</ele>
        <time>2021-08-04T11:29:00.775Z</time>
      </trkpt>
      <trkpt lat="46.97593" lon="8.66462">
        <ele>1329</ele>
        <time>2021-08-04T11:29:01.775Z</time>
      </trkpt>
      <trkpt lat="46.97594" lon="8.66461">
        <ele>1329</ele>
        <time>2021-08-04T11:29:02.775Z</time>
      </trkpt>
      <trkpt lat="46.97594" lon="8.66461">
        <ele>1329</ele>
        <time>2021-08-04T11:29:03.776Z</time>
      </trkpt>
      <trkpt lat="46.97595" lon="8.6646">
        <ele>1330</ele>
        <time>2021-08-04T11:29:04.775Z</time>
      </trkpt>
      <trkpt lat="46.97596" lon="8.66459">
        <ele>1330</ele>
        <time>2021-08-04T11:29:05.775Z</time>
      </trkpt>
      <trkpt lat="46.97596" lon="8.66457">
        <ele>1331</ele>
        <time>2021-08-04T11:29:06.775Z</time>
      </trkpt>
      <trkpt lat="46.97597" lon="8.66456">
        <ele>1331</ele>
        <time>2021-08-04T11:29:07.775Z</time>
      </trkpt>
      <trkpt lat="46.97597" lon="8.66455">
        <ele>1331</ele>
        <time>2021-08-04T11:29:08.776Z</time>
      </trkpt>
      <trkpt lat="46.97598" lon="8.66454">
        <ele>1331</ele>
        <time>2021-08-04T11:29:09.775Z</time>
      </trkpt>
      <trkpt lat="46.97597" lon="8.66454">
        <ele>1332</ele>
        <time>2021-08-04T11:29:10.776Z</time>
      </trkpt>
      <trkpt lat="46.97598" lon="8.66453">
        <ele>1332</ele>
        <time>2021-08-04T11:29:11.775Z</time>
      </trkpt>
      <trkpt lat="46.97598" lon="8.66452">
        <ele>1332</ele>
        <time>2021-08-04T11:29:12.775Z</time>
      </trkpt>
      <trkpt lat="46.97599" lon="8.66452">
        <ele>1332</ele>
        <time>2021-08-04T11:29:13.775Z</time>
      </trkpt>
      <trkpt lat="46.97601" lon="8.66452">
        <ele>1332</ele>
        <time>2021-08-04T11:29:14.775Z</time>
      </trkpt>
      <trkpt lat="46.97602" lon="8.66451">
        <ele>1332</ele>
        <time>2021-08-04T11:29:15.775Z</time>
      </trkpt>
      <trkpt lat="46.97603" lon="8.66451">
        <ele>1332</ele>
        <time>2021-08-04T11:29:16.775Z</time>
      </trkpt>
      <trkpt lat="46.97603" lon="8.66452">
        <ele>1332</ele>
        <time>2021-08-04T11:29:17.775Z</time>
      </trkpt>
      <trkpt lat="46.97604" lon="8.66452">
        <ele>1332</ele>
        <time>2021-08-04T11:29:18.775Z</time>
      </trkpt>
      <trkpt lat="46.97605" lon="8.66452">
        <ele>1331</ele>
        <time>2021-08-04T11:29:19.775Z</time>
      </trkpt>
      <trkpt lat="46.97605" lon="8.66454">
        <ele>1330</ele>
        <time>2021-08-04T11:29:20.776Z</time>
      </trkpt>
      <trkpt lat="46.97604" lon="8.6646">
        <ele>1330</ele>
        <time>2021-08-04T11:29:21.777Z</time>
      </trkpt>
      <trkpt lat="46.97605" lon="8.66462">
        <ele>1330</ele>
        <time>2021-08-04T11:29:22.777Z</time>
      </trkpt>
      <trkpt lat="46.97606" lon="8.66463">
        <ele>1330</ele>
        <time>2021-08-04T11:29:23.778Z</time>
      </trkpt>
      <trkpt lat="46.97606" lon="8.66464">
        <ele>1329</ele>
        <time>2021-08-04T11:29:24.777Z</time>
      </trkpt>
      <trkpt lat="46.97607" lon="8.66465">
        <ele>1329</ele>
        <time>2021-08-04T11:29:25.778Z</time>
      </trkpt>
      <trkpt lat="46.97608" lon="8.66465">
        <ele>1329</ele>
        <time>2021-08-04T11:29:26.778Z</time>
      </trkpt>
      <trkpt lat="46.97609" lon="8.66466">
        <ele>1328</ele>
        <time>2021-08-04T11:29:27.778Z</time>
      </trkpt>
      <trkpt lat="46.9761" lon="8.66467">
        <ele>1328</ele>
        <time>2021-08-04T11:29:28.777Z</time>
      </trkpt>
      <trkpt lat="46.97611" lon="8.66468">
        <ele>1328</ele>
        <time>2021-08-04T11:29:29.777Z</time>
      </trkpt>
      <trkpt lat="46.97612" lon="8.66468">
        <ele>1328</ele>
        <time>2021-08-04T11:29:30.777Z</time>
      </trkpt>
      <trkpt lat="46.97613" lon="8.66469">
        <ele>1328</ele>
        <time>2021-08-04T11:29:31.777Z</time>
      </trkpt>
      <trkpt lat="46.97614" lon="8.66469">
        <ele>1328</ele>
        <time>2021-08-04T11:29:32.777Z</time>
      </trkpt>
      <trkpt lat="46.97616" lon="8.6647">
        <ele>1328</ele>
        <time>2021-08-04T11:29:33.777Z</time>
      </trkpt>
      <trkpt lat="46.97617" lon="8.6647">
        <ele>1327</ele>
        <time>2021-08-04T11:29:34.777Z</time>
      </trkpt>
      <trkpt lat="46.97618" lon="8.6647">
        <ele>1327</ele>
        <time>2021-08-04T11:29:35.777Z</time>
      </trkpt>
      <trkpt lat="46.97619" lon="8.6647">
        <ele>1328</ele>
        <time>2021-08-04T11:29:36.777Z</time>
      </trkpt>
      <trkpt lat="46.9762" lon="8.66471">
        <ele>1328</ele>
        <time>2021-08-04T11:29:37.778Z</time>
      </trkpt>
      <trkpt lat="46.97622" lon="8.66472">
        <ele>1328</ele>
        <time>2021-08-04T11:29:38.777Z</time>
      </trkpt>
      <trkpt lat="46.97623" lon="8.66474">
        <ele>1328</ele>
        <time>2021-08-04T11:29:39.777Z</time>
      </trkpt>
      <trkpt lat="46.97625" lon="8.66476">
        <ele>1329</ele>
        <time>2021-08-04T11:29:40.777Z</time>
      </trkpt>
      <trkpt lat="46.97626" lon="8.66477">
        <ele>1329</ele>
        <time>2021-08-04T11:29:41.778Z</time>
      </trkpt>
      <trkpt lat="46.97627" lon="8.66478">
        <ele>1329</ele>
        <time>2021-08-04T11:29:42.777Z</time>
      </trkpt>
      <trkpt lat="46.97628" lon="8.66479">
        <ele>1329</ele>
        <time>2021-08-04T11:29:43.778Z</time>
      </trkpt>
      <trkpt lat="46.97629" lon="8.6648">
        <ele>1329</ele>
        <time>2021-08-04T11:29:44.777Z</time>
      </trkpt>
      <trkpt lat="46.97629" lon="8.66481">
        <ele>1329</ele>
        <time>2021-08-04T11:29:45.777Z</time>
      </trkpt>
      <trkpt lat="46.97631" lon="8.66482">
        <ele>1329</ele>
        <time>2021-08-04T11:29:46.778Z</time>
      </trkpt>
      <trkpt lat="46.97632" lon="8.66482">
        <ele>1329</ele>
        <time>2021-08-04T11:29:47.777Z</time>
      </trkpt>
      <trkpt lat="46.97632" lon="8.66483">
        <ele>1329</ele>
        <time>2021-08-04T11:29:48.777Z</time>
      </trkpt>
      <trkpt lat="46.97633" lon="8.66484">
        <ele>1329</ele>
        <time>2021-08-04T11:29:49.778Z</time>
      </trkpt>
      <trkpt lat="46.97634" lon="8.66485">
        <ele>1328</ele>
        <time>2021-08-04T11:29:50.777Z</time>
      </trkpt>
      <trkpt lat="46.97635" lon="8.66486">
        <ele>1328</ele>
        <time>2021-08-04T11:29:51.777Z</time>
      </trkpt>
      <trkpt lat="46.97636" lon="8.66488">
        <ele>1328</ele>
        <time>2021-08-04T11:29:52.777Z</time>
      </trkpt>
      <trkpt lat="46.97636" lon="8.66489">
        <ele>1328</ele>
        <time>2021-08-04T11:29:53.777Z</time>
      </trkpt>
      <trkpt lat="46.97636" lon="8.66489">
        <ele>1328</ele>
        <time>2021-08-04T11:29:54.777Z</time>
      </trkpt>
      <trkpt lat="46.97636" lon="8.66489">
        <ele>1328</ele>
        <time>2021-08-04T11:29:55.777Z</time>
      </trkpt>
      <trkpt lat="46.97637" lon="8.66489">
        <ele>1329</ele>
        <time>2021-08-04T11:29:56.778Z</time>
      </trkpt>
      <trkpt lat="46.97637" lon="8.6649">
        <ele>1329</ele>
        <time>2021-08-04T11:29:57.777Z</time>
      </trkpt>
      <trkpt lat="46.97638" lon="8.66488">
        <ele>1329</ele>
        <time>2021-08-04T11:29:58.778Z</time>
      </trkpt>
      <trkpt lat="46.97639" lon="8.66488">
        <ele>1328</ele>
        <time>2021-08-04T11:29:59.777Z</time>
      </trkpt>
      <trkpt lat="46.97639" lon="8.66488">
        <ele>1328</ele>
        <time>2021-08-04T11:30:00.778Z</time>
      </trkpt>
      <trkpt lat="46.97638" lon="8.66489">
        <ele>1328</ele>
        <time>2021-08-04T11:30:01.777Z</time>
      </trkpt>
      <trkpt lat="46.97638" lon="8.6649">
        <ele>1327</ele>
        <time>2021-08-04T11:30:02.777Z</time>
      </trkpt>
      <trkpt lat="46.97638" lon="8.66491">
        <ele>1327</ele>
        <time>2021-08-04T11:30:03.778Z</time>
      </trkpt>
      <trkpt lat="46.97638" lon="8.66492">
        <ele>1326</ele>
        <time>2021-08-04T11:30:04.778Z</time>
      </trkpt>
      <trkpt lat="46.97637" lon="8.66493">
        <ele>1325</ele>
        <time>2021-08-04T11:30:05.777Z</time>
      </trkpt>
      <trkpt lat="46.97637" lon="8.66494">
        <ele>1324</ele>
        <time>2021-08-04T11:30:06.778Z</time>
      </trkpt>
      <trkpt lat="46.97636" lon="8.66495">
        <ele>1324</ele>
        <time>2021-08-04T11:30:07.778Z</time>
      </trkpt>
      <trkpt lat="46.97636" lon="8.665">
        <ele>1321</ele>
        <time>2021-08-04T11:30:08.778Z</time>
      </trkpt>
      <trkpt lat="46.97636" lon="8.66501">
        <ele>1321</ele>
        <time>2021-08-04T11:30:09.778Z</time>
      </trkpt>
      <trkpt lat="46.97636" lon="8.66502">
        <ele>1321</ele>
        <time>2021-08-04T11:30:10.777Z</time>
      </trkpt>
      <trkpt lat="46.97638" lon="8.66503">
        <ele>1320</ele>
        <time>2021-08-04T11:30:11.777Z</time>
      </trkpt>
      <trkpt lat="46.97638" lon="8.66504">
        <ele>1320</ele>
        <time>2021-08-04T11:30:12.778Z</time>
      </trkpt>
      <trkpt lat="46.97638" lon="8.66504">
        <ele>1320</ele>
        <time>2021-08-04T11:30:13.777Z</time>
      </trkpt>
      <trkpt lat="46.9764" lon="8.66506">
        <ele>1317</ele>
        <time>2021-08-04T11:30:14.778Z</time>
      </trkpt>
      <trkpt lat="46.97639" lon="8.66506">
        <ele>1317</ele>
        <time>2021-08-04T11:30:15.777Z</time>
      </trkpt>
      <trkpt lat="46.9764" lon="8.66507">
        <ele>1314</ele>
        <time>2021-08-04T11:30:16.780Z</time>
      </trkpt>
      <trkpt lat="46.97637" lon="8.66507">
        <ele>1315</ele>
        <time>2021-08-04T11:30:17.780Z</time>
      </trkpt>
      <trkpt lat="46.97638" lon="8.66507">
        <ele>1316</ele>
        <time>2021-08-04T11:30:18.780Z</time>
      </trkpt>
      <trkpt lat="46.97638" lon="8.66508">
        <ele>1316</ele>
        <time>2021-08-04T11:30:19.779Z</time>
      </trkpt>
      <trkpt lat="46.97637" lon="8.66508">
        <ele>1316</ele>
        <time>2021-08-04T11:30:20.780Z</time>
      </trkpt>
      <trkpt lat="46.97637" lon="8.66508">
        <ele>1317</ele>
        <time>2021-08-04T11:30:21.780Z</time>
      </trkpt>
      <trkpt lat="46.97636" lon="8.66507">
        <ele>1313</ele>
        <time>2021-08-04T11:30:22.781Z</time>
      </trkpt>
      <trkpt lat="46.97637" lon="8.66508">
        <ele>1313</ele>
        <time>2021-08-04T11:30:23.781Z</time>
      </trkpt>
      <trkpt lat="46.97639" lon="8.66508">
        <ele>1314</ele>
        <time>2021-08-04T11:30:24.781Z</time>
      </trkpt>
      <trkpt lat="46.97639" lon="8.66509">
        <ele>1314</ele>
        <time>2021-08-04T11:30:25.781Z</time>
      </trkpt>
      <trkpt lat="46.9764" lon="8.66509">
        <ele>1315</ele>
        <time>2021-08-04T11:30:26.780Z</time>
      </trkpt>
      <trkpt lat="46.9764" lon="8.6651">
        <ele>1315</ele>
        <time>2021-08-04T11:30:27.781Z</time>
      </trkpt>
      <trkpt lat="46.97641" lon="8.6651">
        <ele>1316</ele>
        <time>2021-08-04T11:30:28.781Z</time>
      </trkpt>
      <trkpt lat="46.97641" lon="8.66512">
        <ele>1316</ele>
        <time>2021-08-04T11:30:29.781Z</time>
      </trkpt>
      <trkpt lat="46.97641" lon="8.66513">
        <ele>1317</ele>
        <time>2021-08-04T11:30:30.780Z</time>
      </trkpt>
      <trkpt lat="46.97641" lon="8.66515">
        <ele>1317</ele>
        <time>2021-08-04T11:30:31.780Z</time>
      </trkpt>
      <trkpt lat="46.97641" lon="8.66516">
        <ele>1318</ele>
        <time>2021-08-04T11:30:32.780Z</time>
      </trkpt>
      <trkpt lat="46.97642" lon="8.66516">
        <ele>1318</ele>
        <time>2021-08-04T11:30:33.781Z</time>
      </trkpt>
      <trkpt lat="46.97642" lon="8.66517">
        <ele>1318</ele>
        <time>2021-08-04T11:30:34.780Z</time>
      </trkpt>
      <trkpt lat="46.97643" lon="8.66517">
        <ele>1318</ele>
        <time>2021-08-04T11:30:35.781Z</time>
      </trkpt>
      <trkpt lat="46.97642" lon="8.66517">
        <ele>1318</ele>
        <time>2021-08-04T11:30:36.781Z</time>
      </trkpt>
      <trkpt lat="46.97642" lon="8.66517">
        <ele>1317</ele>
        <time>2021-08-04T11:30:37.782Z</time>
      </trkpt>
      <trkpt lat="46.97642" lon="8.66519">
        <ele>1316</ele>
        <time>2021-08-04T11:30:38.781Z</time>
      </trkpt>
      <trkpt lat="46.97642" lon="8.66522">
        <ele>1317</ele>
        <time>2021-08-04T11:30:39.781Z</time>
      </trkpt>
      <trkpt lat="46.97642" lon="8.66523">
        <ele>1317</ele>
        <time>2021-08-04T11:30:40.781Z</time>
      </trkpt>
      <trkpt lat="46.97643" lon="8.66525">
        <ele>1317</ele>
        <time>2021-08-04T11:30:41.781Z</time>
      </trkpt>
      <trkpt lat="46.97643" lon="8.66526">
        <ele>1317</ele>
        <time>2021-08-04T11:30:42.782Z</time>
      </trkpt>
      <trkpt lat="46.97643" lon="8.66527">
        <ele>1317</ele>
        <time>2021-08-04T11:30:43.781Z</time>
      </trkpt>
      <trkpt lat="46.97643" lon="8.66528">
        <ele>1317</ele>
        <time>2021-08-04T11:30:44.782Z</time>
      </trkpt>
      <trkpt lat="46.97644" lon="8.66528">
        <ele>1317</ele>
        <time>2021-08-04T11:30:45.782Z</time>
      </trkpt>
      <trkpt lat="46.97644" lon="8.66529">
        <ele>1317</ele>
        <time>2021-08-04T11:30:46.782Z</time>
      </trkpt>
      <trkpt lat="46.97644" lon="8.6653">
        <ele>1317</ele>
        <time>2021-08-04T11:30:47.781Z</time>
      </trkpt>
      <trkpt lat="46.97645" lon="8.66532">
        <ele>1318</ele>
        <time>2021-08-04T11:30:48.781Z</time>
      </trkpt>
      <trkpt lat="46.97646" lon="8.66533">
        <ele>1318</ele>
        <time>2021-08-04T11:30:49.782Z</time>
      </trkpt>
      <trkpt lat="46.97646" lon="8.66535">
        <ele>1319</ele>
        <time>2021-08-04T11:30:50.781Z</time>
      </trkpt>
      <trkpt lat="46.97646" lon="8.66536">
        <ele>1319</ele>
        <time>2021-08-04T11:30:51.781Z</time>
      </trkpt>
      <trkpt lat="46.97647" lon="8.66537">
        <ele>1319</ele>
        <time>2021-08-04T11:30:52.781Z</time>
      </trkpt>
      <trkpt lat="46.97646" lon="8.66539">
        <ele>1319</ele>
        <time>2021-08-04T11:30:53.781Z</time>
      </trkpt>
      <trkpt lat="46.97646" lon="8.66541">
        <ele>1319</ele>
        <time>2021-08-04T11:30:54.781Z</time>
      </trkpt>
      <trkpt lat="46.97646" lon="8.66543">
        <ele>1319</ele>
        <time>2021-08-04T11:30:55.781Z</time>
      </trkpt>
      <trkpt lat="46.97646" lon="8.66545">
        <ele>1319</ele>
        <time>2021-08-04T11:30:56.781Z</time>
      </trkpt>
      <trkpt lat="46.97645" lon="8.66547">
        <ele>1319</ele>
        <time>2021-08-04T11:30:57.782Z</time>
      </trkpt>
      <trkpt lat="46.97645" lon="8.66549">
        <ele>1319</ele>
        <time>2021-08-04T11:30:58.782Z</time>
      </trkpt>
      <trkpt lat="46.97644" lon="8.6655">
        <ele>1318</ele>
        <time>2021-08-04T11:30:59.781Z</time>
      </trkpt>
      <trkpt lat="46.97644" lon="8.66552">
        <ele>1318</ele>
        <time>2021-08-04T11:31:00.782Z</time>
      </trkpt>
      <trkpt lat="46.97643" lon="8.66553">
        <ele>1318</ele>
        <time>2021-08-04T11:31:01.782Z</time>
      </trkpt>
      <trkpt lat="46.97642" lon="8.66555">
        <ele>1318</ele>
        <time>2021-08-04T11:31:02.782Z</time>
      </trkpt>
      <trkpt lat="46.97642" lon="8.66558">
        <ele>1318</ele>
        <time>2021-08-04T11:31:03.782Z</time>
      </trkpt>
      <trkpt lat="46.97642" lon="8.66559">
        <ele>1317</ele>
        <time>2021-08-04T11:31:04.781Z</time>
      </trkpt>
      <trkpt lat="46.97641" lon="8.6656">
        <ele>1317</ele>
        <time>2021-08-04T11:31:05.781Z</time>
      </trkpt>
      <trkpt lat="46.97641" lon="8.66561">
        <ele>1316</ele>
        <time>2021-08-04T11:31:06.782Z</time>
      </trkpt>
      <trkpt lat="46.9764" lon="8.66563">
        <ele>1316</ele>
        <time>2021-08-04T11:31:07.781Z</time>
      </trkpt>
      <trkpt lat="46.9764" lon="8.66565">
        <ele>1316</ele>
        <time>2021-08-04T11:31:08.782Z</time>
      </trkpt>
      <trkpt lat="46.97639" lon="8.66567">
        <ele>1315</ele>
        <time>2021-08-04T11:31:09.782Z</time>
      </trkpt>
      <trkpt lat="46.97639" lon="8.66568">
        <ele>1315</ele>
        <time>2021-08-04T11:31:10.782Z</time>
      </trkpt>
      <trkpt lat="46.97639" lon="8.66569">
        <ele>1315</ele>
        <time>2021-08-04T11:31:11.782Z</time>
      </trkpt>
      <trkpt lat="46.97638" lon="8.66571">
        <ele>1314</ele>
        <time>2021-08-04T11:31:12.781Z</time>
      </trkpt>
      <trkpt lat="46.97637" lon="8.66573">
        <ele>1314</ele>
        <time>2021-08-04T11:31:13.782Z</time>
      </trkpt>
      <trkpt lat="46.97636" lon="8.66575">
        <ele>1314</ele>
        <time>2021-08-04T11:31:14.782Z</time>
      </trkpt>
      <trkpt lat="46.97636" lon="8.66577">
        <ele>1313</ele>
        <time>2021-08-04T11:31:15.781Z</time>
      </trkpt>
      <trkpt lat="46.97635" lon="8.66578">
        <ele>1313</ele>
        <time>2021-08-04T11:31:16.781Z</time>
      </trkpt>
      <trkpt lat="46.97634" lon="8.6658">
        <ele>1313</ele>
        <time>2021-08-04T11:31:17.781Z</time>
      </trkpt>
      <trkpt lat="46.97633" lon="8.66582">
        <ele>1313</ele>
        <time>2021-08-04T11:31:18.782Z</time>
      </trkpt>
      <trkpt lat="46.97632" lon="8.66583">
        <ele>1312</ele>
        <time>2021-08-04T11:31:19.782Z</time>
      </trkpt>
      <trkpt lat="46.97631" lon="8.66584">
        <ele>1312</ele>
        <time>2021-08-04T11:31:20.782Z</time>
      </trkpt>
      <trkpt lat="46.9763" lon="8.66586">
        <ele>1311</ele>
        <time>2021-08-04T11:31:21.782Z</time>
      </trkpt>
      <trkpt lat="46.97629" lon="8.66588">
        <ele>1311</ele>
        <time>2021-08-04T11:31:22.782Z</time>
      </trkpt>
      <trkpt lat="46.97629" lon="8.66589">
        <ele>1310</ele>
        <time>2021-08-04T11:31:23.782Z</time>
      </trkpt>
      <trkpt lat="46.97629" lon="8.66591">
        <ele>1311</ele>
        <time>2021-08-04T11:31:24.781Z</time>
      </trkpt>
      <trkpt lat="46.97629" lon="8.66593">
        <ele>1311</ele>
        <time>2021-08-04T11:31:25.781Z</time>
      </trkpt>
      <trkpt lat="46.9763" lon="8.66595">
        <ele>1311</ele>
        <time>2021-08-04T11:31:26.782Z</time>
      </trkpt>
      <trkpt lat="46.97631" lon="8.66597">
        <ele>1312</ele>
        <time>2021-08-04T11:31:27.782Z</time>
      </trkpt>
      <trkpt lat="46.97633" lon="8.666">
        <ele>1312</ele>
        <time>2021-08-04T11:31:28.782Z</time>
      </trkpt>
      <trkpt lat="46.97634" lon="8.66603">
        <ele>1312</ele>
        <time>2021-08-04T11:31:29.782Z</time>
      </trkpt>
      <trkpt lat="46.97635" lon="8.66605">
        <ele>1312</ele>
        <time>2021-08-04T11:31:30.782Z</time>
      </trkpt>
      <trkpt lat="46.97637" lon="8.66606">
        <ele>1312</ele>
        <time>2021-08-04T11:31:31.781Z</time>
      </trkpt>
      <trkpt lat="46.97639" lon="8.66607">
        <ele>1312</ele>
        <time>2021-08-04T11:31:32.781Z</time>
      </trkpt>
      <trkpt lat="46.9764" lon="8.66607">
        <ele>1312</ele>
        <time>2021-08-04T11:31:33.782Z</time>
      </trkpt>
      <trkpt lat="46.97642" lon="8.66608">
        <ele>1312</ele>
        <time>2021-08-04T11:31:34.781Z</time>
      </trkpt>
      <trkpt lat="46.97643" lon="8.66608">
        <ele>1312</ele>
        <time>2021-08-04T11:31:35.782Z</time>
      </trkpt>
      <trkpt lat="46.97644" lon="8.66608">
        <ele>1312</ele>
        <time>2021-08-04T11:31:36.782Z</time>
      </trkpt>
      <trkpt lat="46.97645" lon="8.66609">
        <ele>1312</ele>
        <time>2021-08-04T11:31:37.781Z</time>
      </trkpt>
      <trkpt lat="46.97647" lon="8.66608">
        <ele>1311</ele>
        <time>2021-08-04T11:31:38.782Z</time>
      </trkpt>
      <trkpt lat="46.97649" lon="8.66608">
        <ele>1311</ele>
        <time>2021-08-04T11:31:39.781Z</time>
      </trkpt>
      <trkpt lat="46.97651" lon="8.66608">
        <ele>1311</ele>
        <time>2021-08-04T11:31:40.782Z</time>
      </trkpt>
      <trkpt lat="46.97653" lon="8.66609">
        <ele>1311</ele>
        <time>2021-08-04T11:31:41.782Z</time>
      </trkpt>
      <trkpt lat="46.97655" lon="8.66609">
        <ele>1311</ele>
        <time>2021-08-04T11:31:42.782Z</time>
      </trkpt>
      <trkpt lat="46.97657" lon="8.66609">
        <ele>1311</ele>
        <time>2021-08-04T11:31:43.781Z</time>
      </trkpt>
      <trkpt lat="46.97658" lon="8.6661">
        <ele>1311</ele>
        <time>2021-08-04T11:31:44.782Z</time>
      </trkpt>
      <trkpt lat="46.9766" lon="8.6661">
        <ele>1312</ele>
        <time>2021-08-04T11:31:45.782Z</time>
      </trkpt>
      <trkpt lat="46.97661" lon="8.66611">
        <ele>1311</ele>
        <time>2021-08-04T11:31:46.782Z</time>
      </trkpt>
      <trkpt lat="46.97662" lon="8.66611">
        <ele>1311</ele>
        <time>2021-08-04T11:31:47.782Z</time>
      </trkpt>
      <trkpt lat="46.97664" lon="8.66611">
        <ele>1311</ele>
        <time>2021-08-04T11:31:48.782Z</time>
      </trkpt>
      <trkpt lat="46.97665" lon="8.66612">
        <ele>1311</ele>
        <time>2021-08-04T11:31:49.782Z</time>
      </trkpt>
      <trkpt lat="46.97667" lon="8.66612">
        <ele>1311</ele>
        <time>2021-08-04T11:31:50.781Z</time>
      </trkpt>
      <trkpt lat="46.97669" lon="8.66612">
        <ele>1311</ele>
        <time>2021-08-04T11:31:51.782Z</time>
      </trkpt>
      <trkpt lat="46.9767" lon="8.66612">
        <ele>1311</ele>
        <time>2021-08-04T11:31:52.781Z</time>
      </trkpt>
      <trkpt lat="46.97671" lon="8.66612">
        <ele>1311</ele>
        <time>2021-08-04T11:31:53.781Z</time>
      </trkpt>
      <trkpt lat="46.97672" lon="8.66612">
        <ele>1311</ele>
        <time>2021-08-04T11:31:54.782Z</time>
      </trkpt>
      <trkpt lat="46.97673" lon="8.66612">
        <ele>1310</ele>
        <time>2021-08-04T11:31:55.782Z</time>
      </trkpt>
      <trkpt lat="46.97674" lon="8.66613">
        <ele>1310</ele>
        <time>2021-08-04T11:31:56.782Z</time>
      </trkpt>
      <trkpt lat="46.97675" lon="8.66614">
        <ele>1310</ele>
        <time>2021-08-04T11:31:57.781Z</time>
      </trkpt>
      <trkpt lat="46.97676" lon="8.66615">
        <ele>1311</ele>
        <time>2021-08-04T11:31:58.781Z</time>
      </trkpt>
      <trkpt lat="46.97677" lon="8.66617">
        <ele>1311</ele>
        <time>2021-08-04T11:31:59.782Z</time>
      </trkpt>
      <trkpt lat="46.97679" lon="8.66617">
        <ele>1311</ele>
        <time>2021-08-04T11:32:00.781Z</time>
      </trkpt>
      <trkpt lat="46.97681" lon="8.66618">
        <ele>1311</ele>
        <time>2021-08-04T11:32:01.782Z</time>
      </trkpt>
      <trkpt lat="46.97681" lon="8.6662">
        <ele>1311</ele>
        <time>2021-08-04T11:32:02.782Z</time>
      </trkpt>
      <trkpt lat="46.97682" lon="8.66622">
        <ele>1311</ele>
        <time>2021-08-04T11:32:03.782Z</time>
      </trkpt>
      <trkpt lat="46.97683" lon="8.66623">
        <ele>1311</ele>
        <time>2021-08-04T11:32:04.781Z</time>
      </trkpt>
      <trkpt lat="46.97685" lon="8.66623">
        <ele>1311</ele>
        <time>2021-08-04T11:32:05.782Z</time>
      </trkpt>
      <trkpt lat="46.97686" lon="8.66624">
        <ele>1311</ele>
        <time>2021-08-04T11:32:06.781Z</time>
      </trkpt>
      <trkpt lat="46.97688" lon="8.66624">
        <ele>1311</ele>
        <time>2021-08-04T11:32:07.781Z</time>
      </trkpt>
      <trkpt lat="46.97689" lon="8.66624">
        <ele>1311</ele>
        <time>2021-08-04T11:32:08.782Z</time>
      </trkpt>
      <trkpt lat="46.9769" lon="8.66624">
        <ele>1311</ele>
        <time>2021-08-04T11:32:09.781Z</time>
      </trkpt>
      <trkpt lat="46.97691" lon="8.66625">
        <ele>1311</ele>
        <time>2021-08-04T11:32:10.782Z</time>
      </trkpt>
      <trkpt lat="46.97692" lon="8.66625">
        <ele>1310</ele>
        <time>2021-08-04T11:32:11.781Z</time>
      </trkpt>
      <trkpt lat="46.97693" lon="8.66626">
        <ele>1310</ele>
        <time>2021-08-04T11:32:12.781Z</time>
      </trkpt>
      <trkpt lat="46.97694" lon="8.66626">
        <ele>1310</ele>
        <time>2021-08-04T11:32:13.781Z</time>
      </trkpt>
      <trkpt lat="46.97695" lon="8.66627">
        <ele>1310</ele>
        <time>2021-08-04T11:32:14.782Z</time>
      </trkpt>
      <trkpt lat="46.97696" lon="8.66627">
        <ele>1309</ele>
        <time>2021-08-04T11:32:15.782Z</time>
      </trkpt>
      <trkpt lat="46.97697" lon="8.66627">
        <ele>1309</ele>
        <time>2021-08-04T11:32:16.782Z</time>
      </trkpt>
      <trkpt lat="46.97697" lon="8.66628">
        <ele>1309</ele>
        <time>2021-08-04T11:32:17.781Z</time>
      </trkpt>
      <trkpt lat="46.97698" lon="8.66629">
        <ele>1309</ele>
        <time>2021-08-04T11:32:27.891Z</time>
      </trkpt>
      <trkpt lat="46.977" lon="8.6663">
        <ele>1309</ele>
        <time>2021-08-04T11:32:28.891Z</time>
      </trkpt>
      <trkpt lat="46.977" lon="8.6663">
        <ele>1309</ele>
        <time>2021-08-04T11:32:38.788Z</time>
      </trkpt>
      <trkpt lat="46.97702" lon="8.6663">
        <ele>1309</ele>
        <time>2021-08-04T11:32:39.787Z</time>
      </trkpt>
      <trkpt lat="46.97702" lon="8.6663">
        <ele>1310</ele>
        <time>2021-08-04T11:32:40.787Z</time>
      </trkpt>
      <trkpt lat="46.97704" lon="8.66631">
        <ele>1310</ele>
        <time>2021-08-04T11:32:41.787Z</time>
      </trkpt>
      <trkpt lat="46.97704" lon="8.66633">
        <ele>1310</ele>
        <time>2021-08-04T11:32:45.909Z</time>
      </trkpt>
      <trkpt lat="46.97705" lon="8.66634">
        <ele>1310</ele>
        <time>2021-08-04T11:32:46.909Z</time>
      </trkpt>
      <trkpt lat="46.97706" lon="8.66635">
        <ele>1311</ele>
        <time>2021-08-04T11:32:56.793Z</time>
      </trkpt>
      <trkpt lat="46.97707" lon="8.66634">
        <ele>1311</ele>
        <time>2021-08-04T11:32:57.794Z</time>
      </trkpt>
      <trkpt lat="46.97708" lon="8.66634">
        <ele>1311</ele>
        <time>2021-08-04T11:32:58.793Z</time>
      </trkpt>
      <trkpt lat="46.97708" lon="8.66633">
        <ele>1312</ele>
        <time>2021-08-04T11:32:59.793Z</time>
      </trkpt>
      <trkpt lat="46.97707" lon="8.66633">
        <ele>1312</ele>
        <time>2021-08-04T11:33:00.794Z</time>
      </trkpt>
      <trkpt lat="46.97707" lon="8.66633">
        <ele>1312</ele>
        <time>2021-08-04T11:33:01.793Z</time>
      </trkpt>
      <trkpt lat="46.97706" lon="8.66633">
        <ele>1312</ele>
        <time>2021-08-04T11:33:11.905Z</time>
      </trkpt>
      <trkpt lat="46.97706" lon="8.66632">
        <ele>1313</ele>
        <time>2021-08-04T11:33:12.904Z</time>
      </trkpt>
      <trkpt lat="46.97706" lon="8.66632">
        <ele>1313</ele>
        <time>2021-08-04T11:33:13.904Z</time>
      </trkpt>
      <trkpt lat="46.97706" lon="8.66633">
        <ele>1313</ele>
        <time>2021-08-04T11:33:14.905Z</time>
      </trkpt>
      <trkpt lat="46.97706" lon="8.66633">
        <ele>1313</ele>
        <time>2021-08-04T11:33:15.905Z</time>
      </trkpt>
      <trkpt lat="46.97706" lon="8.66634">
        <ele>1313</ele>
        <time>2021-08-04T11:33:16.906Z</time>
      </trkpt>
      <trkpt lat="46.97706" lon="8.66635">
        <ele>1313</ele>
        <time>2021-08-04T11:33:24.022Z</time>
      </trkpt>
      <trkpt lat="46.97705" lon="8.66636">
        <ele>1314</ele>
        <time>2021-08-04T11:33:25.022Z</time>
      </trkpt>
      <trkpt lat="46.97705" lon="8.66635">
        <ele>1314</ele>
        <time>2021-08-04T11:33:27.023Z</time>
      </trkpt>
      <trkpt lat="46.97731" lon="8.66626">
        <ele>1306</ele>
        <time>2021-08-04T11:33:42.015Z</time>
      </trkpt>
      <trkpt lat="46.97731" lon="8.66629">
        <ele>1304</ele>
        <time>2021-08-04T11:33:43.015Z</time>
      </trkpt>
      <trkpt lat="46.97731" lon="8.66629">
        <ele>1303</ele>
        <time>2021-08-04T11:33:44.015Z</time>
      </trkpt>
      <trkpt lat="46.97732" lon="8.66628">
        <ele>1301</ele>
        <time>2021-08-04T11:33:45.016Z</time>
      </trkpt>
      <trkpt lat="46.97732" lon="8.66628">
        <ele>1300</ele>
        <time>2021-08-04T11:33:46.015Z</time>
      </trkpt>
      <trkpt lat="46.97732" lon="8.66631">
        <ele>1300</ele>
        <time>2021-08-04T11:33:47.016Z</time>
      </trkpt>
      <trkpt lat="46.97731" lon="8.66634">
        <ele>1299</ele>
        <time>2021-08-04T11:33:48.015Z</time>
      </trkpt>
      <trkpt lat="46.97732" lon="8.66636">
        <ele>1298</ele>
        <time>2021-08-04T11:33:49.016Z</time>
      </trkpt>
      <trkpt lat="46.97732" lon="8.66639">
        <ele>1298</ele>
        <time>2021-08-04T11:33:50.015Z</time>
      </trkpt>
      <trkpt lat="46.97732" lon="8.66641">
        <ele>1298</ele>
        <time>2021-08-04T11:33:51.015Z</time>
      </trkpt>
      <trkpt lat="46.97732" lon="8.66642">
        <ele>1298</ele>
        <time>2021-08-04T11:33:53.011Z</time>
      </trkpt>
      <trkpt lat="46.97732" lon="8.66642">
        <ele>1298</ele>
        <time>2021-08-04T11:33:54.012Z</time>
      </trkpt>
      <trkpt lat="46.97733" lon="8.66641">
        <ele>1298</ele>
        <time>2021-08-04T11:33:55.011Z</time>
      </trkpt>
      <trkpt lat="46.97734" lon="8.66641">
        <ele>1298</ele>
        <time>2021-08-04T11:33:56.012Z</time>
      </trkpt>
      <trkpt lat="46.97735" lon="8.66643">
        <ele>1299</ele>
        <time>2021-08-04T11:33:57.012Z</time>
      </trkpt>
      <trkpt lat="46.97735" lon="8.66643">
        <ele>1299</ele>
        <time>2021-08-04T11:33:58.011Z</time>
      </trkpt>
      <trkpt lat="46.97734" lon="8.66646">
        <ele>1299</ele>
        <time>2021-08-04T11:33:59.012Z</time>
      </trkpt>
      <trkpt lat="46.97735" lon="8.6665">
        <ele>1300</ele>
        <time>2021-08-04T11:34:00.011Z</time>
      </trkpt>
      <trkpt lat="46.97735" lon="8.66654">
        <ele>1301</ele>
        <time>2021-08-04T11:34:01.012Z</time>
      </trkpt>
      <trkpt lat="46.97734" lon="8.66656">
        <ele>1301</ele>
        <time>2021-08-04T11:34:02.011Z</time>
      </trkpt>
      <trkpt lat="46.97735" lon="8.66656">
        <ele>1302</ele>
        <time>2021-08-04T11:34:03.012Z</time>
      </trkpt>
      <trkpt lat="46.97736" lon="8.66656">
        <ele>1303</ele>
        <time>2021-08-04T11:34:04.012Z</time>
      </trkpt>
      <trkpt lat="46.97736" lon="8.66657">
        <ele>1303</ele>
        <time>2021-08-04T11:34:05.011Z</time>
      </trkpt>
      <trkpt lat="46.97737" lon="8.66659">
        <ele>1304</ele>
        <time>2021-08-04T11:34:06.011Z</time>
      </trkpt>
      <trkpt lat="46.97738" lon="8.66661">
        <ele>1304</ele>
        <time>2021-08-04T11:34:07.012Z</time>
      </trkpt>
      <trkpt lat="46.97738" lon="8.66662">
        <ele>1305</ele>
        <time>2021-08-04T11:34:08.012Z</time>
      </trkpt>
      <trkpt lat="46.97739" lon="8.66663">
        <ele>1305</ele>
        <time>2021-08-04T11:34:09.012Z</time>
      </trkpt>
      <trkpt lat="46.9774" lon="8.66663">
        <ele>1306</ele>
        <time>2021-08-04T11:34:10.011Z</time>
      </trkpt>
      <trkpt lat="46.97741" lon="8.66663">
        <ele>1306</ele>
        <time>2021-08-04T11:34:11.012Z</time>
      </trkpt>
      <trkpt lat="46.97742" lon="8.66664">
        <ele>1306</ele>
        <time>2021-08-04T11:34:12.011Z</time>
      </trkpt>
      <trkpt lat="46.97742" lon="8.66666">
        <ele>1307</ele>
        <time>2021-08-04T11:34:13.012Z</time>
      </trkpt>
      <trkpt lat="46.97742" lon="8.66666">
        <ele>1307</ele>
        <time>2021-08-04T11:34:14.012Z</time>
      </trkpt>
      <trkpt lat="46.97742" lon="8.66666">
        <ele>1307</ele>
        <time>2021-08-04T11:34:15.012Z</time>
      </trkpt>
      <trkpt lat="46.97741" lon="8.66667">
        <ele>1308</ele>
        <time>2021-08-04T11:34:16.012Z</time>
      </trkpt>
      <trkpt lat="46.97741" lon="8.66667">
        <ele>1310</ele>
        <time>2021-08-04T11:34:17.011Z</time>
      </trkpt>
      <trkpt lat="46.97741" lon="8.66667">
        <ele>1311</ele>
        <time>2021-08-04T11:34:18.012Z</time>
      </trkpt>
      <trkpt lat="46.97741" lon="8.66667">
        <ele>1312</ele>
        <time>2021-08-04T11:34:19.011Z</time>
      </trkpt>
      <trkpt lat="46.97742" lon="8.66668">
        <ele>1313</ele>
        <time>2021-08-04T11:34:20.011Z</time>
      </trkpt>
      <trkpt lat="46.97742" lon="8.6667">
        <ele>1313</ele>
        <time>2021-08-04T11:34:21.011Z</time>
      </trkpt>
      <trkpt lat="46.97742" lon="8.66671">
        <ele>1314</ele>
        <time>2021-08-04T11:34:22.011Z</time>
      </trkpt>
      <trkpt lat="46.97742" lon="8.66672">
        <ele>1314</ele>
        <time>2021-08-04T11:34:23.012Z</time>
      </trkpt>
      <trkpt lat="46.97742" lon="8.66673">
        <ele>1315</ele>
        <time>2021-08-04T11:34:24.011Z</time>
      </trkpt>
      <trkpt lat="46.97742" lon="8.66674">
        <ele>1315</ele>
        <time>2021-08-04T11:34:25.011Z</time>
      </trkpt>
      <trkpt lat="46.97742" lon="8.66675">
        <ele>1316</ele>
        <time>2021-08-04T11:34:26.012Z</time>
      </trkpt>
      <trkpt lat="46.97742" lon="8.66677">
        <ele>1317</ele>
        <time>2021-08-04T11:34:27.012Z</time>
      </trkpt>
      <trkpt lat="46.97742" lon="8.66677">
        <ele>1317</ele>
        <time>2021-08-04T11:34:28.012Z</time>
      </trkpt>
      <trkpt lat="46.97741" lon="8.66679">
        <ele>1318</ele>
        <time>2021-08-04T11:34:29.012Z</time>
      </trkpt>
      <trkpt lat="46.97741" lon="8.6668">
        <ele>1318</ele>
        <time>2021-08-04T11:34:30.011Z</time>
      </trkpt>
      <trkpt lat="46.9774" lon="8.66681">
        <ele>1319</ele>
        <time>2021-08-04T11:34:31.012Z</time>
      </trkpt>
      <trkpt lat="46.97739" lon="8.66681">
        <ele>1320</ele>
        <time>2021-08-04T11:34:32.012Z</time>
      </trkpt>
      <trkpt lat="46.97739" lon="8.66681">
        <ele>1320</ele>
        <time>2021-08-04T11:34:33.012Z</time>
      </trkpt>
      <trkpt lat="46.97739" lon="8.66682">
        <ele>1321</ele>
        <time>2021-08-04T11:34:34.012Z</time>
      </trkpt>
      <trkpt lat="46.97738" lon="8.66682">
        <ele>1321</ele>
        <time>2021-08-04T11:34:35.012Z</time>
      </trkpt>
      <trkpt lat="46.97739" lon="8.66683">
        <ele>1321</ele>
        <time>2021-08-04T11:34:36.012Z</time>
      </trkpt>
      <trkpt lat="46.97739" lon="8.66684">
        <ele>1321</ele>
        <time>2021-08-04T11:34:37.011Z</time>
      </trkpt>
      <trkpt lat="46.97739" lon="8.66686">
        <ele>1320</ele>
        <time>2021-08-04T11:34:38.011Z</time>
      </trkpt>
      <trkpt lat="46.97739" lon="8.66687">
        <ele>1319</ele>
        <time>2021-08-04T11:34:39.011Z</time>
      </trkpt>
      <trkpt lat="46.97739" lon="8.66688">
        <ele>1319</ele>
        <time>2021-08-04T11:34:40.011Z</time>
      </trkpt>
      <trkpt lat="46.97739" lon="8.66689">
        <ele>1318</ele>
        <time>2021-08-04T11:34:41.011Z</time>
      </trkpt>
      <trkpt lat="46.97739" lon="8.6669">
        <ele>1317</ele>
        <time>2021-08-04T11:34:42.011Z</time>
      </trkpt>
      <trkpt lat="46.97739" lon="8.66691">
        <ele>1317</ele>
        <time>2021-08-04T11:34:43.011Z</time>
      </trkpt>
      <trkpt lat="46.97738" lon="8.66692">
        <ele>1316</ele>
        <time>2021-08-04T11:34:44.011Z</time>
      </trkpt>
      <trkpt lat="46.97738" lon="8.66693">
        <ele>1316</ele>
        <time>2021-08-04T11:34:45.011Z</time>
      </trkpt>
      <trkpt lat="46.97738" lon="8.66694">
        <ele>1315</ele>
        <time>2021-08-04T11:34:46.011Z</time>
      </trkpt>
      <trkpt lat="46.97738" lon="8.66695">
        <ele>1315</ele>
        <time>2021-08-04T11:34:47.011Z</time>
      </trkpt>
      <trkpt lat="46.97738" lon="8.66697">
        <ele>1315</ele>
        <time>2021-08-04T11:34:48.011Z</time>
      </trkpt>
      <trkpt lat="46.97739" lon="8.66699">
        <ele>1314</ele>
        <time>2021-08-04T11:34:49.012Z</time>
      </trkpt>
      <trkpt lat="46.97739" lon="8.667">
        <ele>1314</ele>
        <time>2021-08-04T11:34:50.011Z</time>
      </trkpt>
      <trkpt lat="46.97739" lon="8.66702">
        <ele>1314</ele>
        <time>2021-08-04T11:34:51.012Z</time>
      </trkpt>
      <trkpt lat="46.97738" lon="8.66703">
        <ele>1313</ele>
        <time>2021-08-04T11:34:52.011Z</time>
      </trkpt>
      <trkpt lat="46.97738" lon="8.66704">
        <ele>1313</ele>
        <time>2021-08-04T11:34:53.011Z</time>
      </trkpt>
      <trkpt lat="46.97738" lon="8.66705">
        <ele>1312</ele>
        <time>2021-08-04T11:34:54.011Z</time>
      </trkpt>
      <trkpt lat="46.97738" lon="8.66706">
        <ele>1312</ele>
        <time>2021-08-04T11:34:55.011Z</time>
      </trkpt>
      <trkpt lat="46.97738" lon="8.66706">
        <ele>1312</ele>
        <time>2021-08-04T11:34:56.012Z</time>
      </trkpt>
      <trkpt lat="46.97739" lon="8.66708">
        <ele>1310</ele>
        <time>2021-08-04T11:34:57.011Z</time>
      </trkpt>
      <trkpt lat="46.9774" lon="8.66709">
        <ele>1309</ele>
        <time>2021-08-04T11:34:58.011Z</time>
      </trkpt>
      <trkpt lat="46.9774" lon="8.66709">
        <ele>1309</ele>
        <time>2021-08-04T11:34:59.011Z</time>
      </trkpt>
      <trkpt lat="46.97741" lon="8.66713">
        <ele>1311</ele>
        <time>2021-08-04T11:35:00.011Z</time>
      </trkpt>
      <trkpt lat="46.97739" lon="8.66711">
        <ele>1309</ele>
        <time>2021-08-04T11:35:01.011Z</time>
      </trkpt>
      <trkpt lat="46.97739" lon="8.66711">
        <ele>1309</ele>
        <time>2021-08-04T11:35:02.011Z</time>
      </trkpt>
      <trkpt lat="46.97739" lon="8.66712">
        <ele>1309</ele>
        <time>2021-08-04T11:35:03.012Z</time>
      </trkpt>
      <trkpt lat="46.97739" lon="8.66713">
        <ele>1309</ele>
        <time>2021-08-04T11:35:04.011Z</time>
      </trkpt>
      <trkpt lat="46.97739" lon="8.66715">
        <ele>1308</ele>
        <time>2021-08-04T11:35:05.012Z</time>
      </trkpt>
      <trkpt lat="46.97739" lon="8.66717">
        <ele>1308</ele>
        <time>2021-08-04T11:35:06.011Z</time>
      </trkpt>
      <trkpt lat="46.97739" lon="8.66719">
        <ele>1307</ele>
        <time>2021-08-04T11:35:07.012Z</time>
      </trkpt>
      <trkpt lat="46.9774" lon="8.6672">
        <ele>1307</ele>
        <time>2021-08-04T11:35:08.012Z</time>
      </trkpt>
      <trkpt lat="46.9774" lon="8.66722">
        <ele>1306</ele>
        <time>2021-08-04T11:35:09.012Z</time>
      </trkpt>
      <trkpt lat="46.9774" lon="8.66724">
        <ele>1306</ele>
        <time>2021-08-04T11:35:10.012Z</time>
      </trkpt>
      <trkpt lat="46.9774" lon="8.66727">
        <ele>1305</ele>
        <time>2021-08-04T11:35:11.012Z</time>
      </trkpt>
      <trkpt lat="46.97741" lon="8.66729">
        <ele>1305</ele>
        <time>2021-08-04T11:35:12.012Z</time>
      </trkpt>
      <trkpt lat="46.97741" lon="8.66731">
        <ele>1305</ele>
        <time>2021-08-04T11:35:13.012Z</time>
      </trkpt>
      <trkpt lat="46.97741" lon="8.66733">
        <ele>1305</ele>
        <time>2021-08-04T11:35:14.012Z</time>
      </trkpt>
      <trkpt lat="46.97741" lon="8.66735">
        <ele>1305</ele>
        <time>2021-08-04T11:35:15.011Z</time>
      </trkpt>
      <trkpt lat="46.97741" lon="8.66737">
        <ele>1305</ele>
        <time>2021-08-04T11:35:16.012Z</time>
      </trkpt>
      <trkpt lat="46.97742" lon="8.66738">
        <ele>1305</ele>
        <time>2021-08-04T11:35:17.011Z</time>
      </trkpt>
      <trkpt lat="46.97743" lon="8.66739">
        <ele>1305</ele>
        <time>2021-08-04T11:35:18.011Z</time>
      </trkpt>
      <trkpt lat="46.97743" lon="8.6674">
        <ele>1305</ele>
        <time>2021-08-04T11:35:19.012Z</time>
      </trkpt>
      <trkpt lat="46.97744" lon="8.66742">
        <ele>1305</ele>
        <time>2021-08-04T11:35:20.012Z</time>
      </trkpt>
      <trkpt lat="46.97745" lon="8.66743">
        <ele>1305</ele>
        <time>2021-08-04T11:35:21.012Z</time>
      </trkpt>
      <trkpt lat="46.97746" lon="8.66743">
        <ele>1306</ele>
        <time>2021-08-04T11:35:22.012Z</time>
      </trkpt>
      <trkpt lat="46.97747" lon="8.66744">
        <ele>1306</ele>
        <time>2021-08-04T11:35:23.012Z</time>
      </trkpt>
      <trkpt lat="46.97748" lon="8.66745">
        <ele>1306</ele>
        <time>2021-08-04T11:35:24.011Z</time>
      </trkpt>
      <trkpt lat="46.9775" lon="8.66745">
        <ele>1306</ele>
        <time>2021-08-04T11:35:25.012Z</time>
      </trkpt>
      <trkpt lat="46.97751" lon="8.66745">
        <ele>1307</ele>
        <time>2021-08-04T11:35:26.012Z</time>
      </trkpt>
      <trkpt lat="46.97753" lon="8.66746">
        <ele>1307</ele>
        <time>2021-08-04T11:35:27.011Z</time>
      </trkpt>
      <trkpt lat="46.97755" lon="8.66747">
        <ele>1307</ele>
        <time>2021-08-04T11:35:28.012Z</time>
      </trkpt>
      <trkpt lat="46.97756" lon="8.66748">
        <ele>1307</ele>
        <time>2021-08-04T11:35:29.011Z</time>
      </trkpt>
      <trkpt lat="46.97757" lon="8.66749">
        <ele>1308</ele>
        <time>2021-08-04T11:35:30.012Z</time>
      </trkpt>
      <trkpt lat="46.97758" lon="8.66749">
        <ele>1308</ele>
        <time>2021-08-04T11:35:31.012Z</time>
      </trkpt>
      <trkpt lat="46.97759" lon="8.66749">
        <ele>1308</ele>
        <time>2021-08-04T11:35:35.161Z</time>
      </trkpt>
      <trkpt lat="46.9776" lon="8.66748">
        <ele>1308</ele>
        <time>2021-08-04T11:35:37.037Z</time>
      </trkpt>
      <trkpt lat="46.97761" lon="8.66748">
        <ele>1309</ele>
        <time>2021-08-04T11:35:38.037Z</time>
      </trkpt>
      <trkpt lat="46.97762" lon="8.66747">
        <ele>1309</ele>
        <time>2021-08-04T11:35:39.037Z</time>
      </trkpt>
      <trkpt lat="46.97764" lon="8.66747">
        <ele>1310</ele>
        <time>2021-08-04T11:35:53.152Z</time>
      </trkpt>
      <trkpt lat="46.97765" lon="8.66746">
        <ele>1311</ele>
        <time>2021-08-04T11:35:54.152Z</time>
      </trkpt>
      <trkpt lat="46.97766" lon="8.66745">
        <ele>1311</ele>
        <time>2021-08-04T11:35:56.014Z</time>
      </trkpt>
      <trkpt lat="46.97767" lon="8.66744">
        <ele>1312</ele>
        <time>2021-08-04T11:36:03.994Z</time>
      </trkpt>
      <trkpt lat="46.97768" lon="8.66744">
        <ele>1313</ele>
        <time>2021-08-04T11:36:04.993Z</time>
      </trkpt>
      <trkpt lat="46.97768" lon="8.66744">
        <ele>1313</ele>
        <time>2021-08-04T11:36:08.946Z</time>
      </trkpt>
      <trkpt lat="46.97769" lon="8.66744">
        <ele>1314</ele>
        <time>2021-08-04T11:36:09.946Z</time>
      </trkpt>
      <trkpt lat="46.97769" lon="8.66744">
        <ele>1315</ele>
        <time>2021-08-04T11:36:10.945Z</time>
      </trkpt>
      <trkpt lat="46.97769" lon="8.66744">
        <ele>1316</ele>
        <time>2021-08-04T11:36:11.946Z</time>
      </trkpt>
      <trkpt lat="46.97769" lon="8.66744">
        <ele>1317</ele>
        <time>2021-08-04T11:36:12.946Z</time>
      </trkpt>
      <trkpt lat="46.97769" lon="8.66744">
        <ele>1318</ele>
        <time>2021-08-04T11:36:13.945Z</time>
      </trkpt>
      <trkpt lat="46.97769" lon="8.66743">
        <ele>1319</ele>
        <time>2021-08-04T11:36:14.946Z</time>
      </trkpt>
      <trkpt lat="46.97769" lon="8.66742">
        <ele>1320</ele>
        <time>2021-08-04T11:36:15.946Z</time>
      </trkpt>
      <trkpt lat="46.97769" lon="8.66741">
        <ele>1320</ele>
        <time>2021-08-04T11:36:21.030Z</time>
      </trkpt>
      <trkpt lat="46.97769" lon="8.6674">
        <ele>1321</ele>
        <time>2021-08-04T11:36:22.029Z</time>
      </trkpt>
      <trkpt lat="46.97769" lon="8.66739">
        <ele>1322</ele>
        <time>2021-08-04T11:36:23.029Z</time>
      </trkpt>
      <trkpt lat="46.9777" lon="8.66738">
        <ele>1322</ele>
        <time>2021-08-04T11:36:24.030Z</time>
      </trkpt>
      <trkpt lat="46.9777" lon="8.66737">
        <ele>1323</ele>
        <time>2021-08-04T11:36:25.030Z</time>
      </trkpt>
      <trkpt lat="46.97771" lon="8.66736">
        <ele>1323</ele>
        <time>2021-08-04T11:36:26.030Z</time>
      </trkpt>
      <trkpt lat="46.97772" lon="8.66735">
        <ele>1324</ele>
        <time>2021-08-04T11:36:27.030Z</time>
      </trkpt>
      <trkpt lat="46.97772" lon="8.66735">
        <ele>1324</ele>
        <time>2021-08-04T11:36:28.029Z</time>
      </trkpt>
      <trkpt lat="46.97772" lon="8.66735">
        <ele>1325</ele>
        <time>2021-08-04T11:36:29.029Z</time>
      </trkpt>
      <trkpt lat="46.97773" lon="8.66735">
        <ele>1325</ele>
        <time>2021-08-04T11:36:30.030Z</time>
      </trkpt>
      <trkpt lat="46.97774" lon="8.66734">
        <ele>1325</ele>
        <time>2021-08-04T11:36:31.030Z</time>
      </trkpt>
      <trkpt lat="46.97775" lon="8.66733">
        <ele>1325</ele>
        <time>2021-08-04T11:36:32.030Z</time>
      </trkpt>
      <trkpt lat="46.97776" lon="8.66732">
        <ele>1325</ele>
        <time>2021-08-04T11:36:33.030Z</time>
      </trkpt>
      <trkpt lat="46.97777" lon="8.66732">
        <ele>1325</ele>
        <time>2021-08-04T11:36:34.029Z</time>
      </trkpt>
      <trkpt lat="46.97778" lon="8.66732">
        <ele>1324</ele>
        <time>2021-08-04T11:36:35.030Z</time>
      </trkpt>
      <trkpt lat="46.97779" lon="8.66732">
        <ele>1324</ele>
        <time>2021-08-04T11:36:36.030Z</time>
      </trkpt>
      <trkpt lat="46.9778" lon="8.66732">
        <ele>1324</ele>
        <time>2021-08-04T11:36:37.029Z</time>
      </trkpt>
      <trkpt lat="46.97781" lon="8.66733">
        <ele>1323</ele>
        <time>2021-08-04T11:36:38.030Z</time>
      </trkpt>
      <trkpt lat="46.97782" lon="8.66733">
        <ele>1323</ele>
        <time>2021-08-04T11:36:39.030Z</time>
      </trkpt>
      <trkpt lat="46.97783" lon="8.66734">
        <ele>1323</ele>
        <time>2021-08-04T11:36:40.030Z</time>
      </trkpt>
      <trkpt lat="46.97784" lon="8.66734">
        <ele>1322</ele>
        <time>2021-08-04T11:36:41.030Z</time>
      </trkpt>
      <trkpt lat="46.97785" lon="8.66735">
        <ele>1322</ele>
        <time>2021-08-04T11:36:42.030Z</time>
      </trkpt>
      <trkpt lat="46.97786" lon="8.66735">
        <ele>1321</ele>
        <time>2021-08-04T11:36:43.030Z</time>
      </trkpt>
      <trkpt lat="46.97786" lon="8.66735">
        <ele>1320</ele>
        <time>2021-08-04T11:36:44.030Z</time>
      </trkpt>
      <trkpt lat="46.97787" lon="8.66735">
        <ele>1320</ele>
        <time>2021-08-04T11:36:45.030Z</time>
      </trkpt>
      <trkpt lat="46.97787" lon="8.66735">
        <ele>1319</ele>
        <time>2021-08-04T11:36:46.030Z</time>
      </trkpt>
      <trkpt lat="46.97788" lon="8.66735">
        <ele>1319</ele>
        <time>2021-08-04T11:36:47.030Z</time>
      </trkpt>
      <trkpt lat="46.97789" lon="8.66735">
        <ele>1318</ele>
        <time>2021-08-04T11:36:48.031Z</time>
      </trkpt>
      <trkpt lat="46.9779" lon="8.66735">
        <ele>1318</ele>
        <time>2021-08-04T11:36:49.030Z</time>
      </trkpt>
      <trkpt lat="46.9779" lon="8.66737">
        <ele>1318</ele>
        <time>2021-08-04T11:36:50.031Z</time>
      </trkpt>
      <trkpt lat="46.97791" lon="8.66737">
        <ele>1318</ele>
        <time>2021-08-04T11:36:51.030Z</time>
      </trkpt>
      <trkpt lat="46.97791" lon="8.66738">
        <ele>1317</ele>
        <time>2021-08-04T11:36:52.030Z</time>
      </trkpt>
      <trkpt lat="46.97792" lon="8.66738">
        <ele>1317</ele>
        <time>2021-08-04T11:36:53.030Z</time>
      </trkpt>
      <trkpt lat="46.97793" lon="8.66739">
        <ele>1317</ele>
        <time>2021-08-04T11:36:54.030Z</time>
      </trkpt>
      <trkpt lat="46.97794" lon="8.66739">
        <ele>1316</ele>
        <time>2021-08-04T11:36:55.030Z</time>
      </trkpt>
      <trkpt lat="46.97795" lon="8.66739">
        <ele>1316</ele>
        <time>2021-08-04T11:36:56.030Z</time>
      </trkpt>
      <trkpt lat="46.97795" lon="8.66739">
        <ele>1315</ele>
        <time>2021-08-04T11:36:57.030Z</time>
      </trkpt>
      <trkpt lat="46.97795" lon="8.66739">
        <ele>1315</ele>
        <time>2021-08-04T11:36:58.030Z</time>
      </trkpt>
      <trkpt lat="46.97795" lon="8.66738">
        <ele>1314</ele>
        <time>2021-08-04T11:36:59.030Z</time>
      </trkpt>
      <trkpt lat="46.97795" lon="8.66737">
        <ele>1313</ele>
        <time>2021-08-04T11:37:00.031Z</time>
      </trkpt>
      <trkpt lat="46.97795" lon="8.66737">
        <ele>1312</ele>
        <time>2021-08-04T11:37:01.031Z</time>
      </trkpt>
      <trkpt lat="46.97795" lon="8.66737">
        <ele>1312</ele>
        <time>2021-08-04T11:37:02.031Z</time>
      </trkpt>
      <trkpt lat="46.97795" lon="8.66733">
        <ele>1309</ele>
        <time>2021-08-04T11:37:03.032Z</time>
      </trkpt>
      <trkpt lat="46.97796" lon="8.66732">
        <ele>1308</ele>
        <time>2021-08-04T11:37:04.031Z</time>
      </trkpt>
      <trkpt lat="46.97796" lon="8.6673">
        <ele>1308</ele>
        <time>2021-08-04T11:37:05.031Z</time>
      </trkpt>
      <trkpt lat="46.97796" lon="8.66729">
        <ele>1307</ele>
        <time>2021-08-04T11:37:06.032Z</time>
      </trkpt>
      <trkpt lat="46.97796" lon="8.66726">
        <ele>1307</ele>
        <time>2021-08-04T11:37:07.031Z</time>
      </trkpt>
      <trkpt lat="46.97795" lon="8.66722">
        <ele>1306</ele>
        <time>2021-08-04T11:37:08.031Z</time>
      </trkpt>
      <trkpt lat="46.97796" lon="8.6672">
        <ele>1306</ele>
        <time>2021-08-04T11:37:09.031Z</time>
      </trkpt>
      <trkpt lat="46.97795" lon="8.66718">
        <ele>1305</ele>
        <time>2021-08-04T11:37:10.031Z</time>
      </trkpt>
      <trkpt lat="46.97795" lon="8.66719">
        <ele>1305</ele>
        <time>2021-08-04T11:37:11.032Z</time>
      </trkpt>
      <trkpt lat="46.97795" lon="8.66719">
        <ele>1304</ele>
        <time>2021-08-04T11:37:12.032Z</time>
      </trkpt>
      <trkpt lat="46.97795" lon="8.66719">
        <ele>1304</ele>
        <time>2021-08-04T11:37:13.031Z</time>
      </trkpt>
      <trkpt lat="46.97795" lon="8.6672">
        <ele>1303</ele>
        <time>2021-08-04T11:37:14.031Z</time>
      </trkpt>
      <trkpt lat="46.97799" lon="8.66721">
        <ele>1296</ele>
        <time>2021-08-04T11:37:15.032Z</time>
      </trkpt>
      <trkpt lat="46.97799" lon="8.66717">
        <ele>1295</ele>
        <time>2021-08-04T11:37:16.031Z</time>
      </trkpt>
      <trkpt lat="46.97799" lon="8.66713">
        <ele>1295</ele>
        <time>2021-08-04T11:37:17.031Z</time>
      </trkpt>
      <trkpt lat="46.97799" lon="8.6671">
        <ele>1294</ele>
        <time>2021-08-04T11:37:18.031Z</time>
      </trkpt>
      <trkpt lat="46.97799" lon="8.66706">
        <ele>1294</ele>
        <time>2021-08-04T11:37:19.031Z</time>
      </trkpt>
      <trkpt lat="46.978" lon="8.66704">
        <ele>1293</ele>
        <time>2021-08-04T11:37:20.031Z</time>
      </trkpt>
      <trkpt lat="46.978" lon="8.66712">
        <ele>1293</ele>
        <time>2021-08-04T11:37:21.031Z</time>
      </trkpt>
      <trkpt lat="46.97801" lon="8.66716">
        <ele>1293</ele>
        <time>2021-08-04T11:37:22.031Z</time>
      </trkpt>
      <trkpt lat="46.97801" lon="8.66718">
        <ele>1292</ele>
        <time>2021-08-04T11:37:23.031Z</time>
      </trkpt>
      <trkpt lat="46.97801" lon="8.66718">
        <ele>1292</ele>
        <time>2021-08-04T11:37:24.031Z</time>
      </trkpt>
      <trkpt lat="46.97801" lon="8.66718">
        <ele>1292</ele>
        <time>2021-08-04T11:37:25.031Z</time>
      </trkpt>
      <trkpt lat="46.97801" lon="8.66717">
        <ele>1292</ele>
        <time>2021-08-04T11:37:26.032Z</time>
      </trkpt>
      <trkpt lat="46.97801" lon="8.66716">
        <ele>1292</ele>
        <time>2021-08-04T11:37:27.032Z</time>
      </trkpt>
      <trkpt lat="46.97802" lon="8.66716">
        <ele>1292</ele>
        <time>2021-08-04T11:37:28.032Z</time>
      </trkpt>
      <trkpt lat="46.97802" lon="8.66715">
        <ele>1292</ele>
        <time>2021-08-04T11:37:29.031Z</time>
      </trkpt>
      <trkpt lat="46.97802" lon="8.66715">
        <ele>1291</ele>
        <time>2021-08-04T11:37:30.032Z</time>
      </trkpt>
      <trkpt lat="46.97802" lon="8.66715">
        <ele>1291</ele>
        <time>2021-08-04T11:37:31.031Z</time>
      </trkpt>
      <trkpt lat="46.97803" lon="8.66717">
        <ele>1291</ele>
        <time>2021-08-04T11:37:32.032Z</time>
      </trkpt>
      <trkpt lat="46.97803" lon="8.66719">
        <ele>1291</ele>
        <time>2021-08-04T11:37:33.032Z</time>
      </trkpt>
      <trkpt lat="46.97804" lon="8.6672">
        <ele>1291</ele>
        <time>2021-08-04T11:37:34.031Z</time>
      </trkpt>
      <trkpt lat="46.97803" lon="8.66719">
        <ele>1291</ele>
        <time>2021-08-04T11:37:35.031Z</time>
      </trkpt>
      <trkpt lat="46.97802" lon="8.66718">
        <ele>1291</ele>
        <time>2021-08-04T11:37:36.031Z</time>
      </trkpt>
      <trkpt lat="46.97801" lon="8.66716">
        <ele>1291</ele>
        <time>2021-08-04T11:37:37.032Z</time>
      </trkpt>
      <trkpt lat="46.97801" lon="8.66719">
        <ele>1291</ele>
        <time>2021-08-04T11:37:38.031Z</time>
      </trkpt>
      <trkpt lat="46.978" lon="8.66718">
        <ele>1291</ele>
        <time>2021-08-04T11:37:39.032Z</time>
      </trkpt>
      <trkpt lat="46.978" lon="8.66716">
        <ele>1291</ele>
        <time>2021-08-04T11:37:40.032Z</time>
      </trkpt>
      <trkpt lat="46.978" lon="8.66714">
        <ele>1291</ele>
        <time>2021-08-04T11:37:41.031Z</time>
      </trkpt>
      <trkpt lat="46.978" lon="8.66714">
        <ele>1291</ele>
        <time>2021-08-04T11:37:42.031Z</time>
      </trkpt>
      <trkpt lat="46.978" lon="8.66713">
        <ele>1291</ele>
        <time>2021-08-04T11:37:43.031Z</time>
      </trkpt>
      <trkpt lat="46.978" lon="8.66713">
        <ele>1291</ele>
        <time>2021-08-04T11:37:44.032Z</time>
      </trkpt>
      <trkpt lat="46.97801" lon="8.66713">
        <ele>1291</ele>
        <time>2021-08-04T11:37:45.032Z</time>
      </trkpt>
      <trkpt lat="46.97801" lon="8.66713">
        <ele>1291</ele>
        <time>2021-08-04T11:37:46.031Z</time>
      </trkpt>
      <trkpt lat="46.97802" lon="8.66712">
        <ele>1291</ele>
        <time>2021-08-04T11:37:47.032Z</time>
      </trkpt>
      <trkpt lat="46.97802" lon="8.66712">
        <ele>1291</ele>
        <time>2021-08-04T11:37:48.031Z</time>
      </trkpt>
      <trkpt lat="46.97803" lon="8.66712">
        <ele>1291</ele>
        <time>2021-08-04T11:37:49.032Z</time>
      </trkpt>
      <trkpt lat="46.97804" lon="8.66712">
        <ele>1291</ele>
        <time>2021-08-04T11:37:50.031Z</time>
      </trkpt>
      <trkpt lat="46.97806" lon="8.66714">
        <ele>1291</ele>
        <time>2021-08-04T11:37:51.031Z</time>
      </trkpt>
      <trkpt lat="46.97808" lon="8.66715">
        <ele>1291</ele>
        <time>2021-08-04T11:37:52.032Z</time>
      </trkpt>
      <trkpt lat="46.9781" lon="8.66716">
        <ele>1291</ele>
        <time>2021-08-04T11:37:53.032Z</time>
      </trkpt>
      <trkpt lat="46.97813" lon="8.66717">
        <ele>1291</ele>
        <time>2021-08-04T11:37:56.013Z</time>
      </trkpt>
      <trkpt lat="46.97815" lon="8.66719">
        <ele>1291</ele>
        <time>2021-08-04T11:37:57.922Z</time>
      </trkpt>
      <trkpt lat="46.97815" lon="8.66719">
        <ele>1291</ele>
        <time>2021-08-04T11:37:58.922Z</time>
      </trkpt>
      <trkpt lat="46.97814" lon="8.66719">
        <ele>1291</ele>
        <time>2021-08-04T11:37:59.923Z</time>
      </trkpt>
      <trkpt lat="46.97814" lon="8.66717">
        <ele>1292</ele>
        <time>2021-08-04T11:38:00.923Z</time>
      </trkpt>
      <trkpt lat="46.97814" lon="8.66714">
        <ele>1292</ele>
        <time>2021-08-04T11:38:01.923Z</time>
      </trkpt>
      <trkpt lat="46.97814" lon="8.66711">
        <ele>1292</ele>
        <time>2021-08-04T11:38:02.922Z</time>
      </trkpt>
      <trkpt lat="46.97814" lon="8.66708">
        <ele>1292</ele>
        <time>2021-08-04T11:38:03.923Z</time>
      </trkpt>
      <trkpt lat="46.97814" lon="8.66704">
        <ele>1292</ele>
        <time>2021-08-04T11:38:04.923Z</time>
      </trkpt>
      <trkpt lat="46.97815" lon="8.66701">
        <ele>1292</ele>
        <time>2021-08-04T11:38:05.923Z</time>
      </trkpt>
      <trkpt lat="46.97815" lon="8.66698">
        <ele>1293</ele>
        <time>2021-08-04T11:38:06.923Z</time>
      </trkpt>
      <trkpt lat="46.97816" lon="8.66695">
        <ele>1293</ele>
        <time>2021-08-04T11:38:07.922Z</time>
      </trkpt>
      <trkpt lat="46.97816" lon="8.66691">
        <ele>1293</ele>
        <time>2021-08-04T11:38:08.922Z</time>
      </trkpt>
      <trkpt lat="46.97817" lon="8.66686">
        <ele>1293</ele>
        <time>2021-08-04T11:38:09.923Z</time>
      </trkpt>
      <trkpt lat="46.97816" lon="8.66679">
        <ele>1293</ele>
        <time>2021-08-04T11:38:10.922Z</time>
      </trkpt>
      <trkpt lat="46.97816" lon="8.66672">
        <ele>1293</ele>
        <time>2021-08-04T11:38:11.923Z</time>
      </trkpt>
      <trkpt lat="46.97815" lon="8.66665">
        <ele>1293</ele>
        <time>2021-08-04T11:38:12.923Z</time>
      </trkpt>
      <trkpt lat="46.97816" lon="8.66662">
        <ele>1293</ele>
        <time>2021-08-04T11:38:13.923Z</time>
      </trkpt>
      <trkpt lat="46.97816" lon="8.66663">
        <ele>1292</ele>
        <time>2021-08-04T11:38:14.922Z</time>
      </trkpt>
      <trkpt lat="46.97817" lon="8.66664">
        <ele>1292</ele>
        <time>2021-08-04T11:38:15.922Z</time>
      </trkpt>
      <trkpt lat="46.97817" lon="8.66666">
        <ele>1292</ele>
        <time>2021-08-04T11:38:16.923Z</time>
      </trkpt>
      <trkpt lat="46.97817" lon="8.66667">
        <ele>1292</ele>
        <time>2021-08-04T11:38:17.923Z</time>
      </trkpt>
      <trkpt lat="46.97817" lon="8.66667">
        <ele>1292</ele>
        <time>2021-08-04T11:38:18.923Z</time>
      </trkpt>
      <trkpt lat="46.97817" lon="8.66667">
        <ele>1291</ele>
        <time>2021-08-04T11:38:19.923Z</time>
      </trkpt>
      <trkpt lat="46.97817" lon="8.66667">
        <ele>1291</ele>
        <time>2021-08-04T11:38:20.922Z</time>
      </trkpt>
      <trkpt lat="46.97816" lon="8.66669">
        <ele>1290</ele>
        <time>2021-08-04T11:38:21.923Z</time>
      </trkpt>
      <trkpt lat="46.97816" lon="8.6667">
        <ele>1290</ele>
        <time>2021-08-04T11:38:22.922Z</time>
      </trkpt>
      <trkpt lat="46.97815" lon="8.66671">
        <ele>1289</ele>
        <time>2021-08-04T11:38:23.922Z</time>
      </trkpt>
      <trkpt lat="46.97815" lon="8.66672">
        <ele>1288</ele>
        <time>2021-08-04T11:38:24.922Z</time>
      </trkpt>
      <trkpt lat="46.97814" lon="8.66675">
        <ele>1287</ele>
        <time>2021-08-04T11:38:25.923Z</time>
      </trkpt>
      <trkpt lat="46.97813" lon="8.66677">
        <ele>1286</ele>
        <time>2021-08-04T11:38:26.923Z</time>
      </trkpt>
      <trkpt lat="46.97812" lon="8.6668">
        <ele>1285</ele>
        <time>2021-08-04T11:38:27.923Z</time>
      </trkpt>
      <trkpt lat="46.97811" lon="8.66683">
        <ele>1285</ele>
        <time>2021-08-04T11:38:28.923Z</time>
      </trkpt>
      <trkpt lat="46.9781" lon="8.66688">
        <ele>1284</ele>
        <time>2021-08-04T11:38:29.923Z</time>
      </trkpt>
      <trkpt lat="46.97808" lon="8.66695">
        <ele>1283</ele>
        <time>2021-08-04T11:38:30.923Z</time>
      </trkpt>
      <trkpt lat="46.97806" lon="8.66703">
        <ele>1283</ele>
        <time>2021-08-04T11:38:31.922Z</time>
      </trkpt>
      <trkpt lat="46.97805" lon="8.6671">
        <ele>1282</ele>
        <time>2021-08-04T11:38:32.923Z</time>
      </trkpt>
      <trkpt lat="46.97804" lon="8.66717">
        <ele>1282</ele>
        <time>2021-08-04T11:38:33.923Z</time>
      </trkpt>
      <trkpt lat="46.97802" lon="8.66722">
        <ele>1281</ele>
        <time>2021-08-04T11:38:35.922Z</time>
      </trkpt>
      <trkpt lat="46.978" lon="8.66714">
        <ele>1280</ele>
        <time>2021-08-04T11:38:36.922Z</time>
      </trkpt>
      <trkpt lat="46.97799" lon="8.66707">
        <ele>1280</ele>
        <time>2021-08-04T11:38:37.922Z</time>
      </trkpt>
      <trkpt lat="46.97798" lon="8.66701">
        <ele>1280</ele>
        <time>2021-08-04T11:38:38.922Z</time>
      </trkpt>
      <trkpt lat="46.97797" lon="8.66696">
        <ele>1279</ele>
        <time>2021-08-04T11:38:39.923Z</time>
      </trkpt>
      <trkpt lat="46.97797" lon="8.66691">
        <ele>1279</ele>
        <time>2021-08-04T11:38:40.923Z</time>
      </trkpt>
      <trkpt lat="46.978" lon="8.6669">
        <ele>1278</ele>
        <time>2021-08-04T11:38:42.922Z</time>
      </trkpt>
      <trkpt lat="46.97818" lon="8.66775">
        <ele>1277</ele>
        <time>2021-08-04T11:38:43.923Z</time>
      </trkpt>
      <trkpt lat="46.97815" lon="8.66775">
        <ele>1276</ele>
        <time>2021-08-04T11:38:44.923Z</time>
      </trkpt>
      <trkpt lat="46.97813" lon="8.66773">
        <ele>1276</ele>
        <time>2021-08-04T11:38:45.922Z</time>
      </trkpt>
      <trkpt lat="46.97811" lon="8.66774">
        <ele>1276</ele>
        <time>2021-08-04T11:38:47.923Z</time>
      </trkpt>
      <trkpt lat="46.97812" lon="8.66773">
        <ele>1276</ele>
        <time>2021-08-04T11:38:48.923Z</time>
      </trkpt>
      <trkpt lat="46.97813" lon="8.66771">
        <ele>1276</ele>
        <time>2021-08-04T11:38:49.923Z</time>
      </trkpt>
      <trkpt lat="46.97814" lon="8.66768">
        <ele>1276</ele>
        <time>2021-08-04T11:38:50.922Z</time>
      </trkpt>
      <trkpt lat="46.97814" lon="8.66768">
        <ele>1276</ele>
        <time>2021-08-04T11:38:51.923Z</time>
      </trkpt>
      <trkpt lat="46.97814" lon="8.66768">
        <ele>1276</ele>
        <time>2021-08-04T11:38:52.922Z</time>
      </trkpt>
      <trkpt lat="46.97814" lon="8.66767">
        <ele>1276</ele>
        <time>2021-08-04T11:38:53.922Z</time>
      </trkpt>
      <trkpt lat="46.97814" lon="8.66766">
        <ele>1275</ele>
        <time>2021-08-04T11:38:54.922Z</time>
      </trkpt>
      <trkpt lat="46.97814" lon="8.66766">
        <ele>1275</ele>
        <time>2021-08-04T11:38:55.923Z</time>
      </trkpt>
      <trkpt lat="46.97813" lon="8.66764">
        <ele>1275</ele>
        <time>2021-08-04T11:38:57.923Z</time>
      </trkpt>
      <trkpt lat="46.97813" lon="8.66763">
        <ele>1275</ele>
        <time>2021-08-04T11:38:58.923Z</time>
      </trkpt>
      <trkpt lat="46.97812" lon="8.66762">
        <ele>1275</ele>
        <time>2021-08-04T11:38:59.923Z</time>
      </trkpt>
      <trkpt lat="46.97813" lon="8.66762">
        <ele>1274</ele>
        <time>2021-08-04T11:39:00.922Z</time>
      </trkpt>
      <trkpt lat="46.97813" lon="8.66762">
        <ele>1274</ele>
        <time>2021-08-04T11:39:01.923Z</time>
      </trkpt>
      <trkpt lat="46.97812" lon="8.66761">
        <ele>1274</ele>
        <time>2021-08-04T11:39:02.923Z</time>
      </trkpt>
      <trkpt lat="46.97812" lon="8.66762">
        <ele>1274</ele>
        <time>2021-08-04T11:39:03.923Z</time>
      </trkpt>
      <trkpt lat="46.97812" lon="8.66762">
        <ele>1273</ele>
        <time>2021-08-04T11:39:04.923Z</time>
      </trkpt>
      <trkpt lat="46.97813" lon="8.66763">
        <ele>1273</ele>
        <time>2021-08-04T11:39:05.923Z</time>
      </trkpt>
      <trkpt lat="46.97813" lon="8.66762">
        <ele>1273</ele>
        <time>2021-08-04T11:39:06.923Z</time>
      </trkpt>
      <trkpt lat="46.97814" lon="8.66762">
        <ele>1273</ele>
        <time>2021-08-04T11:39:07.923Z</time>
      </trkpt>
      <trkpt lat="46.97815" lon="8.66762">
        <ele>1272</ele>
        <time>2021-08-04T11:39:08.923Z</time>
      </trkpt>
      <trkpt lat="46.97816" lon="8.66762">
        <ele>1272</ele>
        <time>2021-08-04T11:39:09.923Z</time>
      </trkpt>
      <trkpt lat="46.97816" lon="8.66762">
        <ele>1272</ele>
        <time>2021-08-04T11:39:10.923Z</time>
      </trkpt>
      <trkpt lat="46.97816" lon="8.66763">
        <ele>1272</ele>
        <time>2021-08-04T11:39:11.923Z</time>
      </trkpt>
      <trkpt lat="46.97815" lon="8.66768">
        <ele>1271</ele>
        <time>2021-08-04T11:39:12.924Z</time>
      </trkpt>
      <trkpt lat="46.97816" lon="8.66769">
        <ele>1271</ele>
        <time>2021-08-04T11:39:13.925Z</time>
      </trkpt>
      <trkpt lat="46.97816" lon="8.66769">
        <ele>1271</ele>
        <time>2021-08-04T11:39:14.924Z</time>
      </trkpt>
      <trkpt lat="46.97816" lon="8.6677">
        <ele>1271</ele>
        <time>2021-08-04T11:39:15.924Z</time>
      </trkpt>
      <trkpt lat="46.97816" lon="8.6677">
        <ele>1271</ele>
        <time>2021-08-04T11:39:16.925Z</time>
      </trkpt>
      <trkpt lat="46.97817" lon="8.66769">
        <ele>1270</ele>
        <time>2021-08-04T11:39:17.924Z</time>
      </trkpt>
      <trkpt lat="46.97816" lon="8.66767">
        <ele>1270</ele>
        <time>2021-08-04T11:39:18.925Z</time>
      </trkpt>
      <trkpt lat="46.97814" lon="8.66766">
        <ele>1270</ele>
        <time>2021-08-04T11:39:19.924Z</time>
      </trkpt>
      <trkpt lat="46.97812" lon="8.66765">
        <ele>1270</ele>
        <time>2021-08-04T11:39:20.925Z</time>
      </trkpt>
      <trkpt lat="46.97809" lon="8.66763">
        <ele>1270</ele>
        <time>2021-08-04T11:39:21.925Z</time>
      </trkpt>
      <trkpt lat="46.97805" lon="8.66761">
        <ele>1270</ele>
        <time>2021-08-04T11:39:22.925Z</time>
      </trkpt>
      <trkpt lat="46.978" lon="8.66759">
        <ele>1270</ele>
        <time>2021-08-04T11:39:23.925Z</time>
      </trkpt>
      <trkpt lat="46.97797" lon="8.66757">
        <ele>1270</ele>
        <time>2021-08-04T11:39:24.925Z</time>
      </trkpt>
      <trkpt lat="46.97794" lon="8.66757">
        <ele>1270</ele>
        <time>2021-08-04T11:39:27.924Z</time>
      </trkpt>
      <trkpt lat="46.97794" lon="8.66757">
        <ele>1270</ele>
        <time>2021-08-04T11:39:28.924Z</time>
      </trkpt>
      <trkpt lat="46.97795" lon="8.66758">
        <ele>1269</ele>
        <time>2021-08-04T11:39:29.925Z</time>
      </trkpt>
      <trkpt lat="46.97797" lon="8.66759">
        <ele>1269</ele>
        <time>2021-08-04T11:39:30.925Z</time>
      </trkpt>
      <trkpt lat="46.97799" lon="8.6676">
        <ele>1269</ele>
        <time>2021-08-04T11:39:36.924Z</time>
      </trkpt>
      <trkpt lat="46.97799" lon="8.6676">
        <ele>1268</ele>
        <time>2021-08-04T11:39:38.925Z</time>
      </trkpt>
      <trkpt lat="46.97798" lon="8.66758">
        <ele>1267</ele>
        <time>2021-08-04T11:39:40.927Z</time>
      </trkpt>
      <trkpt lat="46.97798" lon="8.66758">
        <ele>1267</ele>
        <time>2021-08-04T11:39:41.927Z</time>
      </trkpt>
      <trkpt lat="46.97798" lon="8.66758">
        <ele>1267</ele>
        <time>2021-08-04T11:39:42.927Z</time>
      </trkpt>
      <trkpt lat="46.97799" lon="8.66758">
        <ele>1266</ele>
        <time>2021-08-04T11:39:43.927Z</time>
      </trkpt>
      <trkpt lat="46.978" lon="8.66761">
        <ele>1266</ele>
        <time>2021-08-04T11:39:44.927Z</time>
      </trkpt>
      <trkpt lat="46.97801" lon="8.66762">
        <ele>1265</ele>
        <time>2021-08-04T11:39:54.048Z</time>
      </trkpt>
      <trkpt lat="46.97801" lon="8.66761">
        <ele>1265</ele>
        <time>2021-08-04T11:39:56.048Z</time>
      </trkpt>
      <trkpt lat="46.97803" lon="8.66761">
        <ele>1265</ele>
        <time>2021-08-04T11:39:57.047Z</time>
      </trkpt>
      <trkpt lat="46.97804" lon="8.66761">
        <ele>1265</ele>
        <time>2021-08-04T11:39:58.047Z</time>
      </trkpt>
      <trkpt lat="46.97805" lon="8.6676">
        <ele>1265</ele>
        <time>2021-08-04T11:39:59.047Z</time>
      </trkpt>
      <trkpt lat="46.97806" lon="8.6676">
        <ele>1264</ele>
        <time>2021-08-04T11:40:08.199Z</time>
      </trkpt>
      <trkpt lat="46.97808" lon="8.6676">
        <ele>1264</ele>
        <time>2021-08-04T11:40:12.043Z</time>
      </trkpt>
      <trkpt lat="46.97808" lon="8.6676">
        <ele>1263</ele>
        <time>2021-08-04T11:40:13.044Z</time>
      </trkpt>
      <trkpt lat="46.97809" lon="8.66761">
        <ele>1263</ele>
        <time>2021-08-04T11:40:14.044Z</time>
      </trkpt>
      <trkpt lat="46.97809" lon="8.66761">
        <ele>1263</ele>
        <time>2021-08-04T11:40:15.044Z</time>
      </trkpt>
      <trkpt lat="46.9781" lon="8.66762">
        <ele>1262</ele>
        <time>2021-08-04T11:40:16.044Z</time>
      </trkpt>
      <trkpt lat="46.9781" lon="8.66762">
        <ele>1262</ele>
        <time>2021-08-04T11:40:17.044Z</time>
      </trkpt>
      <trkpt lat="46.97811" lon="8.66762">
        <ele>1261</ele>
        <time>2021-08-04T11:40:18.044Z</time>
      </trkpt>
      <trkpt lat="46.97813" lon="8.66764">
        <ele>1260</ele>
        <time>2021-08-04T11:40:20.044Z</time>
      </trkpt>
      <trkpt lat="46.97813" lon="8.66765">
        <ele>1260</ele>
        <time>2021-08-04T11:40:21.043Z</time>
      </trkpt>
      <trkpt lat="46.97814" lon="8.66767">
        <ele>1260</ele>
        <time>2021-08-04T11:40:22.043Z</time>
      </trkpt>
      <trkpt lat="46.97816" lon="8.66769">
        <ele>1259</ele>
        <time>2021-08-04T11:40:24.043Z</time>
      </trkpt>
      <trkpt lat="46.97817" lon="8.6677">
        <ele>1259</ele>
        <time>2021-08-04T11:40:28.044Z</time>
      </trkpt>
      <trkpt lat="46.97817" lon="8.6677">
        <ele>1258</ele>
        <time>2021-08-04T11:40:29.044Z</time>
      </trkpt>
      <trkpt lat="46.97818" lon="8.6677">
        <ele>1258</ele>
        <time>2021-08-04T11:40:30.043Z</time>
      </trkpt>
      <trkpt lat="46.97817" lon="8.66767">
        <ele>1258</ele>
        <time>2021-08-04T11:40:33.044Z</time>
      </trkpt>
      <trkpt lat="46.97819" lon="8.66768">
        <ele>1258</ele>
        <time>2021-08-04T11:40:34.044Z</time>
      </trkpt>
      <trkpt lat="46.97821" lon="8.66768">
        <ele>1257</ele>
        <time>2021-08-04T11:40:35.043Z</time>
      </trkpt>
      <trkpt lat="46.97822" lon="8.66769">
        <ele>1257</ele>
        <time>2021-08-04T11:40:36.043Z</time>
      </trkpt>
      <trkpt lat="46.97823" lon="8.66769">
        <ele>1257</ele>
        <time>2021-08-04T11:40:38.044Z</time>
      </trkpt>
      <trkpt lat="46.97824" lon="8.6677">
        <ele>1257</ele>
        <time>2021-08-04T11:40:39.044Z</time>
      </trkpt>
      <trkpt lat="46.97825" lon="8.6677">
        <ele>1257</ele>
        <time>2021-08-04T11:40:57.173Z</time>
      </trkpt>
      <trkpt lat="46.97825" lon="8.6677">
        <ele>1257</ele>
        <time>2021-08-04T11:40:58.174Z</time>
      </trkpt>
      <trkpt lat="46.97825" lon="8.6677">
        <ele>1256</ele>
        <time>2021-08-04T11:41:00.174Z</time>
      </trkpt>
      <trkpt lat="46.97825" lon="8.66769">
        <ele>1256</ele>
        <time>2021-08-04T11:41:01.174Z</time>
      </trkpt>
      <trkpt lat="46.97826" lon="8.66769">
        <ele>1256</ele>
        <time>2021-08-04T11:41:02.173Z</time>
      </trkpt>
      <trkpt lat="46.97826" lon="8.6677">
        <ele>1256</ele>
        <time>2021-08-04T11:41:03.174Z</time>
      </trkpt>
      <trkpt lat="46.97826" lon="8.6677">
        <ele>1256</ele>
        <time>2021-08-04T11:41:04.173Z</time>
      </trkpt>
      <trkpt lat="46.97825" lon="8.66769">
        <ele>1256</ele>
        <time>2021-08-04T11:41:08.174Z</time>
      </trkpt>
      <trkpt lat="46.97825" lon="8.66768">
        <ele>1255</ele>
        <time>2021-08-04T11:41:09.173Z</time>
      </trkpt>
      <trkpt lat="46.97825" lon="8.66768">
        <ele>1255</ele>
        <time>2021-08-04T11:41:11.174Z</time>
      </trkpt>
      <trkpt lat="46.97823" lon="8.66763">
        <ele>1255</ele>
        <time>2021-08-04T11:41:34.174Z</time>
      </trkpt>
      <trkpt lat="46.97823" lon="8.66764">
        <ele>1255</ele>
        <time>2021-08-04T11:41:35.173Z</time>
      </trkpt>
      <trkpt lat="46.97824" lon="8.66765">
        <ele>1255</ele>
        <time>2021-08-04T11:41:36.173Z</time>
      </trkpt>
      <trkpt lat="46.97824" lon="8.66766">
        <ele>1255</ele>
        <time>2021-08-04T11:41:37.173Z</time>
      </trkpt>
      <trkpt lat="46.97824" lon="8.66767">
        <ele>1255</ele>
        <time>2021-08-04T11:41:38.174Z</time>
      </trkpt>
      <trkpt lat="46.97825" lon="8.66768">
        <ele>1255</ele>
        <time>2021-08-04T11:41:39.174Z</time>
      </trkpt>
      <trkpt lat="46.97826" lon="8.66769">
        <ele>1255</ele>
        <time>2021-08-04T11:41:40.174Z</time>
      </trkpt>
      <trkpt lat="46.97826" lon="8.66769">
        <ele>1255</ele>
        <time>2021-08-04T11:41:41.174Z</time>
      </trkpt>
      <trkpt lat="46.97826" lon="8.6677">
        <ele>1255</ele>
        <time>2021-08-04T11:41:42.173Z</time>
      </trkpt>
      <trkpt lat="46.97826" lon="8.66771">
        <ele>1255</ele>
        <time>2021-08-04T11:41:43.174Z</time>
      </trkpt>
      <trkpt lat="46.97822" lon="8.6677">
        <ele>1254</ele>
        <time>2021-08-04T11:42:01.173Z</time>
      </trkpt>
      <trkpt lat="46.97822" lon="8.6677">
        <ele>1254</ele>
        <time>2021-08-04T11:42:02.174Z</time>
      </trkpt>
      <trkpt lat="46.97824" lon="8.66769">
        <ele>1254</ele>
        <time>2021-08-04T11:42:17.162Z</time>
      </trkpt>
      <trkpt lat="46.97824" lon="8.66767">
        <ele>1254</ele>
        <time>2021-08-04T11:42:29.029Z</time>
      </trkpt>
      <trkpt lat="46.97824" lon="8.66766">
        <ele>1254</ele>
        <time>2021-08-04T11:42:30.028Z</time>
      </trkpt>
      <trkpt lat="46.97824" lon="8.66764">
        <ele>1254</ele>
        <time>2021-08-04T11:42:36.923Z</time>
      </trkpt>
      <trkpt lat="46.97823" lon="8.66762">
        <ele>1253</ele>
        <time>2021-08-04T11:42:37.924Z</time>
      </trkpt>
      <trkpt lat="46.97824" lon="8.66761">
        <ele>1253</ele>
        <time>2021-08-04T11:42:38.924Z</time>
      </trkpt>
      <trkpt lat="46.97823" lon="8.6676">
        <ele>1253</ele>
        <time>2021-08-04T11:42:39.924Z</time>
      </trkpt>
      <trkpt lat="46.97824" lon="8.66761">
        <ele>1253</ele>
        <time>2021-08-04T11:42:40.924Z</time>
      </trkpt>
      <trkpt lat="46.97824" lon="8.66761">
        <ele>1253</ele>
        <time>2021-08-04T11:42:41.923Z</time>
      </trkpt>
      <trkpt lat="46.97824" lon="8.66761">
        <ele>1253</ele>
        <time>2021-08-04T11:42:42.924Z</time>
      </trkpt>
      <trkpt lat="46.97825" lon="8.66762">
        <ele>1253</ele>
        <time>2021-08-04T11:42:43.924Z</time>
      </trkpt>
      <trkpt lat="46.97826" lon="8.66762">
        <ele>1252</ele>
        <time>2021-08-04T11:42:44.923Z</time>
      </trkpt>
      <trkpt lat="46.97825" lon="8.66763">
        <ele>1252</ele>
        <time>2021-08-04T11:42:45.923Z</time>
      </trkpt>
      <trkpt lat="46.97825" lon="8.66763">
        <ele>1252</ele>
        <time>2021-08-04T11:42:46.923Z</time>
      </trkpt>
      <trkpt lat="46.97824" lon="8.66763">
        <ele>1252</ele>
        <time>2021-08-04T11:42:47.924Z</time>
      </trkpt>
      <trkpt lat="46.97824" lon="8.66764">
        <ele>1252</ele>
        <time>2021-08-04T11:42:48.923Z</time>
      </trkpt>
      <trkpt lat="46.97824" lon="8.66766">
        <ele>1252</ele>
        <time>2021-08-04T11:42:49.923Z</time>
      </trkpt>
      <trkpt lat="46.97824" lon="8.66768">
        <ele>1251</ele>
        <time>2021-08-04T11:42:50.923Z</time>
      </trkpt>
      <trkpt lat="46.97823" lon="8.66771">
        <ele>1251</ele>
        <time>2021-08-04T11:42:51.924Z</time>
      </trkpt>
      <trkpt lat="46.97823" lon="8.66774">
        <ele>1251</ele>
        <time>2021-08-04T11:42:52.924Z</time>
      </trkpt>
      <trkpt lat="46.97822" lon="8.66795">
        <ele>1250</ele>
        <time>2021-08-04T11:42:59.923Z</time>
      </trkpt>
      <trkpt lat="46.97822" lon="8.66796">
        <ele>1250</ele>
        <time>2021-08-04T11:43:00.923Z</time>
      </trkpt>
      <trkpt lat="46.97822" lon="8.66797">
        <ele>1250</ele>
        <time>2021-08-04T11:43:01.924Z</time>
      </trkpt>
      <trkpt lat="46.97821" lon="8.66797">
        <ele>1250</ele>
        <time>2021-08-04T11:43:02.924Z</time>
      </trkpt>
      <trkpt lat="46.9782" lon="8.66795">
        <ele>1250</ele>
        <time>2021-08-04T11:43:04.924Z</time>
      </trkpt>
      <trkpt lat="46.9782" lon="8.66793">
        <ele>1250</ele>
        <time>2021-08-04T11:43:05.924Z</time>
      </trkpt>
      <trkpt lat="46.9782" lon="8.66793">
        <ele>1250</ele>
        <time>2021-08-04T11:43:06.924Z</time>
      </trkpt>
      <trkpt lat="46.9782" lon="8.66792">
        <ele>1250</ele>
        <time>2021-08-04T11:43:07.924Z</time>
      </trkpt>
      <trkpt lat="46.9782" lon="8.6679">
        <ele>1250</ele>
        <time>2021-08-04T11:43:08.923Z</time>
      </trkpt>
      <trkpt lat="46.97819" lon="8.66789">
        <ele>1250</ele>
        <time>2021-08-04T11:43:09.924Z</time>
      </trkpt>
      <trkpt lat="46.97819" lon="8.66787">
        <ele>1250</ele>
        <time>2021-08-04T11:43:15.023Z</time>
      </trkpt>
      <trkpt lat="46.97819" lon="8.66785">
        <ele>1250</ele>
        <time>2021-08-04T11:43:18.022Z</time>
      </trkpt>
      <trkpt lat="46.97819" lon="8.66782">
        <ele>1250</ele>
        <time>2021-08-04T11:43:19.023Z</time>
      </trkpt>
      <trkpt lat="46.97819" lon="8.66782">
        <ele>1250</ele>
        <time>2021-08-04T11:43:20.022Z</time>
      </trkpt>
      <trkpt lat="46.97817" lon="8.6678">
        <ele>1250</ele>
        <time>2021-08-04T11:43:21.023Z</time>
      </trkpt>
      <trkpt lat="46.97815" lon="8.66778">
        <ele>1250</ele>
        <time>2021-08-04T11:43:22.023Z</time>
      </trkpt>
      <trkpt lat="46.97817" lon="8.66779">
        <ele>1250</ele>
        <time>2021-08-04T11:43:23.023Z</time>
      </trkpt>
      <trkpt lat="46.97813" lon="8.66775">
        <ele>1250</ele>
        <time>2021-08-04T11:43:24.022Z</time>
      </trkpt>
      <trkpt lat="46.97813" lon="8.66774">
        <ele>1250</ele>
        <time>2021-08-04T11:43:26.023Z</time>
      </trkpt>
      <trkpt lat="46.97812" lon="8.66775">
        <ele>1250</ele>
        <time>2021-08-04T11:43:27.023Z</time>
      </trkpt>
      <trkpt lat="46.97809" lon="8.66774">
        <ele>1250</ele>
        <time>2021-08-04T11:43:28.022Z</time>
      </trkpt>
      <trkpt lat="46.97809" lon="8.66775">
        <ele>1250</ele>
        <time>2021-08-04T11:43:29.022Z</time>
      </trkpt>
      <trkpt lat="46.9781" lon="8.66776">
        <ele>1250</ele>
        <time>2021-08-04T11:43:30.023Z</time>
      </trkpt>
      <trkpt lat="46.97811" lon="8.66777">
        <ele>1250</ele>
        <time>2021-08-04T11:43:31.023Z</time>
      </trkpt>
      <trkpt lat="46.97812" lon="8.66777">
        <ele>1250</ele>
        <time>2021-08-04T11:43:32.023Z</time>
      </trkpt>
      <trkpt lat="46.97811" lon="8.66777">
        <ele>1250</ele>
        <time>2021-08-04T11:43:33.023Z</time>
      </trkpt>
      <trkpt lat="46.9781" lon="8.66776">
        <ele>1250</ele>
        <time>2021-08-04T11:43:35.023Z</time>
      </trkpt>
      <trkpt lat="46.97815" lon="8.66793">
        <ele>1250</ele>
        <time>2021-08-04T11:43:55.022Z</time>
      </trkpt>
      <trkpt lat="46.97819" lon="8.66799">
        <ele>1250</ele>
        <time>2021-08-04T11:43:56.023Z</time>
      </trkpt>
      <trkpt lat="46.97821" lon="8.66803">
        <ele>1251</ele>
        <time>2021-08-04T11:43:57.022Z</time>
      </trkpt>
      <trkpt lat="46.97823" lon="8.66806">
        <ele>1251</ele>
        <time>2021-08-04T11:43:59.022Z</time>
      </trkpt>
      <trkpt lat="46.97825" lon="8.6681">
        <ele>1251</ele>
        <time>2021-08-04T11:44:03.022Z</time>
      </trkpt>
      <trkpt lat="46.97826" lon="8.66807">
        <ele>1251</ele>
        <time>2021-08-04T11:44:04.022Z</time>
      </trkpt>
      <trkpt lat="46.97827" lon="8.66802">
        <ele>1251</ele>
        <time>2021-08-04T11:44:06.023Z</time>
      </trkpt>
      <trkpt lat="46.97826" lon="8.66799">
        <ele>1251</ele>
        <time>2021-08-04T11:44:07.022Z</time>
      </trkpt>
      <trkpt lat="46.97827" lon="8.66793">
        <ele>1251</ele>
        <time>2021-08-04T11:44:11.022Z</time>
      </trkpt>
      <trkpt lat="46.97827" lon="8.66788">
        <ele>1251</ele>
        <time>2021-08-04T11:44:15.022Z</time>
      </trkpt>
      <trkpt lat="46.97827" lon="8.66783">
        <ele>1251</ele>
        <time>2021-08-04T11:44:17.023Z</time>
      </trkpt>
      <trkpt lat="46.97827" lon="8.66778">
        <ele>1251</ele>
        <time>2021-08-04T11:44:18.022Z</time>
      </trkpt>
      <trkpt lat="46.97825" lon="8.66772">
        <ele>1251</ele>
        <time>2021-08-04T11:44:19.022Z</time>
      </trkpt>
      <trkpt lat="46.97824" lon="8.66768">
        <ele>1251</ele>
        <time>2021-08-04T11:44:20.022Z</time>
      </trkpt>
      <trkpt lat="46.97823" lon="8.66765">
        <ele>1251</ele>
        <time>2021-08-04T11:44:21.023Z</time>
      </trkpt>
      <trkpt lat="46.97822" lon="8.66762">
        <ele>1251</ele>
        <time>2021-08-04T11:44:22.023Z</time>
      </trkpt>
      <trkpt lat="46.97822" lon="8.6676">
        <ele>1251</ele>
        <time>2021-08-04T11:44:23.022Z</time>
      </trkpt>
      <trkpt lat="46.97822" lon="8.66757">
        <ele>1251</ele>
        <time>2021-08-04T11:44:24.022Z</time>
      </trkpt>
      <trkpt lat="46.97822" lon="8.66756">
        <ele>1251</ele>
        <time>2021-08-04T11:44:25.022Z</time>
      </trkpt>
      <trkpt lat="46.97822" lon="8.66754">
        <ele>1251</ele>
        <time>2021-08-04T11:44:26.022Z</time>
      </trkpt>
      <trkpt lat="46.97822" lon="8.66754">
        <ele>1251</ele>
        <time>2021-08-04T11:44:27.023Z</time>
      </trkpt>
      <trkpt lat="46.9782" lon="8.66754">
        <ele>1251</ele>
        <time>2021-08-04T11:44:29.022Z</time>
      </trkpt>
      <trkpt lat="46.97818" lon="8.66754">
        <ele>1251</ele>
        <time>2021-08-04T11:44:30.022Z</time>
      </trkpt>
      <trkpt lat="46.97816" lon="8.66755">
        <ele>1251</ele>
        <time>2021-08-04T11:44:31.023Z</time>
      </trkpt>
      <trkpt lat="46.97814" lon="8.66756">
        <ele>1251</ele>
        <time>2021-08-04T11:44:32.023Z</time>
      </trkpt>
      <trkpt lat="46.97812" lon="8.66756">
        <ele>1251</ele>
        <time>2021-08-04T11:44:33.022Z</time>
      </trkpt>
      <trkpt lat="46.9781" lon="8.66756">
        <ele>1251</ele>
        <time>2021-08-04T11:44:35.022Z</time>
      </trkpt>
      <trkpt lat="46.9781" lon="8.66755">
        <ele>1251</ele>
        <time>2021-08-04T11:44:38.022Z</time>
      </trkpt>
      <trkpt lat="46.97811" lon="8.66756">
        <ele>1251</ele>
        <time>2021-08-04T11:44:40.022Z</time>
      </trkpt>
      <trkpt lat="46.97813" lon="8.66758">
        <ele>1251</ele>
        <time>2021-08-04T11:44:41.023Z</time>
      </trkpt>
      <trkpt lat="46.97814" lon="8.66759">
        <ele>1251</ele>
        <time>2021-08-04T11:44:42.022Z</time>
      </trkpt>
      <trkpt lat="46.97813" lon="8.6676">
        <ele>1251</ele>
        <time>2021-08-04T11:44:43.023Z</time>
      </trkpt>
      <trkpt lat="46.97812" lon="8.66759">
        <ele>1251</ele>
        <time>2021-08-04T11:44:44.022Z</time>
      </trkpt>
      <trkpt lat="46.97811" lon="8.66759">
        <ele>1251</ele>
        <time>2021-08-04T11:44:45.023Z</time>
      </trkpt>
      <trkpt lat="46.97812" lon="8.6676">
        <ele>1251</ele>
        <time>2021-08-04T11:44:46.022Z</time>
      </trkpt>
      <trkpt lat="46.97813" lon="8.66761">
        <ele>1251</ele>
        <time>2021-08-04T11:44:47.022Z</time>
      </trkpt>
      <trkpt lat="46.97816" lon="8.66763">
        <ele>1251</ele>
        <time>2021-08-04T11:44:48.023Z</time>
      </trkpt>
      <trkpt lat="46.97818" lon="8.66764">
        <ele>1251</ele>
        <time>2021-08-04T11:44:49.022Z</time>
      </trkpt>
      <trkpt lat="46.9782" lon="8.66765">
        <ele>1251</ele>
        <time>2021-08-04T11:44:50.023Z</time>
      </trkpt>
      <trkpt lat="46.97827" lon="8.6677">
        <ele>1253</ele>
        <time>2021-08-04T11:44:51.023Z</time>
      </trkpt>
      <trkpt lat="46.97828" lon="8.66772">
        <ele>1255</ele>
        <time>2021-08-04T11:44:53.162Z</time>
      </trkpt>
      <trkpt lat="46.9784" lon="8.66777">
        <ele>1258</ele>
        <time>2021-08-04T11:44:54.912Z</time>
      </trkpt>
      <trkpt lat="46.97846" lon="8.66781">
        <ele>1260</ele>
        <time>2021-08-04T11:44:59.807Z</time>
      </trkpt>
      <trkpt lat="46.97852" lon="8.66784">
        <ele>1263</ele>
        <time>2021-08-04T11:45:00.807Z</time>
      </trkpt>
      <trkpt lat="46.97857" lon="8.66787">
        <ele>1265</ele>
        <time>2021-08-04T11:45:01.808Z</time>
      </trkpt>
      <trkpt lat="46.97862" lon="8.66789">
        <ele>1268</ele>
        <time>2021-08-04T11:45:02.808Z</time>
      </trkpt>
      <trkpt lat="46.97867" lon="8.66792">
        <ele>1270</ele>
        <time>2021-08-04T11:45:03.808Z</time>
      </trkpt>
      <trkpt lat="46.97873" lon="8.66794">
        <ele>1272</ele>
        <time>2021-08-04T11:45:04.807Z</time>
      </trkpt>
      <trkpt lat="46.97878" lon="8.66797">
        <ele>1274</ele>
        <time>2021-08-04T11:45:05.808Z</time>
      </trkpt>
      <trkpt lat="46.97881" lon="8.66796">
        <ele>1275</ele>
        <time>2021-08-04T11:45:06.807Z</time>
      </trkpt>
      <trkpt lat="46.97885" lon="8.66798">
        <ele>1276</ele>
        <time>2021-08-04T11:45:07.808Z</time>
      </trkpt>
      <trkpt lat="46.9789" lon="8.668">
        <ele>1278</ele>
        <time>2021-08-04T11:45:08.808Z</time>
      </trkpt>
      <trkpt lat="46.97895" lon="8.66802">
        <ele>1279</ele>
        <time>2021-08-04T11:45:09.808Z</time>
      </trkpt>
      <trkpt lat="46.97901" lon="8.66806">
        <ele>1280</ele>
        <time>2021-08-04T11:45:10.807Z</time>
      </trkpt>
      <trkpt lat="46.97908" lon="8.66811">
        <ele>1281</ele>
        <time>2021-08-04T11:45:11.808Z</time>
      </trkpt>
      <trkpt lat="46.97914" lon="8.66813">
        <ele>1282</ele>
        <time>2021-08-04T11:45:12.808Z</time>
      </trkpt>
      <trkpt lat="46.97919" lon="8.66815">
        <ele>1283</ele>
        <time>2021-08-04T11:45:13.808Z</time>
      </trkpt>
      <trkpt lat="46.97922" lon="8.66816">
        <ele>1284</ele>
        <time>2021-08-04T11:45:14.808Z</time>
      </trkpt>
      <trkpt lat="46.97926" lon="8.66816">
        <ele>1285</ele>
        <time>2021-08-04T11:45:15.808Z</time>
      </trkpt>
      <trkpt lat="46.9793" lon="8.66818">
        <ele>1286</ele>
        <time>2021-08-04T11:45:16.807Z</time>
      </trkpt>
      <trkpt lat="46.97935" lon="8.66821">
        <ele>1286</ele>
        <time>2021-08-04T11:45:17.807Z</time>
      </trkpt>
      <trkpt lat="46.9794" lon="8.66823">
        <ele>1287</ele>
        <time>2021-08-04T11:45:18.807Z</time>
      </trkpt>
      <trkpt lat="46.97945" lon="8.66826">
        <ele>1287</ele>
        <time>2021-08-04T11:45:19.808Z</time>
      </trkpt>
      <trkpt lat="46.97948" lon="8.66829">
        <ele>1287</ele>
        <time>2021-08-04T11:45:20.808Z</time>
      </trkpt>
      <trkpt lat="46.97952" lon="8.6683">
        <ele>1287</ele>
        <time>2021-08-04T11:45:21.808Z</time>
      </trkpt>
      <trkpt lat="46.97956" lon="8.66832">
        <ele>1287</ele>
        <time>2021-08-04T11:45:22.808Z</time>
      </trkpt>
      <trkpt lat="46.9796" lon="8.66835">
        <ele>1287</ele>
        <time>2021-08-04T11:45:23.808Z</time>
      </trkpt>
      <trkpt lat="46.97964" lon="8.66837">
        <ele>1287</ele>
        <time>2021-08-04T11:45:24.808Z</time>
      </trkpt>
      <trkpt lat="46.97968" lon="8.66839">
        <ele>1287</ele>
        <time>2021-08-04T11:45:25.808Z</time>
      </trkpt>
      <trkpt lat="46.97971" lon="8.66841">
        <ele>1286</ele>
        <time>2021-08-04T11:45:26.808Z</time>
      </trkpt>
      <trkpt lat="46.97976" lon="8.66844">
        <ele>1286</ele>
        <time>2021-08-04T11:45:27.808Z</time>
      </trkpt>
      <trkpt lat="46.9798" lon="8.66846">
        <ele>1285</ele>
        <time>2021-08-04T11:45:28.807Z</time>
      </trkpt>
      <trkpt lat="46.97985" lon="8.66848">
        <ele>1284</ele>
        <time>2021-08-04T11:45:29.808Z</time>
      </trkpt>
      <trkpt lat="46.97995" lon="8.66848">
        <ele>1283</ele>
        <time>2021-08-04T11:45:30.808Z</time>
      </trkpt>
      <trkpt lat="46.97998" lon="8.66851">
        <ele>1283</ele>
        <time>2021-08-04T11:45:31.808Z</time>
      </trkpt>
      <trkpt lat="46.98001" lon="8.66853">
        <ele>1283</ele>
        <time>2021-08-04T11:45:32.808Z</time>
      </trkpt>
      <trkpt lat="46.98005" lon="8.66853">
        <ele>1282</ele>
        <time>2021-08-04T11:45:33.808Z</time>
      </trkpt>
      <trkpt lat="46.98008" lon="8.66856">
        <ele>1281</ele>
        <time>2021-08-04T11:45:34.808Z</time>
      </trkpt>
      <trkpt lat="46.98012" lon="8.66858">
        <ele>1281</ele>
        <time>2021-08-04T11:45:35.807Z</time>
      </trkpt>
      <trkpt lat="46.98016" lon="8.66861">
        <ele>1280</ele>
        <time>2021-08-04T11:45:36.808Z</time>
      </trkpt>
      <trkpt lat="46.9802" lon="8.66863">
        <ele>1280</ele>
        <time>2021-08-04T11:45:37.808Z</time>
      </trkpt>
      <trkpt lat="46.98024" lon="8.66865">
        <ele>1279</ele>
        <time>2021-08-04T11:45:38.807Z</time>
      </trkpt>
      <trkpt lat="46.98028" lon="8.66868">
        <ele>1279</ele>
        <time>2021-08-04T11:45:39.808Z</time>
      </trkpt>
      <trkpt lat="46.98032" lon="8.6687">
        <ele>1278</ele>
        <time>2021-08-04T11:45:44.916Z</time>
      </trkpt>
      <trkpt lat="46.98035" lon="8.66872">
        <ele>1278</ele>
        <time>2021-08-04T11:45:45.916Z</time>
      </trkpt>
      <trkpt lat="46.98039" lon="8.66874">
        <ele>1278</ele>
        <time>2021-08-04T11:45:46.916Z</time>
      </trkpt>
      <trkpt lat="46.98042" lon="8.66876">
        <ele>1277</ele>
        <time>2021-08-04T11:45:47.915Z</time>
      </trkpt>
      <trkpt lat="46.98047" lon="8.66876">
        <ele>1276</ele>
        <time>2021-08-04T11:45:48.915Z</time>
      </trkpt>
      <trkpt lat="46.98051" lon="8.66877">
        <ele>1276</ele>
        <time>2021-08-04T11:45:49.916Z</time>
      </trkpt>
      <trkpt lat="46.98056" lon="8.66878">
        <ele>1275</ele>
        <time>2021-08-04T11:45:50.916Z</time>
      </trkpt>
      <trkpt lat="46.9806" lon="8.66878">
        <ele>1273</ele>
        <time>2021-08-04T11:45:51.916Z</time>
      </trkpt>
      <trkpt lat="46.98064" lon="8.66879">
        <ele>1272</ele>
        <time>2021-08-04T11:45:52.915Z</time>
      </trkpt>
      <trkpt lat="46.98069" lon="8.66881">
        <ele>1271</ele>
        <time>2021-08-04T11:45:53.916Z</time>
      </trkpt>
      <trkpt lat="46.98073" lon="8.66883">
        <ele>1269</ele>
        <time>2021-08-04T11:45:54.916Z</time>
      </trkpt>
      <trkpt lat="46.98077" lon="8.66884">
        <ele>1268</ele>
        <time>2021-08-04T11:45:55.916Z</time>
      </trkpt>
      <trkpt lat="46.98081" lon="8.66886">
        <ele>1267</ele>
        <time>2021-08-04T11:45:56.916Z</time>
      </trkpt>
      <trkpt lat="46.98085" lon="8.66888">
        <ele>1265</ele>
        <time>2021-08-04T11:45:57.916Z</time>
      </trkpt>
      <trkpt lat="46.9809" lon="8.66891">
        <ele>1264</ele>
        <time>2021-08-04T11:45:58.916Z</time>
      </trkpt>
      <trkpt lat="46.98094" lon="8.66893">
        <ele>1262</ele>
        <time>2021-08-04T11:45:59.916Z</time>
      </trkpt>
      <trkpt lat="46.98098" lon="8.66895">
        <ele>1261</ele>
        <time>2021-08-04T11:46:00.916Z</time>
      </trkpt>
      <trkpt lat="46.98102" lon="8.66897">
        <ele>1260</ele>
        <time>2021-08-04T11:46:01.915Z</time>
      </trkpt>
      <trkpt lat="46.98106" lon="8.66899">
        <ele>1259</ele>
        <time>2021-08-04T11:46:02.915Z</time>
      </trkpt>
      <trkpt lat="46.98111" lon="8.66901">
        <ele>1258</ele>
        <time>2021-08-04T11:46:03.916Z</time>
      </trkpt>
      <trkpt lat="46.98114" lon="8.66902">
        <ele>1257</ele>
        <time>2021-08-04T11:46:04.916Z</time>
      </trkpt>
      <trkpt lat="46.98118" lon="8.66904">
        <ele>1257</ele>
        <time>2021-08-04T11:46:05.916Z</time>
      </trkpt>
      <trkpt lat="46.98122" lon="8.66907">
        <ele>1256</ele>
        <time>2021-08-04T11:46:06.916Z</time>
      </trkpt>
      <trkpt lat="46.98126" lon="8.66909">
        <ele>1255</ele>
        <time>2021-08-04T11:46:07.916Z</time>
      </trkpt>
      <trkpt lat="46.9813" lon="8.66912">
        <ele>1255</ele>
        <time>2021-08-04T11:46:08.916Z</time>
      </trkpt>
      <trkpt lat="46.98134" lon="8.66913">
        <ele>1254</ele>
        <time>2021-08-04T11:46:09.916Z</time>
      </trkpt>
      <trkpt lat="46.98138" lon="8.66914">
        <ele>1254</ele>
        <time>2021-08-04T11:46:10.916Z</time>
      </trkpt>
      <trkpt lat="46.98142" lon="8.66915">
        <ele>1253</ele>
        <time>2021-08-04T11:46:11.916Z</time>
      </trkpt>
      <trkpt lat="46.98146" lon="8.66917">
        <ele>1253</ele>
        <time>2021-08-04T11:46:12.916Z</time>
      </trkpt>
      <trkpt lat="46.9815" lon="8.66919">
        <ele>1253</ele>
        <time>2021-08-04T11:46:13.916Z</time>
      </trkpt>
      <trkpt lat="46.98155" lon="8.6692">
        <ele>1253</ele>
        <time>2021-08-04T11:46:14.916Z</time>
      </trkpt>
      <trkpt lat="46.98159" lon="8.66922">
        <ele>1252</ele>
        <time>2021-08-04T11:46:15.916Z</time>
      </trkpt>
      <trkpt lat="46.98163" lon="8.66923">
        <ele>1252</ele>
        <time>2021-08-04T11:46:16.915Z</time>
      </trkpt>
      <trkpt lat="46.98167" lon="8.66924">
        <ele>1252</ele>
        <time>2021-08-04T11:46:17.916Z</time>
      </trkpt>
      <trkpt lat="46.98172" lon="8.66925">
        <ele>1252</ele>
        <time>2021-08-04T11:46:20.003Z</time>
      </trkpt>
      <trkpt lat="46.98176" lon="8.66927">
        <ele>1252</ele>
        <time>2021-08-04T11:46:24.931Z</time>
      </trkpt>
      <trkpt lat="46.9818" lon="8.66928">
        <ele>1253</ele>
        <time>2021-08-04T11:46:25.931Z</time>
      </trkpt>
      <trkpt lat="46.98184" lon="8.66929">
        <ele>1253</ele>
        <time>2021-08-04T11:46:26.931Z</time>
      </trkpt>
      <trkpt lat="46.98188" lon="8.6693">
        <ele>1253</ele>
        <time>2021-08-04T11:46:27.931Z</time>
      </trkpt>
      <trkpt lat="46.98192" lon="8.66932">
        <ele>1253</ele>
        <time>2021-08-04T11:46:28.930Z</time>
      </trkpt>
      <trkpt lat="46.98195" lon="8.66934">
        <ele>1254</ele>
        <time>2021-08-04T11:46:29.930Z</time>
      </trkpt>
      <trkpt lat="46.98199" lon="8.66937">
        <ele>1254</ele>
        <time>2021-08-04T11:46:30.931Z</time>
      </trkpt>
      <trkpt lat="46.98203" lon="8.6694">
        <ele>1253</ele>
        <time>2021-08-04T11:46:31.931Z</time>
      </trkpt>
      <trkpt lat="46.98208" lon="8.66943">
        <ele>1253</ele>
        <time>2021-08-04T11:46:32.931Z</time>
      </trkpt>
      <trkpt lat="46.98212" lon="8.66944">
        <ele>1253</ele>
        <time>2021-08-04T11:46:33.931Z</time>
      </trkpt>
      <trkpt lat="46.98216" lon="8.66947">
        <ele>1253</ele>
        <time>2021-08-04T11:46:34.931Z</time>
      </trkpt>
      <trkpt lat="46.9822" lon="8.66949">
        <ele>1253</ele>
        <time>2021-08-04T11:46:35.931Z</time>
      </trkpt>
      <trkpt lat="46.98224" lon="8.66951">
        <ele>1252</ele>
        <time>2021-08-04T11:46:36.931Z</time>
      </trkpt>
      <trkpt lat="46.98228" lon="8.66954">
        <ele>1252</ele>
        <time>2021-08-04T11:46:37.931Z</time>
      </trkpt>
      <trkpt lat="46.98232" lon="8.66957">
        <ele>1251</ele>
        <time>2021-08-04T11:46:41.025Z</time>
      </trkpt>
      <trkpt lat="46.98237" lon="8.6696">
        <ele>1250</ele>
        <time>2021-08-04T11:46:42.025Z</time>
      </trkpt>
      <trkpt lat="46.98242" lon="8.66963">
        <ele>1250</ele>
        <time>2021-08-04T11:46:43.024Z</time>
      </trkpt>
      <trkpt lat="46.98246" lon="8.66965">
        <ele>1249</ele>
        <time>2021-08-04T11:46:44.024Z</time>
      </trkpt>
      <trkpt lat="46.98251" lon="8.66968">
        <ele>1249</ele>
        <time>2021-08-04T11:46:45.025Z</time>
      </trkpt>
      <trkpt lat="46.98255" lon="8.6697">
        <ele>1249</ele>
        <time>2021-08-04T11:46:46.025Z</time>
      </trkpt>
      <trkpt lat="46.98259" lon="8.66971">
        <ele>1248</ele>
        <time>2021-08-04T11:46:47.024Z</time>
      </trkpt>
      <trkpt lat="46.98263" lon="8.66974">
        <ele>1248</ele>
        <time>2021-08-04T11:46:48.024Z</time>
      </trkpt>
      <trkpt lat="46.98267" lon="8.66976">
        <ele>1248</ele>
        <time>2021-08-04T11:46:49.024Z</time>
      </trkpt>
      <trkpt lat="46.98271" lon="8.66977">
        <ele>1247</ele>
        <time>2021-08-04T11:46:50.025Z</time>
      </trkpt>
      <trkpt lat="46.98274" lon="8.66978">
        <ele>1247</ele>
        <time>2021-08-04T11:46:51.024Z</time>
      </trkpt>
      <trkpt lat="46.98278" lon="8.6698">
        <ele>1247</ele>
        <time>2021-08-04T11:46:52.024Z</time>
      </trkpt>
      <trkpt lat="46.98282" lon="8.66981">
        <ele>1247</ele>
        <time>2021-08-04T11:46:53.025Z</time>
      </trkpt>
      <trkpt lat="46.98286" lon="8.66983">
        <ele>1247</ele>
        <time>2021-08-04T11:46:54.025Z</time>
      </trkpt>
      <trkpt lat="46.9829" lon="8.66985">
        <ele>1247</ele>
        <time>2021-08-04T11:46:55.024Z</time>
      </trkpt>
      <trkpt lat="46.98294" lon="8.66987">
        <ele>1247</ele>
        <time>2021-08-04T11:47:00.185Z</time>
      </trkpt>
      <trkpt lat="46.98298" lon="8.66989">
        <ele>1246</ele>
        <time>2021-08-04T11:47:01.185Z</time>
      </trkpt>
      <trkpt lat="46.98302" lon="8.66991">
        <ele>1246</ele>
        <time>2021-08-04T11:47:02.185Z</time>
      </trkpt>
      <trkpt lat="46.98306" lon="8.66993">
        <ele>1246</ele>
        <time>2021-08-04T11:47:03.184Z</time>
      </trkpt>
      <trkpt lat="46.98311" lon="8.66994">
        <ele>1245</ele>
        <time>2021-08-04T11:47:04.185Z</time>
      </trkpt>
      <trkpt lat="46.98315" lon="8.66994">
        <ele>1245</ele>
        <time>2021-08-04T11:47:05.185Z</time>
      </trkpt>
      <trkpt lat="46.98318" lon="8.66994">
        <ele>1245</ele>
        <time>2021-08-04T11:47:06.185Z</time>
      </trkpt>
      <trkpt lat="46.98519" lon="8.67058">
        <ele>1236</ele>
        <time>2021-08-04T11:48:04.283Z</time>
      </trkpt>
      <trkpt lat="46.98521" lon="8.67068">
        <ele>1227</ele>
        <time>2021-08-04T11:48:05.282Z</time>
      </trkpt>
      <trkpt lat="46.98532" lon="8.67068">
        <ele>1219</ele>
        <time>2021-08-04T11:48:06.283Z</time>
      </trkpt>
      <trkpt lat="46.98543" lon="8.67077">
        <ele>1212</ele>
        <time>2021-08-04T11:48:07.283Z</time>
      </trkpt>
      <trkpt lat="46.98547" lon="8.67081">
        <ele>1205</ele>
        <time>2021-08-04T11:48:08.283Z</time>
      </trkpt>
      <trkpt lat="46.98553" lon="8.67085">
        <ele>1198</ele>
        <time>2021-08-04T11:48:09.283Z</time>
      </trkpt>
      <trkpt lat="46.98558" lon="8.67088">
        <ele>1191</ele>
        <time>2021-08-04T11:48:10.283Z</time>
      </trkpt>
      <trkpt lat="46.98562" lon="8.67089">
        <ele>1185</ele>
        <time>2021-08-04T11:48:11.282Z</time>
      </trkpt>
      <trkpt lat="46.98565" lon="8.6709">
        <ele>1179</ele>
        <time>2021-08-04T11:48:12.282Z</time>
      </trkpt>
      <trkpt lat="46.98568" lon="8.67091">
        <ele>1174</ele>
        <time>2021-08-04T11:48:13.283Z</time>
      </trkpt>
      <trkpt lat="46.9857" lon="8.67093">
        <ele>1169</ele>
        <time>2021-08-04T11:48:14.282Z</time>
      </trkpt>
      <trkpt lat="46.98573" lon="8.67093">
        <ele>1164</ele>
        <time>2021-08-04T11:48:15.282Z</time>
      </trkpt>
      <trkpt lat="46.98575" lon="8.67095">
        <ele>1159</ele>
        <time>2021-08-04T11:48:16.283Z</time>
      </trkpt>
      <trkpt lat="46.98578" lon="8.67096">
        <ele>1155</ele>
        <time>2021-08-04T11:48:17.283Z</time>
      </trkpt>
      <trkpt lat="46.9858" lon="8.67097">
        <ele>1150</ele>
        <time>2021-08-04T11:48:18.282Z</time>
      </trkpt>
      <trkpt lat="46.98583" lon="8.67098">
        <ele>1145</ele>
        <time>2021-08-04T11:48:19.282Z</time>
      </trkpt>
      <trkpt lat="46.98586" lon="8.671">
        <ele>1140</ele>
        <time>2021-08-04T11:48:20.283Z</time>
      </trkpt>
      <trkpt lat="46.9859" lon="8.67102">
        <ele>1135</ele>
        <time>2021-08-04T11:48:21.283Z</time>
      </trkpt>
      <trkpt lat="46.98592" lon="8.67103">
        <ele>1131</ele>
        <time>2021-08-04T11:48:22.283Z</time>
      </trkpt>
      <trkpt lat="46.98595" lon="8.67103">
        <ele>1126</ele>
        <time>2021-08-04T11:48:23.283Z</time>
      </trkpt>
      <trkpt lat="46.98598" lon="8.67104">
        <ele>1122</ele>
        <time>2021-08-04T11:48:24.283Z</time>
      </trkpt>
      <trkpt lat="46.98603" lon="8.67106">
        <ele>1119</ele>
        <time>2021-08-04T11:48:25.282Z</time>
      </trkpt>
      <trkpt lat="46.98606" lon="8.67107">
        <ele>1115</ele>
        <time>2021-08-04T11:48:26.283Z</time>
      </trkpt>
      <trkpt lat="46.98611" lon="8.67107">
        <ele>1112</ele>
        <time>2021-08-04T11:48:27.282Z</time>
      </trkpt>
      <trkpt lat="46.98613" lon="8.67108">
        <ele>1109</ele>
        <time>2021-08-04T11:48:28.283Z</time>
      </trkpt>
      <trkpt lat="46.98616" lon="8.67108">
        <ele>1107</ele>
        <time>2021-08-04T11:48:29.283Z</time>
      </trkpt>
      <trkpt lat="46.98619" lon="8.67109">
        <ele>1104</ele>
        <time>2021-08-04T11:48:30.283Z</time>
      </trkpt>
      <trkpt lat="46.98656" lon="8.67143">
        <ele>1096</ele>
        <time>2021-08-04T11:49:00.303Z</time>
      </trkpt>
      <trkpt lat="46.98662" lon="8.67142">
        <ele>1088</ele>
        <time>2021-08-04T11:49:01.302Z</time>
      </trkpt>
      <trkpt lat="46.98665" lon="8.67143">
        <ele>1081</ele>
        <time>2021-08-04T11:49:02.303Z</time>
      </trkpt>
      <trkpt lat="46.98672" lon="8.67148">
        <ele>1074</ele>
        <time>2021-08-04T11:49:03.303Z</time>
      </trkpt>
      <trkpt lat="46.98677" lon="8.6715">
        <ele>1067</ele>
        <time>2021-08-04T11:49:04.303Z</time>
      </trkpt>
      <trkpt lat="46.98682" lon="8.67154">
        <ele>1061</ele>
        <time>2021-08-04T11:49:05.302Z</time>
      </trkpt>
      <trkpt lat="46.98688" lon="8.67157">
        <ele>1056</ele>
        <time>2021-08-04T11:49:06.303Z</time>
      </trkpt>
      <trkpt lat="46.98692" lon="8.67158">
        <ele>1051</ele>
        <time>2021-08-04T11:49:07.303Z</time>
      </trkpt>
      <trkpt lat="46.98694" lon="8.67157">
        <ele>1047</ele>
        <time>2021-08-04T11:49:08.302Z</time>
      </trkpt>
      <trkpt lat="46.98699" lon="8.67158">
        <ele>1043</ele>
        <time>2021-08-04T11:49:09.302Z</time>
      </trkpt>
      <trkpt lat="46.98893" lon="8.67238">
        <ele>1039</ele>
        <time>2021-08-04T11:50:10.432Z</time>
      </trkpt>
      <trkpt lat="46.98886" lon="8.6724">
        <ele>1036</ele>
        <time>2021-08-04T11:50:11.433Z</time>
      </trkpt>
      <trkpt lat="46.98887" lon="8.67242">
        <ele>1033</ele>
        <time>2021-08-04T11:50:12.432Z</time>
      </trkpt>
      <trkpt lat="46.98891" lon="8.67246">
        <ele>1031</ele>
        <time>2021-08-04T11:50:13.432Z</time>
      </trkpt>
      <trkpt lat="46.98894" lon="8.67248">
        <ele>1028</ele>
        <time>2021-08-04T11:50:14.432Z</time>
      </trkpt>
      <trkpt lat="46.98897" lon="8.67248">
        <ele>996</ele>
        <time>2021-08-04T11:50:15.433Z</time>
      </trkpt>
      <trkpt lat="46.98898" lon="8.67249">
        <ele>966</ele>
        <time>2021-08-04T11:50:16.432Z</time>
      </trkpt>
      <trkpt lat="46.98902" lon="8.67251">
        <ele>939</ele>
        <time>2021-08-04T11:50:17.432Z</time>
      </trkpt>
      <trkpt lat="46.98906" lon="8.67253">
        <ele>914</ele>
        <time>2021-08-04T11:50:18.432Z</time>
      </trkpt>
      <trkpt lat="46.98909" lon="8.67254">
        <ele>891</ele>
        <time>2021-08-04T11:50:19.433Z</time>
      </trkpt>
      <trkpt lat="46.98912" lon="8.67254">
        <ele>870</ele>
        <time>2021-08-04T11:50:20.432Z</time>
      </trkpt>
      <trkpt lat="46.98915" lon="8.67255">
        <ele>851</ele>
        <time>2021-08-04T11:50:21.433Z</time>
      </trkpt>
      <trkpt lat="46.98919" lon="8.67255">
        <ele>834</ele>
        <time>2021-08-04T11:50:22.433Z</time>
      </trkpt>
      <trkpt lat="46.98922" lon="8.67256">
        <ele>818</ele>
        <time>2021-08-04T11:50:23.433Z</time>
      </trkpt>
      <trkpt lat="46.98924" lon="8.67257">
        <ele>804</ele>
        <time>2021-08-04T11:50:24.432Z</time>
      </trkpt>
      <trkpt lat="46.98927" lon="8.67258">
        <ele>791</ele>
        <time>2021-08-04T11:50:25.433Z</time>
      </trkpt>
      <trkpt lat="46.9893" lon="8.67258">
        <ele>778</ele>
        <time>2021-08-04T11:50:26.433Z</time>
      </trkpt>
      <trkpt lat="46.98933" lon="8.67259">
        <ele>767</ele>
        <time>2021-08-04T11:50:27.432Z</time>
      </trkpt>
      <trkpt lat="46.98936" lon="8.6726">
        <ele>756</ele>
        <time>2021-08-04T11:50:28.433Z</time>
      </trkpt>
      <trkpt lat="46.98938" lon="8.6726">
        <ele>746</ele>
        <time>2021-08-04T11:50:35.578Z</time>
      </trkpt>
      <trkpt lat="46.98941" lon="8.67261">
        <ele>737</ele>
        <time>2021-08-04T11:50:36.579Z</time>
      </trkpt>
      <trkpt lat="46.98944" lon="8.67262">
        <ele>728</ele>
        <time>2021-08-04T11:50:37.578Z</time>
      </trkpt>
      <trkpt lat="46.98947" lon="8.67263">
        <ele>720</ele>
        <time>2021-08-04T11:50:38.579Z</time>
      </trkpt>
      <trkpt lat="46.98951" lon="8.67265">
        <ele>712</ele>
        <time>2021-08-04T11:50:39.579Z</time>
      </trkpt>
      <trkpt lat="46.98955" lon="8.67266">
        <ele>705</ele>
        <time>2021-08-04T11:50:40.578Z</time>
      </trkpt>
      <trkpt lat="46.98958" lon="8.67267">
        <ele>698</ele>
        <time>2021-08-04T11:50:41.579Z</time>
      </trkpt>
      <trkpt lat="46.98963" lon="8.67269">
        <ele>692</ele>
        <time>2021-08-04T11:50:42.578Z</time>
      </trkpt>
      <trkpt lat="46.98967" lon="8.67271">
        <ele>687</ele>
        <time>2021-08-04T11:50:43.578Z</time>
      </trkpt>
      <trkpt lat="46.9897" lon="8.67272">
        <ele>681</ele>
        <time>2021-08-04T11:50:44.578Z</time>
      </trkpt>
      <trkpt lat="46.98974" lon="8.67273">
        <ele>676</ele>
        <time>2021-08-04T11:50:45.578Z</time>
      </trkpt>
      <trkpt lat="46.98977" lon="8.67275">
        <ele>671</ele>
        <time>2021-08-04T11:50:46.578Z</time>
      </trkpt>
      <trkpt lat="46.9898" lon="8.67276">
        <ele>667</ele>
        <time>2021-08-04T11:50:47.578Z</time>
      </trkpt>
      <trkpt lat="46.98985" lon="8.67277">
        <ele>663</ele>
        <time>2021-08-04T11:50:48.578Z</time>
      </trkpt>
      <trkpt lat="46.98988" lon="8.67278">
        <ele>658</ele>
        <time>2021-08-04T11:50:49.579Z</time>
      </trkpt>
      <trkpt lat="46.98991" lon="8.6728">
        <ele>654</ele>
        <time>2021-08-04T11:50:50.579Z</time>
      </trkpt>
      <trkpt lat="46.98994" lon="8.6728">
        <ele>651</ele>
        <time>2021-08-04T11:50:51.579Z</time>
      </trkpt>
      <trkpt lat="46.98998" lon="8.67282">
        <ele>647</ele>
        <time>2021-08-04T11:50:52.578Z</time>
      </trkpt>
      <trkpt lat="46.99002" lon="8.67283">
        <ele>644</ele>
        <time>2021-08-04T11:50:53.578Z</time>
      </trkpt>
      <trkpt lat="46.99006" lon="8.67285">
        <ele>641</ele>
        <time>2021-08-04T11:50:54.578Z</time>
      </trkpt>
      <trkpt lat="46.99009" lon="8.67286">
        <ele>637</ele>
        <time>2021-08-04T11:50:55.579Z</time>
      </trkpt>
      <trkpt lat="46.99013" lon="8.67287">
        <ele>634</ele>
        <time>2021-08-04T11:50:56.578Z</time>
      </trkpt>
      <trkpt lat="46.99016" lon="8.67287">
        <ele>631</ele>
        <time>2021-08-04T11:50:57.578Z</time>
      </trkpt>
      <trkpt lat="46.99019" lon="8.67289">
        <ele>628</ele>
        <time>2021-08-04T11:50:58.578Z</time>
      </trkpt>
      <trkpt lat="46.99023" lon="8.67291">
        <ele>625</ele>
        <time>2021-08-04T11:50:59.578Z</time>
      </trkpt>
      <trkpt lat="46.99026" lon="8.67292">
        <ele>622</ele>
        <time>2021-08-04T11:51:00.578Z</time>
      </trkpt>
      <trkpt lat="46.99029" lon="8.67294">
        <ele>619</ele>
        <time>2021-08-04T11:51:01.579Z</time>
      </trkpt>
      <trkpt lat="46.99033" lon="8.67295">
        <ele>616</ele>
        <time>2021-08-04T11:51:02.578Z</time>
      </trkpt>
      <trkpt lat="46.99037" lon="8.67297">
        <ele>613</ele>
        <time>2021-08-04T11:51:03.578Z</time>
      </trkpt>
      <trkpt lat="46.99041" lon="8.67298">
        <ele>611</ele>
        <time>2021-08-04T11:51:04.579Z</time>
      </trkpt>
      <trkpt lat="46.99045" lon="8.673">
        <ele>608</ele>
        <time>2021-08-04T11:51:05.578Z</time>
      </trkpt>
      <trkpt lat="46.99048" lon="8.67302">
        <ele>605</ele>
        <time>2021-08-04T11:51:06.578Z</time>
      </trkpt>
      <trkpt lat="46.99052" lon="8.67304">
        <ele>602</ele>
        <time>2021-08-04T11:51:07.578Z</time>
      </trkpt>
      <trkpt lat="46.99055" lon="8.67305">
        <ele>599</ele>
        <time>2021-08-04T11:51:08.579Z</time>
      </trkpt>
      <trkpt lat="46.9906" lon="8.67307">
        <ele>597</ele>
        <time>2021-08-04T11:51:09.578Z</time>
      </trkpt>
      <trkpt lat="46.99064" lon="8.6731">
        <ele>594</ele>
        <time>2021-08-04T11:51:10.578Z</time>
      </trkpt>
      <trkpt lat="46.99068" lon="8.67311">
        <ele>592</ele>
        <time>2021-08-04T11:51:11.578Z</time>
      </trkpt>
      <trkpt lat="46.99071" lon="8.67313">
        <ele>590</ele>
        <time>2021-08-04T11:51:12.578Z</time>
      </trkpt>
      <trkpt lat="46.99075" lon="8.67315">
        <ele>588</ele>
        <time>2021-08-04T11:51:13.578Z</time>
      </trkpt>
      <trkpt lat="46.99078" lon="8.67317">
        <ele>586</ele>
        <time>2021-08-04T11:51:14.578Z</time>
      </trkpt>
      <trkpt lat="46.99081" lon="8.67318">
        <ele>585</ele>
        <time>2021-08-04T11:51:15.578Z</time>
      </trkpt>
      <trkpt lat="46.99083" lon="8.67319">
        <ele>583</ele>
        <time>2021-08-04T11:51:16.578Z</time>
      </trkpt>
      <trkpt lat="46.99085" lon="8.6732">
        <ele>582</ele>
        <time>2021-08-04T11:51:17.578Z</time>
      </trkpt>
      <trkpt lat="46.99087" lon="8.6732">
        <ele>580</ele>
        <time>2021-08-04T11:51:18.578Z</time>
      </trkpt>
      <trkpt lat="46.99089" lon="8.67321">
        <ele>579</ele>
        <time>2021-08-04T11:51:19.578Z</time>
      </trkpt>
      <trkpt lat="46.99091" lon="8.67322">
        <ele>578</ele>
        <time>2021-08-04T11:51:20.578Z</time>
      </trkpt>
      <trkpt lat="46.99093" lon="8.67322">
        <ele>577</ele>
        <time>2021-08-04T11:51:21.578Z</time>
      </trkpt>
      <trkpt lat="46.99093" lon="8.67323">
        <ele>575</ele>
        <time>2021-08-04T11:51:22.578Z</time>
      </trkpt>
      <trkpt lat="46.99095" lon="8.67324">
        <ele>574</ele>
        <time>2021-08-04T11:51:23.578Z</time>
      </trkpt>
      <trkpt lat="46.99096" lon="8.67325">
        <ele>573</ele>
        <time>2021-08-04T11:51:24.579Z</time>
      </trkpt>
      <trkpt lat="46.99097" lon="8.67326">
        <ele>572</ele>
        <time>2021-08-04T11:51:25.579Z</time>
      </trkpt>
      <trkpt lat="46.99097" lon="8.67325">
        <ele>572</ele>
        <time>2021-08-04T11:51:26.579Z</time>
      </trkpt>
      <trkpt lat="46.99098" lon="8.67326">
        <ele>572</ele>
        <time>2021-08-04T11:51:27.579Z</time>
      </trkpt>
      <trkpt lat="46.99099" lon="8.67326">
        <ele>571</ele>
        <time>2021-08-04T11:51:28.579Z</time>
      </trkpt>
      <trkpt lat="46.99101" lon="8.67328">
        <ele>571</ele>
        <time>2021-08-04T11:51:29.578Z</time>
      </trkpt>
      <trkpt lat="46.99101" lon="8.67327">
        <ele>571</ele>
        <time>2021-08-04T11:51:30.578Z</time>
      </trkpt>
      <trkpt lat="46.99101" lon="8.67327">
        <ele>571</ele>
        <time>2021-08-04T11:51:31.579Z</time>
      </trkpt>
      <trkpt lat="46.991" lon="8.67325">
        <ele>572</ele>
        <time>2021-08-04T11:51:32.579Z</time>
      </trkpt>
      <trkpt lat="46.991" lon="8.67325">
        <ele>572</ele>
        <time>2021-08-04T11:51:33.579Z</time>
      </trkpt>
      <trkpt lat="46.991" lon="8.67325">
        <ele>572</ele>
        <time>2021-08-04T11:51:34.579Z</time>
      </trkpt>
      <trkpt lat="46.99102" lon="8.67326">
        <ele>572</ele>
        <time>2021-08-04T11:51:35.578Z</time>
      </trkpt>
      <trkpt lat="46.99103" lon="8.67327">
        <ele>571</ele>
        <time>2021-08-04T11:51:36.578Z</time>
      </trkpt>
      <trkpt lat="46.99106" lon="8.67329">
        <ele>571</ele>
        <time>2021-08-04T11:51:37.578Z</time>
      </trkpt>
      <trkpt lat="46.99109" lon="8.6733">
        <ele>572</ele>
        <time>2021-08-04T11:51:38.579Z</time>
      </trkpt>
      <trkpt lat="46.99112" lon="8.67331">
        <ele>572</ele>
        <time>2021-08-04T11:51:39.578Z</time>
      </trkpt>
      <trkpt lat="46.99114" lon="8.67332">
        <ele>572</ele>
        <time>2021-08-04T11:51:40.579Z</time>
      </trkpt>
      <trkpt lat="46.99115" lon="8.67332">
        <ele>573</ele>
        <time>2021-08-04T11:51:41.579Z</time>
      </trkpt>
      <trkpt lat="46.99117" lon="8.67331">
        <ele>574</ele>
        <time>2021-08-04T11:51:42.578Z</time>
      </trkpt>
      <trkpt lat="46.99118" lon="8.67332">
        <ele>574</ele>
        <time>2021-08-04T11:51:43.579Z</time>
      </trkpt>
      <trkpt lat="46.99119" lon="8.67332">
        <ele>575</ele>
        <time>2021-08-04T11:51:44.579Z</time>
      </trkpt>
      <trkpt lat="46.9912" lon="8.67332">
        <ele>575</ele>
        <time>2021-08-04T11:51:45.579Z</time>
      </trkpt>
      <trkpt lat="46.99121" lon="8.67331">
        <ele>576</ele>
        <time>2021-08-04T11:51:46.579Z</time>
      </trkpt>
      <trkpt lat="46.99123" lon="8.67331">
        <ele>576</ele>
        <time>2021-08-04T11:51:47.579Z</time>
      </trkpt>
      <trkpt lat="46.99125" lon="8.6733">
        <ele>577</ele>
        <time>2021-08-04T11:51:48.579Z</time>
      </trkpt>
      <trkpt lat="46.99127" lon="8.67328">
        <ele>577</ele>
        <time>2021-08-04T11:51:49.578Z</time>
      </trkpt>
      <trkpt lat="46.99128" lon="8.67327">
        <ele>577</ele>
        <time>2021-08-04T11:51:50.579Z</time>
      </trkpt>
      <trkpt lat="46.99129" lon="8.67326">
        <ele>576</ele>
        <time>2021-08-04T11:51:51.579Z</time>
      </trkpt>
      <trkpt lat="46.99129" lon="8.67326">
        <ele>576</ele>
        <time>2021-08-04T11:51:52.578Z</time>
      </trkpt>
      <trkpt lat="46.9913" lon="8.67327">
        <ele>575</ele>
        <time>2021-08-04T11:51:53.578Z</time>
      </trkpt>
      <trkpt lat="46.99132" lon="8.67328">
        <ele>575</ele>
        <time>2021-08-04T11:51:54.578Z</time>
      </trkpt>
      <trkpt lat="46.99133" lon="8.67328">
        <ele>574</ele>
        <time>2021-08-04T11:51:55.579Z</time>
      </trkpt>
      <trkpt lat="46.99134" lon="8.67328">
        <ele>574</ele>
        <time>2021-08-04T11:51:56.579Z</time>
      </trkpt>
      <trkpt lat="46.99135" lon="8.67329">
        <ele>573</ele>
        <time>2021-08-04T11:51:57.579Z</time>
      </trkpt>
      <trkpt lat="46.99135" lon="8.67329">
        <ele>573</ele>
        <time>2021-08-04T11:51:58.579Z</time>
      </trkpt>
      <trkpt lat="46.99136" lon="8.67329">
        <ele>573</ele>
        <time>2021-08-04T11:51:59.578Z</time>
      </trkpt>
      <trkpt lat="46.99135" lon="8.67329">
        <ele>573</ele>
        <time>2021-08-04T11:52:00.579Z</time>
      </trkpt>
      <trkpt lat="46.99136" lon="8.67329">
        <ele>572</ele>
        <time>2021-08-04T11:52:01.579Z</time>
      </trkpt>
      <trkpt lat="46.99137" lon="8.6733">
        <ele>572</ele>
        <time>2021-08-04T11:52:02.578Z</time>
      </trkpt>
      <trkpt lat="46.99136" lon="8.67331">
        <ele>572</ele>
        <time>2021-08-04T11:52:03.579Z</time>
      </trkpt>
      <trkpt lat="46.99135" lon="8.67331">
        <ele>572</ele>
        <time>2021-08-04T11:52:04.578Z</time>
      </trkpt>
      <trkpt lat="46.99132" lon="8.67331">
        <ele>572</ele>
        <time>2021-08-04T11:52:05.578Z</time>
      </trkpt>
      <trkpt lat="46.99129" lon="8.67331">
        <ele>572</ele>
        <time>2021-08-04T11:52:06.579Z</time>
      </trkpt>
      <trkpt lat="46.99126" lon="8.67329">
        <ele>572</ele>
        <time>2021-08-04T11:52:07.579Z</time>
      </trkpt>
      <trkpt lat="46.99125" lon="8.67328">
        <ele>572</ele>
        <time>2021-08-04T11:52:08.579Z</time>
      </trkpt>
      <trkpt lat="46.99123" lon="8.67327">
        <ele>571</ele>
        <time>2021-08-04T11:52:09.578Z</time>
      </trkpt>
      <trkpt lat="46.99124" lon="8.6733">
        <ele>571</ele>
        <time>2021-08-04T11:52:10.578Z</time>
      </trkpt>
      <trkpt lat="46.99124" lon="8.67331">
        <ele>571</ele>
        <time>2021-08-04T11:52:11.579Z</time>
      </trkpt>
      <trkpt lat="46.99124" lon="8.67331">
        <ele>570</ele>
        <time>2021-08-04T11:52:12.579Z</time>
      </trkpt>
      <trkpt lat="46.99124" lon="8.6733">
        <ele>570</ele>
        <time>2021-08-04T11:52:13.578Z</time>
      </trkpt>
      <trkpt lat="46.99123" lon="8.6733">
        <ele>570</ele>
        <time>2021-08-04T11:52:14.578Z</time>
      </trkpt>
      <trkpt lat="46.99121" lon="8.67329">
        <ele>570</ele>
        <time>2021-08-04T11:52:15.579Z</time>
      </trkpt>
      <trkpt lat="46.99121" lon="8.67329">
        <ele>569</ele>
        <time>2021-08-04T11:52:16.579Z</time>
      </trkpt>
      <trkpt lat="46.99121" lon="8.67329">
        <ele>569</ele>
        <time>2021-08-04T11:52:17.579Z</time>
      </trkpt>
      <trkpt lat="46.99121" lon="8.67329">
        <ele>569</ele>
        <time>2021-08-04T11:52:18.578Z</time>
      </trkpt>
      <trkpt lat="46.99122" lon="8.67329">
        <ele>569</ele>
        <time>2021-08-04T11:52:19.579Z</time>
      </trkpt>
      <trkpt lat="46.99123" lon="8.6733">
        <ele>569</ele>
        <time>2021-08-04T11:52:20.579Z</time>
      </trkpt>
      <trkpt lat="46.99124" lon="8.6733">
        <ele>568</ele>
        <time>2021-08-04T11:52:21.579Z</time>
      </trkpt>
      <trkpt lat="46.99124" lon="8.6733">
        <ele>568</ele>
        <time>2021-08-04T11:52:22.579Z</time>
      </trkpt>
      <trkpt lat="46.99125" lon="8.67329">
        <ele>568</ele>
        <time>2021-08-04T11:52:23.578Z</time>
      </trkpt>
      <trkpt lat="46.99124" lon="8.67329">
        <ele>568</ele>
        <time>2021-08-04T11:52:24.578Z</time>
      </trkpt>
      <trkpt lat="46.99125" lon="8.67328">
        <ele>568</ele>
        <time>2021-08-04T11:52:25.578Z</time>
      </trkpt>
      <trkpt lat="46.99124" lon="8.67328">
        <ele>568</ele>
        <time>2021-08-04T11:52:26.579Z</time>
      </trkpt>
      <trkpt lat="46.99125" lon="8.67328">
        <ele>568</ele>
        <time>2021-08-04T11:52:27.579Z</time>
      </trkpt>
      <trkpt lat="46.99124" lon="8.67327">
        <ele>568</ele>
        <time>2021-08-04T11:52:28.579Z</time>
      </trkpt>
      <trkpt lat="46.99124" lon="8.67327">
        <ele>568</ele>
        <time>2021-08-04T11:52:29.578Z</time>
      </trkpt>
      <trkpt lat="46.99123" lon="8.67327">
        <ele>568</ele>
        <time>2021-08-04T11:52:30.578Z</time>
      </trkpt>
      <trkpt lat="46.99122" lon="8.67328">
        <ele>568</ele>
        <time>2021-08-04T11:52:31.579Z</time>
      </trkpt>
      <trkpt lat="46.99122" lon="8.67329">
        <ele>567</ele>
        <time>2021-08-04T11:52:32.579Z</time>
      </trkpt>
      <trkpt lat="46.99122" lon="8.67331">
        <ele>567</ele>
        <time>2021-08-04T11:52:33.578Z</time>
      </trkpt>
      <trkpt lat="46.99122" lon="8.67332">
        <ele>567</ele>
        <time>2021-08-04T11:52:34.579Z</time>
      </trkpt>
      <trkpt lat="46.99123" lon="8.67335">
        <ele>567</ele>
        <time>2021-08-04T11:52:35.579Z</time>
      </trkpt>
      <trkpt lat="46.99122" lon="8.67336">
        <ele>566</ele>
        <time>2021-08-04T11:52:36.579Z</time>
      </trkpt>
      <trkpt lat="46.99121" lon="8.67336">
        <ele>566</ele>
        <time>2021-08-04T11:52:37.579Z</time>
      </trkpt>
      <trkpt lat="46.9912" lon="8.67336">
        <ele>565</ele>
        <time>2021-08-04T11:52:38.578Z</time>
      </trkpt>
      <trkpt lat="46.99119" lon="8.67335">
        <ele>565</ele>
        <time>2021-08-04T11:52:39.579Z</time>
      </trkpt>
      <trkpt lat="46.99119" lon="8.67335">
        <ele>565</ele>
        <time>2021-08-04T11:52:40.578Z</time>
      </trkpt>
      <trkpt lat="46.9912" lon="8.67335">
        <ele>564</ele>
        <time>2021-08-04T11:52:41.578Z</time>
      </trkpt>
      <trkpt lat="46.99121" lon="8.67335">
        <ele>564</ele>
        <time>2021-08-04T11:52:42.579Z</time>
      </trkpt>
      <trkpt lat="46.99121" lon="8.67335">
        <ele>564</ele>
        <time>2021-08-04T11:52:45.632Z</time>
      </trkpt>
      <trkpt lat="46.99121" lon="8.67334">
        <ele>564</ele>
        <time>2021-08-04T11:52:46.633Z</time>
      </trkpt>
      <trkpt lat="46.99121" lon="8.67336">
        <ele>563</ele>
        <time>2021-08-04T11:52:47.634Z</time>
      </trkpt>
      <trkpt lat="46.99121" lon="8.67337">
        <ele>563</ele>
        <time>2021-08-04T11:52:48.634Z</time>
      </trkpt>
      <trkpt lat="46.99121" lon="8.67338">
        <ele>562</ele>
        <time>2021-08-04T11:52:49.634Z</time>
      </trkpt>
      <trkpt lat="46.99122" lon="8.67339">
        <ele>562</ele>
        <time>2021-08-04T11:52:50.633Z</time>
      </trkpt>
      <trkpt lat="46.99122" lon="8.67341">
        <ele>562</ele>
        <time>2021-08-04T11:52:51.633Z</time>
      </trkpt>
      <trkpt lat="46.99123" lon="8.67342">
        <ele>561</ele>
        <time>2021-08-04T11:52:52.633Z</time>
      </trkpt>
      <trkpt lat="46.99125" lon="8.67344">
        <ele>561</ele>
        <time>2021-08-04T11:52:53.634Z</time>
      </trkpt>
      <trkpt lat="46.99126" lon="8.67345">
        <ele>561</ele>
        <time>2021-08-04T11:52:54.634Z</time>
      </trkpt>
      <trkpt lat="46.99127" lon="8.67346">
        <ele>560</ele>
        <time>2021-08-04T11:52:55.634Z</time>
      </trkpt>
      <trkpt lat="46.99129" lon="8.67348">
        <ele>560</ele>
        <time>2021-08-04T11:52:56.633Z</time>
      </trkpt>
      <trkpt lat="46.99134" lon="8.67352">
        <ele>559</ele>
        <time>2021-08-04T11:52:57.634Z</time>
      </trkpt>
      <trkpt lat="46.99139" lon="8.67355">
        <ele>558</ele>
        <time>2021-08-04T11:52:58.634Z</time>
      </trkpt>
      <trkpt lat="46.99142" lon="8.67355">
        <ele>558</ele>
        <time>2021-08-04T11:52:59.634Z</time>
      </trkpt>
      <trkpt lat="46.99143" lon="8.67355">
        <ele>558</ele>
        <time>2021-08-04T11:53:00.634Z</time>
      </trkpt>
      <trkpt lat="46.99143" lon="8.67355">
        <ele>558</ele>
        <time>2021-08-04T11:53:01.634Z</time>
      </trkpt>
      <trkpt lat="46.99143" lon="8.67355">
        <ele>558</ele>
        <time>2021-08-04T11:53:03.660Z</time>
      </trkpt>
      <trkpt lat="46.99144" lon="8.67355">
        <ele>558</ele>
        <time>2021-08-04T11:53:04.661Z</time>
      </trkpt>
      <trkpt lat="46.99144" lon="8.67356">
        <ele>558</ele>
        <time>2021-08-04T11:53:05.661Z</time>
      </trkpt>
      <trkpt lat="46.99145" lon="8.67356">
        <ele>558</ele>
        <time>2021-08-04T11:53:06.661Z</time>
      </trkpt>
      <trkpt lat="46.99146" lon="8.67356">
        <ele>558</ele>
        <time>2021-08-04T11:53:07.660Z</time>
      </trkpt>
      <trkpt lat="46.99146" lon="8.67355">
        <ele>557</ele>
        <time>2021-08-04T11:53:08.660Z</time>
      </trkpt>
      <trkpt lat="46.99146" lon="8.67354">
        <ele>557</ele>
        <time>2021-08-04T11:53:09.661Z</time>
      </trkpt>
      <trkpt lat="46.99146" lon="8.67352">
        <ele>558</ele>
        <time>2021-08-04T11:53:10.660Z</time>
      </trkpt>
      <trkpt lat="46.99146" lon="8.67351">
        <ele>559</ele>
        <time>2021-08-04T11:53:11.661Z</time>
      </trkpt>
      <trkpt lat="46.99146" lon="8.6735">
        <ele>560</ele>
        <time>2021-08-04T11:53:12.661Z</time>
      </trkpt>
      <trkpt lat="46.99145" lon="8.67349">
        <ele>561</ele>
        <time>2021-08-04T11:53:13.660Z</time>
      </trkpt>
      <trkpt lat="46.99145" lon="8.67347">
        <ele>562</ele>
        <time>2021-08-04T11:53:14.661Z</time>
      </trkpt>
      <trkpt lat="46.99144" lon="8.67346">
        <ele>563</ele>
        <time>2021-08-04T11:53:15.661Z</time>
      </trkpt>
      <trkpt lat="46.99144" lon="8.67345">
        <ele>564</ele>
        <time>2021-08-04T11:53:16.661Z</time>
      </trkpt>
      <trkpt lat="46.99144" lon="8.67345">
        <ele>565</ele>
        <time>2021-08-04T11:53:17.661Z</time>
      </trkpt>
      <trkpt lat="46.99144" lon="8.67344">
        <ele>565</ele>
        <time>2021-08-04T11:53:18.661Z</time>
      </trkpt>
      <trkpt lat="46.99145" lon="8.67343">
        <ele>566</ele>
        <time>2021-08-04T11:53:19.661Z</time>
      </trkpt>
      <trkpt lat="46.99146" lon="8.67342">
        <ele>567</ele>
        <time>2021-08-04T11:53:20.660Z</time>
      </trkpt>
      <trkpt lat="46.99147" lon="8.67342">
        <ele>567</ele>
        <time>2021-08-04T11:53:21.660Z</time>
      </trkpt>
      <trkpt lat="46.99148" lon="8.67341">
        <ele>568</ele>
        <time>2021-08-04T11:53:22.661Z</time>
      </trkpt>
      <trkpt lat="46.99147" lon="8.67339">
        <ele>568</ele>
        <time>2021-08-04T11:53:23.661Z</time>
      </trkpt>
      <trkpt lat="46.99147" lon="8.67338">
        <ele>569</ele>
        <time>2021-08-04T11:53:24.661Z</time>
      </trkpt>
      <trkpt lat="46.99147" lon="8.67337">
        <ele>569</ele>
        <time>2021-08-04T11:53:25.661Z</time>
      </trkpt>
      <trkpt lat="46.99148" lon="8.67335">
        <ele>569</ele>
        <time>2021-08-04T11:53:26.660Z</time>
      </trkpt>
      <trkpt lat="46.99147" lon="8.67334">
        <ele>570</ele>
        <time>2021-08-04T11:53:27.661Z</time>
      </trkpt>
      <trkpt lat="46.99147" lon="8.67333">
        <ele>570</ele>
        <time>2021-08-04T11:53:28.661Z</time>
      </trkpt>
      <trkpt lat="46.99148" lon="8.67333">
        <ele>570</ele>
        <time>2021-08-04T11:53:29.661Z</time>
      </trkpt>
      <trkpt lat="46.99149" lon="8.67334">
        <ele>571</ele>
        <time>2021-08-04T11:53:30.661Z</time>
      </trkpt>
      <trkpt lat="46.9915" lon="8.67335">
        <ele>571</ele>
        <time>2021-08-04T11:53:31.660Z</time>
      </trkpt>
      <trkpt lat="46.99151" lon="8.67335">
        <ele>571</ele>
        <time>2021-08-04T11:53:32.661Z</time>
      </trkpt>
      <trkpt lat="46.99151" lon="8.67335">
        <ele>572</ele>
        <time>2021-08-04T11:53:33.661Z</time>
      </trkpt>
      <trkpt lat="46.99151" lon="8.67335">
        <ele>572</ele>
        <time>2021-08-04T11:53:34.661Z</time>
      </trkpt>
      <trkpt lat="46.99152" lon="8.67334">
        <ele>571</ele>
        <time>2021-08-04T11:53:35.661Z</time>
      </trkpt>
      <trkpt lat="46.99152" lon="8.67334">
        <ele>572</ele>
        <time>2021-08-04T11:53:36.661Z</time>
      </trkpt>
      <trkpt lat="46.99152" lon="8.67335">
        <ele>572</ele>
        <time>2021-08-04T11:53:37.661Z</time>
      </trkpt>
      <trkpt lat="46.99154" lon="8.67335">
        <ele>572</ele>
        <time>2021-08-04T11:53:38.661Z</time>
      </trkpt>
      <trkpt lat="46.99155" lon="8.67336">
        <ele>572</ele>
        <time>2021-08-04T11:53:39.662Z</time>
      </trkpt>
      <trkpt lat="46.99155" lon="8.67336">
        <ele>572</ele>
        <time>2021-08-04T11:53:40.662Z</time>
      </trkpt>
      <trkpt lat="46.99157" lon="8.67336">
        <ele>572</ele>
        <time>2021-08-04T11:53:41.662Z</time>
      </trkpt>
      <trkpt lat="46.99158" lon="8.67337">
        <ele>572</ele>
        <time>2021-08-04T11:53:42.661Z</time>
      </trkpt>
      <trkpt lat="46.9916" lon="8.67338">
        <ele>572</ele>
        <time>2021-08-04T11:53:43.661Z</time>
      </trkpt>
      <trkpt lat="46.99162" lon="8.67339">
        <ele>572</ele>
        <time>2021-08-04T11:53:44.661Z</time>
      </trkpt>
      <trkpt lat="46.99163" lon="8.67339">
        <ele>571</ele>
        <time>2021-08-04T11:53:45.662Z</time>
      </trkpt>
      <trkpt lat="46.99165" lon="8.6734">
        <ele>571</ele>
        <time>2021-08-04T11:53:46.661Z</time>
      </trkpt>
      <trkpt lat="46.99165" lon="8.6734">
        <ele>571</ele>
        <time>2021-08-04T11:53:47.662Z</time>
      </trkpt>
      <trkpt lat="46.99165" lon="8.6734">
        <ele>571</ele>
        <time>2021-08-04T11:53:48.661Z</time>
      </trkpt>
      <trkpt lat="46.99165" lon="8.67339">
        <ele>571</ele>
        <time>2021-08-04T11:53:49.661Z</time>
      </trkpt>
      <trkpt lat="46.99165" lon="8.67338">
        <ele>571</ele>
        <time>2021-08-04T11:53:50.661Z</time>
      </trkpt>
      <trkpt lat="46.99165" lon="8.67338">
        <ele>572</ele>
        <time>2021-08-04T11:53:51.661Z</time>
      </trkpt>
      <trkpt lat="46.99164" lon="8.67336">
        <ele>572</ele>
        <time>2021-08-04T11:53:52.662Z</time>
      </trkpt>
      <trkpt lat="46.99165" lon="8.67335">
        <ele>573</ele>
        <time>2021-08-04T11:53:53.662Z</time>
      </trkpt>
      <trkpt lat="46.99165" lon="8.67335">
        <ele>574</ele>
        <time>2021-08-04T11:53:54.661Z</time>
      </trkpt>
      <trkpt lat="46.99166" lon="8.67334">
        <ele>574</ele>
        <time>2021-08-04T11:53:55.662Z</time>
      </trkpt>
      <trkpt lat="46.99166" lon="8.67334">
        <ele>575</ele>
        <time>2021-08-04T11:53:56.661Z</time>
      </trkpt>
      <trkpt lat="46.99167" lon="8.67333">
        <ele>576</ele>
        <time>2021-08-04T11:53:57.662Z</time>
      </trkpt>
      <trkpt lat="46.99167" lon="8.67332">
        <ele>577</ele>
        <time>2021-08-04T11:53:58.661Z</time>
      </trkpt>
      <trkpt lat="46.99168" lon="8.67331">
        <ele>578</ele>
        <time>2021-08-04T11:53:59.661Z</time>
      </trkpt>
      <trkpt lat="46.99168" lon="8.6733">
        <ele>578</ele>
        <time>2021-08-04T11:54:00.662Z</time>
      </trkpt>
      <trkpt lat="46.99168" lon="8.67329">
        <ele>578</ele>
        <time>2021-08-04T11:54:01.662Z</time>
      </trkpt>
      <trkpt lat="46.99169" lon="8.67329">
        <ele>576</ele>
        <time>2021-08-04T11:54:02.661Z</time>
      </trkpt>
      <trkpt lat="46.99169" lon="8.67328">
        <ele>575</ele>
        <time>2021-08-04T11:54:03.661Z</time>
      </trkpt>
      <trkpt lat="46.99169" lon="8.67327">
        <ele>573</ele>
        <time>2021-08-04T11:54:04.662Z</time>
      </trkpt>
      <trkpt lat="46.99168" lon="8.67326">
        <ele>572</ele>
        <time>2021-08-04T11:54:05.662Z</time>
      </trkpt>
      <trkpt lat="46.99168" lon="8.67324">
        <ele>570</ele>
        <time>2021-08-04T11:54:06.662Z</time>
      </trkpt>
      <trkpt lat="46.99168" lon="8.67323">
        <ele>569</ele>
        <time>2021-08-04T11:54:07.661Z</time>
      </trkpt>
      <trkpt lat="46.99169" lon="8.67322">
        <ele>568</ele>
        <time>2021-08-04T11:54:08.661Z</time>
      </trkpt>
      <trkpt lat="46.9917" lon="8.67322">
        <ele>567</ele>
        <time>2021-08-04T11:54:09.662Z</time>
      </trkpt>
      <trkpt lat="46.9917" lon="8.67321">
        <ele>567</ele>
        <time>2021-08-04T11:54:10.661Z</time>
      </trkpt>
      <trkpt lat="46.9917" lon="8.6732">
        <ele>566</ele>
        <time>2021-08-04T11:54:11.661Z</time>
      </trkpt>
      <trkpt lat="46.9917" lon="8.67319">
        <ele>565</ele>
        <time>2021-08-04T11:54:12.661Z</time>
      </trkpt>
      <trkpt lat="46.9917" lon="8.67318">
        <ele>565</ele>
        <time>2021-08-04T11:54:13.662Z</time>
      </trkpt>
      <trkpt lat="46.99172" lon="8.67319">
        <ele>564</ele>
        <time>2021-08-04T11:54:14.661Z</time>
      </trkpt>
      <trkpt lat="46.99173" lon="8.67319">
        <ele>564</ele>
        <time>2021-08-04T11:54:15.662Z</time>
      </trkpt>
      <trkpt lat="46.99173" lon="8.67318">
        <ele>564</ele>
        <time>2021-08-04T11:54:16.661Z</time>
      </trkpt>
      <trkpt lat="46.99172" lon="8.67316">
        <ele>564</ele>
        <time>2021-08-04T11:54:19.637Z</time>
      </trkpt>
      <trkpt lat="46.99171" lon="8.67316">
        <ele>564</ele>
        <time>2021-08-04T11:54:20.637Z</time>
      </trkpt>
      <trkpt lat="46.99171" lon="8.67317">
        <ele>564</ele>
        <time>2021-08-04T11:54:21.637Z</time>
      </trkpt>
      <trkpt lat="46.99172" lon="8.67319">
        <ele>564</ele>
        <time>2021-08-04T11:54:22.637Z</time>
      </trkpt>
      <trkpt lat="46.99167" lon="8.67318">
        <ele>560</ele>
        <time>2021-08-04T11:54:23.639Z</time>
      </trkpt>
      <trkpt lat="46.99168" lon="8.67318">
        <ele>560</ele>
        <time>2021-08-04T11:54:24.638Z</time>
      </trkpt>
      <trkpt lat="46.99168" lon="8.67318">
        <ele>560</ele>
        <time>2021-08-04T11:54:25.638Z</time>
      </trkpt>
      <trkpt lat="46.99168" lon="8.67317">
        <ele>561</ele>
        <time>2021-08-04T11:54:26.638Z</time>
      </trkpt>
      <trkpt lat="46.99169" lon="8.67315">
        <ele>562</ele>
        <time>2021-08-04T11:54:27.638Z</time>
      </trkpt>
      <trkpt lat="46.99169" lon="8.67315">
        <ele>563</ele>
        <time>2021-08-04T11:54:28.638Z</time>
      </trkpt>
      <trkpt lat="46.9917" lon="8.67314">
        <ele>563</ele>
        <time>2021-08-04T11:54:29.638Z</time>
      </trkpt>
      <trkpt lat="46.9917" lon="8.67312">
        <ele>563</ele>
        <time>2021-08-04T11:54:30.639Z</time>
      </trkpt>
      <trkpt lat="46.99171" lon="8.67311">
        <ele>563</ele>
        <time>2021-08-04T11:54:31.638Z</time>
      </trkpt>
      <trkpt lat="46.99171" lon="8.67309">
        <ele>563</ele>
        <time>2021-08-04T11:54:32.638Z</time>
      </trkpt>
      <trkpt lat="46.99171" lon="8.67307">
        <ele>564</ele>
        <time>2021-08-04T11:54:33.638Z</time>
      </trkpt>
      <trkpt lat="46.9917" lon="8.67305">
        <ele>564</ele>
        <time>2021-08-04T11:54:34.639Z</time>
      </trkpt>
      <trkpt lat="46.99169" lon="8.67303">
        <ele>564</ele>
        <time>2021-08-04T11:54:35.638Z</time>
      </trkpt>
      <trkpt lat="46.99169" lon="8.67302">
        <ele>565</ele>
        <time>2021-08-04T11:54:36.638Z</time>
      </trkpt>
      <trkpt lat="46.99168" lon="8.673">
        <ele>565</ele>
        <time>2021-08-04T11:54:37.638Z</time>
      </trkpt>
      <trkpt lat="46.99168" lon="8.67299">
        <ele>565</ele>
        <time>2021-08-04T11:54:38.639Z</time>
      </trkpt>
      <trkpt lat="46.99167" lon="8.67297">
        <ele>565</ele>
        <time>2021-08-04T11:54:39.638Z</time>
      </trkpt>
      <trkpt lat="46.99166" lon="8.67296">
        <ele>565</ele>
        <time>2021-08-04T11:54:44.785Z</time>
      </trkpt>
      <trkpt lat="46.99164" lon="8.67294">
        <ele>566</ele>
        <time>2021-08-04T11:54:45.784Z</time>
      </trkpt>
      <trkpt lat="46.99164" lon="8.67294">
        <ele>566</ele>
        <time>2021-08-04T11:54:46.784Z</time>
      </trkpt>
      <trkpt lat="46.99163" lon="8.67292">
        <ele>566</ele>
        <time>2021-08-04T11:54:47.784Z</time>
      </trkpt>
      <trkpt lat="46.99161" lon="8.67291">
        <ele>567</ele>
        <time>2021-08-04T11:54:48.785Z</time>
      </trkpt>
      <trkpt lat="46.9916" lon="8.67289">
        <ele>567</ele>
        <time>2021-08-04T11:54:49.784Z</time>
      </trkpt>
      <trkpt lat="46.9916" lon="8.67289">
        <ele>568</ele>
        <time>2021-08-04T11:54:50.785Z</time>
      </trkpt>
      <trkpt lat="46.9916" lon="8.67288">
        <ele>568</ele>
        <time>2021-08-04T11:54:51.784Z</time>
      </trkpt>
      <trkpt lat="46.99159" lon="8.67286">
        <ele>569</ele>
        <time>2021-08-04T11:54:52.785Z</time>
      </trkpt>
      <trkpt lat="46.99159" lon="8.67284">
        <ele>569</ele>
        <time>2021-08-04T11:54:53.784Z</time>
      </trkpt>
      <trkpt lat="46.99158" lon="8.67282">
        <ele>569</ele>
        <time>2021-08-04T11:54:54.784Z</time>
      </trkpt>
      <trkpt lat="46.99157" lon="8.67281">
        <ele>570</ele>
        <time>2021-08-04T11:54:59.904Z</time>
      </trkpt>
      <trkpt lat="46.99157" lon="8.67279">
        <ele>570</ele>
        <time>2021-08-04T11:55:09.765Z</time>
      </trkpt>
      <trkpt lat="46.99156" lon="8.67278">
        <ele>571</ele>
        <time>2021-08-04T11:55:10.764Z</time>
      </trkpt>
      <trkpt lat="46.99155" lon="8.67276">
        <ele>571</ele>
        <time>2021-08-04T11:55:20.552Z</time>
      </trkpt>
      <trkpt lat="46.99155" lon="8.67276">
        <ele>572</ele>
        <time>2021-08-04T11:55:21.552Z</time>
      </trkpt>
      <trkpt lat="46.99154" lon="8.67275">
        <ele>572</ele>
        <time>2021-08-04T11:55:22.552Z</time>
      </trkpt>
      <trkpt lat="46.99154" lon="8.67275">
        <ele>573</ele>
        <time>2021-08-04T11:55:23.552Z</time>
      </trkpt>
      <trkpt lat="46.99153" lon="8.67273">
        <ele>573</ele>
        <time>2021-08-04T11:55:24.552Z</time>
      </trkpt>
      <trkpt lat="46.99153" lon="8.67271">
        <ele>574</ele>
        <time>2021-08-04T11:55:25.552Z</time>
      </trkpt>
      <trkpt lat="46.99152" lon="8.6727">
        <ele>575</ele>
        <time>2021-08-04T11:55:27.640Z</time>
      </trkpt>
      <trkpt lat="46.99152" lon="8.67269">
        <ele>575</ele>
        <time>2021-08-04T11:55:31.513Z</time>
      </trkpt>
      <trkpt lat="46.99151" lon="8.67267">
        <ele>576</ele>
        <time>2021-08-04T11:55:32.513Z</time>
      </trkpt>
      <trkpt lat="46.99151" lon="8.67266">
        <ele>577</ele>
        <time>2021-08-04T11:55:33.513Z</time>
      </trkpt>
      <trkpt lat="46.99151" lon="8.67265">
        <ele>577</ele>
        <time>2021-08-04T11:55:34.514Z</time>
      </trkpt>
      <trkpt lat="46.99151" lon="8.67264">
        <ele>578</ele>
        <time>2021-08-04T11:55:35.513Z</time>
      </trkpt>
      <trkpt lat="46.99151" lon="8.67263">
        <ele>578</ele>
        <time>2021-08-04T11:55:36.513Z</time>
      </trkpt>
      <trkpt lat="46.9915" lon="8.67262">
        <ele>579</ele>
        <time>2021-08-04T11:55:37.513Z</time>
      </trkpt>
      <trkpt lat="46.9915" lon="8.67261">
        <ele>579</ele>
        <time>2021-08-04T11:55:38.514Z</time>
      </trkpt>
      <trkpt lat="46.99149" lon="8.6726">
        <ele>580</ele>
        <time>2021-08-04T11:55:39.514Z</time>
      </trkpt>
      <trkpt lat="46.99148" lon="8.67259">
        <ele>580</ele>
        <time>2021-08-04T11:55:40.513Z</time>
      </trkpt>
      <trkpt lat="46.99148" lon="8.67258">
        <ele>580</ele>
        <time>2021-08-04T11:55:41.514Z</time>
      </trkpt>
      <trkpt lat="46.99147" lon="8.67257">
        <ele>581</ele>
        <time>2021-08-04T11:55:42.513Z</time>
      </trkpt>
      <trkpt lat="46.99146" lon="8.67255">
        <ele>581</ele>
        <time>2021-08-04T11:55:43.514Z</time>
      </trkpt>
      <trkpt lat="46.99145" lon="8.67254">
        <ele>581</ele>
        <time>2021-08-04T11:55:44.513Z</time>
      </trkpt>
      <trkpt lat="46.99145" lon="8.67255">
        <ele>581</ele>
        <time>2021-08-04T11:55:45.513Z</time>
      </trkpt>
      <trkpt lat="46.99145" lon="8.67257">
        <ele>581</ele>
        <time>2021-08-04T11:55:46.513Z</time>
      </trkpt>
      <trkpt lat="46.99146" lon="8.6726">
        <ele>582</ele>
        <time>2021-08-04T11:55:49.657Z</time>
      </trkpt>
      <trkpt lat="46.99146" lon="8.6726">
        <ele>582</ele>
        <time>2021-08-04T11:55:50.657Z</time>
      </trkpt>
      <trkpt lat="46.99146" lon="8.67259">
        <ele>582</ele>
        <time>2021-08-04T11:55:51.658Z</time>
      </trkpt>
      <trkpt lat="46.99147" lon="8.67258">
        <ele>582</ele>
        <time>2021-08-04T11:55:52.658Z</time>
      </trkpt>
      <trkpt lat="46.99147" lon="8.67258">
        <ele>582</ele>
        <time>2021-08-04T11:55:53.658Z</time>
      </trkpt>
      <trkpt lat="46.99147" lon="8.67257">
        <ele>582</ele>
        <time>2021-08-04T11:56:01.805Z</time>
      </trkpt>
      <trkpt lat="46.99147" lon="8.67256">
        <ele>583</ele>
        <time>2021-08-04T11:56:02.805Z</time>
      </trkpt>
      <trkpt lat="46.99147" lon="8.67255">
        <ele>583</ele>
        <time>2021-08-04T11:56:03.806Z</time>
      </trkpt>
      <trkpt lat="46.99147" lon="8.67254">
        <ele>583</ele>
        <time>2021-08-04T11:56:04.806Z</time>
      </trkpt>
      <trkpt lat="46.99146" lon="8.67253">
        <ele>583</ele>
        <time>2021-08-04T11:56:05.805Z</time>
      </trkpt>
      <trkpt lat="46.99146" lon="8.67252">
        <ele>583</ele>
        <time>2021-08-04T11:56:06.805Z</time>
      </trkpt>
      <trkpt lat="46.99145" lon="8.67251">
        <ele>583</ele>
        <time>2021-08-04T11:56:07.806Z</time>
      </trkpt>
      <trkpt lat="46.99145" lon="8.67251">
        <ele>583</ele>
        <time>2021-08-04T11:56:08.806Z</time>
      </trkpt>
      <trkpt lat="46.99145" lon="8.67251">
        <ele>583</ele>
        <time>2021-08-04T11:56:09.806Z</time>
      </trkpt>
      <trkpt lat="46.99145" lon="8.67251">
        <ele>583</ele>
        <time>2021-08-04T11:56:10.806Z</time>
      </trkpt>
      <trkpt lat="46.99145" lon="8.67251">
        <ele>584</ele>
        <time>2021-08-04T11:56:11.805Z</time>
      </trkpt>
      <trkpt lat="46.99144" lon="8.67251">
        <ele>584</ele>
        <time>2021-08-04T11:56:12.806Z</time>
      </trkpt>
      <trkpt lat="46.99144" lon="8.67251">
        <ele>584</ele>
        <time>2021-08-04T11:56:13.805Z</time>
      </trkpt>
      <trkpt lat="46.99144" lon="8.67251">
        <ele>584</ele>
        <time>2021-08-04T11:56:14.806Z</time>
      </trkpt>
      <trkpt lat="46.99144" lon="8.67251">
        <ele>584</ele>
        <time>2021-08-04T11:56:15.805Z</time>
      </trkpt>
      <trkpt lat="46.99144" lon="8.67251">
        <ele>584</ele>
        <time>2021-08-04T11:56:16.806Z</time>
      </trkpt>
      <trkpt lat="46.99144" lon="8.67251">
        <ele>584</ele>
        <time>2021-08-04T11:56:17.806Z</time>
      </trkpt>
      <trkpt lat="46.99142" lon="8.67252">
        <ele>583</ele>
        <time>2021-08-04T11:56:18.807Z</time>
      </trkpt>
      <trkpt lat="46.99141" lon="8.67252">
        <ele>583</ele>
        <time>2021-08-04T11:56:19.807Z</time>
      </trkpt>
      <trkpt lat="46.99139" lon="8.67252">
        <ele>583</ele>
        <time>2021-08-04T11:56:20.807Z</time>
      </trkpt>
      <trkpt lat="46.99138" lon="8.67252">
        <ele>583</ele>
        <time>2021-08-04T11:56:21.807Z</time>
      </trkpt>
      <trkpt lat="46.99137" lon="8.67252">
        <ele>582</ele>
        <time>2021-08-04T11:56:22.807Z</time>
      </trkpt>
      <trkpt lat="46.99137" lon="8.67253">
        <ele>582</ele>
        <time>2021-08-04T11:56:23.806Z</time>
      </trkpt>
      <trkpt lat="46.99136" lon="8.67253">
        <ele>582</ele>
        <time>2021-08-04T11:56:24.807Z</time>
      </trkpt>
      <trkpt lat="46.99136" lon="8.67254">
        <ele>582</ele>
        <time>2021-08-04T11:56:25.807Z</time>
      </trkpt>
      <trkpt lat="46.99136" lon="8.67253">
        <ele>581</ele>
        <time>2021-08-04T11:56:31.890Z</time>
      </trkpt>
      <trkpt lat="46.99136" lon="8.67253">
        <ele>581</ele>
        <time>2021-08-04T11:56:32.891Z</time>
      </trkpt>
      <trkpt lat="46.99138" lon="8.67253">
        <ele>578</ele>
        <time>2021-08-04T11:56:33.891Z</time>
      </trkpt>
      <trkpt lat="46.99138" lon="8.67253">
        <ele>578</ele>
        <time>2021-08-04T11:56:34.890Z</time>
      </trkpt>
      <trkpt lat="46.99137" lon="8.67254">
        <ele>578</ele>
        <time>2021-08-04T11:56:35.890Z</time>
      </trkpt>
      <trkpt lat="46.99137" lon="8.67255">
        <ele>578</ele>
        <time>2021-08-04T11:56:36.890Z</time>
      </trkpt>
      <trkpt lat="46.99137" lon="8.67256">
        <ele>578</ele>
        <time>2021-08-04T11:56:37.891Z</time>
      </trkpt>
      <trkpt lat="46.99136" lon="8.67255">
        <ele>578</ele>
        <time>2021-08-04T11:56:38.890Z</time>
      </trkpt>
      <trkpt lat="46.99135" lon="8.67254">
        <ele>578</ele>
        <time>2021-08-04T11:56:39.890Z</time>
      </trkpt>
      <trkpt lat="46.99134" lon="8.67259">
        <ele>577</ele>
        <time>2021-08-04T11:56:43.012Z</time>
      </trkpt>
      <trkpt lat="46.99134" lon="8.6726">
        <ele>577</ele>
        <time>2021-08-04T11:56:48.889Z</time>
      </trkpt>
      <trkpt lat="46.99134" lon="8.67261">
        <ele>577</ele>
        <time>2021-08-04T11:56:49.888Z</time>
      </trkpt>
      <trkpt lat="46.99132" lon="8.67256">
        <ele>577</ele>
        <time>2021-08-04T11:56:50.888Z</time>
      </trkpt>
      <trkpt lat="46.99131" lon="8.67255">
        <ele>577</ele>
        <time>2021-08-04T11:56:51.889Z</time>
      </trkpt>
      <trkpt lat="46.99132" lon="8.67254">
        <ele>573</ele>
        <time>2021-08-04T11:56:52.889Z</time>
      </trkpt>
      <trkpt lat="46.99132" lon="8.67254">
        <ele>573</ele>
        <time>2021-08-04T11:56:57.929Z</time>
      </trkpt>
      <trkpt lat="46.99131" lon="8.67254">
        <ele>573</ele>
        <time>2021-08-04T11:56:58.928Z</time>
      </trkpt>
      <trkpt lat="46.99131" lon="8.67253">
        <ele>572</ele>
        <time>2021-08-04T11:56:59.928Z</time>
      </trkpt>
      <trkpt lat="46.9913" lon="8.67253">
        <ele>572</ele>
        <time>2021-08-04T11:57:09.055Z</time>
      </trkpt>
      <trkpt lat="46.9913" lon="8.67253">
        <ele>572</ele>
        <time>2021-08-04T11:57:10.055Z</time>
      </trkpt>
      <trkpt lat="46.9913" lon="8.6723">
        <ele>563</ele>
        <time>2021-08-04T11:57:11.056Z</time>
      </trkpt>
      <trkpt lat="46.9913" lon="8.6723">
        <ele>563</ele>
        <time>2021-08-04T11:57:12.056Z</time>
      </trkpt>
      <trkpt lat="46.99131" lon="8.67231">
        <ele>562</ele>
        <time>2021-08-04T11:57:13.055Z</time>
      </trkpt>
      <trkpt lat="46.99131" lon="8.67231">
        <ele>562</ele>
        <time>2021-08-04T11:57:14.056Z</time>
      </trkpt>
      <trkpt lat="46.99132" lon="8.6723">
        <ele>561</ele>
        <time>2021-08-04T11:57:15.055Z</time>
      </trkpt>
      <trkpt lat="46.99132" lon="8.6723">
        <ele>561</ele>
        <time>2021-08-04T11:57:16.055Z</time>
      </trkpt>
      <trkpt lat="46.99131" lon="8.67231">
        <ele>555</ele>
        <time>2021-08-04T11:57:17.056Z</time>
      </trkpt>
      <trkpt lat="46.9913" lon="8.67231">
        <ele>555</ele>
        <time>2021-08-04T11:57:18.056Z</time>
      </trkpt>
      <trkpt lat="46.9913" lon="8.6723">
        <ele>554</ele>
        <time>2021-08-04T11:57:19.056Z</time>
      </trkpt>
      <trkpt lat="46.9913" lon="8.67232">
        <ele>554</ele>
        <time>2021-08-04T11:57:20.057Z</time>
      </trkpt>
      <trkpt lat="46.9913" lon="8.67234">
        <ele>554</ele>
        <time>2021-08-04T11:57:21.058Z</time>
      </trkpt>
      <trkpt lat="46.99131" lon="8.67235">
        <ele>554</ele>
        <time>2021-08-04T11:57:22.057Z</time>
      </trkpt>
      <trkpt lat="46.99132" lon="8.67235">
        <ele>554</ele>
        <time>2021-08-04T11:57:23.058Z</time>
      </trkpt>
      <trkpt lat="46.99133" lon="8.67235">
        <ele>554</ele>
        <time>2021-08-04T11:57:24.058Z</time>
      </trkpt>
      <trkpt lat="46.99133" lon="8.67236">
        <ele>554</ele>
        <time>2021-08-04T11:57:25.058Z</time>
      </trkpt>
      <trkpt lat="46.99133" lon="8.67236">
        <ele>553</ele>
        <time>2021-08-04T11:57:33.161Z</time>
      </trkpt>
      <trkpt lat="46.99133" lon="8.67237">
        <ele>553</ele>
        <time>2021-08-04T11:57:34.161Z</time>
      </trkpt>
      <trkpt lat="46.99133" lon="8.67238">
        <ele>553</ele>
        <time>2021-08-04T11:57:35.160Z</time>
      </trkpt>
      <trkpt lat="46.99132" lon="8.67239">
        <ele>553</ele>
        <time>2021-08-04T11:57:36.161Z</time>
      </trkpt>
      <trkpt lat="46.99132" lon="8.6724">
        <ele>553</ele>
        <time>2021-08-04T11:57:44.186Z</time>
      </trkpt>
      <trkpt lat="46.99132" lon="8.67241">
        <ele>553</ele>
        <time>2021-08-04T11:58:09.050Z</time>
      </trkpt>
      <trkpt lat="46.99133" lon="8.67241">
        <ele>553</ele>
        <time>2021-08-04T11:58:10.049Z</time>
      </trkpt>
      <trkpt lat="46.99133" lon="8.67241">
        <ele>553</ele>
        <time>2021-08-04T11:58:11.049Z</time>
      </trkpt>
      <trkpt lat="46.99133" lon="8.6724">
        <ele>553</ele>
        <time>2021-08-04T11:58:17.148Z</time>
      </trkpt>
      <trkpt lat="46.99133" lon="8.6724">
        <ele>552</ele>
        <time>2021-08-04T11:58:18.148Z</time>
      </trkpt>
      <trkpt lat="46.99132" lon="8.6724">
        <ele>552</ele>
        <time>2021-08-04T11:58:19.148Z</time>
      </trkpt>
      <trkpt lat="46.99132" lon="8.6724">
        <ele>552</ele>
        <time>2021-08-04T11:58:20.148Z</time>
      </trkpt>
      <trkpt lat="46.99132" lon="8.67241">
        <ele>552</ele>
        <time>2021-08-04T11:58:21.148Z</time>
      </trkpt>
      <trkpt lat="46.99132" lon="8.67241">
        <ele>550</ele>
        <time>2021-08-04T11:58:22.149Z</time>
      </trkpt>
      <trkpt lat="46.99133" lon="8.67241">
        <ele>550</ele>
        <time>2021-08-04T11:58:23.148Z</time>
      </trkpt>
      <trkpt lat="46.9913" lon="8.67244">
        <ele>546</ele>
        <time>2021-08-04T11:58:24.150Z</time>
      </trkpt>
      <trkpt lat="46.99131" lon="8.67244">
        <ele>546</ele>
        <time>2021-08-04T11:58:25.150Z</time>
      </trkpt>
      <trkpt lat="46.99131" lon="8.67244">
        <ele>546</ele>
        <time>2021-08-04T11:58:26.149Z</time>
      </trkpt>
      <trkpt lat="46.99132" lon="8.67244">
        <ele>546</ele>
        <time>2021-08-04T11:58:27.150Z</time>
      </trkpt>
      <trkpt lat="46.99133" lon="8.67244">
        <ele>548</ele>
        <time>2021-08-04T11:58:28.151Z</time>
      </trkpt>
      <trkpt lat="46.99133" lon="8.67243">
        <ele>548</ele>
        <time>2021-08-04T11:58:29.151Z</time>
      </trkpt>
      <trkpt lat="46.99133" lon="8.67242">
        <ele>549</ele>
        <time>2021-08-04T11:58:30.151Z</time>
      </trkpt>
      <trkpt lat="46.99133" lon="8.67242">
        <ele>549</ele>
        <time>2021-08-04T11:58:31.150Z</time>
      </trkpt>
      <trkpt lat="46.99133" lon="8.67241">
        <ele>549</ele>
        <time>2021-08-04T11:58:32.151Z</time>
      </trkpt>
      <trkpt lat="46.99131" lon="8.67242">
        <ele>554</ele>
        <time>2021-08-04T11:58:33.151Z</time>
      </trkpt>
      <trkpt lat="46.99131" lon="8.67242">
        <ele>555</ele>
        <time>2021-08-04T11:58:34.151Z</time>
      </trkpt>
      <trkpt lat="46.99131" lon="8.67242">
        <ele>556</ele>
        <time>2021-08-04T11:58:35.151Z</time>
      </trkpt>
      <trkpt lat="46.99131" lon="8.67243">
        <ele>563</ele>
        <time>2021-08-04T11:58:36.151Z</time>
      </trkpt>
      <trkpt lat="46.99131" lon="8.67243">
        <ele>564</ele>
        <time>2021-08-04T11:58:37.151Z</time>
      </trkpt>
      <trkpt lat="46.99131" lon="8.67244">
        <ele>565</ele>
        <time>2021-08-04T11:58:38.150Z</time>
      </trkpt>
      <trkpt lat="46.9913" lon="8.67245">
        <ele>565</ele>
        <time>2021-08-04T11:58:39.150Z</time>
      </trkpt>
      <trkpt lat="46.9913" lon="8.67245">
        <ele>565</ele>
        <time>2021-08-04T11:58:40.150Z</time>
      </trkpt>
      <trkpt lat="46.9913" lon="8.67245">
        <ele>566</ele>
        <time>2021-08-04T11:58:41.150Z</time>
      </trkpt>
      <trkpt lat="46.99131" lon="8.67245">
        <ele>566</ele>
        <time>2021-08-04T11:58:42.151Z</time>
      </trkpt>
      <trkpt lat="46.99131" lon="8.67245">
        <ele>567</ele>
        <time>2021-08-04T11:58:43.151Z</time>
      </trkpt>
      <trkpt lat="46.99133" lon="8.67246">
        <ele>567</ele>
        <time>2021-08-04T11:58:44.151Z</time>
      </trkpt>
      <trkpt lat="46.99133" lon="8.67247">
        <ele>568</ele>
        <time>2021-08-04T11:58:45.150Z</time>
      </trkpt>
      <trkpt lat="46.99133" lon="8.67247">
        <ele>568</ele>
        <time>2021-08-04T11:58:46.151Z</time>
      </trkpt>
      <trkpt lat="46.99133" lon="8.67247">
        <ele>568</ele>
        <time>2021-08-04T11:58:47.151Z</time>
      </trkpt>
      <trkpt lat="46.99132" lon="8.67246">
        <ele>568</ele>
        <time>2021-08-04T11:58:48.151Z</time>
      </trkpt>
      <trkpt lat="46.99132" lon="8.67247">
        <ele>569</ele>
        <time>2021-08-04T11:58:49.150Z</time>
      </trkpt>
      <trkpt lat="46.99132" lon="8.67248">
        <ele>569</ele>
        <time>2021-08-04T11:58:50.150Z</time>
      </trkpt>
      <trkpt lat="46.99131" lon="8.67248">
        <ele>569</ele>
        <time>2021-08-04T11:58:51.151Z</time>
      </trkpt>
      <trkpt lat="46.99131" lon="8.6725">
        <ele>570</ele>
        <time>2021-08-04T11:58:52.151Z</time>
      </trkpt>
      <trkpt lat="46.99132" lon="8.67252">
        <ele>570</ele>
        <time>2021-08-04T11:58:53.151Z</time>
      </trkpt>
      <trkpt lat="46.9913" lon="8.67253">
        <ele>571</ele>
        <time>2021-08-04T11:58:54.151Z</time>
      </trkpt>
      <trkpt lat="46.99133" lon="8.67259">
        <ele>571</ele>
        <time>2021-08-04T11:58:55.152Z</time>
      </trkpt>
      <trkpt lat="46.99133" lon="8.67259">
        <ele>571</ele>
        <time>2021-08-04T11:58:56.153Z</time>
      </trkpt>
      <trkpt lat="46.99133" lon="8.67259">
        <ele>571</ele>
        <time>2021-08-04T11:58:57.153Z</time>
      </trkpt>
      <trkpt lat="46.99135" lon="8.6726">
        <ele>571</ele>
        <time>2021-08-04T11:58:58.152Z</time>
      </trkpt>
      <trkpt lat="46.99135" lon="8.67267">
        <ele>571</ele>
        <time>2021-08-04T11:58:59.153Z</time>
      </trkpt>
      <trkpt lat="46.99135" lon="8.67269">
        <ele>570</ele>
        <time>2021-08-04T11:59:00.154Z</time>
      </trkpt>
      <trkpt lat="46.99134" lon="8.6727">
        <ele>570</ele>
        <time>2021-08-04T11:59:01.154Z</time>
      </trkpt>
      <trkpt lat="46.99134" lon="8.6727">
        <ele>570</ele>
        <time>2021-08-04T11:59:02.154Z</time>
      </trkpt>
      <trkpt lat="46.99133" lon="8.67271">
        <ele>569</ele>
        <time>2021-08-04T11:59:03.154Z</time>
      </trkpt>
      <trkpt lat="46.99133" lon="8.67272">
        <ele>569</ele>
        <time>2021-08-04T11:59:04.153Z</time>
      </trkpt>
      <trkpt lat="46.99132" lon="8.67272">
        <ele>569</ele>
        <time>2021-08-04T11:59:05.154Z</time>
      </trkpt>
      <trkpt lat="46.99131" lon="8.67271">
        <ele>569</ele>
        <time>2021-08-04T11:59:06.154Z</time>
      </trkpt>
      <trkpt lat="46.99131" lon="8.6727">
        <ele>569</ele>
        <time>2021-08-04T11:59:07.154Z</time>
      </trkpt>
      <trkpt lat="46.9913" lon="8.67268">
        <ele>569</ele>
        <time>2021-08-04T11:59:08.155Z</time>
      </trkpt>
      <trkpt lat="46.9913" lon="8.67268">
        <ele>570</ele>
        <time>2021-08-04T11:59:09.155Z</time>
      </trkpt>
      <trkpt lat="46.99131" lon="8.67269">
        <ele>570</ele>
        <time>2021-08-04T11:59:10.154Z</time>
      </trkpt>
      <trkpt lat="46.99131" lon="8.6727">
        <ele>571</ele>
        <time>2021-08-04T11:59:11.155Z</time>
      </trkpt>
      <trkpt lat="46.99131" lon="8.6727">
        <ele>571</ele>
        <time>2021-08-04T11:59:12.155Z</time>
      </trkpt>
      <trkpt lat="46.99131" lon="8.67271">
        <ele>571</ele>
        <time>2021-08-04T11:59:13.155Z</time>
      </trkpt>
      <trkpt lat="46.99131" lon="8.67271">
        <ele>572</ele>
        <time>2021-08-04T11:59:14.155Z</time>
      </trkpt>
      <trkpt lat="46.99131" lon="8.67271">
        <ele>572</ele>
        <time>2021-08-04T11:59:15.154Z</time>
      </trkpt>
      <trkpt lat="46.99132" lon="8.67271">
        <ele>572</ele>
        <time>2021-08-04T11:59:16.155Z</time>
      </trkpt>
      <trkpt lat="46.99133" lon="8.67271">
        <ele>572</ele>
        <time>2021-08-04T11:59:17.154Z</time>
      </trkpt>
      <trkpt lat="46.99133" lon="8.67271">
        <ele>572</ele>
        <time>2021-08-04T11:59:18.154Z</time>
      </trkpt>
      <trkpt lat="46.99133" lon="8.67271">
        <ele>572</ele>
        <time>2021-08-04T11:59:19.154Z</time>
      </trkpt>
      <trkpt lat="46.99133" lon="8.67271">
        <ele>572</ele>
        <time>2021-08-04T11:59:20.155Z</time>
      </trkpt>
      <trkpt lat="46.99133" lon="8.67269">
        <ele>570</ele>
        <time>2021-08-04T11:59:21.156Z</time>
      </trkpt>
      <trkpt lat="46.99133" lon="8.67269">
        <ele>569</ele>
        <time>2021-08-04T11:59:22.156Z</time>
      </trkpt>
      <trkpt lat="46.99129" lon="8.67271">
        <ele>561</ele>
        <time>2021-08-04T11:59:23.155Z</time>
      </trkpt>
      <trkpt lat="46.99129" lon="8.67271">
        <ele>560</ele>
        <time>2021-08-04T11:59:24.156Z</time>
      </trkpt>
      <trkpt lat="46.99128" lon="8.67272">
        <ele>560</ele>
        <time>2021-08-04T11:59:25.155Z</time>
      </trkpt>
      <trkpt lat="46.99128" lon="8.67271">
        <ele>559</ele>
        <time>2021-08-04T11:59:26.155Z</time>
      </trkpt>
      <trkpt lat="46.99127" lon="8.67271">
        <ele>559</ele>
        <time>2021-08-04T11:59:27.156Z</time>
      </trkpt>
      <trkpt lat="46.99127" lon="8.67271">
        <ele>559</ele>
        <time>2021-08-04T11:59:28.156Z</time>
      </trkpt>
      <trkpt lat="46.9913" lon="8.67271">
        <ele>557</ele>
        <time>2021-08-04T11:59:29.156Z</time>
      </trkpt>
      <trkpt lat="46.9913" lon="8.67271">
        <ele>557</ele>
        <time>2021-08-04T11:59:30.155Z</time>
      </trkpt>
      <trkpt lat="46.9913" lon="8.67271">
        <ele>558</ele>
        <time>2021-08-04T11:59:31.156Z</time>
      </trkpt>
      <trkpt lat="46.99134" lon="8.67271">
        <ele>566</ele>
        <time>2021-08-04T11:59:32.156Z</time>
      </trkpt>
      <trkpt lat="46.99134" lon="8.67271">
        <ele>566</ele>
        <time>2021-08-04T11:59:33.155Z</time>
      </trkpt>
      <trkpt lat="46.99135" lon="8.67272">
        <ele>565</ele>
        <time>2021-08-04T11:59:34.156Z</time>
      </trkpt>
      <trkpt lat="46.99135" lon="8.67272">
        <ele>564</ele>
        <time>2021-08-04T11:59:35.156Z</time>
      </trkpt>
      <trkpt lat="46.99135" lon="8.67272">
        <ele>564</ele>
        <time>2021-08-04T11:59:36.156Z</time>
      </trkpt>
      <trkpt lat="46.99143" lon="8.67279">
        <ele>561</ele>
        <time>2021-08-04T11:59:37.157Z</time>
      </trkpt>
      <trkpt lat="46.99143" lon="8.67279">
        <ele>561</ele>
        <time>2021-08-04T11:59:38.157Z</time>
      </trkpt>
      <trkpt lat="46.9914" lon="8.67275">
        <ele>558</ele>
        <time>2021-08-04T11:59:39.156Z</time>
      </trkpt>
      <trkpt lat="46.9914" lon="8.67273">
        <ele>556</ele>
        <time>2021-08-04T11:59:40.157Z</time>
      </trkpt>
      <trkpt lat="46.99141" lon="8.67274">
        <ele>555</ele>
        <time>2021-08-04T11:59:41.156Z</time>
      </trkpt>
      <trkpt lat="46.99142" lon="8.67275">
        <ele>555</ele>
        <time>2021-08-04T11:59:42.156Z</time>
      </trkpt>
      <trkpt lat="46.99143" lon="8.67275">
        <ele>554</ele>
        <time>2021-08-04T11:59:43.157Z</time>
      </trkpt>
      <trkpt lat="46.99143" lon="8.67275">
        <ele>554</ele>
        <time>2021-08-04T11:59:44.157Z</time>
      </trkpt>
      <trkpt lat="46.99143" lon="8.67275">
        <ele>554</ele>
        <time>2021-08-04T11:59:45.157Z</time>
      </trkpt>
      <trkpt lat="46.99142" lon="8.67275">
        <ele>553</ele>
        <time>2021-08-04T11:59:46.157Z</time>
      </trkpt>
      <trkpt lat="46.99142" lon="8.67276">
        <ele>553</ele>
        <time>2021-08-04T11:59:47.156Z</time>
      </trkpt>
      <trkpt lat="46.99142" lon="8.67277">
        <ele>553</ele>
        <time>2021-08-04T11:59:48.157Z</time>
      </trkpt>
      <trkpt lat="46.99142" lon="8.67278">
        <ele>552</ele>
        <time>2021-08-04T11:59:49.156Z</time>
      </trkpt>
      <trkpt lat="46.99143" lon="8.67279">
        <ele>552</ele>
        <time>2021-08-04T11:59:50.157Z</time>
      </trkpt>
      <trkpt lat="46.99145" lon="8.6728">
        <ele>552</ele>
        <time>2021-08-04T11:59:51.157Z</time>
      </trkpt>
      <trkpt lat="46.99146" lon="8.6728">
        <ele>552</ele>
        <time>2021-08-04T11:59:52.156Z</time>
      </trkpt>
      <trkpt lat="46.99143" lon="8.67283">
        <ele>552</ele>
        <time>2021-08-04T11:59:53.156Z</time>
      </trkpt>
      <trkpt lat="46.99142" lon="8.67283">
        <ele>552</ele>
        <time>2021-08-04T11:59:54.156Z</time>
      </trkpt>
      <trkpt lat="46.99142" lon="8.67283">
        <ele>552</ele>
        <time>2021-08-04T11:59:55.156Z</time>
      </trkpt>
      <trkpt lat="46.99141" lon="8.67284">
        <ele>552</ele>
        <time>2021-08-04T11:59:56.156Z</time>
      </trkpt>
      <trkpt lat="46.99141" lon="8.67286">
        <ele>552</ele>
        <time>2021-08-04T11:59:57.157Z</time>
      </trkpt>
      <trkpt lat="46.99142" lon="8.67287">
        <ele>552</ele>
        <time>2021-08-04T11:59:58.157Z</time>
      </trkpt>
      <trkpt lat="46.99142" lon="8.67288">
        <ele>552</ele>
        <time>2021-08-04T11:59:59.156Z</time>
      </trkpt>
      <trkpt lat="46.99143" lon="8.6729">
        <ele>555</ele>
        <time>2021-08-04T12:00:00.157Z</time>
      </trkpt>
      <trkpt lat="46.99143" lon="8.6729">
        <ele>555</ele>
        <time>2021-08-04T12:00:01.157Z</time>
      </trkpt>
      <trkpt lat="46.99144" lon="8.6729">
        <ele>556</ele>
        <time>2021-08-04T12:00:02.157Z</time>
      </trkpt>
      <trkpt lat="46.99144" lon="8.6729">
        <ele>556</ele>
        <time>2021-08-04T12:00:03.157Z</time>
      </trkpt>
      <trkpt lat="46.99144" lon="8.67291">
        <ele>557</ele>
        <time>2021-08-04T12:00:04.157Z</time>
      </trkpt>
      <trkpt lat="46.99143" lon="8.6729">
        <ele>558</ele>
        <time>2021-08-04T12:00:05.157Z</time>
      </trkpt>
      <trkpt lat="46.99143" lon="8.67289">
        <ele>558</ele>
        <time>2021-08-04T12:00:06.158Z</time>
      </trkpt>
      <trkpt lat="46.99144" lon="8.67288">
        <ele>559</ele>
        <time>2021-08-04T12:00:07.158Z</time>
      </trkpt>
      <trkpt lat="46.99144" lon="8.67287">
        <ele>560</ele>
        <time>2021-08-04T12:00:08.158Z</time>
      </trkpt>
      <trkpt lat="46.99145" lon="8.67288">
        <ele>560</ele>
        <time>2021-08-04T12:00:09.157Z</time>
      </trkpt>
      <trkpt lat="46.99145" lon="8.67288">
        <ele>561</ele>
        <time>2021-08-04T12:00:10.157Z</time>
      </trkpt>
      <trkpt lat="46.99145" lon="8.67289">
        <ele>562</ele>
        <time>2021-08-04T12:00:11.158Z</time>
      </trkpt>
      <trkpt lat="46.99146" lon="8.67289">
        <ele>563</ele>
        <time>2021-08-04T12:00:12.158Z</time>
      </trkpt>
      <trkpt lat="46.99146" lon="8.67287">
        <ele>567</ele>
        <time>2021-08-04T12:00:13.161Z</time>
      </trkpt>
      <trkpt lat="46.99146" lon="8.6728">
        <ele>570</ele>
        <time>2021-08-04T12:00:14.160Z</time>
      </trkpt>
      <trkpt lat="46.99145" lon="8.67278">
        <ele>571</ele>
        <time>2021-08-04T12:00:15.161Z</time>
      </trkpt>
      <trkpt lat="46.99143" lon="8.67275">
        <ele>572</ele>
        <time>2021-08-04T12:00:16.160Z</time>
      </trkpt>
      <trkpt lat="46.99144" lon="8.67273">
        <ele>572</ele>
        <time>2021-08-04T12:00:17.161Z</time>
      </trkpt>
      <trkpt lat="46.99143" lon="8.67272">
        <ele>573</ele>
        <time>2021-08-04T12:00:18.161Z</time>
      </trkpt>
      <trkpt lat="46.99142" lon="8.67271">
        <ele>573</ele>
        <time>2021-08-04T12:00:19.161Z</time>
      </trkpt>
      <trkpt lat="46.99142" lon="8.67269">
        <ele>574</ele>
        <time>2021-08-04T12:00:20.161Z</time>
      </trkpt>
      <trkpt lat="46.99143" lon="8.67269">
        <ele>574</ele>
        <time>2021-08-04T12:00:21.161Z</time>
      </trkpt>
      <trkpt lat="46.99145" lon="8.67271">
        <ele>575</ele>
        <time>2021-08-04T12:00:29.316Z</time>
      </trkpt>
      <trkpt lat="46.99147" lon="8.6727">
        <ele>576</ele>
        <time>2021-08-04T12:00:30.316Z</time>
      </trkpt>
      <trkpt lat="46.99147" lon="8.67269">
        <ele>576</ele>
        <time>2021-08-04T12:00:31.317Z</time>
      </trkpt>
      <trkpt lat="46.99146" lon="8.67267">
        <ele>576</ele>
        <time>2021-08-04T12:00:45.443Z</time>
      </trkpt>
      <trkpt lat="46.99146" lon="8.67264">
        <ele>576</ele>
        <time>2021-08-04T12:00:46.444Z</time>
      </trkpt>
      <trkpt lat="46.99144" lon="8.6726">
        <ele>575</ele>
        <time>2021-08-04T12:00:47.443Z</time>
      </trkpt>
      <trkpt lat="46.99143" lon="8.67254">
        <ele>575</ele>
        <time>2021-08-04T12:00:51.407Z</time>
      </trkpt>
      <trkpt lat="46.99142" lon="8.67248">
        <ele>575</ele>
        <time>2021-08-04T12:00:52.408Z</time>
      </trkpt>
      <trkpt lat="46.99142" lon="8.6724">
        <ele>575</ele>
        <time>2021-08-04T12:00:53.408Z</time>
      </trkpt>
      <trkpt lat="46.99141" lon="8.67231">
        <ele>576</ele>
        <time>2021-08-04T12:00:54.407Z</time>
      </trkpt>
      <trkpt lat="46.99141" lon="8.67223">
        <ele>577</ele>
        <time>2021-08-04T12:00:55.408Z</time>
      </trkpt>
      <trkpt lat="46.99141" lon="8.67211">
        <ele>577</ele>
        <time>2021-08-04T12:00:56.408Z</time>
      </trkpt>
      <trkpt lat="46.99141" lon="8.672">
        <ele>578</ele>
        <time>2021-08-04T12:00:57.408Z</time>
      </trkpt>
      <trkpt lat="46.9914" lon="8.67188">
        <ele>578</ele>
        <time>2021-08-04T12:00:58.408Z</time>
      </trkpt>
      <trkpt lat="46.9914" lon="8.67179">
        <ele>578</ele>
        <time>2021-08-04T12:00:59.407Z</time>
      </trkpt>
      <trkpt lat="46.99138" lon="8.67163">
        <ele>578</ele>
        <time>2021-08-04T12:01:00.408Z</time>
      </trkpt>
      <trkpt lat="46.99137" lon="8.67151">
        <ele>578</ele>
        <time>2021-08-04T12:01:01.407Z</time>
      </trkpt>
      <trkpt lat="46.99135" lon="8.67138">
        <ele>578</ele>
        <time>2021-08-04T12:01:02.408Z</time>
      </trkpt>
      <trkpt lat="46.99134" lon="8.67126">
        <ele>578</ele>
        <time>2021-08-04T12:01:03.408Z</time>
      </trkpt>
      <trkpt lat="46.99133" lon="8.67116">
        <ele>578</ele>
        <time>2021-08-04T12:01:04.408Z</time>
      </trkpt>
      <trkpt lat="46.99133" lon="8.67104">
        <ele>578</ele>
        <time>2021-08-04T12:01:05.407Z</time>
      </trkpt>
      <trkpt lat="46.99134" lon="8.67089">
        <ele>578</ele>
        <time>2021-08-04T12:01:06.408Z</time>
      </trkpt>
      <trkpt lat="46.99135" lon="8.67075">
        <ele>577</ele>
        <time>2021-08-04T12:01:07.407Z</time>
      </trkpt>
      <trkpt lat="46.99135" lon="8.67061">
        <ele>577</ele>
        <time>2021-08-04T12:01:08.408Z</time>
      </trkpt>
      <trkpt lat="46.99136" lon="8.67047">
        <ele>577</ele>
        <time>2021-08-04T12:01:09.407Z</time>
      </trkpt>
      <trkpt lat="46.99137" lon="8.67036">
        <ele>577</ele>
        <time>2021-08-04T12:01:10.408Z</time>
      </trkpt>
      <trkpt lat="46.99138" lon="8.67023">
        <ele>577</ele>
        <time>2021-08-04T12:01:11.408Z</time>
      </trkpt>
      <trkpt lat="46.99141" lon="8.67012">
        <ele>577</ele>
        <time>2021-08-04T12:01:12.407Z</time>
      </trkpt>
      <trkpt lat="46.99146" lon="8.67001">
        <ele>576</ele>
        <time>2021-08-04T12:01:13.408Z</time>
      </trkpt>
      <trkpt lat="46.99151" lon="8.66991">
        <ele>576</ele>
        <time>2021-08-04T12:01:14.407Z</time>
      </trkpt>
      <trkpt lat="46.99156" lon="8.6698">
        <ele>576</ele>
        <time>2021-08-04T12:01:15.407Z</time>
      </trkpt>
      <trkpt lat="46.99163" lon="8.66966">
        <ele>576</ele>
        <time>2021-08-04T12:01:16.407Z</time>
      </trkpt>
      <trkpt lat="46.99168" lon="8.66958">
        <ele>576</ele>
        <time>2021-08-04T12:01:17.407Z</time>
      </trkpt>
      <trkpt lat="46.99174" lon="8.66948">
        <ele>576</ele>
        <time>2021-08-04T12:01:18.408Z</time>
      </trkpt>
      <trkpt lat="46.9918" lon="8.66938">
        <ele>576</ele>
        <time>2021-08-04T12:01:19.408Z</time>
      </trkpt>
      <trkpt lat="46.99187" lon="8.66925">
        <ele>575</ele>
        <time>2021-08-04T12:01:20.408Z</time>
      </trkpt>
      <trkpt lat="46.99191" lon="8.66913">
        <ele>575</ele>
        <time>2021-08-04T12:01:21.408Z</time>
      </trkpt>
      <trkpt lat="46.99195" lon="8.66902">
        <ele>575</ele>
        <time>2021-08-04T12:01:22.407Z</time>
      </trkpt>
      <trkpt lat="46.99198" lon="8.66893">
        <ele>575</ele>
        <time>2021-08-04T12:01:23.407Z</time>
      </trkpt>
      <trkpt lat="46.99201" lon="8.6688">
        <ele>574</ele>
        <time>2021-08-04T12:01:24.408Z</time>
      </trkpt>
      <trkpt lat="46.99205" lon="8.66869">
        <ele>574</ele>
        <time>2021-08-04T12:01:25.407Z</time>
      </trkpt>
      <trkpt lat="46.99209" lon="8.66859">
        <ele>573</ele>
        <time>2021-08-04T12:01:26.407Z</time>
      </trkpt>
      <trkpt lat="46.99212" lon="8.66852">
        <ele>573</ele>
        <time>2021-08-04T12:01:27.408Z</time>
      </trkpt>
      <trkpt lat="46.99216" lon="8.6684">
        <ele>572</ele>
        <time>2021-08-04T12:01:28.408Z</time>
      </trkpt>
      <trkpt lat="46.99219" lon="8.66831">
        <ele>572</ele>
        <time>2021-08-04T12:01:29.408Z</time>
      </trkpt>
      <trkpt lat="46.99221" lon="8.66822">
        <ele>572</ele>
        <time>2021-08-04T12:01:30.407Z</time>
      </trkpt>
      <trkpt lat="46.99224" lon="8.66813">
        <ele>572</ele>
        <time>2021-08-04T12:01:31.407Z</time>
      </trkpt>
      <trkpt lat="46.99226" lon="8.66806">
        <ele>572</ele>
        <time>2021-08-04T12:01:32.407Z</time>
      </trkpt>
      <trkpt lat="46.99228" lon="8.66796">
        <ele>572</ele>
        <time>2021-08-04T12:01:33.408Z</time>
      </trkpt>
      <trkpt lat="46.99231" lon="8.66787">
        <ele>571</ele>
        <time>2021-08-04T12:01:34.408Z</time>
      </trkpt>
      <trkpt lat="46.99235" lon="8.66779">
        <ele>570</ele>
        <time>2021-08-04T12:01:35.407Z</time>
      </trkpt>
      <trkpt lat="46.99238" lon="8.66773">
        <ele>569</ele>
        <time>2021-08-04T12:01:36.408Z</time>
      </trkpt>
      <trkpt lat="46.99242" lon="8.66764">
        <ele>569</ele>
        <time>2021-08-04T12:01:37.407Z</time>
      </trkpt>
      <trkpt lat="46.99246" lon="8.66754">
        <ele>568</ele>
        <time>2021-08-04T12:01:38.408Z</time>
      </trkpt>
      <trkpt lat="46.99249" lon="8.66745">
        <ele>568</ele>
        <time>2021-08-04T12:01:39.407Z</time>
      </trkpt>
      <trkpt lat="46.99252" lon="8.66737">
        <ele>568</ele>
        <time>2021-08-04T12:01:40.408Z</time>
      </trkpt>
      <trkpt lat="46.99256" lon="8.66731">
        <ele>568</ele>
        <time>2021-08-04T12:01:41.407Z</time>
      </trkpt>
      <trkpt lat="46.99261" lon="8.66721">
        <ele>568</ele>
        <time>2021-08-04T12:01:42.407Z</time>
      </trkpt>
      <trkpt lat="46.99266" lon="8.66713">
        <ele>568</ele>
        <time>2021-08-04T12:01:43.407Z</time>
      </trkpt>
      <trkpt lat="46.99272" lon="8.66706">
        <ele>568</ele>
        <time>2021-08-04T12:01:44.408Z</time>
      </trkpt>
      <trkpt lat="46.99279" lon="8.667">
        <ele>568</ele>
        <time>2021-08-04T12:01:45.408Z</time>
      </trkpt>
      <trkpt lat="46.99286" lon="8.66695">
        <ele>568</ele>
        <time>2021-08-04T12:01:46.408Z</time>
      </trkpt>
      <trkpt lat="46.99292" lon="8.6669">
        <ele>568</ele>
        <time>2021-08-04T12:01:47.407Z</time>
      </trkpt>
      <trkpt lat="46.99298" lon="8.66686">
        <ele>568</ele>
        <time>2021-08-04T12:01:48.408Z</time>
      </trkpt>
      <trkpt lat="46.99304" lon="8.66684">
        <ele>568</ele>
        <time>2021-08-04T12:01:49.407Z</time>
      </trkpt>
      <trkpt lat="46.9931" lon="8.66682">
        <ele>568</ele>
        <time>2021-08-04T12:01:50.407Z</time>
      </trkpt>
      <trkpt lat="46.99316" lon="8.66681">
        <ele>568</ele>
        <time>2021-08-04T12:01:51.408Z</time>
      </trkpt>
      <trkpt lat="46.99324" lon="8.66681">
        <ele>568</ele>
        <time>2021-08-04T12:01:52.407Z</time>
      </trkpt>
      <trkpt lat="46.99331" lon="8.6668">
        <ele>568</ele>
        <time>2021-08-04T12:01:53.407Z</time>
      </trkpt>
      <trkpt lat="46.99339" lon="8.66679">
        <ele>569</ele>
        <time>2021-08-04T12:01:54.408Z</time>
      </trkpt>
      <trkpt lat="46.99346" lon="8.66676">
        <ele>569</ele>
        <time>2021-08-04T12:01:55.408Z</time>
      </trkpt>
      <trkpt lat="46.99352" lon="8.66672">
        <ele>569</ele>
        <time>2021-08-04T12:01:56.407Z</time>
      </trkpt>
      <trkpt lat="46.9936" lon="8.66666">
        <ele>570</ele>
        <time>2021-08-04T12:01:57.408Z</time>
      </trkpt>
      <trkpt lat="46.99366" lon="8.66658">
        <ele>570</ele>
        <time>2021-08-04T12:01:58.408Z</time>
      </trkpt>
      <trkpt lat="46.99371" lon="8.6665">
        <ele>571</ele>
        <time>2021-08-04T12:01:59.408Z</time>
      </trkpt>
      <trkpt lat="46.99375" lon="8.6664">
        <ele>571</ele>
        <time>2021-08-04T12:02:00.408Z</time>
      </trkpt>
      <trkpt lat="46.99379" lon="8.6663">
        <ele>571</ele>
        <time>2021-08-04T12:02:01.408Z</time>
      </trkpt>
      <trkpt lat="46.99382" lon="8.66619">
        <ele>572</ele>
        <time>2021-08-04T12:02:02.407Z</time>
      </trkpt>
      <trkpt lat="46.99385" lon="8.66609">
        <ele>572</ele>
        <time>2021-08-04T12:02:03.407Z</time>
      </trkpt>
      <trkpt lat="46.99388" lon="8.66599">
        <ele>572</ele>
        <time>2021-08-04T12:02:04.407Z</time>
      </trkpt>
      <trkpt lat="46.99389" lon="8.66589">
        <ele>572</ele>
        <time>2021-08-04T12:02:05.407Z</time>
      </trkpt>
      <trkpt lat="46.9939" lon="8.6658">
        <ele>572</ele>
        <time>2021-08-04T12:02:06.408Z</time>
      </trkpt>
      <trkpt lat="46.9939" lon="8.66571">
        <ele>572</ele>
        <time>2021-08-04T12:02:07.408Z</time>
      </trkpt>
      <trkpt lat="46.9939" lon="8.66561">
        <ele>573</ele>
        <time>2021-08-04T12:02:08.408Z</time>
      </trkpt>
      <trkpt lat="46.9939" lon="8.66552">
        <ele>573</ele>
        <time>2021-08-04T12:02:09.408Z</time>
      </trkpt>
      <trkpt lat="46.9939" lon="8.66542">
        <ele>573</ele>
        <time>2021-08-04T12:02:10.408Z</time>
      </trkpt>
      <trkpt lat="46.9939" lon="8.66531">
        <ele>573</ele>
        <time>2021-08-04T12:02:11.408Z</time>
      </trkpt>
      <trkpt lat="46.99391" lon="8.66519">
        <ele>572</ele>
        <time>2021-08-04T12:02:12.408Z</time>
      </trkpt>
      <trkpt lat="46.9939" lon="8.66506">
        <ele>571</ele>
        <time>2021-08-04T12:02:13.407Z</time>
      </trkpt>
      <trkpt lat="46.99388" lon="8.66491">
        <ele>570</ele>
        <time>2021-08-04T12:02:14.408Z</time>
      </trkpt>
      <trkpt lat="46.99385" lon="8.66477">
        <ele>569</ele>
        <time>2021-08-04T12:02:15.408Z</time>
      </trkpt>
      <trkpt lat="46.99383" lon="8.66461">
        <ele>569</ele>
        <time>2021-08-04T12:02:16.408Z</time>
      </trkpt>
      <trkpt lat="46.9938" lon="8.66446">
        <ele>568</ele>
        <time>2021-08-04T12:02:17.408Z</time>
      </trkpt>
      <trkpt lat="46.99379" lon="8.6643">
        <ele>568</ele>
        <time>2021-08-04T12:02:18.407Z</time>
      </trkpt>
      <trkpt lat="46.99376" lon="8.66413">
        <ele>567</ele>
        <time>2021-08-04T12:02:19.408Z</time>
      </trkpt>
      <trkpt lat="46.99374" lon="8.66396">
        <ele>567</ele>
        <time>2021-08-04T12:02:20.408Z</time>
      </trkpt>
      <trkpt lat="46.99372" lon="8.66377">
        <ele>566</ele>
        <time>2021-08-04T12:02:21.407Z</time>
      </trkpt>
      <trkpt lat="46.99369" lon="8.66358">
        <ele>566</ele>
        <time>2021-08-04T12:02:22.407Z</time>
      </trkpt>
      <trkpt lat="46.99366" lon="8.66339">
        <ele>565</ele>
        <time>2021-08-04T12:02:23.407Z</time>
      </trkpt>
      <trkpt lat="46.99363" lon="8.66319">
        <ele>564</ele>
        <time>2021-08-04T12:02:24.408Z</time>
      </trkpt>
      <trkpt lat="46.99361" lon="8.66299">
        <ele>564</ele>
        <time>2021-08-04T12:02:25.408Z</time>
      </trkpt>
      <trkpt lat="46.99358" lon="8.66277">
        <ele>564</ele>
        <time>2021-08-04T12:02:26.408Z</time>
      </trkpt>
      <trkpt lat="46.99355" lon="8.66256">
        <ele>563</ele>
        <time>2021-08-04T12:02:27.408Z</time>
      </trkpt>
      <trkpt lat="46.99351" lon="8.66234">
        <ele>563</ele>
        <time>2021-08-04T12:02:28.407Z</time>
      </trkpt>
      <trkpt lat="46.99347" lon="8.66212">
        <ele>563</ele>
        <time>2021-08-04T12:02:29.408Z</time>
      </trkpt>
      <trkpt lat="46.99345" lon="8.66193">
        <ele>563</ele>
        <time>2021-08-04T12:02:30.408Z</time>
      </trkpt>
      <trkpt lat="46.99342" lon="8.66174">
        <ele>563</ele>
        <time>2021-08-04T12:02:31.408Z</time>
      </trkpt>
      <trkpt lat="46.99338" lon="8.66155">
        <ele>563</ele>
        <time>2021-08-04T12:02:32.408Z</time>
      </trkpt>
      <trkpt lat="46.99334" lon="8.66134">
        <ele>563</ele>
        <time>2021-08-04T12:02:33.407Z</time>
      </trkpt>
      <trkpt lat="46.99328" lon="8.66114">
        <ele>563</ele>
        <time>2021-08-04T12:02:34.407Z</time>
      </trkpt>
      <trkpt lat="46.99323" lon="8.66095">
        <ele>563</ele>
        <time>2021-08-04T12:02:35.408Z</time>
      </trkpt>
      <trkpt lat="46.99318" lon="8.66076">
        <ele>563</ele>
        <time>2021-08-04T12:02:36.407Z</time>
      </trkpt>
      <trkpt lat="46.99313" lon="8.66058">
        <ele>563</ele>
        <time>2021-08-04T12:02:37.408Z</time>
      </trkpt>
      <trkpt lat="46.99309" lon="8.66043">
        <ele>563</ele>
        <time>2021-08-04T12:02:38.408Z</time>
      </trkpt>
      <trkpt lat="46.99304" lon="8.66021">
        <ele>563</ele>
        <time>2021-08-04T12:02:39.408Z</time>
      </trkpt>
      <trkpt lat="46.993" lon="8.66004">
        <ele>563</ele>
        <time>2021-08-04T12:02:40.408Z</time>
      </trkpt>
      <trkpt lat="46.99297" lon="8.65986">
        <ele>563</ele>
        <time>2021-08-04T12:02:41.408Z</time>
      </trkpt>
      <trkpt lat="46.99293" lon="8.65966">
        <ele>563</ele>
        <time>2021-08-04T12:02:42.408Z</time>
      </trkpt>
      <trkpt lat="46.9929" lon="8.65946">
        <ele>563</ele>
        <time>2021-08-04T12:02:43.408Z</time>
      </trkpt>
      <trkpt lat="46.99287" lon="8.65925">
        <ele>562</ele>
        <time>2021-08-04T12:02:44.408Z</time>
      </trkpt>
      <trkpt lat="46.99286" lon="8.65903">
        <ele>563</ele>
        <time>2021-08-04T12:02:45.408Z</time>
      </trkpt>
      <trkpt lat="46.99284" lon="8.65881">
        <ele>563</ele>
        <time>2021-08-04T12:02:46.407Z</time>
      </trkpt>
      <trkpt lat="46.99283" lon="8.65864">
        <ele>563</ele>
        <time>2021-08-04T12:02:47.408Z</time>
      </trkpt>
      <trkpt lat="46.99282" lon="8.65842">
        <ele>564</ele>
        <time>2021-08-04T12:02:48.408Z</time>
      </trkpt>
      <trkpt lat="46.9928" lon="8.65821">
        <ele>564</ele>
        <time>2021-08-04T12:02:49.408Z</time>
      </trkpt>
      <trkpt lat="46.99278" lon="8.658">
        <ele>564</ele>
        <time>2021-08-04T12:02:50.408Z</time>
      </trkpt>
      <trkpt lat="46.99273" lon="8.65775">
        <ele>565</ele>
        <time>2021-08-04T12:02:51.408Z</time>
      </trkpt>
      <trkpt lat="46.9927" lon="8.65758">
        <ele>565</ele>
        <time>2021-08-04T12:02:52.407Z</time>
      </trkpt>
      <trkpt lat="46.99267" lon="8.65733">
        <ele>565</ele>
        <time>2021-08-04T12:02:53.407Z</time>
      </trkpt>
      <trkpt lat="46.99264" lon="8.65712">
        <ele>565</ele>
        <time>2021-08-04T12:02:54.407Z</time>
      </trkpt>
      <trkpt lat="46.99262" lon="8.65691">
        <ele>565</ele>
        <time>2021-08-04T12:02:55.408Z</time>
      </trkpt>
      <trkpt lat="46.9926" lon="8.65671">
        <ele>565</ele>
        <time>2021-08-04T12:02:56.408Z</time>
      </trkpt>
      <trkpt lat="46.99258" lon="8.65651">
        <ele>565</ele>
        <time>2021-08-04T12:02:57.408Z</time>
      </trkpt>
      <trkpt lat="46.99255" lon="8.65632">
        <ele>565</ele>
        <time>2021-08-04T12:02:58.408Z</time>
      </trkpt>
      <trkpt lat="46.99252" lon="8.65614">
        <ele>565</ele>
        <time>2021-08-04T12:02:59.408Z</time>
      </trkpt>
      <trkpt lat="46.99249" lon="8.65597">
        <ele>565</ele>
        <time>2021-08-04T12:03:00.408Z</time>
      </trkpt>
      <trkpt lat="46.99247" lon="8.65581">
        <ele>565</ele>
        <time>2021-08-04T12:03:01.408Z</time>
      </trkpt>
      <trkpt lat="46.99244" lon="8.65565">
        <ele>566</ele>
        <time>2021-08-04T12:03:02.408Z</time>
      </trkpt>
      <trkpt lat="46.99242" lon="8.6555">
        <ele>566</ele>
        <time>2021-08-04T12:03:03.407Z</time>
      </trkpt>
      <trkpt lat="46.99241" lon="8.65535">
        <ele>567</ele>
        <time>2021-08-04T12:03:04.408Z</time>
      </trkpt>
      <trkpt lat="46.99241" lon="8.65523">
        <ele>567</ele>
        <time>2021-08-04T12:03:05.408Z</time>
      </trkpt>
      <trkpt lat="46.99242" lon="8.65511">
        <ele>568</ele>
        <time>2021-08-04T12:03:06.408Z</time>
      </trkpt>
      <trkpt lat="46.99244" lon="8.65501">
        <ele>568</ele>
        <time>2021-08-04T12:03:07.408Z</time>
      </trkpt>
      <trkpt lat="46.99246" lon="8.65491">
        <ele>569</ele>
        <time>2021-08-04T12:03:08.407Z</time>
      </trkpt>
      <trkpt lat="46.9925" lon="8.65482">
        <ele>569</ele>
        <time>2021-08-04T12:03:09.408Z</time>
      </trkpt>
      <trkpt lat="46.99253" lon="8.65476">
        <ele>569</ele>
        <time>2021-08-04T12:03:10.408Z</time>
      </trkpt>
      <trkpt lat="46.99258" lon="8.65466">
        <ele>570</ele>
        <time>2021-08-04T12:03:11.408Z</time>
      </trkpt>
      <trkpt lat="46.99262" lon="8.65458">
        <ele>570</ele>
        <time>2021-08-04T12:03:12.407Z</time>
      </trkpt>
      <trkpt lat="46.9927" lon="8.65457">
        <ele>570</ele>
        <time>2021-08-04T12:03:13.408Z</time>
      </trkpt>
      <trkpt lat="46.99279" lon="8.65459">
        <ele>570</ele>
        <time>2021-08-04T12:03:14.407Z</time>
      </trkpt>
      <trkpt lat="46.99287" lon="8.65458">
        <ele>571</ele>
        <time>2021-08-04T12:03:15.408Z</time>
      </trkpt>
      <trkpt lat="46.99296" lon="8.65457">
        <ele>571</ele>
        <time>2021-08-04T12:03:16.408Z</time>
      </trkpt>
      <trkpt lat="46.99304" lon="8.65453">
        <ele>571</ele>
        <time>2021-08-04T12:03:17.408Z</time>
      </trkpt>
      <trkpt lat="46.99314" lon="8.6545">
        <ele>571</ele>
        <time>2021-08-04T12:03:18.408Z</time>
      </trkpt>
      <trkpt lat="46.99323" lon="8.65447">
        <ele>571</ele>
        <time>2021-08-04T12:03:19.407Z</time>
      </trkpt>
      <trkpt lat="46.99334" lon="8.65445">
        <ele>572</ele>
        <time>2021-08-04T12:03:20.407Z</time>
      </trkpt>
      <trkpt lat="46.99346" lon="8.65443">
        <ele>572</ele>
        <time>2021-08-04T12:03:21.408Z</time>
      </trkpt>
      <trkpt lat="46.99357" lon="8.65441">
        <ele>572</ele>
        <time>2021-08-04T12:03:22.408Z</time>
      </trkpt>
      <trkpt lat="46.9937" lon="8.65441">
        <ele>572</ele>
        <time>2021-08-04T12:03:23.408Z</time>
      </trkpt>
      <trkpt lat="46.99379" lon="8.65433">
        <ele>572</ele>
        <time>2021-08-04T12:03:24.407Z</time>
      </trkpt>
      <trkpt lat="46.9939" lon="8.65428">
        <ele>572</ele>
        <time>2021-08-04T12:03:25.408Z</time>
      </trkpt>
      <trkpt lat="46.99398" lon="8.65419">
        <ele>572</ele>
        <time>2021-08-04T12:03:26.407Z</time>
      </trkpt>
      <trkpt lat="46.99406" lon="8.65413">
        <ele>572</ele>
        <time>2021-08-04T12:03:27.408Z</time>
      </trkpt>
      <trkpt lat="46.99415" lon="8.65409">
        <ele>572</ele>
        <time>2021-08-04T12:03:28.408Z</time>
      </trkpt>
      <trkpt lat="46.99424" lon="8.65407">
        <ele>572</ele>
        <time>2021-08-04T12:03:29.408Z</time>
      </trkpt>
      <trkpt lat="46.99435" lon="8.65406">
        <ele>572</ele>
        <time>2021-08-04T12:03:30.407Z</time>
      </trkpt>
      <trkpt lat="46.99446" lon="8.65406">
        <ele>571</ele>
        <time>2021-08-04T12:03:31.408Z</time>
      </trkpt>
      <trkpt lat="46.99456" lon="8.65406">
        <ele>570</ele>
        <time>2021-08-04T12:03:32.408Z</time>
      </trkpt>
      <trkpt lat="46.99468" lon="8.65405">
        <ele>570</ele>
        <time>2021-08-04T12:03:33.407Z</time>
      </trkpt>
      <trkpt lat="46.99479" lon="8.65404">
        <ele>569</ele>
        <time>2021-08-04T12:03:34.408Z</time>
      </trkpt>
      <trkpt lat="46.9949" lon="8.65402">
        <ele>568</ele>
        <time>2021-08-04T12:03:37.422Z</time>
      </trkpt>
      <trkpt lat="46.99499" lon="8.654">
        <ele>567</ele>
        <time>2021-08-04T12:03:38.421Z</time>
      </trkpt>
      <trkpt lat="46.99509" lon="8.65398">
        <ele>567</ele>
        <time>2021-08-04T12:03:39.421Z</time>
      </trkpt>
      <trkpt lat="46.9952" lon="8.65398">
        <ele>567</ele>
        <time>2021-08-04T12:03:40.421Z</time>
      </trkpt>
      <trkpt lat="46.9953" lon="8.65396">
        <ele>566</ele>
        <time>2021-08-04T12:03:41.422Z</time>
      </trkpt>
      <trkpt lat="46.9954" lon="8.65393">
        <ele>566</ele>
        <time>2021-08-04T12:03:42.421Z</time>
      </trkpt>
      <trkpt lat="46.99548" lon="8.65388">
        <ele>565</ele>
        <time>2021-08-04T12:03:43.422Z</time>
      </trkpt>
      <trkpt lat="46.99556" lon="8.65381">
        <ele>565</ele>
        <time>2021-08-04T12:03:44.422Z</time>
      </trkpt>
      <trkpt lat="46.99565" lon="8.65373">
        <ele>565</ele>
        <time>2021-08-04T12:03:45.422Z</time>
      </trkpt>
      <trkpt lat="46.99574" lon="8.65365">
        <ele>564</ele>
        <time>2021-08-04T12:03:46.421Z</time>
      </trkpt>
      <trkpt lat="46.99584" lon="8.65357">
        <ele>564</ele>
        <time>2021-08-04T12:03:47.422Z</time>
      </trkpt>
      <trkpt lat="46.99595" lon="8.65349">
        <ele>563</ele>
        <time>2021-08-04T12:03:48.422Z</time>
      </trkpt>
      <trkpt lat="46.99606" lon="8.65343">
        <ele>563</ele>
        <time>2021-08-04T12:03:49.421Z</time>
      </trkpt>
      <trkpt lat="46.99619" lon="8.65338">
        <ele>563</ele>
        <time>2021-08-04T12:03:50.422Z</time>
      </trkpt>
      <trkpt lat="46.99632" lon="8.65335">
        <ele>562</ele>
        <time>2021-08-04T12:03:53.386Z</time>
      </trkpt>
      <trkpt lat="46.99645" lon="8.65332">
        <ele>562</ele>
        <time>2021-08-04T12:03:54.386Z</time>
      </trkpt>
      <trkpt lat="46.99656" lon="8.65326">
        <ele>561</ele>
        <time>2021-08-04T12:03:55.386Z</time>
      </trkpt>
      <trkpt lat="46.99667" lon="8.6532">
        <ele>561</ele>
        <time>2021-08-04T12:03:56.386Z</time>
      </trkpt>
      <trkpt lat="46.99681" lon="8.65315">
        <ele>561</ele>
        <time>2021-08-04T12:03:57.387Z</time>
      </trkpt>
      <trkpt lat="46.99696" lon="8.6531">
        <ele>561</ele>
        <time>2021-08-04T12:03:58.386Z</time>
      </trkpt>
      <trkpt lat="46.9971" lon="8.65308">
        <ele>560</ele>
        <time>2021-08-04T12:03:59.386Z</time>
      </trkpt>
      <trkpt lat="46.99723" lon="8.65308">
        <ele>560</ele>
        <time>2021-08-04T12:04:00.386Z</time>
      </trkpt>
      <trkpt lat="46.99734" lon="8.65308">
        <ele>560</ele>
        <time>2021-08-04T12:04:01.387Z</time>
      </trkpt>
      <trkpt lat="46.99744" lon="8.65308">
        <ele>559</ele>
        <time>2021-08-04T12:04:02.386Z</time>
      </trkpt>
      <trkpt lat="46.99755" lon="8.65308">
        <ele>559</ele>
        <time>2021-08-04T12:04:03.386Z</time>
      </trkpt>
      <trkpt lat="46.99767" lon="8.65307">
        <ele>559</ele>
        <time>2021-08-04T12:04:04.387Z</time>
      </trkpt>
      <trkpt lat="46.99779" lon="8.65307">
        <ele>559</ele>
        <time>2021-08-04T12:04:05.387Z</time>
      </trkpt>
      <trkpt lat="46.99791" lon="8.65307">
        <ele>559</ele>
        <time>2021-08-04T12:04:06.387Z</time>
      </trkpt>
      <trkpt lat="46.99804" lon="8.65307">
        <ele>559</ele>
        <time>2021-08-04T12:04:07.387Z</time>
      </trkpt>
      <trkpt lat="46.99817" lon="8.65307">
        <ele>559</ele>
        <time>2021-08-04T12:04:08.387Z</time>
      </trkpt>
      <trkpt lat="46.9983" lon="8.65308">
        <ele>559</ele>
        <time>2021-08-04T12:04:09.387Z</time>
      </trkpt>
      <trkpt lat="46.99843" lon="8.65311">
        <ele>559</ele>
        <time>2021-08-04T12:04:10.387Z</time>
      </trkpt>
      <trkpt lat="46.99857" lon="8.65314">
        <ele>559</ele>
        <time>2021-08-04T12:04:11.387Z</time>
      </trkpt>
      <trkpt lat="46.99869" lon="8.65318">
        <ele>559</ele>
        <time>2021-08-04T12:04:12.386Z</time>
      </trkpt>
      <trkpt lat="46.99882" lon="8.65322">
        <ele>559</ele>
        <time>2021-08-04T12:04:13.387Z</time>
      </trkpt>
      <trkpt lat="46.99894" lon="8.65327">
        <ele>558</ele>
        <time>2021-08-04T12:04:14.386Z</time>
      </trkpt>
      <trkpt lat="46.99906" lon="8.65331">
        <ele>558</ele>
        <time>2021-08-04T12:04:15.387Z</time>
      </trkpt>
      <trkpt lat="46.99919" lon="8.65336">
        <ele>557</ele>
        <time>2021-08-04T12:04:16.387Z</time>
      </trkpt>
      <trkpt lat="46.99931" lon="8.65341">
        <ele>556</ele>
        <time>2021-08-04T12:04:17.387Z</time>
      </trkpt>
      <trkpt lat="46.99943" lon="8.65346">
        <ele>555</ele>
        <time>2021-08-04T12:04:18.387Z</time>
      </trkpt>
      <trkpt lat="46.99954" lon="8.6535">
        <ele>554</ele>
        <time>2021-08-04T12:04:19.387Z</time>
      </trkpt>
      <trkpt lat="46.99966" lon="8.65354">
        <ele>554</ele>
        <time>2021-08-04T12:04:20.386Z</time>
      </trkpt>
      <trkpt lat="46.99979" lon="8.65358">
        <ele>553</ele>
        <time>2021-08-04T12:04:21.387Z</time>
      </trkpt>
      <trkpt lat="46.99992" lon="8.65363">
        <ele>552</ele>
        <time>2021-08-04T12:04:22.386Z</time>
      </trkpt>
      <trkpt lat="47.00004" lon="8.65368">
        <ele>551</ele>
        <time>2021-08-04T12:04:23.387Z</time>
      </trkpt>
      <trkpt lat="47.00016" lon="8.65374">
        <ele>551</ele>
        <time>2021-08-04T12:04:24.387Z</time>
      </trkpt>
      <trkpt lat="47.00027" lon="8.6538">
        <ele>550</ele>
        <time>2021-08-04T12:04:25.387Z</time>
      </trkpt>
      <trkpt lat="47.00039" lon="8.65388">
        <ele>550</ele>
        <time>2021-08-04T12:04:26.387Z</time>
      </trkpt>
      <trkpt lat="47.0005" lon="8.65396">
        <ele>549</ele>
        <time>2021-08-04T12:04:27.387Z</time>
      </trkpt>
      <trkpt lat="47.00062" lon="8.65403">
        <ele>549</ele>
        <time>2021-08-04T12:04:28.387Z</time>
      </trkpt>
      <trkpt lat="47.00073" lon="8.6541">
        <ele>548</ele>
        <time>2021-08-04T12:04:29.387Z</time>
      </trkpt>
      <trkpt lat="47.00084" lon="8.65418">
        <ele>548</ele>
        <time>2021-08-04T12:04:30.386Z</time>
      </trkpt>
      <trkpt lat="47.00095" lon="8.65425">
        <ele>548</ele>
        <time>2021-08-04T12:04:31.386Z</time>
      </trkpt>
      <trkpt lat="47.00106" lon="8.65433">
        <ele>547</ele>
        <time>2021-08-04T12:04:32.386Z</time>
      </trkpt>
      <trkpt lat="47.00117" lon="8.65441">
        <ele>547</ele>
        <time>2021-08-04T12:04:33.386Z</time>
      </trkpt>
      <trkpt lat="47.00128" lon="8.65449">
        <ele>546</ele>
        <time>2021-08-04T12:04:34.387Z</time>
      </trkpt>
      <trkpt lat="47.00139" lon="8.65456">
        <ele>546</ele>
        <time>2021-08-04T12:04:35.387Z</time>
      </trkpt>
      <trkpt lat="47.00151" lon="8.65463">
        <ele>546</ele>
        <time>2021-08-04T12:04:36.387Z</time>
      </trkpt>
      <trkpt lat="47.00162" lon="8.6547">
        <ele>546</ele>
        <time>2021-08-04T12:04:37.386Z</time>
      </trkpt>
      <trkpt lat="47.00172" lon="8.65475">
        <ele>546</ele>
        <time>2021-08-04T12:04:38.386Z</time>
      </trkpt>
      <trkpt lat="47.00185" lon="8.65481">
        <ele>546</ele>
        <time>2021-08-04T12:04:39.387Z</time>
      </trkpt>
      <trkpt lat="47.00196" lon="8.65486">
        <ele>545</ele>
        <time>2021-08-04T12:04:40.387Z</time>
      </trkpt>
      <trkpt lat="47.00206" lon="8.65489">
        <ele>545</ele>
        <time>2021-08-04T12:04:41.387Z</time>
      </trkpt>
      <trkpt lat="47.00216" lon="8.65492">
        <ele>545</ele>
        <time>2021-08-04T12:04:42.387Z</time>
      </trkpt>
      <trkpt lat="47.00224" lon="8.65495">
        <ele>544</ele>
        <time>2021-08-04T12:04:43.386Z</time>
      </trkpt>
      <trkpt lat="47.00237" lon="8.65501">
        <ele>544</ele>
        <time>2021-08-04T12:04:44.387Z</time>
      </trkpt>
      <trkpt lat="47.00247" lon="8.65507">
        <ele>543</ele>
        <time>2021-08-04T12:04:45.387Z</time>
      </trkpt>
      <trkpt lat="47.00256" lon="8.65514">
        <ele>543</ele>
        <time>2021-08-04T12:04:46.386Z</time>
      </trkpt>
      <trkpt lat="47.00265" lon="8.65522">
        <ele>542</ele>
        <time>2021-08-04T12:04:47.387Z</time>
      </trkpt>
      <trkpt lat="47.00272" lon="8.6553">
        <ele>541</ele>
        <time>2021-08-04T12:04:48.387Z</time>
      </trkpt>
      <trkpt lat="47.00282" lon="8.65541">
        <ele>540</ele>
        <time>2021-08-04T12:04:49.387Z</time>
      </trkpt>
      <trkpt lat="47.00291" lon="8.65551">
        <ele>539</ele>
        <time>2021-08-04T12:04:50.386Z</time>
      </trkpt>
      <trkpt lat="47.00299" lon="8.65561">
        <ele>538</ele>
        <time>2021-08-04T12:04:51.387Z</time>
      </trkpt>
      <trkpt lat="47.00308" lon="8.65572">
        <ele>537</ele>
        <time>2021-08-04T12:04:52.387Z</time>
      </trkpt>
      <trkpt lat="47.00316" lon="8.65584">
        <ele>536</ele>
        <time>2021-08-04T12:04:53.386Z</time>
      </trkpt>
      <trkpt lat="47.00323" lon="8.65596">
        <ele>534</ele>
        <time>2021-08-04T12:04:54.387Z</time>
      </trkpt>
      <trkpt lat="47.0033" lon="8.65609">
        <ele>533</ele>
        <time>2021-08-04T12:04:55.386Z</time>
      </trkpt>
      <trkpt lat="47.00337" lon="8.65623">
        <ele>532</ele>
        <time>2021-08-04T12:04:56.386Z</time>
      </trkpt>
      <trkpt lat="47.00344" lon="8.65636">
        <ele>531</ele>
        <time>2021-08-04T12:04:57.386Z</time>
      </trkpt>
      <trkpt lat="47.00351" lon="8.6565">
        <ele>530</ele>
        <time>2021-08-04T12:04:58.386Z</time>
      </trkpt>
      <trkpt lat="47.00358" lon="8.65663">
        <ele>529</ele>
        <time>2021-08-04T12:04:59.387Z</time>
      </trkpt>
      <trkpt lat="47.00363" lon="8.65675">
        <ele>528</ele>
        <time>2021-08-04T12:05:00.387Z</time>
      </trkpt>
      <trkpt lat="47.00368" lon="8.65686">
        <ele>528</ele>
        <time>2021-08-04T12:05:01.386Z</time>
      </trkpt>
      <trkpt lat="47.00374" lon="8.65698">
        <ele>527</ele>
        <time>2021-08-04T12:05:02.387Z</time>
      </trkpt>
      <trkpt lat="47.00381" lon="8.65712">
        <ele>526</ele>
        <time>2021-08-04T12:05:03.386Z</time>
      </trkpt>
      <trkpt lat="47.00388" lon="8.65726">
        <ele>526</ele>
        <time>2021-08-04T12:05:04.387Z</time>
      </trkpt>
      <trkpt lat="47.00395" lon="8.6574">
        <ele>525</ele>
        <time>2021-08-04T12:05:05.387Z</time>
      </trkpt>
      <trkpt lat="47.00403" lon="8.65753">
        <ele>524</ele>
        <time>2021-08-04T12:05:06.387Z</time>
      </trkpt>
      <trkpt lat="47.00412" lon="8.65765">
        <ele>524</ele>
        <time>2021-08-04T12:05:07.387Z</time>
      </trkpt>
      <trkpt lat="47.00421" lon="8.65776">
        <ele>523</ele>
        <time>2021-08-04T12:05:08.387Z</time>
      </trkpt>
      <trkpt lat="47.0043" lon="8.65785">
        <ele>523</ele>
        <time>2021-08-04T12:05:09.387Z</time>
      </trkpt>
      <trkpt lat="47.00441" lon="8.65795">
        <ele>522</ele>
        <time>2021-08-04T12:05:10.387Z</time>
      </trkpt>
      <trkpt lat="47.00452" lon="8.65803">
        <ele>522</ele>
        <time>2021-08-04T12:05:11.387Z</time>
      </trkpt>
      <trkpt lat="47.00465" lon="8.65811">
        <ele>521</ele>
        <time>2021-08-04T12:05:12.387Z</time>
      </trkpt>
      <trkpt lat="47.00478" lon="8.65819">
        <ele>521</ele>
        <time>2021-08-04T12:05:13.387Z</time>
      </trkpt>
      <trkpt lat="47.00492" lon="8.65824">
        <ele>520</ele>
        <time>2021-08-04T12:05:14.387Z</time>
      </trkpt>
      <trkpt lat="47.00507" lon="8.65829">
        <ele>519</ele>
        <time>2021-08-04T12:05:15.386Z</time>
      </trkpt>
      <trkpt lat="47.00521" lon="8.65833">
        <ele>519</ele>
        <time>2021-08-04T12:05:16.387Z</time>
      </trkpt>
      <trkpt lat="47.00536" lon="8.65836">
        <ele>518</ele>
        <time>2021-08-04T12:05:17.387Z</time>
      </trkpt>
      <trkpt lat="47.00552" lon="8.65838">
        <ele>517</ele>
        <time>2021-08-04T12:05:18.387Z</time>
      </trkpt>
      <trkpt lat="47.00567" lon="8.65838">
        <ele>517</ele>
        <time>2021-08-04T12:05:19.387Z</time>
      </trkpt>
      <trkpt lat="47.00582" lon="8.65838">
        <ele>517</ele>
        <time>2021-08-04T12:05:20.387Z</time>
      </trkpt>
      <trkpt lat="47.00596" lon="8.65837">
        <ele>516</ele>
        <time>2021-08-04T12:05:21.387Z</time>
      </trkpt>
      <trkpt lat="47.00611" lon="8.65836">
        <ele>516</ele>
        <time>2021-08-04T12:05:22.386Z</time>
      </trkpt>
      <trkpt lat="47.00625" lon="8.65835">
        <ele>516</ele>
        <time>2021-08-04T12:05:23.386Z</time>
      </trkpt>
      <trkpt lat="47.0064" lon="8.65834">
        <ele>515</ele>
        <time>2021-08-04T12:05:24.387Z</time>
      </trkpt>
      <trkpt lat="47.00654" lon="8.65832">
        <ele>515</ele>
        <time>2021-08-04T12:05:25.386Z</time>
      </trkpt>
      <trkpt lat="47.00668" lon="8.65831">
        <ele>515</ele>
        <time>2021-08-04T12:05:26.387Z</time>
      </trkpt>
      <trkpt lat="47.00683" lon="8.65829">
        <ele>515</ele>
        <time>2021-08-04T12:05:27.386Z</time>
      </trkpt>
      <trkpt lat="47.00694" lon="8.65828">
        <ele>514</ele>
        <time>2021-08-04T12:05:28.387Z</time>
      </trkpt>
      <trkpt lat="47.00708" lon="8.65826">
        <ele>514</ele>
        <time>2021-08-04T12:05:29.386Z</time>
      </trkpt>
      <trkpt lat="47.00725" lon="8.65825">
        <ele>514</ele>
        <time>2021-08-04T12:05:30.386Z</time>
      </trkpt>
      <trkpt lat="47.0074" lon="8.65823">
        <ele>514</ele>
        <time>2021-08-04T12:05:31.386Z</time>
      </trkpt>
      <trkpt lat="47.00754" lon="8.65822">
        <ele>514</ele>
        <time>2021-08-04T12:05:32.387Z</time>
      </trkpt>
      <trkpt lat="47.00769" lon="8.65821">
        <ele>514</ele>
        <time>2021-08-04T12:05:33.387Z</time>
      </trkpt>
      <trkpt lat="47.00783" lon="8.6582">
        <ele>514</ele>
        <time>2021-08-04T12:05:34.386Z</time>
      </trkpt>
      <trkpt lat="47.00797" lon="8.65819">
        <ele>514</ele>
        <time>2021-08-04T12:05:35.387Z</time>
      </trkpt>
      <trkpt lat="47.00812" lon="8.65817">
        <ele>514</ele>
        <time>2021-08-04T12:05:36.386Z</time>
      </trkpt>
      <trkpt lat="47.00827" lon="8.65817">
        <ele>514</ele>
        <time>2021-08-04T12:05:37.386Z</time>
      </trkpt>
      <trkpt lat="47.00841" lon="8.65815">
        <ele>514</ele>
        <time>2021-08-04T12:05:38.387Z</time>
      </trkpt>
      <trkpt lat="47.00856" lon="8.65815">
        <ele>514</ele>
        <time>2021-08-04T12:05:39.386Z</time>
      </trkpt>
      <trkpt lat="47.0087" lon="8.65814">
        <ele>514</ele>
        <time>2021-08-04T12:05:40.386Z</time>
      </trkpt>
      <trkpt lat="47.00885" lon="8.65814">
        <ele>514</ele>
        <time>2021-08-04T12:05:41.387Z</time>
      </trkpt>
      <trkpt lat="47.00901" lon="8.65814">
        <ele>514</ele>
        <time>2021-08-04T12:05:42.387Z</time>
      </trkpt>
      <trkpt lat="47.00917" lon="8.65816">
        <ele>514</ele>
        <time>2021-08-04T12:05:43.386Z</time>
      </trkpt>
      <trkpt lat="47.00933" lon="8.65818">
        <ele>514</ele>
        <time>2021-08-04T12:05:44.387Z</time>
      </trkpt>
      <trkpt lat="47.00948" lon="8.65818">
        <ele>513</ele>
        <time>2021-08-04T12:05:45.387Z</time>
      </trkpt>
      <trkpt lat="47.00962" lon="8.65817">
        <ele>513</ele>
        <time>2021-08-04T12:05:46.387Z</time>
      </trkpt>
      <trkpt lat="47.00976" lon="8.65816">
        <ele>513</ele>
        <time>2021-08-04T12:05:47.387Z</time>
      </trkpt>
      <trkpt lat="47.00991" lon="8.65815">
        <ele>513</ele>
        <time>2021-08-04T12:05:48.386Z</time>
      </trkpt>
      <trkpt lat="47.01005" lon="8.65815">
        <ele>513</ele>
        <time>2021-08-04T12:05:49.386Z</time>
      </trkpt>
      <trkpt lat="47.01019" lon="8.65814">
        <ele>513</ele>
        <time>2021-08-04T12:05:50.387Z</time>
      </trkpt>
      <trkpt lat="47.01033" lon="8.65815">
        <ele>513</ele>
        <time>2021-08-04T12:05:51.386Z</time>
      </trkpt>
      <trkpt lat="47.01046" lon="8.65815">
        <ele>513</ele>
        <time>2021-08-04T12:05:52.386Z</time>
      </trkpt>
      <trkpt lat="47.0106" lon="8.65814">
        <ele>512</ele>
        <time>2021-08-04T12:05:53.386Z</time>
      </trkpt>
      <trkpt lat="47.01074" lon="8.65814">
        <ele>512</ele>
        <time>2021-08-04T12:05:54.386Z</time>
      </trkpt>
      <trkpt lat="47.01088" lon="8.65814">
        <ele>512</ele>
        <time>2021-08-04T12:05:55.386Z</time>
      </trkpt>
      <trkpt lat="47.01103" lon="8.65813">
        <ele>511</ele>
        <time>2021-08-04T12:05:56.386Z</time>
      </trkpt>
      <trkpt lat="47.01117" lon="8.65813">
        <ele>511</ele>
        <time>2021-08-04T12:05:57.386Z</time>
      </trkpt>
      <trkpt lat="47.01131" lon="8.65811">
        <ele>511</ele>
        <time>2021-08-04T12:05:58.386Z</time>
      </trkpt>
      <trkpt lat="47.01144" lon="8.6581">
        <ele>510</ele>
        <time>2021-08-04T12:05:59.386Z</time>
      </trkpt>
      <trkpt lat="47.01158" lon="8.65809">
        <ele>510</ele>
        <time>2021-08-04T12:06:00.387Z</time>
      </trkpt>
      <trkpt lat="47.01173" lon="8.65809">
        <ele>510</ele>
        <time>2021-08-04T12:06:01.386Z</time>
      </trkpt>
      <trkpt lat="47.01186" lon="8.65808">
        <ele>510</ele>
        <time>2021-08-04T12:06:02.386Z</time>
      </trkpt>
      <trkpt lat="47.01199" lon="8.65806">
        <ele>509</ele>
        <time>2021-08-04T12:06:03.386Z</time>
      </trkpt>
      <trkpt lat="47.01213" lon="8.65804">
        <ele>509</ele>
        <time>2021-08-04T12:06:04.387Z</time>
      </trkpt>
      <trkpt lat="47.01226" lon="8.65802">
        <ele>509</ele>
        <time>2021-08-04T12:06:05.387Z</time>
      </trkpt>
      <trkpt lat="47.01239" lon="8.65802">
        <ele>509</ele>
        <time>2021-08-04T12:06:06.386Z</time>
      </trkpt>
      <trkpt lat="47.01249" lon="8.65802">
        <ele>509</ele>
        <time>2021-08-04T12:06:07.386Z</time>
      </trkpt>
      <trkpt lat="47.01264" lon="8.65801">
        <ele>508</ele>
        <time>2021-08-04T12:06:08.386Z</time>
      </trkpt>
      <trkpt lat="47.01277" lon="8.65802">
        <ele>508</ele>
        <time>2021-08-04T12:06:09.387Z</time>
      </trkpt>
      <trkpt lat="47.0129" lon="8.65801">
        <ele>508</ele>
        <time>2021-08-04T12:06:10.386Z</time>
      </trkpt>
      <trkpt lat="47.01303" lon="8.65801">
        <ele>508</ele>
        <time>2021-08-04T12:06:11.386Z</time>
      </trkpt>
      <trkpt lat="47.01316" lon="8.658">
        <ele>508</ele>
        <time>2021-08-04T12:06:12.386Z</time>
      </trkpt>
      <trkpt lat="47.01329" lon="8.658">
        <ele>509</ele>
        <time>2021-08-04T12:06:13.386Z</time>
      </trkpt>
      <trkpt lat="47.01343" lon="8.658">
        <ele>509</ele>
        <time>2021-08-04T12:06:14.386Z</time>
      </trkpt>
      <trkpt lat="47.01355" lon="8.65801">
        <ele>509</ele>
        <time>2021-08-04T12:06:15.387Z</time>
      </trkpt>
      <trkpt lat="47.01367" lon="8.65801">
        <ele>509</ele>
        <time>2021-08-04T12:06:16.386Z</time>
      </trkpt>
      <trkpt lat="47.01379" lon="8.65802">
        <ele>509</ele>
        <time>2021-08-04T12:06:17.386Z</time>
      </trkpt>
      <trkpt lat="47.01392" lon="8.65801">
        <ele>509</ele>
        <time>2021-08-04T12:06:18.386Z</time>
      </trkpt>
      <trkpt lat="47.01404" lon="8.658">
        <ele>509</ele>
        <time>2021-08-04T12:06:19.386Z</time>
      </trkpt>
      <trkpt lat="47.01411" lon="8.65799">
        <ele>509</ele>
        <time>2021-08-04T12:06:20.387Z</time>
      </trkpt>
      <trkpt lat="47.01424" lon="8.65799">
        <ele>509</ele>
        <time>2021-08-04T12:06:21.386Z</time>
      </trkpt>
      <trkpt lat="47.01432" lon="8.65799">
        <ele>509</ele>
        <time>2021-08-04T12:06:22.386Z</time>
      </trkpt>
      <trkpt lat="47.01446" lon="8.65798">
        <ele>508</ele>
        <time>2021-08-04T12:06:23.386Z</time>
      </trkpt>
      <trkpt lat="47.01455" lon="8.65797">
        <ele>508</ele>
        <time>2021-08-04T12:06:24.387Z</time>
      </trkpt>
      <trkpt lat="47.01468" lon="8.65797">
        <ele>508</ele>
        <time>2021-08-04T12:06:25.386Z</time>
      </trkpt>
      <trkpt lat="47.01478" lon="8.65797">
        <ele>508</ele>
        <time>2021-08-04T12:06:26.386Z</time>
      </trkpt>
      <trkpt lat="47.01488" lon="8.65798">
        <ele>508</ele>
        <time>2021-08-04T12:06:27.387Z</time>
      </trkpt>
      <trkpt lat="47.01498" lon="8.65799">
        <ele>508</ele>
        <time>2021-08-04T12:06:28.386Z</time>
      </trkpt>
      <trkpt lat="47.01507" lon="8.658">
        <ele>508</ele>
        <time>2021-08-04T12:06:29.387Z</time>
      </trkpt>
      <trkpt lat="47.01514" lon="8.658">
        <ele>508</ele>
        <time>2021-08-04T12:06:30.386Z</time>
      </trkpt>
      <trkpt lat="47.01526" lon="8.658">
        <ele>507</ele>
        <time>2021-08-04T12:06:31.386Z</time>
      </trkpt>
      <trkpt lat="47.01535" lon="8.658">
        <ele>507</ele>
        <time>2021-08-04T12:06:32.387Z</time>
      </trkpt>
      <trkpt lat="47.01544" lon="8.65799">
        <ele>506</ele>
        <time>2021-08-04T12:06:33.387Z</time>
      </trkpt>
      <trkpt lat="47.01552" lon="8.65799">
        <ele>506</ele>
        <time>2021-08-04T12:06:34.387Z</time>
      </trkpt>
      <trkpt lat="47.01562" lon="8.65798">
        <ele>505</ele>
        <time>2021-08-04T12:06:35.387Z</time>
      </trkpt>
      <trkpt lat="47.0157" lon="8.65798">
        <ele>505</ele>
        <time>2021-08-04T12:06:36.386Z</time>
      </trkpt>
      <trkpt lat="47.01579" lon="8.65798">
        <ele>505</ele>
        <time>2021-08-04T12:06:37.387Z</time>
      </trkpt>
      <trkpt lat="47.01587" lon="8.65798">
        <ele>504</ele>
        <time>2021-08-04T12:06:38.386Z</time>
      </trkpt>
      <trkpt lat="47.01595" lon="8.65798">
        <ele>504</ele>
        <time>2021-08-04T12:06:39.386Z</time>
      </trkpt>
      <trkpt lat="47.01601" lon="8.65798">
        <ele>504</ele>
        <time>2021-08-04T12:06:40.386Z</time>
      </trkpt>
      <trkpt lat="47.01607" lon="8.65797">
        <ele>504</ele>
        <time>2021-08-04T12:06:41.386Z</time>
      </trkpt>
      <trkpt lat="47.01613" lon="8.65797">
        <ele>503</ele>
        <time>2021-08-04T12:06:42.386Z</time>
      </trkpt>
      <trkpt lat="47.01616" lon="8.65797">
        <ele>503</ele>
        <time>2021-08-04T12:06:43.387Z</time>
      </trkpt>
      <trkpt lat="47.0162" lon="8.65798">
        <ele>503</ele>
        <time>2021-08-04T12:06:44.387Z</time>
      </trkpt>
      <trkpt lat="47.01622" lon="8.65798">
        <ele>502</ele>
        <time>2021-08-04T12:06:45.387Z</time>
      </trkpt>
      <trkpt lat="47.01625" lon="8.65799">
        <ele>502</ele>
        <time>2021-08-04T12:06:46.387Z</time>
      </trkpt>
      <trkpt lat="47.01627" lon="8.65799">
        <ele>501</ele>
        <time>2021-08-04T12:06:47.386Z</time>
      </trkpt>
      <trkpt lat="47.01629" lon="8.65799">
        <ele>501</ele>
        <time>2021-08-04T12:06:48.387Z</time>
      </trkpt>
      <trkpt lat="47.01629" lon="8.65799">
        <ele>501</ele>
        <time>2021-08-04T12:06:49.386Z</time>
      </trkpt>
      <trkpt lat="47.01629" lon="8.65798">
        <ele>500</ele>
        <time>2021-08-04T12:06:50.387Z</time>
      </trkpt>
      <trkpt lat="47.01629" lon="8.65798">
        <ele>500</ele>
        <time>2021-08-04T12:06:51.386Z</time>
      </trkpt>
      <trkpt lat="47.01629" lon="8.65798">
        <ele>500</ele>
        <time>2021-08-04T12:06:52.386Z</time>
      </trkpt>
      <trkpt lat="47.01626" lon="8.65794">
        <ele>502</ele>
        <time>2021-08-04T12:06:53.389Z</time>
      </trkpt>
      <trkpt lat="47.01625" lon="8.65794">
        <ele>503</ele>
        <time>2021-08-04T12:06:54.389Z</time>
      </trkpt>
      <trkpt lat="47.01625" lon="8.65794">
        <ele>503</ele>
        <time>2021-08-04T12:06:55.389Z</time>
      </trkpt>
      <trkpt lat="47.01624" lon="8.65793">
        <ele>503</ele>
        <time>2021-08-04T12:06:56.389Z</time>
      </trkpt>
      <trkpt lat="47.01624" lon="8.65793">
        <ele>504</ele>
        <time>2021-08-04T12:06:57.388Z</time>
      </trkpt>
      <trkpt lat="47.01624" lon="8.65793">
        <ele>505</ele>
        <time>2021-08-04T12:06:58.390Z</time>
      </trkpt>
      <trkpt lat="47.01624" lon="8.65793">
        <ele>505</ele>
        <time>2021-08-04T12:06:59.390Z</time>
      </trkpt>
      <trkpt lat="47.01624" lon="8.65793">
        <ele>505</ele>
        <time>2021-08-04T12:07:00.390Z</time>
      </trkpt>
      <trkpt lat="47.01623" lon="8.65795">
        <ele>502</ele>
        <time>2021-08-04T12:07:01.391Z</time>
      </trkpt>
      <trkpt lat="47.01623" lon="8.65795">
        <ele>502</ele>
        <time>2021-08-04T12:07:02.391Z</time>
      </trkpt>
      <trkpt lat="47.01623" lon="8.65795">
        <ele>501</ele>
        <time>2021-08-04T12:07:03.391Z</time>
      </trkpt>
      <trkpt lat="47.01623" lon="8.65795">
        <ele>501</ele>
        <time>2021-08-04T12:07:04.391Z</time>
      </trkpt>
      <trkpt lat="47.01624" lon="8.65795">
        <ele>504</ele>
        <time>2021-08-04T12:07:05.392Z</time>
      </trkpt>
      <trkpt lat="47.01625" lon="8.65795">
        <ele>504</ele>
        <time>2021-08-04T12:07:06.391Z</time>
      </trkpt>
      <trkpt lat="47.01627" lon="8.65795">
        <ele>505</ele>
        <time>2021-08-04T12:07:07.391Z</time>
      </trkpt>
      <trkpt lat="47.01629" lon="8.65795">
        <ele>505</ele>
        <time>2021-08-04T12:07:08.391Z</time>
      </trkpt>
      <trkpt lat="47.01632" lon="8.65794">
        <ele>506</ele>
        <time>2021-08-04T12:07:09.391Z</time>
      </trkpt>
      <trkpt lat="47.01636" lon="8.65793">
        <ele>507</ele>
        <time>2021-08-04T12:07:10.391Z</time>
      </trkpt>
      <trkpt lat="47.01641" lon="8.65792">
        <ele>507</ele>
        <time>2021-08-04T12:07:11.391Z</time>
      </trkpt>
      <trkpt lat="47.01647" lon="8.65791">
        <ele>507</ele>
        <time>2021-08-04T12:07:12.391Z</time>
      </trkpt>
      <trkpt lat="47.01653" lon="8.6579">
        <ele>508</ele>
        <time>2021-08-04T12:07:13.391Z</time>
      </trkpt>
      <trkpt lat="47.0166" lon="8.65789">
        <ele>508</ele>
        <time>2021-08-04T12:07:14.391Z</time>
      </trkpt>
      <trkpt lat="47.01668" lon="8.65789">
        <ele>509</ele>
        <time>2021-08-04T12:07:15.392Z</time>
      </trkpt>
      <trkpt lat="47.01675" lon="8.6579">
        <ele>509</ele>
        <time>2021-08-04T12:07:16.391Z</time>
      </trkpt>
      <trkpt lat="47.01683" lon="8.6579">
        <ele>510</ele>
        <time>2021-08-04T12:07:17.391Z</time>
      </trkpt>
      <trkpt lat="47.01692" lon="8.6579">
        <ele>511</ele>
        <time>2021-08-04T12:07:18.391Z</time>
      </trkpt>
      <trkpt lat="47.01698" lon="8.65789">
        <ele>511</ele>
        <time>2021-08-04T12:07:19.391Z</time>
      </trkpt>
      <trkpt lat="47.01706" lon="8.65789">
        <ele>512</ele>
        <time>2021-08-04T12:07:20.391Z</time>
      </trkpt>
      <trkpt lat="47.01714" lon="8.65789">
        <ele>512</ele>
        <time>2021-08-04T12:07:21.391Z</time>
      </trkpt>
      <trkpt lat="47.01722" lon="8.65789">
        <ele>513</ele>
        <time>2021-08-04T12:07:22.391Z</time>
      </trkpt>
      <trkpt lat="47.01733" lon="8.6579">
        <ele>513</ele>
        <time>2021-08-04T12:07:23.391Z</time>
      </trkpt>
      <trkpt lat="47.01743" lon="8.65791">
        <ele>514</ele>
        <time>2021-08-04T12:07:24.391Z</time>
      </trkpt>
      <trkpt lat="47.0175" lon="8.65791">
        <ele>514</ele>
        <time>2021-08-04T12:07:25.391Z</time>
      </trkpt>
      <trkpt lat="47.01759" lon="8.6579">
        <ele>514</ele>
        <time>2021-08-04T12:07:26.391Z</time>
      </trkpt>
      <trkpt lat="47.01767" lon="8.65789">
        <ele>515</ele>
        <time>2021-08-04T12:07:27.391Z</time>
      </trkpt>
      <trkpt lat="47.01774" lon="8.65789">
        <ele>515</ele>
        <time>2021-08-04T12:07:28.391Z</time>
      </trkpt>
      <trkpt lat="47.01782" lon="8.65789">
        <ele>515</ele>
        <time>2021-08-04T12:07:29.392Z</time>
      </trkpt>
      <trkpt lat="47.0179" lon="8.6579">
        <ele>515</ele>
        <time>2021-08-04T12:07:30.391Z</time>
      </trkpt>
      <trkpt lat="47.01797" lon="8.65789">
        <ele>515</ele>
        <time>2021-08-04T12:07:31.391Z</time>
      </trkpt>
      <trkpt lat="47.01804" lon="8.65789">
        <ele>515</ele>
        <time>2021-08-04T12:07:32.391Z</time>
      </trkpt>
      <trkpt lat="47.01811" lon="8.65788">
        <ele>515</ele>
        <time>2021-08-04T12:07:33.391Z</time>
      </trkpt>
      <trkpt lat="47.01817" lon="8.65788">
        <ele>515</ele>
        <time>2021-08-04T12:07:34.391Z</time>
      </trkpt>
      <trkpt lat="47.01825" lon="8.65788">
        <ele>515</ele>
        <time>2021-08-04T12:07:35.391Z</time>
      </trkpt>
      <trkpt lat="47.01832" lon="8.65788">
        <ele>515</ele>
        <time>2021-08-04T12:07:36.391Z</time>
      </trkpt>
      <trkpt lat="47.0184" lon="8.65788">
        <ele>514</ele>
        <time>2021-08-04T12:07:37.392Z</time>
      </trkpt>
      <trkpt lat="47.01848" lon="8.65789">
        <ele>514</ele>
        <time>2021-08-04T12:07:38.391Z</time>
      </trkpt>
      <trkpt lat="47.01854" lon="8.65789">
        <ele>514</ele>
        <time>2021-08-04T12:07:39.391Z</time>
      </trkpt>
      <trkpt lat="47.01862" lon="8.65788">
        <ele>514</ele>
        <time>2021-08-04T12:07:40.391Z</time>
      </trkpt>
      <trkpt lat="47.01868" lon="8.65788">
        <ele>514</ele>
        <time>2021-08-04T12:07:41.391Z</time>
      </trkpt>
      <trkpt lat="47.01874" lon="8.65788">
        <ele>514</ele>
        <time>2021-08-04T12:07:42.391Z</time>
      </trkpt>
      <trkpt lat="47.01879" lon="8.65788">
        <ele>513</ele>
        <time>2021-08-04T12:07:43.391Z</time>
      </trkpt>
      <trkpt lat="47.01884" lon="8.65788">
        <ele>513</ele>
        <time>2021-08-04T12:07:44.391Z</time>
      </trkpt>
      <trkpt lat="47.01889" lon="8.65788">
        <ele>513</ele>
        <time>2021-08-04T12:07:45.391Z</time>
      </trkpt>
      <trkpt lat="47.01893" lon="8.65788">
        <ele>512</ele>
        <time>2021-08-04T12:07:46.391Z</time>
      </trkpt>
      <trkpt lat="47.01895" lon="8.65789">
        <ele>512</ele>
        <time>2021-08-04T12:07:47.391Z</time>
      </trkpt>
      <trkpt lat="47.01897" lon="8.65789">
        <ele>512</ele>
        <time>2021-08-04T12:07:48.392Z</time>
      </trkpt>
      <trkpt lat="47.01899" lon="8.65789">
        <ele>511</ele>
        <time>2021-08-04T12:07:49.392Z</time>
      </trkpt>
      <trkpt lat="47.01901" lon="8.65789">
        <ele>511</ele>
        <time>2021-08-04T12:07:50.391Z</time>
      </trkpt>
      <trkpt lat="47.01902" lon="8.65789">
        <ele>511</ele>
        <time>2021-08-04T12:07:51.392Z</time>
      </trkpt>
      <trkpt lat="47.01903" lon="8.6579">
        <ele>511</ele>
        <time>2021-08-04T12:07:52.392Z</time>
      </trkpt>
      <trkpt lat="47.01904" lon="8.6579">
        <ele>510</ele>
        <time>2021-08-04T12:07:53.391Z</time>
      </trkpt>
      <trkpt lat="47.01906" lon="8.6579">
        <ele>510</ele>
        <time>2021-08-04T12:07:54.392Z</time>
      </trkpt>
      <trkpt lat="47.01906" lon="8.65791">
        <ele>510</ele>
        <time>2021-08-04T12:07:55.392Z</time>
      </trkpt>
      <trkpt lat="47.01906" lon="8.65791">
        <ele>510</ele>
        <time>2021-08-04T12:07:56.391Z</time>
      </trkpt>
      <trkpt lat="47.01906" lon="8.65792">
        <ele>510</ele>
        <time>2021-08-04T12:07:57.391Z</time>
      </trkpt>
      <trkpt lat="47.01905" lon="8.65791">
        <ele>509</ele>
        <time>2021-08-04T12:07:58.391Z</time>
      </trkpt>
      <trkpt lat="47.01902" lon="8.65789">
        <ele>511</ele>
        <time>2021-08-04T12:07:59.391Z</time>
      </trkpt>
      <trkpt lat="47.01902" lon="8.6579">
        <ele>511</ele>
        <time>2021-08-04T12:08:00.391Z</time>
      </trkpt>
      <trkpt lat="47.01904" lon="8.6579">
        <ele>513</ele>
        <time>2021-08-04T12:08:01.393Z</time>
      </trkpt>
      <trkpt lat="47.01905" lon="8.65789">
        <ele>514</ele>
        <time>2021-08-04T12:08:02.392Z</time>
      </trkpt>
      <trkpt lat="47.01907" lon="8.6579">
        <ele>515</ele>
        <time>2021-08-04T12:08:03.393Z</time>
      </trkpt>
      <trkpt lat="47.01909" lon="8.6579">
        <ele>515</ele>
        <time>2021-08-04T12:08:04.393Z</time>
      </trkpt>
      <trkpt lat="47.01911" lon="8.6579">
        <ele>515</ele>
        <time>2021-08-04T12:08:05.393Z</time>
      </trkpt>
      <trkpt lat="47.01914" lon="8.6579">
        <ele>516</ele>
        <time>2021-08-04T12:08:06.393Z</time>
      </trkpt>
      <trkpt lat="47.01919" lon="8.65791">
        <ele>516</ele>
        <time>2021-08-04T12:08:07.393Z</time>
      </trkpt>
      <trkpt lat="47.01925" lon="8.6579">
        <ele>516</ele>
        <time>2021-08-04T12:08:08.393Z</time>
      </trkpt>
      <trkpt lat="47.0193" lon="8.65789">
        <ele>517</ele>
        <time>2021-08-04T12:08:09.393Z</time>
      </trkpt>
      <trkpt lat="47.01938" lon="8.65789">
        <ele>517</ele>
        <time>2021-08-04T12:08:10.393Z</time>
      </trkpt>
      <trkpt lat="47.01946" lon="8.65791">
        <ele>517</ele>
        <time>2021-08-04T12:08:11.393Z</time>
      </trkpt>
      <trkpt lat="47.01953" lon="8.65792">
        <ele>517</ele>
        <time>2021-08-04T12:08:12.393Z</time>
      </trkpt>
      <trkpt lat="47.01961" lon="8.65793">
        <ele>517</ele>
        <time>2021-08-04T12:08:13.393Z</time>
      </trkpt>
      <trkpt lat="47.01968" lon="8.65794">
        <ele>516</ele>
        <time>2021-08-04T12:08:14.393Z</time>
      </trkpt>
      <trkpt lat="47.01977" lon="8.65794">
        <ele>516</ele>
        <time>2021-08-04T12:08:15.392Z</time>
      </trkpt>
      <trkpt lat="47.01984" lon="8.65792">
        <ele>516</ele>
        <time>2021-08-04T12:08:16.392Z</time>
      </trkpt>
      <trkpt lat="47.01991" lon="8.6579">
        <ele>516</ele>
        <time>2021-08-04T12:08:17.393Z</time>
      </trkpt>
      <trkpt lat="47.01997" lon="8.65788">
        <ele>515</ele>
        <time>2021-08-04T12:08:18.393Z</time>
      </trkpt>
      <trkpt lat="47.02003" lon="8.65784">
        <ele>515</ele>
        <time>2021-08-04T12:08:19.392Z</time>
      </trkpt>
      <trkpt lat="47.02008" lon="8.65781">
        <ele>515</ele>
        <time>2021-08-04T12:08:20.392Z</time>
      </trkpt>
      <trkpt lat="47.02014" lon="8.65776">
        <ele>515</ele>
        <time>2021-08-04T12:08:21.393Z</time>
      </trkpt>
      <trkpt lat="47.02019" lon="8.65773">
        <ele>515</ele>
        <time>2021-08-04T12:08:22.392Z</time>
      </trkpt>
      <trkpt lat="47.02024" lon="8.65769">
        <ele>514</ele>
        <time>2021-08-04T12:08:23.392Z</time>
      </trkpt>
      <trkpt lat="47.02027" lon="8.65765">
        <ele>514</ele>
        <time>2021-08-04T12:08:24.392Z</time>
      </trkpt>
      <trkpt lat="47.02032" lon="8.65762">
        <ele>514</ele>
        <time>2021-08-04T12:08:25.392Z</time>
      </trkpt>
      <trkpt lat="47.02034" lon="8.65759">
        <ele>514</ele>
        <time>2021-08-04T12:08:26.393Z</time>
      </trkpt>
      <trkpt lat="47.02036" lon="8.65754">
        <ele>514</ele>
        <time>2021-08-04T12:08:27.393Z</time>
      </trkpt>
      <trkpt lat="47.02038" lon="8.65751">
        <ele>514</ele>
        <time>2021-08-04T12:08:28.393Z</time>
      </trkpt>
      <trkpt lat="47.02042" lon="8.65748">
        <ele>514</ele>
        <time>2021-08-04T12:08:29.393Z</time>
      </trkpt>
      <trkpt lat="47.02045" lon="8.65744">
        <ele>513</ele>
        <time>2021-08-04T12:08:30.393Z</time>
      </trkpt>
      <trkpt lat="47.02048" lon="8.6574">
        <ele>513</ele>
        <time>2021-08-04T12:08:31.392Z</time>
      </trkpt>
      <trkpt lat="47.0205" lon="8.65734">
        <ele>513</ele>
        <time>2021-08-04T12:08:32.392Z</time>
      </trkpt>
      <trkpt lat="47.02052" lon="8.65728">
        <ele>513</ele>
        <time>2021-08-04T12:08:33.393Z</time>
      </trkpt>
      <trkpt lat="47.02054" lon="8.65721">
        <ele>513</ele>
        <time>2021-08-04T12:08:34.393Z</time>
      </trkpt>
      <trkpt lat="47.02055" lon="8.65713">
        <ele>512</ele>
        <time>2021-08-04T12:08:35.393Z</time>
      </trkpt>
      <trkpt lat="47.02055" lon="8.65707">
        <ele>513</ele>
        <time>2021-08-04T12:08:36.393Z</time>
      </trkpt>
      <trkpt lat="47.02055" lon="8.65703">
        <ele>513</ele>
        <time>2021-08-04T12:08:37.393Z</time>
      </trkpt>
      <trkpt lat="47.02055" lon="8.65698">
        <ele>514</ele>
        <time>2021-08-04T12:08:38.393Z</time>
      </trkpt>
      <trkpt lat="47.02056" lon="8.65693">
        <ele>514</ele>
        <time>2021-08-04T12:08:39.393Z</time>
      </trkpt>
      <trkpt lat="47.02056" lon="8.6569">
        <ele>514</ele>
        <time>2021-08-04T12:08:40.392Z</time>
      </trkpt>
      <trkpt lat="47.02057" lon="8.65688">
        <ele>515</ele>
        <time>2021-08-04T12:08:41.392Z</time>
      </trkpt>
      <trkpt lat="47.02058" lon="8.65686">
        <ele>515</ele>
        <time>2021-08-04T12:08:42.393Z</time>
      </trkpt>
      <trkpt lat="47.02058" lon="8.65685">
        <ele>515</ele>
        <time>2021-08-04T12:08:43.393Z</time>
      </trkpt>
      <trkpt lat="47.02057" lon="8.65684">
        <ele>516</ele>
        <time>2021-08-04T12:08:44.393Z</time>
      </trkpt>
      <trkpt lat="47.02057" lon="8.65685">
        <ele>516</ele>
        <time>2021-08-04T12:08:45.392Z</time>
      </trkpt>
      <trkpt lat="47.02058" lon="8.65686">
        <ele>516</ele>
        <time>2021-08-04T12:08:46.393Z</time>
      </trkpt>
      <trkpt lat="47.02058" lon="8.65687">
        <ele>516</ele>
        <time>2021-08-04T12:08:47.393Z</time>
      </trkpt>
      <trkpt lat="47.02058" lon="8.65688">
        <ele>515</ele>
        <time>2021-08-04T12:08:48.393Z</time>
      </trkpt>
      <trkpt lat="47.02058" lon="8.65689">
        <ele>515</ele>
        <time>2021-08-04T12:08:49.394Z</time>
      </trkpt>
      <trkpt lat="47.02058" lon="8.6569">
        <ele>515</ele>
        <time>2021-08-04T12:08:50.394Z</time>
      </trkpt>
      <trkpt lat="47.02058" lon="8.65691">
        <ele>515</ele>
        <time>2021-08-04T12:08:51.394Z</time>
      </trkpt>
      <trkpt lat="47.02058" lon="8.65692">
        <ele>515</ele>
        <time>2021-08-04T12:08:52.394Z</time>
      </trkpt>
      <trkpt lat="47.02057" lon="8.65692">
        <ele>514</ele>
        <time>2021-08-04T12:08:53.394Z</time>
      </trkpt>
      <trkpt lat="47.02057" lon="8.65692">
        <ele>514</ele>
        <time>2021-08-04T12:08:54.394Z</time>
      </trkpt>
      <trkpt lat="47.02057" lon="8.65692">
        <ele>514</ele>
        <time>2021-08-04T12:08:55.394Z</time>
      </trkpt>
      <trkpt lat="47.02056" lon="8.65691">
        <ele>514</ele>
        <time>2021-08-04T12:08:56.394Z</time>
      </trkpt>
      <trkpt lat="47.02056" lon="8.65691">
        <ele>513</ele>
        <time>2021-08-04T12:08:57.393Z</time>
      </trkpt>
      <trkpt lat="47.02056" lon="8.65692">
        <ele>513</ele>
        <time>2021-08-04T12:08:58.393Z</time>
      </trkpt>
      <trkpt lat="47.02056" lon="8.65691">
        <ele>513</ele>
        <time>2021-08-04T12:08:59.394Z</time>
      </trkpt>
      <trkpt lat="47.02055" lon="8.65691">
        <ele>513</ele>
        <time>2021-08-04T12:09:00.394Z</time>
      </trkpt>
      <trkpt lat="47.02054" lon="8.65691">
        <ele>513</ele>
        <time>2021-08-04T12:09:01.393Z</time>
      </trkpt>
      <trkpt lat="47.02053" lon="8.65693">
        <ele>513</ele>
        <time>2021-08-04T12:09:02.394Z</time>
      </trkpt>
      <trkpt lat="47.02054" lon="8.65694">
        <ele>513</ele>
        <time>2021-08-04T12:09:03.393Z</time>
      </trkpt>
      <trkpt lat="47.02053" lon="8.65694">
        <ele>513</ele>
        <time>2021-08-04T12:09:04.393Z</time>
      </trkpt>
      <trkpt lat="47.02052" lon="8.65695">
        <ele>513</ele>
        <time>2021-08-04T12:09:05.393Z</time>
      </trkpt>
      <trkpt lat="47.02052" lon="8.65695">
        <ele>513</ele>
        <time>2021-08-04T12:09:06.393Z</time>
      </trkpt>
      <trkpt lat="47.02052" lon="8.65695">
        <ele>512</ele>
        <time>2021-08-04T12:09:07.393Z</time>
      </trkpt>
      <trkpt lat="47.02051" lon="8.65696">
        <ele>512</ele>
        <time>2021-08-04T12:09:08.393Z</time>
      </trkpt>
      <trkpt lat="47.0205" lon="8.65696">
        <ele>512</ele>
        <time>2021-08-04T12:09:09.393Z</time>
      </trkpt>
      <trkpt lat="47.0205" lon="8.65696">
        <ele>511</ele>
        <time>2021-08-04T12:09:10.393Z</time>
      </trkpt>
      <trkpt lat="47.0205" lon="8.65696">
        <ele>511</ele>
        <time>2021-08-04T12:09:11.394Z</time>
      </trkpt>
      <trkpt lat="47.02051" lon="8.65695">
        <ele>511</ele>
        <time>2021-08-04T12:09:12.393Z</time>
      </trkpt>
      <trkpt lat="47.02051" lon="8.65695">
        <ele>511</ele>
        <time>2021-08-04T12:09:13.394Z</time>
      </trkpt>
      <trkpt lat="47.02051" lon="8.65696">
        <ele>510</ele>
        <time>2021-08-04T12:09:14.394Z</time>
      </trkpt>
      <trkpt lat="47.02053" lon="8.65695">
        <ele>508</ele>
        <time>2021-08-04T12:09:15.394Z</time>
      </trkpt>
      <trkpt lat="47.02053" lon="8.65695">
        <ele>508</ele>
        <time>2021-08-04T12:09:16.394Z</time>
      </trkpt>
      <trkpt lat="47.02053" lon="8.65696">
        <ele>507</ele>
        <time>2021-08-04T12:09:17.394Z</time>
      </trkpt>
      <trkpt lat="47.02053" lon="8.65696">
        <ele>507</ele>
        <time>2021-08-04T12:09:18.394Z</time>
      </trkpt>
      <trkpt lat="47.02052" lon="8.65697">
        <ele>509</ele>
        <time>2021-08-04T12:09:19.394Z</time>
      </trkpt>
      <trkpt lat="47.02052" lon="8.65698">
        <ele>510</ele>
        <time>2021-08-04T12:09:20.395Z</time>
      </trkpt>
      <trkpt lat="47.02052" lon="8.65699">
        <ele>511</ele>
        <time>2021-08-04T12:09:21.395Z</time>
      </trkpt>
      <trkpt lat="47.02051" lon="8.657">
        <ele>512</ele>
        <time>2021-08-04T12:09:22.395Z</time>
      </trkpt>
      <trkpt lat="47.0205" lon="8.65702">
        <ele>513</ele>
        <time>2021-08-04T12:09:23.395Z</time>
      </trkpt>
      <trkpt lat="47.02049" lon="8.65704">
        <ele>515</ele>
        <time>2021-08-04T12:09:24.394Z</time>
      </trkpt>
      <trkpt lat="47.02048" lon="8.65706">
        <ele>516</ele>
        <time>2021-08-04T12:09:25.394Z</time>
      </trkpt>
      <trkpt lat="47.02049" lon="8.65707">
        <ele>518</ele>
        <time>2021-08-04T12:09:26.395Z</time>
      </trkpt>
      <trkpt lat="47.0205" lon="8.65708">
        <ele>518</ele>
        <time>2021-08-04T12:09:27.395Z</time>
      </trkpt>
      <trkpt lat="47.0205" lon="8.6571">
        <ele>519</ele>
        <time>2021-08-04T12:09:28.395Z</time>
      </trkpt>
      <trkpt lat="47.0205" lon="8.65712">
        <ele>520</ele>
        <time>2021-08-04T12:09:29.395Z</time>
      </trkpt>
      <trkpt lat="47.0205" lon="8.65714">
        <ele>521</ele>
        <time>2021-08-04T12:09:30.395Z</time>
      </trkpt>
      <trkpt lat="47.0205" lon="8.65715">
        <ele>521</ele>
        <time>2021-08-04T12:09:31.395Z</time>
      </trkpt>
      <trkpt lat="47.0205" lon="8.65716">
        <ele>521</ele>
        <time>2021-08-04T12:09:32.395Z</time>
      </trkpt>
      <trkpt lat="47.02051" lon="8.65716">
        <ele>521</ele>
        <time>2021-08-04T12:09:33.394Z</time>
      </trkpt>
      <trkpt lat="47.02051" lon="8.65716">
        <ele>521</ele>
        <time>2021-08-04T12:09:34.394Z</time>
      </trkpt>
      <trkpt lat="47.02052" lon="8.65717">
        <ele>521</ele>
        <time>2021-08-04T12:09:35.394Z</time>
      </trkpt>
      <trkpt lat="47.02053" lon="8.65717">
        <ele>520</ele>
        <time>2021-08-04T12:09:36.394Z</time>
      </trkpt>
      <trkpt lat="47.02053" lon="8.65717">
        <ele>519</ele>
        <time>2021-08-04T12:09:37.394Z</time>
      </trkpt>
      <trkpt lat="47.02053" lon="8.65717">
        <ele>518</ele>
        <time>2021-08-04T12:09:38.394Z</time>
      </trkpt>
      <trkpt lat="47.02052" lon="8.65719">
        <ele>518</ele>
        <time>2021-08-04T12:09:39.394Z</time>
      </trkpt>
      <trkpt lat="47.02052" lon="8.6572">
        <ele>517</ele>
        <time>2021-08-04T12:09:40.394Z</time>
      </trkpt>
      <trkpt lat="47.02052" lon="8.65722">
        <ele>516</ele>
        <time>2021-08-04T12:09:41.395Z</time>
      </trkpt>
      <trkpt lat="47.02052" lon="8.65723">
        <ele>516</ele>
        <time>2021-08-04T12:09:42.394Z</time>
      </trkpt>
      <trkpt lat="47.02052" lon="8.65725">
        <ele>515</ele>
        <time>2021-08-04T12:09:43.394Z</time>
      </trkpt>
      <trkpt lat="47.02052" lon="8.65727">
        <ele>515</ele>
        <time>2021-08-04T12:09:44.394Z</time>
      </trkpt>
      <trkpt lat="47.02052" lon="8.65729">
        <ele>515</ele>
        <time>2021-08-04T12:09:45.395Z</time>
      </trkpt>
      <trkpt lat="47.02053" lon="8.6573">
        <ele>515</ele>
        <time>2021-08-04T12:09:46.395Z</time>
      </trkpt>
      <trkpt lat="47.02053" lon="8.65732">
        <ele>515</ele>
        <time>2021-08-04T12:09:47.395Z</time>
      </trkpt>
      <trkpt lat="47.02053" lon="8.65733">
        <ele>515</ele>
        <time>2021-08-04T12:09:48.395Z</time>
      </trkpt>
      <trkpt lat="47.02053" lon="8.65734">
        <ele>515</ele>
        <time>2021-08-04T12:09:49.395Z</time>
      </trkpt>
      <trkpt lat="47.02053" lon="8.65736">
        <ele>516</ele>
        <time>2021-08-04T12:09:50.395Z</time>
      </trkpt>
      <trkpt lat="47.02053" lon="8.65737">
        <ele>516</ele>
        <time>2021-08-04T12:09:51.395Z</time>
      </trkpt>
      <trkpt lat="47.02053" lon="8.65738">
        <ele>516</ele>
        <time>2021-08-04T12:09:52.395Z</time>
      </trkpt>
      <trkpt lat="47.02053" lon="8.6574">
        <ele>516</ele>
        <time>2021-08-04T12:09:53.395Z</time>
      </trkpt>
      <trkpt lat="47.02053" lon="8.65741">
        <ele>516</ele>
        <time>2021-08-04T12:09:54.395Z</time>
      </trkpt>
      <trkpt lat="47.02053" lon="8.65743">
        <ele>516</ele>
        <time>2021-08-04T12:09:55.394Z</time>
      </trkpt>
      <trkpt lat="47.02053" lon="8.65745">
        <ele>516</ele>
        <time>2021-08-04T12:09:56.395Z</time>
      </trkpt>
      <trkpt lat="47.02053" lon="8.65747">
        <ele>516</ele>
        <time>2021-08-04T12:09:57.395Z</time>
      </trkpt>
      <trkpt lat="47.02053" lon="8.65748">
        <ele>515</ele>
        <time>2021-08-04T12:09:58.395Z</time>
      </trkpt>
      <trkpt lat="47.02052" lon="8.6575">
        <ele>515</ele>
        <time>2021-08-04T12:09:59.395Z</time>
      </trkpt>
      <trkpt lat="47.02052" lon="8.65751">
        <ele>516</ele>
        <time>2021-08-04T12:10:00.395Z</time>
      </trkpt>
      <trkpt lat="47.02052" lon="8.65753">
        <ele>516</ele>
        <time>2021-08-04T12:10:01.395Z</time>
      </trkpt>
      <trkpt lat="47.02052" lon="8.65754">
        <ele>516</ele>
        <time>2021-08-04T12:10:02.395Z</time>
      </trkpt>
      <trkpt lat="47.02053" lon="8.65756">
        <ele>516</ele>
        <time>2021-08-04T12:10:03.394Z</time>
      </trkpt>
      <trkpt lat="47.02053" lon="8.65757">
        <ele>516</ele>
        <time>2021-08-04T12:10:04.395Z</time>
      </trkpt>
      <trkpt lat="47.02054" lon="8.65758">
        <ele>516</ele>
        <time>2021-08-04T12:10:05.394Z</time>
      </trkpt>
      <trkpt lat="47.02056" lon="8.65758">
        <ele>516</ele>
        <time>2021-08-04T12:10:06.395Z</time>
      </trkpt>
      <trkpt lat="47.02057" lon="8.65758">
        <ele>515</ele>
        <time>2021-08-04T12:10:07.394Z</time>
      </trkpt>
      <trkpt lat="47.02057" lon="8.65763">
        <ele>514</ele>
        <time>2021-08-04T12:10:08.394Z</time>
      </trkpt>
      <trkpt lat="47.02057" lon="8.65764">
        <ele>514</ele>
        <time>2021-08-04T12:10:09.394Z</time>
      </trkpt>
      <trkpt lat="47.02057" lon="8.65765">
        <ele>514</ele>
        <time>2021-08-04T12:10:10.395Z</time>
      </trkpt>
      <trkpt lat="47.02057" lon="8.65766">
        <ele>514</ele>
        <time>2021-08-04T12:10:11.394Z</time>
      </trkpt>
      <trkpt lat="47.02057" lon="8.65768">
        <ele>514</ele>
        <time>2021-08-04T12:10:12.395Z</time>
      </trkpt>
      <trkpt lat="47.02057" lon="8.65769">
        <ele>515</ele>
        <time>2021-08-04T12:10:13.395Z</time>
      </trkpt>
      <trkpt lat="47.02057" lon="8.65771">
        <ele>515</ele>
        <time>2021-08-04T12:10:14.395Z</time>
      </trkpt>
      <trkpt lat="47.02057" lon="8.65773">
        <ele>515</ele>
        <time>2021-08-04T12:10:15.394Z</time>
      </trkpt>
      <trkpt lat="47.02057" lon="8.65775">
        <ele>514</ele>
        <time>2021-08-04T12:10:16.395Z</time>
      </trkpt>
      <trkpt lat="47.02057" lon="8.65777">
        <ele>514</ele>
        <time>2021-08-04T12:10:17.395Z</time>
      </trkpt>
      <trkpt lat="47.02057" lon="8.65779">
        <ele>515</ele>
        <time>2021-08-04T12:10:18.394Z</time>
      </trkpt>
      <trkpt lat="47.02057" lon="8.6578">
        <ele>515</ele>
        <time>2021-08-04T12:10:19.395Z</time>
      </trkpt>
      <trkpt lat="47.02058" lon="8.65782">
        <ele>515</ele>
        <time>2021-08-04T12:10:20.395Z</time>
      </trkpt>
      <trkpt lat="47.02058" lon="8.65784">
        <ele>515</ele>
        <time>2021-08-04T12:10:21.395Z</time>
      </trkpt>
      <trkpt lat="47.02058" lon="8.65785">
        <ele>515</ele>
        <time>2021-08-04T12:10:22.395Z</time>
      </trkpt>
      <trkpt lat="47.02058" lon="8.65787">
        <ele>515</ele>
        <time>2021-08-04T12:10:23.395Z</time>
      </trkpt>
      <trkpt lat="47.02058" lon="8.65789">
        <ele>515</ele>
        <time>2021-08-04T12:10:24.395Z</time>
      </trkpt>
      <trkpt lat="47.02058" lon="8.6579">
        <ele>515</ele>
        <time>2021-08-04T12:10:25.394Z</time>
      </trkpt>
      <trkpt lat="47.02058" lon="8.65792">
        <ele>515</ele>
        <time>2021-08-04T12:10:26.394Z</time>
      </trkpt>
      <trkpt lat="47.02058" lon="8.65794">
        <ele>515</ele>
        <time>2021-08-04T12:10:27.394Z</time>
      </trkpt>
      <trkpt lat="47.02059" lon="8.65796">
        <ele>515</ele>
        <time>2021-08-04T12:10:28.394Z</time>
      </trkpt>
      <trkpt lat="47.02058" lon="8.65798">
        <ele>515</ele>
        <time>2021-08-04T12:10:29.395Z</time>
      </trkpt>
      <trkpt lat="47.02059" lon="8.658">
        <ele>515</ele>
        <time>2021-08-04T12:10:30.395Z</time>
      </trkpt>
      <trkpt lat="47.02059" lon="8.65801">
        <ele>515</ele>
        <time>2021-08-04T12:10:31.395Z</time>
      </trkpt>
      <trkpt lat="47.02059" lon="8.65801">
        <ele>515</ele>
        <time>2021-08-04T12:10:32.395Z</time>
      </trkpt>
      <trkpt lat="47.02059" lon="8.65801">
        <ele>515</ele>
        <time>2021-08-04T12:10:33.394Z</time>
      </trkpt>
      <trkpt lat="47.02059" lon="8.65801">
        <ele>515</ele>
        <time>2021-08-04T12:10:34.395Z</time>
      </trkpt>
      <trkpt lat="47.02059" lon="8.658">
        <ele>515</ele>
        <time>2021-08-04T12:10:35.394Z</time>
      </trkpt>
      <trkpt lat="47.02059" lon="8.65799">
        <ele>515</ele>
        <time>2021-08-04T12:10:36.394Z</time>
      </trkpt>
      <trkpt lat="47.0206" lon="8.65798">
        <ele>515</ele>
        <time>2021-08-04T12:10:37.395Z</time>
      </trkpt>
      <trkpt lat="47.0206" lon="8.65797">
        <ele>516</ele>
        <time>2021-08-04T12:10:38.395Z</time>
      </trkpt>
      <trkpt lat="47.0206" lon="8.65796">
        <ele>516</ele>
        <time>2021-08-04T12:10:39.395Z</time>
      </trkpt>
      <trkpt lat="47.0206" lon="8.65795">
        <ele>516</ele>
        <time>2021-08-04T12:10:40.395Z</time>
      </trkpt>
      <trkpt lat="47.0206" lon="8.65794">
        <ele>516</ele>
        <time>2021-08-04T12:10:41.395Z</time>
      </trkpt>
      <trkpt lat="47.02061" lon="8.65794">
        <ele>516</ele>
        <time>2021-08-04T12:10:42.395Z</time>
      </trkpt>
      <trkpt lat="47.0206" lon="8.65792">
        <ele>517</ele>
        <time>2021-08-04T12:10:43.395Z</time>
      </trkpt>
      <trkpt lat="47.02061" lon="8.65795">
        <ele>518</ele>
        <time>2021-08-04T12:10:44.396Z</time>
      </trkpt>
      <trkpt lat="47.0206" lon="8.65797">
        <ele>517</ele>
        <time>2021-08-04T12:10:45.395Z</time>
      </trkpt>
      <trkpt lat="47.0206" lon="8.658">
        <ele>517</ele>
        <time>2021-08-04T12:10:46.395Z</time>
      </trkpt>
      <trkpt lat="47.02059" lon="8.65802">
        <ele>516</ele>
        <time>2021-08-04T12:10:47.396Z</time>
      </trkpt>
      <trkpt lat="47.02059" lon="8.65804">
        <ele>516</ele>
        <time>2021-08-04T12:10:48.395Z</time>
      </trkpt>
      <trkpt lat="47.0206" lon="8.65806">
        <ele>515</ele>
        <time>2021-08-04T12:10:49.395Z</time>
      </trkpt>
      <trkpt lat="47.0206" lon="8.65808">
        <ele>514</ele>
        <time>2021-08-04T12:10:50.396Z</time>
      </trkpt>
      <trkpt lat="47.0206" lon="8.65809">
        <ele>513</ele>
        <time>2021-08-04T12:10:51.396Z</time>
      </trkpt>
      <trkpt lat="47.0206" lon="8.65811">
        <ele>513</ele>
        <time>2021-08-04T12:10:52.395Z</time>
      </trkpt>
      <trkpt lat="47.0206" lon="8.65813">
        <ele>513</ele>
        <time>2021-08-04T12:10:53.395Z</time>
      </trkpt>
      <trkpt lat="47.0206" lon="8.65815">
        <ele>513</ele>
        <time>2021-08-04T12:10:54.396Z</time>
      </trkpt>
      <trkpt lat="47.02061" lon="8.65817">
        <ele>513</ele>
        <time>2021-08-04T12:10:55.396Z</time>
      </trkpt>
      <trkpt lat="47.02061" lon="8.65818">
        <ele>513</ele>
        <time>2021-08-04T12:10:56.396Z</time>
      </trkpt>
      <trkpt lat="47.0206" lon="8.65819">
        <ele>513</ele>
        <time>2021-08-04T12:10:57.396Z</time>
      </trkpt>
      <trkpt lat="47.0206" lon="8.6582">
        <ele>514</ele>
        <time>2021-08-04T12:10:58.396Z</time>
      </trkpt>
      <trkpt lat="47.0206" lon="8.6582">
        <ele>514</ele>
        <time>2021-08-04T12:10:59.395Z</time>
      </trkpt>
      <trkpt lat="47.0206" lon="8.6582">
        <ele>514</ele>
        <time>2021-08-04T12:11:00.395Z</time>
      </trkpt>
      <trkpt lat="47.02059" lon="8.6582">
        <ele>515</ele>
        <time>2021-08-04T12:11:01.395Z</time>
      </trkpt>
      <trkpt lat="47.02058" lon="8.6582">
        <ele>515</ele>
        <time>2021-08-04T12:11:02.396Z</time>
      </trkpt>
      <trkpt lat="47.02057" lon="8.6582">
        <ele>515</ele>
        <time>2021-08-04T12:11:03.396Z</time>
      </trkpt>
      <trkpt lat="47.02057" lon="8.65819">
        <ele>516</ele>
        <time>2021-08-04T12:11:04.396Z</time>
      </trkpt>
      <trkpt lat="47.02057" lon="8.65818">
        <ele>517</ele>
        <time>2021-08-04T12:11:05.395Z</time>
      </trkpt>
      <trkpt lat="47.02057" lon="8.65817">
        <ele>517</ele>
        <time>2021-08-04T12:11:06.395Z</time>
      </trkpt>
      <trkpt lat="47.02056" lon="8.65814">
        <ele>519</ele>
        <time>2021-08-04T12:11:07.396Z</time>
      </trkpt>
      <trkpt lat="47.02055" lon="8.65814">
        <ele>520</ele>
        <time>2021-08-04T12:11:08.395Z</time>
      </trkpt>
      <trkpt lat="47.02054" lon="8.65813">
        <ele>521</ele>
        <time>2021-08-04T12:11:09.396Z</time>
      </trkpt>
      <trkpt lat="47.02053" lon="8.65812">
        <ele>521</ele>
        <time>2021-08-04T12:11:10.395Z</time>
      </trkpt>
      <trkpt lat="47.02039" lon="8.65791">
        <ele>523</ele>
        <time>2021-08-04T12:20:59.929Z</time>
      </trkpt>
      <trkpt lat="47.02033" lon="8.65782">
        <ele>526</ele>
        <time>2021-08-04T12:21:00.929Z</time>
      </trkpt>
      <trkpt lat="47.02026" lon="8.65782">
        <ele>527</ele>
        <time>2021-08-04T12:21:01.929Z</time>
      </trkpt>
      <trkpt lat="47.0202" lon="8.65788">
        <ele>529</ele>
        <time>2021-08-04T12:21:02.929Z</time>
      </trkpt>
      <trkpt lat="47.02019" lon="8.6579">
        <ele>530</ele>
        <time>2021-08-04T12:21:03.928Z</time>
      </trkpt>
      <trkpt lat="47.02022" lon="8.65792">
        <ele>531</ele>
        <time>2021-08-04T12:21:04.929Z</time>
      </trkpt>
      <trkpt lat="47.02024" lon="8.65793">
        <ele>531</ele>
        <time>2021-08-04T12:21:05.929Z</time>
      </trkpt>
      <trkpt lat="47.02027" lon="8.65792">
        <ele>532</ele>
        <time>2021-08-04T12:21:06.929Z</time>
      </trkpt>
      <trkpt lat="47.02028" lon="8.65791">
        <ele>532</ele>
        <time>2021-08-04T12:21:07.928Z</time>
      </trkpt>
      <trkpt lat="47.02029" lon="8.6579">
        <ele>532</ele>
        <time>2021-08-04T12:21:08.928Z</time>
      </trkpt>
      <trkpt lat="47.02028" lon="8.65789">
        <ele>532</ele>
        <time>2021-08-04T12:21:09.928Z</time>
      </trkpt>
      <trkpt lat="47.02028" lon="8.65788">
        <ele>533</ele>
        <time>2021-08-04T12:21:10.929Z</time>
      </trkpt>
      <trkpt lat="47.02028" lon="8.65786">
        <ele>533</ele>
        <time>2021-08-04T12:21:11.929Z</time>
      </trkpt>
      <trkpt lat="47.0203" lon="8.65786">
        <ele>533</ele>
        <time>2021-08-04T12:21:12.928Z</time>
      </trkpt>
      <trkpt lat="47.02031" lon="8.65786">
        <ele>534</ele>
        <time>2021-08-04T12:21:13.928Z</time>
      </trkpt>
      <trkpt lat="47.02032" lon="8.65787">
        <ele>534</ele>
        <time>2021-08-04T12:21:14.929Z</time>
      </trkpt>
      <trkpt lat="47.02034" lon="8.65787">
        <ele>534</ele>
        <time>2021-08-04T12:21:15.929Z</time>
      </trkpt>
      <trkpt lat="47.02035" lon="8.65788">
        <ele>534</ele>
        <time>2021-08-04T12:21:16.929Z</time>
      </trkpt>
      <trkpt lat="47.02037" lon="8.65789">
        <ele>535</ele>
        <time>2021-08-04T12:21:17.929Z</time>
      </trkpt>
      <trkpt lat="47.02037" lon="8.6579">
        <ele>534</ele>
        <time>2021-08-04T12:21:18.929Z</time>
      </trkpt>
      <trkpt lat="47.02037" lon="8.65792">
        <ele>534</ele>
        <time>2021-08-04T12:21:19.928Z</time>
      </trkpt>
      <trkpt lat="47.02038" lon="8.65793">
        <ele>534</ele>
        <time>2021-08-04T12:21:20.928Z</time>
      </trkpt>
      <trkpt lat="47.02038" lon="8.65793">
        <ele>534</ele>
        <time>2021-08-04T12:21:21.929Z</time>
      </trkpt>
      <trkpt lat="47.02038" lon="8.65792">
        <ele>534</ele>
        <time>2021-08-04T12:21:22.929Z</time>
      </trkpt>
      <trkpt lat="47.02036" lon="8.65791">
        <ele>534</ele>
        <time>2021-08-04T12:21:23.929Z</time>
      </trkpt>
      <trkpt lat="47.02036" lon="8.65791">
        <ele>533</ele>
        <time>2021-08-04T12:21:24.929Z</time>
      </trkpt>
      <trkpt lat="47.02036" lon="8.65791">
        <ele>533</ele>
        <time>2021-08-04T12:21:25.928Z</time>
      </trkpt>
      <trkpt lat="47.02038" lon="8.65792">
        <ele>532</ele>
        <time>2021-08-04T12:21:26.929Z</time>
      </trkpt>
      <trkpt lat="47.02039" lon="8.65793">
        <ele>531</ele>
        <time>2021-08-04T12:21:27.929Z</time>
      </trkpt>
      <trkpt lat="47.0204" lon="8.65793">
        <ele>531</ele>
        <time>2021-08-04T12:21:28.930Z</time>
      </trkpt>
      <trkpt lat="47.0204" lon="8.65793">
        <ele>530</ele>
        <time>2021-08-04T12:21:29.930Z</time>
      </trkpt>
      <trkpt lat="47.02041" lon="8.65794">
        <ele>530</ele>
        <time>2021-08-04T12:21:30.929Z</time>
      </trkpt>
      <trkpt lat="47.02042" lon="8.65794">
        <ele>530</ele>
        <time>2021-08-04T12:21:31.929Z</time>
      </trkpt>
      <trkpt lat="47.02043" lon="8.65796">
        <ele>530</ele>
        <time>2021-08-04T12:21:32.930Z</time>
      </trkpt>
      <trkpt lat="47.02041" lon="8.65795">
        <ele>530</ele>
        <time>2021-08-04T12:21:33.929Z</time>
      </trkpt>
      <trkpt lat="47.02041" lon="8.65794">
        <ele>530</ele>
        <time>2021-08-04T12:21:34.929Z</time>
      </trkpt>
      <trkpt lat="47.02039" lon="8.65792">
        <ele>530</ele>
        <time>2021-08-04T12:21:35.929Z</time>
      </trkpt>
      <trkpt lat="47.02038" lon="8.65792">
        <ele>530</ele>
        <time>2021-08-04T12:21:36.930Z</time>
      </trkpt>
      <trkpt lat="47.02039" lon="8.65791">
        <ele>530</ele>
        <time>2021-08-04T12:21:37.930Z</time>
      </trkpt>
      <trkpt lat="47.0204" lon="8.65791">
        <ele>530</ele>
        <time>2021-08-04T12:21:38.930Z</time>
      </trkpt>
      <trkpt lat="47.02041" lon="8.65791">
        <ele>530</ele>
        <time>2021-08-04T12:21:39.930Z</time>
      </trkpt>
      <trkpt lat="47.02041" lon="8.65791">
        <ele>530</ele>
        <time>2021-08-04T12:21:40.930Z</time>
      </trkpt>
      <trkpt lat="47.02041" lon="8.65792">
        <ele>530</ele>
        <time>2021-08-04T12:21:41.931Z</time>
      </trkpt>
      <trkpt lat="47.02042" lon="8.65793">
        <ele>530</ele>
        <time>2021-08-04T12:21:42.930Z</time>
      </trkpt>
      <trkpt lat="47.02042" lon="8.65794">
        <ele>529</ele>
        <time>2021-08-04T12:21:43.930Z</time>
      </trkpt>
      <trkpt lat="47.02042" lon="8.65796">
        <ele>529</ele>
        <time>2021-08-04T12:21:44.930Z</time>
      </trkpt>
      <trkpt lat="47.02042" lon="8.65797">
        <ele>529</ele>
        <time>2021-08-04T12:21:45.931Z</time>
      </trkpt>
      <trkpt lat="47.02042" lon="8.65797">
        <ele>529</ele>
        <time>2021-08-04T12:21:46.930Z</time>
      </trkpt>
      <trkpt lat="47.02043" lon="8.65797">
        <ele>529</ele>
        <time>2021-08-04T12:21:47.931Z</time>
      </trkpt>
      <trkpt lat="47.02043" lon="8.65797">
        <ele>528</ele>
        <time>2021-08-04T12:21:48.930Z</time>
      </trkpt>
      <trkpt lat="47.02043" lon="8.65798">
        <ele>528</ele>
        <time>2021-08-04T12:21:49.931Z</time>
      </trkpt>
      <trkpt lat="47.02047" lon="8.65798">
        <ele>526</ele>
        <time>2021-08-04T12:21:50.931Z</time>
      </trkpt>
      <trkpt lat="47.02047" lon="8.65798">
        <ele>526</ele>
        <time>2021-08-04T12:21:51.932Z</time>
      </trkpt>
      <trkpt lat="47.02047" lon="8.65798">
        <ele>526</ele>
        <time>2021-08-04T12:21:52.931Z</time>
      </trkpt>
      <trkpt lat="47.02047" lon="8.65797">
        <ele>525</ele>
        <time>2021-08-04T12:21:53.932Z</time>
      </trkpt>
      <trkpt lat="47.02046" lon="8.65797">
        <ele>525</ele>
        <time>2021-08-04T12:21:54.931Z</time>
      </trkpt>
      <trkpt lat="47.02046" lon="8.65796">
        <ele>525</ele>
        <time>2021-08-04T12:21:55.931Z</time>
      </trkpt>
      <trkpt lat="47.02046" lon="8.65796">
        <ele>525</ele>
        <time>2021-08-04T12:21:56.932Z</time>
      </trkpt>
      <trkpt lat="47.02045" lon="8.65796">
        <ele>525</ele>
        <time>2021-08-04T12:21:57.932Z</time>
      </trkpt>
      <trkpt lat="47.02044" lon="8.65796">
        <ele>524</ele>
        <time>2021-08-04T12:21:58.932Z</time>
      </trkpt>
      <trkpt lat="47.02044" lon="8.65796">
        <ele>524</ele>
        <time>2021-08-04T12:21:59.932Z</time>
      </trkpt>
      <trkpt lat="47.02043" lon="8.65796">
        <ele>524</ele>
        <time>2021-08-04T12:22:00.932Z</time>
      </trkpt>
      <trkpt lat="47.02042" lon="8.65795">
        <ele>524</ele>
        <time>2021-08-04T12:22:01.931Z</time>
      </trkpt>
      <trkpt lat="47.02042" lon="8.65794">
        <ele>524</ele>
        <time>2021-08-04T12:22:02.932Z</time>
      </trkpt>
      <trkpt lat="47.02042" lon="8.65794">
        <ele>524</ele>
        <time>2021-08-04T12:22:03.932Z</time>
      </trkpt>
      <trkpt lat="47.02043" lon="8.65795">
        <ele>524</ele>
        <time>2021-08-04T12:22:04.931Z</time>
      </trkpt>
      <trkpt lat="47.02043" lon="8.65795">
        <ele>524</ele>
        <time>2021-08-04T12:22:05.932Z</time>
      </trkpt>
      <trkpt lat="47.02042" lon="8.65795">
        <ele>525</ele>
        <time>2021-08-04T12:22:06.932Z</time>
      </trkpt>
      <trkpt lat="47.02042" lon="8.65795">
        <ele>525</ele>
        <time>2021-08-04T12:22:07.932Z</time>
      </trkpt>
      <trkpt lat="47.02042" lon="8.65795">
        <ele>525</ele>
        <time>2021-08-04T12:22:08.931Z</time>
      </trkpt>
      <trkpt lat="47.02042" lon="8.65795">
        <ele>525</ele>
        <time>2021-08-04T12:22:09.932Z</time>
      </trkpt>
      <trkpt lat="47.02042" lon="8.65795">
        <ele>525</ele>
        <time>2021-08-04T12:22:10.931Z</time>
      </trkpt>
      <trkpt lat="47.02042" lon="8.65796">
        <ele>525</ele>
        <time>2021-08-04T12:22:11.932Z</time>
      </trkpt>
      <trkpt lat="47.02043" lon="8.65798">
        <ele>526</ele>
        <time>2021-08-04T12:22:12.931Z</time>
      </trkpt>
      <trkpt lat="47.02043" lon="8.65798">
        <ele>526</ele>
        <time>2021-08-04T12:22:13.931Z</time>
      </trkpt>
      <trkpt lat="47.02043" lon="8.65798">
        <ele>526</ele>
        <time>2021-08-04T12:22:14.931Z</time>
      </trkpt>
      <trkpt lat="47.02043" lon="8.65798">
        <ele>527</ele>
        <time>2021-08-04T12:22:15.931Z</time>
      </trkpt>
      <trkpt lat="47.02044" lon="8.65799">
        <ele>527</ele>
        <time>2021-08-04T12:22:16.931Z</time>
      </trkpt>
      <trkpt lat="47.02044" lon="8.65798">
        <ele>528</ele>
        <time>2021-08-04T12:22:17.931Z</time>
      </trkpt>
      <trkpt lat="47.02043" lon="8.65798">
        <ele>528</ele>
        <time>2021-08-04T12:22:18.932Z</time>
      </trkpt>
      <trkpt lat="47.02043" lon="8.65799">
        <ele>528</ele>
        <time>2021-08-04T12:22:19.932Z</time>
      </trkpt>
      <trkpt lat="47.02042" lon="8.65799">
        <ele>528</ele>
        <time>2021-08-04T12:22:20.931Z</time>
      </trkpt>
      <trkpt lat="47.02041" lon="8.65798">
        <ele>528</ele>
        <time>2021-08-04T12:22:21.931Z</time>
      </trkpt>
      <trkpt lat="47.02041" lon="8.65798">
        <ele>528</ele>
        <time>2021-08-04T12:22:22.931Z</time>
      </trkpt>
      <trkpt lat="47.0204" lon="8.65798">
        <ele>528</ele>
        <time>2021-08-04T12:22:23.932Z</time>
      </trkpt>
      <trkpt lat="47.0204" lon="8.65797">
        <ele>527</ele>
        <time>2021-08-04T12:22:24.932Z</time>
      </trkpt>
      <trkpt lat="47.0204" lon="8.65797">
        <ele>527</ele>
        <time>2021-08-04T12:22:25.932Z</time>
      </trkpt>
      <trkpt lat="47.0204" lon="8.65797">
        <ele>527</ele>
        <time>2021-08-04T12:22:26.932Z</time>
      </trkpt>
      <trkpt lat="47.02039" lon="8.65797">
        <ele>526</ele>
        <time>2021-08-04T12:22:27.932Z</time>
      </trkpt>
      <trkpt lat="47.02038" lon="8.65797">
        <ele>526</ele>
        <time>2021-08-04T12:22:28.932Z</time>
      </trkpt>
      <trkpt lat="47.02038" lon="8.65798">
        <ele>526</ele>
        <time>2021-08-04T12:22:29.932Z</time>
      </trkpt>
      <trkpt lat="47.02041" lon="8.65797">
        <ele>527</ele>
        <time>2021-08-04T12:22:30.931Z</time>
      </trkpt>
      <trkpt lat="47.02041" lon="8.65797">
        <ele>527</ele>
        <time>2021-08-04T12:22:31.931Z</time>
      </trkpt>
      <trkpt lat="47.02041" lon="8.65797">
        <ele>527</ele>
        <time>2021-08-04T12:22:32.931Z</time>
      </trkpt>
      <trkpt lat="47.02042" lon="8.658">
        <ele>528</ele>
        <time>2021-08-04T12:22:33.931Z</time>
      </trkpt>
      <trkpt lat="47.02044" lon="8.65804">
        <ele>528</ele>
        <time>2021-08-04T12:22:34.932Z</time>
      </trkpt>
      <trkpt lat="47.02046" lon="8.65806">
        <ele>528</ele>
        <time>2021-08-04T12:22:35.932Z</time>
      </trkpt>
      <trkpt lat="47.02049" lon="8.65809">
        <ele>528</ele>
        <time>2021-08-04T12:22:36.932Z</time>
      </trkpt>
      <trkpt lat="47.02052" lon="8.65811">
        <ele>528</ele>
        <time>2021-08-04T12:22:37.932Z</time>
      </trkpt>
      <trkpt lat="47.02054" lon="8.65808">
        <ele>528</ele>
        <time>2021-08-04T12:22:38.932Z</time>
      </trkpt>
      <trkpt lat="47.02052" lon="8.65805">
        <ele>528</ele>
        <time>2021-08-04T12:22:39.932Z</time>
      </trkpt>
      <trkpt lat="47.02051" lon="8.65802">
        <ele>528</ele>
        <time>2021-08-04T12:22:40.931Z</time>
      </trkpt>
      <trkpt lat="47.0205" lon="8.65801">
        <ele>528</ele>
        <time>2021-08-04T12:22:41.932Z</time>
      </trkpt>
      <trkpt lat="47.02049" lon="8.658">
        <ele>528</ele>
        <time>2021-08-04T12:22:42.932Z</time>
      </trkpt>
      <trkpt lat="47.02049" lon="8.65799">
        <ele>528</ele>
        <time>2021-08-04T12:22:43.932Z</time>
      </trkpt>
      <trkpt lat="47.02049" lon="8.65798">
        <ele>528</ele>
        <time>2021-08-04T12:22:44.931Z</time>
      </trkpt>
      <trkpt lat="47.02049" lon="8.65796">
        <ele>526</ele>
        <time>2021-08-04T12:22:45.934Z</time>
      </trkpt>
      <trkpt lat="47.02048" lon="8.65796">
        <ele>525</ele>
        <time>2021-08-04T12:22:46.934Z</time>
      </trkpt>
      <trkpt lat="47.02048" lon="8.65795">
        <ele>525</ele>
        <time>2021-08-04T12:22:47.934Z</time>
      </trkpt>
      <trkpt lat="47.02047" lon="8.65795">
        <ele>524</ele>
        <time>2021-08-04T12:22:48.934Z</time>
      </trkpt>
      <trkpt lat="47.02047" lon="8.65795">
        <ele>524</ele>
        <time>2021-08-04T12:22:49.934Z</time>
      </trkpt>
      <trkpt lat="47.02048" lon="8.65795">
        <ele>524</ele>
        <time>2021-08-04T12:22:50.933Z</time>
      </trkpt>
      <trkpt lat="47.02048" lon="8.65796">
        <ele>525</ele>
        <time>2021-08-04T12:22:51.934Z</time>
      </trkpt>
      <trkpt lat="47.02048" lon="8.65796">
        <ele>525</ele>
        <time>2021-08-04T12:22:52.934Z</time>
      </trkpt>
      <trkpt lat="47.02048" lon="8.65796">
        <ele>525</ele>
        <time>2021-08-04T12:22:53.933Z</time>
      </trkpt>
      <trkpt lat="47.02051" lon="8.65799">
        <ele>523</ele>
        <time>2021-08-04T12:22:54.936Z</time>
      </trkpt>
      <trkpt lat="47.02053" lon="8.658">
        <ele>523</ele>
        <time>2021-08-04T12:22:55.936Z</time>
      </trkpt>
      <trkpt lat="47.02053" lon="8.65801">
        <ele>523</ele>
        <time>2021-08-04T12:22:56.935Z</time>
      </trkpt>
      <trkpt lat="47.02053" lon="8.65802">
        <ele>522</ele>
        <time>2021-08-04T12:22:57.935Z</time>
      </trkpt>
      <trkpt lat="47.02053" lon="8.65802">
        <ele>522</ele>
        <time>2021-08-04T12:22:58.935Z</time>
      </trkpt>
      <trkpt lat="47.02052" lon="8.65802">
        <ele>522</ele>
        <time>2021-08-04T12:22:59.935Z</time>
      </trkpt>
      <trkpt lat="47.02051" lon="8.65801">
        <ele>521</ele>
        <time>2021-08-04T12:23:00.935Z</time>
      </trkpt>
      <trkpt lat="47.02049" lon="8.65799">
        <ele>521</ele>
        <time>2021-08-04T12:23:01.936Z</time>
      </trkpt>
      <trkpt lat="47.02048" lon="8.65799">
        <ele>521</ele>
        <time>2021-08-04T12:23:02.936Z</time>
      </trkpt>
      <trkpt lat="47.02048" lon="8.65799">
        <ele>520</ele>
        <time>2021-08-04T12:23:03.935Z</time>
      </trkpt>
      <trkpt lat="47.02047" lon="8.65799">
        <ele>520</ele>
        <time>2021-08-04T12:23:04.936Z</time>
      </trkpt>
      <trkpt lat="47.02046" lon="8.65798">
        <ele>519</ele>
        <time>2021-08-04T12:23:05.935Z</time>
      </trkpt>
      <trkpt lat="47.02046" lon="8.65798">
        <ele>519</ele>
        <time>2021-08-04T12:23:06.935Z</time>
      </trkpt>
      <trkpt lat="47.02046" lon="8.65797">
        <ele>519</ele>
        <time>2021-08-04T12:23:07.936Z</time>
      </trkpt>
      <trkpt lat="47.02047" lon="8.65797">
        <ele>519</ele>
        <time>2021-08-04T12:23:08.935Z</time>
      </trkpt>
      <trkpt lat="47.02047" lon="8.65796">
        <ele>519</ele>
        <time>2021-08-04T12:23:09.936Z</time>
      </trkpt>
      <trkpt lat="47.02048" lon="8.65797">
        <ele>518</ele>
        <time>2021-08-04T12:23:10.936Z</time>
      </trkpt>
      <trkpt lat="47.02048" lon="8.65797">
        <ele>518</ele>
        <time>2021-08-04T12:23:11.936Z</time>
      </trkpt>
      <trkpt lat="47.02047" lon="8.65796">
        <ele>518</ele>
        <time>2021-08-04T12:23:12.937Z</time>
      </trkpt>
      <trkpt lat="47.02047" lon="8.65796">
        <ele>519</ele>
        <time>2021-08-04T12:23:13.936Z</time>
      </trkpt>
      <trkpt lat="47.02046" lon="8.65796">
        <ele>520</ele>
        <time>2021-08-04T12:23:14.936Z</time>
      </trkpt>
      <trkpt lat="47.02046" lon="8.65796">
        <ele>520</ele>
        <time>2021-08-04T12:23:15.936Z</time>
      </trkpt>
      <trkpt lat="47.02045" lon="8.65796">
        <ele>520</ele>
        <time>2021-08-04T12:23:16.937Z</time>
      </trkpt>
      <trkpt lat="47.02045" lon="8.65797">
        <ele>521</ele>
        <time>2021-08-04T12:23:17.936Z</time>
      </trkpt>
      <trkpt lat="47.02045" lon="8.65797">
        <ele>521</ele>
        <time>2021-08-04T12:23:18.936Z</time>
      </trkpt>
      <trkpt lat="47.02045" lon="8.65798">
        <ele>521</ele>
        <time>2021-08-04T12:23:19.936Z</time>
      </trkpt>
      <trkpt lat="47.02046" lon="8.65798">
        <ele>522</ele>
        <time>2021-08-04T12:23:20.936Z</time>
      </trkpt>
      <trkpt lat="47.02045" lon="8.65797">
        <ele>522</ele>
        <time>2021-08-04T12:23:21.937Z</time>
      </trkpt>
      <trkpt lat="47.02045" lon="8.65796">
        <ele>522</ele>
        <time>2021-08-04T12:23:22.937Z</time>
      </trkpt>
      <trkpt lat="47.02044" lon="8.65795">
        <ele>523</ele>
        <time>2021-08-04T12:23:23.936Z</time>
      </trkpt>
      <trkpt lat="47.02043" lon="8.65795">
        <ele>523</ele>
        <time>2021-08-04T12:23:24.936Z</time>
      </trkpt>
      <trkpt lat="47.02043" lon="8.65795">
        <ele>523</ele>
        <time>2021-08-04T12:23:25.936Z</time>
      </trkpt>
      <trkpt lat="47.02044" lon="8.65794">
        <ele>523</ele>
        <time>2021-08-04T12:23:26.937Z</time>
      </trkpt>
      <trkpt lat="47.02044" lon="8.65794">
        <ele>524</ele>
        <time>2021-08-04T12:23:27.936Z</time>
      </trkpt>
      <trkpt lat="47.02044" lon="8.65794">
        <ele>524</ele>
        <time>2021-08-04T12:23:28.936Z</time>
      </trkpt>
      <trkpt lat="47.02043" lon="8.65795">
        <ele>524</ele>
        <time>2021-08-04T12:23:29.936Z</time>
      </trkpt>
      <trkpt lat="47.02044" lon="8.65795">
        <ele>524</ele>
        <time>2021-08-04T12:23:30.936Z</time>
      </trkpt>
      <trkpt lat="47.02044" lon="8.65795">
        <ele>524</ele>
        <time>2021-08-04T12:23:31.936Z</time>
      </trkpt>
      <trkpt lat="47.02044" lon="8.65796">
        <ele>523</ele>
        <time>2021-08-04T12:23:32.937Z</time>
      </trkpt>
      <trkpt lat="47.02044" lon="8.65796">
        <ele>523</ele>
        <time>2021-08-04T12:23:33.938Z</time>
      </trkpt>
      <trkpt lat="47.02043" lon="8.65796">
        <ele>522</ele>
        <time>2021-08-04T12:23:34.938Z</time>
      </trkpt>
      <trkpt lat="47.02043" lon="8.65795">
        <ele>522</ele>
        <time>2021-08-04T12:23:35.937Z</time>
      </trkpt>
      <trkpt lat="47.02042" lon="8.65795">
        <ele>522</ele>
        <time>2021-08-04T12:23:36.937Z</time>
      </trkpt>
      <trkpt lat="47.02041" lon="8.65794">
        <ele>522</ele>
        <time>2021-08-04T12:23:37.937Z</time>
      </trkpt>
      <trkpt lat="47.02041" lon="8.65794">
        <ele>522</ele>
        <time>2021-08-04T12:23:38.938Z</time>
      </trkpt>
      <trkpt lat="47.02041" lon="8.65793">
        <ele>522</ele>
        <time>2021-08-04T12:23:39.938Z</time>
      </trkpt>
      <trkpt lat="47.02042" lon="8.65793">
        <ele>522</ele>
        <time>2021-08-04T12:23:40.937Z</time>
      </trkpt>
      <trkpt lat="47.02042" lon="8.65794">
        <ele>522</ele>
        <time>2021-08-04T12:23:41.937Z</time>
      </trkpt>
      <trkpt lat="47.02043" lon="8.65794">
        <ele>522</ele>
        <time>2021-08-04T12:23:42.938Z</time>
      </trkpt>
      <trkpt lat="47.02043" lon="8.65795">
        <ele>522</ele>
        <time>2021-08-04T12:23:43.938Z</time>
      </trkpt>
      <trkpt lat="47.02044" lon="8.65795">
        <ele>522</ele>
        <time>2021-08-04T12:23:44.937Z</time>
      </trkpt>
      <trkpt lat="47.02044" lon="8.65794">
        <ele>522</ele>
        <time>2021-08-04T12:23:45.937Z</time>
      </trkpt>
      <trkpt lat="47.02044" lon="8.65794">
        <ele>522</ele>
        <time>2021-08-04T12:23:46.938Z</time>
      </trkpt>
      <trkpt lat="47.02044" lon="8.65795">
        <ele>521</ele>
        <time>2021-08-04T12:23:47.938Z</time>
      </trkpt>
      <trkpt lat="47.02044" lon="8.65793">
        <ele>520</ele>
        <time>2021-08-04T12:23:48.937Z</time>
      </trkpt>
      <trkpt lat="47.02044" lon="8.65793">
        <ele>520</ele>
        <time>2021-08-04T12:23:49.937Z</time>
      </trkpt>
      <trkpt lat="47.02044" lon="8.65793">
        <ele>520</ele>
        <time>2021-08-04T12:23:50.938Z</time>
      </trkpt>
      <trkpt lat="47.02044" lon="8.65794">
        <ele>520</ele>
        <time>2021-08-04T12:23:51.938Z</time>
      </trkpt>
      <trkpt lat="47.02044" lon="8.65794">
        <ele>520</ele>
        <time>2021-08-04T12:23:52.938Z</time>
      </trkpt>
      <trkpt lat="47.02043" lon="8.65794">
        <ele>520</ele>
        <time>2021-08-04T12:23:53.938Z</time>
      </trkpt>
      <trkpt lat="47.02043" lon="8.65794">
        <ele>520</ele>
        <time>2021-08-04T12:23:54.937Z</time>
      </trkpt>
      <trkpt lat="47.02042" lon="8.65794">
        <ele>520</ele>
        <time>2021-08-04T12:23:55.937Z</time>
      </trkpt>
      <trkpt lat="47.02042" lon="8.65793">
        <ele>520</ele>
        <time>2021-08-04T12:23:56.938Z</time>
      </trkpt>
      <trkpt lat="47.02042" lon="8.65793">
        <ele>520</ele>
        <time>2021-08-04T12:23:57.938Z</time>
      </trkpt>
      <trkpt lat="47.02042" lon="8.65793">
        <ele>520</ele>
        <time>2021-08-04T12:23:58.937Z</time>
      </trkpt>
      <trkpt lat="47.02042" lon="8.65793">
        <ele>521</ele>
        <time>2021-08-04T12:23:59.937Z</time>
      </trkpt>
      <trkpt lat="47.02042" lon="8.65792">
        <ele>522</ele>
        <time>2021-08-04T12:24:00.938Z</time>
      </trkpt>
      <trkpt lat="47.02042" lon="8.65792">
        <ele>523</ele>
        <time>2021-08-04T12:24:01.938Z</time>
      </trkpt>
      <trkpt lat="47.02042" lon="8.65791">
        <ele>524</ele>
        <time>2021-08-04T12:24:02.937Z</time>
      </trkpt>
      <trkpt lat="47.02042" lon="8.65792">
        <ele>524</ele>
        <time>2021-08-04T12:24:03.938Z</time>
      </trkpt>
      <trkpt lat="47.02042" lon="8.65791">
        <ele>525</ele>
        <time>2021-08-04T12:24:04.938Z</time>
      </trkpt>
      <trkpt lat="47.02042" lon="8.6579">
        <ele>526</ele>
        <time>2021-08-04T12:24:05.938Z</time>
      </trkpt>
      <trkpt lat="47.02042" lon="8.6579">
        <ele>526</ele>
        <time>2021-08-04T12:24:06.939Z</time>
      </trkpt>
      <trkpt lat="47.02041" lon="8.6579">
        <ele>527</ele>
        <time>2021-08-04T12:24:07.939Z</time>
      </trkpt>
      <trkpt lat="47.0204" lon="8.65789">
        <ele>527</ele>
        <time>2021-08-04T12:24:08.939Z</time>
      </trkpt>
      <trkpt lat="47.02039" lon="8.65789">
        <ele>527</ele>
        <time>2021-08-04T12:24:09.939Z</time>
      </trkpt>
      <trkpt lat="47.02039" lon="8.65789">
        <ele>527</ele>
        <time>2021-08-04T12:24:10.938Z</time>
      </trkpt>
      <trkpt lat="47.02038" lon="8.65789">
        <ele>527</ele>
        <time>2021-08-04T12:24:11.939Z</time>
      </trkpt>
      <trkpt lat="47.02038" lon="8.65788">
        <ele>526</ele>
        <time>2021-08-04T12:24:12.939Z</time>
      </trkpt>
      <trkpt lat="47.02038" lon="8.65787">
        <ele>526</ele>
        <time>2021-08-04T12:24:13.939Z</time>
      </trkpt>
      <trkpt lat="47.02038" lon="8.65786">
        <ele>526</ele>
        <time>2021-08-04T12:24:14.939Z</time>
      </trkpt>
      <trkpt lat="47.02038" lon="8.65785">
        <ele>526</ele>
        <time>2021-08-04T12:24:15.939Z</time>
      </trkpt>
      <trkpt lat="47.02039" lon="8.65785">
        <ele>526</ele>
        <time>2021-08-04T12:24:16.938Z</time>
      </trkpt>
      <trkpt lat="47.02039" lon="8.65785">
        <ele>525</ele>
        <time>2021-08-04T12:24:17.939Z</time>
      </trkpt>
      <trkpt lat="47.02041" lon="8.65787">
        <ele>524</ele>
        <time>2021-08-04T12:24:18.939Z</time>
      </trkpt>
      <trkpt lat="47.02041" lon="8.65787">
        <ele>524</ele>
        <time>2021-08-04T12:24:19.939Z</time>
      </trkpt>
      <trkpt lat="47.02041" lon="8.65788">
        <ele>524</ele>
        <time>2021-08-04T12:24:20.939Z</time>
      </trkpt>
      <trkpt lat="47.02042" lon="8.65789">
        <ele>524</ele>
        <time>2021-08-04T12:24:21.939Z</time>
      </trkpt>
      <trkpt lat="47.02044" lon="8.65789">
        <ele>523</ele>
        <time>2021-08-04T12:24:25.938Z</time>
      </trkpt>
      <trkpt lat="47.02045" lon="8.6579">
        <ele>523</ele>
        <time>2021-08-04T12:24:26.939Z</time>
      </trkpt>
      <trkpt lat="47.02045" lon="8.65789">
        <ele>523</ele>
        <time>2021-08-04T12:24:27.938Z</time>
      </trkpt>
      <trkpt lat="47.02046" lon="8.65788">
        <ele>523</ele>
        <time>2021-08-04T12:24:28.939Z</time>
      </trkpt>
      <trkpt lat="47.02046" lon="8.65788">
        <ele>523</ele>
        <time>2021-08-04T12:24:29.939Z</time>
      </trkpt>
      <trkpt lat="47.02046" lon="8.65788">
        <ele>524</ele>
        <time>2021-08-04T12:24:30.939Z</time>
      </trkpt>
      <trkpt lat="47.02045" lon="8.65789">
        <ele>524</ele>
        <time>2021-08-04T12:24:31.939Z</time>
      </trkpt>
      <trkpt lat="47.02044" lon="8.6579">
        <ele>524</ele>
        <time>2021-08-04T12:24:32.939Z</time>
      </trkpt>
      <trkpt lat="47.02044" lon="8.6579">
        <ele>524</ele>
        <time>2021-08-04T12:24:33.939Z</time>
      </trkpt>
      <trkpt lat="47.02044" lon="8.65789">
        <ele>524</ele>
        <time>2021-08-04T12:24:34.939Z</time>
      </trkpt>
      <trkpt lat="47.02047" lon="8.65793">
        <ele>521</ele>
        <time>2021-08-04T12:24:35.940Z</time>
      </trkpt>
      <trkpt lat="47.02047" lon="8.65794">
        <ele>520</ele>
        <time>2021-08-04T12:24:36.940Z</time>
      </trkpt>
      <trkpt lat="47.02047" lon="8.65795">
        <ele>519</ele>
        <time>2021-08-04T12:24:37.939Z</time>
      </trkpt>
      <trkpt lat="47.02048" lon="8.65797">
        <ele>519</ele>
        <time>2021-08-04T12:24:38.940Z</time>
      </trkpt>
      <trkpt lat="47.02048" lon="8.65799">
        <ele>518</ele>
        <time>2021-08-04T12:24:39.939Z</time>
      </trkpt>
      <trkpt lat="47.02048" lon="8.65799">
        <ele>517</ele>
        <time>2021-08-04T12:24:40.940Z</time>
      </trkpt>
      <trkpt lat="47.02047" lon="8.65798">
        <ele>517</ele>
        <time>2021-08-04T12:24:41.939Z</time>
      </trkpt>
      <trkpt lat="47.02046" lon="8.65798">
        <ele>517</ele>
        <time>2021-08-04T12:24:42.940Z</time>
      </trkpt>
      <trkpt lat="47.02046" lon="8.65798">
        <ele>517</ele>
        <time>2021-08-04T12:24:43.939Z</time>
      </trkpt>
      <trkpt lat="47.02046" lon="8.65799">
        <ele>517</ele>
        <time>2021-08-04T12:24:44.939Z</time>
      </trkpt>
      <trkpt lat="47.02045" lon="8.65799">
        <ele>517</ele>
        <time>2021-08-04T12:24:45.940Z</time>
      </trkpt>
      <trkpt lat="47.02046" lon="8.65799">
        <ele>518</ele>
        <time>2021-08-04T12:24:46.940Z</time>
      </trkpt>
      <trkpt lat="47.02045" lon="8.65799">
        <ele>518</ele>
        <time>2021-08-04T12:24:47.939Z</time>
      </trkpt>
      <trkpt lat="47.02045" lon="8.65798">
        <ele>519</ele>
        <time>2021-08-04T12:24:48.940Z</time>
      </trkpt>
      <trkpt lat="47.02045" lon="8.65796">
        <ele>520</ele>
        <time>2021-08-04T12:24:49.939Z</time>
      </trkpt>
      <trkpt lat="47.02044" lon="8.65795">
        <ele>520</ele>
        <time>2021-08-04T12:24:50.940Z</time>
      </trkpt>
      <trkpt lat="47.02044" lon="8.65794">
        <ele>521</ele>
        <time>2021-08-04T12:24:51.939Z</time>
      </trkpt>
      <trkpt lat="47.02045" lon="8.65793">
        <ele>521</ele>
        <time>2021-08-04T12:24:52.939Z</time>
      </trkpt>
      <trkpt lat="47.02045" lon="8.65793">
        <ele>522</ele>
        <time>2021-08-04T12:24:53.940Z</time>
      </trkpt>
      <trkpt lat="47.02045" lon="8.65792">
        <ele>522</ele>
        <time>2021-08-04T12:24:54.939Z</time>
      </trkpt>
      <trkpt lat="47.02045" lon="8.65792">
        <ele>522</ele>
        <time>2021-08-04T12:24:55.939Z</time>
      </trkpt>
      <trkpt lat="47.02045" lon="8.65792">
        <ele>522</ele>
        <time>2021-08-04T12:24:56.940Z</time>
      </trkpt>
      <trkpt lat="47.02044" lon="8.65792">
        <ele>523</ele>
        <time>2021-08-04T12:24:57.939Z</time>
      </trkpt>
      <trkpt lat="47.02044" lon="8.65792">
        <ele>523</ele>
        <time>2021-08-04T12:24:58.939Z</time>
      </trkpt>
      <trkpt lat="47.02044" lon="8.65793">
        <ele>523</ele>
        <time>2021-08-04T12:24:59.940Z</time>
      </trkpt>
      <trkpt lat="47.02045" lon="8.65794">
        <ele>524</ele>
        <time>2021-08-04T12:25:00.941Z</time>
      </trkpt>
      <trkpt lat="47.02045" lon="8.65793">
        <ele>525</ele>
        <time>2021-08-04T12:25:01.940Z</time>
      </trkpt>
      <trkpt lat="47.02045" lon="8.65793">
        <ele>525</ele>
        <time>2021-08-04T12:25:02.941Z</time>
      </trkpt>
      <trkpt lat="47.02045" lon="8.65793">
        <ele>525</ele>
        <time>2021-08-04T12:25:03.941Z</time>
      </trkpt>
      <trkpt lat="47.02044" lon="8.65794">
        <ele>525</ele>
        <time>2021-08-04T12:25:04.941Z</time>
      </trkpt>
      <trkpt lat="47.02044" lon="8.65794">
        <ele>526</ele>
        <time>2021-08-04T12:25:05.941Z</time>
      </trkpt>
      <trkpt lat="47.02044" lon="8.65794">
        <ele>526</ele>
        <time>2021-08-04T12:25:06.941Z</time>
      </trkpt>
      <trkpt lat="47.02043" lon="8.65795">
        <ele>526</ele>
        <time>2021-08-04T12:25:07.941Z</time>
      </trkpt>
      <trkpt lat="47.02044" lon="8.65795">
        <ele>526</ele>
        <time>2021-08-04T12:25:08.941Z</time>
      </trkpt>
      <trkpt lat="47.02044" lon="8.65795">
        <ele>526</ele>
        <time>2021-08-04T12:25:09.941Z</time>
      </trkpt>
      <trkpt lat="47.02044" lon="8.65796">
        <ele>526</ele>
        <time>2021-08-04T12:25:10.940Z</time>
      </trkpt>
      <trkpt lat="47.02044" lon="8.65795">
        <ele>526</ele>
        <time>2021-08-04T12:25:11.940Z</time>
      </trkpt>
      <trkpt lat="47.02044" lon="8.65795">
        <ele>525</ele>
        <time>2021-08-04T12:25:12.940Z</time>
      </trkpt>
      <trkpt lat="47.02044" lon="8.65794">
        <ele>524</ele>
        <time>2021-08-04T12:25:13.941Z</time>
      </trkpt>
      <trkpt lat="47.02044" lon="8.65793">
        <ele>524</ele>
        <time>2021-08-04T12:25:14.942Z</time>
      </trkpt>
      <trkpt lat="47.02044" lon="8.65793">
        <ele>525</ele>
        <time>2021-08-04T12:25:15.942Z</time>
      </trkpt>
      <trkpt lat="47.02044" lon="8.65793">
        <ele>526</ele>
        <time>2021-08-04T12:25:16.942Z</time>
      </trkpt>
      <trkpt lat="47.02044" lon="8.65793">
        <ele>527</ele>
        <time>2021-08-04T12:25:17.942Z</time>
      </trkpt>
      <trkpt lat="47.02045" lon="8.65794">
        <ele>526</ele>
        <time>2021-08-04T12:25:20.046Z</time>
      </trkpt>
      <trkpt lat="47.02045" lon="8.65794">
        <ele>525</ele>
        <time>2021-08-04T12:25:21.046Z</time>
      </trkpt>
      <trkpt lat="47.02045" lon="8.65794">
        <ele>525</ele>
        <time>2021-08-04T12:25:22.046Z</time>
      </trkpt>
      <trkpt lat="47.02045" lon="8.65795">
        <ele>525</ele>
        <time>2021-08-04T12:25:23.046Z</time>
      </trkpt>
      <trkpt lat="47.02045" lon="8.65794">
        <ele>524</ele>
        <time>2021-08-04T12:25:24.045Z</time>
      </trkpt>
      <trkpt lat="47.02044" lon="8.65793">
        <ele>524</ele>
        <time>2021-08-04T12:25:25.045Z</time>
      </trkpt>
      <trkpt lat="47.02044" lon="8.65794">
        <ele>524</ele>
        <time>2021-08-04T12:25:26.046Z</time>
      </trkpt>
      <trkpt lat="47.02044" lon="8.65794">
        <ele>525</ele>
        <time>2021-08-04T12:25:27.045Z</time>
      </trkpt>
      <trkpt lat="47.02044" lon="8.65794">
        <ele>525</ele>
        <time>2021-08-04T12:25:28.046Z</time>
      </trkpt>
      <trkpt lat="47.02045" lon="8.65794">
        <ele>525</ele>
        <time>2021-08-04T12:25:29.046Z</time>
      </trkpt>
      <trkpt lat="47.02046" lon="8.65795">
        <ele>525</ele>
        <time>2021-08-04T12:25:30.045Z</time>
      </trkpt>
      <trkpt lat="47.02046" lon="8.65795">
        <ele>525</ele>
        <time>2021-08-04T12:25:31.045Z</time>
      </trkpt>
      <trkpt lat="47.02046" lon="8.65796">
        <ele>525</ele>
        <time>2021-08-04T12:25:32.045Z</time>
      </trkpt>
      <trkpt lat="47.02046" lon="8.65796">
        <ele>525</ele>
        <time>2021-08-04T12:25:33.045Z</time>
      </trkpt>
      <trkpt lat="47.02046" lon="8.65796">
        <ele>525</ele>
        <time>2021-08-04T12:25:34.046Z</time>
      </trkpt>
      <trkpt lat="47.02047" lon="8.65796">
        <ele>525</ele>
        <time>2021-08-04T12:25:35.046Z</time>
      </trkpt>
      <trkpt lat="47.02046" lon="8.65797">
        <ele>524</ele>
        <time>2021-08-04T12:25:36.046Z</time>
      </trkpt>
      <trkpt lat="47.02046" lon="8.65797">
        <ele>524</ele>
        <time>2021-08-04T12:25:37.047Z</time>
      </trkpt>
      <trkpt lat="47.02046" lon="8.65797">
        <ele>524</ele>
        <time>2021-08-04T12:25:38.047Z</time>
      </trkpt>
      <trkpt lat="47.02046" lon="8.65797">
        <ele>524</ele>
        <time>2021-08-04T12:25:39.047Z</time>
      </trkpt>
      <trkpt lat="47.02045" lon="8.65796">
        <ele>524</ele>
        <time>2021-08-04T12:25:43.065Z</time>
      </trkpt>
      <trkpt lat="47.02045" lon="8.65797">
        <ele>523</ele>
        <time>2021-08-04T12:25:44.067Z</time>
      </trkpt>
      <trkpt lat="47.02046" lon="8.65797">
        <ele>523</ele>
        <time>2021-08-04T12:25:45.066Z</time>
      </trkpt>
      <trkpt lat="47.02047" lon="8.65796">
        <ele>520</ele>
        <time>2021-08-04T12:25:47.231Z</time>
      </trkpt>
      <trkpt lat="47.02046" lon="8.65796">
        <ele>516</ele>
        <time>2021-08-04T12:25:51.064Z</time>
      </trkpt>
      <trkpt lat="47.02046" lon="8.65796">
        <ele>515</ele>
        <time>2021-08-04T12:25:52.064Z</time>
      </trkpt>
      <trkpt lat="47.02046" lon="8.65795">
        <ele>515</ele>
        <time>2021-08-04T12:25:53.065Z</time>
      </trkpt>
      <trkpt lat="47.02045" lon="8.65795">
        <ele>514</ele>
        <time>2021-08-04T12:25:57.175Z</time>
      </trkpt>
      <trkpt lat="47.02045" lon="8.65795">
        <ele>514</ele>
        <time>2021-08-04T12:25:58.175Z</time>
      </trkpt>
      <trkpt lat="47.02045" lon="8.65796">
        <ele>514</ele>
        <time>2021-08-04T12:25:59.175Z</time>
      </trkpt>
      <trkpt lat="47.02045" lon="8.65796">
        <ele>514</ele>
        <time>2021-08-04T12:26:00.175Z</time>
      </trkpt>
      <trkpt lat="47.02045" lon="8.65797">
        <ele>513</ele>
        <time>2021-08-04T12:26:01.174Z</time>
      </trkpt>
      <trkpt lat="47.02045" lon="8.65797">
        <ele>513</ele>
        <time>2021-08-04T12:26:02.175Z</time>
      </trkpt>
      <trkpt lat="47.02045" lon="8.65797">
        <ele>513</ele>
        <time>2021-08-04T12:26:03.175Z</time>
      </trkpt>
      <trkpt lat="47.02046" lon="8.65798">
        <ele>514</ele>
        <time>2021-08-04T12:26:04.176Z</time>
      </trkpt>
      <trkpt lat="47.02046" lon="8.65798">
        <ele>514</ele>
        <time>2021-08-04T12:26:05.176Z</time>
      </trkpt>
      <trkpt lat="47.02046" lon="8.65798">
        <ele>514</ele>
        <time>2021-08-04T12:26:06.175Z</time>
      </trkpt>
      <trkpt lat="47.02047" lon="8.65799">
        <ele>516</ele>
        <time>2021-08-04T12:26:07.175Z</time>
      </trkpt>
      <trkpt lat="47.02046" lon="8.65799">
        <ele>516</ele>
        <time>2021-08-04T12:26:08.176Z</time>
      </trkpt>
      <trkpt lat="47.02046" lon="8.65799">
        <ele>517</ele>
        <time>2021-08-04T12:26:09.176Z</time>
      </trkpt>
      <trkpt lat="47.02046" lon="8.65799">
        <ele>517</ele>
        <time>2021-08-04T12:26:10.175Z</time>
      </trkpt>
      <trkpt lat="47.02048" lon="8.65799">
        <ele>518</ele>
        <time>2021-08-04T12:26:11.176Z</time>
      </trkpt>
      <trkpt lat="47.02048" lon="8.658">
        <ele>518</ele>
        <time>2021-08-04T12:26:12.175Z</time>
      </trkpt>
      <trkpt lat="47.02049" lon="8.658">
        <ele>519</ele>
        <time>2021-08-04T12:26:13.175Z</time>
      </trkpt>
      <trkpt lat="47.02049" lon="8.65799">
        <ele>519</ele>
        <time>2021-08-04T12:26:14.175Z</time>
      </trkpt>
      <trkpt lat="47.02049" lon="8.65798">
        <ele>520</ele>
        <time>2021-08-04T12:26:15.175Z</time>
      </trkpt>
      <trkpt lat="47.02049" lon="8.65798">
        <ele>520</ele>
        <time>2021-08-04T12:26:16.175Z</time>
      </trkpt>
      <trkpt lat="47.02049" lon="8.65799">
        <ele>520</ele>
        <time>2021-08-04T12:26:17.176Z</time>
      </trkpt>
      <trkpt lat="47.0205" lon="8.658">
        <ele>520</ele>
        <time>2021-08-04T12:26:18.176Z</time>
      </trkpt>
      <trkpt lat="47.0205" lon="8.658">
        <ele>521</ele>
        <time>2021-08-04T12:26:19.175Z</time>
      </trkpt>
      <trkpt lat="47.0205" lon="8.658">
        <ele>521</ele>
        <time>2021-08-04T12:26:20.175Z</time>
      </trkpt>
      <trkpt lat="47.02049" lon="8.65799">
        <ele>521</ele>
        <time>2021-08-04T12:26:21.175Z</time>
      </trkpt>
      <trkpt lat="47.02049" lon="8.65799">
        <ele>522</ele>
        <time>2021-08-04T12:26:22.176Z</time>
      </trkpt>
      <trkpt lat="47.02049" lon="8.65798">
        <ele>522</ele>
        <time>2021-08-04T12:26:23.176Z</time>
      </trkpt>
      <trkpt lat="47.02049" lon="8.65798">
        <ele>522</ele>
        <time>2021-08-04T12:26:24.176Z</time>
      </trkpt>
      <trkpt lat="47.0205" lon="8.65797">
        <ele>523</ele>
        <time>2021-08-04T12:26:25.176Z</time>
      </trkpt>
      <trkpt lat="47.02049" lon="8.65797">
        <ele>523</ele>
        <time>2021-08-04T12:26:26.175Z</time>
      </trkpt>
      <trkpt lat="47.02049" lon="8.65796">
        <ele>523</ele>
        <time>2021-08-04T12:26:27.175Z</time>
      </trkpt>
      <trkpt lat="47.02049" lon="8.65796">
        <ele>523</ele>
        <time>2021-08-04T12:26:28.176Z</time>
      </trkpt>
      <trkpt lat="47.02049" lon="8.65797">
        <ele>523</ele>
        <time>2021-08-04T12:26:29.176Z</time>
      </trkpt>
      <trkpt lat="47.02049" lon="8.65797">
        <ele>523</ele>
        <time>2021-08-04T12:26:30.175Z</time>
      </trkpt>
      <trkpt lat="47.02049" lon="8.65797">
        <ele>522</ele>
        <time>2021-08-04T12:26:31.176Z</time>
      </trkpt>
      <trkpt lat="47.02049" lon="8.65798">
        <ele>522</ele>
        <time>2021-08-04T12:26:32.176Z</time>
      </trkpt>
      <trkpt lat="47.02048" lon="8.65797">
        <ele>522</ele>
        <time>2021-08-04T12:26:33.175Z</time>
      </trkpt>
      <trkpt lat="47.02048" lon="8.65797">
        <ele>522</ele>
        <time>2021-08-04T12:26:34.175Z</time>
      </trkpt>
      <trkpt lat="47.02048" lon="8.65797">
        <ele>523</ele>
        <time>2021-08-04T12:26:35.176Z</time>
      </trkpt>
      <trkpt lat="47.02048" lon="8.65797">
        <ele>523</ele>
        <time>2021-08-04T12:26:36.176Z</time>
      </trkpt>
      <trkpt lat="47.02046" lon="8.65795">
        <ele>524</ele>
        <time>2021-08-04T12:26:37.177Z</time>
      </trkpt>
      <trkpt lat="47.02046" lon="8.65795">
        <ele>524</ele>
        <time>2021-08-04T12:26:38.177Z</time>
      </trkpt>
      <trkpt lat="47.02046" lon="8.65795">
        <ele>524</ele>
        <time>2021-08-04T12:26:39.178Z</time>
      </trkpt>
      <trkpt lat="47.02046" lon="8.65796">
        <ele>524</ele>
        <time>2021-08-04T12:26:40.177Z</time>
      </trkpt>
      <trkpt lat="47.02046" lon="8.65796">
        <ele>524</ele>
        <time>2021-08-04T12:26:41.178Z</time>
      </trkpt>
      <trkpt lat="47.02046" lon="8.65798">
        <ele>524</ele>
        <time>2021-08-04T12:26:42.178Z</time>
      </trkpt>
      <trkpt lat="47.02046" lon="8.65797">
        <ele>524</ele>
        <time>2021-08-04T12:26:43.177Z</time>
      </trkpt>
      <trkpt lat="47.02045" lon="8.65796">
        <ele>524</ele>
        <time>2021-08-04T12:26:44.178Z</time>
      </trkpt>
      <trkpt lat="47.02045" lon="8.65795">
        <ele>524</ele>
        <time>2021-08-04T12:26:45.177Z</time>
      </trkpt>
      <trkpt lat="47.02044" lon="8.65795">
        <ele>524</ele>
        <time>2021-08-04T12:26:46.177Z</time>
      </trkpt>
      <trkpt lat="47.02045" lon="8.65796">
        <ele>524</ele>
        <time>2021-08-04T12:26:47.177Z</time>
      </trkpt>
      <trkpt lat="47.02045" lon="8.65797">
        <ele>524</ele>
        <time>2021-08-04T12:26:48.178Z</time>
      </trkpt>
      <trkpt lat="47.02045" lon="8.65797">
        <ele>524</ele>
        <time>2021-08-04T12:26:49.177Z</time>
      </trkpt>
      <trkpt lat="47.02046" lon="8.65797">
        <ele>524</ele>
        <time>2021-08-04T12:26:50.178Z</time>
      </trkpt>
      <trkpt lat="47.02046" lon="8.65797">
        <ele>524</ele>
        <time>2021-08-04T12:26:51.178Z</time>
      </trkpt>
      <trkpt lat="47.02046" lon="8.65797">
        <ele>524</ele>
        <time>2021-08-04T12:26:52.178Z</time>
      </trkpt>
      <trkpt lat="47.02045" lon="8.65796">
        <ele>526</ele>
        <time>2021-08-04T12:26:53.179Z</time>
      </trkpt>
      <trkpt lat="47.02046" lon="8.65796">
        <ele>526</ele>
        <time>2021-08-04T12:26:54.179Z</time>
      </trkpt>
      <trkpt lat="47.02046" lon="8.65796">
        <ele>526</ele>
        <time>2021-08-04T12:26:55.179Z</time>
      </trkpt>
      <trkpt lat="47.02046" lon="8.65795">
        <ele>527</ele>
        <time>2021-08-04T12:26:56.180Z</time>
      </trkpt>
      <trkpt lat="47.02046" lon="8.65795">
        <ele>527</ele>
        <time>2021-08-04T12:26:57.180Z</time>
      </trkpt>
      <trkpt lat="47.02046" lon="8.65795">
        <ele>527</ele>
        <time>2021-08-04T12:26:58.180Z</time>
      </trkpt>
      <trkpt lat="47.02047" lon="8.65796">
        <ele>526</ele>
        <time>2021-08-04T12:26:59.180Z</time>
      </trkpt>
      <trkpt lat="47.02047" lon="8.65796">
        <ele>523</ele>
        <time>2021-08-04T12:27:00.179Z</time>
      </trkpt>
      <trkpt lat="47.02048" lon="8.65796">
        <ele>523</ele>
        <time>2021-08-04T12:27:01.179Z</time>
      </trkpt>
      <trkpt lat="47.02047" lon="8.65796">
        <ele>523</ele>
        <time>2021-08-04T12:27:02.180Z</time>
      </trkpt>
      <trkpt lat="47.02046" lon="8.65796">
        <ele>523</ele>
        <time>2021-08-04T12:27:03.179Z</time>
      </trkpt>
      <trkpt lat="47.02046" lon="8.65796">
        <ele>522</ele>
        <time>2021-08-04T12:27:04.180Z</time>
      </trkpt>
      <trkpt lat="47.02046" lon="8.65796">
        <ele>522</ele>
        <time>2021-08-04T12:27:05.179Z</time>
      </trkpt>
      <trkpt lat="47.02046" lon="8.65796">
        <ele>522</ele>
        <time>2021-08-04T12:27:06.180Z</time>
      </trkpt>
      <trkpt lat="47.02045" lon="8.65796">
        <ele>521</ele>
        <time>2021-08-04T12:27:07.180Z</time>
      </trkpt>
      <trkpt lat="47.02044" lon="8.65796">
        <ele>521</ele>
        <time>2021-08-04T12:27:08.181Z</time>
      </trkpt>
      <trkpt lat="47.02044" lon="8.65796">
        <ele>521</ele>
        <time>2021-08-04T12:27:09.180Z</time>
      </trkpt>
      <trkpt lat="47.02044" lon="8.65795">
        <ele>521</ele>
        <time>2021-08-04T12:27:10.180Z</time>
      </trkpt>
      <trkpt lat="47.02044" lon="8.65796">
        <ele>521</ele>
        <time>2021-08-04T12:27:11.180Z</time>
      </trkpt>
      <trkpt lat="47.02044" lon="8.65797">
        <ele>520</ele>
        <time>2021-08-04T12:27:12.180Z</time>
      </trkpt>
      <trkpt lat="47.02043" lon="8.65797">
        <ele>520</ele>
        <time>2021-08-04T12:27:13.180Z</time>
      </trkpt>
      <trkpt lat="47.02043" lon="8.65797">
        <ele>520</ele>
        <time>2021-08-04T12:27:14.180Z</time>
      </trkpt>
      <trkpt lat="47.02044" lon="8.65796">
        <ele>520</ele>
        <time>2021-08-04T12:27:15.181Z</time>
      </trkpt>
      <trkpt lat="47.02044" lon="8.65796">
        <ele>520</ele>
        <time>2021-08-04T12:27:16.181Z</time>
      </trkpt>
      <trkpt lat="47.02044" lon="8.65795">
        <ele>521</ele>
        <time>2021-08-04T12:27:17.181Z</time>
      </trkpt>
      <trkpt lat="47.02044" lon="8.65794">
        <ele>522</ele>
        <time>2021-08-04T12:27:18.182Z</time>
      </trkpt>
      <trkpt lat="47.02044" lon="8.65794">
        <ele>522</ele>
        <time>2021-08-04T12:27:19.181Z</time>
      </trkpt>
      <trkpt lat="47.02044" lon="8.65794">
        <ele>522</ele>
        <time>2021-08-04T12:27:20.181Z</time>
      </trkpt>
      <trkpt lat="47.02044" lon="8.65793">
        <ele>522</ele>
        <time>2021-08-04T12:27:21.182Z</time>
      </trkpt>
      <trkpt lat="47.02044" lon="8.65793">
        <ele>522</ele>
        <time>2021-08-04T12:27:22.181Z</time>
      </trkpt>
      <trkpt lat="47.02043" lon="8.65793">
        <ele>522</ele>
        <time>2021-08-04T12:27:23.181Z</time>
      </trkpt>
      <trkpt lat="47.02043" lon="8.65794">
        <ele>522</ele>
        <time>2021-08-04T12:27:24.182Z</time>
      </trkpt>
      <trkpt lat="47.02045" lon="8.65795">
        <ele>521</ele>
        <time>2021-08-04T12:27:25.182Z</time>
      </trkpt>
      <trkpt lat="47.02045" lon="8.65795">
        <ele>520</ele>
        <time>2021-08-04T12:27:26.183Z</time>
      </trkpt>
      <trkpt lat="47.02045" lon="8.65796">
        <ele>520</ele>
        <time>2021-08-04T12:27:27.182Z</time>
      </trkpt>
      <trkpt lat="47.02045" lon="8.65797">
        <ele>520</ele>
        <time>2021-08-04T12:27:28.182Z</time>
      </trkpt>
      <trkpt lat="47.02045" lon="8.65797">
        <ele>519</ele>
        <time>2021-08-04T12:27:29.184Z</time>
      </trkpt>
      <trkpt lat="47.02045" lon="8.65797">
        <ele>519</ele>
        <time>2021-08-04T12:27:30.184Z</time>
      </trkpt>
      <trkpt lat="47.02044" lon="8.65798">
        <ele>519</ele>
        <time>2021-08-04T12:27:31.183Z</time>
      </trkpt>
      <trkpt lat="47.02045" lon="8.65798">
        <ele>519</ele>
        <time>2021-08-04T12:27:32.183Z</time>
      </trkpt>
      <trkpt lat="47.02045" lon="8.65799">
        <ele>519</ele>
        <time>2021-08-04T12:27:33.184Z</time>
      </trkpt>
      <trkpt lat="47.02045" lon="8.65799">
        <ele>519</ele>
        <time>2021-08-04T12:27:34.184Z</time>
      </trkpt>
      <trkpt lat="47.02044" lon="8.658">
        <ele>518</ele>
        <time>2021-08-04T12:27:35.183Z</time>
      </trkpt>
      <trkpt lat="47.02044" lon="8.65798">
        <ele>518</ele>
        <time>2021-08-04T12:27:36.183Z</time>
      </trkpt>
      <trkpt lat="47.02043" lon="8.65797">
        <ele>518</ele>
        <time>2021-08-04T12:27:37.184Z</time>
      </trkpt>
      <trkpt lat="47.02044" lon="8.65797">
        <ele>518</ele>
        <time>2021-08-04T12:27:38.184Z</time>
      </trkpt>
      <trkpt lat="47.02044" lon="8.65797">
        <ele>519</ele>
        <time>2021-08-04T12:27:39.184Z</time>
      </trkpt>
      <trkpt lat="47.02045" lon="8.65797">
        <ele>519</ele>
        <time>2021-08-04T12:27:40.184Z</time>
      </trkpt>
      <trkpt lat="47.02045" lon="8.65798">
        <ele>520</ele>
        <time>2021-08-04T12:27:41.184Z</time>
      </trkpt>
      <trkpt lat="47.02045" lon="8.65798">
        <ele>520</ele>
        <time>2021-08-04T12:27:42.183Z</time>
      </trkpt>
      <trkpt lat="47.02045" lon="8.65799">
        <ele>521</ele>
        <time>2021-08-04T12:27:43.184Z</time>
      </trkpt>
      <trkpt lat="47.02045" lon="8.65799">
        <ele>521</ele>
        <time>2021-08-04T12:27:44.184Z</time>
      </trkpt>
      <trkpt lat="47.02045" lon="8.658">
        <ele>521</ele>
        <time>2021-08-04T12:27:45.184Z</time>
      </trkpt>
      <trkpt lat="47.02044" lon="8.65799">
        <ele>521</ele>
        <time>2021-08-04T12:27:46.183Z</time>
      </trkpt>
      <trkpt lat="47.02045" lon="8.65799">
        <ele>521</ele>
        <time>2021-08-04T12:27:47.184Z</time>
      </trkpt>
      <trkpt lat="47.02046" lon="8.65799">
        <ele>522</ele>
        <time>2021-08-04T12:27:48.184Z</time>
      </trkpt>
      <trkpt lat="47.02047" lon="8.65797">
        <ele>522</ele>
        <time>2021-08-04T12:27:49.184Z</time>
      </trkpt>
      <trkpt lat="47.02047" lon="8.65797">
        <ele>523</ele>
        <time>2021-08-04T12:27:50.184Z</time>
      </trkpt>
      <trkpt lat="47.02047" lon="8.65796">
        <ele>523</ele>
        <time>2021-08-04T12:27:51.185Z</time>
      </trkpt>
      <trkpt lat="47.02046" lon="8.65796">
        <ele>523</ele>
        <time>2021-08-04T12:27:52.185Z</time>
      </trkpt>
      <trkpt lat="47.02046" lon="8.65795">
        <ele>524</ele>
        <time>2021-08-04T12:27:53.185Z</time>
      </trkpt>
      <trkpt lat="47.02045" lon="8.65794">
        <ele>524</ele>
        <time>2021-08-04T12:27:54.184Z</time>
      </trkpt>
      <trkpt lat="47.02044" lon="8.65793">
        <ele>524</ele>
        <time>2021-08-04T12:27:55.185Z</time>
      </trkpt>
      <trkpt lat="47.02044" lon="8.65793">
        <ele>524</ele>
        <time>2021-08-04T12:27:56.184Z</time>
      </trkpt>
      <trkpt lat="47.02044" lon="8.65793">
        <ele>524</ele>
        <time>2021-08-04T12:27:57.185Z</time>
      </trkpt>
      <trkpt lat="47.02044" lon="8.65793">
        <ele>524</ele>
        <time>2021-08-04T12:27:58.185Z</time>
      </trkpt>
      <trkpt lat="47.02045" lon="8.65793">
        <ele>524</ele>
        <time>2021-08-04T12:27:59.185Z</time>
      </trkpt>
      <trkpt lat="47.02045" lon="8.65794">
        <ele>524</ele>
        <time>2021-08-04T12:28:00.185Z</time>
      </trkpt>
      <trkpt lat="47.02045" lon="8.65794">
        <ele>525</ele>
        <time>2021-08-04T12:28:01.185Z</time>
      </trkpt>
      <trkpt lat="47.02045" lon="8.65794">
        <ele>525</ele>
        <time>2021-08-04T12:28:02.184Z</time>
      </trkpt>
      <trkpt lat="47.02045" lon="8.65793">
        <ele>525</ele>
        <time>2021-08-04T12:28:03.184Z</time>
      </trkpt>
      <trkpt lat="47.02045" lon="8.65792">
        <ele>525</ele>
        <time>2021-08-04T12:28:04.185Z</time>
      </trkpt>
      <trkpt lat="47.02045" lon="8.65793">
        <ele>525</ele>
        <time>2021-08-04T12:28:05.185Z</time>
      </trkpt>
      <trkpt lat="47.02045" lon="8.65794">
        <ele>525</ele>
        <time>2021-08-04T12:28:06.185Z</time>
      </trkpt>
      <trkpt lat="47.02045" lon="8.65795">
        <ele>525</ele>
        <time>2021-08-04T12:28:07.185Z</time>
      </trkpt>
      <trkpt lat="47.02045" lon="8.65795">
        <ele>525</ele>
        <time>2021-08-04T12:28:08.185Z</time>
      </trkpt>
      <trkpt lat="47.02046" lon="8.65796">
        <ele>524</ele>
        <time>2021-08-04T12:28:09.185Z</time>
      </trkpt>
      <trkpt lat="47.02045" lon="8.65795">
        <ele>524</ele>
        <time>2021-08-04T12:28:10.185Z</time>
      </trkpt>
      <trkpt lat="47.02045" lon="8.65794">
        <ele>524</ele>
        <time>2021-08-04T12:28:11.184Z</time>
      </trkpt>
      <trkpt lat="47.02045" lon="8.65794">
        <ele>524</ele>
        <time>2021-08-04T12:28:12.184Z</time>
      </trkpt>
      <trkpt lat="47.02045" lon="8.65794">
        <ele>524</ele>
        <time>2021-08-04T12:28:13.185Z</time>
      </trkpt>
      <trkpt lat="47.02045" lon="8.65794">
        <ele>524</ele>
        <time>2021-08-04T12:28:14.184Z</time>
      </trkpt>
      <trkpt lat="47.02045" lon="8.65794">
        <ele>523</ele>
        <time>2021-08-04T12:28:15.185Z</time>
      </trkpt>
      <trkpt lat="47.02046" lon="8.65795">
        <ele>523</ele>
        <time>2021-08-04T12:28:16.186Z</time>
      </trkpt>
      <trkpt lat="47.02045" lon="8.65795">
        <ele>522</ele>
        <time>2021-08-04T12:28:17.186Z</time>
      </trkpt>
      <trkpt lat="47.02044" lon="8.65795">
        <ele>521</ele>
        <time>2021-08-04T12:28:18.186Z</time>
      </trkpt>
      <trkpt lat="47.02044" lon="8.65794">
        <ele>522</ele>
        <time>2021-08-04T12:28:26.180Z</time>
      </trkpt>
      <trkpt lat="47.02044" lon="8.65794">
        <ele>522</ele>
        <time>2021-08-04T12:28:27.180Z</time>
      </trkpt>
      <trkpt lat="47.02044" lon="8.65794">
        <ele>523</ele>
        <time>2021-08-04T12:28:28.181Z</time>
      </trkpt>
      <trkpt lat="47.02043" lon="8.65793">
        <ele>524</ele>
        <time>2021-08-04T12:28:29.181Z</time>
      </trkpt>
      <trkpt lat="47.02043" lon="8.65793">
        <ele>524</ele>
        <time>2021-08-04T12:28:30.180Z</time>
      </trkpt>
      <trkpt lat="47.02043" lon="8.65793">
        <ele>525</ele>
        <time>2021-08-04T12:28:31.180Z</time>
      </trkpt>
      <trkpt lat="47.02043" lon="8.65793">
        <ele>526</ele>
        <time>2021-08-04T12:28:32.181Z</time>
      </trkpt>
      <trkpt lat="47.02043" lon="8.65792">
        <ele>527</ele>
        <time>2021-08-04T12:28:33.182Z</time>
      </trkpt>
      <trkpt lat="47.02043" lon="8.65791">
        <ele>528</ele>
        <time>2021-08-04T12:28:34.182Z</time>
      </trkpt>
      <trkpt lat="47.02043" lon="8.6579">
        <ele>528</ele>
        <time>2021-08-04T12:28:35.182Z</time>
      </trkpt>
      <trkpt lat="47.02043" lon="8.6579">
        <ele>528</ele>
        <time>2021-08-04T12:28:36.182Z</time>
      </trkpt>
      <trkpt lat="47.02049" lon="8.65792">
        <ele>528</ele>
        <time>2021-08-04T12:28:41.182Z</time>
      </trkpt>
      <trkpt lat="47.02048" lon="8.65792">
        <ele>528</ele>
        <time>2021-08-04T12:28:42.182Z</time>
      </trkpt>
      <trkpt lat="47.02048" lon="8.65792">
        <ele>529</ele>
        <time>2021-08-04T12:28:43.182Z</time>
      </trkpt>
      <trkpt lat="47.02047" lon="8.65793">
        <ele>529</ele>
        <time>2021-08-04T12:28:44.182Z</time>
      </trkpt>
      <trkpt lat="47.02046" lon="8.65794">
        <ele>529</ele>
        <time>2021-08-04T12:28:45.182Z</time>
      </trkpt>
      <trkpt lat="47.02044" lon="8.65792">
        <ele>531</ele>
        <time>2021-08-04T12:28:46.182Z</time>
      </trkpt>
      <trkpt lat="47.02043" lon="8.65792">
        <ele>531</ele>
        <time>2021-08-04T12:28:47.181Z</time>
      </trkpt>
      <trkpt lat="47.02042" lon="8.65793">
        <ele>531</ele>
        <time>2021-08-04T12:28:48.182Z</time>
      </trkpt>
      <trkpt lat="47.02042" lon="8.65793">
        <ele>531</ele>
        <time>2021-08-04T12:28:49.182Z</time>
      </trkpt>
      <trkpt lat="47.02042" lon="8.65794">
        <ele>531</ele>
        <time>2021-08-04T12:28:50.181Z</time>
      </trkpt>
      <trkpt lat="47.02042" lon="8.65795">
        <ele>531</ele>
        <time>2021-08-04T12:28:51.182Z</time>
      </trkpt>
      <trkpt lat="47.02042" lon="8.65794">
        <ele>525</ele>
        <time>2021-08-04T12:28:52.181Z</time>
      </trkpt>
      <trkpt lat="47.02042" lon="8.65794">
        <ele>525</ele>
        <time>2021-08-04T12:28:53.181Z</time>
      </trkpt>
      <trkpt lat="47.02043" lon="8.65794">
        <ele>524</ele>
        <time>2021-08-04T12:28:54.182Z</time>
      </trkpt>
      <trkpt lat="47.02044" lon="8.65794">
        <ele>524</ele>
        <time>2021-08-04T12:28:55.181Z</time>
      </trkpt>
      <trkpt lat="47.02044" lon="8.65795">
        <ele>523</ele>
        <time>2021-08-04T12:28:56.181Z</time>
      </trkpt>
      <trkpt lat="47.02044" lon="8.65795">
        <ele>523</ele>
        <time>2021-08-04T12:28:57.182Z</time>
      </trkpt>
      <trkpt lat="47.02044" lon="8.65795">
        <ele>522</ele>
        <time>2021-08-04T12:28:58.181Z</time>
      </trkpt>
      <trkpt lat="47.02044" lon="8.65796">
        <ele>521</ele>
        <time>2021-08-04T12:28:59.181Z</time>
      </trkpt>
      <trkpt lat="47.02044" lon="8.65795">
        <ele>520</ele>
        <time>2021-08-04T12:29:00.182Z</time>
      </trkpt>
      <trkpt lat="47.02043" lon="8.65794">
        <ele>519</ele>
        <time>2021-08-04T12:29:01.181Z</time>
      </trkpt>
      <trkpt lat="47.02043" lon="8.65794">
        <ele>519</ele>
        <time>2021-08-04T12:29:02.182Z</time>
      </trkpt>
      <trkpt lat="47.02042" lon="8.65794">
        <ele>519</ele>
        <time>2021-08-04T12:29:03.181Z</time>
      </trkpt>
      <trkpt lat="47.02043" lon="8.65794">
        <ele>518</ele>
        <time>2021-08-04T12:29:04.182Z</time>
      </trkpt>
      <trkpt lat="47.02043" lon="8.65794">
        <ele>518</ele>
        <time>2021-08-04T12:29:05.182Z</time>
      </trkpt>
      <trkpt lat="47.02043" lon="8.65793">
        <ele>517</ele>
        <time>2021-08-04T12:29:06.182Z</time>
      </trkpt>
      <trkpt lat="47.02044" lon="8.65793">
        <ele>516</ele>
        <time>2021-08-04T12:29:07.181Z</time>
      </trkpt>
      <trkpt lat="47.02044" lon="8.65794">
        <ele>516</ele>
        <time>2021-08-04T12:29:08.182Z</time>
      </trkpt>
      <trkpt lat="47.02045" lon="8.65794">
        <ele>516</ele>
        <time>2021-08-04T12:29:09.181Z</time>
      </trkpt>
      <trkpt lat="47.02045" lon="8.65795">
        <ele>515</ele>
        <time>2021-08-04T12:29:10.182Z</time>
      </trkpt>
      <trkpt lat="47.02045" lon="8.65797">
        <ele>515</ele>
        <time>2021-08-04T12:29:11.182Z</time>
      </trkpt>
      <trkpt lat="47.02046" lon="8.65797">
        <ele>515</ele>
        <time>2021-08-04T12:29:12.182Z</time>
      </trkpt>
      <trkpt lat="47.02046" lon="8.65797">
        <ele>515</ele>
        <time>2021-08-04T12:29:13.182Z</time>
      </trkpt>
      <trkpt lat="47.02046" lon="8.65797">
        <ele>515</ele>
        <time>2021-08-04T12:29:14.182Z</time>
      </trkpt>
      <trkpt lat="47.02046" lon="8.65797">
        <ele>515</ele>
        <time>2021-08-04T12:29:15.181Z</time>
      </trkpt>
      <trkpt lat="47.02046" lon="8.65797">
        <ele>515</ele>
        <time>2021-08-04T12:29:16.183Z</time>
      </trkpt>
      <trkpt lat="47.02047" lon="8.65798">
        <ele>515</ele>
        <time>2021-08-04T12:29:17.183Z</time>
      </trkpt>
      <trkpt lat="47.02047" lon="8.65798">
        <ele>515</ele>
        <time>2021-08-04T12:29:18.183Z</time>
      </trkpt>
      <trkpt lat="47.02048" lon="8.65798">
        <ele>515</ele>
        <time>2021-08-04T12:29:19.182Z</time>
      </trkpt>
      <trkpt lat="47.02048" lon="8.65797">
        <ele>515</ele>
        <time>2021-08-04T12:29:20.183Z</time>
      </trkpt>
      <trkpt lat="47.02048" lon="8.65797">
        <ele>516</ele>
        <time>2021-08-04T12:29:21.183Z</time>
      </trkpt>
      <trkpt lat="47.02048" lon="8.65796">
        <ele>516</ele>
        <time>2021-08-04T12:29:22.182Z</time>
      </trkpt>
      <trkpt lat="47.02046" lon="8.65796">
        <ele>516</ele>
        <time>2021-08-04T12:29:23.183Z</time>
      </trkpt>
      <trkpt lat="47.02047" lon="8.65796">
        <ele>516</ele>
        <time>2021-08-04T12:29:24.183Z</time>
      </trkpt>
      <trkpt lat="47.02047" lon="8.65797">
        <ele>516</ele>
        <time>2021-08-04T12:29:25.183Z</time>
      </trkpt>
      <trkpt lat="47.02047" lon="8.65797">
        <ele>516</ele>
        <time>2021-08-04T12:29:26.184Z</time>
      </trkpt>
      <trkpt lat="47.02047" lon="8.65797">
        <ele>516</ele>
        <time>2021-08-04T12:29:27.184Z</time>
      </trkpt>
      <trkpt lat="47.02046" lon="8.65796">
        <ele>517</ele>
        <time>2021-08-04T12:29:28.184Z</time>
      </trkpt>
      <trkpt lat="47.02046" lon="8.65796">
        <ele>517</ele>
        <time>2021-08-04T12:29:29.183Z</time>
      </trkpt>
      <trkpt lat="47.02045" lon="8.65796">
        <ele>517</ele>
        <time>2021-08-04T12:29:30.184Z</time>
      </trkpt>
      <trkpt lat="47.02047" lon="8.65797">
        <ele>518</ele>
        <time>2021-08-04T12:29:31.184Z</time>
      </trkpt>
      <trkpt lat="47.02048" lon="8.65799">
        <ele>518</ele>
        <time>2021-08-04T12:29:32.184Z</time>
      </trkpt>
      <trkpt lat="47.02049" lon="8.65799">
        <ele>518</ele>
        <time>2021-08-04T12:29:33.184Z</time>
      </trkpt>
      <trkpt lat="47.02049" lon="8.65798">
        <ele>518</ele>
        <time>2021-08-04T12:29:34.184Z</time>
      </trkpt>
      <trkpt lat="47.0205" lon="8.65798">
        <ele>518</ele>
        <time>2021-08-04T12:29:35.184Z</time>
      </trkpt>
      <trkpt lat="47.02051" lon="8.65798">
        <ele>518</ele>
        <time>2021-08-04T12:29:36.183Z</time>
      </trkpt>
      <trkpt lat="47.02052" lon="8.65799">
        <ele>518</ele>
        <time>2021-08-04T12:29:37.184Z</time>
      </trkpt>
      <trkpt lat="47.02052" lon="8.65799">
        <ele>518</ele>
        <time>2021-08-04T12:29:38.184Z</time>
      </trkpt>
      <trkpt lat="47.02052" lon="8.65798">
        <ele>517</ele>
        <time>2021-08-04T12:29:39.184Z</time>
      </trkpt>
      <trkpt lat="47.02052" lon="8.65798">
        <ele>517</ele>
        <time>2021-08-04T12:29:40.183Z</time>
      </trkpt>
      <trkpt lat="47.02052" lon="8.65798">
        <ele>516</ele>
        <time>2021-08-04T12:29:41.185Z</time>
      </trkpt>
      <trkpt lat="47.02052" lon="8.65798">
        <ele>516</ele>
        <time>2021-08-04T12:29:42.185Z</time>
      </trkpt>
      <trkpt lat="47.02053" lon="8.65798">
        <ele>516</ele>
        <time>2021-08-04T12:29:43.185Z</time>
      </trkpt>
      <trkpt lat="47.02053" lon="8.65797">
        <ele>516</ele>
        <time>2021-08-04T12:29:44.185Z</time>
      </trkpt>
      <trkpt lat="47.02053" lon="8.65797">
        <ele>515</ele>
        <time>2021-08-04T12:29:45.185Z</time>
      </trkpt>
      <trkpt lat="47.02052" lon="8.65796">
        <ele>515</ele>
        <time>2021-08-04T12:29:46.184Z</time>
      </trkpt>
      <trkpt lat="47.02051" lon="8.65795">
        <ele>514</ele>
        <time>2021-08-04T12:29:47.184Z</time>
      </trkpt>
      <trkpt lat="47.0205" lon="8.65794">
        <ele>514</ele>
        <time>2021-08-04T12:29:48.185Z</time>
      </trkpt>
      <trkpt lat="47.02049" lon="8.65793">
        <ele>514</ele>
        <time>2021-08-04T12:29:49.184Z</time>
      </trkpt>
      <trkpt lat="47.02048" lon="8.65793">
        <ele>514</ele>
        <time>2021-08-04T12:29:50.184Z</time>
      </trkpt>
      <trkpt lat="47.02048" lon="8.65793">
        <ele>514</ele>
        <time>2021-08-04T12:29:51.185Z</time>
      </trkpt>
      <trkpt lat="47.02048" lon="8.65793">
        <ele>514</ele>
        <time>2021-08-04T12:29:52.185Z</time>
      </trkpt>
      <trkpt lat="47.02048" lon="8.65794">
        <ele>514</ele>
        <time>2021-08-04T12:29:53.184Z</time>
      </trkpt>
      <trkpt lat="47.02048" lon="8.65795">
        <ele>514</ele>
        <time>2021-08-04T12:29:54.185Z</time>
      </trkpt>
      <trkpt lat="47.02048" lon="8.65795">
        <ele>514</ele>
        <time>2021-08-04T12:29:55.185Z</time>
      </trkpt>
      <trkpt lat="47.02048" lon="8.65795">
        <ele>515</ele>
        <time>2021-08-04T12:29:56.185Z</time>
      </trkpt>
      <trkpt lat="47.02048" lon="8.65795">
        <ele>516</ele>
        <time>2021-08-04T12:29:57.186Z</time>
      </trkpt>
      <trkpt lat="47.02046" lon="8.65795">
        <ele>517</ele>
        <time>2021-08-04T12:29:58.186Z</time>
      </trkpt>
      <trkpt lat="47.02045" lon="8.65796">
        <ele>519</ele>
        <time>2021-08-04T12:29:59.186Z</time>
      </trkpt>
      <trkpt lat="47.02045" lon="8.65795">
        <ele>519</ele>
        <time>2021-08-04T12:30:00.186Z</time>
      </trkpt>
      <trkpt lat="47.02045" lon="8.65796">
        <ele>519</ele>
        <time>2021-08-04T12:30:01.186Z</time>
      </trkpt>
      <trkpt lat="47.02045" lon="8.65796">
        <ele>519</ele>
        <time>2021-08-04T12:30:02.185Z</time>
      </trkpt>
      <trkpt lat="47.02044" lon="8.65797">
        <ele>519</ele>
        <time>2021-08-04T12:30:03.185Z</time>
      </trkpt>
      <trkpt lat="47.02044" lon="8.65797">
        <ele>519</ele>
        <time>2021-08-04T12:30:04.186Z</time>
      </trkpt>
      <trkpt lat="47.02044" lon="8.65798">
        <ele>519</ele>
        <time>2021-08-04T12:30:05.185Z</time>
      </trkpt>
      <trkpt lat="47.02044" lon="8.65797">
        <ele>519</ele>
        <time>2021-08-04T12:30:06.186Z</time>
      </trkpt>
      <trkpt lat="47.02043" lon="8.65796">
        <ele>519</ele>
        <time>2021-08-04T12:30:07.186Z</time>
      </trkpt>
      <trkpt lat="47.02043" lon="8.65795">
        <ele>519</ele>
        <time>2021-08-04T12:30:08.186Z</time>
      </trkpt>
      <trkpt lat="47.02042" lon="8.65795">
        <ele>519</ele>
        <time>2021-08-04T12:30:09.185Z</time>
      </trkpt>
      <trkpt lat="47.02043" lon="8.65795">
        <ele>519</ele>
        <time>2021-08-04T12:30:10.185Z</time>
      </trkpt>
      <trkpt lat="47.02043" lon="8.65795">
        <ele>519</ele>
        <time>2021-08-04T12:30:11.185Z</time>
      </trkpt>
      <trkpt lat="47.02044" lon="8.65795">
        <ele>519</ele>
        <time>2021-08-04T12:30:12.186Z</time>
      </trkpt>
      <trkpt lat="47.02045" lon="8.65795">
        <ele>519</ele>
        <time>2021-08-04T12:30:13.185Z</time>
      </trkpt>
      <trkpt lat="47.02046" lon="8.65795">
        <ele>519</ele>
        <time>2021-08-04T12:30:14.186Z</time>
      </trkpt>
      <trkpt lat="47.02046" lon="8.65796">
        <ele>519</ele>
        <time>2021-08-04T12:30:15.186Z</time>
      </trkpt>
      <trkpt lat="47.02044" lon="8.65797">
        <ele>519</ele>
        <time>2021-08-04T12:30:16.185Z</time>
      </trkpt>
      <trkpt lat="47.02042" lon="8.65799">
        <ele>518</ele>
        <time>2021-08-04T12:30:17.185Z</time>
      </trkpt>
      <trkpt lat="47.02039" lon="8.65801">
        <ele>518</ele>
        <time>2021-08-04T12:30:18.186Z</time>
      </trkpt>
      <trkpt lat="47.02039" lon="8.65802">
        <ele>518</ele>
        <time>2021-08-04T12:30:19.186Z</time>
      </trkpt>
      <trkpt lat="47.02039" lon="8.65802">
        <ele>518</ele>
        <time>2021-08-04T12:30:20.186Z</time>
      </trkpt>
      <trkpt lat="47.0204" lon="8.65801">
        <ele>518</ele>
        <time>2021-08-04T12:30:21.186Z</time>
      </trkpt>
      <trkpt lat="47.0204" lon="8.65801">
        <ele>518</ele>
        <time>2021-08-04T12:30:22.186Z</time>
      </trkpt>
      <trkpt lat="47.0204" lon="8.65801">
        <ele>519</ele>
        <time>2021-08-04T12:30:23.185Z</time>
      </trkpt>
      <trkpt lat="47.02041" lon="8.658">
        <ele>518</ele>
        <time>2021-08-04T12:30:24.186Z</time>
      </trkpt>
      <trkpt lat="47.02042" lon="8.658">
        <ele>518</ele>
        <time>2021-08-04T12:30:25.186Z</time>
      </trkpt>
    </trkseg>
  </trk>
</gpx>